
Distance (Route):
Temperature : 22.4°C
Humidity : 33.3%
Pressure : 861.2hPa| Receiver | Frames | First received | Last received |
|---|---|---|---|
| OE5MMP-10 | 842 | 2026-09-04 11:06:41 | 2026-09-04 14:11:15 |
| DO3MHA-11 | 713 | 2026-09-04 10:46:41 | 2026-09-04 14:02:38 |
| BAUMI2-15 | 473 | 2026-09-04 11:24:37 | 2026-09-04 13:22:07 |
| OE5WHR-10 | 376 | 2026-09-04 11:02:07 | 2026-09-04 14:06:52 |
| OE5DRO-10 | 321 | 2026-09-04 10:59:40 | 2026-09-04 14:09:21 |
| DG1MFX-10 | 316 | 2026-09-04 10:48:14 | 2026-09-04 13:58:23 |
| OE5DXL-15 | 301 | 2026-09-04 10:52:14 | 2026-09-04 14:11:37 |
| PG1ADW-2 | 277 | 2026-09-04 11:03:22 | 2026-09-04 14:08:54 |
| OE5FHM-15 | 195 | 2026-09-04 11:15:09 | 2026-09-04 14:07:55 |
| OE3JTB-15 | 182 | 2026-09-04 10:57:25 | 2026-09-04 14:08:05 |
| OE5HKT-10 | 173 | 2026-09-04 11:37:13 | 2026-09-04 14:03:01 |
| DL6DJ-15 | 167 | 2026-09-04 10:51:29 | 2026-09-04 13:32:01 |
| OE8JPQ-2 | 109 | 2026-09-04 11:47:14 | 2026-09-04 12:49:19 |
| DG1MJG | 100 | 2026-09-04 10:56:43 | 2026-09-04 13:26:02 |
| DB0UT-7 | 67 | 2026-09-04 11:07:59 | 2026-09-04 13:04:54 |
| DO7DH-14 | 53 | 2026-09-04 11:34:04 | 2026-09-04 13:26:23 |
| OM5KV | 36 | 2026-09-04 12:07:11 | 2026-09-04 12:11:38 |
| PETON7-10 | 30 | 2026-09-04 12:32:02 | 2026-09-04 13:03:57 |
| NBG1-10 | 23 | 2026-09-04 10:56:20 | 2026-09-04 13:32:25 |
| DF7PN | 23 | 2026-09-04 11:31:01 | 2026-09-04 13:04:14 |
| OE5REO-15 | 23 | 2026-09-04 12:26:28 | 2026-09-04 13:00:39 |
| OE5GOL-10 | 17 | 2026-09-04 11:24:45 | 2026-09-04 11:33:15 |
| S52SK | 15 | 2026-09-04 11:28:11 | 2026-09-04 11:39:17 |
| DH7VM-15 | 11 | 2026-09-04 11:19:17 | 2026-09-04 13:03:10 |
| HARRO8 | 11 | 2026-09-04 11:54:59 | 2026-09-04 13:07:05 |
| DK5PH-5 | 11 | 2026-09-04 12:40:50 | 2026-09-04 13:01:10 |
| IN3HCDX | 9 | 2026-09-04 11:40:55 | 2026-09-04 13:00:04 |
| DB0NH | 8 | 2026-09-04 13:26:32 | 2026-09-04 13:32:20 |
| DB0ND-19 | 2 | 2026-09-04 13:12:59 | 2026-09-04 13:21:47 |
| DL9SK-14 | 1 | 2026-09-04 11:13:09 | 2026-09-04 11:13:09 |
| Receiver | Date | Latitude | Longitude | Direction | Speed | Altitude | Climb | Temperature | Humidity | Pressure | Voltage | Killtimer | Uptime | BKT | XDATA |
|---|---|---|---|---|---|---|---|---|---|---|---|---|---|---|---|
| OE5DXL-15 | 2026-09-04 14:11:37 | 47.76349 | 13.50160 | 52° | 9km/h | 1466m | -0.4m/s | 22.4°C | 33.3% | 861.2hPa | 2.7V | 00:00:00 | 00:00:00 | 00:00:00 | |
| OE5DXL-15 | 2026-09-04 14:11:30 | 47.76336 | 13.50153 | 355° | 13km/h | 1473m | -2.1m/s | 22.4°C | 33.4% | 860.1hPa | 2.7V | 06:50:00 | 00:00:00 | 00:00:00 | |
| OE5DXL-15 | 2026-09-04 14:11:20 | 47.76302 | 13.50166 | 354° | 16km/h | 1488m | -1.1m/s | 22.2°C | 33.6% | 858.7hPa | 2.7V | 00:00:00 | 00:00:00 | 00:00:00 | |
| OE5MMP-10 | 2026-09-04 14:11:15 | 47.76278 | 13.50168 | 4° | 20km/h | 1495m | -1.9m/s | 22.1°C | 34.0% | 858.2hPa | 2.7V | 00:00:00 | 03:41:17 | 00:00:00 | |
| OE5DXL-15 | 2026-09-04 14:11:12 | 47.76266 | 13.50168 | 3° | 13km/h | 1502m | -2.1m/s | 22.1°C | 34.2% | 857.4hPa | 2.7V | 00:00:00 | 00:00:00 | 00:00:00 | |
| OE5DXL-15 | 2026-09-04 14:11:06 | 47.76245 | 13.50165 | 17° | 16km/h | 1518m | -3.6m/s | 21.9°C | 34.5% | 855.8hPa | 2.7V | 00:00:00 | 00:00:00 | 00:00:00 | |
| OE5DXL-15 | 2026-09-04 14:10:59 | 47.76217 | 13.50146 | 25° | 20km/h | 1541m | -2.0m/s | 21.7°C | 34.6% | 853.7hPa | 2.7V | 00:00:00 | 00:00:00 | 00:00:00 | |
| OE5MMP-10 | 2026-09-04 14:10:54 | 47.76193 | 13.50132 | 20° | 13km/h | 1552m | -2.0m/s | 21.6°C | 34.9% | 852.8hPa | 2.7V | 00:00:00 | 03:40:56 | 00:00:00 | |
| OE5DXL-15 | 2026-09-04 14:10:53 | 47.76189 | 13.50130 | 20° | 18km/h | 1554m | -2.4m/s | 21.6°C | 34.9% | 852.4hPa | 2.7V | 00:00:00 | 00:00:00 | 00:00:00 | |
| OE5DXL-15 | 2026-09-04 14:10:47 | 47.76164 | 13.50114 | 38° | 13km/h | 1568m | -1.8m/s | 21.5°C | 35.0% | 851.2hPa | 2.7V | 00:00:00 | 00:00:00 | 00:00:00 | |
| OE5DXL-15 | 2026-09-04 14:10:41 | 47.76152 | 13.50091 | 57° | 5km/h | 1578m | -1.5m/s | 21.4°C | 35.2% | 850.2hPa | 2.7V | 06:51:00 | 00:00:00 | 00:00:00 | |
| OE5MMP-10 | 2026-09-04 14:10:37 | 47.76148 | 13.50087 | 354° | 4km/h | 1586m | -2.2m/s | 21.4°C | 35.3% | 849.4hPa | 2.7V | 00:00:00 | 03:40:39 | 00:00:00 | |
| OE5MMP-10 | 2026-09-04 14:10:32 | 47.76138 | 13.50093 | 338° | 13km/h | 1599m | -2.5m/s | 21.3°C | 35.5% | 848.1hPa | 2.7V | 00:00:00 | 03:40:34 | 00:00:00 | |
| OE5DXL-15 | 2026-09-04 14:10:29 | 47.76126 | 13.50096 | 358° | 16km/h | 1606m | -2.1m/s | 21.2°C | 35.9% | 847.6hPa | 2.7V | 00:00:00 | 00:00:00 | 00:00:00 | |
| OE5MMP-10 | 2026-09-04 14:10:27 | 47.76117 | 13.50095 | 6° | 15km/h | 1611m | -2.4m/s | 21.1°C | 35.8% | 847.1hPa | 2.7V | 00:00:00 | 03:40:29 | 00:00:00 | |
| OE5DXL-15 | 2026-09-04 14:10:23 | 47.76101 | 13.50091 | 14° | 9km/h | 1620m | -1.8m/s | 21.0°C | 35.9% | 846.3hPa | 2.7V | 00:00:00 | 00:00:00 | 00:00:00 | |
| OE5DXL-15 | 2026-09-04 14:10:17 | 47.76088 | 13.50090 | 11° | 5km/h | 1636m | -2.6m/s | 20.8°C | 36.0% | 844.8hPa | 2.7V | 00:00:00 | 00:00:00 | 00:00:00 | |
| OE5MMP-10 | 2026-09-04 14:10:16 | 47.76086 | 13.50089 | 17° | 5km/h | 1639m | -2.8m/s | 20.7°C | 36.1% | 844.5hPa | 2.7V | 06:51:00 | 03:40:18 | 00:00:00 | |
| OE5MMP-10 | 2026-09-04 14:10:11 | 47.76080 | 13.50087 | 350° | 7km/h | 1652m | -2.4m/s | 20.6°C | 36.6% | 843.5hPa | 2.7V | 00:00:00 | 03:40:13 | 00:00:00 | |
| OE5DXL-15 | 2026-09-04 14:10:11 | 47.76080 | 13.50087 | 350° | 7km/h | 1652m | -2.4m/s | 20.6°C | 36.6% | 843.5hPa | 2.7V | 00:00:00 | 00:00:00 | 00:00:00 | |
| OE5MMP-10 | 2026-09-04 14:10:06 | 47.76072 | 13.50092 | 331° | 15km/h | 1665m | -2.6m/s | 20.5°C | 36.5% | 842.3hPa | 2.7V | 00:00:00 | 03:40:08 | 00:00:00 | |
| OE5DXL-15 | 2026-09-04 14:10:05 | 47.76070 | 13.50095 | 328° | 11km/h | 1667m | -2.7m/s | 20.5°C | 36.5% | 842.1hPa | 2.7V | 00:00:00 | 00:00:00 | 00:00:00 | |
| OE5DXL-15 | 2026-09-04 14:09:59 | 47.76054 | 13.50108 | 342° | 16km/h | 1690m | -3.5m/s | 20.3°C | 37.0% | 840.3hPa | 2.7V | 06:51:00 | 00:00:00 | 00:00:00 | |
| OE5DXL-15 | 2026-09-04 14:09:53 | 47.76028 | 13.50110 | 8° | 20km/h | 1706m | -2.6m/s | 20.1°C | 37.5% | 838.4hPa | 2.7V | 00:00:00 | 00:00:00 | 00:00:00 | |
| OE5MMP-10 | 2026-09-04 14:09:47 | 47.75997 | 13.50101 | 20° | 20km/h | 1724m | -2.6m/s | 19.9°C | 38.1% | 836.7hPa | 2.7V | 00:00:00 | 03:39:49 | 00:00:00 | |
| OE5DXL-15 | 2026-09-04 14:09:47 | 47.75997 | 13.50101 | 20° | 20km/h | 1724m | -2.6m/s | 19.9°C | 38.1% | 836.7hPa | 2.7V | 00:00:00 | 00:00:00 | 00:00:00 | |
| OE5DXL-15 | 2026-09-04 14:09:41 | 47.75969 | 13.50082 | 28° | 20km/h | 1744m | -4.2m/s | 19.7°C | 38.9% | 834.9hPa | 2.7V | 00:00:00 | 00:00:00 | 00:00:00 | |
| OE5DXL-15 | 2026-09-04 14:09:35 | 47.75944 | 13.50059 | 42° | 18km/h | 1768m | -2.8m/s | 19.5°C | 39.2% | 832.6hPa | 2.7V | 00:00:00 | 00:00:00 | 00:00:00 | |
| OE5DXL-15 | 2026-09-04 14:09:29 | 47.75922 | 13.50034 | 29° | 20km/h | 1787m | -2.2m/s | 19.5°C | 37.8% | 830.7hPa | 2.7V | 00:00:00 | 00:00:00 | 00:00:00 | |
| OE5DXL-15 | 2026-09-04 14:09:23 | 47.75898 | 13.50005 | 32° | 20km/h | 1798m | -1.6m/s | 19.3°C | 39.0% | 829.7hPa | 2.7V | 00:00:00 | 00:00:00 | 00:00:00 | |
| OE5MMP-10 | 2026-09-04 14:09:22 | 47.75894 | 13.50002 | 34° | 20km/h | 1800m | -1.8m/s | 19.3°C | 38.8% | 829.4hPa | 2.7V | 00:00:00 | 03:39:24 | 00:00:00 | |
| OE5DRO-10 | 2026-09-04 14:09:21 | 47.75891 | 13.49998 | 33° | 20km/h | 1802m | -2.2m/s | 19.3°C | 38.9% | 829.4hPa | 2.7V | 00:00:00 | 00:00:00 | 00:00:00 | |
| OE5DRO-10 | 2026-09-04 14:09:19 | 47.75882 | 13.49989 | 34° | 24km/h | 1806m | -2.2m/s | 19.2°C | 39.7% | 828.9hPa | 2.7V | 06:52:00 | 00:00:00 | 00:00:00 | |
| OE5DRO-10 | 2026-09-04 14:09:17 | 47.75872 | 13.49980 | 33° | 22km/h | 1811m | -2.9m/s | 19.2°C | 38.1% | 828.5hPa | 2.7V | 00:00:00 | 00:00:00 | 00:00:00 | |
| OE5DXL-15 | 2026-09-04 14:09:17 | 47.75872 | 13.49980 | 33° | 24km/h | 1811m | -2.9m/s | 19.2°C | 38.1% | 828.5hPa | 2.7V | 06:52:00 | 00:00:00 | 00:00:00 | |
| OE5MMP-10 | 2026-09-04 14:09:15 | 47.75862 | 13.49970 | 35° | 22km/h | 1816m | -3.0m/s | 19.2°C | 37.4% | 828.0hPa | 2.7V | 00:00:00 | 03:39:17 | 00:00:00 | |
| OE5DRO-10 | 2026-09-04 14:09:14 | 47.75858 | 13.49965 | 35° | 24km/h | 1819m | -2.8m/s | 19.2°C | 37.3% | 827.6hPa | 2.7V | 00:00:00 | 00:00:00 | 00:00:00 | |
| OE5DRO-10 | 2026-09-04 14:09:12 | 47.75848 | 13.49954 | 44° | 26km/h | 1822m | -0.6m/s | 19.2°C | 37.7% | 827.2hPa | 2.7V | 00:00:00 | 00:00:00 | 00:00:00 | |
| OE5DXL-15 | 2026-09-04 14:09:11 | 47.75844 | 13.49947 | 53° | 24km/h | 1823m | -0.6m/s | 19.1°C | 37.6% | 827.2hPa | 2.7V | 00:00:00 | 00:00:00 | 00:00:00 | |
| OE5DRO-10 | 2026-09-04 14:09:10 | 47.75840 | 13.49940 | 58° | 24km/h | 1824m | -1.1m/s | 19.1°C | 38.1% | 827.2hPa | 2.7V | 00:00:00 | 00:00:00 | 00:00:00 | |
| OE5DRO-10 | 2026-09-04 14:09:08 | 47.75834 | 13.49925 | 59° | 22km/h | 1828m | -2.7m/s | 19.1°C | 38.2% | 826.7hPa | 2.7V | 00:00:00 | 00:00:00 | 00:00:00 | |
| OE5DRO-10 | 2026-09-04 14:09:06 | 47.75828 | 13.49911 | 61° | 26km/h | 1834m | -3.8m/s | 19.0°C | 37.6% | 826.0hPa | 2.7V | 00:00:00 | 00:00:00 | 00:00:00 | |
| OE5DXL-15 | 2026-09-04 14:09:05 | 47.75825 | 13.49902 | 72° | 26km/h | 1838m | -3.4m/s | 19.0°C | 37.8% | 825.6hPa | 2.7V | 00:00:00 | 03:39:07 | 00:00:00 | |
| OE5DRO-10 | 2026-09-04 14:09:04 | 47.75823 | 13.49893 | 69° | 26km/h | 1841m | -4.1m/s | 18.9°C | 37.8% | 825.5hPa | 2.7V | 06:52:00 | 00:00:00 | 00:00:00 | |
| OE5DRO-10 | 2026-09-04 14:09:02 | 47.75819 | 13.49875 | 72° | 26km/h | 1850m | -4.6m/s | 18.9°C | 37.3% | 824.5hPa | 2.7V | 00:00:00 | 00:00:00 | 00:00:00 | |
| OE5DRO-10 | 2026-09-04 14:09:00 | 47.75816 | 13.49857 | 81° | 24km/h | 1858m | -4.8m/s | 18.8°C | 37.3% | 823.6hPa | 2.7V | 00:00:00 | 00:00:00 | 00:00:00 | |
| OE5MMP-10 | 2026-09-04 14:08:59 | 47.75815 | 13.49849 | 82° | 22km/h | 1863m | -4.6m/s | 18.8°C | 37.6% | 823.1hPa | 2.7V | 00:00:00 | 03:39:01 | 00:00:00 | |
| OE5DXL-15 | 2026-09-04 14:08:59 | 47.75815 | 13.49849 | 82° | 29km/h | 1863m | -4.6m/s | 18.8°C | 37.6% | 823.1hPa | 2.7V | 00:00:00 | 00:00:00 | 00:00:00 | |
| OE5DRO-10 | 2026-09-04 14:08:56 | 47.75812 | 13.49819 | 85° | 31km/h | 1877m | -4.8m/s | 18.7°C | 37.2% | 821.8hPa | 2.7V | 00:00:00 | 00:00:00 | 00:00:00 | |
| PG1ADW-2 | 2026-09-04 14:08:54 | 47.75809 | 13.49796 | 81° | 33km/h | 1886m | -4.2m/s | 18.6°C | 37.4% | 821.1hPa | 2.7V | 00:00:00 | 00:00:00 | 00:00:00 | |
| OE5DXL-15 | 2026-09-04 14:08:51 | 47.75802 | 13.49762 | 74° | 31km/h | 1896m | -3.7m/s | 18.5°C | 37.7% | 819.9hPa | 2.7V | 00:00:00 | 00:00:00 | 00:00:00 | |
| OE5MMP-10 | 2026-09-04 14:08:50 | 47.75799 | 13.49751 | 70° | 33km/h | 1900m | -3.7m/s | 18.5°C | 37.7% | 819.6hPa | 2.7V | 06:52:00 | 03:38:52 | 00:00:00 | |
| OE5DRO-10 | 2026-09-04 14:08:49 | 47.75796 | 13.49741 | 69° | 33km/h | 1903m | -4.0m/s | 18.4°C | 37.8% | 819.3hPa | 2.7V | 00:00:00 | 00:00:00 | 00:00:00 | |
| OE5DRO-10 | 2026-09-04 14:08:42 | 47.75778 | 13.49658 | 72° | 35km/h | 1930m | -3.8m/s | 18.2°C | 38.3% | 816.9hPa | 2.7V | 00:00:00 | 00:00:00 | 00:00:00 | |
| OE5DRO-10 | 2026-09-04 14:08:35 | 47.75770 | 13.49571 | 82° | 27km/h | 1952m | -2.5m/s | 18.0°C | 39.8% | 814.8hPa | 2.7V | 00:00:00 | 00:00:00 | 00:00:00 | |
| OE5MMP-10 | 2026-09-04 14:08:35 | 47.75770 | 13.49571 | 82° | 31km/h | 1952m | -2.5m/s | 18.0°C | 39.8% | 814.8hPa | 2.7V | 00:00:00 | 03:38:37 | 00:00:00 | |
| PG1ADW-2 | 2026-09-04 14:08:34 | 47.75769 | 13.49560 | 86° | 27km/h | 1955m | -3.5m/s | 18.0°C | 41.8% | 814.4hPa | 2.7V | 00:00:00 | 03:38:36 | 00:00:00 | |
| OE5DXL-15 | 2026-09-04 14:08:31 | 47.75769 | 13.49530 | 91° | 27km/h | 1964m | -3.0m/s | 17.9°C | 41.0% | 813.2hPa | 2.7V | 00:00:00 | 00:00:00 | 00:00:00 | |
| OE5DRO-10 | 2026-09-04 14:08:28 | 47.75771 | 13.49499 | 97° | 26km/h | 1972m | -2.7m/s | 17.8°C | 41.7% | 812.4hPa | 2.7V | 06:53:00 | 00:00:00 | 00:00:00 | |
| OE5DRO-10 | 2026-09-04 14:08:21 | 47.75768 | 13.49434 | 85° | 27km/h | 1987m | -2.4m/s | 17.7°C | 42.8% | 810.8hPa | 2.7V | 00:00:00 | 00:00:00 | 00:00:00 | |
| PG1ADW-2 | 2026-09-04 14:08:14 | 47.75754 | 13.49364 | 60° | 38km/h | 2002m | -2.5m/s | 17.4°C | 41.5% | 809.5hPa | 2.7V | 00:00:00 | 00:00:00 | 00:00:00 | |
| OE5DXL-15 | 2026-09-04 14:08:11 | 47.75741 | 13.49331 | 61° | 40km/h | 2010m | -2.1m/s | 17.4°C | 41.6% | 808.8hPa | 2.7V | 00:00:00 | 00:00:00 | 00:00:00 | |
| OE5DRO-10 | 2026-09-04 14:08:07 | 47.75723 | 13.49285 | 64° | 38km/h | 2021m | -2.0m/s | 17.2°C | 41.0% | 807.8hPa | 2.7V | 00:00:00 | 00:00:00 | 00:00:00 | |
| OE3JTB-15 | 2026-09-04 14:08:05 | 47.75715 | 13.49260 | 69° | 38km/h | 2025m | -2.3m/s | 17.2°C | 41.0% | 807.3hPa | 2.7V | 00:00:00 | 03:38:07 | 00:00:00 | |
| OE3JTB-15 | 2026-09-04 14:08:03 | 47.75707 | 13.49233 | 71° | 42km/h | 2030m | -2.2m/s | 17.2°C | 42.0% | 806.7hPa | 2.7V | 00:00:00 | 00:00:00 | 00:00:00 | |
| OE3JTB-15 | 2026-09-04 14:08:01 | 47.75700 | 13.49204 | 70° | 42km/h | 2035m | -2.7m/s | 17.1°C | 42.3% | 806.3hPa | 2.7V | 06:53:00 | 00:00:00 | 00:00:00 | |
| OE5DRO-10 | 2026-09-04 14:08:00 | 47.75696 | 13.49190 | 74° | 42km/h | 2038m | -2.3m/s | 17.1°C | 42.0% | 806.1hPa | 2.7V | 00:00:00 | 00:00:00 | 00:00:00 | |
| OE3JTB-15 | 2026-09-04 14:07:59 | 47.75693 | 13.49175 | 72° | 42km/h | 2040m | -2.1m/s | 17.1°C | 42.0% | 805.8hPa | 2.7V | 00:00:00 | 03:38:01 | 00:00:00 | |
| OE5MMP-10 | 2026-09-04 14:07:57 | 47.75687 | 13.49145 | 74° | 44km/h | 2045m | -2.1m/s | 17.0°C | 42.4% | 805.3hPa | 2.7V | 00:00:00 | 03:37:59 | 00:00:00 | |
| OE5FHM-15 | 2026-09-04 14:07:55 | 47.75680 | 13.49114 | 72° | 37km/h | 2050m | -2.9m/s | 17.0°C | 41.4% | 804.8hPa | 2.7V | 00:00:00 | 03:37:57 | 00:00:00 | |
| PG1ADW-2 | 2026-09-04 14:07:54 | 47.75677 | 13.49099 | 73° | 37km/h | 2053m | -3.2m/s | 17.0°C | 40.3% | 804.5hPa | 2.7V | 00:00:00 | 00:00:00 | 00:00:00 | |
| OE3JTB-15 | 2026-09-04 14:07:53 | 47.75673 | 13.49084 | 71° | 44km/h | 2056m | -2.6m/s | 17.0°C | 40.2% | 804.3hPa | 2.7V | 00:00:00 | 03:37:55 | 00:00:00 | |
| OE3JTB-15 | 2026-09-04 14:07:51 | 47.75668 | 13.49053 | 79° | 44km/h | 2062m | -2.5m/s | 16.9°C | 40.2% | 803.9hPa | 2.7V | 00:00:00 | 00:00:00 | 00:00:00 | |
| OE3JTB-15 | 2026-09-04 14:07:49 | 47.75663 | 13.49021 | 81° | 42km/h | 2068m | -1.9m/s | 16.9°C | 40.2% | 803.4hPa | 2.7V | 00:00:00 | 00:00:00 | 00:00:00 | |
| OE5MMP-10 | 2026-09-04 14:07:47 | 47.75660 | 13.48991 | 82° | 33km/h | 2072m | -1.5m/s | 16.8°C | 40.7% | 803.1hPa | 2.7V | 00:00:00 | 03:37:49 | 00:00:00 | |
| OE5DRO-10 | 2026-09-04 14:07:46 | 47.75658 | 13.48977 | 81° | 33km/h | 2074m | -1.6m/s | 16.8°C | 40.9% | 802.9hPa | 2.7V | 00:00:00 | 00:00:00 | 00:00:00 | |
| OE3JTB-15 | 2026-09-04 14:07:45 | 47.75656 | 13.48964 | 79° | 33km/h | 2075m | -1.9m/s | 16.8°C | 41.0% | 802.8hPa | 2.7V | 00:00:00 | 00:00:00 | 00:00:00 | |
| OE3JTB-15 | 2026-09-04 14:07:43 | 47.75653 | 13.48940 | 80° | 33km/h | 2080m | -1.8m/s | 16.7°C | 41.0% | 802.3hPa | 2.7V | 00:00:00 | 00:00:00 | 00:00:00 | |
| OE3JTB-15 | 2026-09-04 14:07:41 | 47.75651 | 13.48915 | 81° | 31km/h | 2084m | -2.4m/s | 16.7°C | 41.1% | 801.9hPa | 2.7V | 00:00:00 | 03:37:43 | 00:00:00 | |
| OE3JTB-15 | 2026-09-04 14:07:39 | 47.75647 | 13.48891 | 77° | 33km/h | 2088m | -1.7m/s | 16.7°C | 41.2% | 801.4hPa | 2.7V | 00:00:00 | 00:00:00 | 00:00:00 | |
| OE5MMP-10 | 2026-09-04 14:07:37 | 47.75643 | 13.48868 | 74° | 33km/h | 2092m | -2.7m/s | 16.6°C | 41.2% | 801.2hPa | 2.7V | 00:00:00 | 03:37:39 | 00:00:00 | |
| OE3JTB-15 | 2026-09-04 14:07:35 | 47.75638 | 13.48845 | 72° | 35km/h | 2097m | -1.9m/s | 16.6°C | 41.3% | 800.7hPa | 2.7V | 00:00:00 | 03:37:37 | 00:00:00 | |
| PG1ADW-2 | 2026-09-04 14:07:34 | 47.75635 | 13.48834 | 68° | 38km/h | 2099m | -1.6m/s | 16.6°C | 41.3% | 800.6hPa | 2.7V | 00:00:00 | 00:00:00 | 00:00:00 | |
| OE3JTB-15 | 2026-09-04 14:07:33 | 47.75632 | 13.48822 | 65° | 33km/h | 2100m | -2.0m/s | 16.6°C | 41.2% | 800.4hPa | 2.7V | 06:54:00 | 00:00:00 | 00:00:00 | |
| OE5DRO-10 | 2026-09-04 14:07:32 | 47.75628 | 13.48810 | 66° | 33km/h | 2102m | -2.2m/s | 16.6°C | 41.1% | 800.2hPa | 2.7V | 00:00:00 | 00:00:00 | 00:00:00 | |
| OE5FHM-15 | 2026-09-04 14:07:31 | 47.75625 | 13.48799 | 72° | 38km/h | 2104m | -1.9m/s | 16.5°C | 41.2% | 800.0hPa | 2.7V | 00:00:00 | 03:37:33 | 00:00:00 | |
| OE3JTB-15 | 2026-09-04 14:07:29 | 47.75619 | 13.48777 | 68° | 33km/h | 2107m | -2.0m/s | 16.5°C | 41.4% | 799.7hPa | 2.7V | 00:00:00 | 03:37:31 | 00:00:00 | |
| OE3JTB-15 | 2026-09-04 14:07:27 | 47.75612 | 13.48753 | 70° | 35km/h | 2111m | -2.3m/s | 16.4°C | 41.5% | 799.1hPa | 2.7V | 00:00:00 | 00:00:00 | 00:00:00 | |
| OE3JTB-15 | 2026-09-04 14:07:25 | 47.75604 | 13.48729 | 65° | 38km/h | 2115m | -2.1m/s | 16.4°C | 41.6% | 798.8hPa | 2.7V | 00:00:00 | 00:00:00 | 00:00:00 | |
| OE3JTB-15 | 2026-09-04 14:07:23 | 47.75596 | 13.48702 | 71° | 42km/h | 2120m | -1.8m/s | 16.4°C | 41.8% | 798.5hPa | 2.7V | 00:00:00 | 03:37:25 | 00:00:00 | |
| OE3JTB-15 | 2026-09-04 14:07:21 | 47.75589 | 13.48672 | 72° | 44km/h | 2123m | -1.8m/s | 16.3°C | 41.7% | 798.1hPa | 2.7V | 00:00:00 | 00:00:00 | 00:00:00 | |
| OE3JTB-15 | 2026-09-04 14:07:19 | 47.75582 | 13.48640 | 74° | 46km/h | 2126m | -1.3m/s | 16.3°C | 41.7% | 797.9hPa | 2.7V | 06:54:00 | 00:00:00 | 00:00:00 | |
| OE5DRO-10 | 2026-09-04 14:07:18 | 47.75579 | 13.48623 | 77° | 38km/h | 2127m | -1.3m/s | 16.3°C | 41.8% | 797.7hPa | 2.7V | 00:00:00 | 00:00:00 | 00:00:00 | |
| OE3JTB-15 | 2026-09-04 14:07:17 | 47.75576 | 13.48607 | 80° | 42km/h | 2128m | -1.6m/s | 16.3°C | 41.6% | 797.7hPa | 2.7V | 00:00:00 | 03:37:19 | 00:00:00 | |
| OE3JTB-15 | 2026-09-04 14:07:15 | 47.75573 | 13.48576 | 81° | 37km/h | 2131m | -1.7m/s | 16.3°C | 40.6% | 797.4hPa | 2.7V | 00:00:00 | 00:00:00 | 00:00:00 | |
| PG1ADW-2 | 2026-09-04 14:07:14 | 47.75572 | 13.48562 | 85° | 33km/h | 2133m | -1.8m/s | 16.3°C | 40.8% | 797.2hPa | 2.7V | 06:54:00 | 03:37:16 | 00:00:00 | |
| OE3JTB-15 | 2026-09-04 14:07:13 | 47.75571 | 13.48550 | 81° | 33km/h | 2135m | -2.2m/s | 16.3°C | 40.6% | 797.0hPa | 2.7V | 00:00:00 | 00:00:00 | 00:00:00 | |
| OE5DXL-15 | 2026-09-04 14:07:11 | 47.75568 | 13.48526 | 85° | 33km/h | 2138m | -2.2m/s | 16.3°C | 40.8% | 796.5hPa | 2.7V | 00:00:00 | 00:00:00 | 00:00:00 | |
| OE3JTB-15 | 2026-09-04 14:07:09 | 47.75566 | 13.48503 | 73° | 29km/h | 2141m | -0.8m/s | 16.3°C | 40.6% | 796.2hPa | 2.7V | 00:00:00 | 00:00:00 | 00:00:00 | |
| OE5MMP-10 | 2026-09-04 14:07:08 | 47.75563 | 13.48492 | 77° | 31km/h | 2142m | -2.0m/s | 16.3°C | 40.6% | 796.0hPa | 2.7V | 00:00:00 | 03:37:10 | 00:00:00 | |
| OE3JTB-15 | 2026-09-04 14:07:07 | 47.75561 | 13.48482 | 67° | 29km/h | 2144m | -1.0m/s | 16.2°C | 40.5% | 795.9hPa | 2.7V | 00:00:00 | 00:00:00 | 00:00:00 | |
| OE3JTB-15 | 2026-09-04 14:07:05 | 47.75555 | 13.48462 | 62° | 31km/h | 2146m | -1.2m/s | 16.1°C | 42.3% | 795.8hPa | 2.7V | 06:54:00 | 03:37:07 | 00:00:00 | |
| OE5DRO-10 | 2026-09-04 14:07:04 | 47.75552 | 13.48451 | 63° | 33km/h | 2147m | -1.0m/s | 16.1°C | 41.9% | 795.7hPa | 2.7V | 00:00:00 | 00:00:00 | 00:00:00 | |
| OE3JTB-15 | 2026-09-04 14:07:03 | 47.75548 | 13.48441 | 63° | 31km/h | 2148m | -2.0m/s | 16.1°C | 42.2% | 795.6hPa | 2.7V | 00:00:00 | 00:00:00 | 00:00:00 | |
| OE3JTB-15 | 2026-09-04 14:07:01 | 47.75540 | 13.48420 | 65° | 33km/h | 2150m | -2.1m/s | 16.1°C | 42.1% | 795.2hPa | 2.7V | 00:00:00 | 00:00:00 | 00:00:00 | |
| OE3JTB-15 | 2026-09-04 14:06:59 | 47.75532 | 13.48398 | 65° | 33km/h | 2153m | -1.9m/s | 16.0°C | 42.0% | 795.0hPa | 2.7V | 00:00:00 | 03:37:01 | 00:00:00 | |
| OE5MMP-10 | 2026-09-04 14:06:58 | 47.75528 | 13.48387 | 58° | 38km/h | 2155m | -0.8m/s | 16.0°C | 42.0% | 794.7hPa | 2.7V | 06:54:00 | 03:37:00 | 00:00:00 | |
| OE3JTB-15 | 2026-09-04 14:06:57 | 47.75524 | 13.48376 | 63° | 37km/h | 2155m | -0.8m/s | 16.0°C | 41.9% | 794.6hPa | 2.7V | 00:00:00 | 00:00:00 | 00:00:00 | |
| OE3JTB-15 | 2026-09-04 14:06:55 | 47.75515 | 13.48353 | 62° | 38km/h | 2157m | -1.5m/s | 16.0°C | 41.5% | 794.5hPa | 2.7V | 00:00:00 | 00:00:00 | 00:00:00 | |
| PG1ADW-2 | 2026-09-04 14:06:54 | 47.75510 | 13.48340 | 59° | 44km/h | 2159m | -1.1m/s | 16.0°C | 41.7% | 794.4hPa | 2.7V | 00:00:00 | 00:00:00 | 00:00:00 | |
| OE3JTB-15 | 2026-09-04 14:06:53 | 47.75504 | 13.48327 | 59° | 40km/h | 2160m | -2.4m/s | 16.0°C | 41.9% | 794.3hPa | 2.7V | 00:00:00 | 03:36:55 | 00:00:00 | |
| OE5WHR-10 | 2026-09-04 14:06:52 | 47.75499 | 13.48314 | 58° | 46km/h | 2163m | -1.5m/s | 16.0°C | 41.5% | 794.0hPa | 2.7V | 00:00:00 | 00:00:00 | 00:00:00 | |
| OE5FHM-15 | 2026-09-04 14:06:51 | 47.75493 | 13.48302 | 58° | 46km/h | 2164m | -1.9m/s | 15.9°C | 41.9% | 794.0hPa | 2.7V | 00:00:00 | 03:36:53 | 00:00:00 | |
| OE5DRO-10 | 2026-09-04 14:06:50 | 47.75488 | 13.48289 | 57° | 44km/h | 2165m | -1.1m/s | 15.9°C | 42.5% | 793.8hPa | 2.7V | 06:54:00 | 00:00:00 | 00:00:00 | |
| OE3JTB-15 | 2026-09-04 14:06:49 | 47.75482 | 13.48276 | 57° | 40km/h | 2167m | -2.1m/s | 15.9°C | 43.0% | 793.6hPa | 2.7V | 00:00:00 | 00:00:00 | 00:00:00 | |
| OE5MMP-10 | 2026-09-04 14:06:48 | 47.75477 | 13.48263 | 62° | 46km/h | 2169m | -1.7m/s | 15.8°C | 43.1% | 793.3hPa | 2.7V | 00:00:00 | 03:36:50 | 00:00:00 | |
| OE3JTB-15 | 2026-09-04 14:06:47 | 47.75472 | 13.48249 | 63° | 44km/h | 2171m | -1.6m/s | 15.8°C | 42.9% | 793.1hPa | 2.7V | 00:00:00 | 03:36:49 | 00:00:00 | |
| OE3JTB-15 | 2026-09-04 14:06:45 | 47.75462 | 13.48219 | 67° | 44km/h | 2174m | -2.0m/s | 15.8°C | 43.2% | 792.8hPa | 2.7V | 00:00:00 | 00:00:00 | 00:00:00 | |
| OE3JTB-15 | 2026-09-04 14:06:41 | 47.75445 | 13.48156 | 68° | 47km/h | 2185m | -2.5m/s | 15.5°C | 45.3% | 791.9hPa | 2.7V | 00:00:00 | 03:36:43 | 00:00:00 | |
| OE3JTB-15 | 2026-09-04 14:06:39 | 47.75436 | 13.48123 | 71° | 47km/h | 2191m | -2.5m/s | 15.5°C | 45.3% | 791.4hPa | 2.7V | 00:00:00 | 00:00:00 | 00:00:00 | |
| OE5MMP-10 | 2026-09-04 14:06:38 | 47.75432 | 13.48106 | 70° | 49km/h | 2194m | -2.1m/s | 15.5°C | 45.5% | 791.3hPa | 2.7V | 00:00:00 | 03:36:40 | 00:00:00 | |
| OE5WHR-10 | 2026-09-04 14:06:37 | 47.75428 | 13.48090 | 71° | 47km/h | 2195m | -2.2m/s | 15.5°C | 45.3% | 791.1hPa | 2.7V | 06:55:00 | 00:00:00 | 00:00:00 | |
| OE5DRO-10 | 2026-09-04 14:06:36 | 47.75424 | 13.48073 | 75° | 47km/h | 2198m | -2.3m/s | 15.4°C | 45.3% | 790.7hPa | 2.7V | 00:00:00 | 00:00:00 | 00:00:00 | |
| OE3JTB-15 | 2026-09-04 14:06:35 | 47.75421 | 13.48056 | 72° | 47km/h | 2201m | -2.2m/s | 15.4°C | 45.4% | 790.7hPa | 2.7V | 00:00:00 | 03:36:37 | 00:00:00 | |
| PG1ADW-2 | 2026-09-04 14:06:34 | 47.75417 | 13.48040 | 72° | 40km/h | 2204m | -1.8m/s | 15.4°C | 45.5% | 790.3hPa | 2.7V | 00:00:00 | 00:00:00 | 00:00:00 | |
| OE3JTB-15 | 2026-09-04 14:06:33 | 47.75413 | 13.48023 | 73° | 47km/h | 2206m | -2.0m/s | 15.4°C | 45.3% | 790.1hPa | 2.7V | 00:00:00 | 00:00:00 | 00:00:00 | |
| OE5DXL-15 | 2026-09-04 14:06:31 | 47.75406 | 13.47988 | 74° | 38km/h | 2211m | -2.2m/s | 15.3°C | 45.8% | 789.5hPa | 2.7V | 00:00:00 | 00:00:00 | 00:00:00 | |
| OE5WHR-10 | 2026-09-04 14:06:29 | 47.75400 | 13.47954 | 76° | 44km/h | 2215m | -2.3m/s | 15.4°C | 44.9% | 789.2hPa | 2.7V | 00:00:00 | 03:36:31 | 00:00:00 | |
| OE3JTB-15 | 2026-09-04 14:06:25 | 47.75390 | 13.47890 | 79° | 40km/h | 2226m | -2.4m/s | 15.2°C | 44.9% | 788.4hPa | 2.7V | 00:00:00 | 00:00:00 | 00:00:00 | |
| OE5WHR-10 | 2026-09-04 14:06:23 | 47.75386 | 13.47861 | 82° | 35km/h | 2231m | -2.2m/s | 15.1°C | 46.1% | 787.8hPa | 2.7V | 00:00:00 | 00:00:00 | 00:00:00 | |
| OE5DRO-10 | 2026-09-04 14:06:22 | 47.75385 | 13.47847 | 80° | 35km/h | 2233m | -2.2m/s | 15.1°C | 46.4% | 787.8hPa | 2.7V | 00:00:00 | 00:00:00 | 00:00:00 | |
| OE3JTB-15 | 2026-09-04 14:06:21 | 47.75383 | 13.47834 | 79° | 35km/h | 2235m | -2.0m/s | 15.1°C | 46.3% | 787.6hPa | 2.7V | 00:00:00 | 00:00:00 | 00:00:00 | |
| OE3JTB-15 | 2026-09-04 14:06:19 | 47.75380 | 13.47810 | 75° | 33km/h | 2239m | -2.1m/s | 15.1°C | 46.4% | 787.3hPa | 2.7V | 00:00:00 | 00:00:00 | 00:00:00 | |
| OE5WHR-10 | 2026-09-04 14:06:17 | 47.75374 | 13.47786 | 67° | 37km/h | 2243m | -1.8m/s | 15.1°C | 46.3% | 786.8hPa | 2.7V | 00:00:00 | 00:00:00 | 00:00:00 | |
| OE5MMP-10 | 2026-09-04 14:06:16 | 47.75370 | 13.47774 | 64° | 38km/h | 2245m | -2.0m/s | 15.1°C | 45.4% | 786.5hPa | 2.7V | 00:00:00 | 03:36:18 | 00:00:00 | |
| OE3JTB-15 | 2026-09-04 14:06:15 | 47.75366 | 13.47762 | 61° | 37km/h | 2247m | -2.1m/s | 15.0°C | 46.3% | 786.5hPa | 2.7V | 00:00:00 | 00:00:00 | 00:00:00 | |
| PG1ADW-2 | 2026-09-04 14:06:14 | 47.75362 | 13.47750 | 61° | 44km/h | 2249m | -1.8m/s | 15.0°C | 45.8% | 786.3hPa | 2.7V | 00:00:00 | 00:00:00 | 00:00:00 | |
| OE3JTB-15 | 2026-09-04 14:06:13 | 47.75357 | 13.47738 | 61° | 38km/h | 2252m | -1.9m/s | 15.0°C | 45.9% | 786.1hPa | 2.7V | 00:00:00 | 00:00:00 | 00:00:00 | |
| OE5DXL-15 | 2026-09-04 14:06:11 | 47.75347 | 13.47713 | 60° | 46km/h | 2255m | -2.3m/s | 15.0°C | 46.1% | 785.7hPa | 2.7V | 00:00:00 | 00:00:00 | 00:00:00 | |
| OE5FHM-15 | 2026-09-04 14:06:10 | 47.75342 | 13.47701 | 58° | 47km/h | 2258m | -2.2m/s | 14.9°C | 46.1% | 785.6hPa | 2.7V | 00:00:00 | 03:36:12 | 00:00:00 | |
| OE3JTB-15 | 2026-09-04 14:06:09 | 47.75337 | 13.47688 | 57° | 42km/h | 2260m | -2.5m/s | 15.0°C | 45.3% | 785.4hPa | 2.7V | 06:55:00 | 00:00:00 | 00:00:00 | |
| OE5DRO-10 | 2026-09-04 14:06:08 | 47.75331 | 13.47675 | 57° | 42km/h | 2262m | -2.4m/s | 14.9°C | 45.5% | 785.1hPa | 2.7V | 00:00:00 | 00:00:00 | 00:00:00 | |
| OE3JTB-15 | 2026-09-04 14:06:07 | 47.75325 | 13.47663 | 55° | 42km/h | 2265m | -2.5m/s | 14.9°C | 45.6% | 784.8hPa | 2.7V | 00:00:00 | 00:00:00 | 00:00:00 | |
| OE5MMP-10 | 2026-09-04 14:06:06 | 47.75320 | 13.47650 | 60° | 44km/h | 2267m | -2.7m/s | 14.9°C | 45.8% | 784.5hPa | 2.7V | 00:00:00 | 03:36:08 | 00:00:00 | |
| OE5WHR-10 | 2026-09-04 14:06:05 | 47.75314 | 13.47637 | 57° | 44km/h | 2270m | -2.5m/s | 14.9°C | 45.7% | 784.3hPa | 2.7V | 00:00:00 | 00:00:00 | 00:00:00 | |
| OE3JTB-15 | 2026-09-04 14:06:03 | 47.75303 | 13.47611 | 56° | 44km/h | 2274m | -2.3m/s | 14.8°C | 45.4% | 783.8hPa | 2.7V | 00:00:00 | 00:00:00 | 00:00:00 | |
| OE3JTB-15 | 2026-09-04 14:06:01 | 47.75291 | 13.47583 | 59° | 47km/h | 2279m | -2.6m/s | 14.7°C | 46.5% | 783.4hPa | 2.7V | 00:00:00 | 00:00:00 | 00:00:00 | |
| OE5WHR-10 | 2026-09-04 14:05:59 | 47.75280 | 13.47553 | 68° | 49km/h | 2284m | -3.1m/s | 14.7°C | 46.3% | 782.9hPa | 2.7V | 00:00:00 | 00:00:00 | 00:00:00 | |
| OE3JTB-15 | 2026-09-04 14:05:57 | 47.75270 | 13.47518 | 70° | 51km/h | 2290m | -2.3m/s | 14.7°C | 46.8% | 782.2hPa | 2.7V | 00:00:00 | 00:00:00 | 00:00:00 | |
| OE5MMP-10 | 2026-09-04 14:05:56 | 47.75265 | 13.47500 | 73° | 49km/h | 2292m | -2.4m/s | 14.7°C | 46.6% | 782.1hPa | 2.7V | 00:00:00 | 03:35:58 | 00:00:00 | |
| OE3JTB-15 | 2026-09-04 14:05:55 | 47.75262 | 13.47482 | 73° | 49km/h | 2295m | -2.5m/s | 14.8°C | 44.7% | 781.9hPa | 2.7V | 06:55:00 | 00:00:00 | 00:00:00 | |
| PG1ADW-2 | 2026-09-04 14:05:54 | 47.75258 | 13.47464 | 71° | 46km/h | 2298m | -2.5m/s | 14.8°C | 44.2% | 781.7hPa | 2.7V | 00:00:00 | 03:35:56 | 00:00:00 | |
| OE3JTB-15 | 2026-09-04 14:05:53 | 47.75253 | 13.47446 | 71° | 51km/h | 2300m | -2.3m/s | 14.7°C | 44.6% | 781.4hPa | 2.7V | 00:00:00 | 03:35:55 | 00:00:00 | |
| OE5DRO-10 | 2026-09-04 14:05:52 | 47.75249 | 13.47427 | 74° | 49km/h | 2303m | -2.5m/s | 14.7°C | 44.7% | 781.2hPa | 2.7V | 00:00:00 | 00:00:00 | 00:00:00 | |
| OE5DXL-15 | 2026-09-04 14:05:51 | 47.75245 | 13.47409 | 71° | 46km/h | 2306m | -2.3m/s | 14.5°C | 46.5% | 781.0hPa | 2.7V | 00:00:00 | 00:00:00 | 00:00:00 | |
| OE5FHM-15 | 2026-09-04 14:05:50 | 47.75241 | 13.47391 | 72° | 44km/h | 2308m | -2.9m/s | 14.5°C | 46.2% | 780.8hPa | 2.7V | 00:00:00 | 03:35:52 | 00:00:00 | |
| OE3JTB-15 | 2026-09-04 14:05:49 | 47.75238 | 13.47373 | 78° | 49km/h | 2311m | -2.7m/s | 14.5°C | 46.2% | 780.4hPa | 2.7V | 00:00:00 | 00:00:00 | 00:00:00 | |
| OE5MMP-10 | 2026-09-04 14:05:46 | 47.75230 | 13.47320 | 80° | 44km/h | 2320m | -2.6m/s | 14.5°C | 46.1% | 779.7hPa | 2.7V | 06:55:00 | 03:35:48 | 00:00:00 | |
| OE3JTB-15 | 2026-09-04 14:05:45 | 47.75227 | 13.47302 | 80° | 47km/h | 2322m | -2.6m/s | 14.4°C | 46.2% | 779.5hPa | 2.7V | 00:00:00 | 00:00:00 | 00:00:00 | |
| OE3JTB-15 | 2026-09-04 14:05:43 | 47.75223 | 13.47268 | 80° | 46km/h | 2328m | -2.2m/s | 14.4°C | 46.5% | 779.1hPa | 2.7V | 00:00:00 | 00:00:00 | 00:00:00 | |
| OE3JTB-15 | 2026-09-04 14:05:41 | 47.75219 | 13.47235 | 79° | 40km/h | 2334m | -2.3m/s | 14.4°C | 45.5% | 778.7hPa | 2.7V | 06:56:00 | 03:35:43 | 00:00:00 | |
| OE3JTB-15 | 2026-09-04 14:05:39 | 47.75214 | 13.47207 | 70° | 38km/h | 2338m | -2.6m/s | 14.4°C | 45.6% | 778.1hPa | 2.7V | 00:00:00 | 00:00:00 | 00:00:00 | |
| OE5DRO-10 | 2026-09-04 14:05:38 | 47.75210 | 13.47193 | 67° | 44km/h | 2341m | -2.6m/s | 14.5°C | 43.6% | 777.9hPa | 2.7V | 00:00:00 | 00:00:00 | 00:00:00 | |
| OE3JTB-15 | 2026-09-04 14:05:37 | 47.75206 | 13.47180 | 62° | 42km/h | 2344m | -2.3m/s | 14.5°C | 43.6% | 777.7hPa | 2.7V | 00:00:00 | 00:00:00 | 00:00:00 | |
| OE5MMP-10 | 2026-09-04 14:05:36 | 47.75201 | 13.47166 | 61° | 49km/h | 2346m | -2.3m/s | 14.5°C | 43.8% | 777.3hPa | 2.7V | 00:00:00 | 03:35:38 | 00:00:00 | |
| OE5WHR-10 | 2026-09-04 14:05:35 | 47.75196 | 13.47152 | 61° | 46km/h | 2348m | -2.2m/s | 14.5°C | 43.6% | 777.3hPa | 2.7V | 00:00:00 | 03:35:37 | 00:00:00 | |
| PG1ADW-2 | 2026-09-04 14:05:34 | 47.75190 | 13.47137 | 60° | 49km/h | 2351m | -2.3m/s | 14.4°C | 44.0% | 776.9hPa | 2.7V | 00:00:00 | 00:00:00 | 00:00:00 | |
| OE3JTB-15 | 2026-09-04 14:05:33 | 47.75184 | 13.47123 | 59° | 46km/h | 2353m | -2.4m/s | 14.4°C | 43.3% | 776.7hPa | 2.7V | 00:00:00 | 00:00:00 | 00:00:00 | |
| OE3JTB-15 | 2026-09-04 14:05:31 | 47.75173 | 13.47093 | 60° | 47km/h | 2358m | -2.5m/s | 14.3°C | 43.8% | 776.4hPa | 2.7V | 00:00:00 | 00:00:00 | 00:00:00 | |
| OE5FHM-15 | 2026-09-04 14:05:29 | 47.75161 | 13.47061 | 62° | 47km/h | 2363m | -2.7m/s | 14.3°C | 43.1% | 775.8hPa | 2.7V | 00:00:00 | 03:35:31 | 00:00:00 | |
| OE3JTB-15 | 2026-09-04 14:05:27 | 47.75151 | 13.47027 | 67° | 53km/h | 2369m | -2.3m/s | 14.3°C | 43.3% | 775.3hPa | 2.7V | 06:56:00 | 00:00:00 | 00:00:00 | |
| OE3JTB-15 | 2026-09-04 14:05:25 | 47.75141 | 13.46990 | 72° | 53km/h | 2375m | -2.7m/s | 14.2°C | 43.3% | 774.7hPa | 2.7V | 00:00:00 | 00:00:00 | 00:00:00 | |
| OE5MMP-10 | 2026-09-04 14:05:24 | 47.75136 | 13.46972 | 71° | 51km/h | 2377m | -2.6m/s | 14.2°C | 43.2% | 774.5hPa | 2.7V | 00:00:00 | 03:35:26 | 00:00:00 | |
| OE3JTB-15 | 2026-09-04 14:05:23 | 47.75132 | 13.46953 | 74° | 53km/h | 2380m | -2.3m/s | 14.2°C | 43.2% | 774.2hPa | 2.7V | 00:00:00 | 03:35:25 | 00:00:00 | |
| OE5WHR-10 | 2026-09-04 14:05:22 | 47.75129 | 13.46934 | 77° | 51km/h | 2383m | -2.5m/s | 14.2°C | 43.2% | 774.0hPa | 2.7V | 00:00:00 | 00:00:00 | 00:00:00 | |
| OE3JTB-15 | 2026-09-04 14:05:21 | 47.75126 | 13.46915 | 76° | 51km/h | 2386m | -2.4m/s | 14.1°C | 43.3% | 773.7hPa | 2.7V | 00:00:00 | 00:00:00 | 00:00:00 | |
| OE3JTB-15 | 2026-09-04 14:05:19 | 47.75121 | 13.46878 | 78° | 49km/h | 2391m | -2.2m/s | 14.1°C | 43.8% | 773.3hPa | 2.7V | 00:00:00 | 00:00:00 | 00:00:00 | |
| OE3JTB-15 | 2026-09-04 14:05:17 | 47.75116 | 13.46842 | 82° | 47km/h | 2396m | -2.4m/s | 14.1°C | 43.4% | 772.9hPa | 2.7V | 00:00:00 | 03:35:19 | 00:00:00 | |
| OE5WHR-10 | 2026-09-04 14:05:16 | 47.75114 | 13.46824 | 79° | 38km/h | 2398m | -2.9m/s | 14.1°C | 43.3% | 772.8hPa | 2.7V | 00:00:00 | 03:35:18 | 00:00:00 | |
| OE3JTB-15 | 2026-09-04 14:05:15 | 47.75112 | 13.46808 | 81° | 40km/h | 2401m | -3.1m/s | 14.0°C | 43.5% | 772.5hPa | 2.7V | 00:00:00 | 00:00:00 | 00:00:00 | |
| OE5MMP-10 | 2026-09-04 14:05:14 | 47.75111 | 13.46793 | 83° | 40km/h | 2404m | -2.6m/s | 14.0°C | 43.8% | 772.1hPa | 2.7V | 00:00:00 | 03:35:16 | 00:00:00 | |
| OE3JTB-15 | 2026-09-04 14:05:13 | 47.75110 | 13.46779 | 81° | 37km/h | 2407m | -2.2m/s | 13.9°C | 44.7% | 772.1hPa | 2.7V | 06:56:00 | 00:00:00 | 00:00:00 | |
| OE5DXL-15 | 2026-09-04 14:05:11 | 47.75106 | 13.46752 | 73° | 47km/h | 2411m | -1.7m/s | 13.9°C | 44.3% | 771.6hPa | 2.7V | 00:00:00 | 00:00:00 | 00:00:00 | |
| OE5DRO-10 | 2026-09-04 14:05:10 | 47.75103 | 13.46738 | 72° | 42km/h | 2412m | -1.9m/s | 13.9°C | 44.6% | 771.4hPa | 2.7V | 00:00:00 | 00:00:00 | 00:00:00 | |
| OE3JTB-15 | 2026-09-04 14:05:09 | 47.75099 | 13.46725 | 69° | 40km/h | 2414m | -1.6m/s | 13.8°C | 44.5% | 771.3hPa | 2.7V | 00:00:00 | 00:00:00 | 00:00:00 | |
| OE5WHR-10 | 2026-09-04 14:05:08 | 47.75096 | 13.46711 | 67° | 47km/h | 2416m | -1.6m/s | 13.9°C | 44.1% | 771.1hPa | 2.7V | 06:56:00 | 00:00:00 | 00:00:00 | |
| OE3JTB-15 | 2026-09-04 14:05:07 | 47.75091 | 13.46696 | 65° | 44km/h | 2417m | -1.6m/s | 13.8°C | 44.3% | 770.9hPa | 2.7V | 00:00:00 | 00:00:00 | 00:00:00 | |
| OE3JTB-15 | 2026-09-04 14:05:05 | 47.75081 | 13.46667 | 62° | 46km/h | 2421m | -2.5m/s | 13.8°C | 44.1% | 770.5hPa | 2.7V | 00:00:00 | 03:35:07 | 00:00:00 | |
| OE3JTB-15 | 2026-09-04 14:05:03 | 47.75071 | 13.46636 | 66° | 51km/h | 2426m | -2.4m/s | 13.6°C | 45.5% | 769.9hPa | 2.7V | 00:00:00 | 00:00:00 | 00:00:00 | |
| OE5MMP-10 | 2026-09-04 14:05:02 | 47.75066 | 13.46618 | 65° | 53km/h | 2428m | -2.0m/s | 13.6°C | 46.1% | 769.8hPa | 2.7V | 00:00:00 | 03:35:04 | 00:00:00 | |
| OE5WHR-10 | 2026-09-04 14:05:01 | 47.75060 | 13.46601 | 66° | 53km/h | 2430m | -2.3m/s | 13.6°C | 44.9% | 769.6hPa | 2.7V | 00:00:00 | 00:00:00 | 00:00:00 | |
| OE3JTB-15 | 2026-09-04 14:04:59 | 47.75051 | 13.46564 | 70° | 55km/h | 2434m | -1.9m/s | 13.6°C | 45.8% | 769.1hPa | 2.7V | 06:56:00 | 03:35:01 | 00:00:00 | |
| OE3JTB-15 | 2026-09-04 14:04:57 | 47.75042 | 13.46525 | 75° | 55km/h | 2437m | -2.2m/s | 13.5°C | 46.1% | 768.8hPa | 2.7V | 00:00:00 | 00:00:00 | 00:00:00 | |
| OE5DRO-10 | 2026-09-04 14:04:56 | 47.75039 | 13.46506 | 74° | 51km/h | 2439m | -2.0m/s | 13.5°C | 46.2% | 768.7hPa | 2.7V | 00:00:00 | 00:00:00 | 00:00:00 | |
| OE5WHR-10 | 2026-09-04 14:04:55 | 47.75035 | 13.46486 | 78° | 51km/h | 2441m | -1.9m/s | 13.5°C | 45.8% | 768.3hPa | 2.7V | 00:00:00 | 03:34:57 | 00:00:00 | |
| PG1ADW-2 | 2026-09-04 14:04:54 | 47.75032 | 13.46466 | 79° | 44km/h | 2444m | -2.0m/s | 13.5°C | 45.8% | 768.2hPa | 2.7V | 06:56:00 | 00:00:00 | 00:00:00 | |
| OE3JTB-15 | 2026-09-04 14:04:53 | 47.75030 | 13.46447 | 79° | 53km/h | 2446m | -2.1m/s | 13.5°C | 46.2% | 768.1hPa | 2.7V | 00:00:00 | 03:34:55 | 00:00:00 | |
| OE5MMP-10 | 2026-09-04 14:04:52 | 47.75028 | 13.46428 | 81° | 46km/h | 2448m | -2.4m/s | 13.5°C | 44.7% | 767.8hPa | 2.7V | 00:00:00 | 03:34:54 | 00:00:00 | |
| OE5DXL-15 | 2026-09-04 14:04:51 | 47.75026 | 13.46410 | 84° | 42km/h | 2450m | -2.7m/s | 13.3°C | 46.7% | 767.7hPa | 2.7V | 00:00:00 | 00:00:00 | 00:00:00 | |
| OE3JTB-15 | 2026-09-04 14:04:50 | 47.75023 | 13.46374 | 85° | 47km/h | 2455m | -2.6m/s | 13.3°C | 46.5% | 767.2hPa | 2.7V | 00:00:00 | 00:00:00 | 00:00:00 | |
| OE5WHR-10 | 2026-09-04 14:04:49 | 47.75023 | 13.46374 | 85° | 44km/h | 2455m | -2.6m/s | 13.3°C | 46.5% | 767.2hPa | 2.7V | 00:00:00 | 00:00:00 | 00:00:00 | |
| OE3JTB-15 | 2026-09-04 14:04:47 | 47.75019 | 13.46339 | 81° | 44km/h | 2459m | -2.4m/s | 13.3°C | 46.9% | 766.9hPa | 2.7V | 00:00:00 | 03:34:49 | 00:00:00 | |
| OE3JTB-15 | 2026-09-04 14:04:45 | 47.75017 | 13.46306 | 81° | 42km/h | 2464m | -1.7m/s | 13.2°C | 46.7% | 766.5hPa | 2.7V | 06:57:00 | 00:00:00 | 00:00:00 | |
| OE5FHM-15 | 2026-09-04 14:04:44 | 47.75014 | 13.46291 | 78° | 44km/h | 2466m | -1.8m/s | 13.2°C | 46.8% | 766.3hPa | 2.7V | 06:57:00 | 03:34:46 | 00:00:00 | |
| OE5WHR-10 | 2026-09-04 14:04:43 | 47.75013 | 13.46277 | 80° | 38km/h | 2467m | -2.2m/s | 13.2°C | 46.6% | 766.0hPa | 2.7V | 00:00:00 | 00:00:00 | 00:00:00 | |
| OE5MMP-10 | 2026-09-04 14:04:42 | 47.75011 | 13.46263 | 76° | 38km/h | 2469m | -2.3m/s | 13.3°C | 45.9% | 765.8hPa | 2.7V | 00:00:00 | 03:34:44 | 00:00:00 | |
| OE3JTB-15 | 2026-09-04 14:04:41 | 47.75009 | 13.46249 | 81° | 38km/h | 2472m | -2.6m/s | 13.3°C | 45.9% | 765.6hPa | 2.7V | 00:00:00 | 03:34:43 | 00:00:00 | |
| OE3JTB-15 | 2026-09-04 14:04:39 | 47.75005 | 13.46222 | 72° | 38km/h | 2477m | -2.4m/s | 13.3°C | 45.0% | 765.2hPa | 2.7V | 00:00:00 | 00:00:00 | 00:00:00 | |
| OE5WHR-10 | 2026-09-04 14:04:37 | 47.74998 | 13.46195 | 71° | 42km/h | 2482m | -2.3m/s | 13.2°C | 45.0% | 764.6hPa | 2.7V | 00:00:00 | 03:34:39 | 00:00:00 | |
| OE3JTB-15 | 2026-09-04 14:04:35 | 47.74992 | 13.46167 | 67° | 42km/h | 2486m | -2.0m/s | 13.2°C | 45.2% | 764.2hPa | 2.7V | 00:00:00 | 03:34:37 | 00:00:00 | |
| PG1ADW-2 | 2026-09-04 14:04:34 | 47.74987 | 13.46153 | 65° | 51km/h | 2488m | -2.1m/s | 13.2°C | 45.2% | 764.0hPa | 2.7V | 00:00:00 | 03:34:36 | 00:00:00 | |
| OE3JTB-15 | 2026-09-04 14:04:33 | 47.74983 | 13.46138 | 65° | 46km/h | 2490m | -2.0m/s | 13.1°C | 45.2% | 763.6hPa | 2.7V | 00:00:00 | 00:00:00 | 00:00:00 | |
| OE5MMP-10 | 2026-09-04 14:04:32 | 47.74978 | 13.46123 | 66° | 51km/h | 2492m | -2.0m/s | 13.1°C | 45.3% | 763.6hPa | 2.7V | 06:57:00 | 03:34:34 | 00:00:00 | |
| OE5WHR-10 | 2026-09-04 14:04:31 | 47.74973 | 13.46106 | 68° | 51km/h | 2494m | -2.3m/s | 13.1°C | 45.4% | 763.4hPa | 2.7V | 00:00:00 | 00:00:00 | 00:00:00 | |
| OE5DRO-10 | 2026-09-04 14:04:28 | 47.74959 | 13.46053 | 70° | 53km/h | 2501m | -2.5m/s | 13.0°C | 45.6% | 762.8hPa | 2.7V | 06:57:00 | 00:00:00 | 00:00:00 | |
| OE3JTB-15 | 2026-09-04 14:04:27 | 47.74955 | 13.46035 | 71° | 51km/h | 2504m | -3.3m/s | 13.0°C | 45.7% | 762.5hPa | 2.7V | 00:00:00 | 00:00:00 | 00:00:00 | |
| OE3JTB-15 | 2026-09-04 14:04:25 | 47.74947 | 13.45999 | 72° | 53km/h | 2509m | -2.1m/s | 13.0°C | 45.8% | 761.9hPa | 2.7V | 00:00:00 | 00:00:00 | 00:00:00 | |
| OE5FHM-15 | 2026-09-04 14:04:24 | 47.74942 | 13.45980 | 73° | 53km/h | 2512m | -2.9m/s | 12.9°C | 45.7% | 761.6hPa | 2.7V | 00:00:00 | 03:34:26 | 00:00:00 | |
| OE3JTB-15 | 2026-09-04 14:04:23 | 47.74939 | 13.45960 | 77° | 53km/h | 2515m | -2.9m/s | 12.9°C | 45.8% | 761.4hPa | 2.7V | 00:00:00 | 03:34:25 | 00:00:00 | |
| OE5MMP-10 | 2026-09-04 14:04:22 | 47.74936 | 13.45941 | 75° | 51km/h | 2518m | -3.0m/s | 12.9°C | 45.7% | 761.2hPa | 2.7V | 00:00:00 | 03:34:24 | 00:00:00 | |
| OE3JTB-15 | 2026-09-04 14:04:19 | 47.74926 | 13.45882 | 78° | 53km/h | 2526m | -3.6m/s | 12.8°C | 46.0% | 760.2hPa | 2.7V | 00:00:00 | 00:00:00 | 00:00:00 | |
| OE5WHR-10 | 2026-09-04 14:04:18 | 47.74923 | 13.45862 | 78° | 53km/h | 2530m | -3.3m/s | 12.7°C | 46.1% | 759.9hPa | 2.7V | 00:00:00 | 03:34:20 | 00:00:00 | |
| OE3JTB-15 | 2026-09-04 14:04:17 | 47.74920 | 13.45843 | 77° | 53km/h | 2533m | -3.3m/s | 12.7°C | 46.0% | 759.7hPa | 2.7V | 06:57:00 | 03:34:19 | 00:00:00 | |
| OE3JTB-15 | 2026-09-04 14:04:15 | 47.74916 | 13.45805 | 82° | 51km/h | 2540m | -3.2m/s | 12.6°C | 46.2% | 759.1hPa | 2.7V | 00:00:00 | 00:00:00 | 00:00:00 | |
| PG1ADW-2 | 2026-09-04 14:04:14 | 47.74914 | 13.45786 | 82° | 47km/h | 2543m | -2.9m/s | 12.6°C | 46.5% | 758.7hPa | 2.7V | 00:00:00 | 00:00:00 | 00:00:00 | |
| OE3JTB-15 | 2026-09-04 14:04:13 | 47.74913 | 13.45767 | 83° | 51km/h | 2546m | -2.6m/s | 12.6°C | 46.1% | 758.6hPa | 2.7V | 00:00:00 | 00:00:00 | 00:00:00 | |
| OE5DXL-15 | 2026-09-04 14:04:11 | 47.74910 | 13.45729 | 88° | 46km/h | 2552m | -3.3m/s | 12.6°C | 46.4% | 757.9hPa | 2.7V | 00:00:00 | 00:00:00 | 00:00:00 | |
| OE5MMP-10 | 2026-09-04 14:04:10 | 47.74910 | 13.45709 | 91° | 51km/h | 2555m | -3.6m/s | 12.5°C | 46.2% | 757.6hPa | 2.7V | 00:00:00 | 03:34:12 | 00:00:00 | |
| OE3JTB-15 | 2026-09-04 14:04:09 | 47.74910 | 13.45690 | 89° | 51km/h | 2559m | -3.0m/s | 12.5°C | 46.3% | 757.5hPa | 2.7V | 00:00:00 | 00:00:00 | 00:00:00 | |
| OE5WHR-10 | 2026-09-04 14:04:07 | 47.74909 | 13.45651 | 88° | 49km/h | 2566m | -2.7m/s | 12.5°C | 46.3% | 756.8hPa | 2.7V | 00:00:00 | 00:00:00 | 00:00:00 | |
| OE3JTB-15 | 2026-09-04 14:04:05 | 47.74908 | 13.45612 | 88° | 46km/h | 2571m | -2.9m/s | 12.4°C | 46.7% | 756.1hPa | 2.7V | 00:00:00 | 03:34:07 | 00:00:00 | |
| OE5FHM-15 | 2026-09-04 14:04:04 | 47.74908 | 13.45592 | 90° | 40km/h | 2574m | -3.1m/s | 12.4°C | 46.6% | 755.8hPa | 2.7V | 00:00:00 | 03:34:06 | 00:00:00 | |
| OE5WHR-10 | 2026-09-04 14:04:01 | 47.74908 | 13.45541 | 96° | 44km/h | 2584m | -3.1m/s | 12.3°C | 47.0% | 755.2hPa | 2.7V | 00:00:00 | 00:00:00 | 00:00:00 | |
| OE5MMP-10 | 2026-09-04 14:04:00 | 47.74910 | 13.45524 | 96° | 42km/h | 2587m | -2.9m/s | 12.3°C | 47.1% | 754.9hPa | 2.7V | 00:00:00 | 03:34:02 | 00:00:00 | |
| OE3JTB-15 | 2026-09-04 14:03:56 | 47.74912 | 13.45459 | 88° | 40km/h | 2599m | -2.2m/s | 12.1°C | 47.4% | 754.0hPa | 2.7V | 06:57:00 | 00:00:00 | 00:00:00 | |
| OE5WHR-10 | 2026-09-04 14:03:55 | 47.74911 | 13.45443 | 86° | 40km/h | 2601m | -2.3m/s | 12.1°C | 47.4% | 753.8hPa | 2.7V | 00:00:00 | 03:33:57 | 00:00:00 | |
| PG1ADW-2 | 2026-09-04 14:03:54 | 47.74910 | 13.45429 | 88° | 42km/h | 2603m | -2.6m/s | 12.1°C | 47.5% | 753.5hPa | 2.7V | 00:00:00 | 00:00:00 | 00:00:00 | |
| OE5DRO-10 | 2026-09-04 14:03:53 | 47.74910 | 13.45414 | 91° | 38km/h | 2606m | -2.7m/s | 12.1°C | 47.6% | 753.1hPa | 2.7V | 00:00:00 | 00:00:00 | 00:00:00 | |
| OE5DXL-15 | 2026-09-04 14:03:51 | 47.74910 | 13.45384 | 89° | 42km/h | 2611m | -2.2m/s | 12.0°C | 47.6% | 752.8hPa | 2.7V | 00:00:00 | 00:00:00 | 00:00:00 | |
| OE5MMP-10 | 2026-09-04 14:03:50 | 47.74909 | 13.45369 | 88° | 42km/h | 2613m | -1.9m/s | 12.0°C | 47.8% | 752.5hPa | 2.7V | 00:00:00 | 03:33:52 | 00:00:00 | |
| OE5WHR-10 | 2026-09-04 14:03:48 | 47.74908 | 13.45341 | 85° | 38km/h | 2617m | -2.4m/s | 12.0°C | 47.8% | 752.1hPa | 2.7V | 00:00:00 | 00:00:00 | 00:00:00 | |
| OE3JTB-15 | 2026-09-04 14:03:47 | 47.74907 | 13.45327 | 83° | 40km/h | 2620m | -2.2m/s | 11.9°C | 47.9% | 751.8hPa | 2.7V | 00:00:00 | 00:00:00 | 00:00:00 | |
| OE5DRO-10 | 2026-09-04 14:03:46 | 47.74906 | 13.45312 | 83° | 40km/h | 2622m | -2.7m/s | 11.9°C | 48.1% | 751.7hPa | 2.7V | 00:00:00 | 00:00:00 | 00:00:00 | |
| OE5FHM-15 | 2026-09-04 14:03:44 | 47.74903 | 13.45283 | 83° | 47km/h | 2628m | -2.6m/s | 11.9°C | 48.3% | 751.3hPa | 2.7V | 00:00:00 | 03:33:46 | 00:00:00 | |
| OE5WHR-10 | 2026-09-04 14:03:42 | 47.74901 | 13.45253 | 82° | 44km/h | 2633m | -2.7m/s | 11.7°C | 48.5% | 750.8hPa | 2.7V | 00:00:00 | 00:00:00 | 00:00:00 | |
| OE5DRO-10 | 2026-09-04 14:03:39 | 47.74895 | 13.45206 | 79° | 46km/h | 2640m | -2.2m/s | 11.8°C | 48.3% | 750.1hPa | 2.7V | 06:58:00 | 00:00:00 | 00:00:00 | |
| OE3JTB-15 | 2026-09-04 14:03:38 | 47.74892 | 13.45190 | 78° | 47km/h | 2643m | -2.4m/s | 11.8°C | 48.1% | 750.0hPa | 2.7V | 00:00:00 | 03:33:40 | 00:00:00 | |
| OE5WHR-10 | 2026-09-04 14:03:36 | 47.74887 | 13.45156 | 77° | 51km/h | 2647m | -2.4m/s | 11.7°C | 48.0% | 749.4hPa | 2.7V | 06:58:00 | 03:33:38 | 00:00:00 | |
| PG1ADW-2 | 2026-09-04 14:03:34 | 47.74881 | 13.45122 | 76° | 47km/h | 2652m | -2.5m/s | 11.7°C | 48.2% | 749.1hPa | 2.7V | 00:00:00 | 00:00:00 | 00:00:00 | |
| OE5DRO-10 | 2026-09-04 14:03:32 | 47.74875 | 13.45087 | 77° | 53km/h | 2657m | -2.5m/s | 11.7°C | 48.4% | 748.6hPa | 2.7V | 00:00:00 | 00:00:00 | 00:00:00 | |
| OE5DXL-15 | 2026-09-04 14:03:31 | 47.74873 | 13.45069 | 78° | 46km/h | 2660m | -2.5m/s | 11.6°C | 48.6% | 748.4hPa | 2.7V | 00:00:00 | 00:00:00 | 00:00:00 | |
| OE3JTB-15 | 2026-09-04 14:03:29 | 47.74868 | 13.45031 | 82° | 51km/h | 2665m | -2.5m/s | 11.6°C | 48.8% | 747.7hPa | 2.7V | 00:00:00 | 00:00:00 | 00:00:00 | |
| OE5DRO-10 | 2026-09-04 14:03:25 | 47.74863 | 13.44950 | 90° | 46km/h | 2672m | -1.6m/s | 11.5°C | 48.5% | 747.2hPa | 2.7V | 00:00:00 | 00:00:00 | 00:00:00 | |
| OE5MMP-10 | 2026-09-04 14:03:24 | 47.74863 | 13.44931 | 91° | 44km/h | 2674m | -1.5m/s | 11.5°C | 48.6% | 747.0hPa | 2.7V | 00:00:00 | 03:33:26 | 00:00:00 | |
| OE3JTB-15 | 2026-09-04 14:03:20 | 47.74863 | 13.44863 | 89° | 40km/h | 2680m | -1.5m/s | 11.6°C | 48.1% | 746.5hPa | 2.7V | 00:00:00 | 00:00:00 | 00:00:00 | |
| OE5DRO-10 | 2026-09-04 14:03:18 | 47.74862 | 13.44832 | 89° | 40km/h | 2684m | -2.1m/s | 11.5°C | 48.5% | 746.4hPa | 2.7V | 00:00:00 | 00:00:00 | 00:00:00 | |
| PG1ADW-2 | 2026-09-04 14:03:14 | 47.74860 | 13.44773 | 84° | 51km/h | 2693m | -2.3m/s | 11.4°C | 48.8% | 745.5hPa | 2.7V | 00:00:00 | 03:33:16 | 00:00:00 | |
| OE5DXL-15 | 2026-09-04 14:03:11 | 47.74854 | 13.44725 | 77° | 53km/h | 2700m | -2.5m/s | 11.2°C | 49.4% | 744.8hPa | 2.7V | 06:58:00 | 00:00:00 | 00:00:00 | |
| OE5MMP-10 | 2026-09-04 14:03:09 | 47.74849 | 13.44691 | 77° | 51km/h | 2705m | -2.5m/s | 11.2°C | 49.5% | 744.3hPa | 2.7V | 06:58:00 | 03:33:11 | 00:00:00 | |
| OE5FHM-15 | 2026-09-04 14:03:04 | 47.74835 | 13.44597 | 78° | 55km/h | 2717m | -2.7m/s | 11.1°C | 49.8% | 743.3hPa | 2.7V | 00:00:00 | 03:33:06 | 00:00:00 | |
| OE3JTB-15 | 2026-09-04 14:03:02 | 47.74830 | 13.44557 | 80° | 55km/h | 2723m | -2.5m/s | 11.0°C | 50.2% | 742.9hPa | 2.7V | 00:00:00 | 00:00:00 | 00:00:00 | |
| OE5HKT-10 | 2026-09-04 14:03:01 | 47.74827 | 13.44538 | 80° | 55km/h | 2725m | -2.4m/s | 11.0°C | 50.2% | 742.5hPa | 2.7V | 00:00:00 | 03:33:03 | 00:00:00 | |
| OE5MMP-10 | 2026-09-04 14:02:57 | 47.74816 | 13.44458 | 79° | 55km/h | 2734m | -2.3m/s | 10.9°C | 50.4% | 741.6hPa | 2.7V | 00:00:00 | 03:32:59 | 00:00:00 | |
| OE5WHR-10 | 2026-09-04 14:02:55 | 47.74812 | 13.44418 | 82° | 55km/h | 2739m | -2.0m/s | 10.8°C | 50.4% | 741.2hPa | 2.7V | 00:00:00 | 00:00:00 | 00:00:00 | |
| OE5HKT-10 | 2026-09-04 14:02:54 | 47.74810 | 13.44397 | 81° | 55km/h | 2740m | -1.8m/s | 10.8°C | 50.5% | 741.0hPa | 2.7V | 00:00:00 | 00:00:00 | 00:00:00 | |
| OE3JTB-15 | 2026-09-04 14:02:53 | 47.74808 | 13.44376 | 83° | 55km/h | 2742m | -2.2m/s | 10.8°C | 50.5% | 740.8hPa | 2.7V | 06:58:00 | 00:00:00 | 00:00:00 | |
| OE5DXL-15 | 2026-09-04 14:02:51 | 47.74805 | 13.44336 | 86° | 55km/h | 2747m | -2.4m/s | 10.7°C | 50.9% | 740.4hPa | 2.7V | 00:00:00 | 00:00:00 | 00:00:00 | |
| OE5DRO-10 | 2026-09-04 14:02:50 | 47.74803 | 13.44316 | 84° | 55km/h | 2750m | -2.1m/s | 10.7°C | 50.8% | 740.1hPa | 2.7V | 06:58:00 | 00:00:00 | 00:00:00 | |
| OE5HKT-10 | 2026-09-04 14:02:48 | 47.74802 | 13.44274 | 89° | 55km/h | 2754m | -2.1m/s | 10.7°C | 51.0% | 739.9hPa | 2.7V | 06:58:00 | 00:00:00 | 00:00:00 | |
| OE5FHM-15 | 2026-09-04 14:02:44 | 47.74800 | 13.44191 | 87° | 55km/h | 2763m | -2.3m/s | 10.6°C | 50.6% | 739.0hPa | 2.7V | 00:00:00 | 03:32:46 | 00:00:00 | |
| OE5DRO-10 | 2026-09-04 14:02:42 | 47.74799 | 13.44150 | 90° | 55km/h | 2767m | -2.3m/s | 10.6°C | 51.1% | 738.7hPa | 2.7V | 00:00:00 | 00:00:00 | 00:00:00 | |
| OE5MMP-10 | 2026-09-04 14:02:39 | 47.74800 | 13.44088 | 93° | 55km/h | 2773m | -1.6m/s | 10.5°C | 51.2% | 738.2hPa | 2.7V | 00:00:00 | 03:32:41 | 00:00:00 | |
| DO3MHA-11 | 2026-09-04 14:02:38 | 47.74800 | 13.44068 | 88° | 55km/h | 2774m | -1.1m/s | 10.5°C | 51.3% | 738.0hPa | 2.7V | 00:00:00 | 03:32:40 | 00:00:00 | |
| OE3JTB-15 | 2026-09-04 14:02:34 | 47.74799 | 13.43985 | 92° | 51km/h | 2781m | -1.2m/s | 10.5°C | 51.3% | 737.5hPa | 2.7V | 00:00:00 | 03:32:36 | 00:00:00 | |
| OE5MMP-10 | 2026-09-04 14:02:28 | 47.74800 | 13.43863 | 90° | 49km/h | 2789m | -1.6m/s | 10.4°C | 51.3% | 736.5hPa | 2.7V | 00:00:00 | 03:32:30 | 00:00:00 | |
| OE5DRO-10 | 2026-09-04 14:02:26 | 47.74800 | 13.43823 | 89° | 49km/h | 2793m | -1.7m/s | 10.3°C | 51.3% | 736.1hPa | 2.7V | 00:00:00 | 00:00:00 | 00:00:00 | |
| OE5FHM-15 | 2026-09-04 14:02:24 | 47.74801 | 13.43783 | 96° | 53km/h | 2797m | -1.6m/s | 10.3°C | 51.3% | 735.8hPa | 2.7V | 06:59:00 | 03:32:26 | 00:00:00 | |
| DO3MHA-11 | 2026-09-04 14:02:18 | 47.74813 | 13.43679 | 99° | 49km/h | 2811m | -1.9m/s | 10.4°C | 49.2% | 734.6hPa | 2.7V | 00:00:00 | 03:32:20 | 00:00:00 | |
| OE3JTB-15 | 2026-09-04 14:02:15 | 47.74815 | 13.43627 | 92° | 57km/h | 2815m | -1.8m/s | 10.4°C | 49.4% | 734.2hPa | 2.7V | 00:00:00 | 00:00:00 | 00:00:00 | |
| PG1ADW-2 | 2026-09-04 14:02:14 | 47.74815 | 13.43608 | 88° | 57km/h | 2817m | -2.0m/s | 10.4°C | 49.7% | 734.1hPa | 2.7V | 00:00:00 | 00:00:00 | 00:00:00 | |
| DO3MHA-11 | 2026-09-04 14:02:12 | 47.74815 | 13.43567 | 93° | 57km/h | 2822m | -2.2m/s | 10.4°C | 48.7% | 733.9hPa | 2.7V | 00:00:00 | 03:32:14 | 00:00:00 | |
| OE5DRO-10 | 2026-09-04 14:02:10 | 47.74817 | 13.43525 | 94° | 57km/h | 2827m | -2.3m/s | 10.4°C | 48.8% | 733.4hPa | 2.7V | 00:00:00 | 00:00:00 | 00:00:00 | |
| OE5MMP-10 | 2026-09-04 14:02:08 | 47.74819 | 13.43482 | 96° | 57km/h | 2832m | -2.5m/s | 10.3°C | 48.7% | 733.1hPa | 2.7V | 00:00:00 | 03:32:10 | 00:00:00 | |
| OE5FHM-15 | 2026-09-04 14:02:00 | 47.74832 | 13.43312 | 97° | 58km/h | 2849m | -1.7m/s | 10.1°C | 49.7% | 731.5hPa | 2.7V | 00:00:00 | 03:32:02 | 00:00:00 | |
| OE5MMP-10 | 2026-09-04 14:01:57 | 47.74838 | 13.43247 | 97° | 58km/h | 2855m | -2.5m/s | 10.1°C | 49.9% | 731.0hPa | 2.7V | 00:00:00 | 03:31:59 | 00:00:00 | |
| OE3JTB-15 | 2026-09-04 14:01:56 | 47.74840 | 13.43225 | 97° | 58km/h | 2857m | -1.9m/s | 10.0°C | 50.1% | 730.7hPa | 2.7V | 00:00:00 | 00:00:00 | 00:00:00 | |
| OE5DXL-15 | 2026-09-04 14:01:54 | 47.74843 | 13.43179 | 98° | 58km/h | 2861m | -2.0m/s | 10.0°C | 50.8% | 730.4hPa | 2.7V | 00:00:00 | 00:00:00 | 00:00:00 | |
| OE5MMP-10 | 2026-09-04 14:01:47 | 47.74856 | 13.43024 | 97° | 58km/h | 2874m | -1.7m/s | 9.9°C | 49.7% | 729.2hPa | 2.7V | 06:59:00 | 03:31:49 | 00:00:00 | |
| DO3MHA-11 | 2026-09-04 14:01:45 | 47.74859 | 13.42979 | 98° | 58km/h | 2878m | -1.9m/s | 9.9°C | 49.5% | 729.0hPa | 2.7V | 00:00:00 | 03:31:47 | 00:00:00 | |
| DO3MHA-11 | 2026-09-04 14:01:40 | 47.74868 | 13.42870 | 98° | 58km/h | 2886m | -1.4m/s | 9.9°C | 49.2% | 728.2hPa | 2.7V | 00:00:00 | 03:31:42 | 00:00:00 | |
| OE5DRO-10 | 2026-09-04 14:01:38 | 47.74872 | 13.42826 | 100° | 57km/h | 2889m | -1.8m/s | 9.8°C | 49.9% | 728.0hPa | 2.7V | 07:00:00 | 00:00:00 | 00:00:00 | |
| OE3JTB-15 | 2026-09-04 14:01:37 | 47.74874 | 13.42804 | 100° | 57km/h | 2891m | -1.8m/s | 9.8°C | 49.9% | 727.7hPa | 2.7V | 00:00:00 | 03:31:39 | 00:00:00 | |
| OE5MMP-10 | 2026-09-04 14:01:36 | 47.74877 | 13.42782 | 101° | 58km/h | 2893m | -1.8m/s | 9.8°C | 49.5% | 727.6hPa | 2.7V | 00:00:00 | 03:31:38 | 00:00:00 | |
| DO3MHA-11 | 2026-09-04 14:01:35 | 47.74880 | 13.42760 | 103° | 60km/h | 2895m | -1.9m/s | 9.8°C | 49.5% | 727.3hPa | 2.7V | 00:00:00 | 03:31:37 | 00:00:00 | |
| PG1ADW-2 | 2026-09-04 14:01:34 | 47.74884 | 13.42738 | 103° | 57km/h | 2897m | -2.0m/s | 9.9°C | 48.5% | 727.2hPa | 2.7V | 00:00:00 | 00:00:00 | 00:00:00 | |
| DO3MHA-11 | 2026-09-04 14:01:30 | 47.74898 | 13.42649 | 106° | 55km/h | 2905m | -1.9m/s | 9.8°C | 48.3% | 726.5hPa | 2.7V | 00:00:00 | 03:31:32 | 00:00:00 | |
| OE5MMP-10 | 2026-09-04 14:01:26 | 47.74915 | 13.42570 | 108° | 55km/h | 2912m | -1.6m/s | 9.8°C | 48.9% | 725.9hPa | 2.7V | 00:00:00 | 03:31:28 | 00:00:00 | |
| DO3MHA-11 | 2026-09-04 14:01:25 | 47.74919 | 13.42551 | 106° | 51km/h | 2914m | -1.3m/s | 9.7°C | 49.1% | 725.8hPa | 2.7V | 00:00:00 | 03:31:27 | 00:00:00 | |
| OE5DXL-15 | 2026-09-04 14:01:24 | 47.74922 | 13.42533 | 104° | 60km/h | 2915m | -1.0m/s | 9.7°C | 48.9% | 725.7hPa | 2.7V | 00:00:00 | 00:00:00 | 00:00:00 | |
| OE5DRO-10 | 2026-09-04 14:01:22 | 47.74926 | 13.42496 | 98° | 58km/h | 2918m | -1.3m/s | 9.7°C | 49.5% | 725.4hPa | 2.7V | 00:00:00 | 00:00:00 | 00:00:00 | |
| OE5FHM-15 | 2026-09-04 14:01:20 | 47.74929 | 13.42457 | 96° | 62km/h | 2921m | -1.7m/s | 9.7°C | 49.5% | 725.1hPa | 2.7V | 00:00:00 | 03:31:22 | 00:00:00 | |
| OE3JTB-15 | 2026-09-04 14:01:18 | 47.74932 | 13.42417 | 97° | 62km/h | 2924m | -1.6m/s | 9.6°C | 49.8% | 724.9hPa | 2.7V | 00:00:00 | 00:00:00 | 00:00:00 | |
| DO3MHA-11 | 2026-09-04 14:01:15 | 47.74937 | 13.42351 | 97° | 62km/h | 2929m | -1.5m/s | 9.7°C | 48.7% | 724.4hPa | 2.7V | 00:00:00 | 03:31:17 | 00:00:00 | |
| PG1ADW-2 | 2026-09-04 14:01:14 | 47.74939 | 13.42329 | 97° | 64km/h | 2930m | -1.6m/s | 9.8°C | 47.0% | 724.4hPa | 2.7V | 00:00:00 | 00:00:00 | 00:00:00 | |
| DO3MHA-11 | 2026-09-04 14:01:10 | 47.74946 | 13.42236 | 97° | 62km/h | 2937m | -1.4m/s | 9.8°C | 47.0% | 723.8hPa | 2.7V | 00:00:00 | 03:31:12 | 00:00:00 | |
| OE5DRO-10 | 2026-09-04 14:01:06 | 47.74954 | 13.42144 | 99° | 62km/h | 2943m | -1.7m/s | 9.7°C | 47.0% | 723.2hPa | 2.7V | 00:00:00 | 00:00:00 | 00:00:00 | |
| DO3MHA-11 | 2026-09-04 14:01:05 | 47.74956 | 13.42120 | 99° | 64km/h | 2945m | -1.9m/s | 9.8°C | 46.2% | 723.1hPa | 2.7V | 00:00:00 | 03:31:07 | 00:00:00 | |
| OE5MMP-10 | 2026-09-04 14:01:04 | 47.74959 | 13.42096 | 100° | 62km/h | 2947m | -2.0m/s | 9.8°C | 46.0% | 722.9hPa | 2.7V | 00:00:00 | 03:31:06 | 00:00:00 | |
| DO3MHA-11 | 2026-09-04 14:01:00 | 47.74972 | 13.42001 | 105° | 64km/h | 2954m | -1.8m/s | 9.7°C | 46.1% | 722.3hPa | 2.7V | 00:00:00 | 03:31:02 | 00:00:00 | |
| OE3JTB-15 | 2026-09-04 14:00:59 | 47.74976 | 13.41977 | 106° | 57km/h | 2956m | -1.8m/s | 9.7°C | 46.2% | 722.1hPa | 2.7V | 00:00:00 | 00:00:00 | 00:00:00 | |
| DO3MHA-11 | 2026-09-04 14:00:55 | 47.74996 | 13.41886 | 110° | 58km/h | 2964m | -1.6m/s | 9.9°C | 44.7% | 721.6hPa | 2.7V | 00:00:00 | 03:30:57 | 00:00:00 | |
| OE5DXL-15 | 2026-09-04 14:00:54 | 47.75001 | 13.41865 | 112° | 60km/h | 2965m | -1.8m/s | 9.8°C | 44.7% | 721.4hPa | 2.7V | 00:00:00 | 00:00:00 | 00:00:00 | |
| OE5FHM-15 | 2026-09-04 14:00:52 | 47.75012 | 13.41824 | 112° | 58km/h | 2969m | -1.9m/s | 9.9°C | 44.0% | 721.1hPa | 2.7V | 00:00:00 | 03:30:54 | 00:00:00 | |
| DO3MHA-11 | 2026-09-04 14:00:50 | 47.75023 | 13.41784 | 112° | 53km/h | 2973m | -1.9m/s | 10.0°C | 42.8% | 720.8hPa | 2.7V | 00:00:00 | 03:30:52 | 00:00:00 | |
| DO3MHA-11 | 2026-09-04 14:00:45 | 47.75045 | 13.41690 | 105° | 55km/h | 2982m | -1.8m/s | 10.0°C | 41.7% | 719.9hPa | 2.7V | 00:00:00 | 03:30:47 | 00:00:00 | |
| DO3MHA-11 | 2026-09-04 14:00:40 | 47.75057 | 13.41588 | 99° | 64km/h | 2991m | -1.6m/s | 9.8°C | 41.4% | 719.1hPa | 2.7V | 07:01:00 | 03:30:42 | 00:00:00 | |
| DO3MHA-11 | 2026-09-04 14:00:35 | 47.75072 | 13.41470 | 103° | 66km/h | 3000m | -1.7m/s | 9.8°C | 38.6% | 718.4hPa | 2.7V | 00:00:00 | 03:30:37 | 00:00:00 | |
| PG1ADW-2 | 2026-09-04 14:00:34 | 47.75075 | 13.41446 | 103° | 62km/h | 3001m | -1.7m/s | 9.8°C | 38.6% | 718.2hPa | 2.7V | 00:00:00 | 03:30:36 | 00:00:00 | |
| OE5FHM-15 | 2026-09-04 14:00:32 | 47.75083 | 13.41397 | 105° | 62km/h | 3005m | -1.7m/s | 9.9°C | 37.8% | 717.8hPa | 2.7V | 00:00:00 | 03:30:34 | 00:00:00 | |
| OE5MMP-10 | 2026-09-04 14:00:30 | 47.75093 | 13.41349 | 108° | 62km/h | 3009m | -2.2m/s | 9.9°C | 37.8% | 717.5hPa | 2.7V | 00:00:00 | 03:30:32 | 00:00:00 | |
| DO3MHA-11 | 2026-09-04 14:00:25 | 47.75121 | 13.41231 | 113° | 62km/h | 3019m | -1.8m/s | 9.8°C | 38.6% | 716.7hPa | 2.7V | 00:00:00 | 03:30:27 | 00:00:00 | |
| OE5DXL-15 | 2026-09-04 14:00:24 | 47.75128 | 13.41208 | 114° | 60km/h | 3021m | -2.0m/s | 9.8°C | 38.6% | 716.5hPa | 2.7V | 00:00:00 | 00:00:00 | 00:00:00 | |
| OE3JTB-15 | 2026-09-04 14:00:21 | 47.75147 | 13.41145 | 114° | 60km/h | 3027m | -1.8m/s | 9.9°C | 38.4% | 715.9hPa | 2.7V | 00:00:00 | 00:00:00 | 00:00:00 | |
| DO3MHA-11 | 2026-09-04 14:00:20 | 47.75152 | 13.41125 | 113° | 53km/h | 3029m | -1.8m/s | 9.9°C | 38.3% | 715.8hPa | 2.7V | 00:00:00 | 03:30:22 | 00:00:00 | |
| OE5WHR-10 | 2026-09-04 14:00:15 | 47.75172 | 13.41030 | 102° | 62km/h | 3038m | -1.9m/s | 9.8°C | 36.5% | 715.2hPa | 2.7V | 07:01:00 | 03:30:17 | 00:00:00 | |
| PG1ADW-2 | 2026-09-04 14:00:14 | 47.75174 | 13.41010 | 101° | 62km/h | 3040m | -2.0m/s | 9.8°C | 36.7% | 715.0hPa | 2.7V | 00:00:00 | 00:00:00 | 00:00:00 | |
| DO3MHA-11 | 2026-09-04 14:00:10 | 47.75184 | 13.40922 | 101° | 66km/h | 3048m | -1.8m/s | 9.7°C | 37.7% | 714.3hPa | 2.7V | 00:00:00 | 03:30:12 | 00:00:00 | |
| DO3MHA-11 | 2026-09-04 14:00:05 | 47.75205 | 13.40801 | 109° | 66km/h | 3058m | -1.9m/s | 9.7°C | 37.1% | 713.5hPa | 2.7V | 00:00:00 | 03:30:07 | 00:00:00 | |
| DO3MHA-11 | 2026-09-04 14:00:00 | 47.75236 | 13.40687 | 115° | 60km/h | 3067m | -2.0m/s | 9.7°C | 36.3% | 712.7hPa | 2.7V | 07:01:00 | 03:30:02 | 00:00:00 | |
| OE5MMP-10 | 2026-09-04 13:59:59 | 47.75242 | 13.40666 | 116° | 58km/h | 3069m | -2.0m/s | 9.7°C | 35.7% | 712.4hPa | 2.7V | 00:00:00 | 03:30:01 | 00:00:00 | |
| OE5WHR-10 | 2026-09-04 13:59:57 | 47.75255 | 13.40625 | 116° | 57km/h | 3073m | -1.7m/s | 9.7°C | 35.2% | 712.2hPa | 2.7V | 00:00:00 | 00:00:00 | 00:00:00 | |
| DO3MHA-11 | 2026-09-04 13:59:55 | 47.75267 | 13.40586 | 114° | 53km/h | 3077m | -1.9m/s | 9.7°C | 35.1% | 711.7hPa | 2.7V | 00:00:00 | 03:29:57 | 00:00:00 | |
| PG1ADW-2 | 2026-09-04 13:59:54 | 47.75273 | 13.40567 | 113° | 60km/h | 3079m | -1.7m/s | 9.6°C | 35.2% | 711.6hPa | 2.7V | 07:01:00 | 00:00:00 | 00:00:00 | |
| DO3MHA-11 | 2026-09-04 13:59:50 | 47.75290 | 13.40492 | 108° | 53km/h | 3086m | -1.7m/s | 9.6°C | 35.4% | 710.9hPa | 2.7V | 00:00:00 | 03:29:52 | 00:00:00 | |
| OE5DRO-10 | 2026-09-04 13:59:46 | 47.75305 | 13.40416 | 104° | 66km/h | 3094m | -1.9m/s | 9.5°C | 35.7% | 710.3hPa | 2.7V | 00:00:00 | 00:00:00 | 00:00:00 | |
| DO3MHA-11 | 2026-09-04 13:59:45 | 47.75308 | 13.40395 | 102° | 62km/h | 3096m | -1.7m/s | 9.5°C | 36.0% | 710.1hPa | 2.7V | 00:00:00 | 03:29:47 | 00:00:00 | |
| OE3JTB-15 | 2026-09-04 13:59:43 | 47.75314 | 13.40351 | 101° | 64km/h | 3100m | -1.9m/s | 9.4°C | 36.6% | 709.9hPa | 2.7V | 00:00:00 | 03:29:45 | 00:00:00 | |
| OE5MMP-10 | 2026-09-04 13:59:42 | 47.75317 | 13.40328 | 102° | 68km/h | 3101m | -1.7m/s | 9.4°C | 36.8% | 709.6hPa | 2.7V | 00:00:00 | 03:29:44 | 00:00:00 | |
| DO3MHA-11 | 2026-09-04 13:59:40 | 47.75324 | 13.40280 | 104° | 68km/h | 3105m | -1.8m/s | 9.4°C | 36.6% | 709.3hPa | 2.7V | 00:00:00 | 03:29:42 | 00:00:00 | |
| DO3MHA-11 | 2026-09-04 13:59:35 | 47.75347 | 13.40157 | 109° | 68km/h | 3115m | -1.9m/s | 9.5°C | 36.1% | 708.5hPa | 2.7V | 00:00:00 | 03:29:37 | 00:00:00 | |
| PG1ADW-2 | 2026-09-04 13:59:34 | 47.75352 | 13.40133 | 110° | 60km/h | 3117m | -1.9m/s | 9.5°C | 35.8% | 708.3hPa | 2.7V | 00:00:00 | 00:00:00 | 00:00:00 | |
| OE5FHM-15 | 2026-09-04 13:59:32 | 47.75364 | 13.40085 | 113° | 62km/h | 3121m | -1.9m/s | 9.5°C | 35.8% | 707.9hPa | 2.7V | 00:00:00 | 03:29:34 | 00:00:00 | |
| OE5MMP-10 | 2026-09-04 13:59:31 | 47.75371 | 13.40062 | 114° | 58km/h | 3123m | -2.0m/s | 9.5°C | 35.6% | 707.8hPa | 2.7V | 00:00:00 | 03:29:33 | 00:00:00 | |
| DO3MHA-11 | 2026-09-04 13:59:30 | 47.75377 | 13.40040 | 115° | 62km/h | 3125m | -2.1m/s | 9.5°C | 35.5% | 707.6hPa | 2.7V | 00:00:00 | 03:29:32 | 00:00:00 | |
| DO3MHA-11 | 2026-09-04 13:59:25 | 47.75410 | 13.39937 | 115° | 55km/h | 3135m | -1.7m/s | 9.4°C | 34.5% | 706.8hPa | 2.7V | 00:00:00 | 03:29:27 | 00:00:00 | |
| OE5DXL-15 | 2026-09-04 13:59:24 | 47.75416 | 13.39918 | 113° | 62km/h | 3136m | -2.1m/s | 9.4°C | 34.7% | 706.7hPa | 2.7V | 00:00:00 | 00:00:00 | 00:00:00 | |
| OE5MMP-10 | 2026-09-04 13:59:21 | 47.75430 | 13.39861 | 107° | 60km/h | 3142m | -2.0m/s | 9.3°C | 34.6% | 706.1hPa | 2.7V | 07:02:00 | 03:29:23 | 00:00:00 | |
| OE5WHR-10 | 2026-09-04 13:59:20 | 47.75433 | 13.39842 | 105° | 64km/h | 3145m | -2.0m/s | 9.3°C | 34.4% | 706.0hPa | 2.7V | 00:00:00 | 03:29:22 | 00:00:00 | |
| OE5HKT-10 | 2026-09-04 13:59:19 | 47.75436 | 13.39821 | 103° | 66km/h | 3147m | -2.0m/s | 9.3°C | 34.0% | 705.8hPa | 2.7V | 00:00:00 | 00:00:00 | 00:00:00 | |
| DO3MHA-11 | 2026-09-04 13:59:15 | 47.75448 | 13.39733 | 101° | 66km/h | 3155m | -2.0m/s | 9.2°C | 33.6% | 705.2hPa | 2.7V | 00:00:00 | 03:29:17 | 00:00:00 | |
| PG1ADW-2 | 2026-09-04 13:59:14 | 47.75451 | 13.39710 | 102° | 66km/h | 3157m | -2.1m/s | 9.2°C | 33.5% | 704.9hPa | 2.7V | 00:00:00 | 03:29:16 | 00:00:00 | |
| OE5MMP-10 | 2026-09-04 13:59:11 | 47.75462 | 13.39637 | 104° | 68km/h | 3163m | -1.9m/s | 9.2°C | 33.0% | 704.3hPa | 2.7V | 00:00:00 | 03:29:13 | 00:00:00 | |
| DO3MHA-11 | 2026-09-04 13:59:10 | 47.75466 | 13.39612 | 104° | 69km/h | 3165m | -1.9m/s | 9.1°C | 32.6% | 704.3hPa | 2.7V | 00:00:00 | 03:29:12 | 00:00:00 | |
| OE5FHM-15 | 2026-09-04 13:59:02 | 47.75510 | 13.39417 | 114° | 64km/h | 3181m | -2.2m/s | 9.2°C | 32.2% | 702.8hPa | 2.7V | 07:02:00 | 03:29:04 | 00:00:00 | |
| OE5MMP-10 | 2026-09-04 13:59:01 | 47.75517 | 13.39395 | 115° | 58km/h | 3183m | -2.2m/s | 9.1°C | 31.9% | 702.7hPa | 2.7V | 00:00:00 | 03:29:03 | 00:00:00 | |
| DO3MHA-11 | 2026-09-04 13:59:00 | 47.75524 | 13.39373 | 115° | 60km/h | 3185m | -1.9m/s | 9.1°C | 31.6% | 702.5hPa | 2.7V | 00:00:00 | 03:29:02 | 00:00:00 | |
| OE5DRO-10 | 2026-09-04 13:58:58 | 47.75537 | 13.39331 | 115° | 60km/h | 3189m | -2.1m/s | 9.1°C | 31.3% | 702.0hPa | 2.7V | 00:00:00 | 00:00:00 | 00:00:00 | |
| DO3MHA-11 | 2026-09-04 13:58:55 | 47.75554 | 13.39272 | 112° | 55km/h | 3196m | -2.1m/s | 9.1°C | 31.3% | 701.5hPa | 2.7V | 00:00:00 | 03:28:57 | 00:00:00 | |
| OE5DXL-15 | 2026-09-04 13:58:54 | 47.75558 | 13.39253 | 110° | 62km/h | 3198m | -2.0m/s | 9.1°C | 31.3% | 701.5hPa | 2.7V | 00:00:00 | 00:00:00 | 00:00:00 | |
| OE5MMP-10 | 2026-09-04 13:58:52 | 47.75570 | 13.39193 | 104° | 64km/h | 3204m | -2.1m/s | 9.0°C | 31.2% | 700.9hPa | 2.7V | 00:00:00 | 03:28:53 | 00:00:00 | |
| DO3MHA-11 | 2026-09-04 13:58:50 | 47.75573 | 13.39172 | 102° | 62km/h | 3206m | -2.0m/s | 8.9°C | 31.1% | 700.7hPa | 2.7V | 00:00:00 | 03:28:52 | 00:00:00 | |
| OE5WHR-10 | 2026-09-04 13:58:46 | 47.75584 | 13.39082 | 101° | 64km/h | 3215m | -2.0m/s | 8.8°C | 31.2% | 700.1hPa | 2.7V | 00:00:00 | 00:00:00 | 00:00:00 | |
| DO3MHA-11 | 2026-09-04 13:58:45 | 47.75587 | 13.39058 | 101° | 68km/h | 3217m | -2.1m/s | 8.8°C | 31.2% | 699.8hPa | 2.7V | 00:00:00 | 03:28:47 | 00:00:00 | |
| OE5DRO-10 | 2026-09-04 13:58:42 | 47.75597 | 13.38984 | 103° | 64km/h | 3223m | -2.0m/s | 8.8°C | 30.9% | 699.4hPa | 2.7V | 00:00:00 | 00:00:00 | 00:00:00 | |
| OE5MMP-10 | 2026-09-04 13:58:41 | 47.75601 | 13.38958 | 104° | 66km/h | 3225m | -2.1m/s | 8.8°C | 30.9% | 699.1hPa | 2.7V | 00:00:00 | 03:28:43 | 00:00:00 | |
| DO3MHA-11 | 2026-09-04 13:58:40 | 47.75606 | 13.38932 | 106° | 69km/h | 3227m | -2.0m/s | 8.8°C | 30.9% | 698.9hPa | 2.7V | 07:03:00 | 03:28:42 | 00:00:00 | |
| DO3MHA-11 | 2026-09-04 13:58:35 | 47.75635 | 13.38809 | 114° | 62km/h | 3237m | -1.9m/s | 8.9°C | 30.6% | 698.1hPa | 2.7V | 00:00:00 | 03:28:37 | 00:00:00 | |
| PG1ADW-2 | 2026-09-04 13:58:34 | 47.75642 | 13.38787 | 115° | 62km/h | 3239m | -1.9m/s | 8.8°C | 30.5% | 697.8hPa | 2.7V | 00:00:00 | 00:00:00 | 00:00:00 | |
| OE5FHM-15 | 2026-09-04 13:58:32 | 47.75655 | 13.38745 | 114° | 64km/h | 3243m | -2.0m/s | 8.8°C | 30.4% | 697.6hPa | 2.7V | 00:00:00 | 03:28:34 | 00:00:00 | |
| OE5WHR-10 | 2026-09-04 13:58:27 | 47.75679 | 13.38645 | 106° | 66km/h | 3253m | -2.0m/s | 8.7°C | 30.8% | 696.7hPa | 2.7V | 00:00:00 | 03:28:29 | 00:00:00 | |
| OE5DRO-10 | 2026-09-04 13:58:26 | 47.75683 | 13.38624 | 105° | 66km/h | 3256m | -1.9m/s | 8.7°C | 31.0% | 696.5hPa | 2.7V | 00:00:00 | 00:00:00 | 00:00:00 | |
| DO3MHA-11 | 2026-09-04 13:58:25 | 47.75686 | 13.38603 | 104° | 60km/h | 3257m | -2.1m/s | 8.7°C | 30.7% | 696.3hPa | 2.7V | 00:00:00 | 03:28:27 | 00:00:00 | |
| OE5DXL-15 | 2026-09-04 13:58:24 | 47.75690 | 13.38582 | 103° | 64km/h | 3260m | -2.1m/s | 8.6°C | 30.9% | 696.2hPa | 2.7V | 07:03:00 | 00:00:00 | 00:00:00 | |
| DG1MFX-10 | 2026-09-04 13:58:23 | 47.75690 | 13.38582 | 103° | 58km/h | 3260m | -2.1m/s | 8.7°C | 30.9% | 696.2hPa | 2.7V | 07:03:00 | 00:00:00 | 00:00:00 | |
| DO3MHA-11 | 2026-09-04 13:58:20 | 47.75701 | 13.38492 | 101° | 68km/h | 3268m | -1.9m/s | 8.5°C | 30.3% | 695.4hPa | 2.7V | 00:00:00 | 03:28:22 | 00:00:00 | |
| DO3MHA-11 | 2026-09-04 13:58:15 | 47.75719 | 13.38368 | 104° | 71km/h | 3278m | -2.1m/s | 8.5°C | 29.5% | 694.6hPa | 2.7V | 00:00:00 | 03:28:17 | 00:00:00 | |
| PG1ADW-2 | 2026-09-04 13:58:14 | 47.75723 | 13.38342 | 105° | 64km/h | 3280m | -2.0m/s | 8.5°C | 29.5% | 694.4hPa | 2.7V | 00:00:00 | 00:00:00 | 00:00:00 | |
| OE5WHR-10 | 2026-09-04 13:58:10 | 47.75744 | 13.38239 | 110° | 62km/h | 3288m | -2.1m/s | 8.5°C | 28.9% | 693.7hPa | 2.7V | 00:00:00 | 00:00:00 | 00:00:00 | |
| OE3JTB-15 | 2026-09-04 13:58:08 | 47.75757 | 13.38190 | 113° | 62km/h | 3293m | -2.0m/s | 8.5°C | 29.6% | 693.4hPa | 2.7V | 07:03:00 | 00:00:00 | 00:00:00 | |
| OE5HKT-10 | 2026-09-04 13:58:07 | 47.75764 | 13.38166 | 115° | 62km/h | 3295m | -1.8m/s | 8.5°C | 29.8% | 693.2hPa | 2.7V | 00:00:00 | 03:28:09 | 00:00:00 | |
| DO3MHA-11 | 2026-09-04 13:58:05 | 47.75778 | 13.38120 | 115° | 62km/h | 3299m | -2.0m/s | 8.4°C | 29.8% | 692.9hPa | 2.7V | 00:00:00 | 03:28:07 | 00:00:00 | |
| OE5FHM-15 | 2026-09-04 13:58:02 | 47.75798 | 13.38056 | 115° | 66km/h | 3305m | -2.0m/s | 8.4°C | 29.7% | 692.4hPa | 2.7V | 00:00:00 | 03:28:04 | 00:00:00 | |
| DO3MHA-11 | 2026-09-04 13:58:00 | 47.75810 | 13.38016 | 112° | 57km/h | 3308m | -2.2m/s | 8.4°C | 28.5% | 692.0hPa | 2.7V | 07:03:00 | 03:28:02 | 00:00:00 | |
| DO3MHA-11 | 2026-09-04 13:57:55 | 47.75833 | 13.37916 | 105° | 62km/h | 3319m | -1.8m/s | 8.4°C | 27.0% | 691.1hPa | 2.7V | 00:00:00 | 03:27:57 | 00:00:00 | |
| OE5DXL-15 | 2026-09-04 13:57:54 | 47.75836 | 13.37895 | 104° | 66km/h | 3320m | -1.9m/s | 8.3°C | 26.9% | 691.0hPa | 2.7V | 00:00:00 | 00:00:00 | 00:00:00 | |
| OE5WHR-10 | 2026-09-04 13:57:53 | 47.75840 | 13.37873 | 103° | 69km/h | 3322m | -1.8m/s | 8.3°C | 27.3% | 690.9hPa | 2.7V | 07:03:00 | 00:00:00 | 00:00:00 | |
| OE5HKT-10 | 2026-09-04 13:57:50 | 47.75851 | 13.37802 | 105° | 64km/h | 3328m | -1.7m/s | 8.2°C | 27.2% | 690.4hPa | 2.7V | 00:00:00 | 00:00:00 | 00:00:00 | |
| OE3JTB-15 | 2026-09-04 13:57:49 | 47.75855 | 13.37776 | 106° | 69km/h | 3330m | -1.9m/s | 8.2°C | 27.0% | 690.2hPa | 2.7V | 00:00:00 | 03:27:51 | 00:00:00 | |
| DO3MHA-11 | 2026-09-04 13:57:45 | 47.75876 | 13.37674 | 108° | 73km/h | 3338m | -2.0m/s | 8.2°C | 29.2% | 689.6hPa | 2.7V | 00:00:00 | 03:27:47 | 00:00:00 | |
| DO3MHA-11 | 2026-09-04 13:57:40 | 47.75906 | 13.37546 | 112° | 71km/h | 3348m | -1.9m/s | 8.2°C | 27.5% | 688.8hPa | 2.7V | 00:00:00 | 03:27:42 | 00:00:00 | |
| DG1MFX-10 | 2026-09-04 13:57:39 | 47.75906 | 13.37546 | 113° | 71km/h | 3348m | -1.9m/s | 8.3°C | 27.6% | 688.9hPa | 2.7V | 00:00:00 | 00:00:00 | 00:00:00 | |
| OE5MMP-10 | 2026-09-04 13:57:38 | 47.75921 | 13.37496 | 114° | 66km/h | 3352m | -2.1m/s | 8.3°C | 27.3% | 688.4hPa | 2.7V | 00:00:00 | 03:27:40 | 00:00:00 | |
| OE5WHR-10 | 2026-09-04 13:57:36 | 47.75935 | 13.37449 | 116° | 62km/h | 3356m | -2.0m/s | 8.3°C | 27.1% | 688.1hPa | 2.7V | 00:00:00 | 03:27:38 | 00:00:00 | |
| DO3MHA-11 | 2026-09-04 13:57:35 | 47.75942 | 13.37426 | 117° | 64km/h | 3358m | -2.0m/s | 8.3°C | 26.6% | 687.9hPa | 2.7V | 00:00:00 | 03:27:37 | 00:00:00 | |
| PG1ADW-2 | 2026-09-04 13:57:34 | 47.75950 | 13.37404 | 117° | 64km/h | 3360m | -2.0m/s | 8.3°C | 25.7% | 687.8hPa | 2.7V | 00:00:00 | 00:00:00 | 00:00:00 | |
| OE5FHM-15 | 2026-09-04 13:57:32 | 47.75964 | 13.37360 | 117° | 66km/h | 3364m | -1.7m/s | 8.3°C | 25.6% | 687.4hPa | 2.7V | 00:00:00 | 03:27:34 | 00:00:00 | |
| DO3MHA-11 | 2026-09-04 13:57:30 | 47.75978 | 13.37319 | 116° | 58km/h | 3368m | -1.8m/s | 8.3°C | 27.3% | 687.1hPa | 2.7V | 00:00:00 | 03:27:32 | 00:00:00 | |
| OE5MMP-10 | 2026-09-04 13:57:28 | 47.75990 | 13.37278 | 113° | 60km/h | 3371m | -1.6m/s | 8.2°C | 30.2% | 686.8hPa | 2.7V | 00:00:00 | 03:27:30 | 00:00:00 | |
| OE5HKT-10 | 2026-09-04 13:57:25 | 47.76006 | 13.37217 | 108° | 68km/h | 3377m | -1.8m/s | 8.1°C | 33.9% | 686.3hPa | 2.7V | 00:00:00 | 00:00:00 | 00:00:00 | |
| OE5DXL-15 | 2026-09-04 13:57:24 | 47.76010 | 13.37196 | 107° | 68km/h | 3379m | -1.8m/s | 8.1°C | 36.3% | 686.3hPa | 2.7V | 00:00:00 | 00:00:00 | 00:00:00 | |
| OE5DRO-10 | 2026-09-04 13:57:22 | 47.76018 | 13.37153 | 106° | 71km/h | 3382m | -1.8m/s | 8.0°C | 39.7% | 685.9hPa | 2.7V | 07:04:00 | 00:00:00 | 00:00:00 | |
| DO3MHA-11 | 2026-09-04 13:57:20 | 47.76026 | 13.37107 | 106° | 69km/h | 3386m | -1.5m/s | 7.9°C | 40.5% | 685.6hPa | 2.7V | 07:04:00 | 03:27:22 | 00:00:00 | |
| OE5WHR-10 | 2026-09-04 13:57:19 | 47.76031 | 13.37083 | 107° | 64km/h | 3388m | -1.6m/s | 7.9°C | 40.5% | 685.5hPa | 2.7V | 00:00:00 | 00:00:00 | 00:00:00 | |
| OE5MMP-10 | 2026-09-04 13:57:18 | 47.76036 | 13.37058 | 108° | 73km/h | 3389m | -1.7m/s | 7.9°C | 40.5% | 685.3hPa | 2.7V | 00:00:00 | 03:27:20 | 00:00:00 | |
| DO3MHA-11 | 2026-09-04 13:57:15 | 47.76054 | 13.36981 | 110° | 73km/h | 3395m | -2.0m/s | 8.0°C | 39.9% | 684.9hPa | 2.7V | 00:00:00 | 03:27:17 | 00:00:00 | |
| PG1ADW-2 | 2026-09-04 13:57:14 | 47.76060 | 13.36955 | 111° | 68km/h | 3397m | -1.7m/s | 8.0°C | 39.9% | 684.7hPa | 2.7V | 07:04:00 | 00:00:00 | 00:00:00 | |
| OE3JTB-15 | 2026-09-04 13:57:11 | 47.76081 | 13.36877 | 113° | 66km/h | 3402m | -2.0m/s | 7.9°C | 40.0% | 684.2hPa | 2.7V | 00:00:00 | 00:00:00 | 00:00:00 | |
| DO3MHA-11 | 2026-09-04 13:57:10 | 47.76088 | 13.36852 | 114° | 73km/h | 3404m | -2.0m/s | 7.9°C | 39.9% | 684.0hPa | 2.7V | 00:00:00 | 03:27:12 | 00:00:00 | |
| OE5HKT-10 | 2026-09-04 13:57:08 | 47.76104 | 13.36802 | 116° | 71km/h | 3408m | -1.8m/s | 7.9°C | 39.7% | 683.7hPa | 2.7V | 00:00:00 | 03:27:10 | 00:00:00 | |
| OE5DRO-10 | 2026-09-04 13:57:06 | 47.76120 | 13.36754 | 118° | 64km/h | 3412m | -1.8m/s | 7.9°C | 38.7% | 683.3hPa | 2.7V | 00:00:00 | 00:00:00 | 00:00:00 | |
| DO3MHA-11 | 2026-09-04 13:57:05 | 47.76128 | 13.36732 | 119° | 64km/h | 3414m | -1.6m/s | 7.9°C | 38.6% | 683.3hPa | 2.7V | 00:00:00 | 03:27:07 | 00:00:00 | |
| OE5FHM-15 | 2026-09-04 13:57:02 | 47.76152 | 13.36668 | 119° | 66km/h | 3419m | -1.6m/s | 7.9°C | 38.5% | 682.8hPa | 2.7V | 00:00:00 | 03:27:04 | 00:00:00 | |
| DO3MHA-11 | 2026-09-04 13:57:00 | 47.76165 | 13.36629 | 115° | 60km/h | 3423m | -1.8m/s | 7.9°C | 38.7% | 682.6hPa | 2.7V | 00:00:00 | 03:27:02 | 00:00:00 | |
| OE5MMP-10 | 2026-09-04 13:56:58 | 47.76177 | 13.36588 | 110° | 68km/h | 3426m | -1.6m/s | 7.8°C | 37.4% | 682.3hPa | 2.7V | 00:00:00 | 03:27:00 | 00:00:00 | |
| DG1MFX-10 | 2026-09-04 13:56:57 | 47.76176 | 13.36588 | 110° | 60km/h | 3426m | -1.7m/s | 7.9°C | 37.4% | 682.3hPa | 2.7V | 00:00:00 | 00:00:00 | 00:00:00 | |
| DO3MHA-11 | 2026-09-04 13:56:55 | 47.76191 | 13.36520 | 107° | 69km/h | 3431m | -1.6m/s | 7.8°C | 33.5% | 681.8hPa | 2.7V | 00:00:00 | 03:26:57 | 00:00:00 | |
| OE5DXL-15 | 2026-09-04 13:56:54 | 47.76195 | 13.36496 | 108° | 68km/h | 3433m | -1.7m/s | 7.7°C | 33.3% | 681.7hPa | 2.7V | 00:00:00 | 00:00:00 | 00:00:00 | |
| OE3JTB-15 | 2026-09-04 13:56:52 | 47.76207 | 13.36446 | 110° | 69km/h | 3436m | -1.7m/s | 7.8°C | 32.5% | 681.3hPa | 2.7V | 00:00:00 | 03:26:54 | 00:00:00 | |
| DO3MHA-11 | 2026-09-04 13:56:50 | 47.76220 | 13.36395 | 112° | 73km/h | 3440m | -1.9m/s | 7.8°C | 32.3% | 681.0hPa | 2.7V | 00:00:00 | 03:26:52 | 00:00:00 | |
| OE5MMP-10 | 2026-09-04 13:56:48 | 47.76234 | 13.36344 | 113° | 71km/h | 3443m | -1.7m/s | 7.8°C | 31.7% | 680.8hPa | 2.7V | 00:00:00 | 03:26:50 | 00:00:00 | |
| DO3MHA-11 | 2026-09-04 13:56:45 | 47.76256 | 13.36267 | 115° | 71km/h | 3449m | -1.9m/s | 7.8°C | 28.5% | 680.3hPa | 2.7V | 00:00:00 | 03:26:47 | 00:00:00 | |
| DO3MHA-11 | 2026-09-04 13:56:40 | 47.76299 | 13.36149 | 122° | 64km/h | 3459m | -1.9m/s | 7.8°C | 26.4% | 679.5hPa | 2.7V | 07:05:00 | 03:26:42 | 00:00:00 | |
| OE5MMP-10 | 2026-09-04 13:56:38 | 47.76316 | 13.36107 | 122° | 60km/h | 3463m | -1.8m/s | 7.8°C | 26.4% | 679.3hPa | 2.7V | 07:05:00 | 03:26:40 | 00:00:00 | |
| DG1MFX-10 | 2026-09-04 13:56:37 | 47.76316 | 13.36107 | 122° | 64km/h | 3463m | -1.9m/s | 7.8°C | 26.5% | 679.3hPa | 2.7V | 00:00:00 | 00:00:00 | 00:00:00 | |
| DO3MHA-11 | 2026-09-04 13:56:35 | 47.76338 | 13.36048 | 118° | 58km/h | 3468m | -1.9m/s | 7.7°C | 27.5% | 678.7hPa | 2.7V | 00:00:00 | 03:26:37 | 00:00:00 | |
| PG1ADW-2 | 2026-09-04 13:56:34 | 47.76345 | 13.36028 | 116° | 68km/h | 3470m | -1.5m/s | 7.7°C | 27.5% | 678.6hPa | 2.7V | 00:00:00 | 03:26:36 | 00:00:00 | |
| OE3JTB-15 | 2026-09-04 13:56:33 | 47.76351 | 13.36008 | 113° | 68km/h | 3472m | -1.8m/s | 7.7°C | 27.5% | 678.5hPa | 2.7V | 00:00:00 | 00:00:00 | 00:00:00 | |
| DO3MHA-11 | 2026-09-04 13:56:30 | 47.76367 | 13.35945 | 109° | 68km/h | 3477m | -2.0m/s | 7.6°C | 26.3% | 678.0hPa | 2.7V | 00:00:00 | 03:26:32 | 00:00:00 | |
| OE5WHR-10 | 2026-09-04 13:56:29 | 47.76372 | 13.35922 | 109° | 69km/h | 3479m | -1.9m/s | 7.5°C | 27.1% | 677.8hPa | 2.7V | 00:00:00 | 00:00:00 | 00:00:00 | |
| OE5MMP-10 | 2026-09-04 13:56:28 | 47.76377 | 13.35898 | 109° | 71km/h | 3481m | -2.0m/s | 7.5°C | 28.0% | 677.7hPa | 2.7V | 00:00:00 | 03:26:30 | 00:00:00 | |
| DO3MHA-11 | 2026-09-04 13:56:25 | 47.76395 | 13.35824 | 112° | 73km/h | 3487m | -1.8m/s | 7.5°C | 30.4% | 677.2hPa | 2.7V | 00:00:00 | 03:26:27 | 00:00:00 | |
| OE5DXL-15 | 2026-09-04 13:56:24 | 47.76402 | 13.35799 | 114° | 68km/h | 3489m | -2.0m/s | 7.5°C | 31.7% | 677.0hPa | 2.7V | 00:00:00 | 00:00:00 | 00:00:00 | |
| DO3MHA-11 | 2026-09-04 13:56:20 | 47.76434 | 13.35700 | 119° | 69km/h | 3497m | -2.0m/s | 7.5°C | 37.3% | 676.3hPa | 2.7V | 00:00:00 | 03:26:22 | 00:00:00 | |
| OE5HKT-10 | 2026-09-04 13:56:18 | 47.76453 | 13.35653 | 121° | 62km/h | 3502m | -2.0m/s | 7.5°C | 38.6% | 676.0hPa | 2.7V | 00:00:00 | 00:00:00 | 00:00:00 | |
| DO3MHA-11 | 2026-09-04 13:56:15 | 47.76480 | 13.35588 | 123° | 60km/h | 3507m | -1.9m/s | 7.4°C | 40.0% | 675.5hPa | 2.7V | 00:00:00 | 03:26:17 | 00:00:00 | |
| OE3JTB-15 | 2026-09-04 13:56:14 | 47.76488 | 13.35568 | 123° | 64km/h | 3509m | -2.1m/s | 7.4°C | 40.9% | 675.4hPa | 2.7V | 00:00:00 | 00:00:00 | 00:00:00 | |
| DG1MFX-10 | 2026-09-04 13:56:13 | 47.76488 | 13.35568 | 124° | 62km/h | 3509m | -2.2m/s | 7.5°C | 40.9% | 675.5hPa | 2.7V | 00:00:00 | 00:00:00 | 00:00:00 | |
| OE5WHR-10 | 2026-09-04 13:56:12 | 47.76505 | 13.35530 | 121° | 64km/h | 3514m | -2.0m/s | 7.4°C | 41.3% | 675.1hPa | 2.7V | 00:00:00 | 03:26:14 | 00:00:00 | |
| DO3MHA-11 | 2026-09-04 13:56:10 | 47.76519 | 13.35492 | 117° | 58km/h | 3518m | -2.1m/s | 7.4°C | 41.9% | 674.7hPa | 2.7V | 00:00:00 | 03:26:12 | 00:00:00 | |
| OE5MMP-10 | 2026-09-04 13:56:08 | 47.76531 | 13.35453 | 113° | 64km/h | 3522m | -2.0m/s | 7.3°C | 42.4% | 674.4hPa | 2.7V | 00:00:00 | 03:26:10 | 00:00:00 | |
| DO3MHA-11 | 2026-09-04 13:56:05 | 47.76547 | 13.35390 | 110° | 66km/h | 3528m | -2.0m/s | 7.2°C | 43.1% | 673.8hPa | 2.7V | 00:00:00 | 03:26:07 | 00:00:00 | |
| OE5FHM-15 | 2026-09-04 13:56:02 | 47.76563 | 13.35321 | 109° | 66km/h | 3534m | -2.1m/s | 7.1°C | 44.3% | 673.3hPa | 2.7V | 00:00:00 | 03:26:04 | 00:00:00 | |
| OE5HKT-10 | 2026-09-04 13:56:01 | 47.76569 | 13.35297 | 110° | 66km/h | 3537m | -2.2m/s | 7.0°C | 44.8% | 673.1hPa | 2.7V | 00:00:00 | 00:00:00 | 00:00:00 | |
| DO3MHA-11 | 2026-09-04 13:56:00 | 47.76575 | 13.35272 | 111° | 73km/h | 3539m | -2.1m/s | 7.0°C | 45.3% | 672.9hPa | 2.7V | 07:05:00 | 03:26:02 | 00:00:00 | |
| OE5MMP-10 | 2026-09-04 13:55:58 | 47.76588 | 13.35222 | 114° | 69km/h | 3543m | -2.1m/s | 7.0°C | 45.5% | 672.5hPa | 2.7V | 00:00:00 | 03:26:00 | 00:00:00 | |
| OE5WHR-10 | 2026-09-04 13:55:55 | 47.76613 | 13.35148 | 119° | 62km/h | 3549m | -2.1m/s | 7.0°C | 45.6% | 672.0hPa | 2.7V | 00:00:00 | 00:00:00 | 00:00:00 | |
| OE5DXL-15 | 2026-09-04 13:55:54 | 47.76622 | 13.35125 | 121° | 64km/h | 3552m | -2.1m/s | 7.0°C | 45.6% | 671.9hPa | 2.7V | 00:00:00 | 00:00:00 | 00:00:00 | |
| DO3MHA-11 | 2026-09-04 13:55:50 | 47.76658 | 13.35040 | 123° | 58km/h | 3560m | -2.1m/s | 6.9°C | 46.1% | 671.2hPa | 2.7V | 00:00:00 | 03:25:52 | 00:00:00 | |
| OE5MMP-10 | 2026-09-04 13:55:48 | 47.76674 | 13.35001 | 121° | 60km/h | 3565m | -2.3m/s | 6.9°C | 46.2% | 670.9hPa | 2.7V | 00:00:00 | 03:25:50 | 00:00:00 | |
| OE5DRO-10 | 2026-09-04 13:55:46 | 47.76688 | 13.34963 | 117° | 64km/h | 3569m | -2.2m/s | 6.8°C | 46.5% | 670.4hPa | 2.7V | 00:00:00 | 00:00:00 | 00:00:00 | |
| DO3MHA-11 | 2026-09-04 13:55:45 | 47.76694 | 13.34944 | 115° | 58km/h | 3571m | -2.2m/s | 6.8°C | 46.5% | 670.3hPa | 2.7V | 00:00:00 | 03:25:47 | 00:00:00 | |
| OE5HKT-10 | 2026-09-04 13:55:44 | 47.76700 | 13.34924 | 113° | 64km/h | 3573m | -2.1m/s | 6.8°C | 46.7% | 670.2hPa | 2.7V | 00:00:00 | 03:25:46 | 00:00:00 | |
| DO3MHA-11 | 2026-09-04 13:55:40 | 47.76720 | 13.34840 | 108° | 68km/h | 3583m | -2.3m/s | 6.6°C | 47.0% | 669.5hPa | 2.7V | 00:00:00 | 03:25:42 | 00:00:00 | |
| OE5WHR-10 | 2026-09-04 13:55:38 | 47.76730 | 13.34793 | 109° | 64km/h | 3587m | -2.4m/s | 6.6°C | 47.1% | 669.0hPa | 2.7V | 00:00:00 | 00:00:00 | 00:00:00 | |
| OE3JTB-15 | 2026-09-04 13:55:36 | 47.76742 | 13.34744 | 112° | 62km/h | 3592m | -2.1m/s | 6.6°C | 47.1% | 668.6hPa | 2.7V | 07:06:00 | 00:00:00 | 00:00:00 | |
| DO3MHA-11 | 2026-09-04 13:55:35 | 47.76749 | 13.34719 | 115° | 69km/h | 3595m | -2.1m/s | 6.6°C | 47.3% | 668.4hPa | 2.7V | 00:00:00 | 03:25:37 | 00:00:00 | |
| PG1ADW-2 | 2026-09-04 13:55:34 | 47.76757 | 13.34695 | 118° | 60km/h | 3597m | -2.2m/s | 6.6°C | 47.2% | 668.3hPa | 2.7V | 00:00:00 | 00:00:00 | 00:00:00 | |
| OE5FHM-15 | 2026-09-04 13:55:32 | 47.76774 | 13.34649 | 122° | 64km/h | 3601m | -2.2m/s | 6.6°C | 47.2% | 667.9hPa | 2.7V | 00:00:00 | 03:25:34 | 00:00:00 | |
| DO3MHA-11 | 2026-09-04 13:55:30 | 47.76792 | 13.34608 | 123° | 58km/h | 3605m | -2.0m/s | 6.5°C | 47.2% | 667.6hPa | 2.7V | 00:00:00 | 03:25:32 | 00:00:00 | |
| OE5MMP-10 | 2026-09-04 13:55:28 | 47.76808 | 13.34569 | 121° | 57km/h | 3610m | -2.5m/s | 6.5°C | 47.3% | 667.3hPa | 2.7V | 00:00:00 | 03:25:30 | 00:00:00 | |
| OE5HKT-10 | 2026-09-04 13:55:27 | 47.76815 | 13.34550 | 120° | 62km/h | 3612m | -2.3m/s | 6.5°C | 47.3% | 667.0hPa | 2.7V | 07:06:00 | 00:00:00 | 00:00:00 | |
| DO3MHA-11 | 2026-09-04 13:55:25 | 47.76829 | 13.34513 | 117° | 55km/h | 3617m | -2.5m/s | 6.4°C | 47.5% | 666.6hPa | 2.7V | 00:00:00 | 03:25:27 | 00:00:00 | |
| OE5DXL-15 | 2026-09-04 13:55:24 | 47.76835 | 13.34494 | 116° | 62km/h | 3620m | -2.4m/s | 6.4°C | 47.5% | 666.3hPa | 2.7V | 00:00:00 | 00:00:00 | 00:00:00 | |
| OE5WHR-10 | 2026-09-04 13:55:21 | 47.76851 | 13.34437 | 112° | 58km/h | 3627m | -2.3m/s | 6.3°C | 47.9% | 665.9hPa | 2.7V | 00:00:00 | 03:25:23 | 00:00:00 | |
| DO3MHA-11 | 2026-09-04 13:55:20 | 47.76856 | 13.34417 | 110° | 62km/h | 3630m | -2.3m/s | 6.3°C | 48.0% | 665.7hPa | 2.7V | 07:06:00 | 03:25:22 | 00:00:00 | |
| OE5MMP-10 | 2026-09-04 13:55:18 | 47.76866 | 13.34375 | 108° | 69km/h | 3634m | -2.2m/s | 6.2°C | 48.2% | 665.3hPa | 2.7V | 07:06:00 | 03:25:20 | 00:00:00 | |
| OE3JTB-15 | 2026-09-04 13:55:17 | 47.76871 | 13.34353 | 108° | 68km/h | 3636m | -2.3m/s | 6.2°C | 48.3% | 665.1hPa | 2.7V | 00:00:00 | 00:00:00 | 00:00:00 | |
| DO3MHA-11 | 2026-09-04 13:55:15 | 47.76881 | 13.34306 | 109° | 71km/h | 3641m | -2.1m/s | 6.1°C | 48.4% | 664.7hPa | 2.7V | 00:00:00 | 03:25:17 | 00:00:00 | |
| PG1ADW-2 | 2026-09-04 13:55:14 | 47.76887 | 13.34281 | 110° | 64km/h | 3643m | -2.3m/s | 6.1°C | 48.4% | 664.4hPa | 2.7V | 00:00:00 | 03:25:16 | 00:00:00 | |
| OE5HKT-10 | 2026-09-04 13:55:10 | 47.76913 | 13.34182 | 115° | 62km/h | 3652m | -2.5m/s | 6.1°C | 47.8% | 663.7hPa | 2.7V | 00:00:00 | 00:00:00 | 00:00:00 | |
| OE5MMP-10 | 2026-09-04 13:55:08 | 47.76929 | 13.34133 | 118° | 64km/h | 3658m | -2.8m/s | 6.1°C | 47.5% | 663.3hPa | 2.7V | 00:00:00 | 03:25:10 | 00:00:00 | |
| DO3MHA-11 | 2026-09-04 13:55:05 | 47.76955 | 13.34064 | 121° | 64km/h | 3666m | -2.3m/s | 6.1°C | 45.2% | 662.8hPa | 2.7V | 00:00:00 | 03:25:07 | 00:00:00 | |
| OE5FHM-15 | 2026-09-04 13:55:02 | 47.76981 | 13.34003 | 123° | 62km/h | 3673m | -2.4m/s | 6.1°C | 44.8% | 662.2hPa | 2.7V | 07:06:00 | 03:25:04 | 00:00:00 | |
| DO3MHA-11 | 2026-09-04 13:55:00 | 47.76997 | 13.33964 | 120° | 55km/h | 3678m | -2.3m/s | 6.0°C | 44.4% | 661.9hPa | 2.7V | 00:00:00 | 03:25:02 | 00:00:00 | |
| OE5WHR-10 | 2026-09-04 13:54:58 | 47.77010 | 13.33927 | 116° | 64km/h | 3683m | -2.4m/s | 6.0°C | 44.4% | 661.3hPa | 2.7V | 07:06:00 | 00:00:00 | 00:00:00 | |
| DO3MHA-11 | 2026-09-04 13:54:55 | 47.77026 | 13.33869 | 110° | 60km/h | 3690m | -2.5m/s | 5.9°C | 39.7% | 660.8hPa | 2.7V | 00:00:00 | 03:24:57 | 00:00:00 | |
| OE5DXL-15 | 2026-09-04 13:54:54 | 47.77030 | 13.33849 | 109° | 64km/h | 3693m | -2.5m/s | 5.9°C | 39.0% | 660.6hPa | 2.7V | 00:00:00 | 00:00:00 | 00:00:00 | |
| OE5HKT-10 | 2026-09-04 13:54:53 | 47.77035 | 13.33828 | 108° | 68km/h | 3695m | -2.5m/s | 5.9°C | 38.2% | 660.3hPa | 2.7V | 00:00:00 | 03:24:55 | 00:00:00 | |
| DO3MHA-11 | 2026-09-04 13:54:50 | 47.77049 | 13.33761 | 108° | 69km/h | 3703m | -2.7m/s | 5.8°C | 37.5% | 659.8hPa | 2.7V | 00:00:00 | 03:24:52 | 00:00:00 | |
| OE5MMP-10 | 2026-09-04 13:54:48 | 47.77060 | 13.33713 | 110° | 69km/h | 3708m | -2.3m/s | 5.8°C | 37.3% | 659.3hPa | 2.7V | 00:00:00 | 03:24:50 | 00:00:00 | |
| DO3MHA-11 | 2026-09-04 13:54:45 | 47.77079 | 13.33638 | 114° | 71km/h | 3716m | -2.6m/s | 5.9°C | 36.9% | 658.8hPa | 2.7V | 00:00:00 | 03:24:47 | 00:00:00 | |
| OE5DRO-10 | 2026-09-04 13:54:42 | 47.77103 | 13.33566 | 119° | 60km/h | 3723m | -2.5m/s | 5.8°C | 36.7% | 658.2hPa | 2.7V | 00:00:00 | 00:00:00 | 00:00:00 | |
| OE5WHR-10 | 2026-09-04 13:54:41 | 47.77111 | 13.33543 | 120° | 60km/h | 3726m | -2.3m/s | 5.8°C | 36.3% | 657.8hPa | 2.7V | 00:00:00 | 00:00:00 | 00:00:00 | |
| DO3MHA-11 | 2026-09-04 13:54:40 | 47.77120 | 13.33521 | 121° | 64km/h | 3728m | -2.4m/s | 5.8°C | 36.2% | 657.7hPa | 2.7V | 07:07:00 | 03:24:42 | 00:00:00 | |
| OE3JTB-15 | 2026-09-04 13:54:39 | 47.77128 | 13.33499 | 122° | 62km/h | 3731m | -2.6m/s | 5.8°C | 36.8% | 657.5hPa | 2.7V | 00:00:00 | 00:00:00 | 00:00:00 | |
| OE5MMP-10 | 2026-09-04 13:54:38 | 47.77137 | 13.33479 | 122° | 58km/h | 3733m | -2.5m/s | 5.8°C | 36.8% | 657.3hPa | 2.7V | 00:00:00 | 03:24:40 | 00:00:00 | |
| OE5HKT-10 | 2026-09-04 13:54:36 | 47.77154 | 13.33439 | 122° | 62km/h | 3739m | -2.5m/s | 5.7°C | 37.0% | 656.9hPa | 2.7V | 00:00:00 | 00:00:00 | 00:00:00 | |
| DO3MHA-11 | 2026-09-04 13:54:35 | 47.77162 | 13.33420 | 121° | 57km/h | 3741m | -2.6m/s | 5.7°C | 37.1% | 656.7hPa | 2.7V | 00:00:00 | 03:24:37 | 00:00:00 | |
| PG1ADW-2 | 2026-09-04 13:54:34 | 47.77169 | 13.33401 | 120° | 64km/h | 3744m | -2.6m/s | 5.7°C | 37.1% | 656.5hPa | 2.7V | 07:07:00 | 00:00:00 | 00:00:00 | |
| OE5FHM-15 | 2026-09-04 13:54:32 | 47.77182 | 13.33364 | 117° | 62km/h | 3749m | -2.5m/s | 5.7°C | 37.2% | 656.0hPa | 2.7V | 00:00:00 | 03:24:34 | 00:00:00 | |
| DO3MHA-11 | 2026-09-04 13:54:30 | 47.77194 | 13.33326 | 112° | 60km/h | 3755m | -2.7m/s | 5.6°C | 37.5% | 655.6hPa | 2.7V | 00:00:00 | 03:24:32 | 00:00:00 | |
| OE5MMP-10 | 2026-09-04 13:54:28 | 47.77203 | 13.33286 | 108° | 68km/h | 3760m | -2.7m/s | 5.5°C | 37.4% | 655.1hPa | 2.7V | 00:00:00 | 03:24:30 | 00:00:00 | |
| OE5DRO-10 | 2026-09-04 13:54:26 | 47.77212 | 13.33242 | 107° | 68km/h | 3765m | -2.6m/s | 5.4°C | 37.2% | 654.8hPa | 2.7V | 00:00:00 | 00:00:00 | 00:00:00 | |
| DO3MHA-11 | 2026-09-04 13:54:25 | 47.77217 | 13.33218 | 108° | 69km/h | 3768m | -2.5m/s | 5.4°C | 37.3% | 654.5hPa | 2.7V | 00:00:00 | 03:24:27 | 00:00:00 | |
| OE5WHR-10 | 2026-09-04 13:54:24 | 47.77222 | 13.33194 | 109° | 66km/h | 3771m | -2.6m/s | 5.4°C | 37.6% | 654.2hPa | 2.7V | 00:00:00 | 03:24:26 | 00:00:00 | |
| DO3MHA-11 | 2026-09-04 13:54:20 | 47.77249 | 13.33095 | 116° | 69km/h | 3781m | -2.5m/s | 5.4°C | 37.0% | 653.3hPa | 2.7V | 00:00:00 | 03:24:22 | 00:00:00 | |
| OE5HKT-10 | 2026-09-04 13:54:19 | 47.77257 | 13.33071 | 117° | 62km/h | 3784m | -2.7m/s | 5.4°C | 36.3% | 653.2hPa | 2.7V | 00:00:00 | 00:00:00 | 00:00:00 | |
| OE5MMP-10 | 2026-09-04 13:54:18 | 47.77265 | 13.33047 | 118° | 64km/h | 3787m | -2.6m/s | 5.4°C | 36.2% | 653.0hPa | 2.7V | 00:00:00 | 03:24:20 | 00:00:00 | |
| DO3MHA-11 | 2026-09-04 13:54:15 | 47.77290 | 13.32980 | 121° | 62km/h | 3794m | -2.7m/s | 5.4°C | 36.3% | 652.4hPa | 2.7V | 00:00:00 | 03:24:17 | 00:00:00 | |
| PG1ADW-2 | 2026-09-04 13:54:14 | 47.77299 | 13.32959 | 121° | 60km/h | 3797m | -2.6m/s | 5.3°C | 36.2% | 652.1hPa | 2.7V | 00:00:00 | 00:00:00 | 00:00:00 | |
| DG1MFX-10 | 2026-09-04 13:54:12 | 47.77307 | 13.32939 | 122° | 62km/h | 3800m | -2.7m/s | 5.4°C | 36.2% | 651.9hPa | 2.7V | 07:07:00 | 00:00:00 | 00:00:00 | |
| DO3MHA-11 | 2026-09-04 13:54:10 | 47.77329 | 13.32880 | 119° | 57km/h | 3808m | -2.6m/s | 5.3°C | 35.7% | 651.2hPa | 2.7V | 00:00:00 | 03:24:12 | 00:00:00 | |
| OE5MMP-10 | 2026-09-04 13:54:08 | 47.77342 | 13.32842 | 116° | 58km/h | 3814m | -2.9m/s | 5.3°C | 35.2% | 650.9hPa | 2.7V | 00:00:00 | 03:24:10 | 00:00:00 | |
| OE5WHR-10 | 2026-09-04 13:54:07 | 47.77348 | 13.32823 | 114° | 64km/h | 3817m | -2.8m/s | 5.2°C | 35.2% | 650.6hPa | 2.7V | 00:00:00 | 00:00:00 | 00:00:00 | |
| DO3MHA-11 | 2026-09-04 13:54:05 | 47.77359 | 13.32784 | 111° | 58km/h | 3822m | -2.9m/s | 5.2°C | 35.3% | 650.2hPa | 2.7V | 00:00:00 | 03:24:07 | 00:00:00 | |
| OE5FHM-15 | 2026-09-04 13:54:02 | 47.77373 | 13.32723 | 107° | 64km/h | 3831m | -2.8m/s | 5.1°C | 34.5% | 649.5hPa | 2.7V | 00:00:00 | 03:24:04 | 00:00:00 | |
| OE3JTB-15 | 2026-09-04 13:54:01 | 47.77377 | 13.32701 | 107° | 68km/h | 3834m | -2.8m/s | 5.1°C | 34.5% | 649.3hPa | 2.7V | 00:00:00 | 03:24:03 | 00:00:00 | |
| DO3MHA-11 | 2026-09-04 13:54:00 | 47.77381 | 13.32679 | 106° | 64km/h | 3837m | -2.8m/s | 5.0°C | 34.7% | 649.0hPa | 2.7V | 07:07:00 | 03:24:02 | 00:00:00 | |
| OE5MMP-10 | 2026-09-04 13:53:58 | 47.77390 | 13.32633 | 106° | 69km/h | 3842m | -2.8m/s | 5.0°C | 35.6% | 648.5hPa | 2.7V | 07:07:00 | 03:24:00 | 00:00:00 | |
| DO3MHA-11 | 2026-09-04 13:53:55 | 47.77403 | 13.32561 | 107° | 71km/h | 3851m | -2.6m/s | 4.9°C | 35.8% | 647.8hPa | 2.7V | 00:00:00 | 03:23:57 | 00:00:00 | |
| OE5DXL-15 | 2026-09-04 13:53:54 | 47.77408 | 13.32536 | 108° | 66km/h | 3854m | -2.8m/s | 4.9°C | 36.0% | 647.6hPa | 2.7V | 00:00:00 | 00:00:00 | 00:00:00 | |
| DG1MFX-10 | 2026-09-04 13:53:52 | 47.77414 | 13.32511 | 109° | 71km/h | 3857m | -2.9m/s | 4.9°C | 35.9% | 647.5hPa | 2.7V | 07:08:00 | 00:00:00 | 00:00:00 | |
| OE5WHR-10 | 2026-09-04 13:53:50 | 47.77434 | 13.32434 | 113° | 64km/h | 3865m | -2.8m/s | 4.9°C | 35.8% | 646.7hPa | 2.7V | 00:00:00 | 00:00:00 | 00:00:00 | |
| OE5MMP-10 | 2026-09-04 13:53:48 | 47.77449 | 13.32385 | 116° | 64km/h | 3871m | -2.8m/s | 4.9°C | 35.7% | 646.3hPa | 2.7V | 00:00:00 | 03:23:50 | 00:00:00 | |
| DO3MHA-11 | 2026-09-04 13:53:45 | 47.77473 | 13.32316 | 120° | 62km/h | 3879m | -2.7m/s | 4.8°C | 35.9% | 645.7hPa | 2.7V | 00:00:00 | 03:23:47 | 00:00:00 | |
| OE3JTB-15 | 2026-09-04 13:53:42 | 47.77497 | 13.32253 | 120° | 64km/h | 3887m | -2.8m/s | 4.8°C | 35.7% | 644.9hPa | 2.7V | 00:00:00 | 00:00:00 | 00:00:00 | |
| DO3MHA-11 | 2026-09-04 13:53:40 | 47.77510 | 13.32214 | 117° | 58km/h | 3893m | -2.8m/s | 4.8°C | 35.8% | 644.4hPa | 2.6V | 00:00:00 | 03:23:42 | 00:00:00 | |
| OE5MMP-10 | 2026-09-04 13:53:38 | 47.77523 | 13.32175 | 113° | 62km/h | 3898m | -2.7m/s | 4.7°C | 36.0% | 644.0hPa | 2.6V | 00:00:00 | 03:23:40 | 00:00:00 | |
| DO3MHA-11 | 2026-09-04 13:53:35 | 47.77537 | 13.32113 | 107° | 62km/h | 3907m | -2.7m/s | 4.6°C | 36.7% | 643.3hPa | 2.6V | 00:00:00 | 03:23:37 | 00:00:00 | |
| PG1ADW-2 | 2026-09-04 13:53:34 | 47.77541 | 13.32091 | 106° | 68km/h | 3910m | -2.7m/s | 4.6°C | 36.4% | 643.1hPa | 2.7V | 00:00:00 | 00:00:00 | 00:00:00 | |
| OE5WHR-10 | 2026-09-04 13:53:33 | 47.77545 | 13.32068 | 106° | 68km/h | 3912m | -2.8m/s | 4.5°C | 36.3% | 642.9hPa | 2.7V | 00:00:00 | 03:23:35 | 00:00:00 | |
| OE5FHM-15 | 2026-09-04 13:53:32 | 47.77549 | 13.32045 | 105° | 64km/h | 3915m | -2.7m/s | 4.5°C | 36.0% | 642.7hPa | 2.7V | 00:00:00 | 03:23:34 | 00:00:00 | |
| DO3MHA-11 | 2026-09-04 13:53:30 | 47.77558 | 13.31998 | 105° | 69km/h | 3921m | -2.9m/s | 4.5°C | 36.4% | 642.2hPa | 2.7V | 00:00:00 | 03:23:32 | 00:00:00 | |
| OE5MMP-10 | 2026-09-04 13:53:28 | 47.77567 | 13.31949 | 107° | 69km/h | 3926m | -2.7m/s | 4.5°C | 36.6% | 641.8hPa | 2.7V | 00:00:00 | 03:23:30 | 00:00:00 | |
| DO3MHA-11 | 2026-09-04 13:53:25 | 47.77585 | 13.31874 | 113° | 71km/h | 3935m | -2.7m/s | 4.5°C | 36.5% | 641.2hPa | 2.7V | 00:00:00 | 03:23:27 | 00:00:00 | |
| OE5DXL-15 | 2026-09-04 13:53:24 | 47.77592 | 13.31849 | 115° | 64km/h | 3937m | -2.6m/s | 4.5°C | 36.0% | 641.0hPa | 2.7V | 00:00:00 | 00:00:00 | 00:00:00 | |
| OE3JTB-15 | 2026-09-04 13:53:23 | 47.77600 | 13.31824 | 116° | 62km/h | 3940m | -2.6m/s | 4.5°C | 35.6% | 640.6hPa | 2.7V | 00:00:00 | 00:00:00 | 00:00:00 | |
| OE5DRO-10 | 2026-09-04 13:53:22 | 47.77608 | 13.31801 | 117° | 62km/h | 3943m | -2.8m/s | 4.5°C | 35.6% | 640.4hPa | 2.7V | 00:00:00 | 00:00:00 | 00:00:00 | |
| DO3MHA-11 | 2026-09-04 13:53:20 | 47.77624 | 13.31754 | 119° | 66km/h | 3948m | -2.7m/s | 4.5°C | 34.9% | 640.0hPa | 2.7V | 07:08:00 | 03:23:22 | 00:00:00 | |
| OE5HKT-10 | 2026-09-04 13:53:19 | 47.77632 | 13.31732 | 120° | 60km/h | 3951m | -2.8m/s | 4.5°C | 34.3% | 639.8hPa | 2.7V | 00:00:00 | 00:00:00 | 00:00:00 | |
| OE5MMP-10 | 2026-09-04 13:53:18 | 47.77640 | 13.31711 | 120° | 60km/h | 3954m | -2.9m/s | 4.5°C | 34.3% | 639.7hPa | 2.7V | 00:00:00 | 03:23:20 | 00:00:00 | |
| OE5WHR-10 | 2026-09-04 13:53:16 | 47.77657 | 13.31669 | 120° | 60km/h | 3960m | -2.8m/s | 4.4°C | 34.4% | 639.1hPa | 2.7V | 00:00:00 | 00:00:00 | 00:00:00 | |
| DO3MHA-11 | 2026-09-04 13:53:15 | 47.77664 | 13.31649 | 120° | 58km/h | 3962m | -2.8m/s | 4.4°C | 34.3% | 638.9hPa | 2.7V | 00:00:00 | 03:23:17 | 00:00:00 | |
| PG1ADW-2 | 2026-09-04 13:53:14 | 47.77672 | 13.31629 | 120° | 64km/h | 3965m | -2.9m/s | 4.4°C | 34.0% | 638.6hPa | 2.7V | 00:00:00 | 00:00:00 | 00:00:00 | |
| DO3MHA-11 | 2026-09-04 13:53:10 | 47.77699 | 13.31551 | 116° | 57km/h | 3977m | -2.9m/s | 4.3°C | 30.8% | 637.8hPa | 2.7V | 00:00:00 | 03:23:12 | 00:00:00 | |
| OE5MMP-10 | 2026-09-04 13:53:08 | 47.77710 | 13.31513 | 112° | 62km/h | 3983m | -2.8m/s | 4.3°C | 30.9% | 637.3hPa | 2.7V | 00:00:00 | 03:23:10 | 00:00:00 | |
| OE5DRO-10 | 2026-09-04 13:53:06 | 47.77720 | 13.31473 | 109° | 68km/h | 3988m | -2.8m/s | 4.2°C | 32.1% | 636.8hPa | 2.7V | 07:08:00 | 00:00:00 | 00:00:00 | |
| DO3MHA-11 | 2026-09-04 13:53:05 | 47.77724 | 13.31452 | 107° | 64km/h | 3991m | -2.7m/s | 4.2°C | 32.9% | 636.7hPa | 2.7V | 00:00:00 | 03:23:07 | 00:00:00 | |
| OE5FHM-15 | 2026-09-04 13:53:02 | 47.77737 | 13.31384 | 106° | 66km/h | 3999m | -2.7m/s | 4.0°C | 35.3% | 636.0hPa | 2.7V | 00:00:00 | 03:23:04 | 00:00:00 | |
| DO3MHA-11 | 2026-09-04 13:53:00 | 47.77746 | 13.31335 | 108° | 71km/h | 4005m | -2.7m/s | 3.9°C | 36.8% | 635.6hPa | 2.7V | 00:00:00 | 03:23:02 | 00:00:00 | |
| OE5WHR-10 | 2026-09-04 13:52:59 | 47.77752 | 13.31310 | 109° | 64km/h | 4008m | -2.7m/s | 3.9°C | 38.5% | 635.4hPa | 2.7V | 00:00:00 | 00:00:00 | 00:00:00 | |
| OE5MMP-10 | 2026-09-04 13:52:58 | 47.77758 | 13.31284 | 110° | 68km/h | 4011m | -2.8m/s | 3.9°C | 39.1% | 635.2hPa | 2.7V | 00:00:00 | 03:23:00 | 00:00:00 | |
| DO3MHA-11 | 2026-09-04 13:52:55 | 47.77779 | 13.31209 | 116° | 69km/h | 4019m | -2.8m/s | 3.9°C | 41.7% | 634.5hPa | 2.7V | 00:00:00 | 03:22:57 | 00:00:00 | |
| OE5DXL-15 | 2026-09-04 13:52:54 | 47.77787 | 13.31185 | 118° | 64km/h | 4022m | -2.9m/s | 3.9°C | 43.4% | 634.4hPa | 2.7V | 00:00:00 | 00:00:00 | 00:00:00 | |
| DO3MHA-11 | 2026-09-04 13:52:50 | 47.77821 | 13.31098 | 121° | 58km/h | 4033m | -2.6m/s | 3.7°C | 54.4% | 633.4hPa | 2.7V | 00:00:00 | 03:22:52 | 00:00:00 | |
| OE5MMP-10 | 2026-09-04 13:52:48 | 47.77835 | 13.31059 | 119° | 58km/h | 4038m | -2.6m/s | 3.7°C | 54.7% | 633.1hPa | 2.7V | 00:00:00 | 03:22:50 | 00:00:00 | |
| OE5HKT-10 | 2026-09-04 13:52:45 | 47.77854 | 13.31002 | 114° | 68km/h | 4046m | -2.7m/s | 3.6°C | 61.2% | 632.3hPa | 2.7V | 07:09:00 | 03:22:47 | 00:00:00 | |
| OE5WHR-10 | 2026-09-04 13:52:42 | 47.77869 | 13.30943 | 108° | 68km/h | 4054m | -2.7m/s | 3.4°C | 64.6% | 631.7hPa | 2.7V | 07:09:00 | 03:22:44 | 00:00:00 | |
| DO3MHA-11 | 2026-09-04 13:52:40 | 47.77878 | 13.30900 | 106° | 68km/h | 4060m | -3.0m/s | 3.3°C | 65.0% | 631.3hPa | 2.7V | 07:09:00 | 03:22:42 | 00:00:00 | |
| OE5MMP-10 | 2026-09-04 13:52:38 | 47.77887 | 13.30854 | 107° | 71km/h | 4066m | -2.7m/s | 3.3°C | 65.0% | 630.9hPa | 2.7V | 07:09:00 | 03:22:40 | 00:00:00 | |
| DO3MHA-11 | 2026-09-04 13:52:35 | 47.77904 | 13.30779 | 111° | 73km/h | 4074m | -2.6m/s | 3.3°C | 63.7% | 630.2hPa | 2.7V | 00:00:00 | 03:22:37 | 00:00:00 | |
| PG1ADW-2 | 2026-09-04 13:52:34 | 47.77911 | 13.30753 | 113° | 64km/h | 4077m | -2.6m/s | 3.3°C | 63.7% | 630.1hPa | 2.7V | 00:00:00 | 03:22:36 | 00:00:00 | |
| OE3JTB-15 | 2026-09-04 13:52:33 | 47.77918 | 13.30728 | 115° | 68km/h | 4079m | -2.6m/s | 3.3°C | 61.7% | 629.9hPa | 2.7V | 00:00:00 | 00:00:00 | 00:00:00 | |
| OE5MMP-10 | 2026-09-04 13:52:28 | 47.77960 | 13.30611 | 121° | 60km/h | 4093m | -2.6m/s | 3.2°C | 60.2% | 628.9hPa | 2.7V | 00:00:00 | 03:22:30 | 00:00:00 | |
| DO3MHA-11 | 2026-09-04 13:52:25 | 47.77984 | 13.30549 | 120° | 58km/h | 4100m | -2.5m/s | 3.1°C | 60.0% | 628.1hPa | 2.7V | 00:00:00 | 03:22:27 | 00:00:00 | |
| OE5DXL-15 | 2026-09-04 13:52:24 | 47.77992 | 13.30529 | 119° | 64km/h | 4103m | -2.6m/s | 3.1°C | 60.3% | 628.0hPa | 2.7V | 00:00:00 | 00:00:00 | 00:00:00 | |
| DO3MHA-11 | 2026-09-04 13:52:20 | 47.78016 | 13.30450 | 111° | 60km/h | 4114m | -2.6m/s | 3.0°C | 61.3% | 627.1hPa | 2.7V | 00:00:00 | 03:22:22 | 00:00:00 | |
| OE5MMP-10 | 2026-09-04 13:52:18 | 47.78025 | 13.30409 | 108° | 68km/h | 4119m | -2.8m/s | 2.9°C | 61.6% | 626.8hPa | 2.7V | 00:00:00 | 03:22:20 | 00:00:00 | |
| DO3MHA-11 | 2026-09-04 13:52:15 | 47.78038 | 13.30341 | 106° | 71km/h | 4127m | -2.7m/s | 2.8°C | 64.6% | 626.2hPa | 2.7V | 00:00:00 | 03:22:17 | 00:00:00 | |
| PG1ADW-2 | 2026-09-04 13:52:14 | 47.78043 | 13.30317 | 106° | 68km/h | 4130m | -2.6m/s | 2.7°C | 65.8% | 626.0hPa | 2.7V | 00:00:00 | 00:00:00 | 00:00:00 | |
| OE5HKT-10 | 2026-09-04 13:52:11 | 47.78058 | 13.30242 | 109° | 68km/h | 4138m | -2.7m/s | 2.7°C | 65.9% | 625.2hPa | 2.7V | 00:00:00 | 00:00:00 | 00:00:00 | |
| DO3MHA-11 | 2026-09-04 13:52:09 | 47.78071 | 13.30189 | 111° | 75km/h | 4143m | -2.7m/s | 2.7°C | 65.5% | 624.9hPa | 2.7V | 00:00:00 | 03:22:11 | 00:00:00 | |
| OE5WHR-10 | 2026-09-04 13:52:08 | 47.78078 | 13.30163 | 113° | 66km/h | 4146m | -2.6m/s | 2.7°C | 65.0% | 624.7hPa | 2.7V | 00:00:00 | 00:00:00 | 00:00:00 | |
| DO3MHA-11 | 2026-09-04 13:52:04 | 47.78110 | 13.30063 | 119° | 66km/h | 4156m | -2.5m/s | 2.6°C | 65.0% | 623.8hPa | 2.7V | 00:00:00 | 03:22:06 | 00:00:00 | |
| OE5FHM-15 | 2026-09-04 13:52:02 | 47.78127 | 13.30019 | 121° | 66km/h | 4161m | -2.5m/s | 2.6°C | 65.0% | 623.2hPa | 2.6V | 00:00:00 | 03:22:04 | 00:00:00 | |
| DO3MHA-11 | 2026-09-04 13:51:59 | 47.78149 | 13.29958 | 117° | 58km/h | 4169m | -2.6m/s | 2.5°C | 65.3% | 622.8hPa | 2.6V | 07:09:00 | 03:22:01 | 00:00:00 | |
| OE5MMP-10 | 2026-09-04 13:51:58 | 47.78155 | 13.29938 | 115° | 62km/h | 4171m | -2.7m/s | 2.5°C | 64.5% | 622.7hPa | 2.6V | 00:00:00 | 03:22:00 | 00:00:00 | |
| DO3MHA-11 | 2026-09-04 13:51:54 | 47.78175 | 13.29856 | 107° | 66km/h | 4182m | -2.6m/s | 2.4°C | 63.6% | 621.9hPa | 2.6V | 00:00:00 | 03:21:56 | 00:00:00 | |
| OE5WHR-10 | 2026-09-04 13:51:51 | 47.78188 | 13.29786 | 105° | 69km/h | 4189m | -2.5m/s | 2.3°C | 64.0% | 621.3hPa | 2.6V | 00:00:00 | 03:21:53 | 00:00:00 | |
| DO3MHA-11 | 2026-09-04 13:51:49 | 47.78197 | 13.29736 | 107° | 73km/h | 4194m | -2.3m/s | 2.2°C | 63.8% | 620.9hPa | 2.6V | 00:00:00 | 03:21:51 | 00:00:00 | |
| OE5MMP-10 | 2026-09-04 13:51:48 | 47.78202 | 13.29710 | 108° | 73km/h | 4196m | -2.4m/s | 2.2°C | 63.6% | 620.8hPa | 2.6V | 00:00:00 | 03:21:50 | 00:00:00 | |
| OE5DRO-10 | 2026-09-04 13:51:46 | 47.78214 | 13.29658 | 111° | 68km/h | 4201m | -2.5m/s | 2.2°C | 61.8% | 620.4hPa | 2.6V | 00:00:00 | 00:00:00 | 00:00:00 | |
| DO3MHA-11 | 2026-09-04 13:51:44 | 47.78229 | 13.29606 | 114° | 73km/h | 4207m | -2.5m/s | 2.2°C | 61.8% | 620.0hPa | 2.6V | 00:00:00 | 03:21:46 | 00:00:00 | |
| DO3MHA-11 | 2026-09-04 13:51:39 | 47.78269 | 13.29486 | 119° | 64km/h | 4219m | -2.4m/s | 2.2°C | 60.1% | 619.1hPa | 2.6V | 00:00:00 | 03:21:41 | 00:00:00 | |
| OE5MMP-10 | 2026-09-04 13:51:38 | 47.78278 | 13.29464 | 120° | 60km/h | 4221m | -2.5m/s | 2.2°C | 59.7% | 618.8hPa | 2.6V | 00:00:00 | 03:21:40 | 00:00:00 | |
| OE5HKT-10 | 2026-09-04 13:51:37 | 47.78286 | 13.29442 | 120° | 62km/h | 4224m | -2.7m/s | 2.2°C | 59.1% | 618.6hPa | 2.6V | 00:00:00 | 00:00:00 | 00:00:00 | |
| OE3JTB-15 | 2026-09-04 13:51:35 | 47.78302 | 13.29401 | 120° | 64km/h | 4229m | -2.3m/s | 2.1°C | 58.6% | 618.2hPa | 2.7V | 00:00:00 | 03:21:37 | 00:00:00 | |
| OE5WHR-10 | 2026-09-04 13:51:34 | 47.78309 | 13.29381 | 119° | 64km/h | 4232m | -2.6m/s | 2.1°C | 58.4% | 618.0hPa | 2.7V | 00:00:00 | 00:00:00 | 00:00:00 | |
| OE5FHM-15 | 2026-09-04 13:51:32 | 47.78323 | 13.29342 | 117° | 62km/h | 4236m | -2.4m/s | 2.1°C | 57.9% | 617.7hPa | 2.7V | 00:00:00 | 03:21:34 | 00:00:00 | |
| OE5DRO-10 | 2026-09-04 13:51:30 | 47.78336 | 13.29303 | 113° | 66km/h | 4242m | -2.5m/s | 2.1°C | 57.8% | 617.2hPa | 2.7V | 00:00:00 | 00:00:00 | 00:00:00 | |
| DO3MHA-11 | 2026-09-04 13:51:29 | 47.78341 | 13.29284 | 111° | 60km/h | 4244m | -2.4m/s | 2.1°C | 58.1% | 617.0hPa | 2.7V | 00:00:00 | 03:21:31 | 00:00:00 | |
| OE5MMP-10 | 2026-09-04 13:51:28 | 47.78346 | 13.29264 | 109° | 68km/h | 4246m | -2.2m/s | 2.0°C | 58.9% | 616.9hPa | 2.7V | 00:00:00 | 03:21:30 | 00:00:00 | |
| OE5DXL-15 | 2026-09-04 13:51:24 | 47.78363 | 13.29175 | 106° | 64km/h | 4256m | -2.2m/s | 1.8°C | 60.4% | 616.2hPa | 2.7V | 00:00:00 | 00:00:00 | 00:00:00 | |
| OE5HKT-10 | 2026-09-04 13:51:20 | 47.78385 | 13.29074 | 112° | 62km/h | 4265m | -2.4m/s | 1.8°C | 61.0% | 615.5hPa | 2.7V | 00:00:00 | 00:00:00 | 00:00:00 | |
| DO3MHA-11 | 2026-09-04 13:51:19 | 47.78392 | 13.29049 | 114° | 71km/h | 4268m | -2.3m/s | 1.8°C | 60.9% | 615.3hPa | 2.7V | 07:10:00 | 03:21:21 | 00:00:00 | |
| OE5MMP-10 | 2026-09-04 13:51:18 | 47.78399 | 13.29024 | 116° | 64km/h | 4270m | -2.2m/s | 1.8°C | 61.1% | 615.1hPa | 2.7V | 07:10:00 | 03:21:20 | 00:00:00 | |
| OE5WHR-10 | 2026-09-04 13:51:17 | 47.78407 | 13.29000 | 117° | 60km/h | 4272m | -2.6m/s | 1.8°C | 61.2% | 614.9hPa | 2.7V | 00:00:00 | 00:00:00 | 00:00:00 | |
| PG1ADW-2 | 2026-09-04 13:51:14 | 47.78432 | 13.28932 | 120° | 62km/h | 4279m | -2.4m/s | 1.7°C | 61.7% | 614.3hPa | 2.7V | 00:00:00 | 03:21:16 | 00:00:00 | |
| DO3MHA-11 | 2026-09-04 13:51:09 | 47.78470 | 13.28832 | 118° | 55km/h | 4292m | -2.4m/s | 1.6°C | 63.8% | 613.4hPa | 2.7V | 00:00:00 | 03:21:11 | 00:00:00 | |
| OE5MMP-10 | 2026-09-04 13:51:08 | 47.78477 | 13.28814 | 117° | 58km/h | 4294m | -2.3m/s | 1.6°C | 63.9% | 613.2hPa | 2.7V | 00:00:00 | 03:21:10 | 00:00:00 | |
| OE3JTB-15 | 2026-09-04 13:51:06 | 47.78488 | 13.28776 | 113° | 62km/h | 4299m | -2.3m/s | 1.5°C | 64.1% | 612.9hPa | 2.7V | 00:00:00 | 00:00:00 | 00:00:00 | |
| DO3MHA-11 | 2026-09-04 13:51:04 | 47.78497 | 13.28737 | 109° | 60km/h | 4304m | -2.3m/s | 1.5°C | 64.4% | 612.5hPa | 2.6V | 00:00:00 | 03:21:06 | 00:00:00 | |
| OE5HKT-10 | 2026-09-04 13:51:03 | 47.78502 | 13.28717 | 107° | 66km/h | 4306m | -2.3m/s | 1.5°C | 64.5% | 612.3hPa | 2.6V | 00:00:00 | 03:21:05 | 00:00:00 | |
| OE5FHM-15 | 2026-09-04 13:51:02 | 47.78506 | 13.28696 | 106° | 62km/h | 4309m | -2.4m/s | 1.4°C | 64.7% | 612.1hPa | 2.6V | 07:10:00 | 03:21:04 | 00:00:00 | |
| OE5WHR-10 | 2026-09-04 13:51:00 | 47.78514 | 13.28651 | 106° | 66km/h | 4313m | -2.2m/s | 1.3°C | 64.8% | 611.8hPa | 2.6V | 00:00:00 | 03:21:02 | 00:00:00 | |
| DO3MHA-11 | 2026-09-04 13:50:59 | 47.78519 | 13.28628 | 107° | 69km/h | 4315m | -2.2m/s | 1.3°C | 64.9% | 611.7hPa | 2.6V | 00:00:00 | 03:21:01 | 00:00:00 | |
| OE5MMP-10 | 2026-09-04 13:50:58 | 47.78524 | 13.28603 | 108° | 69km/h | 4318m | -2.2m/s | 1.3°C | 64.9% | 611.5hPa | 2.6V | 00:00:00 | 03:21:00 | 00:00:00 | |
| OE5DXL-15 | 2026-09-04 13:50:54 | 47.78549 | 13.28504 | 114° | 62km/h | 4327m | -2.1m/s | 1.3°C | 64.6% | 610.8hPa | 2.6V | 00:00:00 | 03:20:56 | 00:00:00 | |
| DO3MHA-11 | 2026-09-04 13:50:49 | 47.78588 | 13.28388 | 121° | 62km/h | 4338m | -2.4m/s | 1.2°C | 64.4% | 609.9hPa | 2.6V | 00:00:00 | 03:20:51 | 00:00:00 | |
| OE5MMP-10 | 2026-09-04 13:50:48 | 47.78597 | 13.28367 | 121° | 57km/h | 4341m | -2.2m/s | 1.2°C | 64.3% | 609.7hPa | 2.6V | 00:00:00 | 03:20:50 | 00:00:00 | |
| OE5HKT-10 | 2026-09-04 13:50:46 | 47.78612 | 13.28328 | 121° | 58km/h | 4345m | -2.3m/s | 1.2°C | 64.4% | 609.4hPa | 2.7V | 00:00:00 | 00:00:00 | 00:00:00 | |
| DO3MHA-11 | 2026-09-04 13:50:44 | 47.78627 | 13.28290 | 121° | 55km/h | 4349m | -2.2m/s | 1.1°C | 64.3% | 609.0hPa | 2.7V | 00:00:00 | 03:20:46 | 00:00:00 | |
| OE5WHR-10 | 2026-09-04 13:50:43 | 47.78634 | 13.28271 | 120° | 60km/h | 4352m | -2.4m/s | 1.1°C | 64.4% | 608.9hPa | 2.7V | 00:00:00 | 00:00:00 | 00:00:00 | |
| OE5DRO-10 | 2026-09-04 13:50:42 | 47.78641 | 13.28253 | 119° | 60km/h | 4354m | -2.5m/s | 1.1°C | 64.4% | 608.7hPa | 2.6V | 00:00:00 | 00:00:00 | 00:00:00 | |
| DO3MHA-11 | 2026-09-04 13:50:39 | 47.78659 | 13.28199 | 114° | 55km/h | 4361m | -2.3m/s | 1.0°C | 64.4% | 608.2hPa | 2.7V | 07:11:00 | 03:20:41 | 00:00:00 | |
| OE5MMP-10 | 2026-09-04 13:50:38 | 47.78664 | 13.28181 | 112° | 60km/h | 4364m | -2.3m/s | 1.0°C | 64.3% | 607.9hPa | 2.7V | 00:00:00 | 03:20:40 | 00:00:00 | |
| OE3JTB-15 | 2026-09-04 13:50:37 | 47.78669 | 13.28162 | 110° | 62km/h | 4366m | -2.1m/s | 1.0°C | 64.4% | 607.9hPa | 2.7V | 00:00:00 | 00:00:00 | 00:00:00 | |
| DO3MHA-11 | 2026-09-04 13:50:34 | 47.78682 | 13.28101 | 106° | 64km/h | 4373m | -2.3m/s | 0.9°C | 64.9% | 607.2hPa | 2.7V | 00:00:00 | 03:20:36 | 00:00:00 | |
| OE5FHM-15 | 2026-09-04 13:50:32 | 47.78690 | 13.28055 | 106° | 62km/h | 4377m | -2.1m/s | 0.8°C | 65.0% | 607.0hPa | 2.7V | 00:00:00 | 03:20:34 | 00:00:00 | |
| OE5HKT-10 | 2026-09-04 13:50:29 | 47.78705 | 13.27983 | 109° | 64km/h | 4384m | -2.2m/s | 0.8°C | 65.0% | 606.4hPa | 2.7V | 07:11:00 | 00:00:00 | 00:00:00 | |
| OE5MMP-10 | 2026-09-04 13:50:28 | 47.78711 | 13.27959 | 111° | 68km/h | 4386m | -2.2m/s | 0.7°C | 65.1% | 606.3hPa | 2.7V | 00:00:00 | 03:20:30 | 00:00:00 | |
| OE5WHR-10 | 2026-09-04 13:50:26 | 47.78724 | 13.27910 | 114° | 60km/h | 4391m | -2.2m/s | 0.7°C | 64.7% | 605.9hPa | 2.7V | 07:11:00 | 00:00:00 | 00:00:00 | |
| DO3MHA-11 | 2026-09-04 13:50:24 | 47.78739 | 13.27862 | 117° | 68km/h | 4395m | -2.2m/s | 0.7°C | 64.5% | 605.7hPa | 2.7V | 00:00:00 | 03:20:26 | 00:00:00 | |
| DO3MHA-11 | 2026-09-04 13:50:19 | 47.78779 | 13.27753 | 122° | 58km/h | 4406m | -2.3m/s | 0.7°C | 64.1% | 604.8hPa | 2.7V | 00:00:00 | 03:20:21 | 00:00:00 | |
| OE5MMP-10 | 2026-09-04 13:50:18 | 47.78788 | 13.27734 | 122° | 55km/h | 4408m | -2.3m/s | 0.7°C | 63.9% | 604.6hPa | 2.7V | 00:00:00 | 03:20:20 | 00:00:00 | |
| DO3MHA-11 | 2026-09-04 13:50:14 | 47.78818 | 13.27660 | 120° | 53km/h | 4418m | -2.3m/s | 0.6°C | 62.4% | 603.9hPa | 2.7V | 00:00:00 | 03:20:16 | 00:00:00 | |
| OE5HKT-10 | 2026-09-04 13:50:12 | 47.78830 | 13.27624 | 116° | 62km/h | 4422m | -2.0m/s | 0.6°C | 62.5% | 603.5hPa | 2.7V | 00:00:00 | 03:20:14 | 00:00:00 | |
| OE5DRO-10 | 2026-09-04 13:50:10 | 47.78840 | 13.27587 | 110° | 64km/h | 4427m | -2.1m/s | 0.6°C | 62.9% | 603.2hPa | 2.7V | 00:00:00 | 00:00:00 | 00:00:00 | |
| DO3MHA-11 | 2026-09-04 13:50:09 | 47.78845 | 13.27568 | 109° | 60km/h | 4429m | -2.1m/s | 0.5°C | 62.9% | 603.1hPa | 2.7V | 00:00:00 | 03:20:11 | 00:00:00 | |
| OE5WHR-10 | 2026-09-04 13:50:08 | 47.78849 | 13.27547 | 107° | 60km/h | 4431m | -2.1m/s | 0.5°C | 63.1% | 602.9hPa | 2.7V | 00:00:00 | 03:20:10 | 00:00:00 | |
| DO3MHA-11 | 2026-09-04 13:50:04 | 47.78867 | 13.27458 | 107° | 68km/h | 4440m | -2.3m/s | 0.4°C | 63.1% | 602.2hPa | 2.7V | 00:00:00 | 03:20:06 | 00:00:00 | |
| OE5FHM-15 | 2026-09-04 13:50:02 | 47.78877 | 13.27410 | 109° | 62km/h | 4444m | -2.1m/s | 0.4°C | 63.4% | 601.9hPa | 2.6V | 00:00:00 | 03:20:04 | 00:00:00 | |
| DO3MHA-11 | 2026-09-04 13:49:59 | 47.78897 | 13.27339 | 115° | 68km/h | 4450m | -2.2m/s | 0.4°C | 63.2% | 601.5hPa | 2.7V | 07:11:00 | 03:20:01 | 00:00:00 | |
| OE5MMP-10 | 2026-09-04 13:49:58 | 47.78904 | 13.27316 | 117° | 64km/h | 4453m | -2.4m/s | 0.4°C | 63.1% | 601.4hPa | 2.7V | 07:11:00 | 03:20:00 | 00:00:00 | |
| OE5HKT-10 | 2026-09-04 13:49:55 | 47.78929 | 13.27249 | 121° | 58km/h | 4460m | -2.4m/s | 0.4°C | 63.1% | 600.8hPa | 2.7V | 00:00:00 | 00:00:00 | 00:00:00 | |
| DO3MHA-11 | 2026-09-04 13:49:54 | 47.78937 | 13.27228 | 122° | 60km/h | 4462m | -2.3m/s | 0.4°C | 63.1% | 600.6hPa | 2.7V | 00:00:00 | 03:19:56 | 00:00:00 | |
| DO3MHA-11 | 2026-09-04 13:49:49 | 47.78978 | 13.27133 | 122° | 53km/h | 4474m | -2.2m/s | 0.3°C | 63.7% | 599.7hPa | 2.7V | 00:00:00 | 03:19:51 | 00:00:00 | |
| OE5MMP-10 | 2026-09-04 13:49:48 | 47.78985 | 13.27115 | 121° | 57km/h | 4476m | -2.4m/s | 0.3°C | 63.9% | 599.6hPa | 2.7V | 00:00:00 | 03:19:50 | 00:00:00 | |
| DO3MHA-11 | 2026-09-04 13:49:44 | 47.79007 | 13.27044 | 110° | 58km/h | 4485m | -2.1m/s | 0.2°C | 64.5% | 599.0hPa | 2.7V | 00:00:00 | 03:19:46 | 00:00:00 | |
| OE3JTB-15 | 2026-09-04 13:49:39 | 47.79030 | 13.26937 | 110° | 60km/h | 4495m | -1.9m/s | 0.0°C | 65.2% | 598.1hPa | 2.7V | 00:00:00 | 00:00:00 | 00:00:00 | |
| OE5MMP-10 | 2026-09-04 13:49:38 | 47.79036 | 13.26914 | 111° | 68km/h | 4498m | -2.1m/s | 0.0°C | 65.3% | 597.9hPa | 2.7V | 00:00:00 | 03:19:40 | 00:00:00 | |
| OE5DRO-10 | 2026-09-04 13:49:35 | 47.79063 | 13.26820 | 115° | 58km/h | 4507m | -2.2m/s | 0.0°C | 64.9% | 597.4hPa | 2.7V | 00:00:00 | 00:00:00 | 00:00:00 | |
| DO3MHA-11 | 2026-09-04 13:49:34 | 47.79063 | 13.26820 | 115° | 68km/h | 4507m | -2.2m/s | 0.0°C | 64.9% | 597.4hPa | 2.7V | 00:00:00 | 03:19:36 | 00:00:00 | |
| OE5FHM-15 | 2026-09-04 13:49:32 | 47.79078 | 13.26773 | 117° | 60km/h | 4511m | -2.0m/s | -0.0°C | 64.8% | 597.0hPa | 2.6V | 00:00:00 | 03:19:34 | 00:00:00 | |
| DO3MHA-11 | 2026-09-04 13:49:29 | 47.79102 | 13.26709 | 122° | 58km/h | 4517m | -2.0m/s | -0.0°C | 64.1% | 596.5hPa | 2.6V | 00:00:00 | 03:19:31 | 00:00:00 | |
| OE5MMP-10 | 2026-09-04 13:49:28 | 47.79111 | 13.26689 | 123° | 55km/h | 4520m | -2.0m/s | -0.0°C | 64.0% | 596.4hPa | 2.6V | 00:00:00 | 03:19:30 | 00:00:00 | |
| DO3MHA-11 | 2026-09-04 13:49:24 | 47.79140 | 13.26617 | 119° | 51km/h | 4528m | -2.0m/s | -0.1°C | 64.2% | 595.7hPa | 2.6V | 00:00:00 | 03:19:26 | 00:00:00 | |
| OE5WHR-10 | 2026-09-04 13:49:23 | 47.79147 | 13.26600 | 117° | 58km/h | 4530m | -2.1m/s | -0.1°C | 64.3% | 595.6hPa | 2.6V | 00:00:00 | 00:00:00 | 00:00:00 | |
| DO3MHA-11 | 2026-09-04 13:49:19 | 47.79168 | 13.26529 | 113° | 55km/h | 4539m | -2.1m/s | -0.2°C | 64.6% | 595.0hPa | 2.7V | 07:12:00 | 03:19:21 | 00:00:00 | |
| OE5MMP-10 | 2026-09-04 13:49:18 | 47.79173 | 13.26511 | 112° | 60km/h | 4541m | -2.2m/s | -0.2°C | 64.7% | 594.6hPa | 2.7V | 00:00:00 | 03:19:20 | 00:00:00 | |
| DO3MHA-11 | 2026-09-04 13:49:14 | 47.79191 | 13.26432 | 108° | 64km/h | 4549m | -2.3m/s | -0.4°C | 65.3% | 594.0hPa | 2.7V | 00:00:00 | 03:19:16 | 00:00:00 | |
| DG1MFX-10 | 2026-09-04 13:49:12 | 47.79195 | 13.26410 | 109° | 62km/h | 4552m | -2.3m/s | -0.4°C | 65.1% | 594.0hPa | 2.7V | 07:12:00 | 00:00:00 | 00:00:00 | |
| OE3JTB-15 | 2026-09-04 13:49:10 | 47.79211 | 13.26341 | 110° | 62km/h | 4559m | -2.2m/s | -0.4°C | 65.7% | 593.4hPa | 2.7V | 07:12:00 | 00:00:00 | 00:00:00 | |
| DO3MHA-11 | 2026-09-04 13:49:09 | 47.79217 | 13.26317 | 111° | 69km/h | 4561m | -2.2m/s | -0.5°C | 65.7% | 593.2hPa | 2.7V | 00:00:00 | 03:19:11 | 00:00:00 | |
| OE5MMP-10 | 2026-09-04 13:49:08 | 47.79223 | 13.26293 | 112° | 68km/h | 4563m | -2.4m/s | -0.4°C | 65.5% | 593.1hPa | 2.7V | 00:00:00 | 03:19:10 | 00:00:00 | |
| OE5WHR-10 | 2026-09-04 13:49:06 | 47.79236 | 13.26245 | 114° | 62km/h | 4568m | -2.3m/s | -0.5°C | 65.5% | 592.7hPa | 2.7V | 00:00:00 | 00:00:00 | 00:00:00 | |
| DO3MHA-11 | 2026-09-04 13:49:04 | 47.79251 | 13.26198 | 116° | 68km/h | 4573m | -2.3m/s | -0.5°C | 65.5% | 592.4hPa | 2.7V | 00:00:00 | 03:19:06 | 00:00:00 | |
| OE5FHM-15 | 2026-09-04 13:49:02 | 47.79267 | 13.26152 | 119° | 62km/h | 4577m | -2.2m/s | -0.5°C | 65.5% | 592.0hPa | 2.6V | 00:00:00 | 03:19:04 | 00:00:00 | |
| OE5MMP-10 | 2026-09-04 13:48:58 | 47.79301 | 13.26068 | 123° | 57km/h | 4586m | -2.0m/s | -0.6°C | 65.4% | 591.4hPa | 2.6V | 00:00:00 | 03:19:00 | 00:00:00 | |
| OE5DXL-15 | 2026-09-04 13:48:54 | 47.79331 | 13.25995 | 121° | 60km/h | 4594m | -2.1m/s | -0.6°C | 64.7% | 590.8hPa | 2.6V | 00:00:00 | 00:00:00 | 00:00:00 | |
| OE5WHR-10 | 2026-09-04 13:48:49 | 47.79361 | 13.25902 | 110° | 64km/h | 4605m | -2.1m/s | -0.7°C | 64.7% | 590.0hPa | 2.6V | 00:00:00 | 03:18:51 | 00:00:00 | |
| OE5MMP-10 | 2026-09-04 13:48:48 | 47.79365 | 13.25882 | 109° | 64km/h | 4607m | -2.1m/s | -0.7°C | 64.8% | 589.8hPa | 2.6V | 00:00:00 | 03:18:50 | 00:00:00 | |
| DG1MFX-10 | 2026-09-04 13:48:46 | 47.79370 | 13.25862 | 108° | 58km/h | 4609m | -2.3m/s | -0.8°C | 64.6% | 589.8hPa | 2.7V | 07:13:00 | 00:00:00 | 00:00:00 | |
| OE5HKT-10 | 2026-09-04 13:48:42 | 47.79392 | 13.25751 | 109° | 66km/h | 4621m | -2.3m/s | -0.9°C | 63.3% | 588.8hPa | 2.7V | 00:00:00 | 00:00:00 | 00:00:00 | |
| OE3JTB-15 | 2026-09-04 13:48:41 | 47.79398 | 13.25727 | 110° | 64km/h | 4623m | -2.2m/s | -0.9°C | 62.8% | 588.6hPa | 2.7V | 00:00:00 | 03:18:43 | 00:00:00 | |
| DO3MHA-11 | 2026-09-04 13:48:40 | 47.79404 | 13.25702 | 111° | 71km/h | 4625m | -2.2m/s | -0.9°C | 62.7% | 588.5hPa | 2.7V | 00:00:00 | 03:18:42 | 00:00:00 | |
| OE5MMP-10 | 2026-09-04 13:48:38 | 47.79418 | 13.25653 | 116° | 64km/h | 4630m | -2.2m/s | -0.8°C | 62.1% | 588.1hPa | 2.7V | 07:13:00 | 03:18:40 | 00:00:00 | |
| DO3MHA-11 | 2026-09-04 13:48:35 | 47.79443 | 13.25584 | 122° | 62km/h | 4637m | -2.3m/s | -0.8°C | 62.0% | 587.6hPa | 2.7V | 00:00:00 | 03:18:37 | 00:00:00 | |
| PG1ADW-2 | 2026-09-04 13:48:34 | 47.79452 | 13.25563 | 123° | 60km/h | 4639m | -2.2m/s | -0.8°C | 61.9% | 587.5hPa | 2.7V | 00:00:00 | 03:18:36 | 00:00:00 | |
| OE5FHM-15 | 2026-09-04 13:48:32 | 47.79469 | 13.25524 | 123° | 62km/h | 4643m | -2.0m/s | -0.9°C | 61.9% | 587.2hPa | 2.7V | 00:00:00 | 03:18:34 | 00:00:00 | |
| DO3MHA-11 | 2026-09-04 13:48:30 | 47.79484 | 13.25487 | 121° | 55km/h | 4647m | -2.2m/s | -0.9°C | 62.1% | 586.9hPa | 2.6V | 07:13:00 | 03:18:32 | 00:00:00 | |
| OE5MMP-10 | 2026-09-04 13:48:28 | 47.79497 | 13.25451 | 117° | 58km/h | 4652m | -2.2m/s | -0.9°C | 62.0% | 586.5hPa | 2.6V | 00:00:00 | 03:18:30 | 00:00:00 | |
| DO3MHA-11 | 2026-09-04 13:48:25 | 47.79513 | 13.25395 | 110° | 58km/h | 4658m | -2.1m/s | -1.0°C | 61.8% | 586.0hPa | 2.6V | 00:00:00 | 03:18:27 | 00:00:00 | |
| OE5DXL-15 | 2026-09-04 13:48:24 | 47.79518 | 13.25375 | 109° | 60km/h | 4660m | -2.1m/s | -1.0°C | 61.9% | 585.8hPa | 2.6V | 00:00:00 | 00:00:00 | 00:00:00 | |
| OE5MMP-10 | 2026-09-04 13:48:18 | 47.79546 | 13.25242 | 109° | 68km/h | 4674m | -2.0m/s | -1.2°C | 62.5% | 584.9hPa | 2.7V | 00:00:00 | 03:18:20 | 00:00:00 | |
| OE5WHR-10 | 2026-09-04 13:48:15 | 47.79565 | 13.25171 | 115° | 62km/h | 4680m | -2.1m/s | -1.2°C | 63.1% | 584.4hPa | 2.7V | 00:00:00 | 00:00:00 | 00:00:00 | |
| PG1ADW-2 | 2026-09-04 13:48:14 | 47.79573 | 13.25147 | 117° | 58km/h | 4682m | -2.0m/s | -1.2°C | 63.2% | 584.3hPa | 2.7V | 00:00:00 | 00:00:00 | 00:00:00 | |
| OE3JTB-15 | 2026-09-04 13:48:12 | 47.79589 | 13.25102 | 121° | 60km/h | 4687m | -2.3m/s | -1.2°C | 62.7% | 584.0hPa | 2.7V | 00:00:00 | 00:00:00 | 00:00:00 | |
| DO3MHA-11 | 2026-09-04 13:48:10 | 47.79606 | 13.25059 | 122° | 64km/h | 4691m | -2.3m/s | -1.2°C | 62.7% | 583.6hPa | 2.7V | 00:00:00 | 03:18:12 | 00:00:00 | |
| OE5MMP-10 | 2026-09-04 13:48:08 | 47.79624 | 13.25018 | 123° | 57km/h | 4696m | -2.4m/s | -1.2°C | 62.5% | 583.2hPa | 2.7V | 00:00:00 | 03:18:10 | 00:00:00 | |
| DO3MHA-11 | 2026-09-04 13:48:05 | 47.79649 | 13.24960 | 124° | 57km/h | 4703m | -2.4m/s | -1.3°C | 62.3% | 582.9hPa | 2.7V | 00:00:00 | 03:18:07 | 00:00:00 | |
| DG1MFX-10 | 2026-09-04 13:48:04 | 47.79649 | 13.24960 | 124° | 58km/h | 4703m | -2.5m/s | -1.3°C | 61.9% | 582.9hPa | 2.7V | 07:13:00 | 00:00:00 | 00:00:00 | |
| OE5FHM-15 | 2026-09-04 13:48:02 | 47.79673 | 13.24906 | 122° | 60km/h | 4710m | -2.2m/s | -1.3°C | 62.0% | 582.3hPa | 2.7V | 00:00:00 | 03:18:04 | 00:00:00 | |
| DO3MHA-11 | 2026-09-04 13:48:00 | 47.79686 | 13.24871 | 119° | 53km/h | 4714m | -2.3m/s | -1.3°C | 61.7% | 582.0hPa | 2.7V | 00:00:00 | 03:18:02 | 00:00:00 | |
| OE5HKT-10 | 2026-09-04 13:47:58 | 47.79698 | 13.24836 | 116° | 64km/h | 4719m | -2.3m/s | -1.3°C | 61.0% | 581.6hPa | 2.7V | 00:00:00 | 03:18:00 | 00:00:00 | |
| DO3MHA-11 | 2026-09-04 13:47:55 | 47.79714 | 13.24781 | 110° | 57km/h | 4726m | -2.1m/s | -1.4°C | 60.3% | 581.1hPa | 2.7V | 00:00:00 | 03:17:57 | 00:00:00 | |
| OE5DXL-15 | 2026-09-04 13:47:54 | 47.79718 | 13.24762 | 109° | 60km/h | 4728m | -2.3m/s | -1.5°C | 60.4% | 580.9hPa | 2.6V | 00:00:00 | 00:00:00 | 00:00:00 | |
| DO3MHA-11 | 2026-09-04 13:47:50 | 47.79736 | 13.24678 | 108° | 66km/h | 4737m | -2.3m/s | -1.6°C | 60.0% | 580.2hPa | 2.6V | 07:13:00 | 03:17:52 | 00:00:00 | |
| OE5MMP-10 | 2026-09-04 13:47:48 | 47.79747 | 13.24632 | 110° | 68km/h | 4742m | -2.2m/s | -1.6°C | 59.5% | 580.0hPa | 2.6V | 00:00:00 | 03:17:50 | 00:00:00 | |
| DO3MHA-11 | 2026-09-04 13:47:45 | 47.79766 | 13.24561 | 114° | 69km/h | 4748m | -2.3m/s | -1.6°C | 61.1% | 579.4hPa | 2.7V | 00:00:00 | 03:17:47 | 00:00:00 | |
| DG1MFX-10 | 2026-09-04 13:47:44 | 47.79766 | 13.24561 | 115° | 69km/h | 4748m | -2.3m/s | -1.7°C | 60.7% | 579.4hPa | 2.7V | 07:14:00 | 00:00:00 | 00:00:00 | |
| OE3JTB-15 | 2026-09-04 13:47:43 | 47.79780 | 13.24514 | 117° | 60km/h | 4753m | -2.3m/s | -1.7°C | 61.9% | 579.1hPa | 2.7V | 00:00:00 | 00:00:00 | 00:00:00 | |
| OE5DRO-10 | 2026-09-04 13:47:42 | 47.79788 | 13.24491 | 118° | 60km/h | 4755m | -2.2m/s | -1.7°C | 61.8% | 578.9hPa | 2.7V | 00:00:00 | 00:00:00 | 00:00:00 | |
| OE5HKT-10 | 2026-09-04 13:47:41 | 47.79796 | 13.24468 | 119° | 57km/h | 4758m | -2.2m/s | -1.7°C | 61.8% | 578.7hPa | 2.7V | 07:14:00 | 00:00:00 | 00:00:00 | |
| DO3MHA-11 | 2026-09-04 13:47:40 | 47.79805 | 13.24446 | 120° | 64km/h | 4760m | -2.2m/s | -1.7°C | 61.8% | 578.6hPa | 2.6V | 00:00:00 | 03:17:42 | 00:00:00 | |
| OE5MMP-10 | 2026-09-04 13:47:38 | 47.79822 | 13.24403 | 123° | 58km/h | 4765m | -2.2m/s | -1.7°C | 61.9% | 578.2hPa | 2.7V | 00:00:00 | 03:17:40 | 00:00:00 | |
| DO3MHA-11 | 2026-09-04 13:47:35 | 47.79848 | 13.24344 | 124° | 57km/h | 4771m | -2.4m/s | -1.8°C | 62.3% | 577.7hPa | 2.7V | 00:00:00 | 03:17:37 | 00:00:00 | |
| PG1ADW-2 | 2026-09-04 13:47:34 | 47.79856 | 13.24326 | 125° | 58km/h | 4774m | -2.3m/s | -1.8°C | 62.3% | 577.6hPa | 2.7V | 00:00:00 | 00:00:00 | 00:00:00 | |
| OE5FHM-15 | 2026-09-04 13:47:32 | 47.79872 | 13.24290 | 123° | 60km/h | 4778m | -2.3m/s | -1.8°C | 62.4% | 577.2hPa | 2.7V | 00:00:00 | 03:17:34 | 00:00:00 | |
| DO3MHA-11 | 2026-09-04 13:47:30 | 47.79886 | 13.24256 | 120° | 53km/h | 4783m | -2.4m/s | -1.9°C | 62.7% | 576.9hPa | 2.7V | 00:00:00 | 03:17:32 | 00:00:00 | |
| OE5MMP-10 | 2026-09-04 13:47:28 | 47.79899 | 13.24221 | 117° | 57km/h | 4788m | -2.4m/s | -1.9°C | 63.3% | 576.6hPa | 2.7V | 00:00:00 | 03:17:30 | 00:00:00 | |
| OE5DRO-10 | 2026-09-04 13:47:26 | 47.79910 | 13.24185 | 112° | 64km/h | 4793m | -2.3m/s | -2.0°C | 63.6% | 576.3hPa | 2.7V | 00:00:00 | 00:00:00 | 00:00:00 | |
| DO3MHA-11 | 2026-09-04 13:47:25 | 47.79914 | 13.24166 | 111° | 58km/h | 4795m | -2.3m/s | -2.0°C | 63.7% | 576.1hPa | 2.7V | 00:00:00 | 03:17:27 | 00:00:00 | |
| OE5DXL-15 | 2026-09-04 13:47:24 | 47.79919 | 13.24147 | 109° | 62km/h | 4797m | -2.1m/s | -2.1°C | 63.8% | 576.0hPa | 2.7V | 00:00:00 | 00:00:00 | 00:00:00 | |
| OE5HKT-10 | 2026-09-04 13:47:22 | 47.79928 | 13.24106 | 108° | 66km/h | 4802m | -2.4m/s | -2.2°C | 64.1% | 575.6hPa | 2.7V | 00:00:00 | 00:00:00 | 00:00:00 | |
| DO3MHA-11 | 2026-09-04 13:47:20 | 47.79937 | 13.24062 | 109° | 66km/h | 4807m | -2.3m/s | -2.2°C | 64.4% | 575.2hPa | 2.7V | 00:00:00 | 03:17:22 | 00:00:00 | |
| OE5MMP-10 | 2026-09-04 13:47:18 | 47.79948 | 13.24016 | 110° | 68km/h | 4812m | -2.4m/s | -2.2°C | 64.8% | 575.0hPa | 2.7V | 07:14:00 | 03:17:20 | 00:00:00 | |
| DO3MHA-11 | 2026-09-04 13:47:15 | 47.79967 | 13.23944 | 114° | 69km/h | 4819m | -2.3m/s | -2.2°C | 65.1% | 574.5hPa | 2.7V | 00:00:00 | 03:17:17 | 00:00:00 | |
| PG1ADW-2 | 2026-09-04 13:47:14 | 47.79974 | 13.23920 | 116° | 62km/h | 4821m | -2.3m/s | -2.2°C | 65.0% | 574.2hPa | 2.7V | 00:00:00 | 03:17:16 | 00:00:00 | |
| DO3MHA-11 | 2026-09-04 13:47:10 | 47.80008 | 13.23829 | 122° | 64km/h | 4830m | -2.3m/s | -2.3°C | 64.0% | 573.6hPa | 2.7V | 07:14:00 | 03:17:12 | 00:00:00 | |
| OE5MMP-10 | 2026-09-04 13:47:08 | 47.80026 | 13.23788 | 124° | 58km/h | 4835m | -2.2m/s | -2.3°C | 64.0% | 573.2hPa | 2.7V | 00:00:00 | 03:17:10 | 00:00:00 | |
| OE5WHR-10 | 2026-09-04 13:47:07 | 47.80035 | 13.23768 | 125° | 60km/h | 4837m | -2.2m/s | -2.3°C | 64.0% | 573.1hPa | 2.7V | 00:00:00 | 03:17:09 | 00:00:00 | |
| OE5HKT-10 | 2026-09-04 13:47:05 | 47.80052 | 13.23730 | 125° | 62km/h | 4842m | -2.3m/s | -2.4°C | 63.4% | 572.8hPa | 2.7V | 00:00:00 | 03:17:07 | 00:00:00 | |
| DG1MFX-10 | 2026-09-04 13:47:03 | 47.80061 | 13.23712 | 126° | 58km/h | 4844m | -2.2m/s | -2.4°C | 63.1% | 572.6hPa | 2.7V | 07:15:00 | 00:00:00 | 00:00:00 | |
| OE5FHM-15 | 2026-09-04 13:47:02 | 47.80077 | 13.23676 | 125° | 62km/h | 4849m | -2.5m/s | -2.4°C | 63.6% | 572.2hPa | 2.7V | 07:14:00 | 03:17:04 | 00:00:00 | |
| OE5MMP-10 | 2026-09-04 13:46:58 | 47.80106 | 13.23605 | 114° | 66km/h | 4858m | -2.3m/s | -2.6°C | 63.9% | 571.6hPa | 2.7V | 00:00:00 | 03:17:00 | 00:00:00 | |
| PG1ADW-2 | 2026-09-04 13:46:54 | 47.80127 | 13.23519 | 111° | 68km/h | 4867m | -2.3m/s | -2.7°C | 65.3% | 570.9hPa | 2.7V | 00:00:00 | 00:00:00 | 00:00:00 | |
| OE5WHR-10 | 2026-09-04 13:46:50 | 47.80155 | 13.23425 | 117° | 64km/h | 4877m | -2.3m/s | -2.7°C | 65.7% | 570.2hPa | 2.6V | 00:00:00 | 00:00:00 | 00:00:00 | |
| OE5HKT-10 | 2026-09-04 13:46:48 | 47.80171 | 13.23378 | 119° | 62km/h | 4882m | -2.4m/s | -2.7°C | 67.0% | 569.9hPa | 2.7V | 00:00:00 | 00:00:00 | 00:00:00 | |
| OE3JTB-15 | 2026-09-04 13:46:45 | 47.80198 | 13.23310 | 122° | 62km/h | 4889m | -2.3m/s | -2.8°C | 66.7% | 569.4hPa | 2.7V | 00:00:00 | 00:00:00 | 00:00:00 | |
| DG1MFX-10 | 2026-09-04 13:46:42 | 47.80217 | 13.23268 | 125° | 68km/h | 4894m | -2.4m/s | -2.9°C | 65.5% | 569.1hPa | 2.7V | 07:15:00 | 00:00:00 | 00:00:00 | |
| OE5MMP-10 | 2026-09-04 13:46:38 | 47.80264 | 13.23169 | 127° | 57km/h | 4906m | -2.3m/s | -2.9°C | 64.1% | 568.2hPa | 2.7V | 00:00:00 | 03:16:40 | 00:00:00 | |
| PG1ADW-2 | 2026-09-04 13:46:34 | 47.80299 | 13.23099 | 126° | 62km/h | 4916m | -2.3m/s | -3.0°C | 63.1% | 567.4hPa | 2.7V | 07:15:00 | 00:00:00 | 00:00:00 | |
| OE5WHR-10 | 2026-09-04 13:46:33 | 47.80306 | 13.23082 | 124° | 62km/h | 4918m | -2.5m/s | -3.0°C | 63.3% | 567.3hPa | 2.7V | 00:00:00 | 00:00:00 | 00:00:00 | |
| OE5FHM-15 | 2026-09-04 13:46:32 | 47.80314 | 13.23065 | 123° | 62km/h | 4921m | -2.4m/s | -3.0°C | 63.0% | 567.0hPa | 2.7V | 00:00:00 | 03:16:34 | 00:00:00 | |
| OE5HKT-10 | 2026-09-04 13:46:31 | 47.80321 | 13.23048 | 122° | 64km/h | 4923m | -2.4m/s | -3.0°C | 63.1% | 566.9hPa | 2.7V | 00:00:00 | 00:00:00 | 00:00:00 | |
| OE5MMP-10 | 2026-09-04 13:46:28 | 47.80341 | 13.22996 | 117° | 66km/h | 4930m | -2.4m/s | -3.1°C | 63.2% | 566.4hPa | 2.7V | 00:00:00 | 03:16:30 | 00:00:00 | |
| OE5DXL-15 | 2026-09-04 13:46:24 | 47.80365 | 13.22913 | 115° | 62km/h | 4939m | -2.2m/s | -3.3°C | 63.8% | 565.7hPa | 2.7V | 07:15:00 | 00:00:00 | 00:00:00 | |
| OE5DRO-10 | 2026-09-04 13:46:22 | 47.80380 | 13.22867 | 118° | 66km/h | 4944m | -2.4m/s | -3.3°C | 63.7% | 565.4hPa | 2.7V | 00:00:00 | 00:00:00 | 00:00:00 | |
| DO3MHA-11 | 2026-09-04 13:46:21 | 47.80388 | 13.22844 | 119° | 69km/h | 4947m | -2.4m/s | -3.3°C | 63.5% | 565.1hPa | 2.7V | 00:00:00 | 03:16:23 | 00:00:00 | |
| OE5MMP-10 | 2026-09-04 13:46:18 | 47.80415 | 13.22775 | 123° | 66km/h | 4954m | -2.6m/s | -3.3°C | 63.7% | 564.6hPa | 2.7V | 00:00:00 | 03:16:20 | 00:00:00 | |
| OE3JTB-15 | 2026-09-04 13:46:16 | 47.80435 | 13.22732 | 125° | 62km/h | 4959m | -2.3m/s | -3.3°C | 63.6% | 564.3hPa | 2.7V | 00:00:00 | 00:00:00 | 00:00:00 | |
| OE5HKT-10 | 2026-09-04 13:46:14 | 47.80455 | 13.22691 | 128° | 57km/h | 4964m | -2.7m/s | -3.4°C | 63.3% | 563.9hPa | 2.7V | 00:00:00 | 03:16:16 | 00:00:00 | |
| DO3MHA-11 | 2026-09-04 13:46:09 | 47.80504 | 13.22597 | 129° | 57km/h | 4977m | -2.3m/s | -3.5°C | 63.6% | 563.1hPa | 2.7V | 00:00:00 | 03:16:11 | 00:00:00 | |
| OE5MMP-10 | 2026-09-04 13:46:08 | 47.80514 | 13.22580 | 129° | 53km/h | 4979m | -2.4m/s | -3.5°C | 63.7% | 562.9hPa | 2.7V | 00:00:00 | 03:16:10 | 00:00:00 | |
| PG1ADW-2 | 2026-09-04 13:46:07 | 47.80522 | 13.22563 | 128° | 60km/h | 4982m | -2.6m/s | -3.5°C | 63.7% | 562.7hPa | 2.7V | 00:00:00 | 00:00:00 | 00:00:00 | |
| OE5DRO-10 | 2026-09-04 13:46:06 | 47.80531 | 13.22547 | 127° | 60km/h | 4984m | -2.5m/s | -3.5°C | 63.7% | 562.5hPa | 2.7V | 00:00:00 | 00:00:00 | 00:00:00 | |
| DO3MHA-11 | 2026-09-04 13:46:04 | 47.80547 | 13.22514 | 125° | 53km/h | 4990m | -2.4m/s | -3.6°C | 63.7% | 562.1hPa | 2.7V | 00:00:00 | 03:16:06 | 00:00:00 | |
| OE5FHM-15 | 2026-09-04 13:46:02 | 47.80561 | 13.22481 | 123° | 60km/h | 4994m | -2.5m/s | -3.6°C | 63.1% | 561.7hPa | 2.7V | 00:00:00 | 03:16:04 | 00:00:00 | |
| DG1MFX-10 | 2026-09-04 13:46:01 | 47.80561 | 13.22481 | 123° | 51km/h | 4994m | -2.6m/s | -3.6°C | 62.6% | 561.7hPa | 2.7V | 07:16:00 | 00:00:00 | 00:00:00 | |
| DO3MHA-11 | 2026-09-04 13:45:59 | 47.80581 | 13.22430 | 118° | 66km/h | 5002m | -2.7m/s | -3.7°C | 63.8% | 561.2hPa | 2.7V | 00:00:00 | 03:16:01 | 00:00:00 | |
| OE5MMP-10 | 2026-09-04 13:45:58 | 47.80587 | 13.22411 | 117° | 68km/h | 5005m | -2.3m/s | -3.8°C | 63.9% | 561.0hPa | 2.7V | 07:15:00 | 03:16:00 | 00:00:00 | |
| OE5HKT-10 | 2026-09-04 13:45:57 | 47.80594 | 13.22391 | 116° | 66km/h | 5007m | -2.3m/s | -3.8°C | 64.1% | 560.9hPa | 2.7V | 00:00:00 | 00:00:00 | 00:00:00 | |
| OE5DXL-15 | 2026-09-04 13:45:54 | 47.80617 | 13.22324 | 120° | 64km/h | 5014m | -2.5m/s | -3.8°C | 63.8% | 560.3hPa | 2.7V | 00:00:00 | 00:00:00 | 00:00:00 | |
| OE5DRO-10 | 2026-09-04 13:45:51 | 47.80663 | 13.22212 | 125° | 68km/h | 5027m | -2.4m/s | -3.9°C | 65.1% | 559.5hPa | 2.7V | 00:00:00 | 00:00:00 | 00:00:00 | |
| DO3MHA-11 | 2026-09-04 13:45:49 | 47.80663 | 13.22212 | 125° | 62km/h | 5027m | -2.4m/s | -3.9°C | 65.1% | 559.5hPa | 2.6V | 00:00:00 | 03:15:51 | 00:00:00 | |
| OE5MMP-10 | 2026-09-04 13:45:48 | 47.80673 | 13.22191 | 127° | 60km/h | 5030m | -2.5m/s | -3.9°C | 65.3% | 559.3hPa | 2.6V | 00:00:00 | 03:15:50 | 00:00:00 | |
| OE3JTB-15 | 2026-09-04 13:45:47 | 47.80684 | 13.22171 | 129° | 62km/h | 5032m | -2.8m/s | -3.9°C | 65.6% | 559.1hPa | 2.6V | 00:00:00 | 03:15:49 | 00:00:00 | |
| OE5WHR-10 | 2026-09-04 13:45:42 | 47.80735 | 13.22081 | 131° | 60km/h | 5046m | -2.3m/s | -4.0°C | 66.6% | 558.1hPa | 2.6V | 00:00:00 | 00:00:00 | 00:00:00 | |
| OE5HKT-10 | 2026-09-04 13:45:40 | 47.80752 | 13.22049 | 127° | 62km/h | 5051m | -2.5m/s | -4.1°C | 66.8% | 557.8hPa | 2.6V | 00:00:00 | 00:00:00 | 00:00:00 | |
| DO3MHA-11 | 2026-09-04 13:45:39 | 47.80760 | 13.22033 | 124° | 60km/h | 5053m | -2.5m/s | -4.1°C | 66.8% | 557.6hPa | 2.6V | 07:16:00 | 03:15:41 | 00:00:00 | |
| OE5MMP-10 | 2026-09-04 13:45:38 | 47.80767 | 13.22016 | 122° | 60km/h | 5056m | -2.6m/s | -4.1°C | 67.0% | 557.4hPa | 2.6V | 00:00:00 | 03:15:40 | 00:00:00 | |
| OE5FHM-15 | 2026-09-04 13:45:32 | 47.80806 | 13.21900 | 117° | 66km/h | 5072m | -2.6m/s | -4.4°C | 68.3% | 556.0hPa | 2.6V | 00:00:00 | 03:15:34 | 00:00:00 | |
| DO3MHA-11 | 2026-09-04 13:45:29 | 47.80830 | 13.21833 | 121° | 69km/h | 5080m | -2.5m/s | -4.4°C | 68.7% | 555.7hPa | 2.7V | 00:00:00 | 03:15:31 | 00:00:00 | |
| OE5MMP-10 | 2026-09-04 13:45:28 | 47.80840 | 13.21810 | 122° | 69km/h | 5083m | -2.6m/s | -4.4°C | 69.5% | 555.6hPa | 2.6V | 00:00:00 | 03:15:30 | 00:00:00 | |
| PG1ADW-2 | 2026-09-04 13:45:27 | 47.80849 | 13.21788 | 123° | 64km/h | 5086m | -2.7m/s | -4.4°C | 69.7% | 555.4hPa | 2.6V | 00:00:00 | 00:00:00 | 00:00:00 | |
| OE5WHR-10 | 2026-09-04 13:45:25 | 47.80869 | 13.21744 | 125° | 64km/h | 5091m | -2.6m/s | -4.4°C | 70.6% | 555.0hPa | 2.6V | 07:16:00 | 03:15:27 | 00:00:00 | |
| OE5DXL-15 | 2026-09-04 13:45:24 | 47.80879 | 13.21723 | 127° | 66km/h | 5094m | -2.6m/s | -4.5°C | 71.2% | 554.8hPa | 2.6V | 00:00:00 | 00:00:00 | 00:00:00 | |
| OE5HKT-10 | 2026-09-04 13:45:23 | 47.80890 | 13.21702 | 129° | 64km/h | 5097m | -2.8m/s | -4.5°C | 71.4% | 554.6hPa | 2.7V | 07:16:00 | 03:15:25 | 00:00:00 | |
| DO3MHA-11 | 2026-09-04 13:45:19 | 47.80934 | 13.21626 | 133° | 60km/h | 5108m | -2.8m/s | -4.6°C | 71.4% | 553.8hPa | 2.7V | 00:00:00 | 03:15:21 | 00:00:00 | |
| OE3JTB-15 | 2026-09-04 13:45:18 | 47.80945 | 13.21608 | 133° | 64km/h | 5111m | -2.7m/s | -4.6°C | 71.2% | 553.6hPa | 2.7V | 07:16:00 | 00:00:00 | 00:00:00 | |
| OE5MMP-10 | 2026-09-04 13:45:08 | 47.81026 | 13.21416 | 118° | 69km/h | 5136m | -2.6m/s | -4.9°C | 70.2% | 551.8hPa | 2.7V | 00:00:00 | 03:15:10 | 00:00:00 | |
| PG1ADW-2 | 2026-09-04 13:45:07 | 47.81034 | 13.21394 | 120° | 62km/h | 5139m | -2.6m/s | -5.0°C | 70.4% | 551.6hPa | 2.7V | 00:00:00 | 00:00:00 | 00:00:00 | |
| OE5HKT-10 | 2026-09-04 13:45:06 | 47.81042 | 13.21372 | 122° | 64km/h | 5141m | -2.6m/s | -4.9°C | 69.9% | 551.4hPa | 2.7V | 00:00:00 | 00:00:00 | 00:00:00 | |
| OE5FHM-15 | 2026-09-04 13:45:02 | 47.81083 | 13.21284 | 127° | 64km/h | 5152m | -2.8m/s | -4.9°C | 68.8% | 550.6hPa | 2.7V | 00:00:00 | 03:15:04 | 00:00:00 | |
| DG1MFX-10 | 2026-09-04 13:44:59 | 47.81105 | 13.21242 | 129° | 71km/h | 5158m | -2.7m/s | -5.0°C | 67.7% | 550.3hPa | 2.7V | 07:17:00 | 00:00:00 | 00:00:00 | |
| OE5MMP-10 | 2026-09-04 13:44:58 | 47.81127 | 13.21201 | 130° | 58km/h | 5163m | -2.8m/s | -5.0°C | 68.0% | 549.9hPa | 2.7V | 00:00:00 | 03:15:00 | 00:00:00 | |
| OE5DXL-15 | 2026-09-04 13:44:54 | 47.81168 | 13.21131 | 132° | 62km/h | 5173m | -2.7m/s | -5.1°C | 68.5% | 549.1hPa | 2.7V | 00:00:00 | 00:00:00 | 00:00:00 | |
| OE5WHR-10 | 2026-09-04 13:44:51 | 47.81196 | 13.21083 | 131° | 62km/h | 5182m | -2.6m/s | -5.1°C | 69.0% | 548.5hPa | 2.7V | 00:00:00 | 00:00:00 | 00:00:00 | |
| OE5HKT-10 | 2026-09-04 13:44:49 | 47.81214 | 13.21051 | 127° | 64km/h | 5187m | -2.7m/s | -5.2°C | 69.5% | 548.2hPa | 2.7V | 00:00:00 | 00:00:00 | 00:00:00 | |
| OE5MMP-10 | 2026-09-04 13:44:48 | 47.81221 | 13.21034 | 124° | 62km/h | 5190m | -2.7m/s | -5.2°C | 69.7% | 547.9hPa | 2.7V | 00:00:00 | 03:14:50 | 00:00:00 | |
| OE5DRO-10 | 2026-09-04 13:44:43 | 47.81257 | 13.20936 | 117° | 66km/h | 5204m | -2.7m/s | -5.4°C | 70.7% | 547.0hPa | 2.6V | 00:00:00 | 00:00:00 | 00:00:00 | |
| OE5MMP-10 | 2026-09-04 13:44:38 | 47.81298 | 13.20823 | 121° | 66km/h | 5218m | -2.7m/s | -5.5°C | 71.0% | 546.0hPa | 2.6V | 07:17:00 | 03:14:40 | 00:00:00 | |
| OE5WHR-10 | 2026-09-04 13:44:34 | 47.81339 | 13.20741 | 132° | 60km/h | 5228m | -2.6m/s | -5.6°C | 70.9% | 545.3hPa | 2.6V | 00:00:00 | 03:14:36 | 00:00:00 | |
| OE5FHM-15 | 2026-09-04 13:44:32 | 47.81361 | 13.20705 | 132° | 62km/h | 5234m | -2.9m/s | -5.6°C | 70.7% | 544.9hPa | 2.6V | 00:00:00 | 03:14:34 | 00:00:00 | |
| OE5MMP-10 | 2026-09-04 13:44:28 | 47.81402 | 13.20637 | 131° | 58km/h | 5245m | -2.6m/s | -5.7°C | 71.4% | 544.1hPa | 2.6V | 00:00:00 | 03:14:30 | 00:00:00 | |
| OE5DRO-10 | 2026-09-04 13:44:27 | 47.81411 | 13.20621 | 129° | 64km/h | 5248m | -2.8m/s | -5.7°C | 71.5% | 543.9hPa | 2.6V | 00:00:00 | 00:00:00 | 00:00:00 | |
| OE5DXL-15 | 2026-09-04 13:44:24 | 47.81434 | 13.20569 | 120° | 64km/h | 5257m | -2.8m/s | -5.8°C | 71.7% | 543.3hPa | 2.7V | 00:00:00 | 00:00:00 | 00:00:00 | |
| OE3JTB-15 | 2026-09-04 13:44:20 | 47.81461 | 13.20490 | 116° | 64km/h | 5268m | -2.8m/s | -6.0°C | 71.5% | 542.5hPa | 2.7V | 00:00:00 | 03:14:22 | 00:00:00 | |
| OE5MMP-10 | 2026-09-04 13:44:18 | 47.81476 | 13.20445 | 118° | 69km/h | 5274m | -2.6m/s | -6.1°C | 70.9% | 542.2hPa | 2.7V | 00:00:00 | 03:14:20 | 00:00:00 | |
| OE5WHR-10 | 2026-09-04 13:44:17 | 47.81485 | 13.20422 | 120° | 64km/h | 5276m | -2.8m/s | -6.1°C | 70.6% | 542.0hPa | 2.6V | 00:00:00 | 00:00:00 | 00:00:00 | |
| OE5HKT-10 | 2026-09-04 13:44:15 | 47.81504 | 13.20375 | 123° | 62km/h | 5282m | -2.8m/s | -6.1°C | 70.4% | 541.5hPa | 2.7V | 00:00:00 | 00:00:00 | 00:00:00 | |
| DO3MHA-11 | 2026-09-04 13:44:14 | 47.81514 | 13.20353 | 125° | 64km/h | 5285m | -2.8m/s | -6.1°C | 70.5% | 541.4hPa | 2.7V | 00:00:00 | 03:14:16 | 00:00:00 | |
| OE5DRO-10 | 2026-09-04 13:44:11 | 47.81547 | 13.20289 | 130° | 60km/h | 5293m | -2.8m/s | -6.1°C | 70.2% | 540.8hPa | 2.7V | 00:00:00 | 00:00:00 | 00:00:00 | |
| OE5MMP-10 | 2026-09-04 13:44:08 | 47.81579 | 13.20233 | 132° | 57km/h | 5302m | -2.8m/s | -6.2°C | 70.1% | 540.2hPa | 2.7V | 00:00:00 | 03:14:10 | 00:00:00 | |
| DO3MHA-11 | 2026-09-04 13:44:04 | 47.81616 | 13.20167 | 125° | 60km/h | 5314m | -2.8m/s | -6.3°C | 70.0% | 539.4hPa | 2.7V | 07:17:00 | 03:14:06 | 00:00:00 | |
| OE5FHM-15 | 2026-09-04 13:44:02 | 47.81630 | 13.20132 | 120° | 64km/h | 5319m | -2.9m/s | -6.4°C | 69.6% | 539.0hPa | 2.7V | 00:00:00 | 03:14:04 | 00:00:00 | |
| OE5WHR-10 | 2026-09-04 13:44:00 | 47.81644 | 13.20095 | 117° | 68km/h | 5325m | -3.0m/s | -6.5°C | 70.6% | 538.6hPa | 2.7V | 00:00:00 | 00:00:00 | 00:00:00 | |
| OE5HKT-10 | 2026-09-04 13:43:58 | 47.81657 | 13.20054 | 116° | 64km/h | 5331m | -2.8m/s | -6.6°C | 70.1% | 538.3hPa | 2.7V | 00:00:00 | 00:00:00 | 00:00:00 | |
| DG1MFX-10 | 2026-09-04 13:43:57 | 47.81657 | 13.20054 | 116° | 62km/h | 5331m | -2.9m/s | -6.6°C | 69.3% | 538.3hPa | 2.7V | 07:17:00 | 00:00:00 | 00:00:00 | |
| OE5DRO-10 | 2026-09-04 13:43:55 | 47.81679 | 13.19987 | 118° | 68km/h | 5340m | -2.9m/s | -6.6°C | 70.4% | 537.6hPa | 2.7V | 07:17:00 | 00:00:00 | 00:00:00 | |
| DO3MHA-11 | 2026-09-04 13:43:54 | 47.81687 | 13.19964 | 119° | 71km/h | 5343m | -3.0m/s | -6.6°C | 69.8% | 537.5hPa | 2.7V | 00:00:00 | 03:13:56 | 00:00:00 | |
| OE3JTB-15 | 2026-09-04 13:43:51 | 47.81715 | 13.19895 | 123° | 66km/h | 5352m | -3.0m/s | -6.7°C | 69.6% | 536.8hPa | 2.7V | 00:00:00 | 00:00:00 | 00:00:00 | |
| OE5MMP-10 | 2026-09-04 13:43:48 | 47.81747 | 13.19829 | 128° | 64km/h | 5361m | -2.8m/s | -6.7°C | 69.6% | 536.1hPa | 2.7V | 00:00:00 | 03:13:50 | 00:00:00 | |
| DO3MHA-11 | 2026-09-04 13:43:44 | 47.81792 | 13.19749 | 132° | 58km/h | 5373m | -2.9m/s | -6.8°C | 70.1% | 535.3hPa | 2.7V | 00:00:00 | 03:13:46 | 00:00:00 | |
| OE5WHR-10 | 2026-09-04 13:43:43 | 47.81803 | 13.19730 | 133° | 62km/h | 5376m | -2.9m/s | -6.8°C | 70.3% | 535.2hPa | 2.6V | 00:00:00 | 03:13:45 | 00:00:00 | |
| OE5DRO-10 | 2026-09-04 13:43:39 | 47.81844 | 13.19663 | 131° | 64km/h | 5388m | -2.9m/s | -6.9°C | 71.1% | 534.4hPa | 2.6V | 00:00:00 | 00:00:00 | 00:00:00 | |
| OE5MMP-10 | 2026-09-04 13:43:38 | 47.81853 | 13.19647 | 128° | 62km/h | 5391m | -3.0m/s | -7.0°C | 71.1% | 534.1hPa | 2.7V | 00:00:00 | 03:13:40 | 00:00:00 | |
| DO3MHA-11 | 2026-09-04 13:43:34 | 47.81882 | 13.19576 | 117° | 68km/h | 5403m | -2.9m/s | -7.2°C | 72.0% | 533.2hPa | 2.7V | 00:00:00 | 03:13:36 | 00:00:00 | |
| DG1MFX-10 | 2026-09-04 13:43:33 | 47.81882 | 13.19576 | 117° | 58km/h | 5403m | -2.9m/s | -7.2°C | 71.2% | 533.3hPa | 2.7V | 00:00:00 | 00:00:00 | 00:00:00 | |
| OE5FHM-15 | 2026-09-04 13:43:32 | 47.81896 | 13.19534 | 117° | 66km/h | 5409m | -2.8m/s | -7.3°C | 72.1% | 532.9hPa | 2.7V | 00:00:00 | 03:13:34 | 00:00:00 | |
| OE5MMP-10 | 2026-09-04 13:43:28 | 47.81931 | 13.19443 | 124° | 68km/h | 5420m | -3.0m/s | -7.3°C | 72.2% | 532.2hPa | 2.7V | 00:00:00 | 03:13:30 | 00:00:00 | |
| OE5WHR-10 | 2026-09-04 13:43:26 | 47.81952 | 13.19399 | 128° | 62km/h | 5426m | -2.8m/s | -7.3°C | 72.0% | 531.7hPa | 2.7V | 00:00:00 | 00:00:00 | 00:00:00 | |
| DO3MHA-11 | 2026-09-04 13:43:24 | 47.81975 | 13.19358 | 131° | 62km/h | 5432m | -3.2m/s | -7.4°C | 72.2% | 531.3hPa | 2.7V | 00:00:00 | 03:13:26 | 00:00:00 | |
| OE5DRO-10 | 2026-09-04 13:43:23 | 47.81986 | 13.19339 | 132° | 62km/h | 5435m | -3.2m/s | -7.4°C | 72.3% | 531.1hPa | 2.7V | 00:00:00 | 00:00:00 | 00:00:00 | |
| OE3JTB-15 | 2026-09-04 13:43:22 | 47.81997 | 13.19320 | 133° | 66km/h | 5438m | -3.0m/s | -7.4°C | 72.3% | 530.9hPa | 2.7V | 00:00:00 | 00:00:00 | 00:00:00 | |
| PG1ADW-2 | 2026-09-04 13:43:20 | 47.82020 | 13.19284 | 133° | 64km/h | 5444m | -2.9m/s | -7.5°C | 72.8% | 530.4hPa | 2.7V | 00:00:00 | 03:13:22 | 00:00:00 | |
| OE5MMP-10 | 2026-09-04 13:43:18 | 47.82040 | 13.19249 | 129° | 58km/h | 5450m | -2.7m/s | -7.5°C | 74.0% | 530.1hPa | 2.7V | 07:18:00 | 03:13:20 | 00:00:00 | |
| OE5HKT-10 | 2026-09-04 13:43:15 | 47.82065 | 13.19195 | 121° | 66km/h | 5459m | -3.0m/s | -7.6°C | 74.7% | 529.5hPa | 2.7V | 00:00:00 | 03:13:17 | 00:00:00 | |
| DO3MHA-11 | 2026-09-04 13:43:14 | 47.82072 | 13.19176 | 119° | 62km/h | 5462m | -2.8m/s | -7.7°C | 74.9% | 529.3hPa | 2.7V | 00:00:00 | 03:13:16 | 00:00:00 | |
| DG1MFX-10 | 2026-09-04 13:43:12 | 47.82079 | 13.19157 | 119° | 58km/h | 5464m | -2.9m/s | -7.8°C | 74.3% | 529.2hPa | 2.7V | 00:00:00 | 00:00:00 | 00:00:00 | |
| OE5WHR-10 | 2026-09-04 13:43:09 | 47.82107 | 13.19077 | 117° | 68km/h | 5477m | -3.1m/s | -7.8°C | 75.1% | 528.3hPa | 2.7V | 07:18:00 | 00:00:00 | 00:00:00 | |
| OE5MMP-10 | 2026-09-04 13:43:08 | 47.82114 | 13.19056 | 116° | 71km/h | 5480m | -2.9m/s | -7.8°C | 75.2% | 528.0hPa | 2.7V | 00:00:00 | 03:13:10 | 00:00:00 | |
| OE5DRO-10 | 2026-09-04 13:43:07 | 47.82146 | 13.18964 | 120° | 68km/h | 5492m | -3.1m/s | -7.9°C | 74.8% | 527.2hPa | 2.7V | 00:00:00 | 00:00:00 | 00:00:00 | |
| DO3MHA-11 | 2026-09-04 13:43:04 | 47.82146 | 13.18964 | 120° | 71km/h | 5492m | -3.1m/s | -7.9°C | 74.8% | 527.2hPa | 2.7V | 00:00:00 | 03:13:06 | 00:00:00 | |
| OE5FHM-15 | 2026-09-04 13:43:02 | 47.82165 | 13.18917 | 124° | 69km/h | 5498m | -3.1m/s | -7.9°C | 74.6% | 526.8hPa | 2.7V | 07:18:00 | 03:13:04 | 00:00:00 | |
| PG1ADW-2 | 2026-09-04 13:43:00 | 47.82187 | 13.18871 | 128° | 66km/h | 5504m | -3.0m/s | -7.9°C | 74.4% | 526.4hPa | 2.7V | 00:00:00 | 00:00:00 | 00:00:00 | |
| OE5MMP-10 | 2026-09-04 13:42:58 | 47.82210 | 13.18829 | 131° | 62km/h | 5510m | -3.0m/s | -7.9°C | 74.4% | 526.0hPa | 2.7V | 00:00:00 | 03:13:00 | 00:00:00 | |
| OE5DXL-15 | 2026-09-04 13:42:54 | 47.82254 | 13.18755 | 132° | 68km/h | 5523m | -3.0m/s | -8.1°C | 75.3% | 525.2hPa | 2.7V | 00:00:00 | 00:00:00 | 00:00:00 | |
| OE3JTB-15 | 2026-09-04 13:42:53 | 47.82264 | 13.18738 | 130° | 68km/h | 5526m | -2.9m/s | -8.1°C | 75.7% | 525.0hPa | 2.7V | 00:00:00 | 03:12:55 | 00:00:00 | |
| OE5DRO-10 | 2026-09-04 13:42:51 | 47.82305 | 13.18647 | 118° | 71km/h | 5540m | -2.8m/s | -8.3°C | 76.1% | 523.9hPa | 2.7V | 00:00:00 | 00:00:00 | 00:00:00 | |
| OE5MMP-10 | 2026-09-04 13:42:48 | 47.82305 | 13.18647 | 118° | 71km/h | 5540m | -2.8m/s | -8.3°C | 76.1% | 523.9hPa | 2.7V | 00:00:00 | 03:12:50 | 00:00:00 | |
| DO3MHA-11 | 2026-09-04 13:42:44 | 47.82335 | 13.18558 | 118° | 75km/h | 5552m | -3.1m/s | -8.4°C | 75.9% | 523.2hPa | 2.7V | 07:19:00 | 03:12:46 | 00:00:00 | |
| OE5HKT-10 | 2026-09-04 13:42:41 | 47.82362 | 13.18486 | 120° | 69km/h | 5561m | -3.1m/s | -8.4°C | 74.7% | 522.6hPa | 2.7V | 07:19:00 | 00:00:00 | 00:00:00 | |
| PG1ADW-2 | 2026-09-04 13:42:40 | 47.82371 | 13.18461 | 121° | 66km/h | 5565m | -3.1m/s | -8.4°C | 73.3% | 522.3hPa | 2.7V | 07:19:00 | 00:00:00 | 00:00:00 | |
| OE5MMP-10 | 2026-09-04 13:42:38 | 47.82392 | 13.18413 | 124° | 71km/h | 5571m | -3.1m/s | -8.4°C | 70.4% | 521.8hPa | 2.7V | 00:00:00 | 03:12:40 | 00:00:00 | |
| OE5WHR-10 | 2026-09-04 13:42:35 | 47.82425 | 13.18343 | 129° | 64km/h | 5580m | -2.9m/s | -8.4°C | 68.6% | 521.3hPa | 2.7V | 00:00:00 | 00:00:00 | 00:00:00 | |
| DO3MHA-11 | 2026-09-04 13:42:34 | 47.82437 | 13.18322 | 130° | 64km/h | 5583m | -2.8m/s | -8.4°C | 69.4% | 521.0hPa | 2.6V | 00:00:00 | 03:12:36 | 00:00:00 | |
| OE5FHM-15 | 2026-09-04 13:42:32 | 47.82460 | 13.18281 | 132° | 69km/h | 5589m | -2.8m/s | -8.4°C | 69.5% | 520.6hPa | 2.6V | 00:00:00 | 03:12:34 | 00:00:00 | |
| DG1MFX-10 | 2026-09-04 13:42:30 | 47.82472 | 13.18262 | 133° | 66km/h | 5592m | -3.0m/s | -8.5°C | 68.3% | 520.5hPa | 2.7V | 07:19:00 | 00:00:00 | 00:00:00 | |
| OE5MMP-10 | 2026-09-04 13:42:28 | 47.82503 | 13.18208 | 129° | 60km/h | 5601m | -3.0m/s | -8.5°C | 67.2% | 519.9hPa | 2.7V | 00:00:00 | 03:12:30 | 00:00:00 | |
| OE5HKT-10 | 2026-09-04 13:42:24 | 47.82536 | 13.18134 | 121° | 69km/h | 5613m | -3.0m/s | -8.6°C | 67.4% | 519.1hPa | 2.7V | 00:00:00 | 03:12:26 | 00:00:00 | |
| PG1ADW-2 | 2026-09-04 13:42:19 | 47.82573 | 13.18033 | 118° | 71km/h | 5628m | -2.9m/s | -8.8°C | 65.9% | 518.1hPa | 2.7V | 00:00:00 | 00:00:00 | 00:00:00 | |
| OE5WHR-10 | 2026-09-04 13:42:18 | 47.82581 | 13.18011 | 119° | 71km/h | 5631m | -2.9m/s | -8.8°C | 65.1% | 517.9hPa | 2.7V | 00:00:00 | 00:00:00 | 00:00:00 | |
| DO3MHA-11 | 2026-09-04 13:42:14 | 47.82618 | 13.17916 | 122° | 75km/h | 5642m | -3.0m/s | -8.7°C | 62.8% | 517.1hPa | 2.7V | 00:00:00 | 03:12:16 | 00:00:00 | |
| DG1MFX-10 | 2026-09-04 13:42:09 | 47.82660 | 13.17820 | 126° | 77km/h | 5655m | -2.9m/s | -8.7°C | 59.9% | 516.3hPa | 2.7V | 07:19:00 | 00:00:00 | 00:00:00 | |
| OE5MMP-10 | 2026-09-04 13:42:08 | 47.82683 | 13.17774 | 130° | 64km/h | 5661m | -3.0m/s | -8.7°C | 56.1% | 515.9hPa | 2.7V | 00:00:00 | 03:12:10 | 00:00:00 | |
| OE5HKT-10 | 2026-09-04 13:42:07 | 47.82695 | 13.17753 | 131° | 64km/h | 5664m | -3.2m/s | -8.6°C | 53.1% | 515.7hPa | 2.7V | 00:00:00 | 00:00:00 | 00:00:00 | |
| DO3MHA-11 | 2026-09-04 13:42:04 | 47.82730 | 13.17694 | 133° | 60km/h | 5673m | -2.7m/s | -8.6°C | 50.6% | 515.0hPa | 2.6V | 00:00:00 | 03:12:06 | 00:00:00 | |
| OE5DRO-10 | 2026-09-04 13:42:02 | 47.82751 | 13.17659 | 130° | 66km/h | 5678m | -2.8m/s | -8.6°C | 47.1% | 514.7hPa | 2.6V | 00:00:00 | 00:00:00 | 00:00:00 | |
| OE5WHR-10 | 2026-09-04 13:42:01 | 47.82760 | 13.17641 | 128° | 68km/h | 5681m | -2.7m/s | -8.6°C | 45.2% | 514.5hPa | 2.6V | 00:00:00 | 03:12:03 | 00:00:00 | |
| OE5FHM-15 | 2026-09-04 13:41:59 | 47.82777 | 13.17606 | 124° | 66km/h | 5687m | -2.9m/s | -8.6°C | 44.5% | 514.1hPa | 2.6V | 00:00:00 | 03:12:01 | 00:00:00 | |
| OE5MMP-10 | 2026-09-04 13:41:58 | 47.82785 | 13.17588 | 123° | 68km/h | 5690m | -3.0m/s | -8.6°C | 46.0% | 513.8hPa | 2.6V | 07:19:00 | 03:12:00 | 00:00:00 | |
| OE3JTB-15 | 2026-09-04 13:41:55 | 47.82807 | 13.17529 | 118° | 66km/h | 5699m | -2.9m/s | -8.7°C | 48.4% | 513.4hPa | 2.6V | 00:00:00 | 00:00:00 | 00:00:00 | |
| DO3MHA-11 | 2026-09-04 13:41:54 | 47.82815 | 13.17508 | 119° | 73km/h | 5702m | -2.7m/s | -8.8°C | 48.1% | 513.1hPa | 2.6V | 00:00:00 | 03:11:56 | 00:00:00 | |
| OE5HKT-10 | 2026-09-04 13:41:50 | 47.82852 | 13.17415 | 123° | 69km/h | 5713m | -2.9m/s | -8.7°C | 46.5% | 512.3hPa | 2.6V | 00:00:00 | 00:00:00 | 00:00:00 | |
| DG1MFX-10 | 2026-09-04 13:41:49 | 47.82852 | 13.17415 | 124° | 75km/h | 5713m | -2.9m/s | -8.8°C | 45.8% | 512.4hPa | 2.6V | 07:20:00 | 00:00:00 | 00:00:00 | |
| OE5MMP-10 | 2026-09-04 13:41:48 | 47.82873 | 13.17367 | 125° | 71km/h | 5719m | -3.0m/s | -8.7°C | 46.3% | 512.0hPa | 2.6V | 00:00:00 | 03:11:50 | 00:00:00 | |
| OE5DRO-10 | 2026-09-04 13:41:46 | 47.82895 | 13.17320 | 126° | 64km/h | 5725m | -2.9m/s | -8.8°C | 46.3% | 511.6hPa | 2.7V | 07:19:00 | 00:00:00 | 00:00:00 | |
| OE5WHR-10 | 2026-09-04 13:41:44 | 47.82918 | 13.17275 | 129° | 62km/h | 5731m | -2.8m/s | -8.8°C | 46.3% | 511.2hPa | 2.7V | 00:00:00 | 00:00:00 | 00:00:00 | |
| PG1ADW-2 | 2026-09-04 13:41:39 | 47.82974 | 13.17181 | 132° | 64km/h | 5745m | -2.8m/s | -8.8°C | 44.5% | 510.2hPa | 2.7V | 00:00:00 | 00:00:00 | 00:00:00 | |
| OE5MMP-10 | 2026-09-04 13:41:38 | 47.82984 | 13.17164 | 131° | 58km/h | 5748m | -3.0m/s | -8.8°C | 44.6% | 510.1hPa | 2.7V | 00:00:00 | 03:11:40 | 00:00:00 | |
| DO3MHA-11 | 2026-09-04 13:41:34 | 47.83022 | 13.17095 | 128° | 62km/h | 5760m | -3.0m/s | -8.9°C | 45.0% | 509.3hPa | 2.7V | 00:00:00 | 03:11:36 | 00:00:00 | |
| OE5HKT-10 | 2026-09-04 13:41:33 | 47.83030 | 13.17078 | 125° | 68km/h | 5763m | -2.9m/s | -9.0°C | 45.3% | 509.1hPa | 2.7V | 00:00:00 | 03:11:35 | 00:00:00 | |
| OE5DRO-10 | 2026-09-04 13:41:30 | 47.83053 | 13.17022 | 119° | 68km/h | 5772m | -3.1m/s | -9.1°C | 47.8% | 508.5hPa | 2.7V | 00:00:00 | 00:00:00 | 00:00:00 | |
| OE5FHM-15 | 2026-09-04 13:41:29 | 47.83060 | 13.17002 | 118° | 68km/h | 5775m | -2.9m/s | -9.2°C | 48.4% | 508.4hPa | 2.7V | 00:00:00 | 03:11:31 | 00:00:00 | |
| OE5MMP-10 | 2026-09-04 13:41:28 | 47.83068 | 13.16981 | 117° | 71km/h | 5778m | -2.7m/s | -9.2°C | 49.2% | 508.1hPa | 2.7V | 00:00:00 | 03:11:30 | 00:00:00 | |
| OE5WHR-10 | 2026-09-04 13:41:27 | 47.83075 | 13.16959 | 117° | 66km/h | 5781m | -2.9m/s | -9.2°C | 50.0% | 507.9hPa | 2.7V | 00:00:00 | 00:00:00 | 00:00:00 | |
| OE3JTB-15 | 2026-09-04 13:41:26 | 47.83083 | 13.16936 | 118° | 68km/h | 5784m | -2.9m/s | -9.2°C | 50.7% | 507.7hPa | 2.7V | 07:20:00 | 03:11:28 | 00:00:00 | |
| DG1MFX-10 | 2026-09-04 13:41:25 | 47.83083 | 13.16936 | 118° | 69km/h | 5784m | -2.9m/s | -9.3°C | 49.9% | 507.7hPa | 2.7V | 07:20:00 | 00:00:00 | 00:00:00 | |
| DO3MHA-11 | 2026-09-04 13:41:24 | 47.83100 | 13.16889 | 120° | 71km/h | 5789m | -2.8m/s | -9.3°C | 50.1% | 507.3hPa | 2.7V | 07:20:00 | 03:11:26 | 00:00:00 | |
| PG1ADW-2 | 2026-09-04 13:41:19 | 47.83155 | 13.16774 | 131° | 66km/h | 5804m | -2.9m/s | -9.3°C | 48.1% | 506.4hPa | 2.7V | 00:00:00 | 00:00:00 | 00:00:00 | |
| OE5MMP-10 | 2026-09-04 13:41:18 | 47.83167 | 13.16753 | 133° | 62km/h | 5807m | -2.8m/s | -9.3°C | 48.1% | 506.2hPa | 2.7V | 00:00:00 | 03:11:20 | 00:00:00 | |
| DO3MHA-11 | 2026-09-04 13:41:14 | 47.83210 | 13.16681 | 129° | 62km/h | 5818m | -2.8m/s | -9.4°C | 46.5% | 505.6hPa | 2.6V | 00:00:00 | 03:11:16 | 00:00:00 | |
| OE5HKT-10 | 2026-09-04 13:41:12 | 47.83227 | 13.16646 | 123° | 68km/h | 5824m | -2.6m/s | -9.4°C | 45.8% | 505.2hPa | 2.7V | 00:00:00 | 00:00:00 | 00:00:00 | |
| OE5DRO-10 | 2026-09-04 13:41:11 | 47.83235 | 13.16627 | 121° | 68km/h | 5826m | -2.9m/s | -9.5°C | 46.1% | 504.9hPa | 2.7V | 00:00:00 | 00:00:00 | 00:00:00 | |
| OE5MMP-10 | 2026-09-04 13:41:08 | 47.83257 | 13.16569 | 118° | 71km/h | 5834m | -2.7m/s | -9.6°C | 46.9% | 504.3hPa | 2.6V | 00:00:00 | 03:11:10 | 00:00:00 | |
| OE5WHR-10 | 2026-09-04 13:41:06 | 47.83272 | 13.16526 | 118° | 66km/h | 5840m | -2.9m/s | -9.7°C | 47.3% | 504.0hPa | 2.6V | 00:00:00 | 03:11:08 | 00:00:00 | |
| DO3MHA-11 | 2026-09-04 13:41:04 | 47.83288 | 13.16480 | 120° | 71km/h | 5846m | -2.8m/s | -9.7°C | 47.1% | 503.6hPa | 2.6V | 00:00:00 | 03:11:06 | 00:00:00 | |
| OE5FHM-15 | 2026-09-04 13:40:59 | 47.83342 | 13.16364 | 130° | 68km/h | 5860m | -2.7m/s | -9.7°C | 48.4% | 502.7hPa | 2.6V | 00:00:00 | 03:11:01 | 00:00:00 | |
| OE5MMP-10 | 2026-09-04 13:40:58 | 47.83354 | 13.16344 | 132° | 64km/h | 5863m | -2.6m/s | -9.7°C | 49.1% | 502.6hPa | 2.7V | 00:00:00 | 03:11:00 | 00:00:00 | |
| OE3JTB-15 | 2026-09-04 13:40:57 | 47.83366 | 13.16324 | 133° | 68km/h | 5865m | -2.6m/s | -9.8°C | 49.8% | 502.4hPa | 2.7V | 00:00:00 | 00:00:00 | 00:00:00 | |
| OE5DXL-15 | 2026-09-04 13:40:54 | 47.83400 | 13.16269 | 134° | 68km/h | 5873m | -2.8m/s | -9.8°C | 50.7% | 501.8hPa | 2.7V | 00:00:00 | 00:00:00 | 00:00:00 | |
| OE5DRO-10 | 2026-09-04 13:40:52 | 47.83422 | 13.16234 | 132° | 68km/h | 5879m | -2.7m/s | -9.9°C | 52.8% | 501.4hPa | 2.7V | 00:00:00 | 00:00:00 | 00:00:00 | |
| OE5HKT-10 | 2026-09-04 13:40:51 | 47.83432 | 13.16217 | 129° | 68km/h | 5881m | -2.5m/s | -10.0°C | 54.5% | 501.4hPa | 2.7V | 00:00:00 | 00:00:00 | 00:00:00 | |
| OE5MMP-10 | 2026-09-04 13:40:48 | 47.83457 | 13.16162 | 121° | 66km/h | 5889m | -2.7m/s | -10.1°C | 56.4% | 500.8hPa | 2.7V | 00:00:00 | 03:10:50 | 00:00:00 | |
| OE5WHR-10 | 2026-09-04 13:40:45 | 47.83479 | 13.16104 | 119° | 69km/h | 5898m | -2.6m/s | -10.2°C | 56.2% | 500.4hPa | 2.6V | 07:21:00 | 00:00:00 | 00:00:00 | |
| DO3MHA-11 | 2026-09-04 13:40:44 | 47.83486 | 13.16084 | 118° | 71km/h | 5900m | -2.7m/s | -10.2°C | 56.2% | 500.2hPa | 2.7V | 00:00:00 | 03:10:46 | 00:00:00 | |
| PG1ADW-2 | 2026-09-04 13:40:39 | 47.83528 | 13.15969 | 122° | 69km/h | 5914m | -2.6m/s | -10.3°C | 55.3% | 499.3hPa | 2.6V | 00:00:00 | 03:10:41 | 00:00:00 | |
| OE5MMP-10 | 2026-09-04 13:40:38 | 47.83538 | 13.15945 | 123° | 75km/h | 5916m | -2.6m/s | -10.3°C | 54.9% | 499.1hPa | 2.6V | 07:21:00 | 03:10:40 | 00:00:00 | |
| DO3MHA-11 | 2026-09-04 13:40:34 | 47.83584 | 13.15854 | 130° | 69km/h | 5927m | -2.7m/s | -10.3°C | 54.5% | 498.4hPa | 2.6V | 00:00:00 | 03:10:36 | 00:00:00 | |
| OE5DRO-10 | 2026-09-04 13:40:33 | 47.83595 | 13.15832 | 130° | 68km/h | 5930m | -2.6m/s | -10.3°C | 54.4% | 498.2hPa | 2.6V | 00:00:00 | 00:00:00 | 00:00:00 | |
| OE5HKT-10 | 2026-09-04 13:40:30 | 47.83632 | 13.15769 | 132° | 77km/h | 5938m | -2.6m/s | -10.4°C | 54.3% | 497.8hPa | 2.6V | 00:00:00 | 03:10:32 | 00:00:00 | |
| OE5FHM-15 | 2026-09-04 13:40:29 | 47.83644 | 13.15749 | 134° | 69km/h | 5941m | -2.6m/s | -10.4°C | 54.6% | 497.6hPa | 2.6V | 00:00:00 | 03:10:31 | 00:00:00 | |
| OE5MMP-10 | 2026-09-04 13:40:28 | 47.83656 | 13.15730 | 134° | 62km/h | 5943m | -2.5m/s | -10.4°C | 54.7% | 497.4hPa | 2.6V | 00:00:00 | 03:10:30 | 00:00:00 | |
| OE5WHR-10 | 2026-09-04 13:40:24 | 47.83697 | 13.15661 | 127° | 71km/h | 5953m | -2.5m/s | -10.5°C | 55.1% | 496.7hPa | 2.6V | 00:00:00 | 00:00:00 | 00:00:00 | |
| PG1ADW-2 | 2026-09-04 13:40:19 | 47.83737 | 13.15559 | 118° | 71km/h | 5966m | -2.6m/s | -10.7°C | 53.9% | 495.8hPa | 2.6V | 00:00:00 | 00:00:00 | 00:00:00 | |
| OE5MMP-10 | 2026-09-04 13:40:18 | 47.83745 | 13.15536 | 119° | 75km/h | 5969m | -2.6m/s | -10.7°C | 53.6% | 495.7hPa | 2.6V | 00:00:00 | 03:10:20 | 00:00:00 | |
| DO3MHA-11 | 2026-09-04 13:40:14 | 47.83781 | 13.15439 | 120° | 75km/h | 5979m | -2.5m/s | -10.7°C | 52.1% | 495.1hPa | 2.7V | 00:00:00 | 03:10:16 | 00:00:00 | |
| OE5HKT-10 | 2026-09-04 13:40:08 | 47.83845 | 13.15296 | 130° | 69km/h | 5994m | -2.5m/s | -10.7°C | 50.6% | 494.1hPa | 2.7V | 07:21:00 | 00:00:00 | 00:00:00 | |
| DO3MHA-11 | 2026-09-04 13:40:04 | 47.83894 | 13.15215 | 133° | 62km/h | 6004m | -2.4m/s | -10.8°C | 49.9% | 493.5hPa | 2.7V | 07:21:00 | 03:10:06 | 00:00:00 | |
| OE5WHR-10 | 2026-09-04 13:40:03 | 47.83905 | 13.15196 | 132° | 69km/h | 6006m | -2.3m/s | -10.8°C | 50.1% | 493.3hPa | 2.7V | 00:00:00 | 03:10:05 | 00:00:00 | |
| OE5FHM-15 | 2026-09-04 13:39:59 | 47.83945 | 13.15122 | 124° | 68km/h | 6015m | -2.2m/s | -10.9°C | 51.1% | 492.7hPa | 2.7V | 00:00:00 | 03:10:01 | 00:00:00 | |
| OE5MMP-10 | 2026-09-04 13:39:58 | 47.83953 | 13.15103 | 123° | 68km/h | 6017m | -2.5m/s | -10.9°C | 51.1% | 492.6hPa | 2.7V | 00:00:00 | 03:10:00 | 00:00:00 | |
| OE5DRO-10 | 2026-09-04 13:39:55 | 47.83977 | 13.15044 | 120° | 73km/h | 6025m | -2.3m/s | -11.0°C | 51.2% | 492.1hPa | 2.7V | 00:00:00 | 00:00:00 | 00:00:00 | |
| DO3MHA-11 | 2026-09-04 13:39:54 | 47.83985 | 13.15022 | 119° | 73km/h | 6027m | -2.2m/s | -11.1°C | 51.2% | 492.0hPa | 2.7V | 00:00:00 | 03:09:56 | 00:00:00 | |
| OE5MMP-10 | 2026-09-04 13:39:48 | 47.84036 | 13.14878 | 120° | 75km/h | 6042m | -2.3m/s | -11.2°C | 50.5% | 491.0hPa | 2.7V | 00:00:00 | 03:09:50 | 00:00:00 | |
| OE5HKT-10 | 2026-09-04 13:39:47 | 47.84046 | 13.14853 | 121° | 77km/h | 6044m | -2.3m/s | -11.2°C | 50.5% | 490.8hPa | 2.6V | 00:00:00 | 00:00:00 | 00:00:00 | |
| DO3MHA-11 | 2026-09-04 13:39:44 | 47.84079 | 13.14781 | 129° | 69km/h | 6051m | -2.3m/s | -11.1°C | 51.1% | 490.4hPa | 2.6V | 00:00:00 | 03:09:46 | 00:00:00 | |
| DG1MFX-10 | 2026-09-04 13:39:43 | 47.84079 | 13.14781 | 129° | 77km/h | 6051m | -2.4m/s | -11.2°C | 50.2% | 490.5hPa | 2.7V | 07:22:00 | 00:00:00 | 00:00:00 | |
| OE5WHR-10 | 2026-09-04 13:39:42 | 47.84103 | 13.14737 | 131° | 69km/h | 6055m | -2.2m/s | -11.2°C | 51.1% | 490.1hPa | 2.7V | 00:00:00 | 00:00:00 | 00:00:00 | |
| PG1ADW-2 | 2026-09-04 13:39:39 | 47.84140 | 13.14675 | 132° | 69km/h | 6062m | -2.2m/s | -11.3°C | 51.6% | 489.6hPa | 2.7V | 00:00:00 | 00:00:00 | 00:00:00 | |
| OE5MMP-10 | 2026-09-04 13:39:38 | 47.84151 | 13.14656 | 131° | 64km/h | 6064m | -2.1m/s | -11.3°C | 52.7% | 489.6hPa | 2.6V | 00:00:00 | 03:09:40 | 00:00:00 | |
| OE5DRO-10 | 2026-09-04 13:39:36 | 47.84173 | 13.14618 | 129° | 71km/h | 6069m | -1.9m/s | -11.3°C | 53.3% | 489.3hPa | 2.6V | 00:00:00 | 00:00:00 | 00:00:00 | |
| DO3MHA-11 | 2026-09-04 13:39:34 | 47.84191 | 13.14580 | 126° | 66km/h | 6073m | -2.3m/s | -11.3°C | 53.4% | 489.0hPa | 2.6V | 00:00:00 | 03:09:36 | 00:00:00 | |
| OE3JTB-15 | 2026-09-04 13:39:30 | 47.84225 | 13.14503 | 120° | 71km/h | 6082m | -2.2m/s | -11.5°C | 53.3% | 488.4hPa | 2.6V | 00:00:00 | 00:00:00 | 00:00:00 | |
| OE5FHM-15 | 2026-09-04 13:39:29 | 47.84233 | 13.14482 | 118° | 71km/h | 6084m | -2.2m/s | -11.5°C | 53.5% | 488.3hPa | 2.7V | 00:00:00 | 03:09:31 | 00:00:00 | |
| OE5MMP-10 | 2026-09-04 13:39:28 | 47.84240 | 13.14460 | 117° | 77km/h | 6087m | -2.3m/s | -11.5°C | 54.1% | 488.1hPa | 2.6V | 00:00:00 | 03:09:30 | 00:00:00 | |
| DO3MHA-11 | 2026-09-04 13:39:24 | 47.84273 | 13.14363 | 119° | 78km/h | 6096m | -2.3m/s | -11.6°C | 54.6% | 487.5hPa | 2.6V | 00:00:00 | 03:09:26 | 00:00:00 | |
| OE5WHR-10 | 2026-09-04 13:39:21 | 47.84303 | 13.14286 | 122° | 71km/h | 6103m | -2.3m/s | -11.6°C | 55.9% | 487.1hPa | 2.6V | 00:00:00 | 00:00:00 | 00:00:00 | |
| PG1ADW-2 | 2026-09-04 13:39:19 | 47.84325 | 13.14235 | 124° | 69km/h | 6108m | -2.3m/s | -11.6°C | 56.2% | 486.8hPa | 2.6V | 00:00:00 | 03:09:21 | 00:00:00 | |
| OE5DRO-10 | 2026-09-04 13:39:18 | 47.84348 | 13.14186 | 127° | 69km/h | 6112m | -2.0m/s | -11.6°C | 56.1% | 486.4hPa | 2.6V | 07:22:00 | 00:00:00 | 00:00:00 | |
| OE5HKT-10 | 2026-09-04 13:39:16 | 47.84360 | 13.14163 | 129° | 73km/h | 6114m | -1.9m/s | -11.6°C | 56.4% | 486.4hPa | 2.7V | 00:00:00 | 03:09:18 | 00:00:00 | |
| DO3MHA-11 | 2026-09-04 13:39:14 | 47.84383 | 13.14121 | 130° | 64km/h | 6118m | -1.9m/s | -11.7°C | 56.1% | 486.2hPa | 2.7V | 00:00:00 | 03:09:16 | 00:00:00 | |
| OE5MMP-10 | 2026-09-04 13:39:08 | 47.84440 | 13.14005 | 122° | 69km/h | 6130m | -1.9m/s | -11.8°C | 53.3% | 485.4hPa | 2.6V | 00:00:00 | 03:09:10 | 00:00:00 | |
| DO3MHA-11 | 2026-09-04 13:39:04 | 47.84472 | 13.13917 | 116° | 75km/h | 6139m | -2.2m/s | -11.9°C | 56.7% | 484.8hPa | 2.6V | 00:00:00 | 03:09:06 | 00:00:00 | |
| OE3JTB-15 | 2026-09-04 13:39:01 | 47.84495 | 13.13844 | 116° | 73km/h | 6145m | -2.2m/s | -11.9°C | 54.4% | 484.4hPa | 2.6V | 00:00:00 | 00:00:00 | 00:00:00 | |
| OE5WHR-10 | 2026-09-04 13:39:00 | 47.84503 | 13.13819 | 116° | 73km/h | 6147m | -2.0m/s | -11.9°C | 54.1% | 484.2hPa | 2.6V | 00:00:00 | 03:09:02 | 00:00:00 | |
| OE5FHM-15 | 2026-09-04 13:38:59 | 47.84512 | 13.13794 | 117° | 73km/h | 6149m | -2.0m/s | -12.0°C | 53.8% | 484.1hPa | 2.6V | 07:22:00 | 03:09:01 | 00:00:00 | |
| OE5MMP-10 | 2026-09-04 13:38:58 | 47.84521 | 13.13768 | 119° | 78km/h | 6151m | -2.0m/s | -12.0°C | 53.7% | 484.0hPa | 2.6V | 00:00:00 | 03:09:00 | 00:00:00 | |
| OE5DXL-15 | 2026-09-04 13:38:54 | 47.84563 | 13.13666 | 125° | 73km/h | 6160m | -2.0m/s | -11.9°C | 52.5% | 483.4hPa | 2.6V | 00:00:00 | 00:00:00 | 00:00:00 | |
| OE5HKT-10 | 2026-09-04 13:38:51 | 47.84599 | 13.13592 | 128° | 71km/h | 6165m | -1.8m/s | -11.9°C | 51.7% | 483.1hPa | 2.6V | 00:00:00 | 00:00:00 | 00:00:00 | |
| OE5MMP-10 | 2026-09-04 13:38:48 | 47.84634 | 13.13526 | 129° | 66km/h | 6171m | -1.8m/s | -12.0°C | 51.4% | 482.8hPa | 2.7V | 00:00:00 | 03:08:50 | 00:00:00 | |
| DO3MHA-11 | 2026-09-04 13:38:44 | 47.84675 | 13.13447 | 126° | 68km/h | 6179m | -1.9m/s | -12.0°C | 51.3% | 482.2hPa | 2.6V | 07:23:00 | 03:08:46 | 00:00:00 | |
| DG1MFX-10 | 2026-09-04 13:38:41 | 47.84693 | 13.13407 | 123° | 64km/h | 6183m | -1.9m/s | -12.1°C | 50.3% | 482.1hPa | 2.7V | 07:23:00 | 00:00:00 | 00:00:00 | |
| PG1ADW-2 | 2026-09-04 13:38:39 | 47.84717 | 13.13342 | 116° | 77km/h | 6189m | -2.0m/s | -12.2°C | 51.1% | 481.6hPa | 2.7V | 00:00:00 | 00:00:00 | 00:00:00 | |
| OE5MMP-10 | 2026-09-04 13:38:38 | 47.84725 | 13.13318 | 115° | 77km/h | 6190m | -2.0m/s | -12.2°C | 51.3% | 481.5hPa | 2.7V | 00:00:00 | 03:08:40 | 00:00:00 | |
| DO3MHA-11 | 2026-09-04 13:38:34 | 47.84756 | 13.13220 | 117° | 78km/h | 6199m | -1.9m/s | -12.3°C | 51.1% | 481.0hPa | 2.7V | 00:00:00 | 03:08:36 | 00:00:00 | |
| OE3JTB-15 | 2026-09-04 13:38:32 | 47.84775 | 13.13169 | 121° | 71km/h | 6202m | -1.7m/s | -12.2°C | 50.3% | 480.8hPa | 2.7V | 00:00:00 | 03:08:34 | 00:00:00 | |
| OE5HKT-10 | 2026-09-04 13:38:30 | 47.84796 | 13.13117 | 124° | 73km/h | 6206m | -1.8m/s | -12.2°C | 50.1% | 480.6hPa | 2.7V | 00:00:00 | 00:00:00 | 00:00:00 | |
| OE5FHM-15 | 2026-09-04 13:38:29 | 47.84808 | 13.13092 | 125° | 71km/h | 6208m | -1.9m/s | -12.2°C | 50.1% | 480.4hPa | 2.7V | 00:00:00 | 03:08:31 | 00:00:00 | |
| OE5MMP-10 | 2026-09-04 13:38:28 | 47.84819 | 13.13067 | 125° | 77km/h | 6210m | -1.8m/s | -12.2°C | 50.0% | 480.3hPa | 2.7V | 00:00:00 | 03:08:30 | 00:00:00 | |
| OE5DXL-15 | 2026-09-04 13:38:24 | 47.84866 | 13.12972 | 128° | 71km/h | 6218m | -1.8m/s | -12.3°C | 49.5% | 479.8hPa | 2.7V | 07:23:00 | 00:00:00 | 00:00:00 | |
| OE5DRO-10 | 2026-09-04 13:38:20 | 47.84914 | 13.12882 | 129° | 68km/h | 6226m | -1.9m/s | -12.3°C | 48.7% | 479.3hPa | 2.7V | 00:00:00 | 00:00:00 | 00:00:00 | |
| PG1ADW-2 | 2026-09-04 13:38:19 | 47.84926 | 13.12860 | 130° | 68km/h | 6228m | -2.2m/s | -12.3°C | 48.8% | 479.2hPa | 2.6V | 00:00:00 | 00:00:00 | 00:00:00 | |
| OE5MMP-10 | 2026-09-04 13:38:18 | 47.84938 | 13.12839 | 130° | 68km/h | 6230m | -2.0m/s | -12.3°C | 48.2% | 479.1hPa | 2.6V | 00:00:00 | 03:08:20 | 00:00:00 | |
| DO3MHA-11 | 2026-09-04 13:38:14 | 47.84984 | 13.12757 | 131° | 64km/h | 6238m | -1.9m/s | -12.3°C | 47.0% | 478.5hPa | 2.7V | 00:00:00 | 03:08:16 | 00:00:00 | |
| OE5HKT-10 | 2026-09-04 13:38:09 | 47.85037 | 13.12660 | 126° | 73km/h | 6248m | -1.9m/s | -12.4°C | 47.1% | 477.9hPa | 2.7V | 00:00:00 | 03:08:11 | 00:00:00 | |
| OE5MMP-10 | 2026-09-04 13:38:08 | 47.85046 | 13.12641 | 124° | 66km/h | 6250m | -2.0m/s | -12.5°C | 47.0% | 477.8hPa | 2.7V | 00:00:00 | 03:08:10 | 00:00:00 | |
| DO3MHA-11 | 2026-09-04 13:38:04 | 47.85077 | 13.12559 | 118° | 73km/h | 6258m | -1.9m/s | -12.6°C | 46.9% | 477.3hPa | 2.7V | 00:00:00 | 03:08:06 | 00:00:00 | |
| OE3JTB-15 | 2026-09-04 13:38:03 | 47.85084 | 13.12537 | 117° | 73km/h | 6260m | -1.9m/s | -12.6°C | 47.0% | 477.1hPa | 2.7V | 00:00:00 | 00:00:00 | 00:00:00 | |
| OE5DRO-10 | 2026-09-04 13:38:01 | 47.85100 | 13.12491 | 117° | 73km/h | 6264m | -2.0m/s | -12.7°C | 47.1% | 477.0hPa | 2.6V | 00:00:00 | 00:00:00 | 00:00:00 | |
| OE5FHM-15 | 2026-09-04 13:37:59 | 47.85117 | 13.12443 | 119° | 73km/h | 6268m | -1.6m/s | -12.7°C | 46.8% | 476.7hPa | 2.6V | 00:00:00 | 03:08:01 | 00:00:00 | |
| OE5MMP-10 | 2026-09-04 13:37:58 | 47.85127 | 13.12418 | 121° | 78km/h | 6270m | -1.7m/s | -12.7°C | 46.4% | 476.6hPa | 2.7V | 07:23:00 | 03:08:00 | 00:00:00 | |
| OE5WHR-10 | 2026-09-04 13:37:57 | 47.85137 | 13.12392 | 122° | 71km/h | 6272m | -1.9m/s | -12.7°C | 46.4% | 476.5hPa | 2.7V | 07:23:00 | 03:07:59 | 00:00:00 | |
| DO3MHA-11 | 2026-09-04 13:37:54 | 47.85170 | 13.12317 | 124° | 75km/h | 6278m | -1.8m/s | -12.7°C | 45.4% | 476.0hPa | 2.7V | 00:00:00 | 03:07:56 | 00:00:00 | |
| OE5HKT-10 | 2026-09-04 13:37:48 | 47.85243 | 13.12180 | 133° | 71km/h | 6290m | -2.0m/s | -12.7°C | 42.9% | 475.3hPa | 2.7V | 00:00:00 | 00:00:00 | 00:00:00 | |
| OE5DRO-10 | 2026-09-04 13:37:42 | 47.85308 | 13.12067 | 124° | 73km/h | 6302m | -1.8m/s | -12.7°C | 40.7% | 474.6hPa | 2.6V | 00:00:00 | 00:00:00 | 00:00:00 | |
| PG1ADW-2 | 2026-09-04 13:37:39 | 47.85333 | 13.12003 | 118° | 73km/h | 6307m | -1.8m/s | -12.9°C | 41.0% | 474.3hPa | 2.6V | 00:00:00 | 00:00:00 | 00:00:00 | |
| OE5MMP-10 | 2026-09-04 13:37:38 | 47.85341 | 13.11980 | 118° | 77km/h | 6309m | -1.9m/s | -12.9°C | 41.1% | 474.2hPa | 2.7V | 00:00:00 | 03:07:40 | 00:00:00 | |
| OE5WHR-10 | 2026-09-04 13:37:36 | 47.85358 | 13.11931 | 118° | 71km/h | 6313m | -2.0m/s | -12.9°C | 41.4% | 473.9hPa | 2.7V | 00:00:00 | 00:00:00 | 00:00:00 | |
| OE3JTB-15 | 2026-09-04 13:37:34 | 47.85376 | 13.11882 | 120° | 73km/h | 6317m | -2.1m/s | -12.9°C | 41.8% | 473.6hPa | 2.7V | 07:24:00 | 00:00:00 | 00:00:00 | |
| OE5FHM-15 | 2026-09-04 13:37:29 | 47.85432 | 13.11758 | 129° | 71km/h | 6328m | -2.0m/s | -12.9°C | 42.4% | 473.0hPa | 2.7V | 00:00:00 | 03:07:31 | 00:00:00 | |
| OE5MMP-10 | 2026-09-04 13:37:28 | 47.85445 | 13.11735 | 131° | 68km/h | 6330m | -2.0m/s | -12.8°C | 42.4% | 472.9hPa | 2.7V | 00:00:00 | 03:07:30 | 00:00:00 | |
| DO3MHA-11 | 2026-09-04 13:37:24 | 47.85495 | 13.11653 | 135° | 64km/h | 6338m | -1.9m/s | -12.9°C | 43.1% | 472.3hPa | 2.7V | 07:24:00 | 03:07:26 | 00:00:00 | |
| OE5DRO-10 | 2026-09-04 13:37:23 | 47.85507 | 13.11635 | 134° | 71km/h | 6340m | -1.9m/s | -12.9°C | 43.4% | 472.2hPa | 2.7V | 00:00:00 | 00:00:00 | 00:00:00 | |
| PG1ADW-2 | 2026-09-04 13:37:19 | 47.85549 | 13.11564 | 129° | 71km/h | 6348m | -2.1m/s | -13.0°C | 43.0% | 471.7hPa | 2.7V | 07:24:00 | 00:00:00 | 00:00:00 | |
| OE5MMP-10 | 2026-09-04 13:37:18 | 47.85559 | 13.11546 | 126° | 71km/h | 6350m | -2.1m/s | -13.0°C | 43.0% | 471.6hPa | 2.7V | 00:00:00 | 03:07:20 | 00:00:00 | |
| OE5WHR-10 | 2026-09-04 13:37:15 | 47.85584 | 13.11487 | 120° | 71km/h | 6357m | -2.0m/s | -13.1°C | 42.0% | 471.2hPa | 2.6V | 00:00:00 | 00:00:00 | 00:00:00 | |
| DO3MHA-11 | 2026-09-04 13:37:14 | 47.85592 | 13.11464 | 119° | 78km/h | 6359m | -1.9m/s | -13.1°C | 40.7% | 471.1hPa | 2.6V | 00:00:00 | 03:07:16 | 00:00:00 | |
| OE3JTB-15 | 2026-09-04 13:37:05 | 47.85693 | 13.11247 | 132° | 71km/h | 6377m | -2.1m/s | -12.9°C | 33.9% | 469.9hPa | 2.7V | 00:00:00 | 03:07:07 | 00:00:00 | |
| DO3MHA-11 | 2026-09-04 13:37:04 | 47.85706 | 13.11226 | 134° | 66km/h | 6380m | -2.4m/s | -12.9°C | 33.8% | 469.8hPa | 2.7V | 00:00:00 | 03:07:06 | 00:00:00 | |
| OE5FHM-15 | 2026-09-04 13:36:59 | 47.85766 | 13.11134 | 132° | 69km/h | 6390m | -2.2m/s | -13.0°C | 33.5% | 469.1hPa | 2.7V | 00:00:00 | 03:07:01 | 00:00:00 | |
| OE5MMP-10 | 2026-09-04 13:36:58 | 47.85776 | 13.11116 | 129° | 68km/h | 6393m | -1.9m/s | -13.0°C | 33.5% | 469.0hPa | 2.7V | 00:00:00 | 03:07:00 | 00:00:00 | |
| DG1MFX-10 | 2026-09-04 13:36:57 | 47.85776 | 13.11116 | 130° | 60km/h | 6393m | -2.0m/s | -13.0°C | 32.7% | 469.1hPa | 2.7V | 07:24:00 | 00:00:00 | 00:00:00 | |
| OE5MMP-10 | 2026-09-04 13:36:48 | 47.85866 | 13.10895 | 123° | 77km/h | 6413m | -2.1m/s | -13.2°C | 33.3% | 467.7hPa | 2.7V | 00:00:00 | 03:06:50 | 00:00:00 | |
| OE5DRO-10 | 2026-09-04 13:36:45 | 47.85901 | 13.10820 | 127° | 68km/h | 6420m | -2.3m/s | -13.2°C | 33.1% | 467.3hPa | 2.6V | 07:25:00 | 00:00:00 | 00:00:00 | |
| DO3MHA-11 | 2026-09-04 13:36:44 | 47.85913 | 13.10796 | 128° | 69km/h | 6422m | -2.2m/s | -13.2°C | 33.2% | 467.2hPa | 2.6V | 00:00:00 | 03:06:46 | 00:00:00 | |
| PG1ADW-2 | 2026-09-04 13:36:39 | 47.85972 | 13.10688 | 129° | 68km/h | 6432m | -1.9m/s | -13.3°C | 33.2% | 466.6hPa | 2.6V | 00:00:00 | 03:06:41 | 00:00:00 | |
| OE5HKT-10 | 2026-09-04 13:36:38 | 47.85982 | 13.10669 | 127° | 68km/h | 6434m | -2.0m/s | -13.3°C | 33.2% | 466.5hPa | 2.6V | 07:25:00 | 03:06:40 | 00:00:00 | |
| DG1MFX-10 | 2026-09-04 13:36:37 | 47.85982 | 13.10669 | 128° | 62km/h | 6434m | -2.1m/s | -13.3°C | 32.3% | 466.5hPa | 2.6V | 07:25:00 | 00:00:00 | 00:00:00 | |
| OE3JTB-15 | 2026-09-04 13:36:36 | 47.86000 | 13.10632 | 125° | 68km/h | 6439m | -2.2m/s | -13.2°C | 33.1% | 466.1hPa | 2.6V | 00:00:00 | 00:00:00 | 00:00:00 | |
| DO3MHA-11 | 2026-09-04 13:36:34 | 47.86017 | 13.10593 | 124° | 66km/h | 6443m | -2.0m/s | -13.3°C | 33.1% | 465.9hPa | 2.6V | 00:00:00 | 03:06:36 | 00:00:00 | |
| OE5WHR-10 | 2026-09-04 13:36:33 | 47.86026 | 13.10574 | 123° | 69km/h | 6445m | -2.0m/s | -13.3°C | 32.8% | 465.8hPa | 2.6V | 00:00:00 | 00:00:00 | 00:00:00 | |
| OE5FHM-15 | 2026-09-04 13:36:29 | 47.86058 | 13.10490 | 117° | 68km/h | 6454m | -2.3m/s | -13.4°C | 32.0% | 465.2hPa | 2.6V | 00:00:00 | 03:06:31 | 00:00:00 | |
| OE5MMP-10 | 2026-09-04 13:36:28 | 47.86065 | 13.10467 | 117° | 73km/h | 6456m | -2.3m/s | -13.4°C | 31.9% | 465.1hPa | 2.5V | 00:00:00 | 03:06:30 | 00:00:00 | |
| OE5DRO-10 | 2026-09-04 13:36:26 | 47.86081 | 13.10419 | 116° | 69km/h | 6461m | -2.2m/s | -13.4°C | 31.4% | 464.8hPa | 2.5V | 00:00:00 | 00:00:00 | 00:00:00 | |
| DO3MHA-11 | 2026-09-04 13:36:24 | 47.86097 | 13.10370 | 117° | 73km/h | 6465m | -2.2m/s | -13.4°C | 30.3% | 464.5hPa | 2.7V | 00:00:00 | 03:06:26 | 00:00:00 | |
| PG1ADW-2 | 2026-09-04 13:36:19 | 47.86146 | 13.10249 | 128° | 64km/h | 6475m | -2.0m/s | -13.3°C | 27.9% | 463.9hPa | 2.7V | 00:00:00 | 00:00:00 | 00:00:00 | |
| OE5MMP-10 | 2026-09-04 13:36:18 | 47.86158 | 13.10227 | 129° | 66km/h | 6478m | -2.1m/s | -13.3°C | 27.7% | 463.8hPa | 2.7V | 00:00:00 | 03:06:20 | 00:00:00 | |
| OE5HKT-10 | 2026-09-04 13:36:17 | 47.86169 | 13.10206 | 129° | 64km/h | 6480m | -2.2m/s | -13.3°C | 27.3% | 463.7hPa | 2.6V | 00:00:00 | 00:00:00 | 00:00:00 | |
| DG1MFX-10 | 2026-09-04 13:36:16 | 47.86169 | 13.10206 | 130° | 71km/h | 6480m | -2.3m/s | -13.4°C | 26.6% | 463.7hPa | 2.6V | 07:25:00 | 00:00:00 | 00:00:00 | |
| DO3MHA-11 | 2026-09-04 13:36:14 | 47.86201 | 13.10145 | 127° | 62km/h | 6487m | -2.3m/s | -13.3°C | 26.6% | 463.3hPa | 2.6V | 00:00:00 | 03:06:16 | 00:00:00 | |
| OE5WHR-10 | 2026-09-04 13:36:12 | 47.86220 | 13.10106 | 125° | 66km/h | 6491m | -2.3m/s | -13.3°C | 26.4% | 463.0hPa | 2.7V | 00:00:00 | 00:00:00 | 00:00:00 | |
| OE5MMP-10 | 2026-09-04 13:36:08 | 47.86254 | 13.10029 | 122° | 64km/h | 6501m | -2.3m/s | -13.4°C | 26.5% | 462.5hPa | 2.7V | 00:00:00 | 03:06:10 | 00:00:00 | |
| OE3JTB-15 | 2026-09-04 13:36:07 | 47.86262 | 13.10009 | 120° | 69km/h | 6503m | -2.2m/s | -13.5°C | 26.4% | 462.3hPa | 2.7V | 00:00:00 | 00:00:00 | 00:00:00 | |
| DO3MHA-11 | 2026-09-04 13:36:04 | 47.86283 | 13.09947 | 116° | 68km/h | 6510m | -2.3m/s | -13.5°C | 25.9% | 461.8hPa | 2.7V | 07:25:00 | 03:06:06 | 00:00:00 | |
| OE5FHM-15 | 2026-09-04 13:35:59 | 47.86316 | 13.09836 | 113° | 71km/h | 6522m | -2.4m/s | -13.6°C | 25.2% | 461.1hPa | 2.7V | 00:00:00 | 03:06:01 | 00:00:00 | |
| OE5MMP-10 | 2026-09-04 13:35:58 | 47.86322 | 13.09811 | 112° | 75km/h | 6524m | -2.5m/s | -13.6°C | 25.2% | 461.0hPa | 2.7V | 00:00:00 | 03:06:00 | 00:00:00 | |
| OE5HKT-10 | 2026-09-04 13:35:56 | 47.86336 | 13.09762 | 112° | 71km/h | 6529m | -2.5m/s | -13.6°C | 24.6% | 460.7hPa | 2.7V | 00:00:00 | 00:00:00 | 00:00:00 | |
| DO3MHA-11 | 2026-09-04 13:35:54 | 47.86349 | 13.09710 | 112° | 77km/h | 6534m | -2.4m/s | -13.7°C | 24.1% | 460.3hPa | 2.7V | 00:00:00 | 03:05:56 | 00:00:00 | |
| OE5WHR-10 | 2026-09-04 13:35:51 | 47.86372 | 13.09632 | 116° | 71km/h | 6542m | -2.4m/s | -13.7°C | 23.4% | 459.9hPa | 2.7V | 00:00:00 | 03:05:53 | 00:00:00 | |
| OE5MMP-10 | 2026-09-04 13:35:48 | 47.86401 | 13.09553 | 122° | 69km/h | 6549m | -2.3m/s | -13.6°C | 22.7% | 459.5hPa | 2.7V | 00:00:00 | 03:05:50 | 00:00:00 | |
| DO3MHA-11 | 2026-09-04 13:35:44 | 47.86444 | 13.09459 | 126° | 66km/h | 6559m | -2.2m/s | -13.6°C | 22.1% | 458.9hPa | 2.5V | 00:00:00 | 03:05:46 | 00:00:00 | |
| PG1ADW-2 | 2026-09-04 13:35:39 | 47.86490 | 13.09359 | 121° | 75km/h | 6571m | -2.5m/s | -13.7°C | 22.2% | 458.1hPa | 2.6V | 00:00:00 | 00:00:00 | 00:00:00 | |
| OE5MMP-10 | 2026-09-04 13:35:38 | 47.86497 | 13.09339 | 119° | 73km/h | 6574m | -2.5m/s | -13.7°C | 22.0% | 458.0hPa | 2.6V | 00:00:00 | 03:05:40 | 00:00:00 | |
| OE5HKT-10 | 2026-09-04 13:35:35 | 47.86518 | 13.09271 | 112° | 75km/h | 6581m | -2.3m/s | -13.8°C | 21.9% | 457.4hPa | 2.6V | 00:00:00 | 03:05:37 | 00:00:00 | |
| DO3MHA-11 | 2026-09-04 13:35:34 | 47.86524 | 13.09247 | 112° | 78km/h | 6584m | -2.6m/s | -13.8°C | 21.7% | 457.3hPa | 2.6V | 00:00:00 | 03:05:36 | 00:00:00 | |
| OE5WHR-10 | 2026-09-04 13:35:30 | 47.86553 | 13.09141 | 115° | 73km/h | 6594m | -2.4m/s | -13.8°C | 21.1% | 456.7hPa | 2.6V | 00:00:00 | 00:00:00 | 00:00:00 | |
| OE5FHM-15 | 2026-09-04 13:35:29 | 47.86562 | 13.09114 | 117° | 75km/h | 6596m | -2.5m/s | -13.8°C | 20.8% | 456.5hPa | 2.6V | 00:00:00 | 03:05:31 | 00:00:00 | |
| OE5MMP-10 | 2026-09-04 13:35:28 | 47.86571 | 13.09087 | 118° | 80km/h | 6599m | -2.5m/s | -13.8°C | 20.8% | 456.4hPa | 2.6V | 00:00:00 | 03:05:30 | 00:00:00 | |
| OE5DXL-15 | 2026-09-04 13:35:24 | 47.86613 | 13.08980 | 122° | 75km/h | 6610m | -2.8m/s | -13.8°C | 20.1% | 455.7hPa | 2.6V | 00:00:00 | 00:00:00 | 00:00:00 | |
| PG1ADW-2 | 2026-09-04 13:35:19 | 47.86668 | 13.08856 | 125° | 73km/h | 6623m | -2.3m/s | -13.8°C | 20.3% | 455.0hPa | 2.6V | 00:00:00 | 03:05:21 | 00:00:00 | |
| OE5MMP-10 | 2026-09-04 13:35:18 | 47.86677 | 13.08834 | 123° | 66km/h | 6625m | -2.3m/s | -13.9°C | 20.2% | 454.8hPa | 2.6V | 07:26:00 | 03:05:20 | 00:00:00 | |
| DG1MFX-10 | 2026-09-04 13:35:15 | 47.86695 | 13.08792 | 121° | 64km/h | 6630m | -2.7m/s | -14.0°C | 19.5% | 454.6hPa | 2.5V | 07:26:00 | 00:00:00 | 00:00:00 | |
| DO3MHA-11 | 2026-09-04 13:35:14 | 47.86710 | 13.08750 | 118° | 71km/h | 6635m | -2.6m/s | -13.9°C | 20.4% | 454.2hPa | 2.5V | 00:00:00 | 03:05:16 | 00:00:00 | |
| OE5DRO-10 | 2026-09-04 13:35:10 | 47.86737 | 13.08660 | 111° | 77km/h | 6646m | -2.8m/s | -14.1°C | 20.2% | 453.5hPa | 2.6V | 00:00:00 | 00:00:00 | 00:00:00 | |
| OE5WHR-10 | 2026-09-04 13:35:09 | 47.86743 | 13.08635 | 111° | 75km/h | 6649m | -2.8m/s | -14.1°C | 20.0% | 453.4hPa | 2.6V | 07:26:00 | 00:00:00 | 00:00:00 | |
| OE5MMP-10 | 2026-09-04 13:35:08 | 47.86750 | 13.08609 | 111° | 80km/h | 6652m | -2.8m/s | -14.1°C | 19.9% | 453.2hPa | 2.6V | 00:00:00 | 03:05:10 | 00:00:00 | |
| DO3MHA-11 | 2026-09-04 13:35:04 | 47.86780 | 13.08500 | 117° | 80km/h | 6663m | -2.6m/s | -14.1°C | 19.4% | 452.5hPa | 2.6V | 00:00:00 | 03:05:06 | 00:00:00 | |
| OE5FHM-15 | 2026-09-04 13:34:59 | 47.86834 | 13.08366 | 124° | 75km/h | 6676m | -2.9m/s | -14.0°C | 18.1% | 451.7hPa | 2.6V | 07:26:00 | 03:05:01 | 00:00:00 | |
| OE5MMP-10 | 2026-09-04 13:34:58 | 47.86845 | 13.08340 | 125° | 71km/h | 6679m | -2.9m/s | -14.0°C | 18.2% | 451.6hPa | 2.6V | 00:00:00 | 03:05:00 | 00:00:00 | |
| DG1MFX-10 | 2026-09-04 13:34:55 | 47.86868 | 13.08292 | 126° | 77km/h | 6685m | -2.9m/s | -14.1°C | 17.6% | 451.3hPa | 2.6V | 07:27:00 | 00:00:00 | 00:00:00 | |
| OE5DXL-15 | 2026-09-04 13:34:54 | 47.86889 | 13.08246 | 125° | 73km/h | 6690m | -2.6m/s | -14.1°C | 18.7% | 451.0hPa | 2.6V | 00:00:00 | 00:00:00 | 00:00:00 | |
| OE5HKT-10 | 2026-09-04 13:34:53 | 47.86899 | 13.08224 | 124° | 75km/h | 6693m | -2.8m/s | -14.1°C | 19.2% | 450.8hPa | 2.5V | 00:00:00 | 00:00:00 | 00:00:00 | |
| OE5DRO-10 | 2026-09-04 13:34:51 | 47.86917 | 13.08181 | 121° | 75km/h | 6698m | -2.9m/s | -14.1°C | 20.3% | 450.5hPa | 2.5V | 00:00:00 | 00:00:00 | 00:00:00 | |
| OE5WHR-10 | 2026-09-04 13:34:48 | 47.86940 | 13.08116 | 116° | 77km/h | 6707m | -2.9m/s | -14.2°C | 20.4% | 449.9hPa | 2.5V | 00:00:00 | 03:04:50 | 00:00:00 | |
| DO3MHA-11 | 2026-09-04 13:34:44 | 47.86968 | 13.08023 | 113° | 80km/h | 6718m | -2.7m/s | -14.4°C | 20.6% | 449.3hPa | 2.5V | 07:27:00 | 03:04:46 | 00:00:00 | |
| OE3JTB-15 | 2026-09-04 13:34:39 | 47.87005 | 13.07887 | 113° | 75km/h | 6732m | -2.9m/s | -14.5°C | 20.5% | 448.4hPa | 2.5V | 00:00:00 | 00:00:00 | 00:00:00 | |
| OE5MMP-10 | 2026-09-04 13:34:38 | 47.87013 | 13.07858 | 114° | 80km/h | 6735m | -2.7m/s | -14.5°C | 20.6% | 448.2hPa | 2.5V | 00:00:00 | 03:04:40 | 00:00:00 | |
| DO3MHA-11 | 2026-09-04 13:34:34 | 47.87051 | 13.07748 | 122° | 75km/h | 6747m | -2.9m/s | -14.5°C | 20.3% | 447.5hPa | 2.5V | 00:00:00 | 03:04:36 | 00:00:00 | |
| OE5HKT-10 | 2026-09-04 13:34:32 | 47.87073 | 13.07697 | 125° | 75km/h | 6753m | -2.9m/s | -14.5°C | 20.1% | 447.2hPa | 2.5V | 00:00:00 | 03:04:34 | 00:00:00 | |
| OE5FHM-15 | 2026-09-04 13:34:29 | 47.87108 | 13.07625 | 126° | 73km/h | 6762m | -3.0m/s | -14.5°C | 20.1% | 446.7hPa | 2.5V | 00:00:00 | 03:04:31 | 00:00:00 | |
| OE5MMP-10 | 2026-09-04 13:34:28 | 47.87119 | 13.07602 | 126° | 68km/h | 6764m | -2.9m/s | -14.6°C | 20.0% | 446.5hPa | 2.5V | 00:00:00 | 03:04:30 | 00:00:00 | |
| OE5WHR-10 | 2026-09-04 13:34:27 | 47.87129 | 13.07580 | 126° | 73km/h | 6767m | -2.8m/s | -14.6°C | 19.9% | 446.4hPa | 2.5V | 00:00:00 | 00:00:00 | 00:00:00 | |
| DO3MHA-11 | 2026-09-04 13:34:24 | 47.87156 | 13.07517 | 120° | 69km/h | 6776m | -3.0m/s | -14.7°C | 19.4% | 445.7hPa | 2.6V | 00:00:00 | 03:04:26 | 00:00:00 | |
| PG1ADW-2 | 2026-09-04 13:34:19 | 47.87190 | 13.07403 | 111° | 75km/h | 6791m | -3.0m/s | -14.9°C | 19.6% | 444.9hPa | 2.6V | 00:00:00 | 00:00:00 | 00:00:00 | |
| OE5MMP-10 | 2026-09-04 13:34:18 | 47.87196 | 13.07379 | 111° | 78km/h | 6794m | -2.9m/s | -14.9°C | 19.6% | 444.7hPa | 2.6V | 00:00:00 | 03:04:20 | 00:00:00 | |
| DO3MHA-11 | 2026-09-04 13:34:14 | 47.87224 | 13.07275 | 114° | 80km/h | 6806m | -2.7m/s | -15.1°C | 20.1% | 444.0hPa | 2.6V | 00:00:00 | 03:04:16 | 00:00:00 | |
| OE5DRO-10 | 2026-09-04 13:34:13 | 47.87233 | 13.07248 | 117° | 75km/h | 6809m | -2.8m/s | -15.0°C | 20.0% | 443.9hPa | 2.5V | 07:27:00 | 00:00:00 | 00:00:00 | |
| OE5HKT-10 | 2026-09-04 13:34:11 | 47.87252 | 13.07193 | 119° | 71km/h | 6815m | -3.0m/s | -15.1°C | 19.9% | 443.5hPa | 2.5V | 00:00:00 | 00:00:00 | 00:00:00 | |
| OE3JTB-15 | 2026-09-04 13:34:10 | 47.87262 | 13.07167 | 120° | 69km/h | 6818m | -2.9m/s | -15.1°C | 19.9% | 443.3hPa | 2.5V | 00:00:00 | 03:04:12 | 00:00:00 | |
| OE5MMP-10 | 2026-09-04 13:34:08 | 47.87283 | 13.07115 | 122° | 73km/h | 6824m | -2.8m/s | -15.1°C | 20.0% | 443.0hPa | 2.5V | 00:00:00 | 03:04:10 | 00:00:00 | |
| OE5WHR-10 | 2026-09-04 13:34:06 | 47.87304 | 13.07064 | 123° | 68km/h | 6830m | -2.9m/s | -15.2°C | 20.8% | 442.6hPa | 2.5V | 00:00:00 | 00:00:00 | 00:00:00 | |
| DO3MHA-11 | 2026-09-04 13:34:04 | 47.87325 | 13.07017 | 124° | 69km/h | 6836m | -3.0m/s | -15.2°C | 21.1% | 442.3hPa | 2.5V | 00:00:00 | 03:04:06 | 00:00:00 | |
| OE5FHM-15 | 2026-09-04 13:33:59 | 47.87374 | 13.06905 | 124° | 69km/h | 6851m | -3.0m/s | -15.3°C | 21.0% | 441.4hPa | 2.5V | 00:00:00 | 03:04:01 | 00:00:00 | |
| OE5MMP-10 | 2026-09-04 13:33:58 | 47.87384 | 13.06884 | 123° | 64km/h | 6854m | -3.2m/s | -15.3°C | 20.9% | 441.3hPa | 2.5V | 07:27:00 | 03:04:00 | 00:00:00 | |
| DO3MHA-11 | 2026-09-04 13:33:54 | 47.87419 | 13.06801 | 123° | 62km/h | 6867m | -3.3m/s | -15.4°C | 20.9% | 440.4hPa | 2.5V | 00:00:00 | 03:03:56 | 00:00:00 | |
| DG1MFX-10 | 2026-09-04 13:33:53 | 47.87419 | 13.06801 | 124° | 64km/h | 6867m | -3.3m/s | -15.4°C | 20.2% | 440.5hPa | 2.5V | 07:28:00 | 00:00:00 | 00:00:00 | |
| OE5HKT-10 | 2026-09-04 13:33:50 | 47.87453 | 13.06721 | 119° | 68km/h | 6881m | -3.3m/s | -15.5°C | 21.2% | 439.7hPa | 2.5V | 07:27:00 | 00:00:00 | 00:00:00 | |
| OE5MMP-10 | 2026-09-04 13:33:48 | 47.87467 | 13.06680 | 115° | 71km/h | 6887m | -3.2m/s | -15.5°C | 21.0% | 439.3hPa | 2.5V | 00:00:00 | 03:03:50 | 00:00:00 | |
| OE5WHR-10 | 2026-09-04 13:33:45 | 47.87484 | 13.06614 | 109° | 71km/h | 6897m | -3.2m/s | -15.6°C | 20.6% | 438.7hPa | 2.6V | 00:00:00 | 03:03:47 | 00:00:00 | |
| DO3MHA-11 | 2026-09-04 13:33:44 | 47.87489 | 13.06590 | 108° | 77km/h | 6900m | -3.1m/s | -15.7°C | 20.6% | 438.6hPa | 2.6V | 00:00:00 | 03:03:46 | 00:00:00 | |
| OE3JTB-15 | 2026-09-04 13:33:41 | 47.87507 | 13.06512 | 112° | 71km/h | 6909m | -3.2m/s | -15.7°C | 20.1% | 438.1hPa | 2.6V | 07:28:00 | 00:00:00 | 00:00:00 | |
| PG1ADW-2 | 2026-09-04 13:33:39 | 47.87523 | 13.06458 | 116° | 69km/h | 6916m | -3.2m/s | -15.7°C | 20.0% | 437.7hPa | 2.6V | 00:00:00 | 00:00:00 | 00:00:00 | |
| OE5MMP-10 | 2026-09-04 13:33:38 | 47.87532 | 13.06431 | 118° | 75km/h | 6919m | -3.2m/s | -15.7°C | 19.8% | 437.4hPa | 2.6V | 00:00:00 | 03:03:40 | 00:00:00 | |
| DO3MHA-11 | 2026-09-04 13:33:34 | 47.87572 | 13.06330 | 123° | 68km/h | 6932m | -3.4m/s | -15.8°C | 19.7% | 436.8hPa | 2.6V | 00:00:00 | 03:03:36 | 00:00:00 | |
| DG1MFX-10 | 2026-09-04 13:33:33 | 47.87572 | 13.06330 | 124° | 77km/h | 6932m | -3.5m/s | -15.8°C | 18.9% | 436.8hPa | 2.6V | 07:28:00 | 00:00:00 | 00:00:00 | |
| OE5FHM-15 | 2026-09-04 13:33:29 | 47.87622 | 13.06218 | 124° | 69km/h | 6948m | -3.2m/s | -15.9°C | 19.8% | 435.8hPa | 2.6V | 00:00:00 | 03:03:31 | 00:00:00 | |
| OE5MMP-10 | 2026-09-04 13:33:28 | 47.87631 | 13.06198 | 123° | 64km/h | 6951m | -3.1m/s | -15.9°C | 20.0% | 435.6hPa | 2.6V | 00:00:00 | 03:03:30 | 00:00:00 | |
| OE5DXL-15 | 2026-09-04 13:33:24 | 47.87660 | 13.06119 | 116° | 71km/h | 6964m | -3.2m/s | -16.0°C | 20.3% | 434.9hPa | 2.6V | 00:00:00 | 00:00:00 | 00:00:00 | |
| PG1ADW-2 | 2026-09-04 13:33:19 | 47.87690 | 13.06000 | 110° | 71km/h | 6980m | -3.3m/s | -16.2°C | 20.4% | 433.9hPa | 2.6V | 00:00:00 | 00:00:00 | 00:00:00 | |
| OE5MMP-10 | 2026-09-04 13:33:18 | 47.87697 | 13.05974 | 110° | 78km/h | 6984m | -3.3m/s | -16.2°C | 20.3% | 433.7hPa | 2.6V | 00:00:00 | 03:03:20 | 00:00:00 | |
| OE5DRO-10 | 2026-09-04 13:33:16 | 47.87710 | 13.05921 | 113° | 71km/h | 6990m | -3.1m/s | -16.3°C | 20.3% | 433.4hPa | 2.6V | 00:00:00 | 00:00:00 | 00:00:00 | |
| DO3MHA-11 | 2026-09-04 13:33:14 | 47.87727 | 13.05867 | 117° | 75km/h | 6996m | -3.0m/s | -16.2°C | 20.3% | 433.0hPa | 2.6V | 00:00:00 | 03:03:16 | 00:00:00 | |
| OE3JTB-15 | 2026-09-04 13:33:12 | 47.87746 | 13.05815 | 121° | 73km/h | 7002m | -3.2m/s | -16.2°C | 20.4% | 432.6hPa | 2.5V | 00:00:00 | 00:00:00 | 00:00:00 | |
| OE5MMP-10 | 2026-09-04 13:33:08 | 47.87788 | 13.05716 | 124° | 66km/h | 7016m | -3.2m/s | -16.2°C | 19.6% | 431.8hPa | 2.5V | 00:00:00 | 03:03:10 | 00:00:00 | |
| DO3MHA-11 | 2026-09-04 13:33:04 | 47.87827 | 13.05629 | 122° | 64km/h | 7029m | -3.2m/s | -16.3°C | 19.5% | 431.1hPa | 2.5V | 00:00:00 | 03:03:06 | 00:00:00 | |
| OE5WHR-10 | 2026-09-04 13:33:03 | 47.87835 | 13.05609 | 121° | 73km/h | 7032m | -3.1m/s | -16.3°C | 19.4% | 430.9hPa | 2.5V | 00:00:00 | 00:00:00 | 00:00:00 | |
| OE5HKT-10 | 2026-09-04 13:33:00 | 47.87857 | 13.05549 | 117° | 71km/h | 7042m | -3.4m/s | -16.4°C | 19.6% | 430.3hPa | 2.5V | 00:00:00 | 03:03:02 | 00:00:00 | |
| OE5FHM-15 | 2026-09-04 13:32:59 | 47.87864 | 13.05528 | 116° | 71km/h | 7045m | -3.3m/s | -16.4°C | 19.7% | 430.1hPa | 2.5V | 00:00:00 | 03:03:01 | 00:00:00 | |
| OE5MMP-10 | 2026-09-04 13:32:58 | 47.87870 | 13.05506 | 114° | 75km/h | 7049m | -3.3m/s | -16.5°C | 19.7% | 430.0hPa | 2.5V | 00:00:00 | 03:03:00 | 00:00:00 | |
| OE5DRO-10 | 2026-09-04 13:32:57 | 47.87877 | 13.05483 | 112° | 77km/h | 7052m | -3.0m/s | -16.6°C | 19.9% | 429.8hPa | 2.5V | 00:00:00 | 00:00:00 | 00:00:00 | |
| OE5DXL-15 | 2026-09-04 13:32:54 | 47.87896 | 13.05407 | 111° | 73km/h | 7061m | -3.2m/s | -16.6°C | 21.7% | 429.2hPa | 2.5V | 00:00:00 | 00:00:00 | 00:00:00 | |
| DG1MFX-10 | 2026-09-04 13:32:52 | 47.87903 | 13.05380 | 112° | 77km/h | 7065m | -3.3m/s | -16.7°C | 21.0% | 429.1hPa | 2.5V | 07:29:00 | 00:00:00 | 00:00:00 | |
| OE5MMP-10 | 2026-09-04 13:32:48 | 47.87943 | 13.05245 | 118° | 77km/h | 7082m | -3.5m/s | -16.7°C | 22.4% | 428.1hPa | 2.5V | 00:00:00 | 03:02:50 | 00:00:00 | |
| DO3MHA-11 | 2026-09-04 13:32:44 | 47.87986 | 13.05139 | 123° | 68km/h | 7096m | -3.4m/s | -16.7°C | 22.5% | 427.3hPa | 2.6V | 00:00:00 | 03:02:46 | 00:00:00 | |
| OE3JTB-15 | 2026-09-04 13:32:43 | 47.87997 | 13.05114 | 124° | 73km/h | 7099m | -3.4m/s | -16.8°C | 22.6% | 427.1hPa | 2.6V | 00:00:00 | 03:02:45 | 00:00:00 | |
| OE5WHR-10 | 2026-09-04 13:32:42 | 47.88008 | 13.05090 | 125° | 71km/h | 7102m | -3.3m/s | -16.8°C | 22.7% | 426.9hPa | 2.6V | 00:00:00 | 03:02:44 | 00:00:00 | |
| PG1ADW-2 | 2026-09-04 13:32:39 | 47.88037 | 13.05026 | 123° | 71km/h | 7112m | -3.3m/s | -16.9°C | 22.7% | 426.4hPa | 2.6V | 00:00:00 | 03:02:41 | 00:00:00 | |
| OE5MMP-10 | 2026-09-04 13:32:38 | 47.88045 | 13.05006 | 121° | 66km/h | 7116m | -3.4m/s | -16.9°C | 22.6% | 426.2hPa | 2.6V | 07:29:00 | 03:02:40 | 00:00:00 | |
| DO3MHA-11 | 2026-09-04 13:32:34 | 47.88075 | 13.04924 | 115° | 73km/h | 7129m | -3.3m/s | -17.0°C | 22.7% | 425.4hPa | 2.6V | 00:00:00 | 03:02:36 | 00:00:00 | |
| DG1MFX-10 | 2026-09-04 13:32:31 | 47.88087 | 13.04879 | 112° | 68km/h | 7136m | -3.4m/s | -17.1°C | 22.0% | 425.0hPa | 2.6V | 07:29:00 | 00:00:00 | 00:00:00 | |
| OE5FHM-15 | 2026-09-04 13:32:29 | 47.88106 | 13.04803 | 112° | 73km/h | 7146m | -3.3m/s | -17.2°C | 22.6% | 424.4hPa | 2.6V | 00:00:00 | 03:02:31 | 00:00:00 | |
| OE5MMP-10 | 2026-09-04 13:32:28 | 47.88113 | 13.04777 | 113° | 78km/h | 7149m | -3.2m/s | -17.2°C | 22.5% | 424.2hPa | 2.6V | 00:00:00 | 03:02:30 | 00:00:00 | |
| NBG1-10 | 2026-09-04 13:32:25 | 47.88138 | 13.04694 | 117° | 80km/h | 7159m | -3.4m/s | -17.3°C | 22.2% | 423.7hPa | 2.6V | 07:29:00 | 03:02:27 | 00:00:00 | |
| DO3MHA-11 | 2026-09-04 13:32:24 | 47.88148 | 13.04667 | 119° | 77km/h | 7163m | -3.2m/s | -17.3°C | 22.3% | 423.5hPa | 2.5V | 00:00:00 | 03:02:26 | 00:00:00 | |
| OE5WHR-10 | 2026-09-04 13:32:21 | 47.88178 | 13.04588 | 123° | 69km/h | 7173m | -3.1m/s | -17.4°C | 22.3% | 422.9hPa | 2.5V | 07:29:00 | 00:00:00 | 00:00:00 | |
| DB0NH | 2026-09-04 13:32:20 | 47.88189 | 13.04564 | 124° | 75km/h | 7176m | -3.3m/s | -17.4°C | 22.2% | 422.8hPa | 2.6V | 00:00:00 | 03:02:22 | 00:00:00 | |
| PG1ADW-2 | 2026-09-04 13:32:19 | 47.88200 | 13.04540 | 125° | 69km/h | 7179m | -3.4m/s | -17.4°C | 22.2% | 422.5hPa | 2.6V | 00:00:00 | 00:00:00 | 00:00:00 | |
| OE5MMP-10 | 2026-09-04 13:32:18 | 47.88210 | 13.04517 | 126° | 68km/h | 7183m | -3.4m/s | -17.4°C | 22.2% | 422.3hPa | 2.6V | 00:00:00 | 03:02:20 | 00:00:00 | |
| OE3JTB-15 | 2026-09-04 13:32:14 | 47.88253 | 13.04429 | 125° | 71km/h | 7196m | -3.2m/s | -17.5°C | 22.4% | 421.6hPa | 2.6V | 00:00:00 | 00:00:00 | 00:00:00 | |
| OE5HKT-10 | 2026-09-04 13:32:12 | 47.88271 | 13.04388 | 123° | 73km/h | 7203m | -3.5m/s | -17.6°C | 22.4% | 421.2hPa | 2.6V | 00:00:00 | 00:00:00 | 00:00:00 | |
| DG1MFX-10 | 2026-09-04 13:32:11 | 47.88271 | 13.04388 | 123° | 64km/h | 7203m | -3.6m/s | -17.6°C | 21.5% | 421.3hPa | 2.6V | 07:29:00 | 00:00:00 | 00:00:00 | |
| OE5MMP-10 | 2026-09-04 13:32:08 | 47.88301 | 13.04306 | 117° | 71km/h | 7217m | -3.3m/s | -17.7°C | 22.3% | 420.4hPa | 2.6V | 00:00:00 | 03:02:10 | 00:00:00 | |
| DO3MHA-11 | 2026-09-04 13:32:04 | 47.88327 | 13.04212 | 111° | 78km/h | 7230m | -3.4m/s | -17.9°C | 22.0% | 419.7hPa | 2.6V | 07:29:00 | 03:02:06 | 00:00:00 | |
| DL6DJ-15 | 2026-09-04 13:32:01 | 47.88502 | 13.03771 | 126° | 66km/h | 7291m | -3.5m/s | -18.2°C | 19.4% | 416.3hPa | 2.6V | 00:00:00 | 00:00:00 | 00:00:00 | |
| OE5WHR-10 | 2026-09-04 13:32:00 | 47.88355 | 13.04107 | 116° | 71km/h | 7243m | -3.2m/s | -18.0°C | 21.1% | 418.9hPa | 2.6V | 00:00:00 | 00:00:00 | 00:00:00 | |
| OE5FHM-15 | 2026-09-04 13:31:59 | 47.88364 | 13.04080 | 117° | 73km/h | 7247m | -3.2m/s | -18.0°C | 21.1% | 418.8hPa | 2.6V | 00:00:00 | 03:02:01 | 00:00:00 | |
| OE5MMP-10 | 2026-09-04 13:31:58 | 47.88373 | 13.04054 | 119° | 77km/h | 7250m | -3.3m/s | -18.0°C | 21.0% | 418.6hPa | 2.5V | 00:00:00 | 03:02:00 | 00:00:00 | |
| DO3MHA-11 | 2026-09-04 13:31:54 | 47.88415 | 13.03949 | 123° | 73km/h | 7264m | -3.4m/s | -18.0°C | 20.5% | 417.8hPa | 2.5V | 00:00:00 | 03:01:56 | 00:00:00 | |
| NBG1-10 | 2026-09-04 13:31:52 | 47.88436 | 13.03901 | 126° | 71km/h | 7270m | -3.4m/s | -18.1°C | 20.3% | 417.4hPa | 2.5V | 00:00:00 | 03:01:54 | 00:00:00 | |
| OE5HKT-10 | 2026-09-04 13:31:51 | 47.88448 | 13.03878 | 127° | 69km/h | 7274m | -3.6m/s | -18.1°C | 20.3% | 417.2hPa | 2.5V | 00:00:00 | 00:00:00 | 00:00:00 | |
| DB0NH | 2026-09-04 13:31:50 | 47.88459 | 13.03856 | 127° | 66km/h | 7277m | -3.3m/s | -18.1°C | 20.3% | 417.1hPa | 2.5V | 00:00:00 | 03:01:52 | 00:00:00 | |
| OE5MMP-10 | 2026-09-04 13:31:48 | 47.88481 | 13.03812 | 128° | 64km/h | 7284m | -3.2m/s | -18.1°C | 20.2% | 416.6hPa | 2.6V | 00:00:00 | 03:01:50 | 00:00:00 | |
| OE3JTB-15 | 2026-09-04 13:31:45 | 47.88511 | 13.03751 | 126° | 69km/h | 7294m | -3.6m/s | -18.2°C | 20.2% | 416.1hPa | 2.5V | 00:00:00 | 00:00:00 | 00:00:00 | |
| DO3MHA-11 | 2026-09-04 13:31:44 | 47.88520 | 13.03731 | 123° | 66km/h | 7298m | -3.4m/s | -18.2°C | 20.3% | 415.9hPa | 2.5V | 00:00:00 | 03:01:46 | 00:00:00 | |
| OE5DRO-10 | 2026-09-04 13:31:41 | 47.88543 | 13.03671 | 117° | 75km/h | 7308m | -3.4m/s | -18.3°C | 19.9% | 415.3hPa | 2.6V | 07:30:00 | 00:00:00 | 00:00:00 | |
| OE5WHR-10 | 2026-09-04 13:31:39 | 47.88557 | 13.03628 | 115° | 73km/h | 7315m | -3.4m/s | -18.4°C | 20.2% | 415.0hPa | 2.6V | 00:00:00 | 03:01:41 | 00:00:00 | |
| OE5MMP-10 | 2026-09-04 13:31:38 | 47.88564 | 13.03605 | 114° | 77km/h | 7318m | -3.2m/s | -18.5°C | 20.1% | 414.8hPa | 2.6V | 00:00:00 | 03:01:40 | 00:00:00 | |
| DO3MHA-11 | 2026-09-04 13:31:34 | 47.88592 | 13.03503 | 113° | 78km/h | 7332m | -3.5m/s | -18.6°C | 20.0% | 414.0hPa | 2.6V | 00:00:00 | 03:01:36 | 00:00:00 | |
| DG1MFX-10 | 2026-09-04 13:31:30 | 47.88617 | 13.03423 | 119° | 80km/h | 7342m | -3.5m/s | -18.6°C | 19.1% | 413.5hPa | 2.6V | 07:30:00 | 00:00:00 | 00:00:00 | |
| OE5FHM-15 | 2026-09-04 13:31:29 | 47.88637 | 13.03370 | 123° | 73km/h | 7349m | -3.3m/s | -18.6°C | 20.1% | 413.1hPa | 2.6V | 00:00:00 | 03:01:31 | 00:00:00 | |
| OE5MMP-10 | 2026-09-04 13:31:28 | 47.88648 | 13.03345 | 125° | 71km/h | 7352m | -3.5m/s | -18.6°C | 20.0% | 412.9hPa | 2.6V | 00:00:00 | 03:01:30 | 00:00:00 | |
| OE5DXL-15 | 2026-09-04 13:31:24 | 47.88695 | 13.03252 | 128° | 69km/h | 7366m | -3.4m/s | -18.7°C | 20.0% | 412.1hPa | 2.6V | 00:00:00 | 00:00:00 | 00:00:00 | |
| OE5DRO-10 | 2026-09-04 13:31:22 | 47.88716 | 13.03209 | 128° | 69km/h | 7373m | -3.2m/s | -18.8°C | 19.9% | 411.8hPa | 2.6V | 00:00:00 | 00:00:00 | 00:00:00 | |
| DB0NH | 2026-09-04 13:31:20 | 47.88736 | 13.03170 | 126° | 69km/h | 7379m | -3.6m/s | -18.8°C | 19.8% | 411.3hPa | 2.6V | 07:30:00 | 03:01:22 | 00:00:00 | |
| NBG1-10 | 2026-09-04 13:31:19 | 47.88745 | 13.03151 | 124° | 66km/h | 7383m | -3.7m/s | -18.8°C | 19.6% | 411.2hPa | 2.6V | 00:00:00 | 03:01:21 | 00:00:00 | |
| OE5WHR-10 | 2026-09-04 13:31:18 | 47.88753 | 13.03132 | 123° | 71km/h | 7387m | -3.6m/s | -18.8°C | 19.6% | 410.9hPa | 2.6V | 00:00:00 | 00:00:00 | 00:00:00 | |
| OE3JTB-15 | 2026-09-04 13:31:16 | 47.88769 | 13.03092 | 120° | 69km/h | 7394m | -3.4m/s | -18.8°C | 19.4% | 410.5hPa | 2.5V | 00:00:00 | 03:01:18 | 00:00:00 | |
| DO3MHA-11 | 2026-09-04 13:31:14 | 47.88783 | 13.03051 | 115° | 75km/h | 7400m | -3.3m/s | -18.9°C | 19.3% | 410.2hPa | 2.5V | 00:00:00 | 03:01:16 | 00:00:00 | |
| DG1MFX-10 | 2026-09-04 13:31:09 | 47.88812 | 13.02951 | 115° | 77km/h | 7414m | -3.3m/s | -19.1°C | 18.4% | 409.5hPa | 2.5V | 07:30:00 | 00:00:00 | 00:00:00 | |
| OE5MMP-10 | 2026-09-04 13:31:08 | 47.88829 | 13.02898 | 117° | 77km/h | 7420m | -3.3m/s | -19.1°C | 19.2% | 409.1hPa | 2.5V | 00:00:00 | 03:01:10 | 00:00:00 | |
| DO3MHA-11 | 2026-09-04 13:31:04 | 47.88870 | 13.02796 | 126° | 69km/h | 7434m | -3.2m/s | -19.1°C | 19.1% | 408.3hPa | 2.5V | 00:00:00 | 03:01:06 | 00:00:00 | |
| OE5DRO-10 | 2026-09-04 13:31:03 | 47.88881 | 13.02772 | 127° | 66km/h | 7437m | -3.4m/s | -19.1°C | 19.0% | 408.2hPa | 2.5V | 00:00:00 | 00:00:00 | 00:00:00 | |
| OE5FHM-15 | 2026-09-04 13:30:59 | 47.88927 | 13.02685 | 128° | 68km/h | 7451m | -3.5m/s | -19.2°C | 18.7% | 407.4hPa | 2.5V | 07:30:00 | 03:01:01 | 00:00:00 | |
| OE5MMP-10 | 2026-09-04 13:30:58 | 47.88937 | 13.02664 | 128° | 62km/h | 7454m | -3.3m/s | -19.2°C | 18.3% | 407.2hPa | 2.5V | 00:00:00 | 03:01:00 | 00:00:00 | |
| OE5WHR-10 | 2026-09-04 13:30:57 | 47.88947 | 13.02644 | 128° | 68km/h | 7457m | -3.3m/s | -19.2°C | 18.2% | 407.0hPa | 2.5V | 00:00:00 | 00:00:00 | 00:00:00 | |
| DO3MHA-11 | 2026-09-04 13:30:54 | 47.88975 | 13.02587 | 125° | 62km/h | 7468m | -3.4m/s | -19.3°C | 18.3% | 406.5hPa | 2.5V | 00:00:00 | 03:00:56 | 00:00:00 | |
| DB0NH | 2026-09-04 13:30:50 | 47.89006 | 13.02509 | 116° | 69km/h | 7481m | -3.2m/s | -19.4°C | 18.6% | 405.8hPa | 2.5V | 00:00:00 | 03:00:52 | 00:00:00 | |
| DG1MFX-10 | 2026-09-04 13:30:49 | 47.89006 | 13.02509 | 117° | 60km/h | 7481m | -3.3m/s | -19.5°C | 17.7% | 405.8hPa | 2.5V | 07:31:00 | 00:00:00 | 00:00:00 | |
| OE5MMP-10 | 2026-09-04 13:30:48 | 47.89019 | 13.02466 | 113° | 71km/h | 7488m | -3.5m/s | -19.5°C | 18.4% | 405.3hPa | 2.5V | 00:00:00 | 03:00:50 | 00:00:00 | |
| OE3JTB-15 | 2026-09-04 13:30:47 | 47.89025 | 13.02444 | 112° | 69km/h | 7492m | -3.4m/s | -19.6°C | 18.2% | 405.2hPa | 2.6V | 00:00:00 | 00:00:00 | 00:00:00 | |
| NBG1-10 | 2026-09-04 13:30:44 | 47.89043 | 13.02374 | 112° | 71km/h | 7502m | -3.4m/s | -19.6°C | 17.6% | 404.6hPa | 2.5V | 00:00:00 | 03:00:46 | 00:00:00 | |
| PG1ADW-2 | 2026-09-04 13:30:39 | 47.89087 | 13.02246 | 123° | 68km/h | 7519m | -3.2m/s | -19.7°C | 17.3% | 403.7hPa | 2.5V | 00:00:00 | 00:00:00 | 00:00:00 | |
| OE5MMP-10 | 2026-09-04 13:30:38 | 47.89098 | 13.02222 | 125° | 68km/h | 7522m | -3.2m/s | -19.7°C | 17.2% | 403.5hPa | 2.5V | 00:00:00 | 03:00:40 | 00:00:00 | |
| OE5WHR-10 | 2026-09-04 13:30:36 | 47.89120 | 13.02175 | 127° | 68km/h | 7529m | -3.4m/s | -19.7°C | 17.4% | 403.2hPa | 2.5V | 00:00:00 | 03:00:38 | 00:00:00 | |
| DO3MHA-11 | 2026-09-04 13:30:34 | 47.89142 | 13.02131 | 128° | 62km/h | 7536m | -3.2m/s | -19.8°C | 17.4% | 402.8hPa | 2.5V | 00:00:00 | 03:00:36 | 00:00:00 | |
| OE5FHM-15 | 2026-09-04 13:30:29 | 47.89188 | 13.02034 | 119° | 71km/h | 7552m | -3.2m/s | -19.9°C | 17.2% | 402.0hPa | 2.5V | 00:00:00 | 03:00:31 | 00:00:00 | |
| OE5MMP-10 | 2026-09-04 13:30:28 | 47.89195 | 13.02014 | 117° | 68km/h | 7555m | -3.4m/s | -20.0°C | 17.0% | 401.7hPa | 2.5V | 00:00:00 | 03:00:30 | 00:00:00 | |
| OE5HKT-10 | 2026-09-04 13:30:26 | 47.89208 | 13.01973 | 115° | 75km/h | 7562m | -3.3m/s | -20.1°C | 16.7% | 401.4hPa | 2.5V | 00:00:00 | 03:00:28 | 00:00:00 | |
| OE5DXL-15 | 2026-09-04 13:30:24 | 47.89221 | 13.01929 | 114° | 71km/h | 7568m | -3.1m/s | -20.2°C | 16.4% | 401.0hPa | 2.5V | 07:31:00 | 00:00:00 | 00:00:00 | |
| PG1ADW-2 | 2026-09-04 13:30:19 | 47.89257 | 13.01805 | 115° | 73km/h | 7585m | -3.2m/s | -20.3°C | 16.2% | 400.1hPa | 2.5V | 00:00:00 | 00:00:00 | 00:00:00 | |
| OE5MMP-10 | 2026-09-04 13:30:18 | 47.89265 | 13.01780 | 116° | 78km/h | 7588m | -3.1m/s | -20.3°C | 16.1% | 400.0hPa | 2.5V | 00:00:00 | 03:00:20 | 00:00:00 | |
| OE5WHR-10 | 2026-09-04 13:30:15 | 47.89291 | 13.01701 | 118° | 69km/h | 7598m | -3.4m/s | -20.3°C | 16.0% | 399.5hPa | 2.6V | 00:00:00 | 00:00:00 | 00:00:00 | |
| DO3MHA-11 | 2026-09-04 13:30:14 | 47.89301 | 13.01675 | 119° | 77km/h | 7601m | -3.3m/s | -20.3°C | 15.8% | 399.2hPa | 2.5V | 00:00:00 | 03:00:16 | 00:00:00 | |
| NBG1-10 | 2026-09-04 13:30:11 | 47.89331 | 13.01598 | 124° | 68km/h | 7611m | -3.5m/s | -20.4°C | 15.4% | 398.7hPa | 2.6V | 00:00:00 | 03:00:13 | 00:00:00 | |
| OE5MMP-10 | 2026-09-04 13:30:08 | 47.89365 | 13.01528 | 128° | 66km/h | 7622m | -3.4m/s | -20.4°C | 15.3% | 398.1hPa | 2.6V | 00:00:00 | 03:00:10 | 00:00:00 | |
| OE5HKT-10 | 2026-09-04 13:30:05 | 47.89399 | 13.01463 | 129° | 69km/h | 7632m | -3.4m/s | -20.4°C | 15.2% | 397.6hPa | 2.6V | 07:31:00 | 00:00:00 | 00:00:00 | |
| DO3MHA-11 | 2026-09-04 13:30:04 | 47.89410 | 13.01443 | 129° | 62km/h | 7635m | -3.3m/s | -20.4°C | 15.3% | 397.4hPa | 2.5V | 00:00:00 | 03:00:06 | 00:00:00 | |
| OE5DRO-10 | 2026-09-04 13:30:03 | 47.89439 | 13.01385 | 125° | 75km/h | 7645m | -3.2m/s | -20.4°C | 15.3% | 396.9hPa | 2.5V | 00:00:00 | 00:00:00 | 00:00:00 | |
| OE5FHM-15 | 2026-09-04 13:29:59 | 47.89455 | 13.01347 | 122° | 68km/h | 7652m | -3.4m/s | -20.4°C | 15.4% | 396.5hPa | 2.5V | 00:00:00 | 03:00:01 | 00:00:00 | |
| OE5MMP-10 | 2026-09-04 13:29:58 | 47.89463 | 13.01328 | 120° | 69km/h | 7655m | -3.3m/s | -20.4°C | 15.4% | 396.3hPa | 2.5V | 07:31:00 | 03:00:00 | 00:00:00 | |
| OE5WHR-10 | 2026-09-04 13:29:54 | 47.89490 | 13.01244 | 114° | 71km/h | 7668m | -3.4m/s | -20.6°C | 15.6% | 395.6hPa | 2.5V | 00:00:00 | 00:00:00 | 00:00:00 | |
| DB0NH | 2026-09-04 13:29:49 | 47.89530 | 13.01116 | 120° | 69km/h | 7685m | -3.2m/s | -20.6°C | 15.6% | 394.7hPa | 2.5V | 00:00:00 | 02:59:51 | 00:00:00 | |
| OE5MMP-10 | 2026-09-04 13:29:48 | 47.89540 | 13.01089 | 121° | 73km/h | 7688m | -3.4m/s | -20.6°C | 15.6% | 394.5hPa | 2.5V | 00:00:00 | 02:59:50 | 00:00:00 | |
| DG1MFX-10 | 2026-09-04 13:29:47 | 47.89540 | 13.01089 | 122° | 80km/h | 7688m | -3.5m/s | -20.7°C | 14.7% | 394.5hPa | 2.6V | 07:32:00 | 00:00:00 | 00:00:00 | |
| OE5DRO-10 | 2026-09-04 13:29:45 | 47.89584 | 13.00990 | 127° | 64km/h | 7701m | -3.1m/s | -20.8°C | 15.6% | 393.9hPa | 2.6V | 00:00:00 | 00:00:00 | 00:00:00 | |
| DO3MHA-11 | 2026-09-04 13:29:44 | 47.89584 | 13.00990 | 127° | 68km/h | 7701m | -3.1m/s | -20.8°C | 15.6% | 393.9hPa | 2.6V | 00:00:00 | 02:59:46 | 00:00:00 | |
| DO3MHA-11 | 2026-09-04 13:29:39 | 47.89635 | 13.00889 | 126° | 62km/h | 7717m | -3.2m/s | -20.8°C | 16.1% | 393.0hPa | 2.6V | 00:00:00 | 02:59:41 | 00:00:00 | |
| OE5MMP-10 | 2026-09-04 13:29:38 | 47.89644 | 13.00870 | 125° | 62km/h | 7720m | -3.0m/s | -20.8°C | 16.3% | 392.9hPa | 2.6V | 00:00:00 | 02:59:40 | 00:00:00 | |
| DO3MHA-11 | 2026-09-04 13:29:34 | 47.89675 | 13.00790 | 117° | 62km/h | 7733m | -3.3m/s | -21.0°C | 16.2% | 392.2hPa | 2.6V | 07:32:00 | 02:59:36 | 00:00:00 | |
| OE5WHR-10 | 2026-09-04 13:29:33 | 47.89682 | 13.00770 | 116° | 69km/h | 7736m | -3.1m/s | -21.0°C | 15.8% | 392.0hPa | 2.6V | 07:32:00 | 02:59:35 | 00:00:00 | |
| OE5FHM-15 | 2026-09-04 13:29:29 | 47.89706 | 13.00684 | 112° | 68km/h | 7750m | -3.3m/s | -21.2°C | 15.1% | 391.3hPa | 2.6V | 00:00:00 | 02:59:31 | 00:00:00 | |
| DO3MHA-11 | 2026-09-04 13:29:28 | 47.89712 | 13.00662 | 111° | 73km/h | 7753m | -3.4m/s | -21.2°C | 14.9% | 391.1hPa | 2.6V | 00:00:00 | 02:59:30 | 00:00:00 | |
| NBG1-10 | 2026-09-04 13:29:27 | 47.89718 | 13.00638 | 111° | 73km/h | 7756m | -3.2m/s | -21.2°C | 14.7% | 391.0hPa | 2.5V | 00:00:00 | 02:59:29 | 00:00:00 | |
| OE5DRO-10 | 2026-09-04 13:29:25 | 47.89730 | 13.00590 | 112° | 69km/h | 7763m | -3.2m/s | -21.3°C | 14.4% | 390.6hPa | 2.5V | 00:00:00 | 00:00:00 | 00:00:00 | |
| OE5DXL-15 | 2026-09-04 13:29:24 | 47.89737 | 13.00565 | 114° | 69km/h | 7766m | -3.1m/s | -21.3°C | 14.5% | 390.4hPa | 2.5V | 00:00:00 | 00:00:00 | 00:00:00 | |
| OE5HKT-10 | 2026-09-04 13:29:22 | 47.89754 | 13.00513 | 118° | 69km/h | 7772m | -3.1m/s | -21.3°C | 14.4% | 390.1hPa | 2.5V | 00:00:00 | 02:59:24 | 00:00:00 | |
| OE3JTB-15 | 2026-09-04 13:29:20 | 47.89773 | 13.00462 | 121° | 68km/h | 7778m | -3.2m/s | -21.4°C | 14.2% | 389.8hPa | 2.5V | 00:00:00 | 00:00:00 | 00:00:00 | |
| DB0NH | 2026-09-04 13:29:19 | 47.89783 | 13.00437 | 122° | 69km/h | 7781m | -3.1m/s | 0°C | 0% | 0hPa | 2.6V | 00:00:00 | 02:59:21 | 00:00:00 | |
| OE5MMP-10 | 2026-09-04 13:29:18 | 47.89793 | 13.00412 | 123° | 68km/h | 7785m | -3.2m/s | -21.4°C | 13.8% | 389.4hPa | 2.6V | 00:00:00 | 02:59:20 | 00:00:00 | |
| OE5WHR-10 | 2026-09-04 13:29:12 | 47.89856 | 13.00282 | 126° | 66km/h | 7803m | -3.1m/s | -21.6°C | 13.4% | 388.5hPa | 2.6V | 00:00:00 | 00:00:00 | 00:00:00 | |
| DO3MHA-11 | 2026-09-04 13:29:08 | 47.89888 | 13.00203 | 116° | 62km/h | 7815m | -3.1m/s | -21.7°C | 12.7% | 387.8hPa | 2.6V | 00:00:00 | 02:59:10 | 00:00:00 | |
| DG1MFX-10 | 2026-09-04 13:29:07 | 47.89894 | 13.00182 | 114° | 60km/h | 7818m | -3.1m/s | -21.7°C | 11.7% | 387.7hPa | 2.6V | 07:33:00 | 00:00:00 | 00:00:00 | |
| OE5DRO-10 | 2026-09-04 13:29:06 | 47.89900 | 13.00161 | 113° | 71km/h | 7822m | -3.2m/s | -21.7°C | 12.5% | 387.5hPa | 2.6V | 07:32:00 | 00:00:00 | 00:00:00 | |
| OE5FHM-15 | 2026-09-04 13:28:59 | 47.89938 | 13.00006 | 109° | 69km/h | 7844m | -3.0m/s | -21.9°C | 12.4% | 386.3hPa | 2.6V | 00:00:00 | 02:59:01 | 00:00:00 | |
| DO3MHA-11 | 2026-09-04 13:28:58 | 47.89944 | 12.99982 | 110° | 73km/h | 7847m | -2.9m/s | -21.9°C | 12.4% | 386.2hPa | 2.6V | 00:00:00 | 02:59:00 | 00:00:00 | |
| NBG1-10 | 2026-09-04 13:28:54 | 47.89971 | 12.99878 | 114° | 75km/h | 7859m | -3.1m/s | -22.0°C | 12.2% | 385.5hPa | 2.6V | 00:00:00 | 02:58:56 | 00:00:00 | |
| DO3MHA-11 | 2026-09-04 13:28:53 | 47.89979 | 12.99851 | 115° | 78km/h | 7863m | -3.2m/s | -22.0°C | 12.1% | 385.3hPa | 2.5V | 00:00:00 | 02:58:55 | 00:00:00 | |
| OE5WHR-10 | 2026-09-04 13:28:51 | 47.89996 | 12.99798 | 116° | 69km/h | 7869m | -3.2m/s | -22.0°C | 11.9% | 385.0hPa | 2.5V | 00:00:00 | 00:00:00 | 00:00:00 | |
| DB0NH | 2026-09-04 13:28:49 | 47.90014 | 12.99745 | 120° | 77km/h | 7875m | -3.3m/s | 0°C | 0% | 0hPa | 2.5V | 00:00:00 | 02:58:51 | 00:00:00 | |
| OE5MMP-10 | 2026-09-04 13:28:48 | 47.90024 | 12.99720 | 121° | 71km/h | 7878m | -3.1m/s | -22.0°C | 11.8% | 384.5hPa | 2.5V | 00:00:00 | 02:58:50 | 00:00:00 | |
| OE5DRO-10 | 2026-09-04 13:28:47 | 47.90034 | 12.99695 | 123° | 68km/h | 7882m | -3.2m/s | -22.0°C | 11.7% | 384.3hPa | 2.6V | 00:00:00 | 00:00:00 | 00:00:00 | |
| DG1MFX-10 | 2026-09-04 13:28:45 | 47.90045 | 12.99671 | 125° | 75km/h | 7885m | -3.2m/s | -22.1°C | 10.9% | 384.3hPa | 2.5V | 07:33:00 | 00:00:00 | 00:00:00 | |
| DO3MHA-11 | 2026-09-04 13:28:43 | 47.90077 | 12.99602 | 125° | 64km/h | 7894m | -3.2m/s | -22.1°C | 11.7% | 383.7hPa | 2.5V | 00:00:00 | 02:58:45 | 00:00:00 | |
| PG1ADW-2 | 2026-09-04 13:28:39 | 47.90112 | 12.99520 | 120° | 71km/h | 7906m | -3.1m/s | -22.2°C | 11.9% | 383.1hPa | 2.6V | 00:00:00 | 02:58:41 | 00:00:00 | |
| OE5MMP-10 | 2026-09-04 13:28:38 | 47.90120 | 12.99501 | 119° | 66km/h | 7909m | -3.1m/s | -22.3°C | 11.8% | 382.9hPa | 2.6V | 07:33:00 | 02:58:40 | 00:00:00 | |
| DO3MHA-11 | 2026-09-04 13:28:37 | 47.90127 | 12.99480 | 117° | 66km/h | 7912m | -2.9m/s | -22.3°C | 11.9% | 382.8hPa | 2.6V | 07:33:00 | 02:58:39 | 00:00:00 | |
| OE5WHR-10 | 2026-09-04 13:28:30 | 47.90168 | 12.99322 | 111° | 75km/h | 7934m | -3.2m/s | -22.6°C | 12.0% | 381.6hPa | 2.6V | 00:00:00 | 02:58:32 | 00:00:00 | |
| OE5FHM-15 | 2026-09-04 13:28:29 | 47.90174 | 12.99297 | 112° | 73km/h | 7937m | -3.1m/s | -22.6°C | 11.9% | 381.5hPa | 2.6V | 00:00:00 | 02:58:31 | 00:00:00 | |
| OE5MMP-10 | 2026-09-04 13:28:28 | 47.90182 | 12.99271 | 114° | 78km/h | 7940m | -3.0m/s | -22.6°C | 12.0% | 381.4hPa | 2.6V | 00:00:00 | 02:58:30 | 00:00:00 | |
| OE5HKT-10 | 2026-09-04 13:28:27 | 47.90190 | 12.99245 | 116° | 73km/h | 7943m | -2.9m/s | -22.6°C | 11.9% | 381.2hPa | 2.6V | 00:00:00 | 00:00:00 | 00:00:00 | |
| DG1MFX-10 | 2026-09-04 13:28:25 | 47.90199 | 12.99218 | 118° | 78km/h | 7946m | -2.9m/s | -22.6°C | 11.1% | 381.1hPa | 2.6V | 07:34:00 | 00:00:00 | 00:00:00 | |
| OE5DXL-15 | 2026-09-04 13:28:24 | 47.90217 | 12.99165 | 119° | 73km/h | 7952m | -3.3m/s | -22.6°C | 12.0% | 380.7hPa | 2.6V | 00:00:00 | 00:00:00 | 00:00:00 | |
| OE3JTB-15 | 2026-09-04 13:28:22 | 47.90237 | 12.99112 | 119° | 73km/h | 7958m | -3.0m/s | -22.6°C | 11.9% | 380.4hPa | 2.6V | 00:00:00 | 02:58:24 | 00:00:00 | |
| NBG1-10 | 2026-09-04 13:28:21 | 47.90247 | 12.99086 | 120° | 75km/h | 7961m | -3.0m/s | -22.7°C | 12.0% | 380.2hPa | 2.6V | 00:00:00 | 02:58:23 | 00:00:00 | |
| PG1ADW-2 | 2026-09-04 13:28:19 | 47.90267 | 12.99035 | 123° | 71km/h | 7967m | -3.0m/s | -22.7°C | 11.9% | 379.9hPa | 2.6V | 00:00:00 | 00:00:00 | 00:00:00 | |
| OE5MMP-10 | 2026-09-04 13:28:18 | 47.90278 | 12.99010 | 124° | 71km/h | 7971m | -3.1m/s | -22.7°C | 11.9% | 379.7hPa | 2.6V | 00:00:00 | 02:58:20 | 00:00:00 | |
| OE5WHR-10 | 2026-09-04 13:28:09 | 47.90372 | 12.98813 | 120° | 75km/h | 7998m | -2.9m/s | -22.9°C | 12.4% | 378.4hPa | 2.5V | 00:00:00 | 00:00:00 | 00:00:00 | |
| OE5MMP-10 | 2026-09-04 13:28:08 | 47.90379 | 12.98793 | 118° | 69km/h | 8001m | -3.0m/s | -22.9°C | 12.5% | 378.1hPa | 2.5V | 00:00:00 | 02:58:10 | 00:00:00 | |
| OE5HKT-10 | 2026-09-04 13:28:05 | 47.90400 | 12.98729 | 115° | 77km/h | 8010m | -2.9m/s | -23.1°C | 12.7% | 377.7hPa | 2.5V | 00:00:00 | 00:00:00 | 00:00:00 | |
| DO3MHA-11 | 2026-09-04 13:28:02 | 47.90421 | 12.98656 | 114° | 80km/h | 8019m | -3.1m/s | -23.1°C | 12.8% | 377.2hPa | 2.5V | 00:00:00 | 02:58:04 | 00:00:00 | |
| OE5FHM-15 | 2026-09-04 13:27:59 | 47.90445 | 12.98577 | 117° | 77km/h | 8028m | -2.9m/s | -23.1°C | 12.5% | 376.9hPa | 2.6V | 00:00:00 | 02:58:01 | 00:00:00 | |
| OE5DXL-15 | 2026-09-04 13:27:54 | 47.90497 | 12.98446 | 124° | 77km/h | 8043m | -3.1m/s | -23.1°C | 12.3% | 376.0hPa | 2.6V | 00:00:00 | 00:00:00 | 00:00:00 | |
| OE3JTB-15 | 2026-09-04 13:27:53 | 47.90508 | 12.98420 | 125° | 78km/h | 8046m | -3.0m/s | -23.2°C | 12.4% | 375.9hPa | 2.6V | 00:00:00 | 00:00:00 | 00:00:00 | |
| OE5DRO-10 | 2026-09-04 13:27:50 | 47.90544 | 12.98345 | 127° | 73km/h | 8055m | -3.2m/s | -23.2°C | 12.6% | 375.4hPa | 2.5V | 00:00:00 | 00:00:00 | 00:00:00 | |
| NBG1-10 | 2026-09-04 13:27:48 | 47.90569 | 12.98299 | 130° | 75km/h | 8061m | -2.8m/s | -23.2°C | 12.7% | 375.1hPa | 2.5V | 07:33:00 | 02:57:50 | 00:00:00 | |
| OE5HKT-10 | 2026-09-04 13:27:44 | 47.90616 | 12.98217 | 130° | 77km/h | 8073m | -2.9m/s | -23.4°C | 13.1% | 374.5hPa | 2.5V | 00:00:00 | 02:57:46 | 00:00:00 | |
| PG1ADW-2 | 2026-09-04 13:27:39 | 47.90660 | 12.98109 | 116° | 78km/h | 8087m | -2.7m/s | -23.7°C | 13.5% | 373.8hPa | 2.5V | 00:00:00 | 00:00:00 | 00:00:00 | |
| OE5MMP-10 | 2026-09-04 13:27:38 | 47.90668 | 12.98085 | 115° | 78km/h | 8089m | -2.7m/s | -23.7°C | 13.5% | 373.6hPa | 2.6V | 00:00:00 | 02:57:40 | 00:00:00 | |
| OE5DRO-10 | 2026-09-04 13:27:31 | 47.90738 | 12.97877 | 121° | 75km/h | 8112m | -2.7m/s | -23.7°C | 13.7% | 372.5hPa | 2.6V | 00:00:00 | 00:00:00 | 00:00:00 | |
| OE5FHM-15 | 2026-09-04 13:27:29 | 47.90749 | 12.97851 | 123° | 78km/h | 8115m | -2.7m/s | -23.7°C | 13.8% | 372.3hPa | 2.6V | 00:00:00 | 02:57:31 | 00:00:00 | |
| OE5MMP-10 | 2026-09-04 13:27:28 | 47.90761 | 12.97825 | 125° | 80km/h | 8118m | -2.9m/s | -23.7°C | 14.0% | 372.1hPa | 2.5V | 00:00:00 | 02:57:30 | 00:00:00 | |
| OE5WHR-10 | 2026-09-04 13:27:27 | 47.90773 | 12.97800 | 127° | 75km/h | 8120m | -2.9m/s | -23.7°C | 14.3% | 372.1hPa | 2.5V | 00:00:00 | 02:57:29 | 00:00:00 | |
| DO3MHA-11 | 2026-09-04 13:27:25 | 47.90799 | 12.97751 | 130° | 75km/h | 8126m | -2.9m/s | -23.7°C | 14.9% | 371.7hPa | 2.5V | 00:00:00 | 02:57:27 | 00:00:00 | |
| OE5DXL-15 | 2026-09-04 13:27:24 | 47.90812 | 12.97727 | 130° | 77km/h | 8129m | -3.0m/s | -23.7°C | 15.1% | 371.6hPa | 2.5V | 00:00:00 | 00:00:00 | 00:00:00 | |
| OE5HKT-10 | 2026-09-04 13:27:23 | 47.90825 | 12.97703 | 131° | 75km/h | 8132m | -3.1m/s | -23.8°C | 15.2% | 371.4hPa | 2.6V | 00:00:00 | 00:00:00 | 00:00:00 | |
| DL6DJ-15 | 2026-09-04 13:27:21 | 47.90865 | 12.97636 | 132° | 75km/h | 8141m | -2.9m/s | -23.8°C | 13.9% | 371.0hPa | 2.6V | 00:00:00 | 00:00:00 | 00:00:00 | |
| OE3JTB-15 | 2026-09-04 13:27:19 | 47.90878 | 12.97616 | 133° | 73km/h | 8144m | -2.9m/s | -23.8°C | 15.2% | 370.8hPa | 2.6V | 00:00:00 | 00:00:00 | 00:00:00 | |
| OE5MMP-10 | 2026-09-04 13:27:18 | 47.90889 | 12.97596 | 132° | 69km/h | 8147m | -2.9m/s | -23.8°C | 15.4% | 370.7hPa | 2.6V | 07:34:00 | 02:57:20 | 00:00:00 | |
| NBG1-10 | 2026-09-04 13:27:15 | 47.90919 | 12.97537 | 122° | 77km/h | 8155m | -2.6m/s | -23.9°C | 15.7% | 370.3hPa | 2.5V | 00:00:00 | 02:57:17 | 00:00:00 | |
| OE5DRO-10 | 2026-09-04 13:27:12 | 47.90961 | 12.97421 | 119° | 78km/h | 8168m | -2.7m/s | -24.2°C | 15.7% | 369.6hPa | 2.6V | 00:00:00 | 00:00:00 | 00:00:00 | |
| OE5MMP-10 | 2026-09-04 13:27:08 | 47.90981 | 12.97370 | 121° | 84km/h | 8174m | -2.7m/s | -24.2°C | 15.8% | 369.3hPa | 2.6V | 00:00:00 | 02:57:10 | 00:00:00 | |
| OE5WHR-10 | 2026-09-04 13:27:06 | 47.91002 | 12.97317 | 122° | 75km/h | 8179m | -2.8m/s | -24.2°C | 15.7% | 369.0hPa | 2.6V | 00:00:00 | 00:00:00 | 00:00:00 | |
| DO3MHA-11 | 2026-09-04 13:27:05 | 47.91013 | 12.97291 | 123° | 82km/h | 8182m | -2.7m/s | -24.2°C | 15.8% | 368.9hPa | 2.6V | 00:00:00 | 02:57:07 | 00:00:00 | |
| OE5HKT-10 | 2026-09-04 13:27:02 | 47.91049 | 12.97212 | 127° | 73km/h | 8191m | -2.8m/s | -24.2°C | 15.7% | 368.5hPa | 2.6V | 00:00:00 | 00:00:00 | 00:00:00 | |
| OE5FHM-15 | 2026-09-04 13:26:59 | 47.91089 | 12.97139 | 133° | 75km/h | 8199m | -2.8m/s | -24.2°C | 16.0% | 368.0hPa | 2.6V | 07:34:00 | 02:57:01 | 00:00:00 | |
| OE5MMP-10 | 2026-09-04 13:26:58 | 47.91103 | 12.97117 | 134° | 69km/h | 8202m | -2.8m/s | -24.3°C | 16.2% | 367.9hPa | 2.6V | 00:00:00 | 02:57:00 | 00:00:00 | |
| DO3MHA-11 | 2026-09-04 13:26:55 | 47.91142 | 12.97057 | 133° | 68km/h | 8210m | -2.6m/s | -24.3°C | 17.0% | 367.5hPa | 2.6V | 00:00:00 | 02:56:57 | 00:00:00 | |
| OE5DRO-10 | 2026-09-04 13:26:54 | 47.91164 | 12.97019 | 128° | 75km/h | 8216m | -2.6m/s | -24.4°C | 17.3% | 367.2hPa | 2.6V | 00:00:00 | 00:00:00 | 00:00:00 | |
| OE3JTB-15 | 2026-09-04 13:26:50 | 47.91191 | 12.96958 | 123° | 75km/h | 8224m | -2.7m/s | -24.5°C | 17.7% | 366.8hPa | 2.6V | 00:00:00 | 02:56:52 | 00:00:00 | |
| OE5MMP-10 | 2026-09-04 13:26:48 | 47.91209 | 12.96915 | 121° | 78km/h | 8229m | -2.7m/s | -24.7°C | 17.7% | 366.6hPa | 2.6V | 00:00:00 | 02:56:50 | 00:00:00 | |
| OE5WHR-10 | 2026-09-04 13:26:45 | 47.91236 | 12.96844 | 119° | 77km/h | 8237m | -2.7m/s | -24.7°C | 17.9% | 366.2hPa | 2.6V | 07:35:00 | 00:00:00 | 00:00:00 | |
| NBG1-10 | 2026-09-04 13:26:42 | 47.91265 | 12.96766 | 121° | 78km/h | 8245m | -2.8m/s | -24.8°C | 17.9% | 365.7hPa | 2.6V | 00:00:00 | 02:56:44 | 00:00:00 | |
| OE5HKT-10 | 2026-09-04 13:26:41 | 47.91276 | 12.96740 | 123° | 71km/h | 8248m | -2.7m/s | -24.8°C | 17.8% | 365.6hPa | 2.6V | 07:35:00 | 02:56:43 | 00:00:00 | |
| PG1ADW-2 | 2026-09-04 13:26:39 | 47.91300 | 12.96688 | 128° | 73km/h | 8254m | -2.6m/s | -24.8°C | 17.8% | 365.3hPa | 2.6V | 07:35:00 | 00:00:00 | 00:00:00 | |
| OE5MMP-10 | 2026-09-04 13:26:38 | 47.91313 | 12.96664 | 130° | 77km/h | 8256m | -2.8m/s | -24.8°C | 17.8% | 365.1hPa | 2.6V | 00:00:00 | 02:56:40 | 00:00:00 | |
| DO3MHA-11 | 2026-09-04 13:26:35 | 47.91355 | 12.96595 | 135° | 71km/h | 8265m | -2.7m/s | -24.8°C | 17.9% | 364.7hPa | 2.6V | 07:35:00 | 02:56:37 | 00:00:00 | |
| OE5DRO-10 | 2026-09-04 13:26:34 | 47.91369 | 12.96574 | 136° | 73km/h | 8267m | -2.8m/s | -24.8°C | 18.0% | 364.6hPa | 2.6V | 07:35:00 | 00:00:00 | 00:00:00 | |
| DB0NH | 2026-09-04 13:26:32 | 47.91397 | 12.96533 | 136° | 68km/h | 8273m | -2.9m/s | 0°C | 0% | 0hPa | 2.6V | 00:00:00 | 02:56:34 | 00:00:00 | |
| OE5FHM-15 | 2026-09-04 13:26:29 | 47.91434 | 12.96476 | 131° | 71km/h | 8281m | -2.6m/s | -25.0°C | 18.8% | 363.9hPa | 2.6V | 00:00:00 | 02:56:31 | 00:00:00 | |
| OE5MMP-10 | 2026-09-04 13:26:28 | 47.91444 | 12.96457 | 128° | 69km/h | 8284m | -2.5m/s | -25.0°C | 18.8% | 363.8hPa | 2.6V | 00:00:00 | 02:56:30 | 00:00:00 | |
| DO3MHA-11 | 2026-09-04 13:26:25 | 47.91472 | 12.96396 | 123° | 75km/h | 8291m | -2.6m/s | -25.2°C | 19.1% | 363.4hPa | 2.6V | 00:00:00 | 02:56:27 | 00:00:00 | |
| OE5WHR-10 | 2026-09-04 13:26:24 | 47.91481 | 12.96375 | 122° | 78km/h | 8294m | -2.7m/s | -25.2°C | 19.1% | 363.3hPa | 2.6V | 00:00:00 | 02:56:26 | 00:00:00 | |
| DO7DH-14 | 2026-09-04 13:26:23 | 47.91490 | 12.96353 | 121° | 77km/h | 8297m | -2.7m/s | -25.2°C | 19.3% | 363.1hPa | 2.6V | 00:00:00 | 02:56:25 | 00:00:00 | |
| OE3JTB-15 | 2026-09-04 13:26:21 | 47.91508 | 12.96306 | 120° | 77km/h | 8302m | -2.7m/s | -25.3°C | 19.3% | 362.8hPa | 2.5V | 00:00:00 | 00:00:00 | 00:00:00 | |
| DL6DJ-15 | 2026-09-04 13:26:19 | 47.91538 | 12.96229 | 119° | 78km/h | 8311m | -2.8m/s | -25.4°C | 18.0% | 362.4hPa | 2.6V | 00:00:00 | 00:00:00 | 00:00:00 | |
| OE5MMP-10 | 2026-09-04 13:26:18 | 47.91538 | 12.96229 | 120° | 84km/h | 8311m | -2.7m/s | -25.4°C | 19.3% | 362.4hPa | 2.6V | 00:00:00 | 02:56:20 | 00:00:00 | |
| DO3MHA-11 | 2026-09-04 13:26:15 | 47.91570 | 12.96150 | 124° | 84km/h | 8319m | -2.7m/s | -25.4°C | 19.3% | 362.0hPa | 2.6V | 00:00:00 | 02:56:17 | 00:00:00 | |
| OE5MMP-10 | 2026-09-04 13:26:08 | 47.91664 | 12.95974 | 134° | 69km/h | 8338m | -2.8m/s | -25.5°C | 19.4% | 361.1hPa | 2.6V | 00:00:00 | 02:56:10 | 00:00:00 | |
| DO3MHA-11 | 2026-09-04 13:26:05 | 47.91705 | 12.95913 | 135° | 68km/h | 8346m | -2.6m/s | -25.6°C | 19.9% | 360.6hPa | 2.6V | 00:00:00 | 02:56:07 | 00:00:00 | |
| OE5WHR-10 | 2026-09-04 13:26:03 | 47.91728 | 12.95875 | 130° | 75km/h | 8352m | -2.6m/s | -25.7°C | 19.9% | 360.4hPa | 2.5V | 00:00:00 | 00:00:00 | 00:00:00 | |
| DG1MJG | 2026-09-04 13:26:02 | 47.91728 | 12.95875 | 131° | 66km/h | 8352m | -2.6m/s | -25.7°C | 18.6% | 360.5hPa | 2.6V | 07:35:00 | 00:00:00 | 00:00:00 | |
| DL6DJ-15 | 2026-09-04 13:25:48 | 47.91897 | 12.95502 | 130° | 82km/h | 8394m | -2.8m/s | -26.1°C | 18.6% | 358.3hPa | 2.6V | 00:00:00 | 00:00:00 | 00:00:00 | |
| DO3MHA-11 | 2026-09-04 13:25:45 | 47.91924 | 12.95456 | 133° | 71km/h | 8400m | -2.6m/s | -26.1°C | 20.0% | 358.0hPa | 2.6V | 00:00:00 | 02:55:47 | 00:00:00 | |
| OE5WHR-10 | 2026-09-04 13:25:42 | 47.91965 | 12.95393 | 135° | 69km/h | 8408m | -2.6m/s | -26.2°C | 19.9% | 357.6hPa | 2.6V | 00:00:00 | 00:00:00 | 00:00:00 | |
| NBG1-10 | 2026-09-04 13:25:40 | 47.91990 | 12.95354 | 134° | 71km/h | 8414m | -2.8m/s | -26.2°C | 20.1% | 357.3hPa | 2.6V | 00:00:00 | 02:55:42 | 00:00:00 | |
| PG1ADW-2 | 2026-09-04 13:25:39 | 47.92002 | 12.95334 | 133° | 71km/h | 8416m | -2.6m/s | -26.3°C | 20.2% | 357.1hPa | 2.6V | 00:00:00 | 00:00:00 | 00:00:00 | |
| OE5MMP-10 | 2026-09-04 13:25:38 | 47.92013 | 12.95316 | 132° | 64km/h | 8419m | -2.7m/s | -26.3°C | 20.3% | 357.0hPa | 2.5V | 00:00:00 | 02:55:40 | 00:00:00 | |
| OE5DRO-10 | 2026-09-04 13:25:36 | 47.92035 | 12.95279 | 130° | 73km/h | 8425m | -2.8m/s | -26.3°C | 20.4% | 356.8hPa | 2.5V | 00:00:00 | 00:00:00 | 00:00:00 | |
| DO3MHA-11 | 2026-09-04 13:25:35 | 47.92045 | 12.95260 | 129° | 66km/h | 8427m | -2.8m/s | -26.4°C | 20.3% | 356.6hPa | 2.5V | 00:00:00 | 02:55:37 | 00:00:00 | |
| DG1MJG | 2026-09-04 13:25:32 | 47.92065 | 12.95222 | 127° | 64km/h | 8433m | -3.0m/s | -26.5°C | 19.1% | 356.4hPa | 2.5V | 07:36:00 | 00:00:00 | 00:00:00 | |
| OE5FHM-15 | 2026-09-04 13:25:29 | 47.92099 | 12.95139 | 119° | 71km/h | 8445m | -3.0m/s | -26.6°C | 20.3% | 355.7hPa | 2.5V | 00:00:00 | 02:55:31 | 00:00:00 | |
| OE5MMP-10 | 2026-09-04 13:25:28 | 47.92107 | 12.95117 | 119° | 78km/h | 8448m | -2.8m/s | -26.6°C | 20.3% | 355.6hPa | 2.5V | 00:00:00 | 02:55:30 | 00:00:00 | |
| DO3MHA-11 | 2026-09-04 13:25:25 | 47.92133 | 12.95045 | 119° | 80km/h | 8457m | -2.8m/s | -26.7°C | 20.0% | 355.2hPa | 2.5V | 00:00:00 | 02:55:27 | 00:00:00 | |
| OE5DXL-15 | 2026-09-04 13:25:24 | 47.92142 | 12.95020 | 120° | 73km/h | 8459m | -2.8m/s | -26.7°C | 19.9% | 355.1hPa | 2.5V | 00:00:00 | 00:00:00 | 00:00:00 | |
| OE3JTB-15 | 2026-09-04 13:25:23 | 47.92153 | 12.94993 | 121° | 73km/h | 8462m | -2.8m/s | -26.7°C | 19.8% | 354.9hPa | 2.5V | 00:00:00 | 02:55:25 | 00:00:00 | |
| OE5WHR-10 | 2026-09-04 13:25:21 | 47.92175 | 12.94940 | 124° | 71km/h | 8468m | -2.8m/s | -26.8°C | 19.6% | 354.6hPa | 2.5V | 00:00:00 | 02:55:23 | 00:00:00 | |
| PG1ADW-2 | 2026-09-04 13:25:19 | 47.92199 | 12.94889 | 127° | 69km/h | 8474m | -3.0m/s | -26.8°C | 19.5% | 354.4hPa | 2.5V | 00:00:00 | 00:00:00 | 00:00:00 | |
| OE5MMP-10 | 2026-09-04 13:25:18 | 47.92212 | 12.94865 | 129° | 71km/h | 8477m | -2.7m/s | -26.8°C | 19.4% | 354.2hPa | 2.5V | 00:00:00 | 02:55:20 | 00:00:00 | |
| OE5DRO-10 | 2026-09-04 13:25:17 | 47.92225 | 12.94842 | 132° | 69km/h | 8480m | -2.6m/s | -26.8°C | 19.4% | 354.1hPa | 2.6V | 00:00:00 | 00:00:00 | 00:00:00 | |
| DO3MHA-11 | 2026-09-04 13:25:15 | 47.92251 | 12.94799 | 133° | 66km/h | 8485m | -2.9m/s | -26.9°C | 19.2% | 353.9hPa | 2.6V | 07:36:00 | 02:55:17 | 00:00:00 | |
| OE5MMP-10 | 2026-09-04 13:25:08 | 47.92327 | 12.94663 | 125° | 66km/h | 8505m | -2.9m/s | -27.0°C | 19.2% | 352.8hPa | 2.6V | 00:00:00 | 02:55:10 | 00:00:00 | |
| NBG1-10 | 2026-09-04 13:25:07 | 47.92336 | 12.94644 | 124° | 69km/h | 8508m | -3.0m/s | -27.0°C | 19.3% | 352.7hPa | 2.6V | 00:00:00 | 02:55:09 | 00:00:00 | |
| DG1MJG | 2026-09-04 13:25:01 | 47.92375 | 12.94540 | 116° | 69km/h | 8523m | -3.0m/s | -27.3°C | 17.8% | 351.9hPa | 2.6V | 07:37:00 | 00:00:00 | 00:00:00 | |
| OE5WHR-10 | 2026-09-04 13:25:00 | 47.92390 | 12.94491 | 115° | 73km/h | 8530m | -2.9m/s | -27.4°C | 19.0% | 351.6hPa | 2.6V | 00:00:00 | 00:00:00 | 00:00:00 | |
| PG1ADW-2 | 2026-09-04 13:24:59 | 47.92398 | 12.94466 | 115° | 73km/h | 8533m | -3.2m/s | -27.4°C | 18.7% | 351.5hPa | 2.5V | 00:00:00 | 00:00:00 | 00:00:00 | |
| OE5DRO-10 | 2026-09-04 13:24:58 | 47.92415 | 12.94413 | 117° | 73km/h | 8539m | -3.1m/s | -27.4°C | 18.4% | 351.2hPa | 2.5V | 00:00:00 | 00:00:00 | 00:00:00 | |
| DO3MHA-11 | 2026-09-04 13:24:55 | 47.92434 | 12.94360 | 120° | 77km/h | 8544m | -2.9m/s | -27.4°C | 18.0% | 350.9hPa | 2.6V | 00:00:00 | 02:54:57 | 00:00:00 | |
| OE3JTB-15 | 2026-09-04 13:24:54 | 47.92445 | 12.94333 | 123° | 69km/h | 8548m | -2.8m/s | -27.4°C | 17.9% | 350.7hPa | 2.6V | 00:00:00 | 00:00:00 | 00:00:00 | |
| DO7DH-14 | 2026-09-04 13:24:53 | 47.92456 | 12.94307 | 125° | 73km/h | 8550m | -2.9m/s | -27.4°C | 17.8% | 350.6hPa | 2.5V | 07:36:00 | 02:54:55 | 00:00:00 | |
| OE5MMP-10 | 2026-09-04 13:24:48 | 47.92516 | 12.94188 | 128° | 64km/h | 8565m | -2.9m/s | -27.6°C | 17.2% | 349.9hPa | 2.5V | 00:00:00 | 02:54:50 | 00:00:00 | |
| DO3MHA-11 | 2026-09-04 13:24:45 | 47.92547 | 12.94128 | 126° | 64km/h | 8573m | -3.0m/s | -27.6°C | 17.1% | 349.5hPa | 2.6V | 00:00:00 | 02:54:47 | 00:00:00 | |
| OE5HKT-10 | 2026-09-04 13:24:44 | 47.92556 | 12.94108 | 126° | 69km/h | 8576m | -2.9m/s | -27.6°C | 17.1% | 349.4hPa | 2.6V | 00:00:00 | 00:00:00 | 00:00:00 | |
| OE5WHR-10 | 2026-09-04 13:24:39 | 47.92598 | 12.94008 | 117° | 71km/h | 8591m | -3.2m/s | -27.8°C | 16.6% | 348.7hPa | 2.6V | 00:00:00 | 00:00:00 | 00:00:00 | |
| OE5MMP-10 | 2026-09-04 13:24:38 | 47.92605 | 12.93987 | 116° | 69km/h | 8595m | -3.2m/s | -27.8°C | 16.5% | 348.4hPa | 2.6V | 07:37:00 | 02:54:40 | 00:00:00 | |
| DG1MFX-10 | 2026-09-04 13:24:37 | 47.92605 | 12.93987 | 117° | 62km/h | 8595m | -3.3m/s | -27.9°C | 15.2% | 348.5hPa | 2.6V | 07:37:00 | 00:00:00 | 00:00:00 | |
| DO3MHA-11 | 2026-09-04 13:24:35 | 47.92625 | 12.93922 | 114° | 75km/h | 8605m | -3.1m/s | -27.9°C | 16.0% | 348.0hPa | 2.6V | 00:00:00 | 02:54:37 | 00:00:00 | |
| NBG1-10 | 2026-09-04 13:24:33 | 47.92638 | 12.93875 | 111° | 71km/h | 8611m | -2.9m/s | -28.0°C | 15.3% | 347.7hPa | 2.5V | 00:00:00 | 02:54:35 | 00:00:00 | |
| DG1MJG | 2026-09-04 13:24:32 | 47.92644 | 12.93849 | 112° | 73km/h | 8614m | -3.2m/s | -28.0°C | 13.6% | 347.6hPa | 2.5V | 07:37:00 | 00:00:00 | 00:00:00 | |
| OE5FHM-15 | 2026-09-04 13:24:28 | 47.92673 | 12.93741 | 114° | 71km/h | 8627m | -3.2m/s | -28.1°C | 13.6% | 346.9hPa | 2.5V | 00:00:00 | 02:54:30 | 00:00:00 | |
| DO3MHA-11 | 2026-09-04 13:24:25 | 47.92701 | 12.93661 | 123° | 69km/h | 8636m | -3.1m/s | -28.1°C | 13.1% | 346.5hPa | 2.6V | 00:00:00 | 02:54:27 | 00:00:00 | |
| OE5DXL-15 | 2026-09-04 13:24:24 | 47.92712 | 12.93636 | 126° | 71km/h | 8639m | -2.7m/s | -28.1°C | 13.0% | 346.3hPa | 2.6V | 00:00:00 | 00:00:00 | 00:00:00 | |
| OE5HKT-10 | 2026-09-04 13:24:23 | 47.92724 | 12.93614 | 127° | 69km/h | 8642m | -3.0m/s | -28.1°C | 12.8% | 346.1hPa | 2.6V | 00:00:00 | 02:54:25 | 00:00:00 | |
| OE5DRO-10 | 2026-09-04 13:24:20 | 47.92756 | 12.93551 | 128° | 69km/h | 8651m | -3.2m/s | -28.2°C | 12.7% | 345.7hPa | 2.6V | 00:00:00 | 00:00:00 | 00:00:00 | |
| PG1ADW-2 | 2026-09-04 13:24:19 | 47.92766 | 12.93530 | 127° | 69km/h | 8655m | -3.2m/s | -28.2°C | 12.6% | 345.5hPa | 2.6V | 00:00:00 | 00:00:00 | 00:00:00 | |
| OE5WHR-10 | 2026-09-04 13:24:18 | 47.92776 | 12.93510 | 126° | 71km/h | 8658m | -3.2m/s | -28.2°C | 12.6% | 345.4hPa | 2.6V | 00:00:00 | 02:54:20 | 00:00:00 | |
| DG1MFX-10 | 2026-09-04 13:24:17 | 47.92776 | 12.93510 | 126° | 64km/h | 8658m | -3.2m/s | -28.3°C | 11.4% | 345.4hPa | 2.6V | 07:37:00 | 00:00:00 | 00:00:00 | |
| DO3MHA-11 | 2026-09-04 13:24:15 | 47.92800 | 12.93451 | 118° | 68km/h | 8667m | -3.2m/s | -28.3°C | 12.3% | 345.0hPa | 2.6V | 00:00:00 | 02:54:17 | 00:00:00 | |
| DL6DJ-15 | 2026-09-04 13:24:14 | 47.92807 | 12.93430 | 115° | 60km/h | 8670m | -3.1m/s | -28.4°C | 11.0% | 344.8hPa | 2.6V | 00:00:00 | 00:00:00 | 00:00:00 | |
| OE5MMP-10 | 2026-09-04 13:24:08 | 47.92843 | 12.93293 | 109° | 77km/h | 8690m | -3.1m/s | -28.6°C | 12.0% | 343.9hPa | 2.6V | 00:00:00 | 02:54:10 | 00:00:00 | |
| DO3MHA-11 | 2026-09-04 13:24:05 | 47.92862 | 12.93214 | 112° | 77km/h | 8700m | -3.3m/s | -28.7°C | 12.1% | 343.3hPa | 2.6V | 00:00:00 | 02:54:07 | 00:00:00 | |
| OE5HKT-10 | 2026-09-04 13:24:02 | 47.92887 | 12.93134 | 120° | 71km/h | 8709m | -3.0m/s | -28.6°C | 12.4% | 342.9hPa | 2.5V | 00:00:00 | 00:00:00 | 00:00:00 | |
| OE5DRO-10 | 2026-09-04 13:24:01 | 47.92897 | 12.93108 | 122° | 68km/h | 8712m | -3.1m/s | -28.7°C | 12.4% | 342.8hPa | 2.5V | 07:37:00 | 00:00:00 | 00:00:00 | |
| NBG1-10 | 2026-09-04 13:24:00 | 47.92908 | 12.93083 | 123° | 71km/h | 8715m | -3.1m/s | -28.7°C | 12.4% | 342.6hPa | 2.5V | 00:00:00 | 02:54:02 | 00:00:00 | |
| PG1ADW-2 | 2026-09-04 13:23:59 | 47.92919 | 12.93058 | 124° | 66km/h | 8718m | -3.2m/s | -28.7°C | 12.5% | 342.4hPa | 2.5V | 07:37:00 | 00:00:00 | 00:00:00 | |
| OE5FHM-15 | 2026-09-04 13:23:58 | 47.92930 | 12.93034 | 125° | 71km/h | 8722m | -3.4m/s | -28.8°C | 12.6% | 342.3hPa | 2.5V | 00:00:00 | 02:54:00 | 00:00:00 | |
| OE5WHR-10 | 2026-09-04 13:23:57 | 47.92940 | 12.93012 | 126° | 68km/h | 8725m | -3.1m/s | -28.8°C | 12.8% | 342.2hPa | 2.5V | 07:37:00 | 00:00:00 | 00:00:00 | |
| DO3MHA-11 | 2026-09-04 13:23:55 | 47.92962 | 12.92968 | 127° | 62km/h | 8731m | -3.2m/s | -28.8°C | 13.3% | 341.9hPa | 2.6V | 07:37:00 | 02:53:57 | 00:00:00 | |
| OE5DXL-15 | 2026-09-04 13:23:54 | 47.92971 | 12.92948 | 127° | 69km/h | 8734m | -3.3m/s | -28.8°C | 13.8% | 341.7hPa | 2.6V | 00:00:00 | 00:00:00 | 00:00:00 | |
| DO7DH-14 | 2026-09-04 13:23:52 | 47.92991 | 12.92908 | 125° | 69km/h | 8741m | -3.2m/s | -28.9°C | 14.5% | 341.4hPa | 2.6V | 00:00:00 | 02:53:54 | 00:00:00 | |
| OE5MMP-10 | 2026-09-04 13:23:48 | 47.93022 | 12.92829 | 117° | 66km/h | 8754m | -3.4m/s | -29.0°C | 15.2% | 340.7hPa | 2.6V | 00:00:00 | 02:53:50 | 00:00:00 | |
| DO3MHA-11 | 2026-09-04 13:23:45 | 47.93041 | 12.92766 | 113° | 71km/h | 8764m | -3.0m/s | -29.2°C | 15.5% | 340.3hPa | 2.6V | 00:00:00 | 02:53:47 | 00:00:00 | |
| DL6DJ-15 | 2026-09-04 13:23:43 | 47.93053 | 12.92720 | 109° | 68km/h | 8770m | -3.3m/s | -29.3°C | 14.3% | 340.0hPa | 2.6V | 00:00:00 | 00:00:00 | 00:00:00 | |
| OE5DRO-10 | 2026-09-04 13:23:42 | 47.93058 | 12.92696 | 110° | 75km/h | 8774m | -3.4m/s | -29.3°C | 15.7% | 339.8hPa | 2.6V | 00:00:00 | 00:00:00 | 00:00:00 | |
| OE5HKT-10 | 2026-09-04 13:23:41 | 47.93064 | 12.92671 | 110° | 71km/h | 8777m | -3.2m/s | -29.3°C | 15.7% | 339.7hPa | 2.6V | 00:00:00 | 00:00:00 | 00:00:00 | |
| PG1ADW-2 | 2026-09-04 13:23:39 | 47.93076 | 12.92620 | 110° | 71km/h | 8784m | -3.3m/s | -29.4°C | 15.8% | 339.4hPa | 2.6V | 00:00:00 | 00:00:00 | 00:00:00 | |
| OE5MMP-10 | 2026-09-04 13:23:38 | 47.93082 | 12.92593 | 111° | 78km/h | 8787m | -3.3m/s | -29.4°C | 15.6% | 339.2hPa | 2.6V | 00:00:00 | 02:53:40 | 00:00:00 | |
| OE5WHR-10 | 2026-09-04 13:23:36 | 47.93097 | 12.92539 | 113° | 69km/h | 8794m | -3.4m/s | -29.4°C | 15.4% | 338.8hPa | 2.6V | 00:00:00 | 00:00:00 | 00:00:00 | |
| DO3MHA-11 | 2026-09-04 13:23:35 | 47.93105 | 12.92512 | 115° | 77km/h | 8797m | -3.4m/s | -29.4°C | 15.4% | 338.7hPa | 2.6V | 00:00:00 | 02:53:37 | 00:00:00 | |
| DG1MJG | 2026-09-04 13:23:29 | 47.93153 | 12.92381 | 125° | 77km/h | 8815m | -3.5m/s | -29.5°C | 13.5% | 337.9hPa | 2.6V | 07:38:00 | 00:00:00 | 00:00:00 | |
| OE5MMP-10 | 2026-09-04 13:23:28 | 47.93175 | 12.92334 | 126° | 64km/h | 8821m | -3.4m/s | -29.5°C | 14.9% | 337.6hPa | 2.6V | 00:00:00 | 02:53:30 | 00:00:00 | |
| NBG1-10 | 2026-09-04 13:23:27 | 47.93186 | 12.92312 | 127° | 68km/h | 8825m | -3.5m/s | -29.5°C | 15.0% | 337.4hPa | 2.6V | 00:00:00 | 02:53:29 | 00:00:00 | |
| DO3MHA-11 | 2026-09-04 13:23:25 | 47.93206 | 12.92271 | 125° | 62km/h | 8832m | -3.3m/s | -29.6°C | 14.9% | 337.1hPa | 2.6V | 00:00:00 | 02:53:27 | 00:00:00 | |
| OE5DXL-15 | 2026-09-04 13:23:24 | 47.93214 | 12.92251 | 122° | 68km/h | 8835m | -3.3m/s | -29.6°C | 15.1% | 336.9hPa | 2.6V | 00:00:00 | 00:00:00 | 00:00:00 | |
| OE5DRO-10 | 2026-09-04 13:23:23 | 47.93222 | 12.92232 | 120° | 69km/h | 8838m | -3.4m/s | -29.6°C | 15.0% | 336.8hPa | 2.6V | 00:00:00 | 00:00:00 | 00:00:00 | |
| DO7DH-14 | 2026-09-04 13:23:22 | 47.93229 | 12.92212 | 117° | 68km/h | 8842m | -3.4m/s | -29.7°C | 15.0% | 336.6hPa | 2.6V | 00:00:00 | 02:53:24 | 00:00:00 | |
| OE5HKT-10 | 2026-09-04 13:23:20 | 47.93242 | 12.92172 | 114° | 73km/h | 8849m | -3.4m/s | -29.7°C | 14.9% | 336.3hPa | 2.5V | 00:00:00 | 02:53:22 | 00:00:00 | |
| PG1ADW-2 | 2026-09-04 13:23:19 | 47.93247 | 12.92151 | 112° | 71km/h | 8852m | -3.5m/s | -29.7°C | 14.8% | 336.1hPa | 2.5V | 00:00:00 | 02:53:21 | 00:00:00 | |
| OE5MMP-10 | 2026-09-04 13:23:18 | 47.93253 | 12.92130 | 111° | 73km/h | 8856m | -3.5m/s | -29.8°C | 14.9% | 335.9hPa | 2.5V | 07:38:00 | 02:53:20 | 00:00:00 | |
| OE5WHR-10 | 2026-09-04 13:23:15 | 47.93269 | 12.92059 | 108° | 71km/h | 8866m | -3.4m/s | -30.0°C | 14.8% | 335.5hPa | 2.5V | 00:00:00 | 02:53:17 | 00:00:00 | |
| OE5MMP-10 | 2026-09-04 13:23:08 | 47.93321 | 12.91872 | 121° | 71km/h | 8891m | -3.4m/s | -30.1°C | 14.5% | 334.3hPa | 2.5V | 00:00:00 | 02:53:10 | 00:00:00 | |
| DO3MHA-11 | 2026-09-04 13:23:05 | 47.93353 | 12.91798 | 125° | 66km/h | 8901m | -3.6m/s | -30.1°C | 14.6% | 333.8hPa | 2.5V | 00:00:00 | 02:53:07 | 00:00:00 | |
| OE5DRO-10 | 2026-09-04 13:23:04 | 47.93364 | 12.91775 | 126° | 69km/h | 8905m | -3.4m/s | -30.2°C | 14.8% | 333.6hPa | 2.6V | 00:00:00 | 00:00:00 | 00:00:00 | |
| OE5MMP-10 | 2026-09-04 13:22:58 | 47.93415 | 12.91651 | 116° | 68km/h | 8926m | -3.5m/s | -30.4°C | 15.1% | 332.6hPa | 2.6V | 00:00:00 | 02:53:00 | 00:00:00 | |
| DG1MFX-10 | 2026-09-04 13:22:56 | 47.93427 | 12.91610 | 113° | 60km/h | 8933m | -3.7m/s | -30.5°C | 13.7% | 332.4hPa | 2.6V | 07:39:00 | 00:00:00 | 00:00:00 | |
| NBG1-10 | 2026-09-04 13:22:54 | 47.93438 | 12.91565 | 109° | 71km/h | 8940m | -3.5m/s | -30.5°C | 15.0% | 332.0hPa | 2.6V | 07:38:00 | 02:52:56 | 00:00:00 | |
| DO7DH-14 | 2026-09-04 13:22:52 | 47.93449 | 12.91516 | 108° | 73km/h | 8947m | -3.6m/s | -30.6°C | 15.0% | 331.7hPa | 2.6V | 00:00:00 | 02:52:54 | 00:00:00 | |
| OE5MMP-10 | 2026-09-04 13:22:48 | 47.93473 | 12.91410 | 112° | 78km/h | 8962m | -3.7m/s | -30.6°C | 14.9% | 331.0hPa | 2.6V | 00:00:00 | 02:52:50 | 00:00:00 | |
| DO3MHA-11 | 2026-09-04 13:22:45 | 47.93499 | 12.91328 | 118° | 77km/h | 8972m | -3.5m/s | -30.6°C | 14.9% | 330.4hPa | 2.5V | 00:00:00 | 02:52:47 | 00:00:00 | |
| PG1ADW-2 | 2026-09-04 13:22:39 | 47.93560 | 12.91175 | 125° | 66km/h | 8994m | -3.6m/s | -30.8°C | 15.0% | 329.4hPa | 2.5V | 00:00:00 | 00:00:00 | 00:00:00 | |
| OE5MMP-10 | 2026-09-04 13:22:38 | 47.93571 | 12.91153 | 126° | 64km/h | 8998m | -3.7m/s | -30.8°C | 15.1% | 329.3hPa | 2.6V | 00:00:00 | 02:52:40 | 00:00:00 | |
| DO3MHA-11 | 2026-09-04 13:22:35 | 47.93601 | 12.91089 | 125° | 62km/h | 9009m | -3.7m/s | -30.9°C | 15.6% | 328.7hPa | 2.6V | 07:39:00 | 02:52:37 | 00:00:00 | |
| DG1MFX-10 | 2026-09-04 13:22:34 | 47.93601 | 12.91089 | 125° | 68km/h | 9009m | -3.8m/s | -30.9°C | 14.1% | 328.8hPa | 2.6V | 07:39:00 | 00:00:00 | 00:00:00 | |
| OE5WHR-10 | 2026-09-04 13:22:33 | 47.93618 | 12.91048 | 121° | 71km/h | 9016m | -3.7m/s | -30.9°C | 16.3% | 328.4hPa | 2.6V | 00:00:00 | 00:00:00 | 00:00:00 | |
| OE5DRO-10 | 2026-09-04 13:22:26 | 47.93663 | 12.90901 | 108° | 75km/h | 9042m | -3.6m/s | -31.2°C | 20.1% | 327.3hPa | 2.6V | 00:00:00 | 00:00:00 | 00:00:00 | |
| DO3MHA-11 | 2026-09-04 13:22:25 | 47.93668 | 12.90877 | 108° | 77km/h | 9046m | -3.6m/s | -31.3°C | 20.3% | 327.0hPa | 2.6V | 00:00:00 | 02:52:27 | 00:00:00 | |
| OE5DXL-15 | 2026-09-04 13:22:24 | 47.93673 | 12.90851 | 108° | 69km/h | 9050m | -3.6m/s | -31.3°C | 20.4% | 326.8hPa | 2.6V | 07:39:00 | 00:00:00 | 00:00:00 | |
| DO7DH-14 | 2026-09-04 13:22:22 | 47.93685 | 12.90799 | 110° | 71km/h | 9057m | -3.9m/s | -31.4°C | 21.0% | 326.5hPa | 2.6V | 00:00:00 | 02:52:24 | 00:00:00 | |
| NBG1-10 | 2026-09-04 13:22:21 | 47.93692 | 12.90772 | 112° | 77km/h | 9061m | -3.7m/s | -31.4°C | 21.1% | 326.3hPa | 2.6V | 00:00:00 | 02:52:23 | 00:00:00 | |
| PG1ADW-2 | 2026-09-04 13:22:19 | 47.93708 | 12.90718 | 117° | 68km/h | 9068m | -3.8m/s | -31.4°C | 21.4% | 326.0hPa | 2.6V | 00:00:00 | 00:00:00 | 00:00:00 | |
| OE5MMP-10 | 2026-09-04 13:22:18 | 47.93717 | 12.90690 | 119° | 75km/h | 9072m | -3.7m/s | -31.4°C | 21.5% | 325.8hPa | 2.6V | 00:00:00 | 02:52:20 | 00:00:00 | |
| DO3MHA-11 | 2026-09-04 13:22:15 | 47.93747 | 12.90611 | 122° | 69km/h | 9083m | -3.8m/s | -31.5°C | 22.0% | 325.3hPa | 2.5V | 00:00:00 | 02:52:17 | 00:00:00 | |
| DG1MFX-10 | 2026-09-04 13:22:13 | 47.93758 | 12.90586 | 123° | 78km/h | 9087m | -3.8m/s | -31.6°C | 20.3% | 325.2hPa | 2.5V | 07:40:00 | 00:00:00 | 00:00:00 | |
| DL6DJ-15 | 2026-09-04 13:22:10 | 47.93810 | 12.90474 | 125° | 66km/h | 9106m | -3.9m/s | -31.8°C | 20.9% | 324.3hPa | 2.5V | 00:00:00 | 00:00:00 | 00:00:00 | |
| OE5MMP-10 | 2026-09-04 13:22:08 | 47.93819 | 12.90454 | 125° | 60km/h | 9110m | -3.7m/s | -31.7°C | 23.0% | 324.1hPa | 2.5V | 00:00:00 | 02:52:10 | 00:00:00 | |
| BAUMI2-15 | 2026-09-04 13:22:07 | 47.93829 | 12.90434 | 124° | 60km/h | 9114m | -3.9m/s | -31.8°C | 23.3% | 323.9hPa | 2.5V | 00:00:00 | 02:52:09 | 00:00:00 | |
| DO3MHA-11 | 2026-09-04 13:22:05 | 47.93845 | 12.90395 | 119° | 62km/h | 9121m | -3.5m/s | -31.9°C | 23.5% | 323.5hPa | 2.6V | 00:00:00 | 02:52:07 | 00:00:00 | |
| DB0ND-19 | 2026-09-04 13:21:47 | 47.93969 | 12.89941 | 121° | 73km/h | 9194m | -3.7m/s | 0°C | -1.0% | -1.0hPa | 2.5V | 00:00:00 | 00:00:00 | 00:00:00 | |
| DO3MHA-11 | 2026-09-04 13:21:45 | 47.93978 | 12.89918 | 122° | 60km/h | 9198m | -3.6m/s | -32.6°C | 23.6% | 320.1hPa | 2.5V | 00:00:00 | 02:51:47 | 00:00:00 | |
| BAUMI2-15 | 2026-09-04 13:21:42 | 47.94002 | 12.89856 | 118° | 60km/h | 9209m | -3.9m/s | -32.7°C | 21.6% | 319.5hPa | 2.5V | 00:00:00 | 02:51:44 | 00:00:00 | |
| OE5MMP-10 | 2026-09-04 13:21:38 | 47.94028 | 12.89775 | 114° | 57km/h | 9224m | -3.7m/s | -32.6°C | 20.1% | 318.9hPa | 2.5V | 00:00:00 | 02:51:40 | 00:00:00 | |
| BAUMI2-15 | 2026-09-04 13:21:37 | 47.94034 | 12.89755 | 113° | 57km/h | 9228m | -4.0m/s | -32.6°C | 20.1% | 318.7hPa | 2.5V | 00:00:00 | 02:51:39 | 00:00:00 | |
| DO3MHA-11 | 2026-09-04 13:21:35 | 47.94045 | 12.89715 | 113° | 58km/h | 9236m | -3.7m/s | -32.7°C | 19.9% | 318.3hPa | 2.6V | 00:00:00 | 02:51:37 | 00:00:00 | |
| BAUMI2-15 | 2026-09-04 13:21:32 | 47.94060 | 12.89655 | 108° | 57km/h | 9247m | -3.9m/s | -32.8°C | 19.3% | 317.8hPa | 2.6V | 07:40:00 | 02:51:34 | 00:00:00 | |
| DG1MFX-10 | 2026-09-04 13:21:31 | 47.94060 | 12.89655 | 109° | 57km/h | 9247m | -3.9m/s | -32.9°C | 17.5% | 317.9hPa | 2.6V | 00:00:00 | 00:00:00 | 00:00:00 | |
| OE5WHR-10 | 2026-09-04 13:21:30 | 47.94068 | 12.89614 | 106° | 66km/h | 9256m | -4.1m/s | -32.9°C | 18.9% | 317.4hPa | 2.6V | 00:00:00 | 00:00:00 | 00:00:00 | |
| OE5DRO-10 | 2026-09-04 13:21:29 | 47.94071 | 12.89593 | 104° | 68km/h | 9260m | -4.0m/s | -32.9°C | 18.7% | 317.2hPa | 2.6V | 07:40:00 | 00:00:00 | 00:00:00 | |
| OE5MMP-10 | 2026-09-04 13:21:28 | 47.94075 | 12.89572 | 103° | 71km/h | 9264m | -4.1m/s | -32.9°C | 18.6% | 317.1hPa | 2.6V | 00:00:00 | 02:51:30 | 00:00:00 | |
| BAUMI2-15 | 2026-09-04 13:21:27 | 47.94078 | 12.89551 | 102° | 68km/h | 9268m | -4.0m/s | -33.0°C | 18.3% | 316.8hPa | 2.6V | 00:00:00 | 02:51:29 | 00:00:00 | |
| DO3MHA-11 | 2026-09-04 13:21:25 | 47.94084 | 12.89503 | 102° | 73km/h | 9276m | -3.6m/s | -33.1°C | 18.0% | 316.5hPa | 2.6V | 00:00:00 | 02:51:27 | 00:00:00 | |
| OE5DXL-15 | 2026-09-04 13:21:24 | 47.94088 | 12.89477 | 103° | 68km/h | 9279m | -3.6m/s | -33.1°C | 17.9% | 316.3hPa | 2.6V | 00:00:00 | 00:00:00 | 00:00:00 | |
| DO7DH-14 | 2026-09-04 13:21:22 | 47.94098 | 12.89423 | 108° | 68km/h | 9287m | -3.5m/s | -33.1°C | 17.6% | 316.0hPa | 2.5V | 00:00:00 | 02:51:24 | 00:00:00 | |
| OE5MMP-10 | 2026-09-04 13:21:18 | 47.94127 | 12.89317 | 116° | 62km/h | 9302m | -3.8m/s | -33.2°C | 17.0% | 315.4hPa | 2.5V | 00:00:00 | 02:51:20 | 00:00:00 | |
| BAUMI2-15 | 2026-09-04 13:21:17 | 47.94135 | 12.89292 | 117° | 66km/h | 9305m | -3.6m/s | -33.2°C | 16.9% | 315.2hPa | 2.5V | 00:00:00 | 02:51:19 | 00:00:00 | |
| DO3MHA-11 | 2026-09-04 13:21:15 | 47.94151 | 12.89246 | 120° | 58km/h | 9313m | -3.9m/s | -33.3°C | 16.7% | 314.9hPa | 2.5V | 07:40:00 | 02:51:17 | 00:00:00 | |
| BAUMI2-15 | 2026-09-04 13:21:12 | 47.94175 | 12.89186 | 120° | 57km/h | 9325m | -4.0m/s | -33.2°C | 16.3% | 314.4hPa | 2.5V | 00:00:00 | 02:51:14 | 00:00:00 | |
| OE5DRO-10 | 2026-09-04 13:21:10 | 47.94188 | 12.89148 | 117° | 66km/h | 9332m | -3.9m/s | -33.2°C | 16.5% | 314.0hPa | 2.5V | 00:00:00 | 00:00:00 | 00:00:00 | |
| OE5WHR-10 | 2026-09-04 13:21:09 | 47.94194 | 12.89129 | 114° | 68km/h | 9336m | -3.9m/s | -33.3°C | 16.7% | 313.8hPa | 2.6V | 07:40:00 | 02:51:11 | 00:00:00 | |
| OE5MMP-10 | 2026-09-04 13:21:08 | 47.94199 | 12.89110 | 110° | 64km/h | 9340m | -3.6m/s | -33.3°C | 16.7% | 313.6hPa | 2.6V | 00:00:00 | 02:51:10 | 00:00:00 | |
| BAUMI2-15 | 2026-09-04 13:21:07 | 47.94203 | 12.89091 | 106° | 60km/h | 9344m | -3.7m/s | -33.4°C | 16.7% | 313.5hPa | 2.6V | 00:00:00 | 02:51:09 | 00:00:00 | |
| DO3MHA-11 | 2026-09-04 13:21:05 | 47.94210 | 12.89049 | 102° | 69km/h | 9351m | -3.6m/s | -33.5°C | 16.7% | 313.2hPa | 2.5V | 00:00:00 | 02:51:07 | 00:00:00 | |
| BAUMI2-15 | 2026-09-04 13:21:02 | 47.94220 | 12.88979 | 104° | 71km/h | 9362m | -3.6m/s | -33.7°C | 16.7% | 312.7hPa | 2.5V | 00:00:00 | 02:51:04 | 00:00:00 | |
| OE5MMP-10 | 2026-09-04 13:20:58 | 47.94239 | 12.88876 | 107° | 75km/h | 9377m | -3.8m/s | -33.7°C | 16.8% | 312.0hPa | 2.5V | 00:00:00 | 02:51:00 | 00:00:00 | |
| BAUMI2-15 | 2026-09-04 13:20:57 | 47.94245 | 12.88850 | 107° | 75km/h | 9381m | -3.7m/s | -33.7°C | 16.9% | 311.8hPa | 2.5V | 00:00:00 | 02:50:59 | 00:00:00 | |
| DG1MJG | 2026-09-04 13:20:56 | 47.94245 | 12.88850 | 108° | 73km/h | 9381m | -3.8m/s | -33.8°C | 15.1% | 311.9hPa | 2.5V | 07:40:00 | 00:00:00 | 00:00:00 | |
| NBG1-10 | 2026-09-04 13:20:55 | 47.94256 | 12.88797 | 109° | 69km/h | 9388m | -3.8m/s | -33.7°C | 16.9% | 311.5hPa | 2.5V | 00:00:00 | 02:50:57 | 00:00:00 | |
| OE5DXL-15 | 2026-09-04 13:20:54 | 47.94262 | 12.88770 | 110° | 69km/h | 9392m | -3.7m/s | -33.7°C | 16.9% | 311.3hPa | 2.5V | 00:00:00 | 00:00:00 | 00:00:00 | |
| DO7DH-14 | 2026-09-04 13:20:52 | 47.94275 | 12.88717 | 111° | 69km/h | 9400m | -3.9m/s | -33.8°C | 16.8% | 311.0hPa | 2.5V | 07:40:00 | 02:50:54 | 00:00:00 | |
| OE5DRO-10 | 2026-09-04 13:20:51 | 47.94282 | 12.88690 | 112° | 66km/h | 9404m | -3.9m/s | -33.8°C | 16.6% | 310.8hPa | 2.5V | 00:00:00 | 00:00:00 | 00:00:00 | |
| OE5WHR-10 | 2026-09-04 13:20:48 | 47.94304 | 12.88611 | 116° | 66km/h | 9416m | -4.1m/s | -33.8°C | 15.9% | 310.2hPa | 2.5V | 00:00:00 | 00:00:00 | 00:00:00 | |
| BAUMI2-15 | 2026-09-04 13:20:47 | 47.94313 | 12.88586 | 118° | 71km/h | 9420m | -4.1m/s | -33.8°C | 15.8% | 310.0hPa | 2.5V | 00:00:00 | 02:50:49 | 00:00:00 | |
| DO3MHA-11 | 2026-09-04 13:20:45 | 47.94330 | 12.88537 | 120° | 62km/h | 9428m | -3.8m/s | -33.9°C | 15.5% | 309.7hPa | 2.5V | 00:00:00 | 02:50:47 | 00:00:00 | |
| OE5MMP-10 | 2026-09-04 13:20:38 | 47.94390 | 12.88394 | 119° | 62km/h | 9455m | -4.0m/s | -34.0°C | 16.0% | 308.5hPa | 2.5V | 07:41:00 | 02:50:40 | 00:00:00 | |
| BAUMI2-15 | 2026-09-04 13:20:37 | 47.94397 | 12.88375 | 116° | 57km/h | 9459m | -3.8m/s | -34.1°C | 16.1% | 308.3hPa | 2.5V | 00:00:00 | 02:50:39 | 00:00:00 | |
| DO3MHA-11 | 2026-09-04 13:20:35 | 47.94407 | 12.88336 | 111° | 68km/h | 9467m | -3.7m/s | -34.2°C | 16.2% | 308.0hPa | 2.6V | 00:00:00 | 02:50:37 | 00:00:00 | |
| PG1ADW-2 | 2026-09-04 13:20:29 | 47.94436 | 12.88196 | 107° | 73km/h | 9490m | -3.9m/s | -34.5°C | 16.4% | 307.0hPa | 2.6V | 00:00:00 | 02:50:31 | 00:00:00 | |
| OE5FHM-15 | 2026-09-04 13:20:28 | 47.94441 | 12.88170 | 108° | 71km/h | 9494m | -3.8m/s | -34.6°C | 16.4% | 306.9hPa | 2.6V | 00:00:00 | 02:50:30 | 00:00:00 | |
| OE5WHR-10 | 2026-09-04 13:20:27 | 47.94447 | 12.88143 | 109° | 73km/h | 9498m | -3.9m/s | -34.6°C | 16.5% | 306.6hPa | 2.6V | 00:00:00 | 00:00:00 | 00:00:00 | |
| DG1MJG | 2026-09-04 13:20:26 | 47.94447 | 12.88143 | 109° | 75km/h | 9498m | -4.0m/s | -34.6°C | 14.7% | 306.7hPa | 2.6V | 07:41:00 | 00:00:00 | 00:00:00 | |
| DO3MHA-11 | 2026-09-04 13:20:25 | 47.94460 | 12.88089 | 111° | 78km/h | 9506m | -4.0m/s | -34.6°C | 16.5% | 306.3hPa | 2.6V | 00:00:00 | 02:50:27 | 00:00:00 | |
| OE5DXL-15 | 2026-09-04 13:20:24 | 47.94467 | 12.88062 | 112° | 73km/h | 9509m | -3.8m/s | -34.6°C | 16.4% | 306.1hPa | 2.6V | 00:00:00 | 00:00:00 | 00:00:00 | |
| NBG1-10 | 2026-09-04 13:20:22 | 47.94482 | 12.88008 | 114° | 75km/h | 9517m | -4.2m/s | -34.6°C | 16.4% | 305.8hPa | 2.6V | 00:00:00 | 02:50:24 | 00:00:00 | |
| OE5MMP-10 | 2026-09-04 13:20:18 | 47.94519 | 12.87902 | 121° | 69km/h | 9534m | -3.9m/s | -34.8°C | 16.5% | 305.0hPa | 2.6V | 00:00:00 | 02:50:20 | 00:00:00 | |
| BAUMI2-15 | 2026-09-04 13:20:17 | 47.94529 | 12.87877 | 121° | 73km/h | 9538m | -4.2m/s | -34.8°C | 16.5% | 304.9hPa | 2.6V | 00:00:00 | 02:50:19 | 00:00:00 | |
| DO3MHA-11 | 2026-09-04 13:20:15 | 47.94549 | 12.87829 | 124° | 66km/h | 9546m | -4.1m/s | -34.9°C | 16.8% | 304.5hPa | 2.6V | 00:00:00 | 02:50:17 | 00:00:00 | |
| OE5DRO-10 | 2026-09-04 13:20:13 | 47.94569 | 12.87786 | 126° | 69km/h | 9554m | -3.9m/s | -34.9°C | 17.1% | 304.2hPa | 2.6V | 00:00:00 | 00:00:00 | 00:00:00 | |
| PG1ADW-2 | 2026-09-04 13:20:09 | 47.94606 | 12.87706 | 122° | 75km/h | 9570m | -3.9m/s | -35.2°C | 17.8% | 303.5hPa | 2.5V | 00:00:00 | 00:00:00 | 00:00:00 | |
| OE5MMP-10 | 2026-09-04 13:20:08 | 47.94613 | 12.87686 | 118° | 69km/h | 9574m | -3.8m/s | -35.3°C | 17.7% | 303.3hPa | 2.5V | 00:00:00 | 02:50:10 | 00:00:00 | |
| OE5WHR-10 | 2026-09-04 13:20:06 | 47.94626 | 12.87643 | 111° | 78km/h | 9581m | -3.7m/s | -35.4°C | 17.7% | 303.0hPa | 2.5V | 00:00:00 | 02:50:08 | 00:00:00 | |
| DO3MHA-11 | 2026-09-04 13:20:05 | 47.94631 | 12.87620 | 110° | 75km/h | 9585m | -3.9m/s | -35.4°C | 17.6% | 302.8hPa | 2.5V | 00:00:00 | 02:50:07 | 00:00:00 | |
| OE5FHM-15 | 2026-09-04 13:19:58 | 47.94675 | 12.87439 | 111° | 75km/h | 9613m | -4.1m/s | -35.6°C | 17.5% | 301.6hPa | 2.4V | 00:00:00 | 02:50:00 | 00:00:00 | |
| DG1MJG | 2026-09-04 13:19:56 | 47.94682 | 12.87411 | 111° | 78km/h | 9617m | -4.1m/s | -35.6°C | 15.4% | 301.5hPa | 2.6V | 07:42:00 | 00:00:00 | 00:00:00 | |
| DO3MHA-11 | 2026-09-04 13:19:55 | 47.94697 | 12.87355 | 113° | 84km/h | 9626m | -4.2m/s | -35.6°C | 16.9% | 301.0hPa | 2.6V | 07:41:00 | 02:49:57 | 00:00:00 | |
| OE5DXL-15 | 2026-09-04 13:19:54 | 47.94705 | 12.87326 | 113° | 75km/h | 9630m | -4.3m/s | -35.6°C | 16.6% | 300.9hPa | 2.6V | 00:00:00 | 00:00:00 | 00:00:00 | |
| DO7DH-14 | 2026-09-04 13:19:52 | 47.94722 | 12.87268 | 115° | 73km/h | 9638m | -4.2m/s | -35.7°C | 16.0% | 300.5hPa | 2.6V | 00:00:00 | 02:49:54 | 00:00:00 | |
| PG1ADW-2 | 2026-09-04 13:19:49 | 47.94751 | 12.87182 | 120° | 71km/h | 9651m | -4.1m/s | -35.7°C | 15.4% | 299.9hPa | 2.6V | 07:41:00 | 00:00:00 | 00:00:00 | |
| OE5MMP-10 | 2026-09-04 13:19:48 | 47.94762 | 12.87154 | 122° | 75km/h | 9655m | -4.1m/s | -35.7°C | 15.1% | 299.8hPa | 2.6V | 00:00:00 | 02:49:50 | 00:00:00 | |
| OE5WHR-10 | 2026-09-04 13:19:45 | 47.94796 | 12.87075 | 124° | 69km/h | 9667m | -3.9m/s | -35.6°C | 14.4% | 299.2hPa | 2.4V | 00:00:00 | 00:00:00 | 00:00:00 | |
| OE5MMP-10 | 2026-09-04 13:19:38 | 47.94861 | 12.86917 | 117° | 68km/h | 9695m | -4.1m/s | -35.7°C | 13.7% | 298.1hPa | 2.5V | 00:00:00 | 02:49:40 | 00:00:00 | |
| DO3MHA-11 | 2026-09-04 13:19:35 | 47.94882 | 12.86849 | 113° | 69km/h | 9707m | -4.0m/s | -35.7°C | 13.8% | 297.6hPa | 2.5V | 00:00:00 | 02:49:37 | 00:00:00 | |
| DG1MFX-10 | 2026-09-04 13:19:34 | 47.94882 | 12.86849 | 114° | 66km/h | 9707m | -4.1m/s | -35.8°C | 12.1% | 297.6hPa | 2.4V | 00:00:00 | 00:00:00 | 00:00:00 | |
| PG1ADW-2 | 2026-09-04 13:19:29 | 47.94918 | 12.86708 | 109° | 78km/h | 9732m | -4.3m/s | -36.0°C | 13.7% | 296.5hPa | 2.4V | 00:00:00 | 00:00:00 | 00:00:00 | |
| OE5FHM-15 | 2026-09-04 13:19:28 | 47.94923 | 12.86683 | 108° | 73km/h | 9736m | -4.1m/s | -36.0°C | 13.6% | 296.3hPa | 2.4V | 00:00:00 | 02:49:30 | 00:00:00 | |
| DG1MJG | 2026-09-04 13:19:26 | 47.94928 | 12.86657 | 107° | 73km/h | 9740m | -4.1m/s | -36.1°C | 11.8% | 296.2hPa | 2.4V | 07:42:00 | 00:00:00 | 00:00:00 | |
| DO3MHA-11 | 2026-09-04 13:19:25 | 47.94938 | 12.86603 | 106° | 84km/h | 9748m | -4.2m/s | -36.1°C | 13.4% | 295.7hPa | 2.4V | 00:00:00 | 02:49:27 | 00:00:00 | |
| OE5DXL-15 | 2026-09-04 13:19:24 | 47.94944 | 12.86574 | 106° | 73km/h | 9753m | -4.0m/s | -36.1°C | 13.3% | 295.6hPa | 2.4V | 00:00:00 | 00:00:00 | 00:00:00 | |
| DO7DH-14 | 2026-09-04 13:19:22 | 47.94956 | 12.86516 | 108° | 73km/h | 9761m | -4.2m/s | -36.2°C | 13.5% | 295.2hPa | 2.4V | 00:00:00 | 02:49:24 | 00:00:00 | |
| OE5MMP-10 | 2026-09-04 13:19:18 | 47.94988 | 12.86396 | 116° | 75km/h | 9777m | -3.8m/s | -36.3°C | 13.3% | 294.6hPa | 2.4V | 07:42:00 | 02:49:20 | 00:00:00 | |
| NBG1-10 | 2026-09-04 13:19:16 | 47.95007 | 12.86340 | 118° | 75km/h | 9784m | -3.9m/s | 0°C | 0% | 0hPa | 2.6V | 00:00:00 | 02:49:18 | 00:00:00 | |
| DO3MHA-11 | 2026-09-04 13:19:15 | 47.95017 | 12.86313 | 120° | 69km/h | 9788m | -3.8m/s | -36.4°C | 13.3% | 294.1hPa | 2.6V | 00:00:00 | 02:49:17 | 00:00:00 | |
| PG1ADW-2 | 2026-09-04 13:19:09 | 47.95069 | 12.86171 | 116° | 69km/h | 9812m | -3.9m/s | -36.5°C | 13.3% | 293.1hPa | 2.6V | 00:00:00 | 02:49:11 | 00:00:00 | |
| OE5MMP-10 | 2026-09-04 13:19:08 | 47.95076 | 12.86149 | 115° | 64km/h | 9815m | -4.0m/s | -36.5°C | 13.4% | 292.9hPa | 2.6V | 00:00:00 | 02:49:10 | 00:00:00 | |
| DO3MHA-11 | 2026-09-04 13:19:05 | 47.95095 | 12.86082 | 113° | 66km/h | 9828m | -4.0m/s | -36.6°C | 13.4% | 292.4hPa | 2.6V | 00:00:00 | 02:49:07 | 00:00:00 | |
| DG1MFX-10 | 2026-09-04 13:19:04 | 47.95095 | 12.86082 | 113° | 64km/h | 9828m | -4.1m/s | -36.7°C | 11.7% | 292.5hPa | 2.4V | 07:43:00 | 00:00:00 | 00:00:00 | |
| OE5WHR-10 | 2026-09-04 13:19:03 | 47.95106 | 12.86038 | 109° | 75km/h | 9836m | -4.0m/s | -36.6°C | 13.4% | 292.1hPa | 2.4V | 00:00:00 | 02:49:05 | 00:00:00 | |
| OE5MMP-10 | 2026-09-04 13:18:58 | 47.95127 | 12.85923 | 102° | 78km/h | 9856m | -4.0m/s | -36.8°C | 13.0% | 291.2hPa | 2.4V | 00:00:00 | 02:49:00 | 00:00:00 | |
| OE5DRO-10 | 2026-09-04 13:18:57 | 47.95131 | 12.85898 | 100° | 77km/h | 9860m | -4.0m/s | -36.9°C | 12.9% | 291.0hPa | 2.4V | 07:42:00 | 00:00:00 | 00:00:00 | |
| DO3MHA-11 | 2026-09-04 13:18:55 | 47.95137 | 12.85844 | 100° | 82km/h | 9868m | -3.8m/s | -36.9°C | 12.5% | 290.7hPa | 2.4V | 00:00:00 | 02:48:57 | 00:00:00 | |
| OE5DXL-15 | 2026-09-04 13:18:54 | 47.95140 | 12.85815 | 101° | 75km/h | 9872m | -3.8m/s | -36.9°C | 12.4% | 290.5hPa | 2.4V | 00:00:00 | 00:00:00 | 00:00:00 | |
| DO7DH-14 | 2026-09-04 13:18:52 | 47.95149 | 12.85755 | 103° | 75km/h | 9879m | -4.0m/s | -36.9°C | 12.1% | 290.2hPa | 2.4V | 00:00:00 | 02:48:54 | 00:00:00 | |
| PG1ADW-2 | 2026-09-04 13:18:49 | 47.95165 | 12.85664 | 109° | 71km/h | 9891m | -3.8m/s | -37.0°C | 11.9% | 289.7hPa | 2.4V | 00:00:00 | 00:00:00 | 00:00:00 | |
| OE5MMP-10 | 2026-09-04 13:18:48 | 47.95173 | 12.85633 | 111° | 73km/h | 9895m | -4.2m/s | -37.0°C | 11.9% | 289.5hPa | 2.4V | 00:00:00 | 02:48:50 | 00:00:00 | |
| DO3MHA-11 | 2026-09-04 13:18:45 | 47.95197 | 12.85548 | 115° | 68km/h | 9907m | -4.1m/s | -37.0°C | 11.8% | 289.1hPa | 2.4V | 00:00:00 | 02:48:47 | 00:00:00 | |
| DG1MFX-10 | 2026-09-04 13:18:44 | 47.95197 | 12.85548 | 116° | 78km/h | 9907m | -4.2m/s | -37.1°C | 10.1% | 289.1hPa | 2.4V | 07:43:00 | 00:00:00 | 00:00:00 | |
| NBG1-10 | 2026-09-04 13:18:43 | 47.95212 | 12.85497 | 116° | 71km/h | 9915m | -3.8m/s | 0°C | 0% | 0hPa | 2.4V | 00:00:00 | 02:48:45 | 00:00:00 | |
| OE5WHR-10 | 2026-09-04 13:18:42 | 47.95220 | 12.85474 | 115° | 73km/h | 9919m | -3.9m/s | -37.1°C | 11.8% | 288.6hPa | 2.4V | 00:00:00 | 00:00:00 | 00:00:00 | |
| OE5MMP-10 | 2026-09-04 13:18:38 | 47.95243 | 12.85384 | 106° | 69km/h | 9934m | -3.8m/s | -37.2°C | 11.6% | 288.0hPa | 2.4V | 00:00:00 | 02:48:40 | 00:00:00 | |
| DO3MHA-11 | 2026-09-04 13:18:35 | 47.95253 | 12.85312 | 100° | 75km/h | 9946m | -4.0m/s | -37.3°C | 11.6% | 287.5hPa | 2.4V | 07:43:00 | 02:48:37 | 00:00:00 | |
| DL6DJ-15 | 2026-09-04 13:18:33 | 47.95262 | 12.85236 | 97° | 71km/h | 9958m | -3.9m/s | -37.5°C | 9.8% | 287.1hPa | 2.6V | 00:00:00 | 00:00:00 | 00:00:00 | |
| PG1ADW-2 | 2026-09-04 13:18:29 | 47.95269 | 12.85153 | 99° | 78km/h | 9970m | -4.0m/s | -37.5°C | 11.4% | 286.5hPa | 2.6V | 00:00:00 | 00:00:00 | 00:00:00 | |
| OE5FHM-15 | 2026-09-04 13:18:28 | 47.95272 | 12.85125 | 99° | 75km/h | 9974m | -4.0m/s | -37.6°C | 11.4% | 286.4hPa | 2.6V | 00:00:00 | 02:48:30 | 00:00:00 | |
| DO3MHA-11 | 2026-09-04 13:18:25 | 47.95284 | 12.85034 | 103° | 84km/h | 9986m | -3.9m/s | -37.6°C | 11.0% | 285.8hPa | 2.6V | 00:00:00 | 02:48:27 | 00:00:00 | |
| OE5DXL-15 | 2026-09-04 13:18:24 | 47.95288 | 12.85002 | 104° | 75km/h | 9990m | -3.9m/s | -37.6°C | 10.9% | 285.6hPa | 2.6V | 07:43:00 | 00:00:00 | 00:00:00 | |
| DG1MFX-10 | 2026-09-04 13:18:23 | 47.95288 | 12.85002 | 105° | 86km/h | 9990m | -3.9m/s | -37.7°C | 9.3% | 285.7hPa | 2.6V | 07:43:00 | 00:00:00 | 00:00:00 | |
| DO7DH-14 | 2026-09-04 13:18:22 | 47.95299 | 12.84939 | 107° | 77km/h | 9998m | -4.0m/s | -37.7°C | 10.8% | 285.4hPa | 2.6V | 00:00:00 | 02:48:24 | 00:00:00 | |
| OE5WHR-10 | 2026-09-04 13:18:21 | 47.95306 | 12.84908 | 108° | 71km/h | 10002m | -4.0m/s | -37.7°C | 10.8% | 285.1hPa | 2.6V | 07:43:00 | 00:00:00 | 00:00:00 | |
| OE5DRO-10 | 2026-09-04 13:18:19 | 47.95320 | 12.84847 | 111° | 69km/h | 10010m | -4.0m/s | -37.7°C | 10.9% | 284.8hPa | 2.6V | 00:00:00 | 00:00:00 | 00:00:00 | |
| OE5MMP-10 | 2026-09-04 13:18:18 | 47.95328 | 12.84818 | 112° | 71km/h | 10014m | -3.8m/s | -37.8°C | 11.0% | 284.7hPa | 2.6V | 00:00:00 | 02:48:20 | 00:00:00 | |
| OE5HKT-10 | 2026-09-04 13:18:16 | 47.95343 | 12.84762 | 113° | 69km/h | 10022m | -3.7m/s | -37.9°C | 11.1% | 284.3hPa | 2.4V | 00:00:00 | 00:00:00 | 00:00:00 | |
| DO3MHA-11 | 2026-09-04 13:18:15 | 47.95350 | 12.84736 | 114° | 66km/h | 10025m | -3.7m/s | -38.0°C | 11.2% | 284.2hPa | 2.4V | 00:00:00 | 02:48:17 | 00:00:00 | |
| BAUMI2-15 | 2026-09-04 13:18:12 | 47.95370 | 12.84664 | 112° | 64km/h | 10037m | -3.8m/s | -38.0°C | 11.4% | 283.7hPa | 2.4V | 07:43:00 | 02:48:14 | 00:00:00 | |
| PG1ADW-2 | 2026-09-04 13:18:09 | 47.95388 | 12.84596 | 109° | 73km/h | 10049m | -4.1m/s | -38.1°C | 11.4% | 283.2hPa | 2.4V | 00:00:00 | 00:00:00 | 00:00:00 | |
| OE5MMP-10 | 2026-09-04 13:18:08 | 47.95392 | 12.84573 | 106° | 68km/h | 10053m | -4.1m/s | -38.1°C | 11.3% | 283.1hPa | 2.6V | 00:00:00 | 02:48:10 | 00:00:00 | |
| BAUMI2-15 | 2026-09-04 13:18:07 | 47.95396 | 12.84551 | 105° | 62km/h | 10057m | -4.2m/s | -38.2°C | 11.4% | 282.9hPa | 2.6V | 00:00:00 | 02:48:09 | 00:00:00 | |
| DO3MHA-11 | 2026-09-04 13:18:05 | 47.95403 | 12.84506 | 102° | 73km/h | 10065m | -4.0m/s | -38.3°C | 11.3% | 282.6hPa | 2.4V | 00:00:00 | 02:48:07 | 00:00:00 | |
| DG1MFX-10 | 2026-09-04 13:18:03 | 47.95406 | 12.84483 | 101° | 64km/h | 10069m | -4.2m/s | -38.3°C | 9.5% | 282.4hPa | 2.4V | 00:00:00 | 00:00:00 | 00:00:00 | |
| DL6DJ-15 | 2026-09-04 13:18:02 | 47.95414 | 12.84407 | 97° | 73km/h | 10081m | -3.7m/s | -38.6°C | 9.4% | 281.9hPa | 2.4V | 00:00:00 | 00:00:00 | 00:00:00 | |
| OE5WHR-10 | 2026-09-04 13:18:00 | 47.95416 | 12.84379 | 99° | 73km/h | 10085m | -3.5m/s | -38.6°C | 11.1% | 281.7hPa | 2.4V | 00:00:00 | 02:48:02 | 00:00:00 | |
| OE5FHM-15 | 2026-09-04 13:17:58 | 47.95423 | 12.84319 | 103° | 71km/h | 10092m | -3.7m/s | -38.7°C | 10.9% | 281.4hPa | 2.4V | 00:00:00 | 02:48:00 | 00:00:00 | |
| BAUMI2-15 | 2026-09-04 13:17:57 | 47.95428 | 12.84289 | 104° | 80km/h | 10096m | -4.0m/s | -38.6°C | 10.8% | 281.3hPa | 2.4V | 00:00:00 | 02:47:59 | 00:00:00 | |
| OE5HKT-10 | 2026-09-04 13:17:55 | 47.95440 | 12.84230 | 109° | 69km/h | 10104m | -3.8m/s | -38.7°C | 10.5% | 281.0hPa | 2.4V | 07:43:00 | 00:00:00 | 00:00:00 | |
| OE5DXL-15 | 2026-09-04 13:17:54 | 47.95446 | 12.84201 | 110° | 71km/h | 10108m | -3.9m/s | -38.7°C | 10.4% | 280.8hPa | 2.4V | 00:00:00 | 00:00:00 | 00:00:00 | |
| DO7DH-14 | 2026-09-04 13:17:52 | 47.95460 | 12.84145 | 112° | 73km/h | 10115m | -3.9m/s | -38.6°C | 10.1% | 280.5hPa | 2.4V | 00:00:00 | 02:47:54 | 00:00:00 | |
| PG1ADW-2 | 2026-09-04 13:17:49 | 47.95484 | 12.84064 | 115° | 68km/h | 10127m | -3.8m/s | -38.6°C | 9.9% | 280.0hPa | 2.4V | 00:00:00 | 02:47:51 | 00:00:00 | |
| OE5MMP-10 | 2026-09-04 13:17:48 | 47.95492 | 12.84039 | 116° | 64km/h | 10131m | -4.0m/s | -38.6°C | 9.8% | 279.9hPa | 2.4V | 00:00:00 | 02:47:50 | 00:00:00 | |
| BAUMI2-15 | 2026-09-04 13:17:47 | 47.95499 | 12.84014 | 117° | 66km/h | 10135m | -3.8m/s | -38.6°C | 9.8% | 279.7hPa | 2.5V | 00:00:00 | 02:47:49 | 00:00:00 | |
| DO3MHA-11 | 2026-09-04 13:17:45 | 47.95514 | 12.83968 | 116° | 62km/h | 10143m | -3.9m/s | -38.6°C | 9.8% | 279.3hPa | 2.5V | 00:00:00 | 02:47:47 | 00:00:00 | |
| BAUMI2-15 | 2026-09-04 13:17:42 | 47.95533 | 12.83904 | 110° | 58km/h | 10154m | -3.8m/s | -38.6°C | 10.1% | 278.9hPa | 2.5V | 00:00:00 | 02:47:44 | 00:00:00 | |
| OE5DRO-10 | 2026-09-04 13:17:41 | 47.95538 | 12.83884 | 108° | 73km/h | 10158m | -3.7m/s | -38.7°C | 10.2% | 278.7hPa | 2.5V | 00:00:00 | 00:00:00 | 00:00:00 | |
| DG1MFX-10 | 2026-09-04 13:17:40 | 47.95538 | 12.83884 | 108° | 57km/h | 10158m | -3.8m/s | -38.7°C | 8.5% | 278.8hPa | 2.5V | 00:00:00 | 00:00:00 | 00:00:00 | |
| OE5WHR-10 | 2026-09-04 13:17:39 | 47.95545 | 12.83841 | 103° | 73km/h | 10166m | -3.7m/s | -38.8°C | 10.3% | 278.5hPa | 2.5V | 00:00:00 | 00:00:00 | 00:00:00 | |
| OE5MMP-10 | 2026-09-04 13:17:38 | 47.95548 | 12.83819 | 100° | 73km/h | 10170m | -3.8m/s | -38.8°C | 10.4% | 278.4hPa | 2.4V | 00:00:00 | 02:47:40 | 00:00:00 | |
| BAUMI2-15 | 2026-09-04 13:17:37 | 47.95550 | 12.83795 | 98° | 69km/h | 10173m | -3.7m/s | -38.9°C | 10.3% | 278.2hPa | 2.4V | 00:00:00 | 02:47:39 | 00:00:00 | |
| DO3MHA-11 | 2026-09-04 13:17:35 | 47.95554 | 12.83744 | 97° | 77km/h | 10181m | -3.8m/s | -39.0°C | 10.2% | 277.8hPa | 2.6V | 00:00:00 | 02:47:37 | 00:00:00 | |
| OE5HKT-10 | 2026-09-04 13:17:34 | 47.95556 | 12.83718 | 97° | 69km/h | 10185m | -3.8m/s | -39.0°C | 10.3% | 277.7hPa | 2.6V | 00:00:00 | 02:47:36 | 00:00:00 | |
| BAUMI2-15 | 2026-09-04 13:17:32 | 47.95561 | 12.83664 | 98° | 78km/h | 10193m | -3.7m/s | -39.1°C | 10.2% | 277.4hPa | 2.6V | 07:44:00 | 02:47:34 | 00:00:00 | |
| DL6DJ-15 | 2026-09-04 13:17:30 | 47.95567 | 12.83606 | 100° | 78km/h | 10200m | -3.8m/s | -39.2°C | 8.3% | 277.1hPa | 2.6V | 00:00:00 | 00:00:00 | 00:00:00 | |
| PG1ADW-2 | 2026-09-04 13:17:29 | 47.95571 | 12.83577 | 103° | 69km/h | 10204m | -4.0m/s | -39.1°C | 9.9% | 276.9hPa | 2.6V | 00:00:00 | 00:00:00 | 00:00:00 | |
| OE5MMP-10 | 2026-09-04 13:17:28 | 47.95576 | 12.83547 | 105° | 77km/h | 10208m | -4.1m/s | -39.1°C | 9.8% | 276.8hPa | 2.6V | 00:00:00 | 02:47:30 | 00:00:00 | |
| BAUMI2-15 | 2026-09-04 13:17:27 | 47.95582 | 12.83517 | 106° | 80km/h | 10212m | -3.8m/s | -39.2°C | 9.7% | 276.6hPa | 2.6V | 00:00:00 | 02:47:29 | 00:00:00 | |
| DO3MHA-11 | 2026-09-04 13:17:25 | 47.95594 | 12.83459 | 110° | 71km/h | 10220m | -3.7m/s | -39.2°C | 9.7% | 276.3hPa | 2.6V | 00:00:00 | 02:47:27 | 00:00:00 | |
| OE5DXL-15 | 2026-09-04 13:17:24 | 47.95601 | 12.83431 | 113° | 69km/h | 10223m | -3.5m/s | -39.2°C | 9.6% | 276.1hPa | 2.6V | 00:00:00 | 00:00:00 | 00:00:00 | |
| BAUMI2-15 | 2026-09-04 13:17:22 | 47.95617 | 12.83378 | 115° | 71km/h | 10231m | -3.6m/s | -39.3°C | 9.6% | 275.8hPa | 2.6V | 00:00:00 | 02:47:24 | 00:00:00 | |
| OE5WHR-10 | 2026-09-04 13:17:18 | 47.95647 | 12.83282 | 116° | 69km/h | 10246m | -3.8m/s | -39.4°C | 9.8% | 275.3hPa | 2.4V | 00:00:00 | 00:00:00 | 00:00:00 | |
| BAUMI2-15 | 2026-09-04 13:17:17 | 47.95654 | 12.83260 | 116° | 60km/h | 10249m | -3.7m/s | -39.4°C | 9.9% | 275.1hPa | 2.4V | 00:00:00 | 02:47:19 | 00:00:00 | |
| DO3MHA-11 | 2026-09-04 13:17:15 | 47.95667 | 12.83218 | 113° | 62km/h | 10257m | -3.7m/s | -39.5°C | 10.0% | 274.8hPa | 2.4V | 07:44:00 | 02:47:17 | 00:00:00 | |
| OE5HKT-10 | 2026-09-04 13:17:13 | 47.95677 | 12.83177 | 107° | 71km/h | 10264m | -3.6m/s | -39.6°C | 10.1% | 274.5hPa | 2.4V | 00:00:00 | 00:00:00 | 00:00:00 | |
| BAUMI2-15 | 2026-09-04 13:17:12 | 47.95680 | 12.83156 | 104° | 60km/h | 10268m | -4.0m/s | -39.5°C | 10.1% | 274.3hPa | 2.5V | 00:00:00 | 02:47:14 | 00:00:00 | |
| DO7DH-14 | 2026-09-04 13:17:11 | 47.95684 | 12.83135 | 102° | 68km/h | 10272m | -3.7m/s | -39.6°C | 10.1% | 274.2hPa | 2.5V | 00:00:00 | 02:47:13 | 00:00:00 | |
| PG1ADW-2 | 2026-09-04 13:17:09 | 47.95689 | 12.83090 | 99° | 71km/h | 10279m | -3.6m/s | -39.7°C | 10.1% | 273.8hPa | 2.4V | 07:44:00 | 00:00:00 | 00:00:00 | |
| OE5MMP-10 | 2026-09-04 13:17:08 | 47.95691 | 12.83067 | 97° | 77km/h | 10283m | -3.5m/s | -39.8°C | 10.1% | 273.7hPa | 2.4V | 00:00:00 | 02:47:10 | 00:00:00 | |
| BAUMI2-15 | 2026-09-04 13:17:07 | 47.95693 | 12.83041 | 97° | 75km/h | 10287m | -3.7m/s | -39.8°C | 10.1% | 273.6hPa | 2.4V | 00:00:00 | 02:47:09 | 00:00:00 | |
| DO3MHA-11 | 2026-09-04 13:17:05 | 47.95697 | 12.82987 | 98° | 78km/h | 10294m | -3.6m/s | -40.0°C | 10.2% | 273.3hPa | 2.6V | 00:00:00 | 02:47:07 | 00:00:00 | |
| OE5DRO-10 | 2026-09-04 13:17:03 | 47.95703 | 12.82930 | 102° | 69km/h | 10302m | -3.6m/s | -40.0°C | 10.2% | 273.0hPa | 2.4V | 00:00:00 | 00:00:00 | 00:00:00 | |
| DL6DJ-15 | 2026-09-04 13:16:59 | 47.95727 | 12.82813 | 110° | 80km/h | 10316m | -3.6m/s | -40.1°C | 8.6% | 272.4hPa | 2.4V | 00:00:00 | 00:00:00 | 00:00:00 | |
| OE5MMP-10 | 2026-09-04 13:16:58 | 47.95734 | 12.82784 | 112° | 68km/h | 10320m | -3.9m/s | -40.0°C | 10.6% | 272.2hPa | 2.4V | 00:00:00 | 02:47:00 | 00:00:00 | |
| OE5WHR-10 | 2026-09-04 13:16:57 | 47.95741 | 12.82757 | 114° | 66km/h | 10324m | -3.9m/s | -40.1°C | 10.8% | 272.1hPa | 2.4V | 00:00:00 | 02:46:59 | 00:00:00 | |
| DO3MHA-11 | 2026-09-04 13:16:55 | 47.95757 | 12.82707 | 116° | 62km/h | 10331m | -3.6m/s | -40.1°C | 11.2% | 271.8hPa | 2.4V | 00:00:00 | 02:46:57 | 00:00:00 | |
| OE5DXL-15 | 2026-09-04 13:16:54 | 47.95764 | 12.82683 | 117° | 69km/h | 10335m | -3.7m/s | -40.2°C | 11.5% | 271.7hPa | 2.4V | 00:00:00 | 00:00:00 | 00:00:00 | |
| DG1MJG | 2026-09-04 13:16:53 | 47.95764 | 12.82683 | 117° | 68km/h | 10335m | -3.8m/s | -40.2°C | 9.5% | 271.7hPa | 2.5V | 07:45:00 | 00:00:00 | 00:00:00 | |
| BAUMI2-15 | 2026-09-04 13:16:52 | 47.95779 | 12.82640 | 116° | 60km/h | 10342m | -3.6m/s | -40.3°C | 12.0% | 271.3hPa | 2.5V | 07:44:00 | 02:46:54 | 00:00:00 | |
| OE5HKT-10 | 2026-09-04 13:16:51 | 47.95785 | 12.82618 | 114° | 68km/h | 10346m | -3.4m/s | -40.3°C | 12.3% | 271.2hPa | 2.6V | 00:00:00 | 00:00:00 | 00:00:00 | |
| PG1ADW-2 | 2026-09-04 13:16:49 | 47.95796 | 12.82577 | 109° | 71km/h | 10353m | -3.6m/s | -40.4°C | 12.5% | 270.9hPa | 2.6V | 00:00:00 | 00:00:00 | 00:00:00 | |
| OE5MMP-10 | 2026-09-04 13:16:48 | 47.95800 | 12.82556 | 106° | 64km/h | 10356m | -3.7m/s | -40.4°C | 12.6% | 270.8hPa | 2.6V | 00:00:00 | 02:46:50 | 00:00:00 | |
| BAUMI2-15 | 2026-09-04 13:16:47 | 47.95804 | 12.82535 | 104° | 60km/h | 10360m | -3.6m/s | -40.4°C | 12.6% | 270.6hPa | 2.4V | 00:00:00 | 02:46:49 | 00:00:00 | |
| DO3MHA-11 | 2026-09-04 13:16:45 | 47.95810 | 12.82493 | 101° | 71km/h | 10368m | -3.8m/s | -40.5°C | 12.8% | 270.3hPa | 2.4V | 00:00:00 | 02:46:47 | 00:00:00 | |
| OE5DRO-10 | 2026-09-04 13:16:44 | 47.95812 | 12.82470 | 99° | 73km/h | 10372m | -3.6m/s | -40.6°C | 12.8% | 270.2hPa | 2.4V | 00:00:00 | 00:00:00 | 00:00:00 | |
| BAUMI2-15 | 2026-09-04 13:16:42 | 47.95816 | 12.82423 | 97° | 73km/h | 10379m | -3.6m/s | -40.7°C | 12.9% | 269.9hPa | 2.4V | 00:00:00 | 02:46:44 | 00:00:00 | |
| DO7DH-14 | 2026-09-04 13:16:41 | 47.95818 | 12.82397 | 97° | 69km/h | 10383m | -3.6m/s | -40.7°C | 13.0% | 269.8hPa | 2.4V | 07:45:00 | 02:46:43 | 00:00:00 | |
| OE5MMP-10 | 2026-09-04 13:16:38 | 47.95827 | 12.82315 | 101° | 78km/h | 10393m | -3.4m/s | -40.8°C | 13.2% | 269.3hPa | 2.4V | 07:45:00 | 02:46:40 | 00:00:00 | |
| BAUMI2-15 | 2026-09-04 13:16:37 | 47.95831 | 12.82286 | 103° | 80km/h | 10397m | -3.7m/s | -40.8°C | 13.2% | 269.1hPa | 2.4V | 00:00:00 | 02:46:39 | 00:00:00 | |
| OE5WHR-10 | 2026-09-04 13:16:36 | 47.95835 | 12.82256 | 105° | 68km/h | 10401m | -3.6m/s | -40.9°C | 13.2% | 269.0hPa | 2.4V | 00:00:00 | 00:00:00 | 00:00:00 | |
| DO3MHA-11 | 2026-09-04 13:16:35 | 47.95840 | 12.82227 | 106° | 75km/h | 10404m | -3.6m/s | -40.9°C | 13.1% | 268.8hPa | 2.4V | 00:00:00 | 02:46:37 | 00:00:00 | |
| BAUMI2-15 | 2026-09-04 13:16:32 | 47.95859 | 12.82140 | 112° | 75km/h | 10415m | -3.6m/s | -40.9°C | 13.3% | 268.5hPa | 2.5V | 00:00:00 | 02:46:34 | 00:00:00 | |
| DG1MFX-10 | 2026-09-04 13:16:31 | 47.95860 | 12.82140 | 112° | 78km/h | 10415m | -3.6m/s | -41.0°C | 11.3% | 268.5hPa | 2.5V | 07:46:00 | 00:00:00 | 00:00:00 | |
| PG1ADW-2 | 2026-09-04 13:16:29 | 47.95882 | 12.82062 | 116° | 66km/h | 10426m | -3.6m/s | -41.0°C | 13.5% | 268.0hPa | 2.5V | 00:00:00 | 02:46:31 | 00:00:00 | |
| OE5FHM-15 | 2026-09-04 13:16:28 | 47.95890 | 12.82037 | 116° | 69km/h | 10429m | -3.6m/s | -41.1°C | 13.6% | 267.9hPa | 2.5V | 00:00:00 | 02:46:30 | 00:00:00 | |
| BAUMI2-15 | 2026-09-04 13:16:27 | 47.95898 | 12.82014 | 116° | 62km/h | 10433m | -3.5m/s | -41.1°C | 13.7% | 267.7hPa | 2.5V | 00:00:00 | 02:46:29 | 00:00:00 | |
| DO3MHA-11 | 2026-09-04 13:16:25 | 47.95912 | 12.81971 | 115° | 58km/h | 10440m | -3.5m/s | -41.2°C | 14.0% | 267.5hPa | 2.5V | 00:00:00 | 02:46:27 | 00:00:00 | |
| OE5DXL-15 | 2026-09-04 13:16:24 | 47.95918 | 12.81949 | 114° | 68km/h | 10444m | -3.5m/s | -41.2°C | 14.2% | 267.3hPa | 2.5V | 00:00:00 | 00:00:00 | 00:00:00 | |
| BAUMI2-15 | 2026-09-04 13:16:22 | 47.95929 | 12.81908 | 110° | 58km/h | 10451m | -3.6m/s | -41.3°C | 14.3% | 267.0hPa | 2.5V | 00:00:00 | 02:46:24 | 00:00:00 | |
| OE5MMP-10 | 2026-09-04 13:16:18 | 47.95943 | 12.81824 | 101° | 69km/h | 10465m | -3.6m/s | -41.4°C | 14.4% | 266.5hPa | 2.4V | 00:00:00 | 02:46:20 | 00:00:00 | |
| BAUMI2-15 | 2026-09-04 13:16:17 | 47.95945 | 12.81802 | 99° | 64km/h | 10469m | -3.7m/s | -41.5°C | 14.4% | 266.3hPa | 2.6V | 00:00:00 | 02:46:19 | 00:00:00 | |
| DO3MHA-11 | 2026-09-04 13:16:15 | 47.95949 | 12.81755 | 97° | 75km/h | 10476m | -3.5m/s | -41.6°C | 14.6% | 266.0hPa | 2.6V | 00:00:00 | 02:46:17 | 00:00:00 | |
| OE3JTB-15 | 2026-09-04 13:16:13 | 47.95953 | 12.81704 | 98° | 66km/h | 10484m | -3.3m/s | 0°C | 0% | 0hPa | 2.6V | 00:00:00 | 02:46:15 | 00:00:00 | |
| DO7DH-14 | 2026-09-04 13:16:11 | 47.95959 | 12.81649 | 101° | 68km/h | 10490m | -3.4m/s | -41.8°C | 14.8% | 265.5hPa | 2.6V | 00:00:00 | 02:46:13 | 00:00:00 | |
| PG1ADW-2 | 2026-09-04 13:16:09 | 47.95968 | 12.81591 | 105° | 68km/h | 10497m | -3.3m/s | -41.8°C | 14.8% | 265.2hPa | 2.6V | 00:00:00 | 00:00:00 | 00:00:00 | |
| DG1MFX-10 | 2026-09-04 13:16:08 | 47.95973 | 12.81562 | 106° | 78km/h | 10501m | -3.6m/s | -41.9°C | 12.6% | 265.1hPa | 2.4V | 07:46:00 | 00:00:00 | 00:00:00 | |
| OE5DRO-10 | 2026-09-04 13:16:06 | 47.95985 | 12.81506 | 110° | 64km/h | 10508m | -3.7m/s | -41.9°C | 15.1% | 264.8hPa | 2.4V | 00:00:00 | 00:00:00 | 00:00:00 | |
| DO3MHA-11 | 2026-09-04 13:16:05 | 47.95992 | 12.81478 | 112° | 69km/h | 10512m | -3.6m/s | -41.9°C | 15.3% | 264.6hPa | 2.4V | 00:00:00 | 02:46:07 | 00:00:00 | |
| DL6DJ-15 | 2026-09-04 13:15:57 | 47.96052 | 12.81284 | 115° | 62km/h | 10540m | -3.6m/s | -42.1°C | 13.7% | 263.6hPa | 2.4V | 00:00:00 | 00:00:00 | 00:00:00 | |
| DO3MHA-11 | 2026-09-04 13:15:55 | 47.96064 | 12.81243 | 113° | 58km/h | 10547m | -3.6m/s | -42.2°C | 16.4% | 263.2hPa | 2.4V | 07:45:00 | 02:45:57 | 00:00:00 | |
| OE5WHR-10 | 2026-09-04 13:15:54 | 47.96069 | 12.81223 | 111° | 68km/h | 10551m | -3.8m/s | -42.2°C | 16.6% | 263.1hPa | 2.4V | 00:00:00 | 02:45:56 | 00:00:00 | |
| DG1MJG | 2026-09-04 13:15:52 | 47.96078 | 12.81184 | 107° | 55km/h | 10558m | -3.6m/s | -42.3°C | 14.3% | 262.8hPa | 2.4V | 07:46:00 | 00:00:00 | 00:00:00 | |
| PG1ADW-2 | 2026-09-04 13:15:49 | 47.96087 | 12.81123 | 99° | 69km/h | 10569m | -3.5m/s | -42.4°C | 16.8% | 262.3hPa | 2.4V | 00:00:00 | 00:00:00 | 00:00:00 | |
| OE5MMP-10 | 2026-09-04 13:15:48 | 47.96089 | 12.81101 | 97° | 71km/h | 10573m | -3.5m/s | -42.4°C | 16.8% | 262.2hPa | 2.4V | 00:00:00 | 02:45:50 | 00:00:00 | |
| OE5DRO-10 | 2026-09-04 13:15:47 | 47.96090 | 12.81079 | 96° | 69km/h | 10576m | -3.6m/s | -42.4°C | 16.7% | 262.1hPa | 2.4V | 00:00:00 | 00:00:00 | 00:00:00 | |
| DG1MFX-10 | 2026-09-04 13:15:46 | 47.96091 | 12.81079 | 96° | 62km/h | 10576m | -3.6m/s | -42.5°C | 14.3% | 262.1hPa | 2.4V | 07:46:00 | 00:00:00 | 00:00:00 | |
| DO3MHA-11 | 2026-09-04 13:15:45 | 47.96093 | 12.81030 | 96° | 75km/h | 10584m | -3.6m/s | -42.6°C | 16.7% | 261.8hPa | 2.4V | 00:00:00 | 02:45:47 | 00:00:00 | |
| OE3JTB-15 | 2026-09-04 13:15:44 | 47.96095 | 12.81004 | 97° | 66km/h | 10587m | -3.5m/s | 0°C | 0% | 0hPa | 2.4V | 00:00:00 | 00:00:00 | 00:00:00 | |
| DO7DH-14 | 2026-09-04 13:15:41 | 47.96104 | 12.80921 | 102° | 68km/h | 10598m | -3.5m/s | -42.7°C | 16.4% | 261.3hPa | 2.4V | 00:00:00 | 02:45:43 | 00:00:00 | |
| OE5MMP-10 | 2026-09-04 13:15:38 | 47.96119 | 12.80837 | 110° | 66km/h | 10609m | -3.3m/s | -42.7°C | 16.5% | 260.8hPa | 2.5V | 00:00:00 | 02:45:40 | 00:00:00 | |
| DO3MHA-11 | 2026-09-04 13:15:35 | 47.96140 | 12.80760 | 115° | 60km/h | 10620m | -3.4m/s | -42.8°C | 16.7% | 260.5hPa | 2.5V | 00:00:00 | 02:45:37 | 00:00:00 | |
| OE5WHR-10 | 2026-09-04 13:15:33 | 47.96155 | 12.80713 | 116° | 64km/h | 10626m | -3.5m/s | -42.8°C | 17.0% | 260.1hPa | 2.4V | 07:46:00 | 00:00:00 | 00:00:00 | |
| PG1ADW-2 | 2026-09-04 13:15:29 | 47.96180 | 12.80632 | 112° | 66km/h | 10641m | -3.6m/s | -42.9°C | 17.5% | 259.6hPa | 2.4V | 00:00:00 | 00:00:00 | 00:00:00 | |
| OE5MMP-10 | 2026-09-04 13:15:28 | 47.96185 | 12.80612 | 110° | 58km/h | 10644m | -3.4m/s | -43.0°C | 17.7% | 259.5hPa | 2.4V | 00:00:00 | 02:45:30 | 00:00:00 | |
| DL6DJ-15 | 2026-09-04 13:15:26 | 47.96192 | 12.80573 | 101° | 53km/h | 10651m | -3.5m/s | -43.1°C | 15.2% | 259.3hPa | 2.4V | 00:00:00 | 00:00:00 | 00:00:00 | |
| DO3MHA-11 | 2026-09-04 13:15:25 | 47.96195 | 12.80553 | 100° | 64km/h | 10655m | -3.5m/s | -43.1°C | 17.9% | 259.1hPa | 2.4V | 00:00:00 | 02:45:27 | 00:00:00 | |
| OE5DXL-15 | 2026-09-04 13:15:24 | 47.96197 | 12.80532 | 98° | 64km/h | 10658m | -3.5m/s | -43.1°C | 18.0% | 259.0hPa | 2.4V | 00:00:00 | 00:00:00 | 00:00:00 | |
| DG1MJG | 2026-09-04 13:15:21 | 47.96200 | 12.80489 | 96° | 60km/h | 10665m | -3.4m/s | -43.3°C | 15.4% | 258.7hPa | 2.4V | 07:46:00 | 00:00:00 | 00:00:00 | |
| OE5MMP-10 | 2026-09-04 13:15:18 | 47.96206 | 12.80389 | 96° | 75km/h | 10679m | -3.5m/s | -43.5°C | 17.9% | 258.1hPa | 2.4V | 07:46:00 | 02:45:20 | 00:00:00 | |
| OE3JTB-15 | 2026-09-04 13:15:15 | 47.96213 | 12.80307 | 101° | 58km/h | 10690m | -3.6m/s | 0°C | 0% | 0hPa | 2.6V | 00:00:00 | 00:00:00 | 00:00:00 | |
| OE5WHR-10 | 2026-09-04 13:15:12 | 47.96227 | 12.80222 | 107° | 62km/h | 10701m | -3.6m/s | -43.5°C | 17.6% | 257.3hPa | 2.6V | 00:00:00 | 00:00:00 | 00:00:00 | |
| DO7DH-14 | 2026-09-04 13:15:11 | 47.96233 | 12.80195 | 109° | 62km/h | 10705m | -3.6m/s | -43.6°C | 17.7% | 257.1hPa | 2.6V | 00:00:00 | 02:45:13 | 00:00:00 | |
| PG1ADW-2 | 2026-09-04 13:15:09 | 47.96247 | 12.80143 | 114° | 62km/h | 10712m | -3.5m/s | -43.6°C | 17.9% | 256.9hPa | 2.6V | 00:00:00 | 02:45:11 | 00:00:00 | |
| OE5MMP-10 | 2026-09-04 13:15:08 | 47.96254 | 12.80119 | 115° | 58km/h | 10715m | -3.6m/s | -43.7°C | 18.0% | 256.7hPa | 2.4V | 00:00:00 | 02:45:10 | 00:00:00 | |
| DO3MHA-11 | 2026-09-04 13:15:05 | 47.96275 | 12.80053 | 116° | 55km/h | 10726m | -3.6m/s | -43.7°C | 18.4% | 256.3hPa | 2.4V | 00:00:00 | 02:45:07 | 00:00:00 | |
| DG1MFX-10 | 2026-09-04 13:15:04 | 47.96275 | 12.80053 | 116° | 62km/h | 10726m | -3.7m/s | -43.8°C | 15.7% | 256.4hPa | 2.6V | 07:46:00 | 00:00:00 | 00:00:00 | |
| OE5MMP-10 | 2026-09-04 13:14:58 | 47.96307 | 12.79918 | 100° | 66km/h | 10752m | -3.6m/s | -44.0°C | 19.1% | 255.4hPa | 2.6V | 00:00:00 | 02:45:00 | 00:00:00 | |
| DO3MHA-11 | 2026-09-04 13:14:55 | 47.96311 | 12.79853 | 95° | 71km/h | 10762m | -3.6m/s | -44.1°C | 19.2% | 255.0hPa | 2.6V | 00:00:00 | 02:44:57 | 00:00:00 | |
| OE5DXL-15 | 2026-09-04 13:14:54 | 47.96312 | 12.79830 | 95° | 64km/h | 10766m | -3.6m/s | -44.3°C | 19.3% | 254.8hPa | 2.6V | 00:00:00 | 00:00:00 | 00:00:00 | |
| OE5WHR-10 | 2026-09-04 13:14:51 | 47.96318 | 12.79752 | 99° | 66km/h | 10777m | -3.4m/s | -44.3°C | 19.2% | 254.4hPa | 2.6V | 00:00:00 | 02:44:53 | 00:00:00 | |
| OE5DRO-10 | 2026-09-04 13:14:50 | 47.96321 | 12.79725 | 101° | 66km/h | 10780m | -3.4m/s | -44.4°C | 19.1% | 254.3hPa | 2.6V | 00:00:00 | 00:00:00 | 00:00:00 | |
| PG1ADW-2 | 2026-09-04 13:14:49 | 47.96325 | 12.79697 | 102° | 64km/h | 10783m | -3.3m/s | -44.4°C | 19.0% | 254.2hPa | 2.6V | 00:00:00 | 00:00:00 | 00:00:00 | |
| OE5MMP-10 | 2026-09-04 13:14:48 | 47.96329 | 12.79669 | 104° | 71km/h | 10787m | -3.6m/s | -44.4°C | 19.1% | 254.0hPa | 2.6V | 00:00:00 | 02:44:50 | 00:00:00 | |
| DO3MHA-11 | 2026-09-04 13:14:45 | 47.96345 | 12.79586 | 110° | 66km/h | 10798m | -3.7m/s | -44.4°C | 19.0% | 253.6hPa | 2.6V | 00:00:00 | 02:44:47 | 00:00:00 | |
| DG1MFX-10 | 2026-09-04 13:14:44 | 47.96345 | 12.79586 | 111° | 75km/h | 10798m | -3.7m/s | -44.5°C | 16.3% | 253.6hPa | 2.6V | 07:47:00 | 00:00:00 | 00:00:00 | |
| DO7DH-14 | 2026-09-04 13:14:41 | 47.96374 | 12.79485 | 115° | 64km/h | 10812m | -3.7m/s | -44.6°C | 19.4% | 253.0hPa | 2.6V | 00:00:00 | 02:44:43 | 00:00:00 | |
| OE5MMP-10 | 2026-09-04 13:14:38 | 47.96395 | 12.79420 | 116° | 55km/h | 10823m | -3.3m/s | -44.6°C | 19.7% | 252.6hPa | 2.6V | 00:00:00 | 02:44:40 | 00:00:00 | |
| DO3MHA-11 | 2026-09-04 13:14:35 | 47.96412 | 12.79361 | 111° | 55km/h | 10833m | -3.3m/s | -44.8°C | 20.4% | 252.2hPa | 2.6V | 07:47:00 | 02:44:37 | 00:00:00 | |
| OE5DRO-10 | 2026-09-04 13:14:31 | 47.96426 | 12.79285 | 102° | 68km/h | 10848m | -3.5m/s | -44.9°C | 21.2% | 251.7hPa | 2.4V | 00:00:00 | 00:00:00 | 00:00:00 | |
| OE5WHR-10 | 2026-09-04 13:14:30 | 47.96428 | 12.79265 | 98° | 68km/h | 10851m | -3.5m/s | -45.0°C | 21.3% | 251.6hPa | 2.4V | 00:00:00 | 00:00:00 | 00:00:00 | |
| PG1ADW-2 | 2026-09-04 13:14:29 | 47.96430 | 12.79245 | 96° | 68km/h | 10855m | -3.6m/s | -45.1°C | 21.3% | 251.4hPa | 2.4V | 07:47:00 | 00:00:00 | 00:00:00 | |
| OE5FHM-15 | 2026-09-04 13:14:28 | 47.96431 | 12.79223 | 95° | 64km/h | 10858m | -3.3m/s | -45.1°C | 21.3% | 251.3hPa | 2.4V | 00:00:00 | 02:44:30 | 00:00:00 | |
| DO3MHA-11 | 2026-09-04 13:14:25 | 47.96435 | 12.79154 | 94° | 73km/h | 10869m | -3.5m/s | -45.3°C | 21.7% | 250.9hPa | 2.4V | 00:00:00 | 02:44:27 | 00:00:00 | |
| OE5DXL-15 | 2026-09-04 13:14:24 | 47.96436 | 12.79129 | 95° | 66km/h | 10873m | -3.8m/s | -45.3°C | 21.7% | 250.7hPa | 2.4V | 07:47:00 | 00:00:00 | 00:00:00 | |
| OE3JTB-15 | 2026-09-04 13:14:20 | 47.96443 | 12.79022 | 99° | 64km/h | 10888m | -3.6m/s | 0°C | 0% | 0hPa | 2.4V | 00:00:00 | 02:44:22 | 00:00:00 | |
| OE5MMP-10 | 2026-09-04 13:14:18 | 47.96451 | 12.78966 | 104° | 69km/h | 10895m | -3.5m/s | -45.4°C | 22.3% | 249.9hPa | 2.4V | 00:00:00 | 02:44:20 | 00:00:00 | |
| DO3MHA-11 | 2026-09-04 13:14:15 | 47.96467 | 12.78884 | 110° | 57km/h | 10906m | -3.7m/s | -45.4°C | 23.4% | 249.5hPa | 2.5V | 00:00:00 | 02:44:17 | 00:00:00 | |
| BAUMI2-15 | 2026-09-04 13:14:12 | 47.96487 | 12.78811 | 115° | 60km/h | 10917m | -3.5m/s | -45.5°C | 24.7% | 249.1hPa | 2.5V | 07:47:00 | 02:44:14 | 00:00:00 | |
| DO7DH-14 | 2026-09-04 13:14:11 | 47.96494 | 12.78789 | 115° | 64km/h | 10920m | -3.7m/s | -45.6°C | 25.3% | 249.0hPa | 2.5V | 00:00:00 | 02:44:13 | 00:00:00 | |
| OE5WHR-10 | 2026-09-04 13:14:09 | 47.96506 | 12.78748 | 113° | 66km/h | 10928m | -3.6m/s | -45.6°C | 26.6% | 248.8hPa | 2.4V | 00:00:00 | 00:00:00 | 00:00:00 | |
| OE5MMP-10 | 2026-09-04 13:14:08 | 47.96511 | 12.78729 | 111° | 57km/h | 10931m | -3.8m/s | -45.6°C | 27.1% | 248.6hPa | 2.4V | 00:00:00 | 02:44:10 | 00:00:00 | |
| BAUMI2-15 | 2026-09-04 13:14:07 | 47.96515 | 12.78710 | 108° | 53km/h | 10935m | -3.6m/s | -45.6°C | 27.7% | 248.4hPa | 2.4V | 00:00:00 | 02:44:09 | 00:00:00 | |
| DO3MHA-11 | 2026-09-04 13:14:03 | 47.96526 | 12.78632 | 95° | 60km/h | 10950m | -3.8m/s | -45.8°C | 28.8% | 247.9hPa | 2.5V | 00:00:00 | 02:44:05 | 00:00:00 | |
| BAUMI2-15 | 2026-09-04 13:14:02 | 47.96527 | 12.78611 | 93° | 64km/h | 10953m | -3.5m/s | -45.9°C | 29.1% | 247.8hPa | 2.5V | 00:00:00 | 02:44:04 | 00:00:00 | |
| OE5FHM-15 | 2026-09-04 13:13:58 | 47.96530 | 12.78514 | 94° | 68km/h | 10968m | -3.5m/s | -46.1°C | 29.6% | 247.2hPa | 2.5V | 00:00:00 | 02:44:00 | 00:00:00 | |
| BAUMI2-15 | 2026-09-04 13:13:57 | 47.96531 | 12.78487 | 95° | 75km/h | 10971m | -3.6m/s | -46.1°C | 29.6% | 247.1hPa | 2.4V | 00:00:00 | 02:43:59 | 00:00:00 | |
| OE5DXL-15 | 2026-09-04 13:13:54 | 47.96538 | 12.78403 | 100° | 68km/h | 10982m | -3.9m/s | -46.2°C | 29.4% | 246.7hPa | 2.4V | 00:00:00 | 00:00:00 | 00:00:00 | |
| OE5DRO-10 | 2026-09-04 13:13:53 | 47.96541 | 12.78375 | 102° | 64km/h | 10986m | -3.6m/s | -46.2°C | 29.3% | 246.6hPa | 2.6V | 07:47:00 | 00:00:00 | 00:00:00 | |
| BAUMI2-15 | 2026-09-04 13:13:52 | 47.96545 | 12.78346 | 104° | 75km/h | 10990m | -3.7m/s | -46.2°C | 29.4% | 246.5hPa | 2.6V | 00:00:00 | 02:43:54 | 00:00:00 | |
| DG1MJG | 2026-09-04 13:13:50 | 47.96550 | 12.78318 | 106° | 77km/h | 10994m | -3.7m/s | -46.2°C | 25.7% | 246.3hPa | 2.4V | 07:48:00 | 00:00:00 | 00:00:00 | |
| PG1ADW-2 | 2026-09-04 13:13:49 | 47.96562 | 12.78264 | 110° | 62km/h | 11001m | -3.6m/s | -46.2°C | 29.9% | 246.0hPa | 2.4V | 00:00:00 | 02:43:51 | 00:00:00 | |
| OE5HKT-10 | 2026-09-04 13:13:47 | 47.96575 | 12.78214 | 113° | 66km/h | 11008m | -3.6m/s | -46.3°C | 30.7% | 245.8hPa | 2.4V | 00:00:00 | 02:43:49 | 00:00:00 | |
| OE3JTB-15 | 2026-09-04 13:13:46 | 47.96581 | 12.78190 | 113° | 60km/h | 11012m | -3.3m/s | 0°C | 0% | 0hPa | 2.4V | 07:47:00 | 00:00:00 | 00:00:00 | |
| DO3MHA-11 | 2026-09-04 13:13:42 | 47.96602 | 12.78107 | 107° | 58km/h | 11026m | -3.7m/s | -46.5°C | 33.0% | 245.1hPa | 2.4V | 00:00:00 | 02:43:44 | 00:00:00 | |
| DO7DH-14 | 2026-09-04 13:13:41 | 47.96606 | 12.78087 | 105° | 68km/h | 11029m | -3.4m/s | -46.5°C | 33.5% | 245.0hPa | 2.4V | 00:00:00 | 02:43:43 | 00:00:00 | |
| OE5MMP-10 | 2026-09-04 13:13:38 | 47.96614 | 12.78028 | 98° | 64km/h | 11040m | -3.6m/s | -46.6°C | 34.9% | 244.5hPa | 2.4V | 00:00:00 | 02:43:40 | 00:00:00 | |
| BAUMI2-15 | 2026-09-04 13:13:37 | 47.96616 | 12.78007 | 95° | 60km/h | 11044m | -3.7m/s | -46.7°C | 35.2% | 244.5hPa | 2.4V | 00:00:00 | 02:43:39 | 00:00:00 | |
| OE5DRO-10 | 2026-09-04 13:13:34 | 47.96618 | 12.77917 | 92° | 73km/h | 11058m | -3.4m/s | -46.8°C | 35.1% | 243.9hPa | 2.4V | 00:00:00 | 00:00:00 | 00:00:00 | |
| BAUMI2-15 | 2026-09-04 13:13:32 | 47.96619 | 12.77892 | 92° | 73km/h | 11061m | -3.5m/s | -46.9°C | 35.2% | 243.8hPa | 2.4V | 07:48:00 | 02:43:34 | 00:00:00 | |
| PG1ADW-2 | 2026-09-04 13:13:29 | 47.96622 | 12.77811 | 95° | 69km/h | 11072m | -3.4m/s | -47.0°C | 34.8% | 243.4hPa | 2.4V | 00:00:00 | 00:00:00 | 00:00:00 | |
| OE5MMP-10 | 2026-09-04 13:13:28 | 47.96624 | 12.77782 | 97° | 77km/h | 11076m | -3.9m/s | -47.0°C | 34.5% | 243.3hPa | 2.4V | 00:00:00 | 02:43:30 | 00:00:00 | |
| OE5WHR-10 | 2026-09-04 13:13:27 | 47.96627 | 12.77753 | 100° | 68km/h | 11079m | -3.6m/s | -47.0°C | 34.2% | 243.1hPa | 2.4V | 00:00:00 | 00:00:00 | 00:00:00 | |
| OE5DXL-15 | 2026-09-04 13:13:24 | 47.96638 | 12.77667 | 103° | 69km/h | 11090m | -3.9m/s | -47.0°C | 33.4% | 242.7hPa | 2.4V | 00:00:00 | 00:00:00 | 00:00:00 | |
| BAUMI2-15 | 2026-09-04 13:13:22 | 47.96648 | 12.77610 | 108° | 75km/h | 11098m | -3.6m/s | -47.1°C | 33.0% | 242.4hPa | 2.4V | 00:00:00 | 02:43:24 | 00:00:00 | |
| DG1MFX-10 | 2026-09-04 13:13:21 | 47.96648 | 12.77610 | 108° | 77km/h | 11098m | -3.6m/s | -47.1°C | 29.1% | 242.5hPa | 2.5V | 07:48:00 | 00:00:00 | 00:00:00 | |
| DG1MJG | 2026-09-04 13:13:19 | 47.96660 | 12.77556 | 111° | 75km/h | 11105m | -3.5m/s | -47.2°C | 29.0% | 242.2hPa | 2.5V | 07:48:00 | 00:00:00 | 00:00:00 | |
| BAUMI2-15 | 2026-09-04 13:13:17 | 47.96680 | 12.77480 | 113° | 62km/h | 11116m | -3.5m/s | -47.2°C | 33.8% | 241.8hPa | 2.5V | 00:00:00 | 02:43:19 | 00:00:00 | |
| OE5DRO-10 | 2026-09-04 13:13:15 | 47.96692 | 12.77436 | 112° | 66km/h | 11124m | -3.3m/s | -47.3°C | 34.0% | 241.5hPa | 2.5V | 00:00:00 | 00:00:00 | 00:00:00 | |
| OE5HKT-10 | 2026-09-04 13:13:13 | 47.96703 | 12.77393 | 109° | 58km/h | 11131m | -3.6m/s | -47.4°C | 34.9% | 241.3hPa | 2.5V | 00:00:00 | 00:00:00 | 00:00:00 | |
| BAUMI2-15 | 2026-09-04 13:13:12 | 47.96707 | 12.77372 | 106° | 57km/h | 11134m | -3.3m/s | -47.4°C | 35.1% | 241.1hPa | 2.4V | 00:00:00 | 02:43:14 | 00:00:00 | |
| DO7DH-14 | 2026-09-04 13:13:11 | 47.96711 | 12.77352 | 103° | 69km/h | 11137m | -3.4m/s | -47.5°C | 35.5% | 241.0hPa | 2.4V | 00:00:00 | 02:43:13 | 00:00:00 | |
| PG1ADW-2 | 2026-09-04 13:13:09 | 47.96716 | 12.77310 | 99° | 73km/h | 11144m | -3.6m/s | -47.6°C | 36.9% | 240.8hPa | 2.4V | 00:00:00 | 00:00:00 | 00:00:00 | |
| OE5MMP-10 | 2026-09-04 13:13:08 | 47.96718 | 12.77289 | 97° | 68km/h | 11148m | -3.5m/s | -47.6°C | 37.1% | 240.6hPa | 2.5V | 00:00:00 | 02:43:10 | 00:00:00 | |
| BAUMI2-15 | 2026-09-04 13:13:07 | 47.96719 | 12.77267 | 95° | 64km/h | 11152m | -3.7m/s | -47.6°C | 37.1% | 240.5hPa | 2.5V | 00:00:00 | 02:43:09 | 00:00:00 | |
| OE5WHR-10 | 2026-09-04 13:13:06 | 47.96720 | 12.77245 | 94° | 75km/h | 11155m | -3.6m/s | -47.7°C | 37.1% | 240.3hPa | 2.6V | 00:00:00 | 00:00:00 | 00:00:00 | |
| OE3JTB-15 | 2026-09-04 13:13:03 | 47.96722 | 12.77171 | 93° | 73km/h | 11166m | -3.6m/s | 0°C | 0% | 0hPa | 2.6V | 00:00:00 | 00:00:00 | 00:00:00 | |
| DB0ND-19 | 2026-09-04 13:12:59 | 47.96728 | 12.77060 | 96° | 77km/h | 11181m | -3.6m/s | 0°C | -1.0% | -1.0hPa | 2.6V | 00:00:00 | 00:00:00 | 00:00:00 | |
| DL6DJ-15 | 2026-09-04 13:12:51 | 47.96767 | 12.76825 | 110° | 77km/h | 11210m | -3.6m/s | -48.1°C | 31.7% | 238.4hPa | 2.6V | 00:00:00 | 00:00:00 | 00:00:00 | |
| DG1MJG | 2026-09-04 13:12:49 | 47.96781 | 12.76772 | 114° | 73km/h | 11217m | -3.6m/s | -48.1°C | 31.9% | 238.1hPa | 2.6V | 07:49:00 | 00:00:00 | 00:00:00 | |
| OE5MMP-10 | 2026-09-04 13:12:48 | 47.96788 | 12.76747 | 114° | 62km/h | 11221m | -3.9m/s | -48.1°C | 36.6% | 238.0hPa | 2.6V | 00:00:00 | 02:42:50 | 00:00:00 | |
| BAUMI2-15 | 2026-09-04 13:12:47 | 47.96795 | 12.76724 | 114° | 62km/h | 11225m | -3.5m/s | -48.2°C | 37.2% | 237.8hPa | 2.4V | 00:00:00 | 02:42:49 | 00:00:00 | |
| DO3MHA-11 | 2026-09-04 13:12:46 | 47.96801 | 12.76701 | 113° | 66km/h | 11228m | -3.6m/s | -48.2°C | 37.8% | 237.7hPa | 2.4V | 00:00:00 | 02:42:48 | 00:00:00 | |
| OE5WHR-10 | 2026-09-04 13:12:45 | 47.96807 | 12.76680 | 111° | 71km/h | 11232m | -3.4m/s | -48.3°C | 38.2% | 237.6hPa | 2.4V | 07:49:00 | 02:42:47 | 00:00:00 | |
| BAUMI2-15 | 2026-09-04 13:12:42 | 47.96820 | 12.76615 | 101° | 62km/h | 11242m | -3.3m/s | -48.4°C | 38.4% | 237.2hPa | 2.4V | 00:00:00 | 02:42:44 | 00:00:00 | |
| DO7DH-14 | 2026-09-04 13:12:41 | 47.96822 | 12.76592 | 98° | 69km/h | 11246m | -3.3m/s | -48.4°C | 38.3% | 237.0hPa | 2.4V | 07:49:00 | 02:42:43 | 00:00:00 | |
| DG1MFX-10 | 2026-09-04 13:12:39 | 47.96824 | 12.76569 | 97° | 62km/h | 11249m | -3.6m/s | -48.5°C | 33.8% | 237.0hPa | 2.5V | 00:00:00 | 00:00:00 | 00:00:00 | |
| OE5HKT-10 | 2026-09-04 13:12:38 | 47.96826 | 12.76522 | 94° | 75km/h | 11256m | -3.4m/s | -48.6°C | 37.9% | 236.6hPa | 2.5V | 00:00:00 | 00:00:00 | 00:00:00 | |
| BAUMI2-15 | 2026-09-04 13:12:37 | 47.96827 | 12.76497 | 93° | 73km/h | 11260m | -3.6m/s | -48.6°C | 37.7% | 236.5hPa | 2.5V | 00:00:00 | 02:42:39 | 00:00:00 | |
| DO3MHA-11 | 2026-09-04 13:12:36 | 47.96827 | 12.76470 | 93° | 78km/h | 11263m | -3.6m/s | -48.7°C | 37.7% | 236.4hPa | 2.6V | 00:00:00 | 02:42:38 | 00:00:00 | |
| OE3JTB-15 | 2026-09-04 13:12:34 | 47.96830 | 12.76415 | 94° | 75km/h | 11271m | -3.6m/s | 0°C | 0% | 0hPa | 2.6V | 00:00:00 | 02:42:36 | 00:00:00 | |
| BAUMI2-15 | 2026-09-04 13:12:32 | 47.96833 | 12.76356 | 98° | 82km/h | 11278m | -3.7m/s | -48.7°C | 36.9% | 235.9hPa | 2.6V | 00:00:00 | 02:42:34 | 00:00:00 | |
| PG1ADW-2 | 2026-09-04 13:12:29 | 47.96844 | 12.76264 | 104° | 69km/h | 11289m | -3.5m/s | -48.8°C | 36.7% | 235.5hPa | 2.6V | 00:00:00 | 02:42:31 | 00:00:00 | |
| OE5FHM-15 | 2026-09-04 13:12:28 | 47.96849 | 12.76234 | 106° | 73km/h | 11293m | -3.4m/s | -48.8°C | 36.8% | 235.3hPa | 2.6V | 00:00:00 | 02:42:30 | 00:00:00 | |
| DO3MHA-11 | 2026-09-04 13:12:26 | 47.96862 | 12.76176 | 110° | 69km/h | 11300m | -3.5m/s | -48.8°C | 37.3% | 235.1hPa | 2.4V | 07:49:00 | 02:42:28 | 00:00:00 | |
| OE5WHR-10 | 2026-09-04 13:12:24 | 47.96875 | 12.76121 | 112° | 68km/h | 11307m | -3.6m/s | -48.9°C | 37.5% | 234.8hPa | 2.4V | 00:00:00 | 00:00:00 | 00:00:00 | |
| BAUMI2-15 | 2026-09-04 13:12:22 | 47.96889 | 12.76070 | 113° | 66km/h | 11314m | -3.5m/s | -49.0°C | 38.0% | 234.6hPa | 2.5V | 00:00:00 | 02:42:24 | 00:00:00 | |
| DL6DJ-15 | 2026-09-04 13:12:20 | 47.96908 | 12.76000 | 109° | 62km/h | 11325m | -3.8m/s | -49.1°C | 33.8% | 234.3hPa | 2.5V | 00:00:00 | 00:00:00 | 00:00:00 | |
| OE5MMP-10 | 2026-09-04 13:12:18 | 47.96912 | 12.75978 | 108° | 62km/h | 11329m | -3.5m/s | -49.1°C | 38.3% | 234.1hPa | 2.5V | 00:00:00 | 02:42:20 | 00:00:00 | |
| OE5HKT-10 | 2026-09-04 13:12:17 | 47.96917 | 12.75957 | 105° | 75km/h | 11332m | -3.5m/s | -49.1°C | 38.3% | 233.9hPa | 2.4V | 00:00:00 | 02:42:19 | 00:00:00 | |
| DO3MHA-11 | 2026-09-04 13:12:16 | 47.96920 | 12.75935 | 103° | 66km/h | 11336m | -3.5m/s | -49.1°C | 38.3% | 233.8hPa | 2.4V | 00:00:00 | 02:42:18 | 00:00:00 | |
| DG1MFX-10 | 2026-09-04 13:12:15 | 47.96920 | 12.75935 | 103° | 58km/h | 11336m | -3.6m/s | -49.1°C | 33.7% | 233.9hPa | 2.4V | 07:50:00 | 00:00:00 | 00:00:00 | |
| DO7DH-14 | 2026-09-04 13:12:11 | 47.96929 | 12.75821 | 93° | 75km/h | 11354m | -3.7m/s | -49.4°C | 36.9% | 233.2hPa | 2.4V | 00:00:00 | 02:42:13 | 00:00:00 | |
| PG1ADW-2 | 2026-09-04 13:12:09 | 47.96931 | 12.75769 | 93° | 78km/h | 11361m | -3.6m/s | -49.5°C | 36.6% | 232.9hPa | 2.4V | 00:00:00 | 00:00:00 | 00:00:00 | |
| OE5MMP-10 | 2026-09-04 13:12:08 | 47.96931 | 12.75741 | 93° | 80km/h | 11365m | -3.6m/s | -49.5°C | 36.3% | 232.8hPa | 2.4V | 00:00:00 | 02:42:10 | 00:00:00 | |
| DO3MHA-11 | 2026-09-04 13:12:06 | 47.96934 | 12.75684 | 95° | 82km/h | 11372m | -3.5m/s | -49.5°C | 36.0% | 232.6hPa | 2.4V | 00:00:00 | 02:42:08 | 00:00:00 | |
| OE5WHR-10 | 2026-09-04 13:12:03 | 47.96940 | 12.75593 | 99° | 71km/h | 11383m | -3.6m/s | -49.6°C | 35.8% | 232.2hPa | 2.4V | 00:00:00 | 00:00:00 | 00:00:00 | |
| OE5FHM-15 | 2026-09-04 13:11:58 | 47.96963 | 12.75440 | 107° | 73km/h | 11401m | -3.7m/s | -49.7°C | 35.3% | 231.5hPa | 2.4V | 00:00:00 | 02:42:00 | 00:00:00 | |
| OE5HKT-10 | 2026-09-04 13:11:56 | 47.96976 | 12.75381 | 109° | 68km/h | 11408m | -3.9m/s | -49.7°C | 35.2% | 231.2hPa | 2.4V | 07:49:00 | 00:00:00 | 00:00:00 | |
| DG1MFX-10 | 2026-09-04 13:11:55 | 47.96976 | 12.75381 | 110° | 80km/h | 11408m | -4.0m/s | -49.8°C | 30.7% | 231.3hPa | 2.5V | 07:50:00 | 00:00:00 | 00:00:00 | |
| DO3MHA-11 | 2026-09-04 13:11:54 | 47.96989 | 12.75326 | 112° | 66km/h | 11416m | -3.5m/s | -49.8°C | 35.7% | 231.0hPa | 2.5V | 00:00:00 | 02:41:56 | 00:00:00 | |
| PG1ADW-2 | 2026-09-04 13:11:49 | 47.97021 | 12.75206 | 110° | 71km/h | 11434m | -3.5m/s | -50.0°C | 36.5% | 230.4hPa | 2.5V | 07:49:00 | 00:00:00 | 00:00:00 | |
| OE5MMP-10 | 2026-09-04 13:11:48 | 47.97027 | 12.75184 | 108° | 62km/h | 11438m | -3.7m/s | -50.0°C | 36.4% | 230.2hPa | 2.5V | 00:00:00 | 02:41:50 | 00:00:00 | |
| DG1MJG | 2026-09-04 13:11:47 | 47.97026 | 12.75184 | 109° | 60km/h | 11438m | -3.7m/s | -50.0°C | 31.7% | 230.3hPa | 2.4V | 07:50:00 | 00:00:00 | 00:00:00 | |
| DO3MHA-11 | 2026-09-04 13:11:44 | 47.97040 | 12.75097 | 98° | 71km/h | 11453m | -3.6m/s | -50.1°C | 36.5% | 229.8hPa | 2.4V | 00:00:00 | 02:41:46 | 00:00:00 | |
| OE5WHR-10 | 2026-09-04 13:11:42 | 47.97043 | 12.75051 | 95° | 77km/h | 11460m | -3.3m/s | -50.2°C | 36.9% | 229.5hPa | 2.4V | 00:00:00 | 02:41:44 | 00:00:00 | |
| OE5MMP-10 | 2026-09-04 13:11:38 | 47.97048 | 12.74947 | 96° | 82km/h | 11474m | -3.3m/s | -50.5°C | 38.0% | 229.0hPa | 2.4V | 00:00:00 | 02:41:40 | 00:00:00 | |
| DO7DH-14 | 2026-09-04 13:11:37 | 47.97050 | 12.74918 | 97° | 77km/h | 11477m | -3.6m/s | -50.5°C | 38.3% | 228.9hPa | 2.4V | 00:00:00 | 02:41:39 | 00:00:00 | |
| OE5HKT-10 | 2026-09-04 13:11:35 | 47.97056 | 12.74858 | 101° | 69km/h | 11484m | -3.5m/s | -50.5°C | 38.7% | 228.6hPa | 2.4V | 00:00:00 | 00:00:00 | 00:00:00 | |
| DO3MHA-11 | 2026-09-04 13:11:34 | 47.97060 | 12.74828 | 103° | 82km/h | 11487m | -3.5m/s | -50.5°C | 38.6% | 228.5hPa | 2.4V | 00:00:00 | 02:41:36 | 00:00:00 | |
| PG1ADW-2 | 2026-09-04 13:11:29 | 47.97088 | 12.74677 | 109° | 69km/h | 11505m | -3.6m/s | -50.5°C | 37.8% | 227.9hPa | 2.4V | 00:00:00 | 00:00:00 | 00:00:00 | |
| OE5MMP-10 | 2026-09-04 13:11:28 | 47.97095 | 12.74648 | 110° | 73km/h | 11509m | -3.6m/s | -50.5°C | 37.6% | 227.7hPa | 2.4V | 00:00:00 | 02:41:30 | 00:00:00 | |
| OE5DXL-15 | 2026-09-04 13:11:24 | 47.97125 | 12.74538 | 116° | 73km/h | 11524m | -3.7m/s | -50.7°C | 38.4% | 227.2hPa | 2.4V | 00:00:00 | 00:00:00 | 00:00:00 | |
| OE5WHR-10 | 2026-09-04 13:11:21 | 47.97148 | 12.74466 | 115° | 73km/h | 11535m | -3.5m/s | -50.7°C | 39.9% | 226.8hPa | 2.4V | 00:00:00 | 00:00:00 | 00:00:00 | |
| OE5MMP-10 | 2026-09-04 13:11:18 | 47.97165 | 12.74402 | 109° | 68km/h | 11545m | -3.6m/s | -50.9°C | 41.6% | 226.5hPa | 2.5V | 07:50:00 | 02:41:20 | 00:00:00 | |
| DG1MJG | 2026-09-04 13:11:17 | 47.97165 | 12.74402 | 109° | 58km/h | 11545m | -3.7m/s | -50.9°C | 36.4% | 226.5hPa | 2.4V | 07:51:00 | 00:00:00 | 00:00:00 | |
| DO3MHA-11 | 2026-09-04 13:11:14 | 47.97180 | 12.74313 | 99° | 77km/h | 11559m | -3.2m/s | -51.2°C | 41.5% | 226.0hPa | 2.4V | 00:00:00 | 02:41:16 | 00:00:00 | |
| OE5HKT-10 | 2026-09-04 13:11:13 | 47.97182 | 12.74288 | 98° | 78km/h | 11562m | -3.4m/s | -51.2°C | 41.4% | 225.9hPa | 2.4V | 00:00:00 | 02:41:15 | 00:00:00 | |
| PG1ADW-2 | 2026-09-04 13:11:09 | 47.97192 | 12.74177 | 100° | 75km/h | 11577m | -3.4m/s | -51.3°C | 40.2% | 225.4hPa | 2.4V | 00:00:00 | 02:41:11 | 00:00:00 | |
| OE5MMP-10 | 2026-09-04 13:11:08 | 47.97196 | 12.74148 | 101° | 84km/h | 11580m | -3.5m/s | -51.3°C | 39.7% | 225.2hPa | 2.5V | 00:00:00 | 02:41:10 | 00:00:00 | |
| DO7DH-14 | 2026-09-04 13:11:07 | 47.97200 | 12.74117 | 102° | 86km/h | 11584m | -3.6m/s | -51.3°C | 39.0% | 225.1hPa | 2.5V | 00:00:00 | 02:41:09 | 00:00:00 | |
| DO3MHA-11 | 2026-09-04 13:11:04 | 47.97215 | 12.74024 | 107° | 78km/h | 11595m | -3.5m/s | -51.3°C | 37.4% | 224.8hPa | 2.5V | 07:50:00 | 02:41:06 | 00:00:00 | |
| DL6DJ-15 | 2026-09-04 13:10:47 | 47.97326 | 12.73574 | 98° | 69km/h | 11658m | -3.7m/s | -52.0°C | 34.1% | 222.6hPa | 2.5V | 00:00:00 | 00:00:00 | 00:00:00 | |
| DG1MJG | 2026-09-04 13:10:46 | 47.97323 | 12.73599 | 99° | 68km/h | 11655m | -3.5m/s | -51.9°C | 34.2% | 222.7hPa | 2.5V | 07:51:00 | 00:00:00 | 00:00:00 | |
| DO3MHA-11 | 2026-09-04 13:10:44 | 47.97331 | 12.73520 | 99° | 84km/h | 11666m | -3.4m/s | -51.9°C | 38.7% | 222.3hPa | 2.5V | 00:00:00 | 02:40:46 | 00:00:00 | |
| OE5WHR-10 | 2026-09-04 13:10:39 | 47.97350 | 12.73369 | 105° | 73km/h | 11683m | -3.6m/s | -52.1°C | 38.6% | 221.7hPa | 2.4V | 00:00:00 | 02:40:41 | 00:00:00 | |
| OE5MMP-10 | 2026-09-04 13:10:38 | 47.97356 | 12.73337 | 107° | 82km/h | 11687m | -3.5m/s | -52.1°C | 38.5% | 221.6hPa | 2.4V | 00:00:00 | 02:40:40 | 00:00:00 | |
| DO3MHA-11 | 2026-09-04 13:10:34 | 47.97384 | 12.73215 | 113° | 73km/h | 11701m | -3.5m/s | -52.2°C | 39.2% | 221.1hPa | 2.4V | 00:00:00 | 02:40:36 | 00:00:00 | |
| DG1MFX-10 | 2026-09-04 13:10:33 | 47.97384 | 12.73215 | 114° | 84km/h | 11701m | -3.5m/s | -52.2°C | 34.1% | 221.1hPa | 2.4V | 07:51:00 | 00:00:00 | 00:00:00 | |
| OE5HKT-10 | 2026-09-04 13:10:30 | 47.97419 | 12.73106 | 117° | 71km/h | 11716m | -3.4m/s | -52.3°C | 40.8% | 220.6hPa | 2.4V | 00:00:00 | 00:00:00 | 00:00:00 | |
| OE5FHM-15 | 2026-09-04 13:10:28 | 47.97434 | 12.73059 | 116° | 75km/h | 11723m | -3.3m/s | -52.3°C | 41.6% | 220.4hPa | 2.4V | 00:00:00 | 02:40:30 | 00:00:00 | |
| PG1ADW-2 | 2026-09-04 13:10:27 | 47.97442 | 12.73036 | 115° | 75km/h | 11726m | -3.6m/s | -52.4°C | 41.9% | 220.2hPa | 2.4V | 00:00:00 | 00:00:00 | 00:00:00 | |
| DO3MHA-11 | 2026-09-04 13:10:24 | 47.97459 | 12.72969 | 107° | 69km/h | 11737m | -3.5m/s | -52.5°C | 42.8% | 219.9hPa | 2.4V | 00:00:00 | 02:40:26 | 00:00:00 | |
| OE5MMP-10 | 2026-09-04 13:10:18 | 47.97478 | 12.72825 | 98° | 82km/h | 11759m | -3.4m/s | -52.8°C | 43.9% | 219.1hPa | 2.4V | 00:00:00 | 02:40:20 | 00:00:00 | |
| DL6DJ-15 | 2026-09-04 13:10:16 | 47.97486 | 12.72740 | 99° | 80km/h | 11769m | -3.6m/s | -52.9°C | 38.6% | 218.8hPa | 2.4V | 00:00:00 | 00:00:00 | 00:00:00 | |
| DO3MHA-11 | 2026-09-04 13:10:14 | 47.97490 | 12.72709 | 101° | 86km/h | 11773m | -3.7m/s | -52.9°C | 44.0% | 218.6hPa | 2.4V | 00:00:00 | 02:40:16 | 00:00:00 | |
| BAUMI2-15 | 2026-09-04 13:10:12 | 47.97498 | 12.72647 | 103° | 88km/h | 11780m | -3.7m/s | -52.9°C | 44.0% | 218.4hPa | 2.4V | 07:51:00 | 02:40:14 | 00:00:00 | |
| OE5HKT-10 | 2026-09-04 13:10:09 | 47.97515 | 12.72552 | 108° | 73km/h | 11791m | -3.7m/s | -53.0°C | 44.1% | 218.0hPa | 2.4V | 00:00:00 | 02:40:11 | 00:00:00 | |
| OE5MMP-10 | 2026-09-04 13:10:08 | 47.97522 | 12.72521 | 110° | 78km/h | 11795m | -3.6m/s | -53.0°C | 44.3% | 217.8hPa | 2.4V | 00:00:00 | 02:40:10 | 00:00:00 | |
| BAUMI2-15 | 2026-09-04 13:10:07 | 47.97530 | 12.72490 | 111° | 84km/h | 11799m | -3.6m/s | -53.0°C | 44.6% | 217.7hPa | 2.4V | 00:00:00 | 02:40:09 | 00:00:00 | |
| DO3MHA-11 | 2026-09-04 13:10:04 | 47.97555 | 12.72402 | 116° | 69km/h | 11809m | -3.6m/s | -53.1°C | 46.4% | 217.4hPa | 2.4V | 00:00:00 | 02:40:06 | 00:00:00 | |
| BAUMI2-15 | 2026-09-04 13:10:02 | 47.97573 | 12.72349 | 117° | 68km/h | 11816m | -3.5m/s | -53.2°C | 47.9% | 217.1hPa | 2.4V | 00:00:00 | 02:40:04 | 00:00:00 | |
| OE5FHM-15 | 2026-09-04 13:09:58 | 47.97601 | 12.72256 | 112° | 75km/h | 11831m | -3.6m/s | -53.4°C | 48.9% | 216.6hPa | 2.4V | 00:00:00 | 02:40:00 | 00:00:00 | |
| OE5WHR-10 | 2026-09-04 13:09:57 | 47.97607 | 12.72234 | 110° | 77km/h | 11834m | -3.5m/s | -53.4°C | 49.4% | 216.5hPa | 2.4V | 07:51:00 | 00:00:00 | 00:00:00 | |
| DO3MHA-11 | 2026-09-04 13:09:54 | 47.97620 | 12.72165 | 103° | 73km/h | 11845m | -3.4m/s | -53.5°C | 49.8% | 216.2hPa | 2.4V | 00:00:00 | 02:39:56 | 00:00:00 | |
| BAUMI2-15 | 2026-09-04 13:09:52 | 47.97626 | 12.72117 | 100° | 71km/h | 11852m | -3.9m/s | -53.6°C | 49.5% | 215.9hPa | 2.4V | 00:00:00 | 02:39:54 | 00:00:00 | |
| DG1MFX-10 | 2026-09-04 13:09:51 | 47.97626 | 12.72117 | 101° | 66km/h | 11852m | -3.9m/s | -53.7°C | 43.5% | 216.0hPa | 2.6V | 07:51:00 | 00:00:00 | 00:00:00 | |
| OE5DRO-10 | 2026-09-04 13:09:50 | 47.97636 | 12.72012 | 98° | 69km/h | 11867m | -3.7m/s | -53.8°C | 48.5% | 215.4hPa | 2.6V | 00:00:00 | 00:00:00 | 00:00:00 | |
| OE5HKT-10 | 2026-09-04 13:09:48 | 47.97636 | 12.72012 | 98° | 82km/h | 11867m | -3.7m/s | -53.8°C | 48.5% | 215.4hPa | 2.6V | 00:00:00 | 00:00:00 | 00:00:00 | |
| BAUMI2-15 | 2026-09-04 13:09:47 | 47.97638 | 12.71983 | 98° | 82km/h | 11871m | -3.7m/s | -53.9°C | 48.1% | 215.3hPa | 2.4V | 00:00:00 | 02:39:49 | 00:00:00 | |
| DG1MJG | 2026-09-04 13:09:45 | 47.97641 | 12.71953 | 99° | 80km/h | 11875m | -3.7m/s | -53.9°C | 41.7% | 215.2hPa | 2.4V | 07:51:00 | 00:00:00 | 00:00:00 | |
| DO3MHA-11 | 2026-09-04 13:09:44 | 47.97647 | 12.71892 | 100° | 86km/h | 11882m | -3.9m/s | -53.9°C | 46.9% | 214.9hPa | 2.4V | 07:52:00 | 02:39:46 | 00:00:00 | |
| BAUMI2-15 | 2026-09-04 13:09:42 | 47.97656 | 12.71828 | 103° | 88km/h | 11890m | -3.9m/s | -53.9°C | 46.1% | 214.6hPa | 2.4V | 00:00:00 | 02:39:44 | 00:00:00 | |
| OE5MMP-10 | 2026-09-04 13:09:38 | 47.97680 | 12.71702 | 111° | 77km/h | 11905m | -3.6m/s | -54.0°C | 46.4% | 214.2hPa | 2.4V | 00:00:00 | 02:39:40 | 00:00:00 | |
| BAUMI2-15 | 2026-09-04 13:09:37 | 47.97688 | 12.71672 | 113° | 80km/h | 11908m | -3.6m/s | -54.1°C | 46.7% | 214.1hPa | 2.4V | 00:00:00 | 02:39:39 | 00:00:00 | |
| OE5WHR-10 | 2026-09-04 13:09:36 | 47.97697 | 12.71643 | 114° | 73km/h | 11912m | -3.6m/s | -54.1°C | 46.6% | 213.9hPa | 2.4V | 00:00:00 | 02:39:38 | 00:00:00 | |
| DO3MHA-11 | 2026-09-04 13:09:34 | 47.97714 | 12.71587 | 116° | 71km/h | 11919m | -3.7m/s | -54.1°C | 46.9% | 213.7hPa | 2.4V | 00:00:00 | 02:39:36 | 00:00:00 | |
| BAUMI2-15 | 2026-09-04 13:09:32 | 47.97730 | 12.71535 | 117° | 68km/h | 11927m | -3.6m/s | -54.2°C | 47.5% | 213.4hPa | 2.4V | 07:52:00 | 02:39:34 | 00:00:00 | |
| DG1MFX-10 | 2026-09-04 13:09:30 | 47.97738 | 12.71511 | 117° | 71km/h | 11930m | -3.9m/s | -54.2°C | 41.8% | 213.4hPa | 2.4V | 00:00:00 | 00:00:00 | 00:00:00 | |
| PG1ADW-2 | 2026-09-04 13:09:29 | 47.97753 | 12.71464 | 114° | 73km/h | 11938m | -3.8m/s | -54.3°C | 48.6% | 213.0hPa | 2.4V | 00:00:00 | 02:39:31 | 00:00:00 | |
| OE5MMP-10 | 2026-09-04 13:09:28 | 47.97759 | 12.71442 | 112° | 68km/h | 11942m | -3.8m/s | -54.3°C | 48.7% | 212.9hPa | 2.4V | 00:00:00 | 02:39:30 | 00:00:00 | |
| BAUMI2-15 | 2026-09-04 13:09:27 | 47.97764 | 12.71420 | 109° | 62km/h | 11946m | -3.9m/s | -54.3°C | 48.7% | 212.8hPa | 2.4V | 00:00:00 | 02:39:29 | 00:00:00 | |
| OE5DXL-15 | 2026-09-04 13:09:24 | 47.97777 | 12.71352 | 102° | 75km/h | 11958m | -3.9m/s | -54.4°C | 49.0% | 212.4hPa | 2.4V | 00:00:00 | 00:00:00 | 00:00:00 | |
| BAUMI2-15 | 2026-09-04 13:09:22 | 47.97782 | 12.71304 | 98° | 75km/h | 11965m | -3.5m/s | -54.6°C | 48.7% | 212.2hPa | 2.5V | 00:00:00 | 02:39:24 | 00:00:00 | |
| OE5MMP-10 | 2026-09-04 13:09:18 | 47.97792 | 12.71191 | 100° | 86km/h | 11980m | -3.5m/s | -54.9°C | 47.9% | 211.7hPa | 2.6V | 00:00:00 | 02:39:20 | 00:00:00 | |
| BAUMI2-15 | 2026-09-04 13:09:17 | 47.97796 | 12.71160 | 102° | 86km/h | 11983m | -3.7m/s | -54.9°C | 47.6% | 211.6hPa | 2.4V | 00:00:00 | 02:39:19 | 00:00:00 | |
| OE5WHR-10 | 2026-09-04 13:09:15 | 47.97806 | 12.71097 | 105° | 75km/h | 11991m | -3.8m/s | -54.9°C | 46.7% | 211.3hPa | 2.4V | 00:00:00 | 00:00:00 | 00:00:00 | |
| DL6DJ-15 | 2026-09-04 13:09:13 | 47.97818 | 12.71033 | 107° | 88km/h | 11998m | -3.9m/s | -54.9°C | 39.8% | 211.1hPa | 2.5V | 00:00:00 | 00:00:00 | 00:00:00 | |
| BAUMI2-15 | 2026-09-04 13:09:12 | 47.97825 | 12.71002 | 110° | 86km/h | 12002m | -3.9m/s | -54.9°C | 45.5% | 211.0hPa | 2.5V | 00:00:00 | 02:39:14 | 00:00:00 | |
| DG1MFX-10 | 2026-09-04 13:09:09 | 47.97840 | 12.70941 | 113° | 86km/h | 12010m | -4.0m/s | -54.9°C | 39.0% | 210.7hPa | 2.5V | 00:00:00 | 00:00:00 | 00:00:00 | |
| OE5MMP-10 | 2026-09-04 13:09:08 | 47.97858 | 12.70883 | 116° | 71km/h | 12018m | -4.0m/s | -54.9°C | 45.1% | 210.4hPa | 2.5V | 00:00:00 | 02:39:10 | 00:00:00 | |
| DO7DH-14 | 2026-09-04 13:09:07 | 47.97867 | 12.70856 | 117° | 73km/h | 12022m | -3.9m/s | -55.0°C | 45.2% | 210.3hPa | 2.5V | 00:00:00 | 02:39:09 | 00:00:00 | |
| BAUMI2-15 | 2026-09-04 13:09:01 | 47.97918 | 12.70710 | 117° | 62km/h | 12045m | -4.0m/s | -55.2°C | 45.6% | 209.5hPa | 2.5V | 00:00:00 | 02:39:03 | 00:00:00 | |
| OE5MMP-10 | 2026-09-04 13:08:58 | 47.97938 | 12.70645 | 111° | 68km/h | 12057m | -3.8m/s | -55.3°C | 44.6% | 209.1hPa | 2.5V | 00:00:00 | 02:39:00 | 00:00:00 | |
| BAUMI2-15 | 2026-09-04 13:08:56 | 47.97947 | 12.70601 | 106° | 66km/h | 12065m | -3.8m/s | -55.4°C | 43.6% | 208.9hPa | 2.5V | 00:00:00 | 02:38:58 | 00:00:00 | |
| OE5WHR-10 | 2026-09-04 13:08:54 | 47.97954 | 12.70555 | 101° | 78km/h | 12073m | -3.8m/s | -55.5°C | 42.2% | 208.6hPa | 2.5V | 00:00:00 | 00:00:00 | 00:00:00 | |
| BAUMI2-15 | 2026-09-04 13:08:51 | 47.97962 | 12.70478 | 99° | 80km/h | 12084m | -3.9m/s | -55.7°C | 41.1% | 208.2hPa | 2.5V | 07:52:00 | 02:38:53 | 00:00:00 | |
| DG1MFX-10 | 2026-09-04 13:08:49 | 47.97966 | 12.70450 | 100° | 78km/h | 12088m | -3.7m/s | -55.8°C | 35.0% | 208.1hPa | 2.4V | 07:53:00 | 00:00:00 | 00:00:00 | |
| OE5MMP-10 | 2026-09-04 13:08:48 | 47.97973 | 12.70390 | 103° | 82km/h | 12096m | -3.8m/s | -55.8°C | 40.3% | 207.8hPa | 2.4V | 00:00:00 | 02:38:50 | 00:00:00 | |
| BAUMI2-15 | 2026-09-04 13:08:46 | 47.97984 | 12.70329 | 107° | 84km/h | 12104m | -3.9m/s | -55.8°C | 39.5% | 207.6hPa | 2.6V | 00:00:00 | 02:38:48 | 00:00:00 | |
| OE5HKT-10 | 2026-09-04 13:08:44 | 47.97997 | 12.70269 | 111° | 75km/h | 12112m | -4.1m/s | -55.8°C | 38.9% | 207.4hPa | 2.6V | 00:00:00 | 00:00:00 | 00:00:00 | |
| DL6DJ-15 | 2026-09-04 13:08:42 | 47.98014 | 12.70210 | 113° | 82km/h | 12120m | -3.9m/s | -55.9°C | 32.6% | 207.2hPa | 2.6V | 00:00:00 | 00:00:00 | 00:00:00 | |
| BAUMI2-15 | 2026-09-04 13:08:41 | 47.98022 | 12.70182 | 115° | 78km/h | 12124m | -3.8m/s | -55.9°C | 38.0% | 206.9hPa | 2.6V | 00:00:00 | 02:38:43 | 00:00:00 | |
| OE5MMP-10 | 2026-09-04 13:08:38 | 47.98050 | 12.70102 | 120° | 68km/h | 12136m | -3.9m/s | -55.9°C | 37.7% | 206.5hPa | 2.6V | 07:53:00 | 02:38:40 | 00:00:00 | |
| BAUMI2-15 | 2026-09-04 13:08:36 | 47.98069 | 12.70052 | 121° | 69km/h | 12144m | -4.0m/s | -56.0°C | 38.1% | 206.3hPa | 2.6V | 00:00:00 | 02:38:38 | 00:00:00 | |
| OE5WHR-10 | 2026-09-04 13:08:33 | 47.98096 | 12.69984 | 120° | 71km/h | 12155m | -4.0m/s | -56.0°C | 38.4% | 205.9hPa | 2.4V | 00:00:00 | 02:38:35 | 00:00:00 | |
| BAUMI2-15 | 2026-09-04 13:08:31 | 47.98112 | 12.69941 | 116° | 60km/h | 12164m | -3.9m/s | -56.1°C | 38.8% | 205.6hPa | 2.4V | 00:00:00 | 02:38:33 | 00:00:00 | |
| OE5FHM-15 | 2026-09-04 13:08:28 | 47.98128 | 12.69878 | 108° | 73km/h | 12176m | -3.8m/s | -56.2°C | 39.1% | 205.3hPa | 2.4V | 00:00:00 | 02:38:30 | 00:00:00 | |
| BAUMI2-15 | 2026-09-04 13:08:26 | 47.98136 | 12.69833 | 102° | 68km/h | 12184m | -3.9m/s | -56.4°C | 39.3% | 205.0hPa | 2.4V | 00:00:00 | 02:38:28 | 00:00:00 | |
| OE5DXL-15 | 2026-09-04 13:08:24 | 47.98142 | 12.69784 | 100° | 73km/h | 12192m | -4.0m/s | -56.5°C | 39.4% | 204.7hPa | 2.4V | 00:00:00 | 00:00:00 | 00:00:00 | |
| BAUMI2-15 | 2026-09-04 13:08:21 | 47.98151 | 12.69704 | 100° | 78km/h | 12204m | -4.0m/s | -56.6°C | 39.0% | 204.4hPa | 2.4V | 00:00:00 | 02:38:23 | 00:00:00 | |
| DO7DH-14 | 2026-09-04 13:08:20 | 47.98154 | 12.69676 | 101° | 77km/h | 12208m | -4.0m/s | -56.6°C | 38.9% | 204.2hPa | 2.4V | 00:00:00 | 02:38:22 | 00:00:00 | |
| OE5MMP-10 | 2026-09-04 13:08:18 | 47.98162 | 12.69618 | 103° | 84km/h | 12216m | -4.3m/s | -56.6°C | 38.7% | 204.0hPa | 2.4V | 00:00:00 | 02:38:20 | 00:00:00 | |
| BAUMI2-15 | 2026-09-04 13:08:16 | 47.98173 | 12.69557 | 107° | 86km/h | 12224m | -3.8m/s | -56.7°C | 38.4% | 203.7hPa | 2.4V | 00:00:00 | 02:38:18 | 00:00:00 | |
| DG1MJG | 2026-09-04 13:08:14 | 47.98179 | 12.69527 | 109° | 84km/h | 12228m | -4.1m/s | -56.8°C | 32.3% | 203.6hPa | 2.4V | 07:53:00 | 00:00:00 | 00:00:00 | |
| OE5WHR-10 | 2026-09-04 13:08:12 | 47.98202 | 12.69437 | 114° | 69km/h | 12241m | -4.1m/s | -56.7°C | 38.2% | 203.2hPa | 2.4V | 00:00:00 | 00:00:00 | 00:00:00 | |
| DL6DJ-15 | 2026-09-04 13:08:11 | 47.98211 | 12.69409 | 115° | 82km/h | 12244m | -3.8m/s | -56.8°C | 32.4% | 203.1hPa | 2.4V | 00:00:00 | 00:00:00 | 00:00:00 | |
| DO3MHA-11 | 2026-09-04 13:08:09 | 47.98238 | 12.69328 | 120° | 69km/h | 12257m | -4.1m/s | -56.8°C | 39.3% | 202.6hPa | 2.4V | 00:00:00 | 02:38:10 | 00:00:00 | |
| OE5MMP-10 | 2026-09-04 13:08:08 | 47.98238 | 12.69328 | 120° | 66km/h | 12257m | -4.1m/s | -56.8°C | 39.3% | 202.6hPa | 2.4V | 00:00:00 | 02:38:10 | 00:00:00 | |
| DG1MFX-10 | 2026-09-04 13:08:06 | 47.98248 | 12.69303 | 121° | 73km/h | 12261m | -4.1m/s | -57.0°C | 33.6% | 202.5hPa | 2.4V | 07:53:00 | 00:00:00 | 00:00:00 | |
| OE5HKT-10 | 2026-09-04 13:08:03 | 47.98281 | 12.69214 | 116° | 64km/h | 12278m | -4.2m/s | -57.1°C | 41.0% | 202.0hPa | 2.4V | 07:53:00 | 02:38:05 | 00:00:00 | |
| OE5FHM-15 | 2026-09-04 13:07:58 | 47.98307 | 12.69107 | 104° | 71km/h | 12298m | -4.1m/s | -57.3°C | 40.7% | 201.3hPa | 2.4V | 00:00:00 | 02:38:00 | 00:00:00 | |
| DO3MHA-11 | 2026-09-04 13:07:54 | 47.98319 | 12.69008 | 100° | 84km/h | 12315m | -4.0m/s | -57.5°C | 40.6% | 200.8hPa | 2.4V | 00:00:00 | 02:37:56 | 00:00:00 | |
| OE5WHR-10 | 2026-09-04 13:07:51 | 47.98330 | 12.68922 | 102° | 78km/h | 12328m | -4.0m/s | -57.7°C | 40.5% | 200.4hPa | 2.4V | 00:00:00 | 00:00:00 | 00:00:00 | |
| OE5MMP-10 | 2026-09-04 13:07:48 | 47.98345 | 12.68830 | 106° | 86km/h | 12340m | -4.3m/s | -57.6°C | 40.1% | 200.0hPa | 2.4V | 00:00:00 | 02:37:50 | 00:00:00 | |
| DG1MFX-10 | 2026-09-04 13:07:46 | 47.98351 | 12.68799 | 108° | 86km/h | 12345m | -4.2m/s | -57.7°C | 34.0% | 199.9hPa | 2.4V | 07:54:00 | 00:00:00 | 00:00:00 | |
| DO3MHA-11 | 2026-09-04 13:07:43 | 47.98382 | 12.68677 | 115° | 77km/h | 12361m | -4.1m/s | -57.8°C | 40.5% | 199.3hPa | 2.4V | 00:00:00 | 02:37:45 | 00:00:00 | |
| DL6DJ-15 | 2026-09-04 13:07:40 | 47.98411 | 12.68591 | 118° | 80km/h | 12374m | -4.1m/s | -57.9°C | 35.2% | 198.9hPa | 2.4V | 00:00:00 | 00:00:00 | 00:00:00 | |
| OE5MMP-10 | 2026-09-04 13:07:38 | 47.98430 | 12.68539 | 121° | 68km/h | 12383m | -4.5m/s | -57.9°C | 43.0% | 198.6hPa | 2.4V | 00:00:00 | 02:37:40 | 00:00:00 | |
| PG1ADW-2 | 2026-09-04 13:07:37 | 47.98440 | 12.68514 | 121° | 75km/h | 12387m | -4.4m/s | -58.0°C | 44.0% | 198.5hPa | 2.4V | 07:54:00 | 00:00:00 | 00:00:00 | |
| DO3MHA-11 | 2026-09-04 13:07:33 | 47.98475 | 12.68425 | 119° | 69km/h | 12405m | -4.4m/s | -58.0°C | 47.3% | 197.9hPa | 2.4V | 00:00:00 | 02:37:35 | 00:00:00 | |
| OE5WHR-10 | 2026-09-04 13:07:30 | 47.98495 | 12.68359 | 109° | 84km/h | 12418m | -4.0m/s | -58.3°C | 48.3% | 197.5hPa | 2.4V | 00:00:00 | 02:37:32 | 00:00:00 | |
| OE5MMP-10 | 2026-09-04 13:07:28 | 47.98504 | 12.68312 | 106° | 80km/h | 12426m | -4.0m/s | -58.5°C | 48.5% | 197.3hPa | 2.4V | 00:00:00 | 02:37:30 | 00:00:00 | |
| DG1MFX-10 | 2026-09-04 13:07:26 | 47.98509 | 12.68286 | 105° | 73km/h | 12430m | -4.0m/s | -58.6°C | 41.5% | 197.2hPa | 2.4V | 07:54:00 | 00:00:00 | 00:00:00 | |
| OE5HKT-10 | 2026-09-04 13:07:25 | 47.98518 | 12.68229 | 104° | 82km/h | 12439m | -4.0m/s | -58.6°C | 48.3% | 196.9hPa | 2.4V | 00:00:00 | 00:00:00 | 00:00:00 | |
| OE5DXL-15 | 2026-09-04 13:07:24 | 47.98523 | 12.68200 | 105° | 80km/h | 12443m | -4.3m/s | -58.7°C | 48.6% | 196.8hPa | 2.4V | 00:00:00 | 00:00:00 | 00:00:00 | |
| DO3MHA-11 | 2026-09-04 13:07:23 | 47.98528 | 12.68170 | 105° | 88km/h | 12447m | -4.1m/s | -58.6°C | 48.4% | 196.6hPa | 2.4V | 00:00:00 | 02:37:25 | 00:00:00 | |
| OE5FHM-15 | 2026-09-04 13:07:21 | 47.98540 | 12.68109 | 107° | 80km/h | 12456m | -4.4m/s | -58.6°C | 48.3% | 196.3hPa | 2.4V | 00:00:00 | 02:37:23 | 00:00:00 | |
| OE5MMP-10 | 2026-09-04 13:07:18 | 47.98560 | 12.68015 | 110° | 89km/h | 12468m | -4.4m/s | -58.5°C | 47.1% | 196.0hPa | 2.4V | 07:54:00 | 02:37:20 | 00:00:00 | |
| PG1ADW-2 | 2026-09-04 13:07:17 | 47.98568 | 12.67984 | 112° | 80km/h | 12473m | -4.3m/s | -58.5°C | 46.9% | 195.8hPa | 2.6V | 00:00:00 | 00:00:00 | 00:00:00 | |
| DO3MHA-11 | 2026-09-04 13:07:13 | 47.98605 | 12.67859 | 117° | 86km/h | 12490m | -4.6m/s | -58.5°C | 45.6% | 195.3hPa | 2.6V | 00:00:00 | 02:37:15 | 00:00:00 | |
| OE5WHR-10 | 2026-09-04 13:07:09 | 47.98649 | 12.67741 | 122° | 77km/h | 12508m | -4.4m/s | -58.5°C | 46.1% | 194.7hPa | 2.6V | 07:54:00 | 00:00:00 | 00:00:00 | |
| OE5MMP-10 | 2026-09-04 13:07:08 | 47.98660 | 12.67714 | 123° | 75km/h | 12513m | -4.4m/s | -58.6°C | 46.1% | 194.5hPa | 2.4V | 00:00:00 | 02:37:10 | 00:00:00 | |
| HARRO8 | 2026-09-04 13:07:05 | 47.98696 | 12.67637 | 124° | 78km/h | 12526m | -4.6m/s | 0°C | -1.0% | -1.0hPa | 2.4V | 00:00:00 | 00:00:00 | 00:00:00 | |
| DO3MHA-11 | 2026-09-04 13:07:03 | 47.98717 | 12.67590 | 125° | 69km/h | 12536m | -4.3m/s | -58.8°C | 48.0% | 193.9hPa | 2.4V | 00:00:00 | 02:37:05 | 00:00:00 | |
| OE5MMP-10 | 2026-09-04 13:06:58 | 47.98760 | 12.67479 | 113° | 78km/h | 12558m | -4.4m/s | -59.0°C | 47.1% | 193.2hPa | 2.6V | 00:00:00 | 02:37:00 | 00:00:00 | |
| PG1ADW-2 | 2026-09-04 13:06:57 | 47.98766 | 12.67455 | 111° | 82km/h | 12562m | -4.4m/s | -59.1°C | 46.9% | 193.0hPa | 2.6V | 00:00:00 | 02:36:59 | 00:00:00 | |
| OE5DXL-15 | 2026-09-04 13:06:54 | 47.98782 | 12.67378 | 107° | 77km/h | 12576m | -4.4m/s | -59.2°C | 46.1% | 192.6hPa | 2.6V | 00:00:00 | 02:36:56 | 00:00:00 | |
| DO3MHA-11 | 2026-09-04 13:06:53 | 47.98788 | 12.67349 | 106° | 88km/h | 12580m | -4.3m/s | -59.3°C | 46.6% | 192.5hPa | 2.6V | 07:54:00 | 02:36:55 | 00:00:00 | |
| OE5MMP-10 | 2026-09-04 13:06:48 | 47.98821 | 12.67196 | 112° | 86km/h | 12603m | -4.2m/s | -59.4°C | 48.1% | 191.8hPa | 2.6V | 00:00:00 | 02:36:50 | 00:00:00 | |
| OE5FHM-15 | 2026-09-04 13:06:45 | 47.98850 | 12.67103 | 119° | 75km/h | 12616m | -4.3m/s | -59.6°C | 48.4% | 191.4hPa | 2.4V | 07:55:00 | 02:36:47 | 00:00:00 | |
| DO3MHA-11 | 2026-09-04 13:06:43 | 47.98872 | 12.67045 | 123° | 78km/h | 12625m | -4.3m/s | -59.7°C | 47.9% | 191.1hPa | 2.4V | 00:00:00 | 02:36:45 | 00:00:00 | |
| OE3JTB-15 | 2026-09-04 13:06:40 | 47.98906 | 12.66967 | 125° | 88km/h | 12638m | -4.3m/s | 0°C | 0% | 0hPa | 2.4V | 00:00:00 | 00:00:00 | 00:00:00 | |
| OE5HKT-10 | 2026-09-04 13:06:39 | 47.98918 | 12.66943 | 126° | 77km/h | 12642m | -4.1m/s | -59.9°C | 47.7% | 190.6hPa | 2.4V | 00:00:00 | 00:00:00 | 00:00:00 | |
| OE5MMP-10 | 2026-09-04 13:06:38 | 47.98929 | 12.66920 | 126° | 68km/h | 12646m | -4.4m/s | -60.0°C | 47.8% | 190.5hPa | 2.4V | 00:00:00 | 02:36:40 | 00:00:00 | |
| PG1ADW-2 | 2026-09-04 13:06:37 | 47.98940 | 12.66897 | 126° | 71km/h | 12650m | -4.4m/s | -60.0°C | 47.7% | 190.3hPa | 2.4V | 00:00:00 | 00:00:00 | 00:00:00 | |
| DO3MHA-11 | 2026-09-04 13:06:32 | 47.98988 | 12.66791 | 122° | 68km/h | 12673m | -4.6m/s | -60.2°C | 47.3% | 189.6hPa | 2.6V | 00:00:00 | 02:36:34 | 00:00:00 | |
| OE5MMP-10 | 2026-09-04 13:06:28 | 47.99017 | 12.66709 | 114° | 73km/h | 12691m | -4.3m/s | -60.3°C | 47.7% | 189.1hPa | 2.4V | 00:00:00 | 02:36:30 | 00:00:00 | |
| OE5WHR-10 | 2026-09-04 13:06:27 | 47.99023 | 12.66687 | 110° | 78km/h | 12695m | -4.6m/s | -60.3°C | 47.6% | 188.9hPa | 2.4V | 00:00:00 | 02:36:29 | 00:00:00 | |
| OE5DXL-15 | 2026-09-04 13:06:24 | 47.99039 | 12.66615 | 107° | 75km/h | 12709m | -4.2m/s | -60.4°C | 47.7% | 188.5hPa | 2.4V | 07:55:00 | 00:00:00 | 00:00:00 | |
| DO3MHA-11 | 2026-09-04 13:06:21 | 47.99056 | 12.66532 | 109° | 77km/h | 12722m | -4.5m/s | -60.5°C | 47.1% | 188.2hPa | 2.6V | 00:00:00 | 02:36:23 | 00:00:00 | |
| OE5MMP-10 | 2026-09-04 13:06:18 | 47.99078 | 12.66444 | 113° | 84km/h | 12735m | -4.5m/s | -60.6°C | 46.6% | 187.7hPa | 2.6V | 00:00:00 | 02:36:20 | 00:00:00 | |
| PG1ADW-2 | 2026-09-04 13:06:17 | 47.99087 | 12.66414 | 115° | 73km/h | 12740m | -4.4m/s | -60.6°C | 46.6% | 187.6hPa | 2.4V | 00:00:00 | 00:00:00 | 00:00:00 | |
| OE5FHM-15 | 2026-09-04 13:06:15 | 47.99106 | 12.66355 | 119° | 75km/h | 12749m | -4.5m/s | -60.7°C | 46.3% | 187.3hPa | 2.4V | 00:00:00 | 02:36:17 | 00:00:00 | |
| OE5HKT-10 | 2026-09-04 13:06:14 | 47.99117 | 12.66327 | 122° | 82km/h | 12754m | -4.3m/s | -60.8°C | 46.3% | 187.2hPa | 2.6V | 00:00:00 | 02:36:16 | 00:00:00 | |
| BAUMI2-15 | 2026-09-04 13:06:13 | 47.99128 | 12.66300 | 124° | 80km/h | 12758m | -4.1m/s | -60.8°C | 46.3% | 187.1hPa | 2.6V | 07:55:00 | 02:36:15 | 00:00:00 | |
| OE5MMP-10 | 2026-09-04 13:06:08 | 47.99187 | 12.66179 | 130° | 64km/h | 12781m | -4.4m/s | -61.0°C | 45.9% | 186.4hPa | 2.6V | 00:00:00 | 02:36:10 | 00:00:00 | |
| DL6DJ-15 | 2026-09-04 13:06:07 | 47.99198 | 12.66158 | 128° | 69km/h | 12785m | -4.6m/s | -61.1°C | 38.3% | 186.3hPa | 2.6V | 00:00:00 | 00:00:00 | 00:00:00 | |
| OE5WHR-10 | 2026-09-04 13:06:06 | 47.99209 | 12.66138 | 129° | 73km/h | 12790m | -4.8m/s | -61.1°C | 45.9% | 186.1hPa | 2.6V | 00:00:00 | 00:00:00 | 00:00:00 | |
| DG1MFX-10 | 2026-09-04 13:06:04 | 47.99219 | 12.66118 | 128° | 64km/h | 12795m | -4.6m/s | -61.2°C | 38.3% | 186.0hPa | 2.6V | 00:00:00 | 00:00:00 | 00:00:00 | |
| BAUMI2-15 | 2026-09-04 13:06:03 | 47.99237 | 12.66081 | 123° | 60km/h | 12804m | -4.4m/s | -61.2°C | 45.7% | 185.7hPa | 2.6V | 00:00:00 | 02:36:05 | 00:00:00 | |
| OE5MMP-10 | 2026-09-04 13:05:58 | 47.99269 | 12.65977 | 109° | 78km/h | 12826m | -4.6m/s | -61.4°C | 45.6% | 185.0hPa | 2.6V | 07:55:00 | 02:36:00 | 00:00:00 | |
| PG1ADW-2 | 2026-09-04 13:05:57 | 47.99275 | 12.65953 | 109° | 82km/h | 12831m | -4.6m/s | -61.4°C | 45.7% | 184.9hPa | 2.6V | 00:00:00 | 00:00:00 | 00:00:00 | |
| DO7DH-14 | 2026-09-04 13:05:56 | 47.99281 | 12.65928 | 110° | 77km/h | 12835m | -4.6m/s | -61.5°C | 45.9% | 184.8hPa | 2.6V | 00:00:00 | 02:35:58 | 00:00:00 | |
| OE5DXL-15 | 2026-09-04 13:05:54 | 47.99294 | 12.65873 | 112° | 78km/h | 12844m | -4.4m/s | -61.5°C | 45.9% | 184.5hPa | 2.6V | 00:00:00 | 00:00:00 | 00:00:00 | |
| BAUMI2-15 | 2026-09-04 13:05:53 | 47.99302 | 12.65845 | 114° | 86km/h | 12849m | -4.5m/s | -61.6°C | 46.0% | 184.4hPa | 2.6V | 00:00:00 | 02:35:55 | 00:00:00 | |
| OE5MMP-10 | 2026-09-04 13:05:48 | 47.99352 | 12.65702 | 121° | 86km/h | 12871m | -4.2m/s | -61.6°C | 44.5% | 183.7hPa | 2.4V | 00:00:00 | 02:35:50 | 00:00:00 | |
| OE5WHR-10 | 2026-09-04 13:05:45 | 47.99388 | 12.65618 | 125° | 75km/h | 12885m | -4.8m/s | -61.7°C | 43.0% | 183.3hPa | 2.6V | 00:00:00 | 00:00:00 | 00:00:00 | |
| DG1MFX-10 | 2026-09-04 13:05:44 | 47.99388 | 12.65618 | 126° | 89km/h | 12885m | -4.9m/s | -61.7°C | 35.6% | 183.3hPa | 2.6V | 00:00:00 | 00:00:00 | 00:00:00 | |
| BAUMI2-15 | 2026-09-04 13:05:43 | 47.99414 | 12.65564 | 127° | 84km/h | 12895m | -4.8m/s | -61.7°C | 42.8% | 183.0hPa | 2.6V | 00:00:00 | 02:35:45 | 00:00:00 | |
| OE5MMP-10 | 2026-09-04 13:05:38 | 47.99480 | 12.65446 | 132° | 68km/h | 12919m | -4.5m/s | -61.9°C | 44.5% | 182.2hPa | 2.6V | 00:00:00 | 02:35:40 | 00:00:00 | |
| PG1ADW-2 | 2026-09-04 13:05:37 | 47.99492 | 12.65425 | 132° | 75km/h | 12923m | -4.2m/s | -61.9°C | 44.9% | 182.1hPa | 2.6V | 00:00:00 | 02:35:39 | 00:00:00 | |
| OE5HKT-10 | 2026-09-04 13:05:36 | 47.99503 | 12.65406 | 129° | 78km/h | 12927m | -4.5m/s | -61.9°C | 45.3% | 182.0hPa | 2.4V | 00:00:00 | 00:00:00 | 00:00:00 | |
| BAUMI2-15 | 2026-09-04 13:05:33 | 47.99532 | 12.65345 | 122° | 68km/h | 12940m | -4.3m/s | -61.9°C | 45.6% | 181.6hPa | 2.4V | 07:56:00 | 02:35:35 | 00:00:00 | |
| OE5DRO-10 | 2026-09-04 13:05:32 | 47.99564 | 12.65256 | 114° | 84km/h | 12959m | -4.5m/s | -61.9°C | 44.7% | 181.1hPa | 2.4V | 07:56:00 | 00:00:00 | 00:00:00 | |
| OE5MMP-10 | 2026-09-04 13:05:28 | 47.99571 | 12.65232 | 115° | 82km/h | 12963m | -4.2m/s | -61.9°C | 44.2% | 181.0hPa | 2.4V | 00:00:00 | 02:35:30 | 00:00:00 | |
| DO7DH-14 | 2026-09-04 13:05:26 | 47.99586 | 12.65181 | 114° | 86km/h | 12973m | -4.2m/s | -61.9°C | 43.3% | 180.7hPa | 2.4V | 07:56:00 | 02:35:28 | 00:00:00 | |
| OE5WHR-10 | 2026-09-04 13:05:24 | 47.99600 | 12.65126 | 112° | 82km/h | 12982m | -4.2m/s | -61.9°C | 42.0% | 180.4hPa | 2.4V | 00:00:00 | 02:35:26 | 00:00:00 | |
| BAUMI2-15 | 2026-09-04 13:05:23 | 47.99608 | 12.65097 | 111° | 88km/h | 12986m | -4.6m/s | -61.9°C | 41.6% | 180.3hPa | 2.4V | 00:00:00 | 02:35:25 | 00:00:00 | |
| OE5MMP-10 | 2026-09-04 13:05:18 | 47.99654 | 12.64945 | 120° | 86km/h | 13009m | -4.2m/s | -62.1°C | 41.9% | 179.6hPa | 2.4V | 00:00:00 | 02:35:20 | 00:00:00 | |
| PG1ADW-2 | 2026-09-04 13:05:17 | 47.99666 | 12.64916 | 122° | 78km/h | 13013m | -4.0m/s | -62.1°C | 42.1% | 179.5hPa | 2.6V | 00:00:00 | 00:00:00 | 00:00:00 | |
| OE5FHM-15 | 2026-09-04 13:05:15 | 47.99692 | 12.64859 | 127° | 82km/h | 13021m | -4.4m/s | -62.2°C | 42.2% | 179.2hPa | 2.6V | 00:00:00 | 02:35:17 | 00:00:00 | |
| BAUMI2-15 | 2026-09-04 13:05:13 | 47.99719 | 12.64807 | 129° | 80km/h | 13030m | -4.5m/s | -62.3°C | 42.4% | 178.9hPa | 2.6V | 00:00:00 | 02:35:15 | 00:00:00 | |
| DG1MJG | 2026-09-04 13:05:12 | 47.99718 | 12.64807 | 129° | 86km/h | 13030m | -4.6m/s | -62.3°C | 34.8% | 179.0hPa | 2.6V | 07:57:00 | 00:00:00 | 00:00:00 | |
| OE5MMP-10 | 2026-09-04 13:05:08 | 47.99783 | 12.64691 | 129° | 71km/h | 13053m | -4.5m/s | -62.4°C | 42.4% | 178.3hPa | 2.6V | 00:00:00 | 02:35:10 | 00:00:00 | |
| DL6DJ-15 | 2026-09-04 13:05:05 | 47.99816 | 12.64628 | 124° | 68km/h | 13066m | -4.4m/s | -62.6°C | 34.5% | 178.0hPa | 2.6V | 00:00:00 | 00:00:00 | 00:00:00 | |
| BAUMI2-15 | 2026-09-04 13:05:03 | 47.99834 | 12.64584 | 119° | 71km/h | 13075m | -4.8m/s | -62.6°C | 42.0% | 177.7hPa | 2.6V | 00:00:00 | 02:35:05 | 00:00:00 | |
| OE5MMP-10 | 2026-09-04 13:04:58 | 47.99869 | 12.64459 | 110° | 91km/h | 13098m | -4.0m/s | -62.7°C | 41.7% | 177.0hPa | 2.6V | 00:00:00 | 02:35:00 | 00:00:00 | |
| PG1ADW-2 | 2026-09-04 13:04:57 | 47.99877 | 12.64430 | 111° | 88km/h | 13103m | -3.9m/s | -62.8°C | 41.5% | 176.9hPa | 2.6V | 07:56:00 | 00:00:00 | 00:00:00 | |
| DB0UT-7 | 2026-09-04 13:04:54 | 47.99900 | 12.64340 | 112° | 86km/h | 13116m | -4.9m/s | -62.9°C | 41.6% | 176.5hPa | 2.6V | 00:00:00 | 00:00:00 | 00:00:00 | |
| BAUMI2-15 | 2026-09-04 13:04:53 | 47.99909 | 12.64308 | 114° | 95km/h | 13121m | -4.6m/s | -62.9°C | 41.6% | 176.3hPa | 2.6V | 07:56:00 | 02:34:55 | 00:00:00 | |
| OE5MMP-10 | 2026-09-04 13:04:48 | 47.99967 | 12.64149 | 123° | 84km/h | 13144m | -4.4m/s | -63.1°C | 42.4% | 175.7hPa | 2.6V | 00:00:00 | 02:34:50 | 00:00:00 | |
| OE5DRO-10 | 2026-09-04 13:04:45 | 48.00034 | 12.64013 | 129° | 80km/h | 13166m | -4.2m/s | -63.3°C | 42.9% | 175.0hPa | 2.6V | 00:00:00 | 00:00:00 | 00:00:00 | |
| BAUMI2-15 | 2026-09-04 13:04:43 | 48.00034 | 12.64013 | 129° | 78km/h | 13166m | -4.2m/s | -63.3°C | 42.9% | 175.0hPa | 2.6V | 00:00:00 | 02:34:45 | 00:00:00 | |
| OE5WHR-10 | 2026-09-04 13:04:42 | 48.00047 | 12.63989 | 129° | 84km/h | 13171m | -4.6m/s | -63.4°C | 43.0% | 174.9hPa | 2.6V | 00:00:00 | 00:00:00 | 00:00:00 | |
| DG1MJG | 2026-09-04 13:04:41 | 48.00047 | 12.63989 | 129° | 80km/h | 13171m | -4.6m/s | -63.4°C | 35.1% | 174.9hPa | 2.6V | 07:57:00 | 00:00:00 | 00:00:00 | |
| OE5MMP-10 | 2026-09-04 13:04:38 | 48.00091 | 12.63897 | 124° | 77km/h | 13188m | -4.0m/s | -63.5°C | 43.0% | 174.4hPa | 2.6V | 07:57:00 | 02:34:40 | 00:00:00 | |
| PG1ADW-2 | 2026-09-04 13:04:37 | 48.00101 | 12.63875 | 123° | 88km/h | 13192m | -4.2m/s | -63.6°C | 43.1% | 174.3hPa | 2.6V | 00:00:00 | 00:00:00 | 00:00:00 | |
| DL6DJ-15 | 2026-09-04 13:04:34 | 48.00132 | 12.63779 | 109° | 77km/h | 13210m | -4.7m/s | -63.8°C | 34.7% | 173.8hPa | 2.5V | 00:00:00 | 00:00:00 | 00:00:00 | |
| BAUMI2-15 | 2026-09-04 13:04:33 | 48.00132 | 12.63779 | 110° | 82km/h | 13210m | -4.6m/s | -63.7°C | 42.7% | 173.7hPa | 2.5V | 00:00:00 | 02:34:35 | 00:00:00 | |
| OE5MMP-10 | 2026-09-04 13:04:28 | 48.00168 | 12.63629 | 111° | 95km/h | 13233m | -4.8m/s | -63.9°C | 42.3% | 173.1hPa | 2.5V | 00:00:00 | 02:34:30 | 00:00:00 | |
| OE5DRO-10 | 2026-09-04 13:04:26 | 48.00197 | 12.63530 | 116° | 86km/h | 13247m | -4.7m/s | -64.1°C | 42.5% | 172.7hPa | 2.5V | 00:00:00 | 00:00:00 | 00:00:00 | |
| DB0UT-7 | 2026-09-04 13:04:24 | 48.00208 | 12.63497 | 117° | 77km/h | 13252m | -5.1m/s | -64.1°C | 42.7% | 172.5hPa | 2.6V | 07:57:00 | 02:34:26 | 00:00:00 | |
| BAUMI2-15 | 2026-09-04 13:04:23 | 48.00220 | 12.63464 | 119° | 95km/h | 13257m | -4.9m/s | -64.2°C | 42.9% | 172.4hPa | 2.6V | 00:00:00 | 02:34:25 | 00:00:00 | |
| OE5WHR-10 | 2026-09-04 13:04:21 | 48.00246 | 12.63402 | 126° | 82km/h | 13267m | -4.5m/s | -64.2°C | 43.2% | 172.2hPa | 2.5V | 07:57:00 | 02:34:23 | 00:00:00 | |
| OE5MMP-10 | 2026-09-04 13:04:18 | 48.00288 | 12.63321 | 129° | 75km/h | 13280m | -4.3m/s | -64.3°C | 43.4% | 171.8hPa | 2.5V | 00:00:00 | 02:34:20 | 00:00:00 | |
| PG1ADW-2 | 2026-09-04 13:04:17 | 48.00302 | 12.63296 | 129° | 82km/h | 13284m | -4.5m/s | -64.4°C | 43.5% | 171.7hPa | 2.5V | 00:00:00 | 02:34:19 | 00:00:00 | |
| OE5FHM-15 | 2026-09-04 13:04:15 | 48.00327 | 12.63249 | 129° | 84km/h | 13293m | -4.3m/s | -64.5°C | 43.7% | 171.4hPa | 2.5V | 00:00:00 | 02:34:17 | 00:00:00 | |
| DF7PN | 2026-09-04 13:04:14 | 48.00349 | 12.63205 | 123° | 69km/h | 13301m | -4.8m/s | -64.5°C | 35.4% | 171.2hPa | 2.5V | 00:00:00 | 00:00:00 | 00:00:00 | |
| DG1MJG | 2026-09-04 13:04:10 | 48.00367 | 12.63159 | 119° | 71km/h | 13310m | -4.2m/s | -64.6°C | 35.2% | 170.9hPa | 2.5V | 07:57:00 | 00:00:00 | 00:00:00 | |
| OE5MMP-10 | 2026-09-04 13:04:08 | 48.00390 | 12.63085 | 110° | 88km/h | 13323m | -4.4m/s | -64.7°C | 43.5% | 170.5hPa | 2.5V | 00:00:00 | 02:34:10 | 00:00:00 | |
| OE5DRO-10 | 2026-09-04 13:04:07 | 48.00410 | 12.63001 | 110° | 78km/h | 13336m | -4.1m/s | -64.8°C | 43.6% | 170.2hPa | 2.5V | 00:00:00 | 00:00:00 | 00:00:00 | |
| DL6DJ-15 | 2026-09-04 13:04:03 | 48.00434 | 12.62907 | 113° | 93km/h | 13350m | -4.6m/s | -64.9°C | 35.1% | 169.8hPa | 2.5V | 00:00:00 | 00:00:00 | 00:00:00 | |
| DG1MFX-10 | 2026-09-04 13:04:01 | 48.00444 | 12.62875 | 115° | 95km/h | 13355m | -4.7m/s | -65.0°C | 35.2% | 169.7hPa | 2.5V | 07:57:00 | 00:00:00 | 00:00:00 | |
| OE5WHR-10 | 2026-09-04 13:04:00 | 48.00454 | 12.62843 | 118° | 82km/h | 13359m | -4.5m/s | -64.9°C | 43.6% | 169.5hPa | 2.5V | 00:00:00 | 00:00:00 | 00:00:00 | |
| OE5MMP-10 | 2026-09-04 13:03:58 | 48.00478 | 12.62781 | 122° | 89km/h | 13368m | -4.3m/s | -64.9°C | 43.3% | 169.3hPa | 2.6V | 00:00:00 | 02:34:00 | 00:00:00 | |
| PETON7-10 | 2026-09-04 13:03:57 | 48.00490 | 12.62751 | 122° | 78km/h | 13373m | -4.7m/s | -64.9°C | 43.0% | 169.1hPa | 2.6V | 00:00:00 | 00:00:00 | 00:00:00 | |
| OE5DXL-15 | 2026-09-04 13:03:54 | 48.00531 | 12.62664 | 127° | 82km/h | 13387m | -4.5m/s | -64.9°C | 42.4% | 168.8hPa | 2.6V | 00:00:00 | 00:00:00 | 00:00:00 | |
| OE5MMP-10 | 2026-09-04 13:03:48 | 48.00614 | 12.62517 | 132° | 71km/h | 13414m | -4.6m/s | -65.0°C | 42.0% | 168.0hPa | 2.6V | 00:00:00 | 02:33:50 | 00:00:00 | |
| OE5DRO-10 | 2026-09-04 13:03:43 | 48.00684 | 12.62370 | 114° | 75km/h | 13444m | -4.3m/s | -64.9°C | 41.6% | 167.1hPa | 2.5V | 00:00:00 | 00:00:00 | 00:00:00 | |
| PETON7-10 | 2026-09-04 13:03:41 | 48.00684 | 12.62370 | 114° | 84km/h | 13444m | -4.3m/s | -64.9°C | 41.6% | 167.1hPa | 2.5V | 00:00:00 | 02:33:43 | 00:00:00 | |
| DG1MFX-10 | 2026-09-04 13:03:40 | 48.00692 | 12.62346 | 114° | 71km/h | 13449m | -4.8m/s | -65.0°C | 33.1% | 167.0hPa | 2.5V | 07:58:00 | 00:00:00 | 00:00:00 | |
| OE5WHR-10 | 2026-09-04 13:03:39 | 48.00699 | 12.62321 | 114° | 82km/h | 13454m | -4.4m/s | -65.0°C | 41.5% | 166.9hPa | 2.5V | 00:00:00 | 00:00:00 | 00:00:00 | |
| OE5MMP-10 | 2026-09-04 13:03:38 | 48.00706 | 12.62294 | 112° | 88km/h | 13458m | -4.9m/s | -65.0°C | 41.4% | 166.7hPa | 2.5V | 00:00:00 | 02:33:40 | 00:00:00 | |
| PG1ADW-2 | 2026-09-04 13:03:37 | 48.00714 | 12.62266 | 114° | 82km/h | 13463m | -4.1m/s | -65.0°C | 41.2% | 166.6hPa | 2.5V | 00:00:00 | 00:00:00 | 00:00:00 | |
| DL6DJ-15 | 2026-09-04 13:03:32 | 48.00780 | 12.62090 | 124° | 89km/h | 13490m | -5.0m/s | -65.1°C | 31.6% | 165.8hPa | 2.5V | 00:00:00 | 00:00:00 | 00:00:00 | |
| OE5MMP-10 | 2026-09-04 13:03:28 | 48.00822 | 12.62010 | 132° | 77km/h | 13505m | -4.4m/s | -65.0°C | 39.5% | 165.5hPa | 2.5V | 00:00:00 | 02:33:30 | 00:00:00 | |
| PETON7-10 | 2026-09-04 13:03:26 | 48.00852 | 12.61962 | 135° | 73km/h | 13514m | -4.5m/s | -65.0°C | 39.7% | 165.2hPa | 2.5V | 00:00:00 | 00:00:00 | 00:00:00 | |
| OE5DRO-10 | 2026-09-04 13:03:24 | 48.00920 | 12.61858 | 133° | 82km/h | 13537m | -4.8m/s | -65.0°C | 40.5% | 164.5hPa | 2.4V | 00:00:00 | 00:00:00 | 00:00:00 | |
| DG1MFX-10 | 2026-09-04 13:03:19 | 48.00931 | 12.61839 | 133° | 68km/h | 13541m | -4.5m/s | -65.1°C | 32.3% | 164.5hPa | 2.4V | 07:58:00 | 00:00:00 | 00:00:00 | |
| OE5WHR-10 | 2026-09-04 13:03:18 | 48.00951 | 12.61801 | 126° | 78km/h | 13550m | -4.3m/s | -65.2°C | 40.4% | 164.2hPa | 2.4V | 00:00:00 | 02:33:20 | 00:00:00 | |
| PG1ADW-2 | 2026-09-04 13:03:17 | 48.00961 | 12.61782 | 125° | 80km/h | 13554m | -4.5m/s | -65.2°C | 40.4% | 164.0hPa | 2.4V | 00:00:00 | 00:00:00 | 00:00:00 | |
| OE5FHM-15 | 2026-09-04 13:03:15 | 48.00977 | 12.61740 | 119° | 75km/h | 13562m | -4.6m/s | -65.2°C | 39.6% | 163.8hPa | 2.4V | 00:00:00 | 02:33:17 | 00:00:00 | |
| DB0UT-7 | 2026-09-04 13:03:11 | 48.01007 | 12.61647 | 113° | 77km/h | 13582m | -4.2m/s | -65.3°C | 38.4% | 163.3hPa | 2.6V | 00:00:00 | 00:00:00 | 00:00:00 | |
| DH7VM-15 | 2026-09-04 13:03:10 | 48.01007 | 12.61647 | 114° | 75km/h | 13582m | -4.3m/s | -65.4°C | 30.3% | 163.3hPa | 2.6V | 00:00:00 | 00:00:00 | 00:00:00 | |
| OE5HKT-10 | 2026-09-04 13:03:09 | 48.01022 | 12.61592 | 112° | 73km/h | 13592m | -5.2m/s | -65.4°C | 37.8% | 163.0hPa | 2.6V | 00:00:00 | 00:00:00 | 00:00:00 | |
| OE5MMP-10 | 2026-09-04 13:03:08 | 48.01030 | 12.61564 | 115° | 89km/h | 13597m | -4.8m/s | -65.4°C | 37.8% | 162.8hPa | 2.6V | 00:00:00 | 02:33:10 | 00:00:00 | |
| DL6DJ-15 | 2026-09-04 13:03:01 | 48.01126 | 12.61335 | 129° | 86km/h | 13635m | -4.9m/s | -65.6°C | 29.5% | 161.9hPa | 2.6V | 00:00:00 | 00:00:00 | 00:00:00 | |
| DG1MFX-10 | 2026-09-04 13:02:58 | 48.01139 | 12.61310 | 131° | 82km/h | 13640m | -4.8m/s | -65.6°C | 29.6% | 161.7hPa | 2.6V | 07:58:00 | 00:00:00 | 00:00:00 | |
| OE5WHR-10 | 2026-09-04 13:02:57 | 48.01166 | 12.61267 | 134° | 73km/h | 13649m | -4.4m/s | -65.6°C | 37.3% | 161.5hPa | 2.6V | 00:00:00 | 00:00:00 | 00:00:00 | |
| PETON7-10 | 2026-09-04 13:02:56 | 48.01177 | 12.61247 | 131° | 69km/h | 13654m | -5.1m/s | -65.6°C | 37.3% | 161.3hPa | 2.5V | 07:58:00 | 02:32:58 | 00:00:00 | |
| DO7DH-14 | 2026-09-04 13:02:55 | 48.01189 | 12.61227 | 130° | 78km/h | 13658m | -4.8m/s | -65.7°C | 37.3% | 161.2hPa | 2.5V | 00:00:00 | 02:32:57 | 00:00:00 | |
| OE5DXL-15 | 2026-09-04 13:02:54 | 48.01199 | 12.61208 | 129° | 78km/h | 13662m | -4.7m/s | -65.7°C | 37.3% | 161.1hPa | 2.5V | 00:00:00 | 00:00:00 | 00:00:00 | |
| OE5HKT-10 | 2026-09-04 13:02:48 | 48.01250 | 12.61086 | 116° | 82km/h | 13690m | -4.4m/s | -65.9°C | 38.1% | 160.3hPa | 2.5V | 00:00:00 | 02:32:50 | 00:00:00 | |
| OE5FHM-15 | 2026-09-04 13:02:45 | 48.01270 | 12.61014 | 109° | 80km/h | 13704m | -4.9m/s | -65.9°C | 37.7% | 159.9hPa | 2.5V | 07:59:00 | 02:32:47 | 00:00:00 | |
| OE5DRO-10 | 2026-09-04 13:02:43 | 48.01293 | 12.60906 | 107° | 84km/h | 13725m | -5.6m/s | -65.9°C | 35.8% | 159.3hPa | 2.5V | 07:59:00 | 00:00:00 | 00:00:00 | |
| DB0UT-7 | 2026-09-04 13:02:41 | 48.01293 | 12.60906 | 107° | 88km/h | 13725m | -5.6m/s | -65.9°C | 35.8% | 159.3hPa | 2.5V | 00:00:00 | 02:32:43 | 00:00:00 | |
| OE5MMP-10 | 2026-09-04 13:02:38 | 48.01312 | 12.60816 | 108° | 91km/h | 13743m | -5.4m/s | -65.9°C | 34.4% | 159.0hPa | 2.5V | 00:00:00 | 02:32:40 | 00:00:00 | |
| PG1ADW-2 | 2026-09-04 13:02:37 | 48.01319 | 12.60784 | 110° | 80km/h | 13748m | -5.3m/s | -66.0°C | 34.1% | 158.8hPa | 2.5V | 00:00:00 | 00:00:00 | 00:00:00 | |
| OE5WHR-10 | 2026-09-04 13:02:36 | 48.01327 | 12.60751 | 112° | 80km/h | 13754m | -5.2m/s | -66.0°C | 33.8% | 158.7hPa | 2.5V | 00:00:00 | 00:00:00 | 00:00:00 | |
| DL6DJ-15 | 2026-09-04 13:02:30 | 48.01405 | 12.60537 | 124° | 82km/h | 13790m | -4.9m/s | -65.9°C | 26.1% | 157.8hPa | 2.5V | 00:00:00 | 00:00:00 | 00:00:00 | |
| OE5MMP-10 | 2026-09-04 13:02:28 | 48.01416 | 12.60512 | 127° | 71km/h | 13795m | -4.5m/s | -65.8°C | 33.9% | 157.7hPa | 2.5V | 00:00:00 | 02:32:30 | 00:00:00 | |
| OE5HKT-10 | 2026-09-04 13:02:27 | 48.01427 | 12.60490 | 125° | 82km/h | 13800m | -4.5m/s | -65.8°C | 33.3% | 157.5hPa | 2.5V | 00:00:00 | 00:00:00 | 00:00:00 | |
| OE5DRO-10 | 2026-09-04 13:02:25 | 48.01463 | 12.60398 | 115° | 84km/h | 13818m | -4.7m/s | -65.7°C | 32.2% | 157.0hPa | 2.5V | 00:00:00 | 00:00:00 | 00:00:00 | |
| DG1MFX-10 | 2026-09-04 13:02:18 | 48.01491 | 12.60273 | 105° | 73km/h | 13842m | -5.1m/s | -65.7°C | 23.7% | 156.5hPa | 2.5V | 07:59:00 | 00:00:00 | 00:00:00 | |
| PG1ADW-2 | 2026-09-04 13:02:17 | 48.01495 | 12.60246 | 103° | 88km/h | 13848m | -5.0m/s | -65.7°C | 31.0% | 156.3hPa | 2.5V | 07:59:00 | 00:00:00 | 00:00:00 | |
| OE5FHM-15 | 2026-09-04 13:02:15 | 48.01503 | 12.60189 | 103° | 88km/h | 13859m | -5.0m/s | -65.7°C | 30.3% | 156.0hPa | 2.5V | 00:00:00 | 02:32:17 | 00:00:00 | |
| BAUMI2-15 | 2026-09-04 13:02:12 | 48.01519 | 12.60093 | 106° | 97km/h | 13875m | -4.8m/s | -65.8°C | 30.0% | 155.6hPa | 2.5V | 07:59:00 | 02:32:14 | 00:00:00 | |
| PETON7-10 | 2026-09-04 13:02:10 | 48.01533 | 12.60025 | 110° | 99km/h | 13885m | -4.4m/s | -65.9°C | 29.7% | 155.3hPa | 2.5V | 00:00:00 | 02:32:12 | 00:00:00 | |
| OE5MMP-10 | 2026-09-04 13:02:08 | 48.01551 | 12.59957 | 115° | 91km/h | 13894m | -5.3m/s | -66.0°C | 29.3% | 155.1hPa | 2.5V | 00:00:00 | 02:32:10 | 00:00:00 | |
| BAUMI2-15 | 2026-09-04 13:02:07 | 48.01562 | 12.59923 | 116° | 97km/h | 13899m | -5.2m/s | -66.0°C | 29.1% | 154.9hPa | 2.5V | 00:00:00 | 02:32:09 | 00:00:00 | |
| OE5HKT-10 | 2026-09-04 13:02:06 | 48.01573 | 12.59890 | 118° | 84km/h | 13905m | -5.3m/s | -66.0°C | 28.8% | 154.8hPa | 2.6V | 07:59:00 | 00:00:00 | 00:00:00 | |
| OE5DRO-10 | 2026-09-04 13:02:05 | 48.01610 | 12.59797 | 123° | 89km/h | 13921m | -5.6m/s | -66.1°C | 27.7% | 154.5hPa | 2.6V | 00:00:00 | 00:00:00 | 00:00:00 | |
| BAUMI2-15 | 2026-09-04 13:02:02 | 48.01623 | 12.59770 | 125° | 78km/h | 13927m | -5.5m/s | -66.1°C | 27.4% | 154.4hPa | 2.6V | 00:00:00 | 02:32:04 | 00:00:00 | |
| OE5MMP-10 | 2026-09-04 13:01:58 | 48.01668 | 12.59672 | 121° | 78km/h | 13948m | -5.2m/s | -66.1°C | 27.0% | 153.8hPa | 2.6V | 07:59:00 | 02:32:00 | 00:00:00 | |
| PG1ADW-2 | 2026-09-04 13:01:57 | 48.01676 | 12.59649 | 118° | 89km/h | 13953m | -5.0m/s | -66.1°C | 27.2% | 153.6hPa | 2.6V | 00:00:00 | 00:00:00 | 00:00:00 | |
| DO7DH-14 | 2026-09-04 13:01:55 | 48.01690 | 12.59602 | 113° | 86km/h | 13962m | -4.7m/s | -66.1°C | 27.4% | 153.4hPa | 2.6V | 00:00:00 | 02:31:57 | 00:00:00 | |
| OE5WHR-10 | 2026-09-04 13:01:54 | 48.01696 | 12.59576 | 110° | 93km/h | 13967m | -4.5m/s | -66.1°C | 27.5% | 153.3hPa | 2.6V | 00:00:00 | 00:00:00 | 00:00:00 | |
| BAUMI2-15 | 2026-09-04 13:01:52 | 48.01709 | 12.59519 | 110° | 91km/h | 13975m | -4.7m/s | -66.0°C | 27.2% | 153.0hPa | 2.5V | 00:00:00 | 02:31:54 | 00:00:00 | |
| OE5MMP-10 | 2026-09-04 13:01:48 | 48.01745 | 12.59394 | 118° | 97km/h | 13996m | -5.0m/s | -66.1°C | 26.5% | 152.5hPa | 2.4V | 00:00:00 | 02:31:50 | 00:00:00 | |
| BAUMI2-15 | 2026-09-04 13:01:47 | 48.01756 | 12.59363 | 121° | 97km/h | 14001m | -4.4m/s | -66.1°C | 26.3% | 152.4hPa | 2.6V | 00:00:00 | 02:31:49 | 00:00:00 | |
| OE5FHM-15 | 2026-09-04 13:01:45 | 48.01781 | 12.59301 | 121° | 84km/h | 14011m | -4.7m/s | -66.1°C | 25.7% | 152.2hPa | 2.6V | 00:00:00 | 02:31:47 | 00:00:00 | |
| OE5HKT-10 | 2026-09-04 13:01:44 | 48.01794 | 12.59270 | 122° | 84km/h | 14016m | -4.9m/s | -66.1°C | 25.4% | 152.0hPa | 2.5V | 00:00:00 | 02:31:46 | 00:00:00 | |
| BAUMI2-15 | 2026-09-04 13:01:42 | 48.01820 | 12.59208 | 124° | 97km/h | 14027m | -5.1m/s | -66.1°C | 24.8% | 151.8hPa | 2.5V | 00:00:00 | 02:31:44 | 00:00:00 | |
| OE5DRO-10 | 2026-09-04 13:01:40 | 48.01879 | 12.59090 | 130° | 82km/h | 14048m | -5.1m/s | -65.7°C | 23.2% | 151.3hPa | 2.5V | 00:00:00 | 00:00:00 | 00:00:00 | |
| OE5MMP-10 | 2026-09-04 13:01:38 | 48.01879 | 12.59090 | 130° | 84km/h | 14048m | -5.1m/s | -65.7°C | 23.2% | 151.3hPa | 2.5V | 00:00:00 | 02:31:40 | 00:00:00 | |
| PG1ADW-2 | 2026-09-04 13:01:37 | 48.01894 | 12.59062 | 132° | 78km/h | 14053m | -4.8m/s | -65.7°C | 23.1% | 151.2hPa | 2.5V | 00:00:00 | 02:31:39 | 00:00:00 | |
| DG1MFX-10 | 2026-09-04 13:01:36 | 48.01894 | 12.59062 | 132° | 95km/h | 14053m | -4.8m/s | -65.8°C | 16.4% | 151.2hPa | 2.5V | 08:00:00 | 00:00:00 | 00:00:00 | |
| OE5WHR-10 | 2026-09-04 13:01:33 | 48.01956 | 12.58964 | 135° | 80km/h | 14074m | -5.3m/s | -65.4°C | 22.4% | 150.6hPa | 2.5V | 00:00:00 | 00:00:00 | 00:00:00 | |
| BAUMI2-15 | 2026-09-04 13:01:32 | 48.01971 | 12.58942 | 135° | 73km/h | 14079m | -4.9m/s | -65.2°C | 22.1% | 150.5hPa | 2.5V | 00:00:00 | 02:31:34 | 00:00:00 | |
| OE5MMP-10 | 2026-09-04 13:01:28 | 48.02020 | 12.58861 | 128° | 75km/h | 14097m | -4.9m/s | -65.2°C | 21.1% | 150.0hPa | 2.5V | 00:00:00 | 02:31:30 | 00:00:00 | |
| BAUMI2-15 | 2026-09-04 13:01:27 | 48.02030 | 12.58841 | 125° | 68km/h | 14102m | -4.9m/s | -65.3°C | 20.8% | 149.9hPa | 2.5V | 00:00:00 | 02:31:29 | 00:00:00 | |
| DO7DH-14 | 2026-09-04 13:01:25 | 48.02046 | 12.58799 | 118° | 77km/h | 14113m | -5.8m/s | -65.3°C | 20.2% | 149.6hPa | 2.5V | 00:00:00 | 02:31:27 | 00:00:00 | |
| OE5DXL-15 | 2026-09-04 13:01:24 | 48.02054 | 12.58775 | 115° | 75km/h | 14119m | -5.5m/s | -65.3°C | 19.9% | 149.5hPa | 2.5V | 00:00:00 | 00:00:00 | 00:00:00 | |
| BAUMI2-15 | 2026-09-04 13:01:22 | 48.02068 | 12.58724 | 112° | 86km/h | 14130m | -5.1m/s | -65.3°C | 19.5% | 149.2hPa | 2.5V | 08:00:00 | 02:31:24 | 00:00:00 | |
| OE5MMP-10 | 2026-09-04 13:01:18 | 48.02106 | 12.58607 | 122° | 88km/h | 14152m | -4.2m/s | -65.0°C | 18.4% | 148.7hPa | 2.5V | 08:00:00 | 02:31:20 | 00:00:00 | |
| BAUMI2-15 | 2026-09-04 13:01:17 | 48.02119 | 12.58577 | 123° | 93km/h | 14157m | -5.2m/s | -65.1°C | 18.3% | 148.6hPa | 2.6V | 00:00:00 | 02:31:19 | 00:00:00 | |
| OE3JTB-15 | 2026-09-04 13:01:16 | 48.02132 | 12.58548 | 127° | 78km/h | 14162m | -4.8m/s | 0°C | 0% | 0hPa | 2.6V | 00:00:00 | 00:00:00 | 00:00:00 | |
| OE5FHM-15 | 2026-09-04 13:01:15 | 48.02147 | 12.58521 | 131° | 77km/h | 14167m | -4.7m/s | -65.0°C | 17.9% | 148.4hPa | 2.6V | 00:00:00 | 02:31:17 | 00:00:00 | |
| OE5WHR-10 | 2026-09-04 13:01:12 | 48.02193 | 12.58444 | 135° | 68km/h | 14183m | -4.9m/s | -64.9°C | 17.3% | 148.0hPa | 2.6V | 00:00:00 | 02:31:14 | 00:00:00 | |
| DK5PH-5 | 2026-09-04 13:01:10 | 48.02223 | 12.58399 | 136° | 77km/h | 14193m | -5.1m/s | -64.8°C | 17.1% | 147.7hPa | 2.6V | 00:00:00 | 02:31:12 | 00:00:00 | |
| OE5MMP-10 | 2026-09-04 13:01:09 | 48.02250 | 12.58358 | 133° | 64km/h | 14203m | -5.1m/s | -64.8°C | 17.0% | 147.5hPa | 2.6V | 00:00:00 | 02:31:10 | 00:00:00 | |
| DG1MJG | 2026-09-04 13:01:08 | 48.02250 | 12.58358 | 134° | 73km/h | 14203m | -5.2m/s | -64.9°C | 11.1% | 147.5hPa | 2.6V | 08:01:00 | 00:00:00 | 00:00:00 | |
| OE5HKT-10 | 2026-09-04 13:01:05 | 48.02283 | 12.58300 | 128° | 73km/h | 14219m | -5.5m/s | -64.8°C | 16.9% | 147.1hPa | 2.6V | 00:00:00 | 00:00:00 | 00:00:00 | |
| DL6DJ-15 | 2026-09-04 13:00:56 | 48.02350 | 12.58119 | 109° | 62km/h | 14267m | -5.3m/s | -64.5°C | 9.3% | 146.0hPa | 2.5V | 00:00:00 | 00:00:00 | 00:00:00 | |
| HARRO8 | 2026-09-04 13:00:53 | 48.02392 | 12.57927 | 111° | 86km/h | 14304m | -5.3m/s | 0°C | -1.0% | -1.0hPa | 2.5V | 00:00:00 | 00:00:00 | 00:00:00 | |
| BAUMI2-15 | 2026-09-04 13:00:52 | 48.02371 | 12.58016 | 108° | 84km/h | 14289m | -5.3m/s | -64.1°C | 13.7% | 145.4hPa | 2.5V | 00:00:00 | 02:30:54 | 00:00:00 | |
| OE5WHR-10 | 2026-09-04 13:00:51 | 48.02377 | 12.57987 | 109° | 73km/h | 14295m | -4.8m/s | -64.1°C | 13.6% | 145.3hPa | 2.5V | 00:00:00 | 00:00:00 | 00:00:00 | |
| OE5MMP-10 | 2026-09-04 13:00:48 | 48.02401 | 12.57897 | 115° | 77km/h | 14310m | -5.0m/s | -63.8°C | 12.8% | 144.9hPa | 2.5V | 00:00:00 | 02:30:50 | 00:00:00 | |
| OE3JTB-15 | 2026-09-04 13:00:47 | 48.02421 | 12.57836 | 120° | 80km/h | 14320m | -5.2m/s | 0°C | 0% | 0hPa | 2.5V | 00:00:00 | 02:30:48 | 00:00:00 | |
| OE5FHM-15 | 2026-09-04 13:00:45 | 48.02432 | 12.57808 | 123° | 84km/h | 14325m | -5.0m/s | -63.9°C | 12.8% | 144.5hPa | 2.5V | 00:00:00 | 02:30:47 | 00:00:00 | |
| OE5HKT-10 | 2026-09-04 13:00:44 | 48.02444 | 12.57782 | 124° | 78km/h | 14330m | -4.9m/s | -63.8°C | 12.8% | 144.4hPa | 2.5V | 00:00:00 | 00:00:00 | 00:00:00 | |
| BAUMI2-15 | 2026-09-04 13:00:42 | 48.02466 | 12.57735 | 126° | 62km/h | 14341m | -4.9m/s | -63.7°C | 12.6% | 144.2hPa | 2.5V | 00:00:00 | 02:30:44 | 00:00:00 | |
| OE5REO-15 | 2026-09-04 13:00:39 | 48.02484 | 12.57694 | 122° | 62km/h | 14351m | -5.0m/s | -63.5°C | 7.3% | 144.0hPa | 2.5V | 08:01:00 | 00:00:00 | 00:00:00 | |
| OE5MMP-10 | 2026-09-04 13:00:38 | 48.02498 | 12.57654 | 114° | 66km/h | 14361m | -4.9m/s | -63.3°C | 12.2% | 143.7hPa | 2.5V | 00:00:00 | 02:30:40 | 00:00:00 | |
| BAUMI2-15 | 2026-09-04 13:00:37 | 48.02503 | 12.57634 | 110° | 60km/h | 14366m | -5.2m/s | -63.3°C | 12.0% | 143.6hPa | 2.5V | 08:01:00 | 02:30:39 | 00:00:00 | |
| DG1MJG | 2026-09-04 13:00:36 | 48.02503 | 12.57634 | 111° | 58km/h | 14366m | -5.3m/s | -63.4°C | 7.0% | 143.6hPa | 2.6V | 08:01:00 | 00:00:00 | 00:00:00 | |
| DG1MFX-10 | 2026-09-04 13:00:34 | 48.02515 | 12.57569 | 103° | 62km/h | 14382m | -5.3m/s | -63.3°C | 6.9% | 143.2hPa | 2.6V | 08:01:00 | 00:00:00 | 00:00:00 | |
| BAUMI2-15 | 2026-09-04 13:00:32 | 48.02521 | 12.57521 | 100° | 77km/h | 14393m | -5.1m/s | -63.3°C | 11.8% | 143.0hPa | 2.6V | 00:00:00 | 02:30:34 | 00:00:00 | |
| DK5PH-5 | 2026-09-04 13:00:31 | 48.02524 | 12.57495 | 99° | 86km/h | 14398m | -5.3m/s | -63.4°C | 11.8% | 142.8hPa | 2.6V | 00:00:00 | 02:30:33 | 00:00:00 | |
| OE5WHR-10 | 2026-09-04 13:00:30 | 48.02527 | 12.57468 | 99° | 89km/h | 14403m | -5.2m/s | -63.2°C | 11.5% | 142.7hPa | 2.6V | 00:00:00 | 00:00:00 | 00:00:00 | |
| OE5MMP-10 | 2026-09-04 13:00:28 | 48.02533 | 12.57408 | 101° | 93km/h | 14413m | -5.4m/s | -62.9°C | 11.1% | 142.4hPa | 2.6V | 00:00:00 | 02:30:30 | 00:00:00 | |
| BAUMI2-15 | 2026-09-04 13:00:27 | 48.02537 | 12.57377 | 102° | 91km/h | 14419m | -5.2m/s | -62.9°C | 11.0% | 142.3hPa | 2.6V | 00:00:00 | 02:30:29 | 00:00:00 | |
| DO7DH-14 | 2026-09-04 13:00:25 | 48.02547 | 12.57311 | 104° | 86km/h | 14429m | -5.3m/s | -62.7°C | 10.7% | 142.1hPa | 2.6V | 00:00:00 | 02:30:27 | 00:00:00 | |
| OE5DXL-15 | 2026-09-04 13:00:24 | 48.02553 | 12.57277 | 105° | 86km/h | 14435m | -5.5m/s | -62.6°C | 10.5% | 141.9hPa | 2.6V | 08:01:00 | 00:00:00 | 00:00:00 | |
| BAUMI2-15 | 2026-09-04 13:00:22 | 48.02566 | 12.57208 | 107° | 97km/h | 14446m | -5.6m/s | -62.2°C | 9.9% | 141.7hPa | 2.5V | 00:00:00 | 02:30:24 | 00:00:00 | |
| OE5DRO-10 | 2026-09-04 13:00:21 | 48.02573 | 12.57173 | 109° | 84km/h | 14452m | -5.7m/s | -62.1°C | 9.7% | 141.5hPa | 2.5V | 00:00:00 | 00:00:00 | 00:00:00 | |
| BAUMI2-15 | 2026-09-04 13:00:18 | 48.02609 | 12.57037 | 116° | 86km/h | 14474m | -5.5m/s | -61.9°C | 9.3% | 141.0hPa | 2.5V | 00:00:00 | 02:30:19 | 00:00:00 | |
| DG1MFX-10 | 2026-09-04 13:00:13 | 48.02642 | 12.56944 | 122° | 89km/h | 14490m | -5.4m/s | -61.9°C | 5.0% | 140.7hPa | 2.5V | 08:02:00 | 00:00:00 | 00:00:00 | |
| OE5WHR-10 | 2026-09-04 13:00:09 | 48.02699 | 12.56812 | 124° | 88km/h | 14517m | -5.5m/s | -61.5°C | 9.0% | 140.1hPa | 2.5V | 00:00:00 | 02:30:11 | 00:00:00 | |
| OE5MMP-10 | 2026-09-04 13:00:08 | 48.02709 | 12.56788 | 123° | 75km/h | 14523m | -5.6m/s | -61.4°C | 8.9% | 139.9hPa | 2.5V | 00:00:00 | 02:30:10 | 00:00:00 | |
| DG1MJG | 2026-09-04 13:00:06 | 48.02727 | 12.56743 | 119° | 68km/h | 14533m | -5.6m/s | -61.2°C | 4.7% | 139.7hPa | 2.5V | 08:02:00 | 00:00:00 | 00:00:00 | |
| IN3HCDX | 2026-09-04 13:00:04 | 48.02735 | 12.56720 | 116° | 68km/h | 14539m | -5.5m/s | -61.2°C | 0% | 139.6hPa | 2.5V | 00:00:00 | 00:00:00 | 00:00:00 | |
| OE5DRO-10 | 2026-09-04 13:00:02 | 48.02752 | 12.56645 | 105° | 93km/h | 14555m | -5.2m/s | -61.3°C | 8.7% | 139.2hPa | 2.5V | 00:00:00 | 00:00:00 | 00:00:00 | |
| OE5FHM-15 | 2026-09-04 13:00:01 | 48.02756 | 12.56617 | 104° | 89km/h | 14560m | -5.0m/s | -61.4°C | 8.7% | 139.1hPa | 2.5V | 08:01:00 | 02:30:03 | 00:00:00 | |
| OE5MMP-10 | 2026-09-04 12:59:58 | 48.02774 | 12.56521 | 107° | 100km/h | 14575m | -5.1m/s | -61.3°C | 8.6% | 138.7hPa | 2.6V | 00:00:00 | 02:30:00 | 00:00:00 | |
| PG1ADW-2 | 2026-09-04 12:59:57 | 48.02781 | 12.56487 | 109° | 89km/h | 14580m | -5.6m/s | -61.2°C | 8.6% | 138.6hPa | 2.6V | 00:00:00 | 00:00:00 | 00:00:00 | |
| DO7DH-14 | 2026-09-04 12:59:55 | 48.02799 | 12.56417 | 113° | 97km/h | 14591m | -5.2m/s | -60.9°C | 8.2% | 138.4hPa | 2.6V | 00:00:00 | 02:29:57 | 00:00:00 | |
| OE5DXL-15 | 2026-09-04 12:59:54 | 48.02809 | 12.56382 | 115° | 91km/h | 14597m | -5.8m/s | -60.9°C | 8.1% | 138.2hPa | 2.6V | 00:00:00 | 00:00:00 | 00:00:00 | |
| DG1MFX-10 | 2026-09-04 12:59:52 | 48.02820 | 12.56348 | 117° | 102km/h | 14602m | -5.6m/s | -60.8°C | 4.2% | 138.2hPa | 2.6V | 08:02:00 | 00:00:00 | 00:00:00 | |
| OE5MMP-10 | 2026-09-04 12:59:48 | 48.02888 | 12.56185 | 127° | 80km/h | 14631m | -5.5m/s | -60.6°C | 7.7% | 137.5hPa | 2.6V | 08:01:00 | 02:29:50 | 00:00:00 | |
| DB0UT-7 | 2026-09-04 12:59:47 | 48.02903 | 12.56156 | 129° | 88km/h | 14636m | -5.4m/s | -60.6°C | 7.7% | 137.4hPa | 2.6V | 00:00:00 | 00:00:00 | 00:00:00 | |
| OE5DRO-10 | 2026-09-04 12:59:43 | 48.02958 | 12.56058 | 129° | 89km/h | 14659m | -5.4m/s | -60.8°C | 8.1% | 136.9hPa | 2.6V | 00:00:00 | 00:00:00 | 00:00:00 | |
| OE5HKT-10 | 2026-09-04 12:59:42 | 48.02969 | 12.56035 | 126° | 62km/h | 14665m | -5.5m/s | -60.9°C | 8.2% | 136.8hPa | 2.6V | 00:00:00 | 02:29:44 | 00:00:00 | |
| OE3JTB-15 | 2026-09-04 12:59:40 | 48.02988 | 12.55990 | 118° | 88km/h | 14676m | -5.3m/s | 0°C | 0% | 0hPa | 2.6V | 08:02:00 | 00:00:00 | 00:00:00 | |
| OE5MMP-10 | 2026-09-04 12:59:38 | 48.03003 | 12.55940 | 111° | 95km/h | 14686m | -5.7m/s | -61.2°C | 8.1% | 136.3hPa | 2.6V | 00:00:00 | 02:29:40 | 00:00:00 | |
| PG1ADW-2 | 2026-09-04 12:59:37 | 48.03010 | 12.55912 | 110° | 91km/h | 14692m | -5.4m/s | -61.3°C | 8.0% | 136.2hPa | 2.6V | 08:02:00 | 00:00:00 | 00:00:00 | |
| DG1MJG | 2026-09-04 12:59:34 | 48.03024 | 12.55851 | 110° | 91km/h | 14703m | -5.4m/s | -61.4°C | 4.0% | 136.0hPa | 2.5V | 08:02:00 | 00:00:00 | 00:00:00 | |
| DG1MFX-10 | 2026-09-04 12:59:32 | 48.03041 | 12.55784 | 113° | 99km/h | 14714m | -5.4m/s | -61.4°C | 4.0% | 135.7hPa | 2.5V | 08:03:00 | 00:00:00 | 00:00:00 | |
| OE5FHM-15 | 2026-09-04 12:59:31 | 48.03062 | 12.55714 | 117° | 91km/h | 14725m | -5.2m/s | -61.3°C | 7.8% | 135.4hPa | 2.5V | 00:00:00 | 02:29:33 | 00:00:00 | |
| OE5MMP-10 | 2026-09-04 12:59:28 | 48.03101 | 12.55613 | 125° | 89km/h | 14741m | -5.0m/s | -61.3°C | 7.7% | 135.1hPa | 2.5V | 00:00:00 | 02:29:30 | 00:00:00 | |
| OE5WHR-10 | 2026-09-04 12:59:27 | 48.03116 | 12.55582 | 127° | 78km/h | 14746m | -5.2m/s | -61.2°C | 7.8% | 135.0hPa | 2.5V | 00:00:00 | 00:00:00 | 00:00:00 | |
| DO7DH-14 | 2026-09-04 12:59:25 | 48.03147 | 12.55525 | 130° | 77km/h | 14757m | -5.1m/s | -61.3°C | 7.9% | 134.7hPa | 2.5V | 00:00:00 | 02:29:27 | 00:00:00 | |
| OE5DXL-15 | 2026-09-04 12:59:24 | 48.03162 | 12.55498 | 132° | 80km/h | 14762m | -5.4m/s | -61.3°C | 8.0% | 134.6hPa | 2.5V | 00:00:00 | 00:00:00 | 00:00:00 | |
| DL6DJ-15 | 2026-09-04 12:59:23 | 48.03177 | 12.55473 | 132° | 88km/h | 14768m | -5.2m/s | -61.3°C | 4.0% | 134.6hPa | 2.5V | 00:00:00 | 00:00:00 | 00:00:00 | |
| DK5PH-5 | 2026-09-04 12:59:18 | 48.03256 | 12.55337 | 128° | 73km/h | 14800m | -5.4m/s | -61.0°C | 7.9% | 133.8hPa | 2.5V | 00:00:00 | 02:29:19 | 00:00:00 | |
| DG1MFX-10 | 2026-09-04 12:59:11 | 48.03301 | 12.55230 | 115° | 66km/h | 14828m | -5.7m/s | -61.0°C | 3.7% | 133.2hPa | 2.5V | 08:03:00 | 00:00:00 | 00:00:00 | |
| DH7VM-15 | 2026-09-04 12:59:10 | 48.03307 | 12.55207 | 113° | 68km/h | 14834m | -5.9m/s | -61.0°C | 3.6% | 133.1hPa | 2.5V | 00:00:00 | 00:00:00 | 00:00:00 | |
| OE3JTB-15 | 2026-09-04 12:59:09 | 48.03319 | 12.55157 | 109° | 78km/h | 14845m | -5.4m/s | 0°C | 0% | 0hPa | 2.5V | 00:00:00 | 00:00:00 | 00:00:00 | |
| OE5MMP-10 | 2026-09-04 12:59:08 | 48.03325 | 12.55130 | 109° | 91km/h | 14851m | -5.6m/s | -61.0°C | 7.4% | 132.7hPa | 2.5V | 00:00:00 | 02:29:10 | 00:00:00 | |
| IN3HCDX | 2026-09-04 12:59:07 | 48.03332 | 12.55101 | 110° | 82km/h | 14856m | -5.4m/s | -61.1°C | 0% | 132.6hPa | 2.5V | 00:00:00 | 00:00:00 | 00:00:00 | |
| OE5DRO-10 | 2026-09-04 12:59:05 | 48.03348 | 12.55040 | 114° | 78km/h | 14867m | -5.0m/s | -61.2°C | 7.5% | 132.3hPa | 2.5V | 00:00:00 | 00:00:00 | 00:00:00 | |
| DG1MJG | 2026-09-04 12:59:04 | 48.03348 | 12.55040 | 115° | 91km/h | 14867m | -5.0m/s | -61.3°C | 3.6% | 132.4hPa | 2.5V | 08:03:00 | 00:00:00 | 00:00:00 | |
| DL6DJ-15 | 2026-09-04 12:58:52 | 48.03515 | 12.54704 | 130° | 64km/h | 14937m | -5.3m/s | -60.7°C | 3.5% | 130.9hPa | 2.5V | 00:00:00 | 00:00:00 | 00:00:00 | |
| DG1MFX-10 | 2026-09-04 12:58:51 | 48.03514 | 12.54703 | 132° | 64km/h | 14938m | -5.3m/s | -60.7°C | 3.6% | 130.9hPa | 2.5V | 08:03:00 | 00:00:00 | 00:00:00 | |
| OE5MMP-10 | 2026-09-04 12:58:48 | 48.03551 | 12.54631 | 122° | 64km/h | 14960m | -5.6m/s | -60.5°C | 7.2% | 130.4hPa | 2.5V | 00:00:00 | 02:28:50 | 00:00:00 | |
| OE5DRO-10 | 2026-09-04 12:58:46 | 48.03564 | 12.54593 | 115° | 71km/h | 14971m | -5.5m/s | -60.3°C | 7.0% | 130.1hPa | 2.5V | 00:00:00 | 00:00:00 | 00:00:00 | |
| OE5WHR-10 | 2026-09-04 12:58:45 | 48.03570 | 12.54573 | 112° | 69km/h | 14977m | -5.6m/s | -60.3°C | 6.9% | 130.0hPa | 2.5V | 00:00:00 | 00:00:00 | 00:00:00 | |
| IN3HCDX | 2026-09-04 12:58:43 | 48.03575 | 12.54552 | 109° | 60km/h | 14983m | -5.9m/s | -60.3°C | 0% | 129.9hPa | 2.5V | 00:00:00 | 00:00:00 | 00:00:00 | |
| DO7DH-14 | 2026-09-04 12:58:42 | 48.03583 | 12.54507 | 104° | 75km/h | 14994m | -5.9m/s | -60.2°C | 6.7% | 129.6hPa | 2.5V | 00:00:00 | 02:28:44 | 00:00:00 | |
| OE5MMP-10 | 2026-09-04 12:58:38 | 48.03601 | 12.54398 | 106° | 77km/h | 15017m | -5.8m/s | -60.4°C | 6.7% | 129.1hPa | 2.5V | 00:00:00 | 02:28:40 | 00:00:00 | |
| PG1ADW-2 | 2026-09-04 12:58:37 | 48.03607 | 12.54368 | 108° | 62km/h | 15023m | -5.7m/s | -60.4°C | 6.8% | 129.0hPa | 2.5V | 00:00:00 | 00:00:00 | 00:00:00 | |
| DG1MJG | 2026-09-04 12:58:35 | 48.03623 | 12.54308 | 116° | 86km/h | 15034m | -5.5m/s | -60.6°C | 3.1% | 128.8hPa | 2.6V | 08:03:00 | 00:00:00 | 00:00:00 | |
| DK5PH-5 | 2026-09-04 12:58:34 | 48.03632 | 12.54280 | 119° | 66km/h | 15040m | -5.8m/s | -60.7°C | 7.0% | 128.7hPa | 2.6V | 08:03:00 | 02:28:36 | 00:00:00 | |
| DG1MFX-10 | 2026-09-04 12:58:30 | 48.03663 | 12.54207 | 127° | 69km/h | 15055m | -5.1m/s | -60.8°C | 3.3% | 128.5hPa | 2.6V | 08:03:00 | 00:00:00 | 00:00:00 | |
| OE5MMP-10 | 2026-09-04 12:58:28 | 48.03692 | 12.54149 | 127° | 49km/h | 15072m | -5.1m/s | -60.6°C | 7.1% | 128.1hPa | 2.6V | 00:00:00 | 02:28:30 | 00:00:00 | |
| OE5DRO-10 | 2026-09-04 12:58:27 | 48.03701 | 12.54131 | 126° | 57km/h | 15077m | -5.7m/s | -60.4°C | 7.0% | 127.9hPa | 2.6V | 00:00:00 | 00:00:00 | 00:00:00 | |
| OE5REO-15 | 2026-09-04 12:58:26 | 48.03701 | 12.54131 | 127° | 55km/h | 15077m | -5.7m/s | -60.5°C | 3.2% | 128.0hPa | 2.6V | 08:03:00 | 00:00:00 | 00:00:00 | |
| OE5DXL-15 | 2026-09-04 12:58:24 | 48.03722 | 12.54083 | 120° | 66km/h | 15094m | -5.5m/s | -60.0°C | 6.7% | 127.5hPa | 2.6V | 00:00:00 | 00:00:00 | 00:00:00 | |
| OE5FHM-15 | 2026-09-04 12:58:23 | 48.03727 | 12.54068 | 117° | 66km/h | 15100m | -6.1m/s | -60.0°C | 6.7% | 127.4hPa | 2.6V | 00:00:00 | 02:28:25 | 00:00:00 | |
| IN3HCDX | 2026-09-04 12:58:22 | 48.03727 | 12.54068 | 118° | 44km/h | 15100m | -6.2m/s | -60.1°C | 0% | 127.5hPa | 2.5V | 08:03:00 | 00:00:00 | 00:00:00 | |
| OE5MMP-10 | 2026-09-04 12:58:18 | 48.03743 | 12.53986 | 97° | 66km/h | 15128m | -5.6m/s | -60.2°C | 6.7% | 126.9hPa | 2.5V | 08:03:00 | 02:28:20 | 00:00:00 | |
| PG1ADW-2 | 2026-09-04 12:58:17 | 48.03745 | 12.53966 | 95° | 73km/h | 15134m | -5.2m/s | -60.2°C | 6.6% | 126.8hPa | 2.6V | 00:00:00 | 00:00:00 | 00:00:00 | |
| DO7DH-14 | 2026-09-04 12:58:12 | 48.03753 | 12.53845 | 99° | 77km/h | 15162m | -5.8m/s | -60.5°C | 6.7% | 126.2hPa | 2.6V | 00:00:00 | 02:28:14 | 00:00:00 | |
| BAUMI2-15 | 2026-09-04 12:58:10 | 48.03760 | 12.53791 | 104° | 77km/h | 15173m | -5.7m/s | -60.2°C | 6.6% | 126.0hPa | 2.6V | 00:00:00 | 02:28:12 | 00:00:00 | |
| OE5MMP-10 | 2026-09-04 12:58:08 | 48.03770 | 12.53736 | 108° | 78km/h | 15184m | -5.4m/s | -60.1°C | 6.5% | 125.8hPa | 2.6V | 00:00:00 | 02:28:10 | 00:00:00 | |
| BAUMI2-15 | 2026-09-04 12:58:05 | 48.03792 | 12.53654 | 116° | 78km/h | 15201m | -5.7m/s | -60.1°C | 6.5% | 125.4hPa | 2.6V | 00:00:00 | 02:28:07 | 00:00:00 | |
| DK5PH-5 | 2026-09-04 12:58:04 | 48.03801 | 12.53628 | 118° | 69km/h | 15206m | -5.4m/s | -60.0°C | 6.4% | 125.3hPa | 2.5V | 00:00:00 | 02:28:06 | 00:00:00 | |
| OE5WHR-10 | 2026-09-04 12:58:03 | 48.03810 | 12.53602 | 120° | 62km/h | 15212m | -5.7m/s | -60.1°C | 6.4% | 125.2hPa | 2.5V | 00:00:00 | 02:28:05 | 00:00:00 | |
| DL6DJ-15 | 2026-09-04 12:57:50 | 48.03966 | 12.53333 | 133° | 44km/h | 15292m | -5.9m/s | -60.0°C | 2.9% | 123.6hPa | 2.5V | 00:00:00 | 00:00:00 | 00:00:00 | |
| OE5DRO-10 | 2026-09-04 12:57:49 | 48.03966 | 12.53333 | 134° | 55km/h | 15292m | -5.8m/s | -59.9°C | 6.6% | 123.6hPa | 2.5V | 00:00:00 | 00:00:00 | 00:00:00 | |
| OE5MMP-10 | 2026-09-04 12:57:48 | 48.03973 | 12.53321 | 128° | 55km/h | 15298m | -5.4m/s | -59.9°C | 6.6% | 123.5hPa | 2.5V | 00:00:00 | 02:27:50 | 00:00:00 | |
| BAUMI2-15 | 2026-09-04 12:57:45 | 48.03988 | 12.53277 | 110° | 57km/h | 15314m | -5.1m/s | -59.8°C | 6.4% | 123.1hPa | 2.5V | 00:00:00 | 02:27:47 | 00:00:00 | |
| OE5WHR-10 | 2026-09-04 12:57:42 | 48.04000 | 12.53218 | 106° | 47km/h | 15331m | -5.6m/s | -59.9°C | 6.5% | 122.8hPa | 2.5V | 00:00:00 | 00:00:00 | 00:00:00 | |
| OE5MMP-10 | 2026-09-04 12:57:38 | 48.04027 | 12.53125 | 123° | 55km/h | 15353m | -5.0m/s | -60.1°C | 6.8% | 122.4hPa | 2.6V | 00:00:00 | 02:27:40 | 00:00:00 | |
| BAUMI2-15 | 2026-09-04 12:57:37 | 48.04058 | 12.53068 | 136° | 53km/h | 15369m | -4.9m/s | -59.9°C | 6.8% | 122.1hPa | 2.6V | 00:00:00 | 02:27:37 | 00:00:00 | |
| DG1MJG | 2026-09-04 12:57:34 | 48.04069 | 12.53053 | 141° | 57km/h | 15374m | -5.2m/s | -59.7°C | 2.9% | 122.0hPa | 2.5V | 08:04:00 | 00:00:00 | 00:00:00 | |
| PETON7-10 | 2026-09-04 12:57:33 | 48.04079 | 12.53040 | 142° | 35km/h | 15379m | -5.5m/s | -59.5°C | 6.7% | 121.9hPa | 2.5V | 08:04:00 | 00:00:00 | 00:00:00 | |
| DB0UT-7 | 2026-09-04 12:57:32 | 48.04089 | 12.53028 | 143° | 40km/h | 15384m | -5.3m/s | -59.3°C | 6.7% | 121.8hPa | 2.5V | 00:00:00 | 02:27:34 | 00:00:00 | |
| BAUMI2-15 | 2026-09-04 12:57:30 | 48.04107 | 12.53008 | 144° | 35km/h | 15395m | -5.6m/s | -58.8°C | 6.5% | 121.5hPa | 2.5V | 00:00:00 | 02:27:32 | 00:00:00 | |
| DG1MFX-10 | 2026-09-04 12:57:28 | 48.04123 | 12.52991 | 144° | 35km/h | 15407m | -5.9m/s | -58.7°C | 2.9% | 121.4hPa | 2.5V | 00:00:00 | 00:00:00 | 00:00:00 | |
| BAUMI2-15 | 2026-09-04 12:57:25 | 48.04139 | 12.52969 | 132° | 24km/h | 15425m | -5.6m/s | -58.4°C | 6.2% | 121.0hPa | 2.5V | 00:00:00 | 02:27:27 | 00:00:00 | |
| OE5DXL-15 | 2026-09-04 12:57:24 | 48.04143 | 12.52962 | 122° | 38km/h | 15431m | -5.8m/s | -58.4°C | 6.2% | 120.9hPa | 2.5V | 00:00:00 | 00:00:00 | 00:00:00 | |
| OE5FHM-15 | 2026-09-04 12:57:23 | 48.04145 | 12.52954 | 111° | 38km/h | 15436m | -5.6m/s | -58.4°C | 6.1% | 120.7hPa | 2.5V | 00:00:00 | 02:27:25 | 00:00:00 | |
| OE5WHR-10 | 2026-09-04 12:57:21 | 48.04148 | 12.52936 | 95° | 44km/h | 15448m | -5.8m/s | -58.4°C | 6.1% | 120.5hPa | 2.5V | 00:00:00 | 00:00:00 | 00:00:00 | |
| BAUMI2-15 | 2026-09-04 12:57:20 | 48.04148 | 12.52925 | 90° | 40km/h | 15453m | -5.4m/s | -58.4°C | 6.1% | 120.4hPa | 2.5V | 00:00:00 | 02:27:22 | 00:00:00 | |
| DL6DJ-15 | 2026-09-04 12:57:19 | 48.04148 | 12.52898 | 89° | 40km/h | 15464m | -5.7m/s | -58.5°C | 2.6% | 120.2hPa | 2.5V | 00:00:00 | 00:00:00 | 00:00:00 | |
| OE5MMP-10 | 2026-09-04 12:57:18 | 48.04148 | 12.52898 | 90° | 53km/h | 15465m | -5.7m/s | -58.4°C | 5.9% | 120.2hPa | 2.5V | 00:00:00 | 02:27:20 | 00:00:00 | |
| PG1ADW-2 | 2026-09-04 12:57:17 | 48.04148 | 12.52882 | 93° | 42km/h | 15470m | -5.6m/s | -58.4°C | 5.9% | 120.0hPa | 2.5V | 00:00:00 | 00:00:00 | 00:00:00 | |
| BAUMI2-15 | 2026-09-04 12:57:15 | 48.04151 | 12.52844 | 99° | 57km/h | 15482m | -5.7m/s | -58.4°C | 5.8% | 119.8hPa | 2.5V | 00:00:00 | 02:27:17 | 00:00:00 | |
| PETON7-10 | 2026-09-04 12:57:14 | 48.04153 | 12.52824 | 103° | 51km/h | 15487m | -5.7m/s | -58.4°C | 5.8% | 119.8hPa | 2.5V | 00:00:00 | 00:00:00 | 00:00:00 | |
| BAUMI2-15 | 2026-09-04 12:57:10 | 48.04174 | 12.52742 | 121° | 51km/h | 15511m | -5.9m/s | -58.4°C | 5.8% | 119.3hPa | 2.5V | 00:00:00 | 02:27:12 | 00:00:00 | |
| OE5MMP-10 | 2026-09-04 12:57:08 | 48.04190 | 12.52707 | 129° | 33km/h | 15522m | -5.8m/s | -58.5°C | 6.0% | 119.1hPa | 2.5V | 00:00:00 | 02:27:10 | 00:00:00 | |
| DG1MFX-10 | 2026-09-04 12:57:07 | 48.04190 | 12.52707 | 130° | 53km/h | 15522m | -5.9m/s | -58.6°C | 2.7% | 119.2hPa | 2.5V | 00:00:00 | 00:00:00 | 00:00:00 | |
| BAUMI2-15 | 2026-09-04 12:57:06 | 48.04214 | 12.52670 | 140° | 29km/h | 15538m | -5.5m/s | -58.7°C | 6.3% | 118.8hPa | 2.5V | 08:04:00 | 02:27:07 | 00:00:00 | |
| DK5PH-5 | 2026-09-04 12:57:04 | 48.04221 | 12.52662 | 140° | 35km/h | 15544m | -5.8m/s | -58.6°C | 6.3% | 118.7hPa | 2.6V | 00:00:00 | 02:27:06 | 00:00:00 | |
| DG1MJG | 2026-09-04 12:57:02 | 48.04227 | 12.52654 | 138° | 27km/h | 15550m | -5.7m/s | -58.7°C | 2.8% | 118.6hPa | 2.5V | 08:04:00 | 00:00:00 | 00:00:00 | |
| DL6DJ-15 | 2026-09-04 12:56:49 | 48.04233 | 12.52449 | 105° | 57km/h | 15641m | -5.8m/s | -58.3°C | 2.4% | 116.9hPa | 2.5V | 00:00:00 | 00:00:00 | 00:00:00 | |
| OE5MMP-10 | 2026-09-04 12:56:48 | 48.04230 | 12.52470 | 100° | 46km/h | 15636m | -5.2m/s | -58.2°C | 5.5% | 116.9hPa | 2.5V | 08:04:00 | 02:26:50 | 00:00:00 | |
| DG1MFX-10 | 2026-09-04 12:56:45 | 48.04243 | 12.52410 | 118° | 53km/h | 15652m | -5.2m/s | -58.4°C | 2.5% | 116.7hPa | 2.6V | 08:05:00 | 00:00:00 | 00:00:00 | |
| OE5DRO-10 | 2026-09-04 12:56:43 | 48.04256 | 12.52378 | 126° | 37km/h | 15664m | -5.5m/s | -58.5°C | 5.8% | 116.5hPa | 2.6V | 00:00:00 | 00:00:00 | 00:00:00 | |
| OE5WHR-10 | 2026-09-04 12:56:39 | 48.04280 | 12.52335 | 131° | 40km/h | 15686m | -5.7m/s | -58.7°C | 6.1% | 116.0hPa | 2.6V | 08:05:00 | 00:00:00 | 00:00:00 | |
| OE5MMP-10 | 2026-09-04 12:56:38 | 48.04284 | 12.52327 | 127° | 27km/h | 15692m | -5.5m/s | -58.7°C | 6.1% | 115.9hPa | 2.6V | 00:00:00 | 02:26:40 | 00:00:00 | |
| PG1ADW-2 | 2026-09-04 12:56:37 | 48.04287 | 12.52321 | 118° | 42km/h | 15698m | -5.7m/s | -58.7°C | 6.1% | 115.8hPa | 2.6V | 08:05:00 | 00:00:00 | 00:00:00 | |
| DK5PH-5 | 2026-09-04 12:56:34 | 48.04289 | 12.52299 | 78° | 44km/h | 15715m | -5.4m/s | 0°C | 0% | 0hPa | 2.6V | 00:00:00 | 02:26:36 | 00:00:00 | |
| BAUMI2-15 | 2026-09-04 12:56:32 | 48.04285 | 12.52281 | 69° | 40km/h | 15727m | -5.9m/s | -58.9°C | 6.1% | 115.3hPa | 2.6V | 00:00:00 | 02:26:34 | 00:00:00 | |
| OE5MMP-10 | 2026-09-04 12:56:28 | 48.04272 | 12.52224 | 76° | 53km/h | 15750m | -5.9m/s | -59.2°C | 5.9% | 114.8hPa | 2.6V | 00:00:00 | 02:26:30 | 00:00:00 | |
| OE5DRO-10 | 2026-09-04 12:56:24 | 48.04266 | 12.52141 | 94° | 40km/h | 15774m | -5.4m/s | -59.3°C | 5.9% | 114.4hPa | 2.6V | 08:05:00 | 00:00:00 | 00:00:00 | |
| DO7DH-14 | 2026-09-04 12:56:23 | 48.04268 | 12.52119 | 101° | 46km/h | 15779m | -5.9m/s | -59.3°C | 6.0% | 114.3hPa | 2.6V | 00:00:00 | 02:26:25 | 00:00:00 | |
| BAUMI2-15 | 2026-09-04 12:56:22 | 48.04271 | 12.52099 | 106° | 49km/h | 15785m | -5.5m/s | -59.4°C | 6.0% | 114.2hPa | 2.6V | 00:00:00 | 02:26:24 | 00:00:00 | |
| OE5MMP-10 | 2026-09-04 12:56:18 | 48.04293 | 12.52032 | 126° | 27km/h | 15808m | -5.6m/s | -59.5°C | 6.2% | 113.8hPa | 2.6V | 00:00:00 | 02:26:20 | 00:00:00 | |
| DL6DJ-15 | 2026-09-04 12:56:17 | 48.04304 | 12.52011 | 129° | 29km/h | 15819m | -6.1m/s | -59.6°C | 2.8% | 113.6hPa | 2.6V | 00:00:00 | 00:00:00 | 00:00:00 | |
| IN3HCDX | 2026-09-04 12:56:09 | 48.04308 | 12.51965 | 62° | 29km/h | 15854m | -5.2m/s | 0°C | 0% | 0hPa | 2.6V | 08:05:00 | 00:00:00 | 00:00:00 | |
| OE5MMP-10 | 2026-09-04 12:56:08 | 48.04300 | 12.51941 | 67° | 51km/h | 15865m | -5.6m/s | -59.8°C | 6.3% | 112.7hPa | 2.6V | 00:00:00 | 02:26:10 | 00:00:00 | |
| OE5DRO-10 | 2026-09-04 12:56:05 | 48.04290 | 12.51867 | 91° | 46km/h | 15888m | -5.6m/s | -60.1°C | 6.3% | 112.4hPa | 2.6V | 00:00:00 | 00:00:00 | 00:00:00 | |
| DK5PH-5 | 2026-09-04 12:56:04 | 48.04290 | 12.51867 | 91° | 40km/h | 15888m | -5.6m/s | 0°C | 0% | 0hPa | 2.6V | 00:00:00 | 02:26:06 | 00:00:00 | |
| DL6DJ-15 | 2026-09-04 12:55:46 | 48.04337 | 12.51652 | 62° | 33km/h | 15997m | -6.1m/s | -60.4°C | 2.7% | 110.4hPa | 2.6V | 00:00:00 | 00:00:00 | 00:00:00 | |
| DG1MFX-10 | 2026-09-04 12:55:44 | 48.04333 | 12.51640 | 66° | 37km/h | 16003m | -5.9m/s | -60.5°C | 2.7% | 110.3hPa | 2.6V | 08:06:00 | 00:00:00 | 00:00:00 | |
| OE5MMP-10 | 2026-09-04 12:55:38 | 48.04320 | 12.51537 | 97° | 40km/h | 16039m | -5.6m/s | -60.3°C | 6.0% | 109.6hPa | 2.6V | 00:00:00 | 02:25:40 | 00:00:00 | |
| OE5FHM-15 | 2026-09-04 12:55:37 | 48.04323 | 12.51517 | 103° | 27km/h | 16045m | -5.9m/s | -60.4°C | 6.0% | 109.5hPa | 2.6V | 00:00:00 | 02:25:39 | 00:00:00 | |
| OE5WHR-10 | 2026-09-04 12:55:36 | 48.04326 | 12.51498 | 109° | 37km/h | 16050m | -6.0m/s | -60.4°C | 6.1% | 109.4hPa | 2.6V | 00:00:00 | 00:00:00 | 00:00:00 | |
| PETON7-10 | 2026-09-04 12:55:35 | 48.04331 | 12.51481 | 116° | 33km/h | 16057m | -5.7m/s | -60.4°C | 6.1% | 109.3hPa | 2.6V | 00:00:00 | 00:00:00 | 00:00:00 | |
| DK5PH-5 | 2026-09-04 12:55:34 | 48.04337 | 12.51465 | 122° | 38km/h | 16063m | -6.4m/s | 0°C | 0% | 0hPa | 2.5V | 00:00:00 | 02:25:36 | 00:00:00 | |
| OE5HKT-10 | 2026-09-04 12:55:31 | 48.04354 | 12.51429 | 131° | 46km/h | 16081m | -5.6m/s | -60.6°C | 6.5% | 108.9hPa | 2.5V | 00:00:00 | 00:00:00 | 00:00:00 | |
| DG1MJG | 2026-09-04 12:55:30 | 48.04354 | 12.51429 | 132° | 31km/h | 16081m | -5.7m/s | -60.7°C | 2.7% | 108.9hPa | 2.5V | 08:06:00 | 00:00:00 | 00:00:00 | |
| OE5MMP-10 | 2026-09-04 12:55:28 | 48.04363 | 12.51409 | 102° | 29km/h | 16098m | -5.3m/s | -60.8°C | 6.7% | 108.6hPa | 2.5V | 00:00:00 | 02:25:30 | 00:00:00 | |
| DF7PN | 2026-09-04 12:55:26 | 48.04359 | 12.51390 | 61° | 22km/h | 16115m | -5.9m/s | -60.9°C | 2.8% | 108.3hPa | 2.5V | 00:00:00 | 00:00:00 | 00:00:00 | |
| OE5DXL-15 | 2026-09-04 12:55:24 | 48.04356 | 12.51382 | 60° | 46km/h | 16121m | -5.8m/s | -60.9°C | 6.7% | 108.2hPa | 2.5V | 00:00:00 | 00:00:00 | 00:00:00 | |
| DG1MFX-10 | 2026-09-04 12:55:23 | 48.04356 | 12.51382 | 61° | 27km/h | 16121m | -5.8m/s | -61.0°C | 2.8% | 108.2hPa | 2.5V | 08:06:00 | 00:00:00 | 00:00:00 | |
| PETON7-10 | 2026-09-04 12:55:19 | 48.04336 | 12.51316 | 71° | 53km/h | 16151m | -5.8m/s | -60.9°C | 6.3% | 107.6hPa | 2.5V | 00:00:00 | 00:00:00 | 00:00:00 | |
| OE5MMP-10 | 2026-09-04 12:55:18 | 48.04331 | 12.51298 | 73° | 58km/h | 16157m | -5.9m/s | -60.8°C | 6.2% | 107.6hPa | 2.5V | 08:06:00 | 02:25:20 | 00:00:00 | |
| PG1ADW-2 | 2026-09-04 12:55:17 | 48.04328 | 12.51278 | 76° | 46km/h | 16162m | -5.9m/s | -60.8°C | 6.1% | 107.4hPa | 2.5V | 00:00:00 | 00:00:00 | 00:00:00 | |
| DO7DH-14 | 2026-09-04 12:55:16 | 48.04324 | 12.51257 | 79° | 58km/h | 16168m | -6.2m/s | -60.8°C | 6.0% | 107.3hPa | 2.5V | 00:00:00 | 02:25:18 | 00:00:00 | |
| DL6DJ-15 | 2026-09-04 12:55:15 | 48.04320 | 12.51212 | 86° | 60km/h | 16181m | -6.3m/s | -60.8°C | 2.4% | 107.2hPa | 2.5V | 00:00:00 | 00:00:00 | 00:00:00 | |
| OE5DRO-10 | 2026-09-04 12:55:12 | 48.04324 | 12.51143 | 103° | 44km/h | 16200m | -6.4m/s | -60.8°C | 6.0% | 106.7hPa | 2.5V | 00:00:00 | 00:00:00 | 00:00:00 | |
| OE5MMP-10 | 2026-09-04 12:55:08 | 48.04338 | 12.51086 | 118° | 35km/h | 16218m | -6.3m/s | -60.8°C | 6.3% | 106.5hPa | 2.5V | 00:00:00 | 02:25:10 | 00:00:00 | |
| OE5FHM-15 | 2026-09-04 12:55:05 | 48.04351 | 12.51049 | 111° | 37km/h | 16237m | -6.1m/s | -61.0°C | 6.6% | 106.2hPa | 2.5V | 00:00:00 | 02:25:07 | 00:00:00 | |
| PETON7-10 | 2026-09-04 12:55:04 | 48.04353 | 12.51040 | 100° | 42km/h | 16243m | -5.7m/s | -61.1°C | 6.6% | 106.1hPa | 2.5V | 00:00:00 | 02:25:06 | 00:00:00 | |
| DG1MFX-10 | 2026-09-04 12:55:02 | 48.04353 | 12.51030 | 87° | 26km/h | 16249m | -6.3m/s | -61.3°C | 2.8% | 106.0hPa | 2.5V | 00:00:00 | 00:00:00 | 00:00:00 | |
| DG1MJG | 2026-09-04 12:55:00 | 48.04349 | 12.51009 | 70° | 33km/h | 16261m | -5.9m/s | -61.4°C | 2.7% | 105.8hPa | 2.5V | 08:07:00 | 00:00:00 | 00:00:00 | |
| OE5MMP-10 | 2026-09-04 12:54:58 | 48.04338 | 12.50965 | 70° | 60km/h | 16278m | -6.0m/s | -61.5°C | 6.5% | 105.5hPa | 2.5V | 00:00:00 | 02:25:00 | 00:00:00 | |
| PG1ADW-2 | 2026-09-04 12:54:57 | 48.04333 | 12.50947 | 73° | 57km/h | 16285m | -5.8m/s | -61.5°C | 6.4% | 105.3hPa | 2.5V | 00:00:00 | 02:24:59 | 00:00:00 | |
| OE5WHR-10 | 2026-09-04 12:54:54 | 48.04325 | 12.50882 | 85° | 51km/h | 16302m | -5.7m/s | -61.5°C | 6.5% | 105.1hPa | 2.5V | 00:00:00 | 02:24:56 | 00:00:00 | |
| OE5DRO-10 | 2026-09-04 12:54:53 | 48.04324 | 12.50858 | 90° | 53km/h | 16308m | -5.8m/s | -61.4°C | 6.5% | 105.0hPa | 2.5V | 00:00:00 | 00:00:00 | 00:00:00 | |
| OE5MMP-10 | 2026-09-04 12:54:48 | 48.04337 | 12.50737 | 108° | 55km/h | 16338m | -6.1m/s | -61.3°C | 6.2% | 104.4hPa | 2.5V | 00:00:00 | 02:24:50 | 00:00:00 | |
| DO7DH-14 | 2026-09-04 12:54:46 | 48.04349 | 12.50692 | 115° | 62km/h | 16350m | -6.5m/s | -61.2°C | 6.1% | 104.2hPa | 2.6V | 00:00:00 | 02:24:48 | 00:00:00 | |
| DL6DJ-15 | 2026-09-04 12:54:43 | 48.04371 | 12.50630 | 123° | 57km/h | 16370m | -6.2m/s | -61.2°C | 2.4% | 103.9hPa | 2.6V | 00:00:00 | 00:00:00 | 00:00:00 | |
| OE5MMP-10 | 2026-09-04 12:54:38 | 48.04403 | 12.50561 | 121° | 37km/h | 16400m | -5.8m/s | -61.3°C | 6.6% | 103.4hPa | 2.6V | 00:00:00 | 02:24:40 | 00:00:00 | |
| PG1ADW-2 | 2026-09-04 12:54:37 | 48.04407 | 12.50551 | 115° | 51km/h | 16406m | -5.3m/s | -61.3°C | 6.6% | 103.3hPa | 2.6V | 00:00:00 | 00:00:00 | 00:00:00 | |
| OE5DRO-10 | 2026-09-04 12:54:35 | 48.04411 | 12.50520 | 90° | 53km/h | 16424m | -6.4m/s | -61.4°C | 6.5% | 103.0hPa | 2.6V | 00:00:00 | 00:00:00 | 00:00:00 | |
| DB0UT-7 | 2026-09-04 12:54:33 | 48.04410 | 12.50508 | 84° | 47km/h | 16430m | -6.1m/s | -61.3°C | 6.4% | 102.9hPa | 2.6V | 00:00:00 | 02:24:35 | 00:00:00 | |
| DG1MJG | 2026-09-04 12:54:29 | 48.04405 | 12.50464 | 80° | 47km/h | 16449m | -6.1m/s | -61.3°C | 2.4% | 102.6hPa | 2.6V | 08:07:00 | 00:00:00 | 00:00:00 | |
| OE5MMP-10 | 2026-09-04 12:54:28 | 48.04401 | 12.50425 | 85° | 64km/h | 16462m | -6.3m/s | -61.3°C | 6.0% | 102.4hPa | 2.6V | 00:00:00 | 02:24:30 | 00:00:00 | |
| OE5DXL-15 | 2026-09-04 12:54:24 | 48.04405 | 12.50328 | 102° | 53km/h | 16487m | -6.2m/s | -61.3°C | 6.1% | 102.0hPa | 2.6V | 00:00:00 | 00:00:00 | 00:00:00 | |
| DF7PN | 2026-09-04 12:54:23 | 48.04409 | 12.50303 | 106° | 68km/h | 16493m | -6.2m/s | -61.3°C | 2.3% | 101.9hPa | 2.5V | 00:00:00 | 00:00:00 | 00:00:00 | |
| OE5MMP-10 | 2026-09-04 12:54:18 | 48.04442 | 12.50202 | 124° | 33km/h | 16524m | -6.5m/s | -61.2°C | 6.2% | 101.4hPa | 2.5V | 00:00:00 | 02:24:20 | 00:00:00 | |
| OE5DRO-10 | 2026-09-04 12:54:15 | 48.04456 | 12.50165 | 113° | 49km/h | 16542m | -5.8m/s | -61.0°C | 6.2% | 101.0hPa | 2.6V | 00:00:00 | 00:00:00 | 00:00:00 | |
| DL6DJ-15 | 2026-09-04 12:54:13 | 48.04459 | 12.50136 | 82° | 26km/h | 16560m | -6.0m/s | -60.9°C | 2.3% | 100.8hPa | 2.5V | 00:00:00 | 00:00:00 | 00:00:00 | |
| BAUMI2-15 | 2026-09-04 12:54:12 | 48.04459 | 12.50136 | 83° | 33km/h | 16561m | -5.9m/s | -60.9°C | 6.2% | 100.7hPa | 2.5V | 00:00:00 | 02:24:14 | 00:00:00 | |
| OE5MMP-10 | 2026-09-04 12:54:08 | 48.04451 | 12.50089 | 76° | 58km/h | 16586m | -6.3m/s | -61.1°C | 6.3% | 100.3hPa | 2.5V | 00:00:00 | 02:24:10 | 00:00:00 | |
| BAUMI2-15 | 2026-09-04 12:54:07 | 48.04449 | 12.50073 | 78° | 55km/h | 16592m | -5.8m/s | -61.2°C | 6.3% | 100.2hPa | 2.5V | 00:00:00 | 02:24:09 | 00:00:00 | |
| DB0UT-7 | 2026-09-04 12:54:03 | 48.04440 | 12.49992 | 83° | 69km/h | 16616m | -6.1m/s | -61.0°C | 6.1% | 99.8hPa | 2.5V | 00:00:00 | 00:00:00 | 00:00:00 | |
| BAUMI2-15 | 2026-09-04 12:54:02 | 48.04438 | 12.49969 | 84° | 68km/h | 16622m | -6.1m/s | -60.9°C | 6.1% | 99.8hPa | 2.5V | 00:00:00 | 02:24:04 | 00:00:00 | |
| DG1MJG | 2026-09-04 12:53:59 | 48.04435 | 12.49919 | 87° | 68km/h | 16635m | -6.6m/s | -60.8°C | 2.2% | 99.6hPa | 2.5V | 08:08:00 | 00:00:00 | 00:00:00 | |
| OE5MMP-10 | 2026-09-04 12:53:58 | 48.04434 | 12.49867 | 92° | 71km/h | 16648m | -6.6m/s | -60.5°C | 5.6% | 99.3hPa | 2.5V | 00:00:00 | 02:24:00 | 00:00:00 | |
| BAUMI2-15 | 2026-09-04 12:53:57 | 48.04435 | 12.49839 | 95° | 75km/h | 16655m | -6.9m/s | -60.5°C | 5.6% | 99.2hPa | 2.5V | 00:00:00 | 02:23:59 | 00:00:00 | |
| OE5DRO-10 | 2026-09-04 12:53:56 | 48.04437 | 12.49812 | 98° | 62km/h | 16662m | -6.6m/s | -60.4°C | 5.4% | 99.1hPa | 2.5V | 00:00:00 | 00:00:00 | 00:00:00 | |
| OE5DXL-15 | 2026-09-04 12:53:54 | 48.04445 | 12.49756 | 107° | 64km/h | 16675m | -6.3m/s | -60.2°C | 5.4% | 98.9hPa | 2.5V | 00:00:00 | 00:00:00 | 00:00:00 | |
| BAUMI2-15 | 2026-09-04 12:53:52 | 48.04458 | 12.49703 | 115° | 66km/h | 16688m | -6.6m/s | -60.0°C | 5.4% | 98.7hPa | 2.5V | 00:00:00 | 02:23:54 | 00:00:00 | |
| OE5WHR-10 | 2026-09-04 12:53:51 | 48.04467 | 12.49679 | 119° | 64km/h | 16695m | -5.9m/s | -60.0°C | 5.5% | 98.5hPa | 2.5V | 00:00:00 | 02:23:53 | 00:00:00 | |
| OE5MMP-10 | 2026-09-04 12:53:48 | 48.04492 | 12.49618 | 124° | 53km/h | 16714m | -6.0m/s | -60.0°C | 5.7% | 98.3hPa | 2.5V | 08:07:00 | 02:23:50 | 00:00:00 | |
| BAUMI2-15 | 2026-09-04 12:53:47 | 48.04499 | 12.49601 | 120° | 46km/h | 16720m | -6.3m/s | -60.2°C | 5.8% | 98.2hPa | 2.5V | 00:00:00 | 02:23:49 | 00:00:00 | |
| OE5FHM-15 | 2026-09-04 12:53:43 | 48.04509 | 12.49537 | 88° | 57km/h | 16744m | -6.5m/s | -60.6°C | 6.0% | 97.8hPa | 2.5V | 00:00:00 | 02:23:45 | 00:00:00 | |
| DL6DJ-15 | 2026-09-04 12:53:42 | 48.04507 | 12.49497 | 83° | 57km/h | 16757m | -6.5m/s | -60.7°C | 2.1% | 97.7hPa | 2.5V | 00:00:00 | 00:00:00 | 00:00:00 | |
| OE5MMP-10 | 2026-09-04 12:53:38 | 48.04503 | 12.49422 | 90° | 75km/h | 16777m | -6.6m/s | -60.8°C | 6.0% | 97.3hPa | 2.5V | 00:00:00 | 02:23:40 | 00:00:00 | |
| PG1ADW-2 | 2026-09-04 12:53:37 | 48.04504 | 12.49394 | 94° | 57km/h | 16784m | -6.1m/s | -60.8°C | 5.9% | 97.2hPa | 2.5V | 08:08:00 | 02:23:39 | 00:00:00 | |
| BAUMI2-15 | 2026-09-04 12:53:32 | 48.04529 | 12.49251 | 117° | 69km/h | 16815m | -6.4m/s | -60.0°C | 5.5% | 96.7hPa | 2.6V | 08:08:00 | 02:23:34 | 00:00:00 | |
| OE5WHR-10 | 2026-09-04 12:53:30 | 48.04547 | 12.49205 | 124° | 53km/h | 16827m | -6.2m/s | -59.8°C | 5.5% | 96.5hPa | 2.5V | 08:08:00 | 00:00:00 | 00:00:00 | |
| OE5MMP-10 | 2026-09-04 12:53:28 | 48.04565 | 12.49167 | 129° | 42km/h | 16840m | -6.4m/s | -59.6°C | 5.4% | 96.3hPa | 2.5V | 00:00:00 | 02:23:30 | 00:00:00 | |
| BAUMI2-15 | 2026-09-04 12:53:27 | 48.04574 | 12.49151 | 132° | 46km/h | 16847m | -6.9m/s | -59.5°C | 5.5% | 96.2hPa | 2.5V | 00:00:00 | 02:23:29 | 00:00:00 | |
| OE5DXL-15 | 2026-09-04 12:53:24 | 48.04598 | 12.49111 | 130° | 53km/h | 16868m | -7.0m/s | -59.4°C | 5.6% | 95.9hPa | 2.5V | 00:00:00 | 00:00:00 | 00:00:00 | |
| BAUMI2-15 | 2026-09-04 12:53:22 | 48.04608 | 12.49088 | 116° | 38km/h | 16881m | -6.6m/s | -59.4°C | 5.6% | 95.6hPa | 2.5V | 00:00:00 | 02:23:24 | 00:00:00 | |
| OE5MMP-10 | 2026-09-04 12:53:18 | 48.04612 | 12.49033 | 86° | 66km/h | 16905m | -6.0m/s | -59.4°C | 5.4% | 95.3hPa | 2.5V | 00:00:00 | 02:23:20 | 00:00:00 | |
| PG1ADW-2 | 2026-09-04 12:53:17 | 48.04611 | 12.49015 | 86° | 60km/h | 16912m | -6.5m/s | -59.4°C | 5.4% | 95.2hPa | 2.5V | 00:00:00 | 00:00:00 | 00:00:00 | |
| OE5FHM-15 | 2026-09-04 12:53:12 | 48.04616 | 12.48896 | 104° | 62km/h | 16945m | -6.6m/s | -58.7°C | 4.9% | 94.7hPa | 2.5V | 00:00:00 | 02:23:14 | 00:00:00 | |
| DL6DJ-15 | 2026-09-04 12:53:10 | 48.04628 | 12.48843 | 114° | 75km/h | 16958m | -6.2m/s | -58.7°C | 1.6% | 94.5hPa | 2.5V | 00:00:00 | 00:00:00 | 00:00:00 | |
| OE5WHR-10 | 2026-09-04 12:53:09 | 48.04637 | 12.48818 | 120° | 57km/h | 16964m | -6.2m/s | -58.5°C | 4.9% | 94.4hPa | 2.5V | 00:00:00 | 00:00:00 | 00:00:00 | |
| OE5MMP-10 | 2026-09-04 12:53:08 | 48.04647 | 12.48793 | 124° | 55km/h | 16970m | -6.6m/s | -58.5°C | 4.9% | 94.3hPa | 2.5V | 00:00:00 | 02:23:10 | 00:00:00 | |
| BAUMI2-15 | 2026-09-04 12:53:07 | 48.04658 | 12.48771 | 129° | 64km/h | 16977m | -6.5m/s | -58.5°C | 5.0% | 94.2hPa | 2.5V | 00:00:00 | 02:23:09 | 00:00:00 | |
| DB0UT-7 | 2026-09-04 12:53:06 | 48.04670 | 12.48750 | 133° | 57km/h | 16983m | -6.4m/s | -58.4°C | 5.0% | 94.1hPa | 2.5V | 00:00:00 | 02:23:08 | 00:00:00 | |
| DF7PN | 2026-09-04 12:52:50 | 48.04761 | 12.48381 | 117° | 73km/h | 17113m | -6.4m/s | -58.2°C | 1.5% | 92.2hPa | 2.6V | 00:00:00 | 00:00:00 | 00:00:00 | |
| OE5WHR-10 | 2026-09-04 12:52:48 | 48.04746 | 12.48432 | 108° | 57km/h | 17101m | -6.0m/s | -58.0°C | 4.8% | 92.3hPa | 2.6V | 00:00:00 | 02:22:50 | 00:00:00 | |
| BAUMI2-15 | 2026-09-04 12:52:47 | 48.04752 | 12.48406 | 114° | 71km/h | 17107m | -5.8m/s | -58.2°C | 4.8% | 92.2hPa | 2.6V | 08:08:00 | 02:22:49 | 00:00:00 | |
| OE5FHM-15 | 2026-09-04 12:52:42 | 48.04801 | 12.48295 | 132° | 55km/h | 17140m | -6.9m/s | -58.0°C | 4.9% | 91.8hPa | 2.5V | 00:00:00 | 02:22:44 | 00:00:00 | |
| OE5DRO-10 | 2026-09-04 12:52:40 | 48.04823 | 12.48262 | 138° | 55km/h | 17154m | -6.9m/s | -57.9°C | 5.0% | 91.5hPa | 2.5V | 00:00:00 | 00:00:00 | 00:00:00 | |
| DL6DJ-15 | 2026-09-04 12:52:39 | 48.04834 | 12.48249 | 139° | 51km/h | 17161m | -7.3m/s | -57.8°C | 1.6% | 91.5hPa | 2.5V | 00:00:00 | 00:00:00 | 00:00:00 | |
| OE5MMP-10 | 2026-09-04 12:52:38 | 48.04843 | 12.48236 | 141° | 46km/h | 17168m | -7.1m/s | -57.5°C | 4.9% | 91.3hPa | 2.5V | 00:00:00 | 02:22:40 | 00:00:00 | |
| BAUMI2-15 | 2026-09-04 12:52:37 | 48.04851 | 12.48226 | 140° | 37km/h | 17175m | -6.4m/s | -57.3°C | 4.8% | 91.2hPa | 2.5V | 00:00:00 | 02:22:39 | 00:00:00 | |
| DB0UT-7 | 2026-09-04 12:52:36 | 48.04858 | 12.48216 | 132° | 44km/h | 17182m | -6.9m/s | -57.1°C | 4.8% | 91.1hPa | 2.5V | 00:00:00 | 00:00:00 | 00:00:00 | |
| BAUMI2-15 | 2026-09-04 12:52:32 | 48.04869 | 12.48165 | 96° | 58km/h | 17207m | -5.9m/s | -57.6°C | 4.9% | 90.8hPa | 2.5V | 00:00:00 | 02:22:34 | 00:00:00 | |
| OE5DXL-15 | 2026-09-04 12:52:24 | 48.04915 | 12.47986 | 131° | 44km/h | 17258m | -5.8m/s | -57.3°C | 4.8% | 90.1hPa | 2.6V | 00:00:00 | 00:00:00 | 00:00:00 | |
| BAUMI2-15 | 2026-09-04 12:52:22 | 48.04940 | 12.47949 | 139° | 60km/h | 17271m | -6.5m/s | -57.1°C | 4.8% | 89.9hPa | 2.6V | 00:00:00 | 02:22:24 | 00:00:00 | |
| OE5DRO-10 | 2026-09-04 12:52:21 | 48.04953 | 12.47934 | 144° | 40km/h | 17277m | -6.4m/s | -56.9°C | 4.7% | 89.8hPa | 2.6V | 00:00:00 | 00:00:00 | 00:00:00 | |
| OE5MMP-10 | 2026-09-04 12:52:18 | 48.04990 | 12.47899 | 153° | 27km/h | 17297m | -6.4m/s | -56.3°C | 4.5% | 89.5hPa | 2.5V | 08:09:00 | 02:22:20 | 00:00:00 | |
| PG1ADW-2 | 2026-09-04 12:52:17 | 48.05001 | 12.47890 | 156° | 38km/h | 17304m | -6.9m/s | -56.2°C | 4.5% | 89.4hPa | 2.6V | 00:00:00 | 02:22:19 | 00:00:00 | |
| OE5FHM-15 | 2026-09-04 12:52:12 | 48.05033 | 12.47867 | 133° | 33km/h | 17337m | -6.6m/s | -55.9°C | 4.3% | 88.9hPa | 2.6V | 00:00:00 | 02:22:14 | 00:00:00 | |
| PETON7-10 | 2026-09-04 12:52:09 | 48.05037 | 12.47849 | 92° | 37km/h | 17357m | -7.1m/s | -55.8°C | 4.1% | 88.6hPa | 2.6V | 00:00:00 | 00:00:00 | 00:00:00 | |
| OE5MMP-10 | 2026-09-04 12:52:08 | 48.05037 | 12.47838 | 89° | 49km/h | 17364m | -6.6m/s | -55.8°C | 4.1% | 88.5hPa | 2.5V | 00:00:00 | 02:22:10 | 00:00:00 | |
| OE5WHR-10 | 2026-09-04 12:52:06 | 48.05038 | 12.47812 | 98° | 35km/h | 17378m | -6.5m/s | -56.0°C | 4.2% | 88.3hPa | 2.5V | 00:00:00 | 00:00:00 | 00:00:00 | |
| OE5DRO-10 | 2026-09-04 12:52:02 | 48.05073 | 12.47704 | 134° | 44km/h | 17419m | -6.9m/s | -56.2°C | 4.3% | 87.8hPa | 2.5V | 00:00:00 | 00:00:00 | 00:00:00 | |
| OE5MMP-10 | 2026-09-04 12:51:58 | 48.05094 | 12.47678 | 146° | 27km/h | 17432m | -6.4m/s | -56.3°C | 4.3% | 87.6hPa | 2.5V | 00:00:00 | 02:22:00 | 00:00:00 | |
| DG1MJG | 2026-09-04 12:51:57 | 48.05104 | 12.47668 | 151° | 44km/h | 17439m | -6.6m/s | -56.4°C | 1.3% | 87.6hPa | 2.5V | 08:09:00 | 00:00:00 | 00:00:00 | |
| OE5DXL-15 | 2026-09-04 12:51:54 | 48.05129 | 12.47653 | 164° | 27km/h | 17459m | -6.8m/s | -56.3°C | 4.5% | 87.3hPa | 2.5V | 00:00:00 | 00:00:00 | 00:00:00 | |
| PETON7-10 | 2026-09-04 12:51:51 | 48.05144 | 12.47647 | 164° | 29km/h | 17479m | -6.9m/s | -56.2°C | 4.5% | 87.0hPa | 2.5V | 00:00:00 | 00:00:00 | 00:00:00 | |
| OE5MMP-10 | 2026-09-04 12:51:48 | 48.05149 | 12.47641 | 81° | 29km/h | 17499m | -6.9m/s | -56.2°C | 4.4% | 86.7hPa | 2.5V | 00:00:00 | 02:21:50 | 00:00:00 | |
| DG1MFX-10 | 2026-09-04 12:51:46 | 48.05148 | 12.47638 | 63° | 11km/h | 17506m | -7.1m/s | -56.3°C | 1.4% | 86.6hPa | 2.5V | 08:10:00 | 00:00:00 | 00:00:00 | |
| OE5WHR-10 | 2026-09-04 12:51:45 | 48.05143 | 12.47627 | 57° | 31km/h | 17520m | -6.9m/s | -56.2°C | 4.2% | 86.4hPa | 2.5V | 00:00:00 | 02:21:47 | 00:00:00 | |
| OE5FHM-15 | 2026-09-04 12:51:41 | 48.05130 | 12.47582 | 76° | 40km/h | 17549m | -6.9m/s | -56.3°C | 4.1% | 86.0hPa | 2.5V | 00:00:00 | 02:21:43 | 00:00:00 | |
| OE5MMP-10 | 2026-09-04 12:51:38 | 48.05128 | 12.47528 | 97° | 35km/h | 17571m | -6.8m/s | -56.2°C | 4.1% | 85.7hPa | 2.5V | 00:00:00 | 02:21:40 | 00:00:00 | |
| PG1ADW-2 | 2026-09-04 12:51:37 | 48.05130 | 12.47509 | 106° | 33km/h | 17578m | -7.6m/s | -56.3°C | 4.1% | 85.6hPa | 2.5V | 00:00:00 | 00:00:00 | 00:00:00 | |
| PETON7-10 | 2026-09-04 12:51:36 | 48.05134 | 12.47492 | 113° | 26km/h | 17586m | -6.8m/s | -56.3°C | 4.2% | 85.5hPa | 2.6V | 00:00:00 | 02:21:38 | 00:00:00 | |
| OE5DRO-10 | 2026-09-04 12:51:35 | 48.05146 | 12.47463 | 132° | 33km/h | 17599m | -6.7m/s | -56.5°C | 4.4% | 85.4hPa | 2.6V | 00:00:00 | 00:00:00 | 00:00:00 | |
| OE5MMP-10 | 2026-09-04 12:51:28 | 48.05170 | 12.47433 | 77° | 33km/h | 17642m | -7.5m/s | -56.6°C | 4.6% | 84.8hPa | 2.6V | 00:00:00 | 02:21:30 | 00:00:00 | |
| DG1MFX-10 | 2026-09-04 12:51:25 | 48.05166 | 12.47426 | 47° | 18km/h | 17656m | -7.6m/s | -56.7°C | 1.4% | 84.6hPa | 2.6V | 08:10:00 | 00:00:00 | 00:00:00 | |
| OE5WHR-10 | 2026-09-04 12:51:24 | 48.05158 | 12.47411 | 56° | 42km/h | 17671m | -6.5m/s | -56.8°C | 4.5% | 84.4hPa | 2.6V | 00:00:00 | 00:00:00 | 00:00:00 | |
| PETON7-10 | 2026-09-04 12:51:21 | 48.05147 | 12.47370 | 78° | 42km/h | 17692m | -7.2m/s | -56.9°C | 4.5% | 84.1hPa | 2.5V | 08:10:00 | 00:00:00 | 00:00:00 | |
| DO3MHA-11 | 2026-09-04 12:51:20 | 48.05145 | 12.47352 | 85° | 46km/h | 17699m | -7.0m/s | -56.8°C | 4.4% | 84.0hPa | 2.5V | 00:00:00 | 02:21:22 | 00:00:00 | |
| OE5MMP-10 | 2026-09-04 12:51:18 | 48.05145 | 12.47313 | 96° | 51km/h | 17713m | -7.5m/s | -56.5°C | 4.2% | 83.8hPa | 2.5V | 00:00:00 | 02:21:20 | 00:00:00 | |
| DB0UT-7 | 2026-09-04 12:51:17 | 48.05146 | 12.47292 | 101° | 33km/h | 17721m | -7.2m/s | -56.4°C | 4.2% | 83.7hPa | 2.6V | 00:00:00 | 02:21:19 | 00:00:00 | |
| OE5DRO-10 | 2026-09-04 12:51:16 | 48.05150 | 12.47272 | 108° | 35km/h | 17728m | -8.0m/s | -56.3°C | 4.1% | 83.6hPa | 2.6V | 00:00:00 | 00:00:00 | 00:00:00 | |
| OE5FHM-15 | 2026-09-04 12:51:11 | 48.05186 | 12.47187 | 139° | 33km/h | 17767m | -6.9m/s | -56.3°C | 4.3% | 83.1hPa | 2.6V | 00:00:00 | 02:21:13 | 00:00:00 | |
| OE5MMP-10 | 2026-09-04 12:51:08 | 48.05210 | 12.47162 | 154° | 20km/h | 17789m | -7.1m/s | -56.5°C | 4.5% | 82.8hPa | 2.6V | 00:00:00 | 02:21:10 | 00:00:00 | |
| DL6DJ-15 | 2026-09-04 12:51:06 | 48.05221 | 12.47154 | 156° | 18km/h | 17803m | -7.4m/s | -56.7°C | 1.4% | 82.7hPa | 2.6V | 00:00:00 | 00:00:00 | 00:00:00 | |
| OE5WHR-10 | 2026-09-04 12:51:04 | 48.05227 | 12.47146 | 82° | 37km/h | 17827m | -8.1m/s | -56.5°C | 4.4% | 82.3hPa | 2.6V | 00:00:00 | 00:00:00 | 00:00:00 | |
| OE5MMP-10 | 2026-09-04 12:50:58 | 48.05211 | 12.47106 | 65° | 51km/h | 17867m | -7.2m/s | -56.7°C | 4.4% | 81.8hPa | 2.6V | 00:00:00 | 02:21:00 | 00:00:00 | |
| PG1ADW-2 | 2026-09-04 12:50:57 | 48.05207 | 12.47091 | 74° | 37km/h | 17875m | -8.0m/s | -56.7°C | 4.3% | 81.7hPa | 2.6V | 00:00:00 | 02:20:59 | 00:00:00 | |
| DG1MJG | 2026-09-04 12:50:55 | 48.05204 | 12.47073 | 81° | 51km/h | 17883m | -7.5m/s | -56.7°C | 1.3% | 81.6hPa | 2.6V | 08:11:00 | 00:00:00 | 00:00:00 | |
| OE5DXL-15 | 2026-09-04 12:50:54 | 48.05203 | 12.47032 | 97° | 40km/h | 17897m | -7.9m/s | -56.6°C | 4.3% | 81.4hPa | 2.6V | 00:00:00 | 00:00:00 | 00:00:00 | |
| OE5MMP-10 | 2026-09-04 12:50:48 | 48.05240 | 12.46930 | 142° | 24km/h | 17944m | -8.4m/s | -56.5°C | 4.4% | 80.8hPa | 2.6V | 08:10:00 | 02:20:50 | 00:00:00 | |
| DG1MFX-10 | 2026-09-04 12:50:44 | 48.05263 | 12.46911 | 160° | 24km/h | 17968m | -8.4m/s | -56.5°C | 1.4% | 80.5hPa | 2.6V | 08:11:00 | 00:00:00 | 00:00:00 | |
| OE5WHR-10 | 2026-09-04 12:50:42 | 48.05271 | 12.46904 | 88° | 37km/h | 17992m | -7.6m/s | -56.2°C | 4.5% | 80.2hPa | 2.6V | 00:00:00 | 02:20:44 | 00:00:00 | |
| OE5FHM-15 | 2026-09-04 12:50:41 | 48.05270 | 12.46901 | 58° | 38km/h | 17999m | -7.6m/s | -56.2°C | 4.5% | 80.1hPa | 2.6V | 00:00:00 | 02:20:43 | 00:00:00 | |
| OE5MMP-10 | 2026-09-04 12:50:38 | 48.05261 | 12.46878 | 64° | 51km/h | 18023m | -7.7m/s | -56.3°C | 4.4% | 79.8hPa | 2.6V | 00:00:00 | 02:20:40 | 00:00:00 | |
| PG1ADW-2 | 2026-09-04 12:50:37 | 48.05257 | 12.46865 | 72° | 38km/h | 18030m | -8.1m/s | -56.3°C | 4.3% | 79.7hPa | 2.6V | 08:11:00 | 00:00:00 | 00:00:00 | |
| DL6DJ-15 | 2026-09-04 12:50:35 | 48.05253 | 12.46832 | 85° | 49km/h | 18046m | -7.3m/s | -56.1°C | 1.2% | 79.5hPa | 2.5V | 00:00:00 | 00:00:00 | 00:00:00 | |
| DO3MHA-11 | 2026-09-04 12:50:28 | 48.05287 | 12.46701 | 137° | 26km/h | 18101m | -8.0m/s | -55.6°C | 4.1% | 78.8hPa | 2.5V | 00:00:00 | 02:20:30 | 00:00:00 | |
| OE5DXL-15 | 2026-09-04 12:50:24 | 48.05316 | 12.46671 | 153° | 35km/h | 18133m | -7.6m/s | -55.8°C | 4.3% | 78.4hPa | 2.5V | 00:00:00 | 00:00:00 | 00:00:00 | |
| OE5WHR-10 | 2026-09-04 12:50:21 | 48.05319 | 12.46661 | 56° | 40km/h | 18156m | -8.2m/s | -55.8°C | 4.2% | 78.2hPa | 2.5V | 08:11:00 | 00:00:00 | 00:00:00 | |
| OE5DRO-10 | 2026-09-04 12:50:19 | 48.05312 | 12.46649 | 54° | 42km/h | 18173m | -9.0m/s | -55.8°C | 4.1% | 77.9hPa | 2.6V | 08:11:00 | 00:00:00 | 00:00:00 | |
| OE5MMP-10 | 2026-09-04 12:50:18 | 48.05308 | 12.46639 | 60° | 51km/h | 18182m | -8.6m/s | -55.9°C | 4.1% | 77.8hPa | 2.5V | 00:00:00 | 02:20:20 | 00:00:00 | |
| PG1ADW-2 | 2026-09-04 12:50:17 | 48.05303 | 12.46627 | 65° | 40km/h | 18190m | -7.7m/s | -55.9°C | 4.1% | 77.7hPa | 2.6V | 00:00:00 | 00:00:00 | 00:00:00 | |
| DF7PN | 2026-09-04 12:50:15 | 48.05297 | 12.46594 | 80° | 49km/h | 18206m | -7.9m/s | -56.1°C | -1.0% | 77.5hPa | 2.6V | 00:00:00 | 00:00:00 | 00:00:00 | |
| BAUMI2-15 | 2026-09-04 12:50:12 | 48.05299 | 12.46532 | 104° | 57km/h | 18229m | -7.2m/s | -56.1°C | 4.2% | 77.3hPa | 2.6V | 00:00:00 | 02:20:14 | 00:00:00 | |
| OE5FHM-15 | 2026-09-04 12:50:11 | 48.05303 | 12.46512 | 112° | 40km/h | 18237m | -8.3m/s | -56.1°C | 4.2% | 77.1hPa | 2.6V | 00:00:00 | 02:20:13 | 00:00:00 | |
| OE5MMP-10 | 2026-09-04 12:50:08 | 48.05325 | 12.46457 | 130° | 29km/h | 18261m | -8.5m/s | -56.0°C | 4.2% | 76.8hPa | 2.6V | 00:00:00 | 02:20:10 | 00:00:00 | |
| BAUMI2-15 | 2026-09-04 12:50:07 | 48.05334 | 12.46442 | 136° | 38km/h | 18270m | -8.3m/s | -56.0°C | 4.3% | 76.7hPa | 2.6V | 00:00:00 | 02:20:09 | 00:00:00 | |
| DL6DJ-15 | 2026-09-04 12:50:04 | 48.05360 | 12.46415 | 156° | 33km/h | 18293m | -8.1m/s | -56.2°C | 1.3% | 76.5hPa | 2.6V | 00:00:00 | 00:00:00 | 00:00:00 | |
| DG1MFX-10 | 2026-09-04 12:50:03 | 48.05360 | 12.46415 | 157° | 33km/h | 18294m | -8.1m/s | -56.2°C | 1.3% | 76.5hPa | 2.6V | 08:12:00 | 00:00:00 | 00:00:00 | |
| BAUMI2-15 | 2026-09-04 12:50:02 | 48.05372 | 12.46409 | 170° | 13km/h | 18310m | -7.8m/s | -56.2°C | 4.5% | 76.2hPa | 2.6V | 08:11:00 | 02:20:04 | 00:00:00 | |
| OE5WHR-10 | 2026-09-04 12:50:00 | 48.05377 | 12.46407 | 109° | 37km/h | 18327m | -8.7m/s | -56.2°C | 4.4% | 76.0hPa | 2.5V | 00:00:00 | 00:00:00 | 00:00:00 | |
| OE5MMP-10 | 2026-09-04 12:49:58 | 48.05375 | 12.46399 | 55° | 46km/h | 18343m | -7.9m/s | -56.2°C | 4.4% | 75.8hPa | 2.5V | 00:00:00 | 02:20:00 | 00:00:00 | |
| PG1ADW-2 | 2026-09-04 12:49:57 | 48.05371 | 12.46391 | 59° | 37km/h | 18351m | -7.8m/s | -56.2°C | 4.3% | 75.7hPa | 2.5V | 00:00:00 | 00:00:00 | 00:00:00 | |
| DO3MHA-11 | 2026-09-04 12:49:54 | 48.05361 | 12.46349 | 80° | 49km/h | 18375m | -7.7m/s | -56.2°C | 4.2% | 75.5hPa | 2.5V | 00:00:00 | 02:19:56 | 00:00:00 | |
| DH7VM-15 | 2026-09-04 12:49:53 | 48.05361 | 12.46349 | 81° | 49km/h | 18375m | -7.7m/s | -56.3°C | 1.2% | 75.5hPa | 2.5V | 00:00:00 | 00:00:00 | 00:00:00 | |
| BAUMI2-15 | 2026-09-04 12:49:52 | 48.05361 | 12.46310 | 97° | 55km/h | 18392m | -8.7m/s | -56.2°C | 4.2% | 75.3hPa | 2.5V | 00:00:00 | 02:19:54 | 00:00:00 | |
| OE5HKT-10 | 2026-09-04 12:49:51 | 48.05363 | 12.46289 | 104° | 51km/h | 18400m | -8.0m/s | -56.1°C | 4.1% | 75.1hPa | 2.5V | 00:00:00 | 00:00:00 | 00:00:00 | |
| OE5MMP-10 | 2026-09-04 12:49:48 | 48.05381 | 12.46234 | 130° | 29km/h | 18425m | -8.0m/s | -56.1°C | 4.2% | 74.8hPa | 2.5V | 00:00:00 | 02:19:50 | 00:00:00 | |
| BAUMI2-15 | 2026-09-04 12:49:47 | 48.05390 | 12.46220 | 138° | 37km/h | 18433m | -7.9m/s | -56.0°C | 4.3% | 74.8hPa | 2.5V | 00:00:00 | 02:19:49 | 00:00:00 | |
| DF7PN | 2026-09-04 12:49:44 | 48.05423 | 12.46193 | 168° | 26km/h | 18465m | -7.6m/s | -55.6°C | -1.0% | -1.0hPa | 2.6V | 00:00:00 | 00:00:00 | 00:00:00 | |
| BAUMI2-15 | 2026-09-04 12:49:42 | 48.05429 | 12.46192 | 173° | 11km/h | 18473m | -8.4m/s | -55.6°C | 4.3% | 74.3hPa | 2.6V | 00:00:00 | 02:19:44 | 00:00:00 | |
| OE5FHM-15 | 2026-09-04 12:49:41 | 48.05433 | 12.46191 | 173° | 31km/h | 18482m | -8.1m/s | -55.6°C | 4.3% | 74.2hPa | 2.6V | 08:12:00 | 02:19:43 | 00:00:00 | |
| OE5WHR-10 | 2026-09-04 12:49:39 | 48.05435 | 12.46188 | 70° | 35km/h | 18497m | -7.8m/s | -55.7°C | 4.3% | 74.0hPa | 2.5V | 00:00:00 | 02:19:41 | 00:00:00 | |
| OE5MMP-10 | 2026-09-04 12:49:38 | 48.05434 | 12.46185 | 54° | 40km/h | 18505m | -7.7m/s | -55.7°C | 4.2% | 73.9hPa | 2.5V | 00:00:00 | 02:19:40 | 00:00:00 | |
| PG1ADW-2 | 2026-09-04 12:49:37 | 48.05431 | 12.46180 | 53° | 37km/h | 18513m | -7.2m/s | -55.8°C | 4.2% | 73.8hPa | 2.5V | 00:00:00 | 02:19:39 | 00:00:00 | |
| DO3MHA-11 | 2026-09-04 12:49:34 | 48.05420 | 12.46149 | 70° | 49km/h | 18537m | -8.3m/s | -56.1°C | 4.2% | 73.6hPa | 2.6V | 08:12:00 | 02:19:36 | 00:00:00 | |
| DL6DJ-15 | 2026-09-04 12:49:33 | 48.05415 | 12.46116 | 84° | 49km/h | 18553m | -8.5m/s | -56.0°C | 1.2% | 73.4hPa | 2.5V | 00:00:00 | 00:00:00 | 00:00:00 | |
| BAUMI2-15 | 2026-09-04 12:49:32 | 48.05414 | 12.46116 | 85° | 53km/h | 18554m | -8.4m/s | -55.9°C | 4.1% | 73.3hPa | 2.5V | 00:00:00 | 02:19:34 | 00:00:00 | |
| DB0UT-7 | 2026-09-04 12:49:30 | 48.05420 | 12.46057 | 111° | 38km/h | 18578m | -7.8m/s | -55.7°C | 4.0% | 73.1hPa | 2.6V | 08:12:00 | 00:00:00 | 00:00:00 | |
| OE5MMP-10 | 2026-09-04 12:49:28 | 48.05425 | 12.46038 | 120° | 35km/h | 18586m | -7.7m/s | -55.7°C | 4.1% | 73.0hPa | 2.6V | 00:00:00 | 02:19:30 | 00:00:00 | |
| BAUMI2-15 | 2026-09-04 12:49:27 | 48.05433 | 12.46022 | 129° | 44km/h | 18594m | -7.5m/s | -55.7°C | 4.1% | 72.9hPa | 2.6V | 00:00:00 | 02:19:29 | 00:00:00 | |
| OE5DXL-15 | 2026-09-04 12:49:24 | 48.05460 | 12.45989 | 153° | 27km/h | 18617m | -8.0m/s | -55.7°C | 4.3% | 72.6hPa | 2.6V | 00:00:00 | 00:00:00 | 00:00:00 | |
| BAUMI2-15 | 2026-09-04 12:49:22 | 48.05476 | 12.45980 | 169° | 15km/h | 18633m | -8.4m/s | -55.7°C | 4.3% | 72.4hPa | 2.6V | 00:00:00 | 02:19:24 | 00:00:00 | |
| DG1MFX-10 | 2026-09-04 12:49:21 | 48.05476 | 12.45980 | 170° | 27km/h | 18633m | -8.5m/s | -55.8°C | 1.3% | 72.5hPa | 2.6V | 08:12:00 | 00:00:00 | 00:00:00 | |
| OE5REO-15 | 2026-09-04 12:49:20 | 48.05486 | 12.45979 | 190° | 13km/h | 18649m | -7.8m/s | -55.7°C | 1.2% | 72.3hPa | 2.6V | 00:00:00 | 00:00:00 | 00:00:00 | |
| OE8JPQ-2 | 2026-09-04 12:49:19 | 48.05488 | 12.45980 | 211° | 20km/h | 18657m | -8.0m/s | -55.7°C | 4.3% | 72.1hPa | 2.6V | 00:00:00 | 00:00:00 | 00:00:00 | |
| PG1ADW-2 | 2026-09-04 12:49:18 | 48.05488 | 12.45981 | 11° | 31km/h | 18674m | -8.4m/s | -55.6°C | 4.2% | 72.0hPa | 2.5V | 00:00:00 | 00:00:00 | 00:00:00 | |
| BAUMI2-15 | 2026-09-04 12:49:12 | 48.05469 | 12.45944 | 74° | 47km/h | 18715m | -8.1m/s | -55.8°C | 4.0% | 71.5hPa | 2.5V | 00:00:00 | 02:19:14 | 00:00:00 | |
| OE5FHM-15 | 2026-09-04 12:49:11 | 48.05467 | 12.45928 | 84° | 37km/h | 18723m | -7.8m/s | -55.8°C | 4.0% | 71.4hPa | 2.5V | 00:00:00 | 02:19:13 | 00:00:00 | |
| OE5MMP-10 | 2026-09-04 12:49:08 | 48.05472 | 12.45873 | 113° | 33km/h | 18747m | -8.6m/s | -55.7°C | 4.0% | 71.1hPa | 2.5V | 00:00:00 | 02:19:10 | 00:00:00 | |
| BAUMI2-15 | 2026-09-04 12:49:07 | 48.05478 | 12.45856 | 121° | 44km/h | 18755m | -8.2m/s | -55.6°C | 4.0% | 71.0hPa | 2.5V | 00:00:00 | 02:19:09 | 00:00:00 | |
| BAUMI2-15 | 2026-09-04 12:49:02 | 48.05516 | 12.45804 | 160° | 13km/h | 18798m | -7.0m/s | -55.8°C | 4.3% | 70.6hPa | 2.5V | 00:00:00 | 02:19:04 | 00:00:00 | |
| DG1MFX-10 | 2026-09-04 12:49:01 | 48.05516 | 12.45804 | 161° | 27km/h | 18798m | -7.1m/s | -55.8°C | 1.3% | 70.6hPa | 2.6V | 08:13:00 | 00:00:00 | 00:00:00 | |
| DB0UT-7 | 2026-09-04 12:48:59 | 48.05526 | 12.45799 | 101° | 27km/h | 18822m | -8.5m/s | -56.1°C | 4.4% | 70.3hPa | 2.6V | 00:00:00 | 02:19:01 | 00:00:00 | |
| OE5MMP-10 | 2026-09-04 12:48:58 | 48.05525 | 12.45798 | 42° | 37km/h | 18830m | -8.7m/s | -56.1°C | 4.4% | 70.2hPa | 2.6V | 00:00:00 | 02:19:00 | 00:00:00 | |
| OE5WHR-10 | 2026-09-04 12:48:57 | 48.05523 | 12.45795 | 38° | 33km/h | 18839m | -8.4m/s | -56.1°C | 4.4% | 70.1hPa | 2.6V | 00:00:00 | 00:00:00 | 00:00:00 | |
| OE5DXL-15 | 2026-09-04 12:48:54 | 48.05511 | 12.45773 | 61° | 37km/h | 18865m | -8.1m/s | -56.2°C | 4.3% | 69.8hPa | 2.6V | 00:00:00 | 00:00:00 | 00:00:00 | |
| BAUMI2-15 | 2026-09-04 12:48:52 | 48.05503 | 12.45744 | 75° | 51km/h | 18881m | -7.4m/s | -56.1°C | 4.3% | 69.7hPa | 2.6V | 00:00:00 | 02:18:54 | 00:00:00 | |
| DG1MJG | 2026-09-04 12:48:51 | 48.05503 | 12.45744 | 76° | 47km/h | 18881m | -7.4m/s | -56.1°C | 1.2% | 69.7hPa | 2.6V | 08:13:00 | 00:00:00 | 00:00:00 | |
| OE5MMP-10 | 2026-09-04 12:48:48 | 48.05502 | 12.45666 | 103° | 33km/h | 18913m | -8.3m/s | -56.0°C | 4.1% | 69.3hPa | 2.6V | 00:00:00 | 02:18:50 | 00:00:00 | |
| BAUMI2-15 | 2026-09-04 12:48:47 | 48.05506 | 12.45648 | 112° | 42km/h | 18921m | -8.1m/s | -55.8°C | 4.0% | 69.2hPa | 2.6V | 00:00:00 | 02:18:49 | 00:00:00 | |
| OE5HKT-10 | 2026-09-04 12:48:44 | 48.05523 | 12.45607 | 138° | 37km/h | 18946m | -8.0m/s | -55.6°C | 4.1% | 68.9hPa | 2.6V | 00:00:00 | 02:18:46 | 00:00:00 | |
| OE5DRO-10 | 2026-09-04 12:48:43 | 48.05537 | 12.45593 | 154° | 31km/h | 18961m | -7.7m/s | -55.7°C | 4.2% | 68.8hPa | 2.6V | 00:00:00 | 00:00:00 | 00:00:00 | |
| BAUMI2-15 | 2026-09-04 12:48:42 | 48.05537 | 12.45593 | 154° | 16km/h | 18961m | -7.7m/s | -55.7°C | 4.2% | 68.8hPa | 2.6V | 00:00:00 | 02:18:44 | 00:00:00 | |
| OE5FHM-15 | 2026-09-04 12:48:41 | 48.05542 | 12.45589 | 161° | 37km/h | 18970m | -9.0m/s | -55.7°C | 4.2% | 68.7hPa | 2.6V | 00:00:00 | 02:18:43 | 00:00:00 | |
| DG1MFX-10 | 2026-09-04 12:48:40 | 48.05542 | 12.45589 | 162° | 22km/h | 18970m | -9.1m/s | -55.8°C | 1.3% | 68.7hPa | 2.6V | 08:13:00 | 00:00:00 | 00:00:00 | |
| OE5MMP-10 | 2026-09-04 12:48:38 | 48.05552 | 12.45587 | 217° | 26km/h | 18995m | -7.8m/s | -55.7°C | 4.3% | 68.4hPa | 2.6V | 00:00:00 | 02:18:40 | 00:00:00 | |
| PG1ADW-2 | 2026-09-04 12:48:37 | 48.05552 | 12.45588 | 315° | 35km/h | 19002m | -7.4m/s | -55.7°C | 4.3% | 68.3hPa | 2.6V | 00:00:00 | 00:00:00 | 00:00:00 | |
| OE5WHR-10 | 2026-09-04 12:48:36 | 48.05550 | 12.45590 | 345° | 33km/h | 19010m | -8.2m/s | -55.8°C | 4.3% | 68.3hPa | 2.6V | 00:00:00 | 02:18:38 | 00:00:00 | |
| BAUMI2-15 | 2026-09-04 12:48:32 | 48.05528 | 12.45584 | 24° | 42km/h | 19042m | -7.7m/s | -56.0°C | 4.2% | 67.9hPa | 2.6V | 08:13:00 | 02:18:34 | 00:00:00 | |
| DL6DJ-15 | 2026-09-04 12:48:31 | 48.05512 | 12.45569 | 39° | 42km/h | 19057m | -8.2m/s | -56.0°C | 1.2% | 67.8hPa | 2.5V | 00:00:00 | 00:00:00 | 00:00:00 | |
| OE5MMP-10 | 2026-09-04 12:48:28 | 48.05496 | 12.45544 | 56° | 44km/h | 19073m | -8.0m/s | -56.0°C | 4.0% | 67.5hPa | 2.5V | 00:00:00 | 02:18:30 | 00:00:00 | |
| BAUMI2-15 | 2026-09-04 12:48:27 | 48.05489 | 12.45527 | 64° | 51km/h | 19081m | -7.6m/s | -56.0°C | 4.0% | 67.5hPa | 2.5V | 00:00:00 | 02:18:29 | 00:00:00 | |
| OE5DXL-15 | 2026-09-04 12:48:24 | 48.05481 | 12.45472 | 90° | 40km/h | 19105m | -8.1m/s | -56.1°C | 4.0% | 67.2hPa | 2.5V | 00:00:00 | 00:00:00 | 00:00:00 | |
| OE5HKT-10 | 2026-09-04 12:48:23 | 48.05482 | 12.45453 | 99° | 40km/h | 19113m | -7.5m/s | -56.1°C | 4.1% | 67.1hPa | 2.6V | 08:13:00 | 00:00:00 | 00:00:00 | |
| BAUMI2-15 | 2026-09-04 12:48:22 | 48.05484 | 12.45436 | 109° | 33km/h | 19121m | -8.2m/s | -56.2°C | 4.2% | 67.0hPa | 2.6V | 00:00:00 | 02:18:24 | 00:00:00 | |
| DG1MFX-10 | 2026-09-04 12:48:20 | 48.05488 | 12.45422 | 117° | 40km/h | 19129m | -7.9m/s | -56.2°C | 1.2% | 67.0hPa | 2.6V | 08:14:00 | 00:00:00 | 00:00:00 | |
| OE5MMP-10 | 2026-09-04 12:48:18 | 48.05502 | 12.45395 | 138° | 26km/h | 19153m | -7.6m/s | -56.3°C | 4.4% | 66.7hPa | 2.6V | 00:00:00 | 02:18:20 | 00:00:00 | |
| PG1ADW-2 | 2026-09-04 12:48:17 | 48.05505 | 12.45392 | 141° | 42km/h | 19161m | -7.6m/s | -56.4°C | 4.5% | 66.6hPa | 2.5V | 00:00:00 | 02:18:19 | 00:00:00 | |
| OE5WHR-10 | 2026-09-04 12:48:15 | 48.05505 | 12.45388 | 22° | 46km/h | 19176m | -7.8m/s | -56.6°C | 4.6% | 66.5hPa | 2.5V | 00:00:00 | 00:00:00 | 00:00:00 | |
| OE5MMP-10 | 2026-09-04 12:48:08 | 48.05455 | 12.45340 | 53° | 57km/h | 19232m | -8.5m/s | -56.6°C | 4.4% | 65.9hPa | 2.6V | 00:00:00 | 02:18:10 | 00:00:00 | |
| DL6DJ-15 | 2026-09-04 12:48:00 | 48.05453 | 12.45156 | 123° | 51km/h | 19304m | -8.6m/s | -56.6°C | 1.2% | 65.2hPa | 2.6V | 00:00:00 | 00:00:00 | 00:00:00 | |
| HARRO8 | 2026-09-04 12:47:56 | 48.05484 | 12.45115 | 155° | 27km/h | 19338m | -7.6m/s | 0°C | -1.0% | -1.0hPa | 2.6V | 00:00:00 | 00:00:00 | 00:00:00 | |
| OE5WHR-10 | 2026-09-04 12:47:54 | 48.05490 | 12.45111 | 159° | 38km/h | 19346m | -8.2m/s | -56.3°C | 4.6% | 64.7hPa | 2.6V | 00:00:00 | 00:00:00 | 00:00:00 | |
| DG1MJG | 2026-09-04 12:47:49 | 48.05495 | 12.45099 | 64° | 16km/h | 19378m | -8.0m/s | -56.0°C | 1.3% | 64.4hPa | 2.6V | 08:14:00 | 00:00:00 | 00:00:00 | |
| OE5MMP-10 | 2026-09-04 12:47:48 | 48.05490 | 12.45082 | 73° | 51km/h | 19394m | -7.7m/s | -56.0°C | 4.4% | 64.2hPa | 2.6V | 08:13:00 | 02:17:50 | 00:00:00 | |
| DB0UT-7 | 2026-09-04 12:47:45 | 48.05486 | 12.45033 | 95° | 37km/h | 19416m | -7.6m/s | -55.9°C | 4.4% | 64.0hPa | 2.6V | 00:00:00 | 00:00:00 | 00:00:00 | |
| OE5MMP-10 | 2026-09-04 12:47:38 | 48.05539 | 12.44922 | 160° | 31km/h | 19470m | -7.1m/s | -54.9°C | 4.1% | 63.5hPa | 2.6V | 00:00:00 | 02:17:40 | 00:00:00 | |
| OE8JPQ-2 | 2026-09-04 12:47:37 | 48.05550 | 12.44917 | 168° | 29km/h | 19478m | -7.8m/s | -54.9°C | 4.1% | 63.4hPa | 2.6V | 00:00:00 | 00:00:00 | 00:00:00 | |
| OE5WHR-10 | 2026-09-04 12:47:33 | 48.05588 | 12.44922 | 206° | 27km/h | 19510m | -8.1m/s | -54.6°C | 4.0% | 63.0hPa | 2.6V | 00:00:00 | 02:17:35 | 00:00:00 | |
| OE5MMP-10 | 2026-09-04 12:47:28 | 48.05600 | 12.44948 | 334° | 27km/h | 19552m | -8.5m/s | -54.7°C | 3.9% | 62.6hPa | 2.6V | 00:00:00 | 02:17:30 | 00:00:00 | |
| OE5DXL-15 | 2026-09-04 12:47:24 | 48.05588 | 12.44930 | 73° | 33km/h | 19585m | -8.1m/s | -55.1°C | 3.9% | 62.3hPa | 2.6V | 00:00:00 | 00:00:00 | 00:00:00 | |
| OE5DRO-10 | 2026-09-04 12:47:23 | 48.05589 | 12.44892 | 112° | 31km/h | 19610m | -9.1m/s | -55.3°C | 3.9% | 62.1hPa | 2.6V | 00:00:00 | 00:00:00 | 00:00:00 | |
| DG1MJG | 2026-09-04 12:47:19 | 48.05594 | 12.44879 | 126° | 38km/h | 19619m | -8.7m/s | -55.5°C | 1.1% | 62.0hPa | 2.6V | 08:14:00 | 00:00:00 | 00:00:00 | |
| OE5MMP-10 | 2026-09-04 12:47:18 | 48.05608 | 12.44860 | 154° | 29km/h | 19636m | -7.8m/s | -55.5°C | 4.1% | 61.8hPa | 2.6V | 00:00:00 | 02:17:20 | 00:00:00 | |
| OE8JPQ-2 | 2026-09-04 12:47:17 | 48.05616 | 12.44856 | 171° | 31km/h | 19644m | -8.6m/s | -55.6°C | 4.2% | 61.8hPa | 2.6V | 00:00:00 | 02:17:19 | 00:00:00 | |
| OE5FHM-15 | 2026-09-04 12:47:16 | 48.05625 | 12.44855 | 186° | 33km/h | 19652m | -8.1m/s | -55.5°C | 4.2% | 61.7hPa | 2.6V | 00:00:00 | 02:17:18 | 00:00:00 | |
| OE5HKT-10 | 2026-09-04 12:47:15 | 48.05632 | 12.44858 | 203° | 29km/h | 19660m | -7.5m/s | -55.4°C | 4.3% | 61.6hPa | 2.6V | 00:00:00 | 02:17:17 | 00:00:00 | |
| OE5WHR-10 | 2026-09-04 12:47:12 | 48.05647 | 12.44881 | 254° | 29km/h | 19686m | -8.6m/s | -55.3°C | 4.2% | 61.3hPa | 2.6V | 08:14:00 | 00:00:00 | 00:00:00 | |
| OE5MMP-10 | 2026-09-04 12:47:08 | 48.05640 | 12.44915 | 329° | 31km/h | 19718m | -8.1m/s | -55.6°C | 4.2% | 61.0hPa | 2.6V | 00:00:00 | 02:17:10 | 00:00:00 | |
| OE5DRO-10 | 2026-09-04 12:47:04 | 48.05606 | 12.44905 | 45° | 27km/h | 19760m | -8.3m/s | -56.0°C | 4.1% | 60.6hPa | 2.6V | 00:00:00 | 00:00:00 | 00:00:00 | |
| OE5MMP-10 | 2026-09-04 12:46:58 | 48.05597 | 12.44843 | 110° | 24km/h | 19802m | -8.7m/s | -55.7°C | 4.0% | 60.2hPa | 2.6V | 00:00:00 | 02:17:00 | 00:00:00 | |
| OE8JPQ-2 | 2026-09-04 12:46:57 | 48.05601 | 12.44831 | 124° | 31km/h | 19811m | -8.9m/s | -55.7°C | 4.0% | 60.1hPa | 2.6V | 08:14:00 | 00:00:00 | 00:00:00 | |
| OE5DXL-15 | 2026-09-04 12:46:54 | 48.05619 | 12.44812 | 172° | 33km/h | 19836m | -8.2m/s | -55.8°C | 4.3% | 59.9hPa | 2.5V | 08:14:00 | 00:00:00 | 00:00:00 | |
| OE5WHR-10 | 2026-09-04 12:46:51 | 48.05632 | 12.44820 | 246° | 38km/h | 19862m | -8.9m/s | -56.1°C | 4.5% | 59.7hPa | 2.6V | 00:00:00 | 00:00:00 | 00:00:00 | |
| OE5HKT-10 | 2026-09-04 12:46:50 | 48.05632 | 12.44825 | 278° | 40km/h | 19871m | -8.5m/s | -56.2°C | 4.6% | 59.5hPa | 2.6V | 00:00:00 | 00:00:00 | 00:00:00 | |
| OE5MMP-10 | 2026-09-04 12:46:48 | 48.05628 | 12.44834 | 339° | 38km/h | 19888m | -8.8m/s | -56.5°C | 4.7% | 59.4hPa | 2.5V | 00:00:00 | 02:16:50 | 00:00:00 | |
| OE5DRO-10 | 2026-09-04 12:46:45 | 48.05610 | 12.44828 | 35° | 42km/h | 19914m | -8.5m/s | -56.6°C | 4.7% | 59.2hPa | 2.5V | 08:15:00 | 00:00:00 | 00:00:00 | |
| OE5MMP-10 | 2026-09-04 12:46:38 | 48.05591 | 12.44719 | 107° | 44km/h | 19973m | -8.2m/s | -55.6°C | 4.1% | 58.6hPa | 2.5V | 00:00:00 | 02:16:40 | 00:00:00 | |
| OE8JPQ-2 | 2026-09-04 12:46:37 | 48.05596 | 12.44700 | 116° | 33km/h | 19981m | -9.0m/s | -55.6°C | 4.2% | 58.5hPa | 2.5V | 00:00:00 | 00:00:00 | 00:00:00 | |
| OE5WHR-10 | 2026-09-04 12:46:30 | 48.05658 | 12.44632 | 182° | 29km/h | 20041m | -8.3m/s | -55.7°C | 4.5% | 58.0hPa | 2.5V | 00:00:00 | 02:16:32 | 00:00:00 | |
| OE5HKT-10 | 2026-09-04 12:46:29 | 48.05666 | 12.44634 | 194° | 33km/h | 20049m | -8.6m/s | -55.7°C | 4.5% | 57.8hPa | 2.5V | 00:00:00 | 00:00:00 | 00:00:00 | |
| OE5MMP-10 | 2026-09-04 12:46:28 | 48.05672 | 12.44637 | 205° | 22km/h | 20058m | -8.8m/s | -55.7°C | 4.5% | 57.8hPa | 2.5V | 00:00:00 | 02:16:30 | 00:00:00 | |
| OE5DRO-10 | 2026-09-04 12:46:26 | 48.05679 | 12.44645 | 249° | 29km/h | 20076m | -9.2m/s | -55.5°C | 4.5% | 57.6hPa | 2.5V | 00:00:00 | 00:00:00 | 00:00:00 | |
| OE5DXL-15 | 2026-09-04 12:46:24 | 48.05677 | 12.44653 | 329° | 29km/h | 20094m | -8.3m/s | -55.1°C | 4.2% | 57.4hPa | 2.5V | 00:00:00 | 00:00:00 | 00:00:00 | |
| OE5MMP-10 | 2026-09-04 12:46:18 | 48.05651 | 12.44615 | 81° | 35km/h | 20147m | -8.7m/s | -54.7°C | 3.8% | 57.0hPa | 2.5V | 08:15:00 | 02:16:20 | 00:00:00 | |
| OE8JPQ-2 | 2026-09-04 12:46:17 | 48.05650 | 12.44601 | 96° | 27km/h | 20156m | -9.1m/s | -54.7°C | 3.9% | 56.9hPa | 2.6V | 00:00:00 | 02:16:19 | 00:00:00 | |
| BAUMI2-15 | 2026-09-04 12:46:11 | 48.05688 | 12.44556 | 190° | 27km/h | 20209m | -9.1m/s | -54.5°C | 4.2% | 56.5hPa | 2.6V | 00:00:00 | 02:16:13 | 00:00:00 | |
| OE5WHR-10 | 2026-09-04 12:46:09 | 48.05701 | 12.44566 | 224° | 31km/h | 20226m | -8.8m/s | -54.4°C | 4.2% | 56.3hPa | 2.6V | 00:00:00 | 00:00:00 | 00:00:00 | |
| OE5MMP-10 | 2026-09-04 12:46:08 | 48.05705 | 12.44573 | 243° | 22km/h | 20235m | -8.9m/s | -54.4°C | 4.2% | 56.2hPa | 2.6V | 00:00:00 | 02:16:10 | 00:00:00 | |
| OE5HKT-10 | 2026-09-04 12:46:07 | 48.05707 | 12.44582 | 263° | 35km/h | 20244m | -9.2m/s | -54.4°C | 4.2% | 56.2hPa | 2.6V | 00:00:00 | 02:16:09 | 00:00:00 | |
| BAUMI2-15 | 2026-09-04 12:46:06 | 48.05707 | 12.44589 | 279° | 16km/h | 20253m | -8.1m/s | -54.5°C | 4.2% | 56.0hPa | 2.6V | 00:00:00 | 02:16:08 | 00:00:00 | |
| DL6DJ-15 | 2026-09-04 12:45:55 | 48.05690 | 12.44519 | 119° | 38km/h | 20348m | -8.8m/s | -54.5°C | 1.1% | 55.3hPa | 2.6V | 00:00:00 | 00:00:00 | 00:00:00 | |
| OE5DXL-15 | 2026-09-04 12:45:54 | 48.05703 | 12.44497 | 149° | 27km/h | 20364m | -7.8m/s | -54.4°C | 4.0% | 55.1hPa | 2.6V | 00:00:00 | 00:00:00 | 00:00:00 | |
| BAUMI2-15 | 2026-09-04 12:45:51 | 48.05724 | 12.44487 | 175° | 46km/h | 20381m | -8.7m/s | -54.2°C | 4.1% | 54.9hPa | 2.6V | 00:00:00 | 02:15:53 | 00:00:00 | |
| OE5MMP-10 | 2026-09-04 12:45:48 | 48.05758 | 12.44494 | 200° | 27km/h | 20407m | -9.1m/s | -53.7°C | 4.0% | 54.7hPa | 2.6V | 00:00:00 | 02:15:50 | 00:00:00 | |
| DG1MJG | 2026-09-04 12:45:47 | 48.05758 | 12.44494 | 200° | 44km/h | 20407m | -9.2m/s | -53.8°C | 1.1% | 54.7hPa | 2.5V | 08:16:00 | 00:00:00 | 00:00:00 | |
| BAUMI2-15 | 2026-09-04 12:45:46 | 48.05777 | 12.44509 | 217° | 31km/h | 20425m | -8.4m/s | -53.2°C | 3.9% | 54.5hPa | 2.5V | 08:15:00 | 02:15:48 | 00:00:00 | |
| OE5HKT-10 | 2026-09-04 12:45:45 | 48.05784 | 12.44518 | 228° | 20km/h | 20433m | -8.0m/s | -53.1°C | 3.9% | 54.5hPa | 2.5V | 00:00:00 | 00:00:00 | 00:00:00 | |
| BAUMI2-15 | 2026-09-04 12:45:41 | 48.05794 | 12.44553 | 283° | 13km/h | 20466m | -8.8m/s | -53.3°C | 3.8% | 54.2hPa | 2.6V | 00:00:00 | 02:15:43 | 00:00:00 | |
| OE5MMP-10 | 2026-09-04 12:45:38 | 48.05788 | 12.44561 | 1° | 18km/h | 20491m | -8.0m/s | -53.2°C | 3.7% | 54.0hPa | 2.6V | 00:00:00 | 02:15:40 | 00:00:00 | |
| OE8JPQ-2 | 2026-09-04 12:45:37 | 48.05785 | 12.44560 | 28° | 22km/h | 20499m | -8.4m/s | -53.2°C | 3.7% | 53.9hPa | 2.6V | 00:00:00 | 00:00:00 | 00:00:00 | |
| BAUMI2-15 | 2026-09-04 12:45:36 | 48.05783 | 12.44557 | 45° | 18km/h | 20508m | -8.0m/s | -53.0°C | 3.7% | 53.9hPa | 2.6V | 00:00:00 | 02:15:38 | 00:00:00 | |
| DG1MFX-10 | 2026-09-04 12:45:35 | 48.05783 | 12.44557 | 45° | 13km/h | 20508m | -8.0m/s | -53.1°C | 1.1% | 53.9hPa | 2.6V | 08:16:00 | 00:00:00 | 00:00:00 | |
| BAUMI2-15 | 2026-09-04 12:45:31 | 48.05780 | 12.44525 | 114° | 24km/h | 20547m | -7.8m/s | -52.8°C | 3.6% | 53.5hPa | 2.6V | 00:00:00 | 02:15:33 | 00:00:00 | |
| DO3MHA-11 | 2026-09-04 12:45:30 | 48.05787 | 12.44510 | 134° | 24km/h | 20563m | -7.8m/s | -53.0°C | 3.6% | 53.4hPa | 2.5V | 00:00:00 | 02:15:31 | 00:00:00 | |
| OE5WHR-10 | 2026-09-04 12:45:27 | 48.05797 | 12.44500 | 154° | 26km/h | 20579m | -7.6m/s | -53.0°C | 3.6% | 53.3hPa | 2.6V | 00:00:00 | 02:15:29 | 00:00:00 | |
| BAUMI2-15 | 2026-09-04 12:45:26 | 48.05803 | 12.44496 | 164° | 24km/h | 20587m | -7.5m/s | -53.1°C | 3.6% | 53.2hPa | 2.6V | 00:00:00 | 02:15:28 | 00:00:00 | |
| OE5HKT-10 | 2026-09-04 12:45:24 | 48.05815 | 12.44494 | 183° | 27km/h | 20602m | -7.9m/s | -53.2°C | 3.6% | 53.1hPa | 2.6V | 00:00:00 | 00:00:00 | 00:00:00 | |
| OE5DXL-15 | 2026-09-04 12:45:23 | 48.05821 | 12.44495 | 191° | 33km/h | 20610m | -7.7m/s | -53.3°C | 3.7% | 53.0hPa | 2.6V | 00:00:00 | 00:00:00 | 00:00:00 | |
| BAUMI2-15 | 2026-09-04 12:45:21 | 48.05832 | 12.44500 | 207° | 22km/h | 20625m | -7.1m/s | -53.4°C | 3.6% | 52.9hPa | 2.6V | 00:00:00 | 02:15:23 | 00:00:00 | |
| DO3MHA-11 | 2026-09-04 12:45:19 | 48.05841 | 12.44510 | 223° | 20km/h | 20639m | -7.4m/s | -53.5°C | 3.7% | 52.7hPa | 2.6V | 00:00:00 | 02:15:21 | 00:00:00 | |
| OE5MMP-10 | 2026-09-04 12:45:18 | 48.05845 | 12.44517 | 230° | 24km/h | 20647m | -7.7m/s | -53.5°C | 3.7% | 52.7hPa | 2.6V | 00:00:00 | 02:15:20 | 00:00:00 | |
| DG1MJG | 2026-09-04 12:45:17 | 48.05849 | 12.44523 | 236° | 22km/h | 20655m | -8.0m/s | -53.6°C | 1.0% | 52.7hPa | 2.6V | 08:16:00 | 00:00:00 | 00:00:00 | |
| BAUMI2-15 | 2026-09-04 12:45:16 | 48.05851 | 12.44530 | 242° | 22km/h | 20663m | -7.8m/s | -53.6°C | 3.7% | 52.6hPa | 2.6V | 00:00:00 | 02:15:18 | 00:00:00 | |
| OE5FHM-15 | 2026-09-04 12:45:15 | 48.05854 | 12.44538 | 248° | 31km/h | 20670m | -7.5m/s | -53.7°C | 3.8% | 52.5hPa | 2.5V | 00:00:00 | 02:15:17 | 00:00:00 | |
| BAUMI2-15 | 2026-09-04 12:45:11 | 48.05855 | 12.44572 | 290° | 29km/h | 20702m | -9.1m/s | -53.9°C | 3.9% | 52.3hPa | 2.6V | 00:00:00 | 02:15:13 | 00:00:00 | |
| OE5MMP-10 | 2026-09-04 12:45:08 | 48.05844 | 12.44598 | 316° | 40km/h | 20728m | -8.4m/s | -53.9°C | 3.9% | 52.0hPa | 2.6V | 00:00:00 | 02:15:10 | 00:00:00 | |
| OE5WHR-10 | 2026-09-04 12:45:06 | 48.05830 | 12.44612 | 336° | 35km/h | 20746m | -9.9m/s | -54.0°C | 3.9% | 51.9hPa | 2.6V | 00:00:00 | 00:00:00 | 00:00:00 | |
| DF7PN | 2026-09-04 12:45:04 | 48.05754 | 12.44584 | 48° | 44km/h | 20818m | -8.9m/s | 0°C | 0% | -1.0hPa | 2.5V | 00:00:00 | 00:00:00 | 00:00:00 | |
| BAUMI2-15 | 2026-09-04 12:45:01 | 48.05780 | 12.44614 | 24° | 44km/h | 20791m | -9.5m/s | -54.2°C | 3.9% | 51.5hPa | 2.5V | 08:16:00 | 02:15:03 | 00:00:00 | |
| OE5MMP-10 | 2026-09-04 12:44:58 | 48.05754 | 12.44584 | 49° | 35km/h | 20819m | -8.9m/s | -54.3°C | 3.9% | 51.3hPa | 2.5V | 00:00:00 | 02:15:00 | 00:00:00 | |
| OE8JPQ-2 | 2026-09-04 12:44:57 | 48.05747 | 12.44570 | 58° | 26km/h | 20828m | -8.6m/s | -54.3°C | 3.9% | 51.2hPa | 2.5V | 00:00:00 | 00:00:00 | 00:00:00 | |
| BAUMI2-15 | 2026-09-04 12:44:56 | 48.05742 | 12.44556 | 66° | 38km/h | 20837m | -10.0m/s | -54.4°C | 3.9% | 51.1hPa | 2.5V | 00:00:00 | 02:14:58 | 00:00:00 | |
| DG1MFX-10 | 2026-09-04 12:44:54 | 48.05738 | 12.44541 | 74° | 40km/h | 20847m | -9.6m/s | -54.4°C | 1.1% | 51.1hPa | 2.5V | 08:17:00 | 00:00:00 | 00:00:00 | |
| OE5DXL-15 | 2026-09-04 12:44:53 | 48.05735 | 12.44513 | 89° | 27km/h | 20865m | -8.8m/s | -54.4°C | 3.9% | 50.9hPa | 2.5V | 00:00:00 | 02:14:55 | 00:00:00 | |
| BAUMI2-15 | 2026-09-04 12:44:51 | 48.05738 | 12.44489 | 110° | 20km/h | 20883m | -9.7m/s | -54.4°C | 3.9% | 50.8hPa | 2.5V | 00:00:00 | 02:14:53 | 00:00:00 | |
| OE5MMP-10 | 2026-09-04 12:44:48 | 48.05747 | 12.44471 | 155° | 18km/h | 20910m | -8.4m/s | -54.1°C | 3.8% | 50.6hPa | 2.5V | 08:16:00 | 02:14:50 | 00:00:00 | |
| BAUMI2-15 | 2026-09-04 12:44:46 | 48.05754 | 12.44471 | 216° | 16km/h | 20926m | -8.6m/s | -54.1°C | 3.8% | 50.4hPa | 2.6V | 00:00:00 | 02:14:48 | 00:00:00 | |
| OE5WHR-10 | 2026-09-04 12:44:45 | 48.05756 | 12.44475 | 245° | 29km/h | 20935m | -8.7m/s | -54.1°C | 3.8% | 50.3hPa | 2.5V | 00:00:00 | 00:00:00 | 00:00:00 | |
| OE5FHM-15 | 2026-09-04 12:44:44 | 48.05757 | 12.44480 | 269° | 16km/h | 20944m | -8.7m/s | -54.1°C | 3.8% | 50.3hPa | 2.5V | 00:00:00 | 02:14:46 | 00:00:00 | |
| OE5HKT-10 | 2026-09-04 12:44:42 | 48.05754 | 12.44493 | 301° | 31km/h | 20960m | -7.9m/s | -54.2°C | 3.9% | 50.2hPa | 2.5V | 08:17:00 | 00:00:00 | 00:00:00 | |
| BAUMI2-15 | 2026-09-04 12:44:41 | 48.05751 | 12.44499 | 315° | 26km/h | 20969m | -8.2m/s | -54.3°C | 3.9% | 50.1hPa | 2.5V | 00:00:00 | 02:14:43 | 00:00:00 | |
| OE5MMP-10 | 2026-09-04 12:44:38 | 48.05734 | 12.44510 | 355° | 33km/h | 20993m | -7.7m/s | -54.8°C | 4.0% | 49.9hPa | 2.5V | 00:00:00 | 02:14:40 | 00:00:00 | |
| OE8JPQ-2 | 2026-09-04 12:44:37 | 48.05727 | 12.44510 | 7° | 31km/h | 21000m | -7.6m/s | -54.9°C | 4.0% | 49.8hPa | 2.5V | 00:00:00 | 00:00:00 | 00:00:00 | |
| BAUMI2-15 | 2026-09-04 12:44:36 | 48.05720 | 12.44508 | 18° | 33km/h | 21008m | -7.8m/s | -55.0°C | 4.1% | 49.8hPa | 2.5V | 00:00:00 | 02:14:38 | 00:00:00 | |
| DG1MFX-10 | 2026-09-04 12:44:34 | 48.05712 | 12.44503 | 28° | 33km/h | 21016m | -7.6m/s | -55.1°C | 1.1% | 49.8hPa | 2.5V | 08:17:00 | 00:00:00 | 00:00:00 | |
| BAUMI2-15 | 2026-09-04 12:44:31 | 48.05688 | 12.44468 | 59° | 35km/h | 21047m | -7.7m/s | -55.1°C | 4.1% | 49.5hPa | 2.5V | 00:00:00 | 02:14:33 | 00:00:00 | |
| OE5MMP-10 | 2026-09-04 12:44:28 | 48.05679 | 12.44431 | 82° | 29km/h | 21071m | -8.1m/s | -55.1°C | 4.1% | 49.3hPa | 2.5V | 00:00:00 | 02:14:30 | 00:00:00 | |
| BAUMI2-15 | 2026-09-04 12:44:26 | 48.05678 | 12.44406 | 96° | 31km/h | 21087m | -8.1m/s | -55.0°C | 4.0% | 49.2hPa | 2.5V | 00:00:00 | 02:14:28 | 00:00:00 | |
| OE5WHR-10 | 2026-09-04 12:44:24 | 48.05681 | 12.44383 | 108° | 20km/h | 21103m | -8.1m/s | -54.9°C | 4.0% | 49.1hPa | 2.5V | 00:00:00 | 02:14:26 | 00:00:00 | |
| OE5DXL-15 | 2026-09-04 12:44:23 | 48.05683 | 12.44372 | 113° | 22km/h | 21111m | -7.8m/s | -54.8°C | 4.0% | 49.0hPa | 2.5V | 00:00:00 | 00:00:00 | 00:00:00 | |
| DL6DJ-15 | 2026-09-04 12:44:22 | 48.05687 | 12.44362 | 118° | 27km/h | 21119m | -7.8m/s | -54.9°C | 1.1% | 49.0hPa | 2.5V | 00:00:00 | 00:00:00 | 00:00:00 | |
| OE5HKT-10 | 2026-09-04 12:44:21 | 48.05690 | 12.44353 | 125° | 18km/h | 21127m | -8.1m/s | -54.9°C | 4.0% | 48.9hPa | 2.5V | 00:00:00 | 00:00:00 | 00:00:00 | |
| OE5MMP-10 | 2026-09-04 12:44:18 | 48.05704 | 12.44333 | 148° | 16km/h | 21151m | -8.3m/s | -54.8°C | 4.0% | 48.7hPa | 2.5V | 00:00:00 | 02:14:20 | 00:00:00 | |
| OE8JPQ-2 | 2026-09-04 12:44:17 | 48.05709 | 12.44329 | 155° | 18km/h | 21160m | -8.3m/s | -54.8°C | 4.0% | 48.6hPa | 2.6V | 00:00:00 | 02:14:19 | 00:00:00 | |
| BAUMI2-15 | 2026-09-04 12:44:16 | 48.05714 | 12.44326 | 165° | 18km/h | 21168m | -8.2m/s | -54.8°C | 4.0% | 48.5hPa | 2.6V | 08:17:00 | 02:14:18 | 00:00:00 | |
| DG1MJG | 2026-09-04 12:44:15 | 48.05714 | 12.44326 | 166° | 20km/h | 21168m | -8.3m/s | -54.9°C | 1.1% | 48.6hPa | 2.6V | 08:17:00 | 00:00:00 | 00:00:00 | |
| DG1MFX-10 | 2026-09-04 12:44:13 | 48.05723 | 12.44325 | 184° | 16km/h | 21184m | -8.0m/s | -55.0°C | 1.1% | 48.5hPa | 2.6V | 08:18:00 | 00:00:00 | 00:00:00 | |
| OE5MMP-10 | 2026-09-04 12:44:08 | 48.05736 | 12.44346 | 272° | 18km/h | 21233m | -8.4m/s | -55.0°C | 4.1% | 48.0hPa | 2.6V | 00:00:00 | 02:14:10 | 00:00:00 | |
| OE5FHM-15 | 2026-09-04 12:44:05 | 48.05732 | 12.44364 | 302° | 27km/h | 21258m | -8.1m/s | -54.9°C | 4.1% | 47.9hPa | 2.6V | 00:00:00 | 02:14:07 | 00:00:00 | |
| OE5WHR-10 | 2026-09-04 12:44:03 | 48.05726 | 12.44375 | 321° | 31km/h | 21275m | -8.4m/s | -54.9°C | 4.2% | 47.7hPa | 2.6V | 08:17:00 | 00:00:00 | 00:00:00 | |
| OE5HKT-10 | 2026-09-04 12:44:00 | 48.05712 | 12.44384 | 350° | 35km/h | 21300m | -8.3m/s | -55.1°C | 4.3% | 47.6hPa | 2.6V | 00:00:00 | 02:14:02 | 00:00:00 | |
| OE5MMP-10 | 2026-09-04 12:43:58 | 48.05701 | 12.44384 | 10° | 31km/h | 21317m | -8.1m/s | -55.2°C | 4.3% | 47.4hPa | 2.6V | 00:00:00 | 02:14:00 | 00:00:00 | |
| OE8JPQ-2 | 2026-09-04 12:43:57 | 48.05695 | 12.44382 | 19° | 37km/h | 21325m | -8.1m/s | -55.2°C | 4.3% | 47.4hPa | 2.6V | 08:17:00 | 00:00:00 | 00:00:00 | |
| OE5DXL-15 | 2026-09-04 12:43:53 | 48.05671 | 12.44359 | 46° | 31km/h | 21358m | -8.4m/s | -55.2°C | 4.3% | 47.1hPa | 2.5V | 00:00:00 | 00:00:00 | 00:00:00 | |
| DG1MFX-10 | 2026-09-04 12:43:52 | 48.05672 | 12.44359 | 46° | 33km/h | 21358m | -8.4m/s | -55.3°C | 1.2% | 47.1hPa | 2.6V | 08:18:00 | 00:00:00 | 00:00:00 | |
| DB0UT-7 | 2026-09-04 12:43:51 | 48.05660 | 12.44338 | 58° | 37km/h | 21375m | -8.5m/s | -55.0°C | 4.2% | 47.0hPa | 2.6V | 00:00:00 | 02:13:53 | 00:00:00 | |
| OE5MMP-10 | 2026-09-04 12:43:48 | 48.05649 | 12.44298 | 79° | 40km/h | 21401m | -8.8m/s | -54.4°C | 3.9% | 46.8hPa | 2.6V | 00:00:00 | 02:13:50 | 00:00:00 | |
| DO3MHA-11 | 2026-09-04 12:43:46 | 48.05648 | 12.44267 | 94° | 37km/h | 21418m | -8.9m/s | -54.4°C | 3.9% | 46.7hPa | 2.6V | 00:00:00 | 02:13:48 | 00:00:00 | |
| DG1MJG | 2026-09-04 12:43:45 | 48.05648 | 12.44267 | 94° | 42km/h | 21418m | -8.9m/s | -54.5°C | 1.0% | 46.7hPa | 2.6V | 08:18:00 | 00:00:00 | 00:00:00 | |
| OE5WHR-10 | 2026-09-04 12:43:42 | 48.05660 | 12.44206 | 122° | 26km/h | 21453m | -8.8m/s | -54.5°C | 3.9% | 46.4hPa | 2.6V | 00:00:00 | 00:00:00 | 00:00:00 | |
| OE5HKT-10 | 2026-09-04 12:43:39 | 48.05679 | 12.44175 | 147° | 26km/h | 21479m | -8.4m/s | -54.6°C | 4.1% | 46.2hPa | 2.6V | 00:00:00 | 00:00:00 | 00:00:00 | |
| OE5MMP-10 | 2026-09-04 12:43:38 | 48.05686 | 12.44169 | 156° | 24km/h | 21487m | -8.3m/s | -54.6°C | 4.0% | 46.1hPa | 2.5V | 00:00:00 | 02:13:40 | 00:00:00 | |
| OE8JPQ-2 | 2026-09-04 12:43:37 | 48.05693 | 12.44166 | 168° | 26km/h | 21496m | -8.4m/s | -54.5°C | 4.0% | 46.1hPa | 2.5V | 00:00:00 | 00:00:00 | 00:00:00 | |
| DO3MHA-11 | 2026-09-04 12:43:36 | 48.05700 | 12.44164 | 180° | 24km/h | 21504m | -8.6m/s | -54.4°C | 4.0% | 46.0hPa | 2.5V | 00:00:00 | 02:13:38 | 00:00:00 | |
| DG1MFX-10 | 2026-09-04 12:43:33 | 48.05717 | 12.44173 | 224° | 22km/h | 21531m | -8.8m/s | -54.5°C | 1.1% | 45.9hPa | 2.5V | 08:18:00 | 00:00:00 | 00:00:00 | |
| OE5MMP-10 | 2026-09-04 12:43:28 | 48.05718 | 12.44205 | 319° | 26km/h | 21576m | -9.0m/s | -54.1°C | 4.0% | 45.5hPa | 2.5V | 00:00:00 | 02:13:30 | 00:00:00 | |
| OE5DXL-15 | 2026-09-04 12:43:23 | 48.05692 | 12.44199 | 44° | 29km/h | 21620m | -8.7m/s | -54.6°C | 4.1% | 45.2hPa | 2.5V | 00:00:00 | 00:00:00 | 00:00:00 | |
| OE5WHR-10 | 2026-09-04 12:43:21 | 48.05684 | 12.44181 | 69° | 31km/h | 21638m | -8.7m/s | -54.5°C | 4.1% | 45.1hPa | 2.5V | 00:00:00 | 02:13:23 | 00:00:00 | |
| DL6DJ-15 | 2026-09-04 12:43:20 | 48.05682 | 12.44170 | 80° | 31km/h | 21647m | -9.0m/s | -54.5°C | 1.1% | 45.1hPa | 2.5V | 00:00:00 | 00:00:00 | 00:00:00 | |
| OE5HKT-10 | 2026-09-04 12:43:18 | 48.05682 | 12.44145 | 101° | 31km/h | 21665m | -8.8m/s | -54.0°C | 3.8% | 44.9hPa | 2.5V | 00:00:00 | 00:00:00 | 00:00:00 | |
| OE8JPQ-2 | 2026-09-04 12:43:17 | 48.05685 | 12.44133 | 111° | 29km/h | 21673m | -8.9m/s | -53.9°C | 3.8% | 44.8hPa | 2.5V | 00:00:00 | 02:13:19 | 00:00:00 | |
| DG1MJG | 2026-09-04 12:43:15 | 48.05694 | 12.44110 | 131° | 37km/h | 21691m | -8.6m/s | -54.0°C | 1.0% | 44.7hPa | 2.5V | 08:19:00 | 00:00:00 | 00:00:00 | |
| DO3MHA-11 | 2026-09-04 12:43:13 | 48.05708 | 12.44092 | 151° | 31km/h | 21708m | -8.6m/s | -53.9°C | 3.8% | 44.6hPa | 2.5V | 00:00:00 | 02:13:15 | 00:00:00 | |
| OE5FHM-15 | 2026-09-04 12:43:11 | 48.05725 | 12.44083 | 170° | 37km/h | 21726m | -8.6m/s | -53.9°C | 3.7% | 44.5hPa | 2.5V | 08:18:00 | 02:13:13 | 00:00:00 | |
| OE5MMP-10 | 2026-09-04 12:43:08 | 48.05751 | 12.44086 | 200° | 26km/h | 21752m | -8.7m/s | -54.0°C | 3.8% | 44.3hPa | 2.5V | 00:00:00 | 02:13:10 | 00:00:00 | |
| DL6DJ-15 | 2026-09-04 12:42:49 | 48.05716 | 12.44121 | 61° | 33km/h | 21919m | -9.1m/s | -54.3°C | 1.1% | 43.1hPa | 2.5V | 00:00:00 | 00:00:00 | 00:00:00 | |
| OE5MMP-10 | 2026-09-04 12:42:48 | 48.05712 | 12.44110 | 68° | 38km/h | 21929m | -9.0m/s | -54.1°C | 4.1% | 43.1hPa | 2.5V | 00:00:00 | 02:12:50 | 00:00:00 | |
| DG1MJG | 2026-09-04 12:42:44 | 48.05707 | 12.44069 | 89° | 38km/h | 21956m | -9.1m/s | -53.8°C | 1.0% | 42.9hPa | 2.5V | 08:19:00 | 00:00:00 | 00:00:00 | |
| OE5WHR-10 | 2026-09-04 12:42:39 | 48.05722 | 12.43987 | 124° | 35km/h | 22009m | -9.0m/s | -53.8°C | 4.0% | 42.5hPa | 2.5V | 00:00:00 | 00:00:00 | 00:00:00 | |
| OE5MMP-10 | 2026-09-04 12:42:37 | 48.05734 | 12.43964 | 136° | 38km/h | 22027m | -8.9m/s | -53.8°C | 3.9% | 42.4hPa | 2.5V | 00:00:00 | 02:12:39 | 00:00:00 | |
| OE5FHM-15 | 2026-09-04 12:42:36 | 48.05742 | 12.43954 | 143° | 38km/h | 22036m | -9.1m/s | -53.7°C | 3.9% | 42.3hPa | 2.5V | 00:00:00 | 02:12:38 | 00:00:00 | |
| PETON7-10 | 2026-09-04 12:42:31 | 48.05787 | 12.43929 | 179° | 38km/h | 22083m | -9.1m/s | -53.1°C | 3.8% | 42.0hPa | 2.5V | 00:00:00 | 02:12:33 | 00:00:00 | |
| DG1MFX-10 | 2026-09-04 12:42:30 | 48.05787 | 12.43929 | 179° | 37km/h | 22083m | -9.2m/s | -53.1°C | 1.0% | 42.1hPa | 2.5V | 08:20:00 | 00:00:00 | 00:00:00 | |
| OE5MMP-10 | 2026-09-04 12:42:27 | 48.05820 | 12.43942 | 211° | 33km/h | 22118m | -9.0m/s | -53.1°C | 3.8% | 41.8hPa | 2.5V | 00:00:00 | 02:12:29 | 00:00:00 | |
| OE5DXL-15 | 2026-09-04 12:42:23 | 48.05846 | 12.43973 | 226° | 33km/h | 22155m | -9.1m/s | -52.9°C | 3.8% | 41.5hPa | 2.5V | 08:19:00 | 00:00:00 | 00:00:00 | |
| DB0UT-7 | 2026-09-04 12:42:20 | 48.05861 | 12.44000 | 235° | 37km/h | 22182m | -9.4m/s | -52.6°C | 3.7% | 41.4hPa | 2.6V | 00:00:00 | 00:00:00 | 00:00:00 | |
| OE5WHR-10 | 2026-09-04 12:42:18 | 48.05869 | 12.44020 | 243° | 33km/h | 22201m | -8.9m/s | -52.5°C | 3.6% | 41.2hPa | 2.5V | 00:00:00 | 02:12:20 | 00:00:00 | |
| OE5MMP-10 | 2026-09-04 12:42:17 | 48.05873 | 12.44031 | 247° | 33km/h | 22210m | -9.0m/s | -52.4°C | 3.6% | 41.2hPa | 2.5V | 00:00:00 | 02:12:19 | 00:00:00 | |
| DG1MJG | 2026-09-04 12:42:14 | 48.05880 | 12.44063 | 261° | 29km/h | 22237m | -9.0m/s | -52.6°C | 0.9% | 41.1hPa | 2.5V | 08:20:00 | 00:00:00 | 00:00:00 | |
| OE5HKT-10 | 2026-09-04 12:42:12 | 48.05881 | 12.44086 | 270° | 35km/h | 22255m | -9.0m/s | -52.5°C | 3.6% | 40.9hPa | 2.5V | 00:00:00 | 00:00:00 | 00:00:00 | |
| BAUMI2-15 | 2026-09-04 12:42:11 | 48.05880 | 12.44097 | 274° | 33km/h | 22264m | -8.9m/s | -52.4°C | 3.5% | 40.8hPa | 2.5V | 00:00:00 | 02:12:13 | 00:00:00 | |
| DG1MFX-10 | 2026-09-04 12:42:09 | 48.05880 | 12.44109 | 279° | 31km/h | 22273m | -9.2m/s | -52.5°C | 0.9% | 40.8hPa | 2.5V | 08:20:00 | 00:00:00 | 00:00:00 | |
| BAUMI2-15 | 2026-09-04 12:42:06 | 48.05871 | 12.44156 | 292° | 33km/h | 22310m | -8.9m/s | -52.6°C | 3.5% | 40.5hPa | 2.5V | 00:00:00 | 02:12:08 | 00:00:00 | |
| DL6DJ-15 | 2026-09-04 12:41:47 | 48.05714 | 12.44231 | 39° | 42km/h | 22498m | -9.4m/s | -53.5°C | 1.0% | 39.4hPa | 2.5V | 00:00:00 | 00:00:00 | 00:00:00 | |
| BAUMI2-15 | 2026-09-04 12:41:46 | 48.05714 | 12.44230 | 40° | 40km/h | 22498m | -9.4m/s | -53.5°C | 3.8% | 39.4hPa | 2.5V | 00:00:00 | 02:11:48 | 00:00:00 | |
| OE5DRO-10 | 2026-09-04 12:41:43 | 48.05695 | 12.44195 | 68° | 27km/h | 22527m | -9.9m/s | -53.4°C | 3.8% | 39.2hPa | 2.6V | 00:00:00 | 00:00:00 | 00:00:00 | |
| DG1MJG | 2026-09-04 12:41:42 | 48.05695 | 12.44195 | 69° | 38km/h | 22527m | -10.0m/s | -53.5°C | 1.0% | 39.2hPa | 2.6V | 08:20:00 | 00:00:00 | 00:00:00 | |
| BAUMI2-15 | 2026-09-04 12:41:41 | 48.05691 | 12.44168 | 88° | 31km/h | 22547m | -9.9m/s | -53.1°C | 3.7% | 39.1hPa | 2.6V | 00:00:00 | 02:11:43 | 00:00:00 | |
| OE5FHM-15 | 2026-09-04 12:41:40 | 48.05692 | 12.44155 | 100° | 33km/h | 22557m | -9.8m/s | -53.0°C | 3.6% | 39.0hPa | 2.6V | 00:00:00 | 02:11:42 | 00:00:00 | |
| OE8JPQ-2 | 2026-09-04 12:41:37 | 48.05702 | 12.44127 | 141° | 27km/h | 22587m | -10.2m/s | -53.0°C | 3.5% | 38.8hPa | 2.6V | 00:00:00 | 00:00:00 | 00:00:00 | |
| OE5WHR-10 | 2026-09-04 12:41:36 | 48.05707 | 12.44122 | 157° | 27km/h | 22597m | -10.1m/s | -53.0°C | 3.5% | 38.7hPa | 2.6V | 00:00:00 | 00:00:00 | 00:00:00 | |
| BAUMI2-15 | 2026-09-04 12:41:31 | 48.05727 | 12.44136 | 260° | 24km/h | 22646m | -9.4m/s | -53.3°C | 3.7% | 38.4hPa | 2.6V | 08:20:00 | 02:11:33 | 00:00:00 | |
| DG1MFX-10 | 2026-09-04 12:41:28 | 48.05722 | 12.44160 | 310° | 26km/h | 22675m | -9.9m/s | -53.7°C | 1.0% | 38.4hPa | 2.5V | 08:20:00 | 00:00:00 | 00:00:00 | |
| BAUMI2-15 | 2026-09-04 12:41:26 | 48.05712 | 12.44173 | 335° | 29km/h | 22695m | -10.0m/s | -53.9°C | 3.9% | 38.2hPa | 2.5V | 00:00:00 | 02:11:28 | 00:00:00 | |
| OE5DRO-10 | 2026-09-04 12:41:24 | 48.05698 | 12.44178 | 358° | 35km/h | 22715m | -9.5m/s | -54.3°C | 4.1% | 38.1hPa | 2.5V | 00:00:00 | 00:00:00 | 00:00:00 | |
| OE5HKT-10 | 2026-09-04 12:41:23 | 48.05690 | 12.44177 | 11° | 33km/h | 22725m | -9.7m/s | -54.3°C | 4.1% | 38.0hPa | 2.5V | 08:20:00 | 00:00:00 | 00:00:00 | |
| BAUMI2-15 | 2026-09-04 12:41:21 | 48.05676 | 12.44168 | 33° | 35km/h | 22744m | -9.1m/s | -54.4°C | 4.1% | 37.9hPa | 2.5V | 00:00:00 | 02:11:23 | 00:00:00 | |
| DK5PH-5 | 2026-09-04 12:41:20 | 48.05669 | 12.44161 | 42° | 29km/h | 22753m | -9.4m/s | 0°C | 0% | 0hPa | 2.5V | 00:00:00 | 02:11:22 | 00:00:00 | |
| OE5MMP-10 | 2026-09-04 12:41:17 | 48.05653 | 12.44129 | 61° | 37km/h | 22781m | -9.6m/s | 0°C | 0% | 0hPa | 2.5V | 08:20:00 | 02:11:19 | 00:00:00 | |
| DL6DJ-15 | 2026-09-04 12:41:16 | 48.05645 | 12.44103 | 71° | 37km/h | 22801m | -9.9m/s | -54.3°C | 1.0% | 37.6hPa | 2.6V | 00:00:00 | 00:00:00 | 00:00:00 | |
| OE5WHR-10 | 2026-09-04 12:41:15 | 48.05645 | 12.44103 | 72° | 31km/h | 22801m | -9.9m/s | -54.3°C | 4.0% | 37.5hPa | 2.6V | 00:00:00 | 02:11:17 | 00:00:00 | |
| BAUMI2-15 | 2026-09-04 12:41:11 | 48.05639 | 12.44048 | 92° | 35km/h | 22839m | -9.3m/s | -53.9°C | 3.9% | 37.3hPa | 2.6V | 00:00:00 | 02:11:13 | 00:00:00 | |
| OE5MMP-10 | 2026-09-04 12:41:07 | 48.05645 | 12.43997 | 105° | 27km/h | 22877m | -9.6m/s | -53.5°C | 3.8% | 37.1hPa | 2.6V | 00:00:00 | 02:11:09 | 00:00:00 | |
| BAUMI2-15 | 2026-09-04 12:41:06 | 48.05647 | 12.43985 | 107° | 29km/h | 22887m | -9.5m/s | -53.5°C | 3.8% | 37.1hPa | 2.6V | 00:00:00 | 02:11:08 | 00:00:00 | |
| OE5DRO-10 | 2026-09-04 12:41:05 | 48.05649 | 12.43974 | 111° | 24km/h | 22897m | -9.6m/s | -53.5°C | 3.8% | 37.0hPa | 2.6V | 00:00:00 | 00:00:00 | 00:00:00 | |
| DH7VM-15 | 2026-09-04 12:41:04 | 48.05652 | 12.43964 | 113° | 29km/h | 22906m | -9.3m/s | -53.6°C | 1.0% | 37.0hPa | 2.6V | 00:00:00 | 00:00:00 | 00:00:00 | |
| OE5HKT-10 | 2026-09-04 12:41:02 | 48.05659 | 12.43945 | 123° | 20km/h | 22925m | -9.7m/s | -53.5°C | 3.8% | 36.8hPa | 2.6V | 00:00:00 | 00:00:00 | 00:00:00 | |
| BAUMI2-15 | 2026-09-04 12:41:01 | 48.05662 | 12.43937 | 127° | 26km/h | 22934m | -9.4m/s | -53.5°C | 3.8% | 36.7hPa | 2.6V | 00:00:00 | 02:11:03 | 00:00:00 | |
| OE5MMP-10 | 2026-09-04 12:40:57 | 48.05680 | 12.43910 | 141° | 20km/h | 22973m | -9.8m/s | -53.6°C | 3.7% | 36.5hPa | 2.6V | 00:00:00 | 02:10:59 | 00:00:00 | |
| OE5FHM-15 | 2026-09-04 12:40:56 | 48.05684 | 12.43905 | 142° | 18km/h | 22983m | -9.9m/s | -53.6°C | 3.8% | 36.5hPa | 2.6V | 00:00:00 | 02:10:58 | 00:00:00 | |
| OE8JPQ-2 | 2026-09-04 12:40:55 | 48.05689 | 12.43900 | 144° | 35km/h | 22993m | -9.5m/s | -53.7°C | 3.8% | 36.4hPa | 2.6V | 08:20:00 | 00:00:00 | 00:00:00 | |
| OE5WHR-10 | 2026-09-04 12:40:54 | 48.05693 | 12.43895 | 147° | 16km/h | 23003m | -10.1m/s | -53.7°C | 3.8% | 36.4hPa | 2.5V | 08:20:00 | 00:00:00 | 00:00:00 | |
| OE5DXL-15 | 2026-09-04 12:40:53 | 48.05698 | 12.43891 | 150° | 22km/h | 23013m | -9.8m/s | -53.8°C | 3.7% | 36.3hPa | 2.5V | 00:00:00 | 00:00:00 | 00:00:00 | |
| BAUMI2-15 | 2026-09-04 12:40:51 | 48.05707 | 12.43884 | 160° | 20km/h | 23032m | -9.8m/s | -53.9°C | 3.8% | 36.2hPa | 2.5V | 00:00:00 | 02:10:53 | 00:00:00 | |
| DK5PH-5 | 2026-09-04 12:40:50 | 48.05712 | 12.43882 | 166° | 24km/h | 23042m | -9.6m/s | 0°C | 0% | 0hPa | 2.5V | 00:00:00 | 02:10:52 | 00:00:00 | |
| OE5MMP-10 | 2026-09-04 12:40:47 | 48.05726 | 12.43880 | 183° | 16km/h | 23071m | -9.5m/s | -54.0°C | 3.9% | 36.0hPa | 2.5V | 00:00:00 | 02:10:49 | 00:00:00 | |
| BAUMI2-15 | 2026-09-04 12:40:46 | 48.05731 | 12.43880 | 187° | 18km/h | 23081m | -10.1m/s | -54.1°C | 3.9% | 35.9hPa | 2.6V | 08:20:00 | 02:10:48 | 00:00:00 | |
| DL6DJ-15 | 2026-09-04 12:40:45 | 48.05740 | 12.43883 | 194° | 18km/h | 23101m | -9.7m/s | -54.1°C | 1.0% | 35.9hPa | 2.5V | 00:00:00 | 00:00:00 | 00:00:00 | |
| OE5HKT-10 | 2026-09-04 12:40:41 | 48.05753 | 12.43889 | 201° | 31km/h | 23131m | -9.9m/s | -54.0°C | 4.0% | 35.6hPa | 2.5V | 00:00:00 | 02:10:43 | 00:00:00 | |
| OE5MMP-10 | 2026-09-04 12:40:37 | 48.05765 | 12.43893 | 178° | 20km/h | 23171m | -9.9m/s | -54.2°C | 4.1% | 35.4hPa | 2.5V | 00:00:00 | 02:10:39 | 00:00:00 | |
| BAUMI2-15 | 2026-09-04 12:40:36 | 48.05769 | 12.43893 | 169° | 16km/h | 23181m | -9.8m/s | -54.2°C | 4.1% | 35.4hPa | 2.5V | 00:00:00 | 02:10:38 | 00:00:00 | |
| OE5WHR-10 | 2026-09-04 12:40:33 | 48.05778 | 12.43884 | 136° | 35km/h | 23211m | -10.0m/s | -54.2°C | 4.1% | 35.2hPa | 2.5V | 00:00:00 | 00:00:00 | 00:00:00 | |
| BAUMI2-15 | 2026-09-04 12:40:31 | 48.05784 | 12.43873 | 117° | 27km/h | 23231m | -9.9m/s | -53.9°C | 4.0% | 35.1hPa | 2.5V | 00:00:00 | 02:10:33 | 00:00:00 | |
| OE5MMP-10 | 2026-09-04 12:40:27 | 48.05788 | 12.43832 | 88° | 42km/h | 23271m | -10.3m/s | -53.7°C | 4.0% | 34.9hPa | 2.5V | 00:00:00 | 02:10:29 | 00:00:00 | |
| OE5FHM-15 | 2026-09-04 12:40:26 | 48.05788 | 12.43819 | 82° | 35km/h | 23282m | -10.1m/s | -53.7°C | 4.0% | 34.8hPa | 2.5V | 00:00:00 | 02:10:28 | 00:00:00 | |
| OE5DXL-15 | 2026-09-04 12:40:23 | 48.05774 | 12.43760 | 62° | 35km/h | 23323m | -10.4m/s | -53.6°C | 4.0% | 34.6hPa | 2.5V | 00:00:00 | 00:00:00 | 00:00:00 | |
| BAUMI2-15 | 2026-09-04 12:40:21 | 48.05768 | 12.43745 | 57° | 44km/h | 23334m | -10.7m/s | -53.7°C | 4.1% | 34.5hPa | 2.5V | 00:00:00 | 02:10:23 | 00:00:00 | |
| OE5MMP-10 | 2026-09-04 12:40:17 | 48.05737 | 12.43697 | 36° | 33km/h | 23375m | -10.2m/s | -54.0°C | 4.2% | 34.3hPa | 2.5V | 00:00:00 | 02:10:19 | 00:00:00 | |
| BAUMI2-15 | 2026-09-04 12:40:16 | 48.05729 | 12.43689 | 29° | 46km/h | 23386m | -10.3m/s | -54.1°C | 4.2% | 34.2hPa | 2.6V | 00:00:00 | 02:10:18 | 00:00:00 | |
| DL6DJ-15 | 2026-09-04 12:40:13 | 48.05704 | 12.43675 | 8° | 31km/h | 23417m | -10.3m/s | -53.7°C | 1.1% | 34.1hPa | 2.6V | 00:00:00 | 00:00:00 | 00:00:00 | |
| DG1MJG | 2026-09-04 12:40:12 | 48.05696 | 12.43674 | 361° | 31km/h | 23428m | -10.5m/s | -53.6°C | 1.1% | 34.1hPa | 2.6V | 08:21:00 | 00:00:00 | 00:00:00 | |
| OE8JPQ-2 | 2026-09-04 12:40:11 | 48.05688 | 12.43675 | 351° | 35km/h | 23438m | -10.1m/s | -53.5°C | 4.0% | 34.0hPa | 2.6V | 00:00:00 | 00:00:00 | 00:00:00 | |
| OE5DRO-10 | 2026-09-04 12:40:08 | 48.05670 | 12.43690 | 312° | 35km/h | 23470m | -10.8m/s | -52.9°C | 3.9% | 33.8hPa | 2.6V | 00:00:00 | 00:00:00 | 00:00:00 | |
| OE5MMP-10 | 2026-09-04 12:40:07 | 48.05667 | 12.43697 | 296° | 31km/h | 23481m | -11.0m/s | -52.7°C | 3.8% | 33.7hPa | 2.6V | 00:00:00 | 02:10:09 | 00:00:00 | |
| DG1MFX-10 | 2026-09-04 12:40:03 | 48.05666 | 12.43727 | 249° | 27km/h | 23513m | -10.8m/s | -52.4°C | 1.0% | 33.6hPa | 2.6V | 08:21:00 | 00:00:00 | 00:00:00 | |
| OE5MMP-10 | 2026-09-04 12:39:57 | 48.05714 | 12.43745 | 152° | 42km/h | 23588m | -11.1m/s | -52.1°C | 3.8% | 33.1hPa | 2.6V | 00:00:00 | 02:09:59 | 00:00:00 | |
| OE5FHM-15 | 2026-09-04 12:39:56 | 48.05722 | 12.43737 | 140° | 40km/h | 23599m | -11.2m/s | -52.1°C | 3.7% | 33.1hPa | 2.6V | 00:00:00 | 02:09:58 | 00:00:00 | |
| OE5DXL-15 | 2026-09-04 12:39:53 | 48.05739 | 12.43699 | 106° | 40km/h | 23634m | -11.5m/s | -51.7°C | 3.7% | 32.9hPa | 2.6V | 00:00:00 | 00:00:00 | 00:00:00 | |
| OE5WHR-10 | 2026-09-04 12:39:51 | 48.05740 | 12.43667 | 81° | 37km/h | 23657m | -11.8m/s | -51.8°C | 3.7% | 32.8hPa | 2.6V | 00:00:00 | 00:00:00 | 00:00:00 | |
| OE8JPQ-2 | 2026-09-04 12:39:49 | 48.05732 | 12.43637 | 56° | 46km/h | 23680m | -10.9m/s | -51.9°C | 3.7% | 32.7hPa | 2.5V | 00:00:00 | 02:09:51 | 00:00:00 | |
| OE5MMP-10 | 2026-09-04 12:39:47 | 48.05716 | 12.43615 | 31° | 35km/h | 23702m | -11.0m/s | -52.0°C | 3.7% | 32.5hPa | 2.5V | 08:21:00 | 02:09:49 | 00:00:00 | |
| DG1MFX-10 | 2026-09-04 12:39:43 | 48.05675 | 12.43608 | 341° | 37km/h | 23747m | -11.2m/s | -51.6°C | 0.9% | 32.4hPa | 2.5V | 08:22:00 | 00:00:00 | 00:00:00 | |
| DL6DJ-15 | 2026-09-04 12:39:42 | 48.05668 | 12.43614 | 326° | 33km/h | 23758m | -11.1m/s | -51.6°C | 0.9% | 32.3hPa | 2.5V | 00:00:00 | 00:00:00 | 00:00:00 | |
| OE5HKT-10 | 2026-09-04 12:39:40 | 48.05657 | 12.43631 | 293° | 33km/h | 23780m | -11.1m/s | -51.4°C | 3.5% | 32.1hPa | 2.5V | 00:00:00 | 00:00:00 | 00:00:00 | |
| OE5MMP-10 | 2026-09-04 12:39:37 | 48.05659 | 12.43660 | 233° | 40km/h | 23814m | -11.2m/s | -51.3°C | 3.5% | 32.0hPa | 2.5V | 00:00:00 | 02:09:39 | 00:00:00 | |
| DH7VM-15 | 2026-09-04 12:39:36 | 48.05659 | 12.43660 | 234° | 27km/h | 23814m | -11.3m/s | -51.3°C | 0.9% | 32.0hPa | 2.5V | 00:00:00 | 00:00:00 | 00:00:00 | |
| OE5WHR-10 | 2026-09-04 12:39:30 | 48.05717 | 12.43643 | 130° | 40km/h | 23895m | -11.3m/s | -50.9°C | 3.5% | 31.6hPa | 2.5V | 00:00:00 | 00:00:00 | 00:00:00 | |
| OE5MMP-10 | 2026-09-04 12:39:27 | 48.05732 | 12.43592 | 97° | 40km/h | 23929m | -11.2m/s | -51.0°C | 3.5% | 31.4hPa | 2.5V | 00:00:00 | 02:09:29 | 00:00:00 | |
| OE5FHM-15 | 2026-09-04 12:39:26 | 48.05732 | 12.43573 | 84° | 38km/h | 23940m | -11.6m/s | -51.1°C | 3.5% | 31.4hPa | 2.5V | 00:00:00 | 02:09:28 | 00:00:00 | |
| OE5DXL-15 | 2026-09-04 12:39:23 | 48.05718 | 12.43527 | 47° | 38km/h | 23975m | -11.7m/s | -51.3°C | 3.5% | 31.2hPa | 2.6V | 00:00:00 | 00:00:00 | 00:00:00 | |
| DG1MFX-10 | 2026-09-04 12:39:21 | 48.05710 | 12.43517 | 33° | 38km/h | 23987m | -11.8m/s | -51.4°C | 0.9% | 31.2hPa | 2.6V | 08:22:00 | 00:00:00 | 00:00:00 | |
| OE5MMP-10 | 2026-09-04 12:39:18 | 48.05673 | 12.43529 | 299° | 38km/h | 24046m | -11.7m/s | -51.1°C | 3.4% | 30.8hPa | 2.6V | 00:00:00 | 02:09:19 | 00:00:00 | |
| PG1ADW-2 | 2026-09-04 12:39:17 | 48.05673 | 12.43529 | 299° | 38km/h | 24046m | -11.7m/s | -51.1°C | 3.4% | 30.8hPa | 2.5V | 00:00:00 | 00:00:00 | 00:00:00 | |
| OE5HKT-10 | 2026-09-04 12:39:15 | 48.05670 | 12.43554 | 265° | 47km/h | 24069m | -12.0m/s | -51.0°C | 3.4% | 30.7hPa | 2.5V | 00:00:00 | 00:00:00 | 00:00:00 | |
| DB0UT-7 | 2026-09-04 12:39:14 | 48.05673 | 12.43568 | 249° | 40km/h | 24081m | -11.9m/s | -50.8°C | 3.4% | 30.7hPa | 2.5V | 00:00:00 | 02:09:16 | 00:00:00 | |
| PETON7-10 | 2026-09-04 12:39:13 | 48.05677 | 12.43581 | 235° | 40km/h | 24093m | -11.9m/s | -50.8°C | 3.4% | 30.6hPa | 2.5V | 00:00:00 | 00:00:00 | 00:00:00 | |
| OE5DRO-10 | 2026-09-04 12:39:11 | 48.05702 | 12.43603 | 190° | 38km/h | 24129m | -11.6m/s | -50.8°C | 3.6% | 30.4hPa | 2.5V | 00:00:00 | 00:00:00 | 00:00:00 | |
| DG1MJG | 2026-09-04 12:39:10 | 48.05702 | 12.43603 | 190° | 40km/h | 24129m | -11.7m/s | -50.8°C | 0.9% | 30.5hPa | 2.5V | 08:22:00 | 00:00:00 | 00:00:00 | |
| OE5WHR-10 | 2026-09-04 12:39:09 | 48.05712 | 12.43604 | 174° | 38km/h | 24141m | -11.8m/s | -50.8°C | 3.6% | 30.4hPa | 2.5V | 00:00:00 | 02:09:11 | 00:00:00 | |
| OE5MMP-10 | 2026-09-04 12:39:07 | 48.05730 | 12.43593 | 143° | 40km/h | 24165m | -11.4m/s | -50.8°C | 3.6% | 30.3hPa | 2.5V | 00:00:00 | 02:09:09 | 00:00:00 | |
| DG1MFX-10 | 2026-09-04 12:39:01 | 48.05742 | 12.43526 | 70° | 40km/h | 24224m | -11.9m/s | -51.0°C | 0.9% | 30.0hPa | 2.5V | 08:23:00 | 00:00:00 | 00:00:00 | |
| PETON7-10 | 2026-09-04 12:38:58 | 48.05712 | 12.43490 | 9° | 40km/h | 24273m | -12.6m/s | -50.8°C | 3.5% | 29.8hPa | 2.5V | 00:00:00 | 00:00:00 | 00:00:00 | |
| OE5MMP-10 | 2026-09-04 12:38:57 | 48.05703 | 12.43490 | 353° | 38km/h | 24285m | -12.0m/s | -50.7°C | 3.5% | 29.7hPa | 2.5V | 00:00:00 | 02:08:59 | 00:00:00 | |
| OE5FHM-15 | 2026-09-04 12:38:56 | 48.05694 | 12.43494 | 336° | 44km/h | 24297m | -11.9m/s | -50.5°C | 3.4% | 29.7hPa | 2.5V | 00:00:00 | 02:08:58 | 00:00:00 | |
| OE5DXL-15 | 2026-09-04 12:38:53 | 48.05677 | 12.43525 | 285° | 46km/h | 24333m | -11.9m/s | -50.2°C | 3.3% | 29.5hPa | 2.5V | 00:00:00 | 00:00:00 | 00:00:00 | |
| OE5DRO-10 | 2026-09-04 12:38:52 | 48.05675 | 12.43539 | 268° | 42km/h | 24345m | -12.6m/s | -50.0°C | 3.3% | 29.4hPa | 2.5V | 00:00:00 | 00:00:00 | 00:00:00 | |
| DO7DH-14 | 2026-09-04 12:38:50 | 48.05682 | 12.43567 | 235° | 49km/h | 24370m | -12.4m/s | -49.8°C | 3.3% | 29.3hPa | 2.5V | 00:00:00 | 02:08:52 | 00:00:00 | |
| OE5WHR-10 | 2026-09-04 12:38:48 | 48.05698 | 12.43586 | 204° | 46km/h | 24395m | -12.0m/s | -49.8°C | 3.4% | 29.2hPa | 2.5V | 00:00:00 | 00:00:00 | 00:00:00 | |
| OE5MMP-10 | 2026-09-04 12:38:47 | 48.05708 | 12.43590 | 187° | 44km/h | 24407m | -12.3m/s | -49.8°C | 3.4% | 29.2hPa | 2.5V | 00:00:00 | 02:08:49 | 00:00:00 | |
| DB0UT-7 | 2026-09-04 12:38:44 | 48.05740 | 12.43577 | 142° | 42km/h | 24444m | -12.5m/s | -49.7°C | 3.4% | 29.0hPa | 2.5V | 00:00:00 | 00:00:00 | 00:00:00 | |
| PETON7-10 | 2026-09-04 12:38:43 | 48.05748 | 12.43565 | 128° | 46km/h | 24456m | -12.2m/s | -49.6°C | 3.4% | 28.9hPa | 2.5V | 00:00:00 | 02:08:45 | 00:00:00 | |
| DG1MFX-10 | 2026-09-04 12:38:41 | 48.05756 | 12.43534 | 98° | 44km/h | 24481m | -12.5m/s | -49.7°C | 0.8% | 28.9hPa | 2.5V | 08:23:00 | 00:00:00 | 00:00:00 | |
| DL6DJ-15 | 2026-09-04 12:38:40 | 48.05756 | 12.43518 | 82° | 42km/h | 24493m | -12.2m/s | -49.8°C | 0.8% | 28.8hPa | 2.5V | 00:00:00 | 00:00:00 | 00:00:00 | |
| DG1MJG | 2026-09-04 12:38:39 | 48.05756 | 12.43518 | 83° | 44km/h | 24493m | -12.2m/s | -49.8°C | 0.8% | 28.8hPa | 2.5V | 08:23:00 | 00:00:00 | 00:00:00 | |
| OE5MMP-10 | 2026-09-04 12:38:37 | 48.05740 | 12.43480 | 34° | 47km/h | 24531m | -12.4m/s | -49.8°C | 3.3% | 28.6hPa | 2.5V | 00:00:00 | 02:08:39 | 00:00:00 | |
| OE5DRO-10 | 2026-09-04 12:38:33 | 48.05701 | 12.43482 | 325° | 46km/h | 24581m | -12.2m/s | -49.5°C | 3.1% | 28.4hPa | 2.5V | 00:00:00 | 00:00:00 | 00:00:00 | |
| PETON7-10 | 2026-09-04 12:38:28 | 48.05683 | 12.43572 | 258° | 44km/h | 24643m | -12.7m/s | -49.3°C | 3.1% | 28.1hPa | 2.6V | 00:00:00 | 00:00:00 | 00:00:00 | |
| OE5MMP-10 | 2026-09-04 12:38:27 | 48.05687 | 12.43592 | 247° | 40km/h | 24656m | -12.7m/s | -49.3°C | 3.2% | 28.0hPa | 2.6V | 00:00:00 | 02:08:29 | 00:00:00 | |
| OE5FHM-15 | 2026-09-04 12:38:26 | 48.05694 | 12.43611 | 236° | 46km/h | 24669m | -12.8m/s | -49.3°C | 3.3% | 28.0hPa | 2.6V | 00:00:00 | 02:08:28 | 00:00:00 | |
| OE5DXL-15 | 2026-09-04 12:38:23 | 48.05722 | 12.43646 | 201° | 42km/h | 24707m | -12.8m/s | -49.3°C | 3.3% | 27.8hPa | 2.6V | 00:00:00 | 00:00:00 | 00:00:00 | |
| DG1MFX-10 | 2026-09-04 12:38:19 | 48.05745 | 12.43643 | 137° | 24km/h | 24746m | -13.1m/s | -49.5°C | 0.8% | 27.7hPa | 2.6V | 08:23:00 | 00:00:00 | 00:00:00 | |
| OE5MMP-10 | 2026-09-04 12:38:17 | 48.05744 | 12.43616 | 54° | 51km/h | 24786m | -13.2m/s | -49.2°C | 3.2% | 27.5hPa | 2.6V | 08:23:00 | 02:08:19 | 00:00:00 | |
| PETON7-10 | 2026-09-04 12:38:13 | 48.05701 | 12.43590 | 360° | 49km/h | 24839m | -13.0m/s | -49.7°C | 3.2% | 27.3hPa | 2.5V | 00:00:00 | 00:00:00 | 00:00:00 | |
| DL6DJ-15 | 2026-09-04 12:38:09 | 48.05637 | 12.43655 | 285° | 42km/h | 24919m | -13.3m/s | -49.3°C | 0.8% | 26.9hPa | 2.5V | 00:00:00 | 00:00:00 | 00:00:00 | |
| OE5WHR-10 | 2026-09-04 12:38:06 | 48.05636 | 12.43670 | 270° | 44km/h | 24932m | -13.1m/s | -49.1°C | 3.2% | 26.9hPa | 2.5V | 00:00:00 | 02:08:08 | 00:00:00 | |
| BAUMI2-15 | 2026-09-04 12:38:02 | 48.05653 | 12.43700 | 173° | 37km/h | 24985m | -13.3m/s | -48.7°C | 3.2% | 26.6hPa | 2.5V | 00:00:00 | 02:08:04 | 00:00:00 | |
| OE5MMP-10 | 2026-09-04 12:37:57 | 48.05673 | 12.43643 | 82° | 53km/h | 25053m | -13.7m/s | -48.8°C | 3.2% | 26.4hPa | 2.5V | 00:00:00 | 02:07:59 | 00:00:00 | |
| OE8JPQ-2 | 2026-09-04 12:37:54 | 48.05654 | 12.43593 | 41° | 53km/h | 25093m | -13.0m/s | -49.1°C | 3.2% | 26.2hPa | 2.5V | 00:00:00 | 00:00:00 | 00:00:00 | |
| DH7VM-15 | 2026-09-04 12:37:53 | 48.05642 | 12.43581 | 29° | 55km/h | 25106m | -13.0m/s | -49.2°C | 0.8% | 26.2hPa | 2.6V | 00:00:00 | 00:00:00 | 00:00:00 | |
| BAUMI2-15 | 2026-09-04 12:37:52 | 48.05630 | 12.43574 | 15° | 53km/h | 25119m | -12.8m/s | -49.2°C | 3.2% | 26.1hPa | 2.6V | 00:00:00 | 02:07:54 | 00:00:00 | |
| OE5FHM-15 | 2026-09-04 12:37:51 | 48.05616 | 12.43571 | 2° | 44km/h | 25132m | -13.2m/s | -49.1°C | 3.1% | 26.0hPa | 2.6V | 08:23:00 | 02:07:53 | 00:00:00 | |
| OE5MMP-10 | 2026-09-04 12:37:47 | 48.05571 | 12.43600 | 309° | 37km/h | 25186m | -14.0m/s | -48.8°C | 3.0% | 25.8hPa | 2.5V | 00:00:00 | 02:07:49 | 00:00:00 | |
| OE5WHR-10 | 2026-09-04 12:37:45 | 48.05564 | 12.43627 | 276° | 44km/h | 25214m | -13.6m/s | -48.8°C | 3.1% | 25.7hPa | 2.7V | 08:24:00 | 00:00:00 | 00:00:00 | |
| BAUMI2-15 | 2026-09-04 12:37:42 | 48.05575 | 12.43657 | 207° | 38km/h | 25254m | -13.7m/s | -48.7°C | 3.2% | 25.6hPa | 2.5V | 00:00:00 | 02:07:44 | 00:00:00 | |
| DB0UT-7 | 2026-09-04 12:37:41 | 48.05583 | 12.43660 | 185° | 42km/h | 25268m | -14.0m/s | -48.7°C | 3.2% | 25.5hPa | 2.5V | 08:24:00 | 02:07:43 | 00:00:00 | |
| DL6DJ-15 | 2026-09-04 12:37:38 | 48.05608 | 12.43642 | 129° | 42km/h | 25311m | -14.2m/s | -48.7°C | 0.8% | 25.4hPa | 2.5V | 00:00:00 | 00:00:00 | 00:00:00 | |
| OE5MMP-10 | 2026-09-04 12:37:37 | 48.05614 | 12.43627 | 114° | 51km/h | 25325m | -14.0m/s | -48.7°C | 3.2% | 25.2hPa | 2.5V | 00:00:00 | 02:07:39 | 00:00:00 | |
| OE8JPQ-2 | 2026-09-04 12:37:32 | 48.05599 | 12.43542 | 39° | 55km/h | 25393m | -13.6m/s | -49.1°C | 3.2% | 25.0hPa | 2.5V | 00:00:00 | 00:00:00 | 00:00:00 | |
| BAUMI2-15 | 2026-09-04 12:37:27 | 48.05540 | 12.43538 | 323° | 40km/h | 25464m | -14.5m/s | -48.6°C | 3.0% | 24.7hPa | 2.5V | 00:00:00 | 02:07:29 | 00:00:00 | |
| OE5WHR-10 | 2026-09-04 12:37:24 | 48.05527 | 12.43577 | 262° | 42km/h | 25507m | -14.1m/s | -48.4°C | 3.0% | 24.6hPa | 2.5V | 00:00:00 | 00:00:00 | 00:00:00 | |
| BAUMI2-15 | 2026-09-04 12:37:22 | 48.05537 | 12.43599 | 215° | 47km/h | 25536m | -13.9m/s | -48.2°C | 3.0% | 24.4hPa | 2.5V | 00:00:00 | 02:07:24 | 00:00:00 | |
| OE5FHM-15 | 2026-09-04 12:37:21 | 48.05547 | 12.43606 | 195° | 49km/h | 25549m | -13.5m/s | -48.2°C | 3.1% | 24.4hPa | 2.5V | 00:00:00 | 02:07:23 | 00:00:00 | |
| BAUMI2-15 | 2026-09-04 12:37:17 | 48.05592 | 12.43579 | 130° | 57km/h | 25605m | -14.1m/s | -48.4°C | 3.1% | 24.2hPa | 2.5V | 00:00:00 | 02:07:19 | 00:00:00 | |
| OE8JPQ-2 | 2026-09-04 12:37:12 | 48.05597 | 12.43483 | 56° | 47km/h | 25676m | -14.0m/s | -48.7°C | 3.1% | 23.9hPa | 2.5V | 00:00:00 | 02:07:14 | 00:00:00 | |
| OE5MMP-10 | 2026-09-04 12:37:07 | 48.05550 | 12.43471 | 318° | 51km/h | 25747m | -14.4m/s | -48.7°C | 3.0% | 23.7hPa | 2.5V | 00:00:00 | 02:07:09 | 00:00:00 | |
| DB0UT-7 | 2026-09-04 12:37:04 | 48.05539 | 12.43517 | 262° | 53km/h | 25791m | -14.8m/s | -48.8°C | 3.1% | 23.5hPa | 2.5V | 00:00:00 | 00:00:00 | 00:00:00 | |
| BAUMI2-15 | 2026-09-04 12:37:02 | 48.05550 | 12.43551 | 228° | 55km/h | 25821m | -14.5m/s | -48.7°C | 3.1% | 23.4hPa | 2.5V | 00:00:00 | 02:07:04 | 00:00:00 | |
| BAUMI2-15 | 2026-09-04 12:36:57 | 48.05614 | 12.43561 | 148° | 57km/h | 25893m | -15.1m/s | -49.1°C | 3.3% | 23.1hPa | 2.5V | 00:00:00 | 02:06:59 | 00:00:00 | |
| OE5WHR-10 | 2026-09-04 12:36:47 | 48.05580 | 12.43451 | 326° | 55km/h | 26043m | -14.9m/s | -49.2°C | 3.2% | 22.6hPa | 2.5V | 00:00:00 | 02:06:49 | 00:00:00 | |
| BAUMI2-15 | 2026-09-04 12:36:42 | 48.05571 | 12.43538 | 235° | 53km/h | 26118m | -14.7m/s | -49.1°C | 3.2% | 22.3hPa | 2.5V | 00:00:00 | 02:06:44 | 00:00:00 | |
| DG1MFX-10 | 2026-09-04 12:36:37 | 48.05630 | 12.43547 | 141° | 55km/h | 26193m | -15.2m/s | -49.1°C | 0.8% | 22.1hPa | 2.5V | 08:25:00 | 00:00:00 | 00:00:00 | |
| DL6DJ-15 | 2026-09-04 12:36:36 | 48.05639 | 12.43532 | 121° | 55km/h | 26208m | -15.4m/s | -49.1°C | 0.8% | 22.1hPa | 2.5V | 00:00:00 | 00:00:00 | 00:00:00 | |
| BAUMI2-15 | 2026-09-04 12:36:32 | 48.05635 | 12.43453 | 50° | 55km/h | 26269m | -14.9m/s | -48.5°C | 3.2% | 21.9hPa | 2.5V | 00:00:00 | 02:06:34 | 00:00:00 | |
| OE5MMP-10 | 2026-09-04 12:36:27 | 48.05575 | 12.43447 | 317° | 49km/h | 26344m | -15.2m/s | -48.4°C | 3.1% | 21.6hPa | 2.5V | 00:00:00 | 02:06:29 | 00:00:00 | |
| PETON7-10 | 2026-09-04 12:36:26 | 48.05567 | 12.43463 | 300° | 58km/h | 26359m | -15.3m/s | -48.2°C | 3.0% | 21.5hPa | 2.5V | 08:25:00 | 00:00:00 | 00:00:00 | |
| OE5FHM-15 | 2026-09-04 12:36:23 | 48.05566 | 12.43518 | 242° | 55km/h | 26404m | -15.2m/s | -48.1°C | 3.0% | 21.4hPa | 2.6V | 00:00:00 | 02:06:25 | 00:00:00 | |
| BAUMI2-15 | 2026-09-04 12:36:22 | 48.05574 | 12.43532 | 223° | 47km/h | 26419m | -14.8m/s | -47.9°C | 3.0% | 21.3hPa | 2.6V | 00:00:00 | 02:06:24 | 00:00:00 | |
| DG1MFX-10 | 2026-09-04 12:36:17 | 48.05624 | 12.43517 | 118° | 49km/h | 26497m | -15.3m/s | -48.0°C | 0.8% | 21.1hPa | 2.6V | 08:25:00 | 00:00:00 | 00:00:00 | |
| OE5WHR-10 | 2026-09-04 12:36:12 | 48.05598 | 12.43429 | 25° | 55km/h | 26573m | -15.7m/s | -47.9°C | 3.1% | 20.8hPa | 2.6V | 00:00:00 | 00:00:00 | 00:00:00 | |
| PETON7-10 | 2026-09-04 12:36:08 | 48.05534 | 12.43438 | 325° | 55km/h | 26636m | -15.9m/s | -47.8°C | 3.0% | 20.6hPa | 2.6V | 00:00:00 | 00:00:00 | 00:00:00 | |
| OE5MMP-10 | 2026-09-04 12:36:07 | 48.05523 | 12.43455 | 308° | 53km/h | 26652m | -15.9m/s | -47.8°C | 2.9% | 20.5hPa | 2.6V | 00:00:00 | 02:06:09 | 00:00:00 | |
| DL6DJ-15 | 2026-09-04 12:36:05 | 48.05512 | 12.43496 | 272° | 55km/h | 26683m | -15.1m/s | -47.8°C | 0.7% | 20.5hPa | 2.6V | 00:00:00 | 00:00:00 | 00:00:00 | |
| DB0UT-7 | 2026-09-04 12:36:02 | 48.05529 | 12.43543 | 209° | 53km/h | 26728m | -14.8m/s | -47.4°C | 2.9% | 20.3hPa | 2.6V | 00:00:00 | 02:06:04 | 00:00:00 | |
| OE5MMP-10 | 2026-09-04 12:35:58 | 48.05578 | 12.43510 | 108° | 53km/h | 26806m | -15.6m/s | -47.8°C | 3.0% | 20.1hPa | 2.6V | 00:00:00 | 02:05:59 | 00:00:00 | |
| DG1MFX-10 | 2026-09-04 12:35:55 | 48.05580 | 12.43491 | 89° | 51km/h | 26822m | -15.6m/s | -47.9°C | 0.8% | 20.1hPa | 2.6V | 08:25:00 | 00:00:00 | 00:00:00 | |
| PETON7-10 | 2026-09-04 12:35:53 | 48.05561 | 12.43444 | 28° | 55km/h | 26868m | -15.7m/s | -48.0°C | 3.0% | 19.9hPa | 2.6V | 00:00:00 | 02:05:55 | 00:00:00 | |
| OE5MMP-10 | 2026-09-04 12:35:47 | 48.05499 | 12.43499 | 279° | 53km/h | 26960m | -15.6m/s | -48.0°C | 3.0% | 19.6hPa | 2.6V | 00:00:00 | 02:05:49 | 00:00:00 | |
| OE5FHM-15 | 2026-09-04 12:35:46 | 48.05499 | 12.43522 | 262° | 57km/h | 26976m | -15.9m/s | -48.0°C | 3.0% | 19.6hPa | 2.6V | 00:00:00 | 02:05:48 | 00:00:00 | |
| PETON7-10 | 2026-09-04 12:35:38 | 48.05567 | 12.43534 | 95° | 60km/h | 27106m | -16.1m/s | -48.0°C | 3.2% | 19.2hPa | 2.5V | 00:00:00 | 00:00:00 | 00:00:00 | |
| OE5MMP-10 | 2026-09-04 12:35:37 | 48.05567 | 12.43512 | 79° | 66km/h | 27122m | -15.2m/s | -48.1°C | 3.2% | 19.1hPa | 2.5V | 00:00:00 | 02:05:39 | 00:00:00 | |
| DG1MFX-10 | 2026-09-04 12:35:35 | 48.05561 | 12.43491 | 60° | 66km/h | 27137m | -15.7m/s | -48.1°C | 0.8% | 19.1hPa | 2.5V | 08:26:00 | 00:00:00 | 00:00:00 | |
| DL6DJ-15 | 2026-09-04 12:35:34 | 48.05500 | 12.43444 | 358° | 71km/h | 27203m | -16.5m/s | -47.9°C | 0.8% | 18.9hPa | 2.5V | 00:00:00 | 00:00:00 | 00:00:00 | |
| OE8JPQ-2 | 2026-09-04 12:35:32 | 48.05500 | 12.43444 | 359° | 62km/h | 27203m | -16.5m/s | -47.9°C | 3.1% | 18.9hPa | 2.5V | 00:00:00 | 00:00:00 | 00:00:00 | |
| DB0UT-7 | 2026-09-04 12:35:31 | 48.05482 | 12.43447 | 346° | 33km/h | 27219m | -16.1m/s | -47.9°C | 3.1% | 18.8hPa | 2.5V | 00:00:00 | 00:00:00 | 00:00:00 | |
| OE5MMP-10 | 2026-09-04 12:35:27 | 48.05445 | 12.43506 | 271° | 55km/h | 27286m | -17.1m/s | -47.6°C | 3.1% | 18.7hPa | 2.5V | 00:00:00 | 02:05:29 | 00:00:00 | |
| PETON7-10 | 2026-09-04 12:35:23 | 48.05474 | 12.43540 | 169° | 58km/h | 27352m | -16.1m/s | -47.0°C | 3.0% | 18.5hPa | 2.5V | 00:00:00 | 00:00:00 | 00:00:00 | |
| OE5DXL-15 | 2026-09-04 12:35:22 | 48.05486 | 12.43533 | 149° | 62km/h | 27368m | -16.0m/s | -47.0°C | 3.1% | 18.4hPa | 2.5V | 00:00:00 | 00:00:00 | 00:00:00 | |
| OE5MMP-10 | 2026-09-04 12:35:17 | 48.05506 | 12.43421 | 69° | 58km/h | 27453m | -17.9m/s | -46.9°C | 3.1% | 18.2hPa | 2.5V | 08:26:00 | 02:05:19 | 00:00:00 | |
| DG1MFX-10 | 2026-09-04 12:35:14 | 48.05486 | 12.43380 | 38° | 66km/h | 27488m | -17.7m/s | -47.0°C | 0.7% | 18.1hPa | 2.5V | 08:26:00 | 00:00:00 | 00:00:00 | |
| OE8JPQ-2 | 2026-09-04 12:35:12 | 48.05445 | 12.43368 | 339° | 60km/h | 27538m | -16.7m/s | -46.8°C | 3.0% | 17.9hPa | 2.5V | 00:00:00 | 02:05:14 | 00:00:00 | |
| PETON7-10 | 2026-09-04 12:35:08 | 48.05425 | 12.43433 | 254° | 60km/h | 27607m | -18.3m/s | -46.3°C | 2.9% | 17.7hPa | 2.5V | 00:00:00 | 02:05:10 | 00:00:00 | |
| OE5MMP-10 | 2026-09-04 12:35:07 | 48.05431 | 12.43452 | 235° | 62km/h | 27625m | -18.0m/s | -46.2°C | 2.9% | 17.7hPa | 2.5V | 00:00:00 | 02:05:09 | 00:00:00 | |
| DH7VM-15 | 2026-09-04 12:35:06 | 48.05431 | 12.43452 | 235° | 58km/h | 27625m | -18.1m/s | -46.3°C | 0.7% | 17.7hPa | 2.5V | 00:00:00 | 00:00:00 | 00:00:00 | |
| DL6DJ-15 | 2026-09-04 12:35:03 | 48.05483 | 12.43474 | 155° | 58km/h | 27694m | -16.6m/s | -45.9°C | 0.7% | 17.6hPa | 2.5V | 00:00:00 | 00:00:00 | 00:00:00 | |
| OE5MMP-10 | 2026-09-04 12:34:57 | 48.05500 | 12.43350 | 52° | 60km/h | 27797m | -18.0m/s | -45.4°C | 2.8% | 17.2hPa | 2.5V | 00:00:00 | 02:04:59 | 00:00:00 | |
| DG1MFX-10 | 2026-09-04 12:34:54 | 48.05475 | 12.43323 | 18° | 62km/h | 27831m | -16.8m/s | -45.4°C | 0.7% | 17.2hPa | 2.5V | 08:26:00 | 00:00:00 | 00:00:00 | |
| PETON7-10 | 2026-09-04 12:34:53 | 48.05446 | 12.43325 | 338° | 57km/h | 27864m | -16.3m/s | -45.0°C | 2.7% | 17.1hPa | 2.5V | 00:00:00 | 00:00:00 | 00:00:00 | |
| OE5DXL-15 | 2026-09-04 12:34:52 | 48.05434 | 12.43336 | 318° | 55km/h | 27880m | -16.1m/s | -44.9°C | 2.6% | 17.0hPa | 2.5V | 00:00:00 | 00:00:00 | 00:00:00 | |
| OE8JPQ-2 | 2026-09-04 12:34:50 | 48.05420 | 12.43374 | 280° | 55km/h | 27914m | -17.4m/s | -44.8°C | 2.6% | 16.9hPa | 2.6V | 00:00:00 | 00:00:00 | 00:00:00 | |
| OE5MMP-10 | 2026-09-04 12:34:37 | 48.05495 | 12.43355 | 49° | 53km/h | 28130m | -15.6m/s | -44.3°C | 2.6% | 16.4hPa | 2.7V | 00:00:00 | 02:04:39 | 00:00:00 | |
| DG1MFX-10 | 2026-09-04 12:34:33 | 48.05459 | 12.43332 | 1° | 53km/h | 28178m | -15.8m/s | -44.4°C | 0.6% | 16.3hPa | 2.7V | 08:27:00 | 00:00:00 | 00:00:00 | |
| DL6DJ-15 | 2026-09-04 12:34:32 | 48.05423 | 12.43354 | 316° | 53km/h | 28225m | -15.2m/s | -44.4°C | -1.0% | -1.0hPa | 2.7V | 00:00:00 | 00:00:00 | 00:00:00 | |
| OE5FHM-15 | 2026-09-04 12:34:29 | 48.05408 | 12.43387 | 290° | 46km/h | 28256m | -15.1m/s | -44.4°C | 2.6% | 16.1hPa | 2.7V | 00:00:00 | 02:04:31 | 00:00:00 | |
| OE5MMP-10 | 2026-09-04 12:34:27 | 48.05405 | 12.43426 | 266° | 46km/h | 28285m | -14.8m/s | -44.3°C | 2.5% | 16.0hPa | 2.7V | 00:00:00 | 02:04:29 | 00:00:00 | |
| DO3MHA-11 | 2026-09-04 12:34:22 | 48.05436 | 12.43501 | 211° | 38km/h | 28360m | -14.7m/s | -44.2°C | 2.5% | 15.8hPa | 2.7V | 00:00:00 | 02:04:24 | 00:00:00 | |
| OE5REO-15 | 2026-09-04 12:34:18 | 48.05466 | 12.43514 | 181° | 38km/h | 28404m | -14.5m/s | -44.4°C | 0.6% | 15.7hPa | 2.7V | 08:27:00 | 00:00:00 | 00:00:00 | |
| OE5MMP-10 | 2026-09-04 12:34:17 | 48.05483 | 12.43509 | 157° | 33km/h | 28433m | -14.4m/s | -44.3°C | 2.5% | 15.6hPa | 2.7V | 00:00:00 | 02:04:19 | 00:00:00 | |
| DG1MFX-10 | 2026-09-04 12:34:13 | 48.05500 | 12.43487 | 122° | 29km/h | 28477m | -14.5m/s | -44.5°C | 0.6% | 15.6hPa | 2.5V | 08:27:00 | 00:00:00 | 00:00:00 | |
| DO3MHA-11 | 2026-09-04 12:34:12 | 48.05505 | 12.43466 | 94° | 46km/h | 28506m | -14.2m/s | -44.6°C | 2.6% | 15.5hPa | 2.5V | 00:00:00 | 02:04:14 | 00:00:00 | |
| BAUMI2-15 | 2026-09-04 12:34:11 | 48.05504 | 12.43454 | 82° | 37km/h | 28520m | -14.3m/s | -44.6°C | 2.6% | 15.4hPa | 2.5V | 00:00:00 | 02:04:13 | 00:00:00 | |
| OE8JPQ-2 | 2026-09-04 12:34:09 | 48.05498 | 12.43430 | 62° | 53km/h | 28549m | -14.1m/s | -44.7°C | 2.6% | 15.4hPa | 2.5V | 00:00:00 | 02:04:11 | 00:00:00 | |
| OE5MMP-10 | 2026-09-04 12:34:07 | 48.05486 | 12.43407 | 44° | 53km/h | 28577m | -13.9m/s | -44.8°C | 2.6% | 15.3hPa | 2.5V | 00:00:00 | 02:04:09 | 00:00:00 | |
| BAUMI2-15 | 2026-09-04 12:34:06 | 48.05478 | 12.43397 | 37° | 49km/h | 28591m | -13.8m/s | -44.9°C | 2.6% | 15.3hPa | 2.5V | 00:00:00 | 02:04:08 | 00:00:00 | |
| OE5REO-15 | 2026-09-04 12:34:02 | 48.05445 | 12.43372 | 20° | 51km/h | 28633m | -13.9m/s | -45.0°C | 0.6% | 15.2hPa | 2.5V | 00:00:00 | 00:00:00 | 00:00:00 | |
| DL6DJ-15 | 2026-09-04 12:34:01 | 48.05405 | 12.43359 | 5° | 57km/h | 28675m | -14.1m/s | 0°C | -1.0% | -1.0hPa | 2.5V | 00:00:00 | 00:00:00 | 00:00:00 | |
| DO3MHA-11 | 2026-09-04 12:34:00 | 48.05405 | 12.43359 | 6° | 57km/h | 28675m | -14.1m/s | -45.1°C | 2.7% | 15.1hPa | 2.5V | 00:00:00 | 02:04:02 | 00:00:00 | |
| OE5MMP-10 | 2026-09-04 12:33:57 | 48.05360 | 12.43358 | 357° | 55km/h | 28718m | -14.3m/s | -45.3°C | 2.7% | 15.0hPa | 2.5V | 00:00:00 | 02:03:59 | 00:00:00 | |
| BAUMI2-15 | 2026-09-04 12:33:56 | 48.05345 | 12.43360 | 354° | 57km/h | 28733m | -14.2m/s | -45.3°C | 2.7% | 14.9hPa | 2.5V | 00:00:00 | 02:03:58 | 00:00:00 | |
| OE5DXL-15 | 2026-09-04 12:33:52 | 48.05289 | 12.43373 | 349° | 53km/h | 28790m | -14.2m/s | -45.4°C | 2.7% | 14.8hPa | 2.5V | 00:00:00 | 00:00:00 | 00:00:00 | |
| BAUMI2-15 | 2026-09-04 12:33:51 | 48.05275 | 12.43378 | 347° | 53km/h | 28804m | -14.3m/s | -45.5°C | 2.7% | 14.8hPa | 2.5V | 00:00:00 | 02:03:53 | 00:00:00 | |
| DO3MHA-11 | 2026-09-04 12:33:50 | 48.05262 | 12.43382 | 347° | 51km/h | 28819m | -14.5m/s | -45.5°C | 2.8% | 14.7hPa | 2.5V | 00:00:00 | 02:03:52 | 00:00:00 | |
| OE8JPQ-2 | 2026-09-04 12:33:49 | 48.05249 | 12.43387 | 347° | 51km/h | 28833m | -14.2m/s | -45.5°C | 2.8% | 14.7hPa | 2.5V | 00:00:00 | 00:00:00 | 00:00:00 | |
| OE5REO-15 | 2026-09-04 12:33:47 | 48.05224 | 12.43396 | 345° | 49km/h | 28862m | -14.0m/s | -45.4°C | 0.6% | 14.7hPa | 2.7V | 00:00:00 | 00:00:00 | 00:00:00 | |
| BAUMI2-15 | 2026-09-04 12:33:46 | 48.05212 | 12.43401 | 345° | 49km/h | 28876m | -14.2m/s | -45.3°C | 2.7% | 14.6hPa | 2.7V | 00:00:00 | 02:03:48 | 00:00:00 | |
| BAUMI2-15 | 2026-09-04 12:33:41 | 48.05152 | 12.43430 | 339° | 51km/h | 28946m | -13.9m/s | -45.1°C | 2.7% | 14.4hPa | 2.7V | 08:28:00 | 02:03:43 | 00:00:00 | |
| DO3MHA-11 | 2026-09-04 12:33:40 | 48.05140 | 12.43438 | 339° | 51km/h | 28960m | -13.9m/s | -45.1°C | 2.7% | 14.4hPa | 2.7V | 00:00:00 | 02:03:42 | 00:00:00 | |
| OE5MMP-10 | 2026-09-04 12:33:37 | 48.05104 | 12.43460 | 336° | 53km/h | 29003m | -14.0m/s | -45.1°C | 2.7% | 14.3hPa | 2.7V | 00:00:00 | 02:03:39 | 00:00:00 | |
| BAUMI2-15 | 2026-09-04 12:33:36 | 48.05092 | 12.43469 | 336° | 53km/h | 29017m | -14.0m/s | -45.1°C | 2.7% | 14.3hPa | 2.7V | 00:00:00 | 02:03:38 | 00:00:00 | |
| OE5WHR-10 | 2026-09-04 12:33:32 | 48.05042 | 12.43501 | 336° | 53km/h | 29075m | -14.4m/s | -45.2°C | 2.7% | 14.2hPa | 2.7V | 00:00:00 | 00:00:00 | 00:00:00 | |
| BAUMI2-15 | 2026-09-04 12:33:31 | 48.05030 | 12.43509 | 336° | 53km/h | 29090m | -14.1m/s | -45.2°C | 2.7% | 14.1hPa | 2.7V | 00:00:00 | 02:03:33 | 00:00:00 | |
| OE8JPQ-2 | 2026-09-04 12:33:29 | 48.05006 | 12.43525 | 337° | 55km/h | 29118m | -14.4m/s | -45.2°C | 2.7% | 14.1hPa | 2.7V | 00:00:00 | 00:00:00 | 00:00:00 | |
| OE5MMP-10 | 2026-09-04 12:33:27 | 48.04982 | 12.43541 | 337° | 55km/h | 29147m | -14.6m/s | -45.3°C | 2.7% | 14.0hPa | 2.7V | 00:00:00 | 02:03:29 | 00:00:00 | |
| BAUMI2-15 | 2026-09-04 12:33:26 | 48.04970 | 12.43549 | 336° | 55km/h | 29162m | -14.5m/s | -45.3°C | 2.7% | 14.0hPa | 2.7V | 00:00:00 | 02:03:28 | 00:00:00 | |
| OE5DXL-15 | 2026-09-04 12:33:22 | 48.04919 | 12.43579 | 341° | 55km/h | 29221m | -14.7m/s | -45.3°C | 2.7% | 13.8hPa | 2.7V | 08:28:00 | 00:00:00 | 00:00:00 | |
| BAUMI2-15 | 2026-09-04 12:33:21 | 48.04906 | 12.43585 | 345° | 55km/h | 29237m | -15.0m/s | -45.2°C | 2.7% | 13.8hPa | 2.5V | 00:00:00 | 02:03:23 | 00:00:00 | |
| OE5MMP-10 | 2026-09-04 12:33:17 | 48.04851 | 12.43600 | 357° | 53km/h | 29296m | -15.0m/s | -45.5°C | 2.8% | 13.7hPa | 2.5V | 00:00:00 | 02:03:19 | 00:00:00 | |
| BAUMI2-15 | 2026-09-04 12:33:16 | 48.04837 | 12.43601 | 360° | 53km/h | 29311m | -14.9m/s | -45.5°C | 2.8% | 13.6hPa | 2.5V | 00:00:00 | 02:03:18 | 00:00:00 | |
| BAUMI2-15 | 2026-09-04 12:33:11 | 48.04771 | 12.43587 | 19° | 55km/h | 29385m | -15.0m/s | -45.5°C | 2.9% | 13.5hPa | 2.5V | 00:00:00 | 02:03:13 | 00:00:00 | |
| DG1MFX-10 | 2026-09-04 12:33:10 | 48.04771 | 12.43587 | 19° | 55km/h | 29385m | -15.1m/s | -45.6°C | 0.7% | 13.5hPa | 2.7V | 08:29:00 | 00:00:00 | 00:00:00 | |
| OE8JPQ-2 | 2026-09-04 12:33:09 | 48.04745 | 12.43571 | 27° | 53km/h | 29415m | -15.0m/s | -45.4°C | 2.8% | 13.5hPa | 2.7V | 00:00:00 | 02:03:11 | 00:00:00 | |
| OE5MMP-10 | 2026-09-04 12:33:07 | 48.04722 | 12.43551 | 35° | 53km/h | 29444m | -14.6m/s | -45.3°C | 2.8% | 13.4hPa | 2.7V | 00:00:00 | 02:03:09 | 00:00:00 | |
| BAUMI2-15 | 2026-09-04 12:33:06 | 48.04711 | 12.43539 | 41° | 53km/h | 29459m | -14.3m/s | -45.2°C | 2.9% | 13.3hPa | 2.7V | 00:00:00 | 02:03:08 | 00:00:00 | |
| DL6DJ-15 | 2026-09-04 12:32:59 | 48.04648 | 12.43363 | 80° | 53km/h | 29606m | -14.7m/s | 0°C | -1.0% | -1.0hPa | 2.7V | 00:00:00 | 00:00:00 | 00:00:00 | |
| OE5MMP-10 | 2026-09-04 12:32:57 | 48.04651 | 12.43384 | 77° | 49km/h | 29591m | -15.4m/s | -44.5°C | 2.7% | 13.1hPa | 2.7V | 00:00:00 | 02:02:59 | 00:00:00 | |
| BAUMI2-15 | 2026-09-04 12:32:56 | 48.04648 | 12.43363 | 81° | 51km/h | 29606m | -14.6m/s | -44.4°C | 2.7% | 13.0hPa | 2.7V | 08:28:00 | 02:02:58 | 00:00:00 | |
| OE5DXL-15 | 2026-09-04 12:32:52 | 48.04647 | 12.43286 | 98° | 37km/h | 29666m | -15.2m/s | -44.1°C | 2.6% | 12.9hPa | 2.7V | 00:00:00 | 00:00:00 | 00:00:00 | |
| BAUMI2-15 | 2026-09-04 12:32:51 | 48.04649 | 12.43268 | 102° | 42km/h | 29681m | -15.3m/s | -44.1°C | 2.6% | 12.9hPa | 2.7V | 00:00:00 | 02:02:53 | 00:00:00 | |
| OE5WHR-10 | 2026-09-04 12:32:50 | 48.04652 | 12.43252 | 110° | 31km/h | 29696m | -14.6m/s | -44.1°C | 2.6% | 12.9hPa | 2.7V | 00:00:00 | 00:00:00 | 00:00:00 | |
| OE8JPQ-2 | 2026-09-04 12:32:49 | 48.04656 | 12.43237 | 113° | 31km/h | 29711m | -15.6m/s | -44.2°C | 2.6% | 12.8hPa | 2.6V | 08:28:00 | 00:00:00 | 00:00:00 | |
| PETON7-10 | 2026-09-04 12:32:47 | 48.04666 | 12.43213 | 131° | 29km/h | 29742m | -14.8m/s | 0°C | 0% | 0hPa | 2.5V | 00:00:00 | 02:02:49 | 00:00:00 | |
| BAUMI2-15 | 2026-09-04 12:32:46 | 48.04672 | 12.43203 | 136° | 33km/h | 29757m | -15.6m/s | -44.0°C | 2.6% | 12.7hPa | 2.5V | 00:00:00 | 02:02:48 | 00:00:00 | |
| OE5REO-15 | 2026-09-04 12:32:45 | 48.04672 | 12.43203 | 136° | 37km/h | 29757m | -15.6m/s | -44.0°C | 0.6% | 12.8hPa | 2.5V | 08:29:00 | 00:00:00 | 00:00:00 | |
| BAUMI2-15 | 2026-09-04 12:32:41 | 48.04707 | 12.43183 | 190° | 26km/h | 29833m | -15.5m/s | -43.7°C | 2.5% | 12.6hPa | 2.5V | 00:00:00 | 02:02:43 | 00:00:00 | |
| OE5MMP-10 | 2026-09-04 12:32:37 | 48.04729 | 12.43204 | 237° | 31km/h | 29894m | -16.0m/s | -43.7°C | 2.5% | 12.5hPa | 2.5V | 00:00:00 | 02:02:39 | 00:00:00 | |
| BAUMI2-15 | 2026-09-04 12:32:36 | 48.04731 | 12.43213 | 253° | 27km/h | 29910m | -15.3m/s | -43.6°C | 2.5% | 12.4hPa | 2.5V | 00:00:00 | 02:02:38 | 00:00:00 | |
| PETON7-10 | 2026-09-04 12:32:32 | 48.04729 | 12.43254 | 296° | 46km/h | 29971m | -15.6m/s | 0°C | 0% | 0hPa | 2.5V | 00:00:00 | 00:00:00 | 00:00:00 | |
| BAUMI2-15 | 2026-09-04 12:32:31 | 48.04725 | 12.43264 | 303° | 38km/h | 29987m | -15.2m/s | -43.7°C | 2.5% | 12.3hPa | 2.5V | 00:00:00 | 02:02:33 | 00:00:00 | |
| OE5WHR-10 | 2026-09-04 12:32:29 | 48.04713 | 12.43285 | 320° | 57km/h | 30017m | -15.5m/s | -43.9°C | 2.6% | 12.2hPa | 2.5V | 00:00:00 | 00:00:00 | 00:00:00 | |
| DG1MFX-10 | 2026-09-04 12:32:28 | 48.04713 | 12.43285 | 321° | 40km/h | 30017m | -15.6m/s | -43.9°C | 0.6% | 12.3hPa | 2.5V | 08:29:00 | 00:00:00 | 00:00:00 | |
| OE5MMP-10 | 2026-09-04 12:32:27 | 48.04696 | 12.43302 | 334° | 51km/h | 30048m | -15.7m/s | -44.1°C | 2.6% | 12.1hPa | 2.5V | 00:00:00 | 02:02:29 | 00:00:00 | |
| BAUMI2-15 | 2026-09-04 12:32:26 | 48.04686 | 12.43309 | 337° | 47km/h | 30064m | -15.7m/s | -44.1°C | 2.7% | 12.1hPa | 2.5V | 00:00:00 | 02:02:28 | 00:00:00 | |
| DO3MHA-11 | 2026-09-04 12:32:22 | 48.04638 | 12.43320 | 3° | 60km/h | 30127m | -16.0m/s | -44.2°C | 2.7% | 12.0hPa | 2.6V | 00:00:00 | 02:02:24 | 00:00:00 | |
| BAUMI2-15 | 2026-09-04 12:32:21 | 48.04625 | 12.43318 | 12° | 57km/h | 30143m | -16.3m/s | -44.2°C | 2.7% | 12.0hPa | 2.6V | 00:00:00 | 02:02:23 | 00:00:00 | |
| OE5MMP-10 | 2026-09-04 12:32:17 | 48.04573 | 12.43282 | 41° | 69km/h | 30208m | -16.2m/s | -44.1°C | 2.7% | 11.9hPa | 2.6V | 00:00:00 | 02:02:19 | 08:30:00 | |
| BAUMI2-15 | 2026-09-04 12:32:16 | 48.04562 | 12.43266 | 44° | 58km/h | 30224m | -16.6m/s | -44.0°C | 2.7% | 11.8hPa | 2.6V | 00:00:00 | 02:02:18 | 00:00:00 | |
| OE5REO-15 | 2026-09-04 12:32:14 | 48.04551 | 12.43248 | 54° | 66km/h | 30240m | -16.3m/s | -43.9°C | 0.6% | 11.9hPa | 2.6V | 00:00:00 | 00:00:00 | 00:00:00 | |
| DO3MHA-11 | 2026-09-04 12:32:12 | 48.04527 | 12.43180 | 70° | 69km/h | 30289m | -15.8m/s | -43.5°C | 2.6% | 11.7hPa | 2.6V | 00:00:00 | 02:02:14 | 00:00:00 | |
| OE5WHR-10 | 2026-09-04 12:32:09 | 48.04517 | 12.43075 | 96° | 55km/h | 30354m | -17.0m/s | -43.4°C | 2.6% | 11.6hPa | 2.6V | 00:00:00 | 02:02:10 | 00:00:00 | |
| OE5MMP-10 | 2026-09-04 12:32:07 | 48.04520 | 12.43049 | 103° | 62km/h | 30371m | -17.0m/s | -43.4°C | 2.6% | 11.6hPa | 2.6V | 00:00:00 | 02:02:09 | 00:00:00 | |
| PETON7-10 | 2026-09-04 12:32:02 | 48.04559 | 12.42937 | 137° | 27km/h | 30458m | -17.2m/s | 0°C | 0% | 0hPa | 2.6V | 00:00:00 | 02:02:04 | 00:00:00 | |
| OE5REO-15 | 2026-09-04 12:31:58 | 48.04594 | 12.42902 | 159° | 51km/h | 30511m | -18.1m/s | -43.0°C | 0.6% | 11.4hPa | 2.6V | 00:00:00 | 00:00:00 | 00:00:00 | |
| OE5MMP-10 | 2026-09-04 12:31:57 | 48.04618 | 12.42897 | 184° | 46km/h | 30546m | -18.3m/s | -42.7°C | 2.5% | 11.3hPa | 2.6V | 00:00:00 | 02:01:59 | 00:00:00 | |
| OE5DXL-15 | 2026-09-04 12:31:52 | 48.04657 | 12.42947 | 257° | 51km/h | 30635m | -18.1m/s | -42.5°C | 2.4% | 11.1hPa | 2.6V | 00:00:00 | 00:00:00 | 00:00:00 | |
| OE8JPQ-2 | 2026-09-04 12:31:49 | 48.04653 | 12.42996 | 300° | 58km/h | 30689m | -17.3m/s | -42.5°C | 2.5% | 11.0hPa | 2.5V | 00:00:00 | 00:00:00 | 00:00:00 | |
| OE5WHR-10 | 2026-09-04 12:31:47 | 48.04636 | 12.43025 | 324° | 58km/h | 30724m | -17.6m/s | -42.5°C | 2.5% | 11.0hPa | 2.6V | 00:00:00 | 00:00:00 | 08:30:00 | |
| OE5REO-15 | 2026-09-04 12:31:42 | 48.04578 | 12.43045 | 8° | 68km/h | 30796m | -18.8m/s | -42.7°C | 0.6% | 10.9hPa | 2.7V | 00:00:00 | 00:00:00 | 00:00:00 | |
| OE5MMP-10 | 2026-09-04 12:31:37 | 48.04499 | 12.42958 | 70° | 55km/h | 30905m | -17.5m/s | -42.8°C | 2.6% | 10.6hPa | 2.7V | 00:00:00 | 02:01:39 | 00:00:00 | |
| OE5HKT-10 | 2026-09-04 12:31:34 | 48.04495 | 12.42889 | 102° | 38km/h | 30958m | -18.3m/s | -42.6°C | 2.6% | 10.5hPa | 2.7V | 00:00:00 | 02:01:36 | 00:00:00 | |
| OE8JPQ-2 | 2026-09-04 12:31:29 | 48.04533 | 12.42808 | 156° | 27km/h | 31053m | -18.4m/s | -41.9°C | 2.6% | 10.4hPa | 2.7V | 00:00:00 | 00:00:00 | 00:00:00 | |
| OE5FHM-15 | 2026-09-04 12:31:27 | 48.04550 | 12.42803 | 187° | 26km/h | 31090m | -17.8m/s | -41.5°C | 2.5% | 10.4hPa | 2.7V | 00:00:00 | 02:01:29 | 00:00:00 | |
| OE5WHR-10 | 2026-09-04 12:31:26 | 48.04557 | 12.42806 | 210° | 31km/h | 31108m | -18.3m/s | -41.5°C | 2.4% | 10.3hPa | 2.7V | 00:00:00 | 00:00:00 | 00:00:00 | |
| OE5DXL-15 | 2026-09-04 12:31:22 | 48.04563 | 12.42836 | 288° | 33km/h | 31191m | -23.0m/s | -40.8°C | 2.3% | 10.2hPa | 2.7V | 00:00:00 | 00:00:00 | 00:00:00 | |
| OE5MMP-10 | 2026-09-04 12:31:16 | 48.04557 | 12.42810 | 98° | 38km/h | 31342m | -11.0m/s | -40.3°C | 2.2% | 9.9hPa | 2.7V | 00:00:00 | 02:01:18 | 00:00:00 | |
| OE5REO-15 | 2026-09-04 12:31:12 | 48.04563 | 12.42768 | 101° | 35km/h | 31333m | 4.2m/s | -40.2°C | 0.5% | 10.0hPa | 2.6V | 00:00:00 | 00:00:00 | 00:00:00 | |
| OE5HKT-10 | 2026-09-04 12:31:11 | 48.04564 | 12.42754 | 97° | 31km/h | 31328m | 4.9m/s | -40.2°C | 2.2% | 10.0hPa | 2.6V | 00:00:00 | 00:00:00 | 00:00:00 | |
| OE8JPQ-2 | 2026-09-04 12:31:09 | 48.04566 | 12.42720 | 93° | 37km/h | 31316m | 5.6m/s | -40.4°C | 2.2% | 10.0hPa | 2.7V | 00:00:00 | 02:01:11 | 00:00:00 | |
| OE5MMP-10 | 2026-09-04 12:31:06 | 48.04570 | 12.42668 | 105° | 42km/h | 31301m | 5.6m/s | -40.5°C | 2.2% | 10.0hPa | 2.7V | 00:00:00 | 02:01:08 | 00:00:00 | |
| OE5WHR-10 | 2026-09-04 12:31:05 | 48.04573 | 12.42654 | 115° | 31km/h | 31295m | 6.4m/s | -40.4°C | 2.1% | 10.0hPa | 2.7V | 00:00:00 | 02:01:07 | 00:00:00 | |
| DL6DJ-15 | 2026-09-04 12:30:54 | 48.04576 | 12.42517 | 91° | 42km/h | 31238m | 4.6m/s | 0°C | -1.0% | -1.0hPa | 2.7V | 00:00:00 | 00:00:00 | 00:00:00 | |
| OE5FHM-15 | 2026-09-04 12:30:50 | 48.04579 | 12.42464 | 90° | 31km/h | 31216m | 5.6m/s | -41.2°C | 2.3% | 10.1hPa | 2.7V | 00:00:00 | 02:00:52 | 00:00:00 | |
| DG1MFX-10 | 2026-09-04 12:30:45 | 48.04577 | 12.42432 | 86° | 18km/h | 31194m | 5.5m/s | -41.5°C | 0.6% | 10.2hPa | 2.7V | 00:00:00 | 00:00:00 | 00:00:00 | |
| OE5WHR-10 | 2026-09-04 12:30:44 | 48.04574 | 12.42416 | 68° | 33km/h | 31186m | 3.9m/s | -41.5°C | 2.3% | 10.2hPa | 2.7V | 00:00:00 | 00:00:00 | 00:00:00 | |
| OE5REO-15 | 2026-09-04 12:30:40 | 48.04560 | 12.42380 | 57° | 47km/h | 31168m | 5.6m/s | -41.5°C | 0.5% | 10.2hPa | 2.7V | 00:00:00 | 00:00:00 | 00:00:00 | |
| OE5MMP-10 | 2026-09-04 12:30:38 | 48.04542 | 12.42332 | 70° | 31km/h | 31152m | 5.3m/s | -41.6°C | 2.3% | 10.2hPa | 2.7V | 00:00:00 | 02:00:40 | 08:30:00 | |
| OE8JPQ-2 | 2026-09-04 12:30:29 | 48.04515 | 12.42244 | 43° | 26km/h | 31106m | 5.7m/s | -41.8°C | 2.3% | 10.3hPa | 2.7V | 00:00:00 | 00:00:00 | 00:00:00 | |
| OE5MMP-10 | 2026-09-04 12:30:28 | 48.04511 | 12.42238 | 49° | 29km/h | 31101m | 4.4m/s | -41.9°C | 2.3% | 10.3hPa | 2.7V | 00:00:00 | 02:00:30 | 00:00:00 | |
| DG1MFX-10 | 2026-09-04 12:30:24 | 48.04498 | 12.42212 | 57° | 38km/h | 31085m | 6.5m/s | -42.0°C | 0.6% | 10.4hPa | 2.7V | 00:00:00 | 00:00:00 | 00:00:00 | |
| OE5WHR-10 | 2026-09-04 12:30:23 | 48.04487 | 12.42185 | 60° | 26km/h | 31075m | 3.7m/s | -42.2°C | 2.3% | 10.4hPa | 2.7V | 00:00:00 | 00:00:00 | 00:00:00 | |
| OE5DXL-15 | 2026-09-04 12:30:22 | 48.04482 | 12.42172 | 61° | 22km/h | 31071m | 4.7m/s | -42.2°C | 2.3% | 10.4hPa | 2.7V | 00:00:00 | 00:00:00 | 00:00:00 | |
| OE5FHM-15 | 2026-09-04 12:30:20 | 48.04474 | 12.42152 | 59° | 20km/h | 31061m | 5.2m/s | -42.2°C | 2.4% | 10.4hPa | 2.7V | 00:00:00 | 02:00:22 | 00:00:00 | |
| OE5MMP-10 | 2026-09-04 12:30:18 | 48.04469 | 12.42143 | 24° | 24km/h | 31050m | 5.0m/s | -42.1°C | 2.3% | 10.4hPa | 2.7V | 00:00:00 | 02:00:20 | 00:00:00 | |
| BAUMI2-15 | 2026-09-04 12:30:10 | 48.04426 | 12.42116 | 46° | 27km/h | 31009m | 4.5m/s | -42.6°C | 2.3% | 10.5hPa | 2.7V | 00:00:00 | 02:00:12 | 08:30:00 | |
| OE8JPQ-2 | 2026-09-04 12:30:09 | 48.04422 | 12.42109 | 47° | 22km/h | 31004m | 5.2m/s | -42.8°C | 2.4% | 10.5hPa | 2.6V | 00:00:00 | 02:00:11 | 00:00:00 | |
| OE5MMP-10 | 2026-09-04 12:30:08 | 48.04416 | 12.42101 | 44° | 22km/h | 30999m | 5.5m/s | -42.9°C | 2.4% | 10.5hPa | 2.6V | 00:00:00 | 02:00:10 | 00:00:00 | |
| BAUMI2-15 | 2026-09-04 12:30:05 | 48.04400 | 12.42084 | 22° | 16km/h | 30986m | 4.9m/s | -43.0°C | 2.5% | 10.5hPa | 2.7V | 00:00:00 | 02:00:07 | 00:00:00 | |
| DG1MFX-10 | 2026-09-04 12:30:04 | 48.04400 | 12.42084 | 23° | 20km/h | 30986m | 4.9m/s | -43.1°C | 0.6% | 10.5hPa | 2.7V | 00:00:00 | 00:00:00 | 00:00:00 | |
| OE5WHR-10 | 2026-09-04 12:30:02 | 48.04389 | 12.42086 | 327° | 18km/h | 30969m | 4.4m/s | -42.8°C | 2.5% | 10.5hPa | 2.7V | 00:00:00 | 02:00:04 | 00:00:00 | |
| BAUMI2-15 | 2026-09-04 12:30:00 | 48.04380 | 12.42091 | 347° | 22km/h | 30959m | 5.4m/s | -42.8°C | 2.5% | 10.5hPa | 2.7V | 00:00:00 | 02:00:02 | 00:00:00 | |
| OE5MMP-10 | 2026-09-04 12:29:58 | 48.04370 | 12.42090 | 20° | 22km/h | 30950m | 4.0m/s | -42.8°C | 2.5% | 10.6hPa | 2.7V | 00:00:00 | 02:00:00 | 00:00:00 | |
| BAUMI2-15 | 2026-09-04 12:29:55 | 48.04356 | 12.42076 | 49° | 22km/h | 30934m | 5.4m/s | -43.0°C | 2.5% | 10.6hPa | 2.7V | 00:00:00 | 01:59:57 | 00:00:00 | |
| OE5REO-15 | 2026-09-04 12:29:53 | 48.04353 | 12.42070 | 54° | 20km/h | 30929m | 4.9m/s | -43.1°C | 0.6% | 10.6hPa | 2.7V | 00:00:00 | 00:00:00 | 00:00:00 | |
| OE5DXL-15 | 2026-09-04 12:29:52 | 48.04346 | 12.42057 | 48° | 15km/h | 30920m | 5.5m/s | -43.1°C | 2.5% | 10.6hPa | 2.7V | 00:00:00 | 00:00:00 | 00:00:00 | |
| OE5FHM-15 | 2026-09-04 12:29:50 | 48.04337 | 12.42047 | 27° | 16km/h | 30909m | 4.1m/s | -42.9°C | 2.5% | 10.6hPa | 2.7V | 00:00:00 | 01:59:52 | 00:00:00 | |
| OE8JPQ-2 | 2026-09-04 12:29:49 | 48.04333 | 12.42045 | 12° | 15km/h | 30905m | 4.1m/s | -42.8°C | 2.5% | 10.6hPa | 2.7V | 00:00:00 | 00:00:00 | 08:30:00 | |
| OE5MMP-10 | 2026-09-04 12:29:48 | 48.04329 | 12.42045 | 354° | 15km/h | 30900m | 5.8m/s | -42.8°C | 2.5% | 10.7hPa | 2.6V | 00:00:00 | 01:59:50 | 00:00:00 | |
| BAUMI2-15 | 2026-09-04 12:29:45 | 48.04321 | 12.42051 | 322° | 15km/h | 30884m | 4.1m/s | -42.9°C | 2.5% | 10.7hPa | 2.6V | 00:00:00 | 01:59:47 | 00:00:00 | |
| DG1MFX-10 | 2026-09-04 12:29:44 | 48.04319 | 12.42053 | 352° | 9km/h | 30879m | 5.3m/s | -43.0°C | 0.6% | 10.7hPa | 2.6V | 00:00:00 | 00:00:00 | 00:00:00 | |
| OE5WHR-10 | 2026-09-04 12:29:41 | 48.04309 | 12.42042 | 57° | 15km/h | 30864m | 4.5m/s | -42.9°C | 2.5% | 10.7hPa | 2.6V | 00:00:00 | 00:00:00 | 00:00:00 | |
| BAUMI2-15 | 2026-09-04 12:29:40 | 48.04306 | 12.42034 | 67° | 22km/h | 30859m | 5.3m/s | -42.9°C | 2.5% | 10.7hPa | 2.7V | 00:00:00 | 01:59:42 | 00:00:00 | |
| OE5MMP-10 | 2026-09-04 12:29:38 | 48.04303 | 12.42016 | 84° | 13km/h | 30848m | 4.9m/s | -42.9°C | 2.5% | 10.7hPa | 2.7V | 00:00:00 | 01:59:40 | 00:00:00 | |
| OE5REO-15 | 2026-09-04 12:29:37 | 48.04303 | 12.42016 | 84° | 24km/h | 30848m | 5.0m/s | -42.9°C | 0.6% | 10.8hPa | 2.6V | 00:00:00 | 00:00:00 | 00:00:00 | |
| BAUMI2-15 | 2026-09-04 12:29:35 | 48.04300 | 12.41996 | 59° | 13km/h | 30834m | 5.5m/s | -42.8°C | 2.5% | 10.7hPa | 2.6V | 00:00:00 | 01:59:37 | 00:00:00 | |
| BAUMI2-15 | 2026-09-04 12:29:30 | 48.04288 | 12.41988 | 4° | 7km/h | 30808m | 5.5m/s | -42.8°C | 2.4% | 10.8hPa | 2.6V | 00:00:00 | 01:59:32 | 00:00:00 | |
| OE5MMP-10 | 2026-09-04 12:29:28 | 48.04286 | 12.41986 | 65° | 11km/h | 30798m | 4.6m/s | -42.9°C | 2.4% | 10.8hPa | 2.6V | 00:00:00 | 01:59:30 | 00:00:00 | |
| BAUMI2-15 | 2026-09-04 12:29:25 | 48.04282 | 12.41976 | 61° | 13km/h | 30783m | 4.3m/s | -42.9°C | 2.5% | 10.8hPa | 2.6V | 00:00:00 | 01:59:27 | 08:30:00 | |
| OE5DXL-15 | 2026-09-04 12:29:22 | 48.04279 | 12.41962 | 94° | 15km/h | 30767m | 5.3m/s | -42.7°C | 2.4% | 10.9hPa | 2.6V | 00:00:00 | 00:00:00 | 00:00:00 | |
| OE5WHR-10 | 2026-09-04 12:29:20 | 48.04280 | 12.41954 | 85° | 13km/h | 30758m | 4.0m/s | -42.8°C | 2.4% | 10.9hPa | 2.6V | 00:00:00 | 00:00:00 | 00:00:00 | |
| OE5MMP-10 | 2026-09-04 12:29:18 | 48.04277 | 12.41947 | 44° | 13km/h | 30747m | 5.8m/s | -42.9°C | 2.5% | 10.9hPa | 2.6V | 00:00:00 | 01:59:20 | 00:00:00 | |
| BAUMI2-15 | 2026-09-04 12:29:15 | 48.04268 | 12.41936 | 41° | 11km/h | 30733m | 4.9m/s | -42.9°C | 2.4% | 10.9hPa | 2.6V | 00:00:00 | 01:59:17 | 00:00:00 | |
| BAUMI2-15 | 2026-09-04 12:29:10 | 48.04264 | 12.41919 | 71° | 15km/h | 30707m | 5.7m/s | -42.9°C | 2.4% | 11.0hPa | 2.6V | 00:00:00 | 01:59:12 | 00:00:00 | |
| OE8JPQ-2 | 2026-09-04 12:29:09 | 48.04262 | 12.41915 | 52° | 15km/h | 30702m | 5.2m/s | -42.8°C | 2.4% | 11.0hPa | 2.6V | 00:00:00 | 01:59:11 | 00:00:00 | |
| DO3MHA-11 | 2026-09-04 12:29:08 | 48.04260 | 12.41911 | 39° | 22km/h | 30697m | 4.1m/s | -42.9°C | 2.4% | 11.0hPa | 2.6V | 00:00:00 | 01:59:10 | 08:30:00 | |
| OE5REO-15 | 2026-09-04 12:29:06 | 48.04257 | 12.41908 | 33° | 15km/h | 30693m | 4.3m/s | -43.0°C | 0.6% | 11.0hPa | 2.6V | 00:00:00 | 00:00:00 | 00:00:00 | |
| BAUMI2-15 | 2026-09-04 12:29:05 | 48.04251 | 12.41903 | 31° | 9km/h | 30683m | 5.9m/s | -43.0°C | 2.5% | 11.0hPa | 2.6V | 00:00:00 | 01:59:07 | 00:00:00 | |
| DG1MFX-10 | 2026-09-04 12:29:03 | 48.04249 | 12.41901 | 42° | 7km/h | 30678m | 5.0m/s | -43.1°C | 0.6% | 11.1hPa | 2.6V | 00:00:00 | 00:00:00 | 00:00:00 | |
| BAUMI2-15 | 2026-09-04 12:29:00 | 48.04243 | 12.41889 | 52° | 24km/h | 30658m | 5.6m/s | -42.9°C | 2.5% | 11.0hPa | 2.6V | 00:00:00 | 01:59:02 | 00:00:00 | |
| OE5WHR-10 | 2026-09-04 12:28:59 | 48.04240 | 12.41882 | 56° | 20km/h | 30653m | 4.7m/s | -42.9°C | 2.5% | 11.1hPa | 2.6V | 00:00:00 | 01:59:01 | 00:00:00 | |
| OE5MMP-10 | 2026-09-04 12:28:58 | 48.04237 | 12.41874 | 64° | 18km/h | 30648m | 4.4m/s | -42.9°C | 2.5% | 11.1hPa | 2.6V | 00:00:00 | 01:59:00 | 00:00:00 | |
| BAUMI2-15 | 2026-09-04 12:28:55 | 48.04233 | 12.41846 | 92° | 16km/h | 30632m | 5.1m/s | -43.0°C | 2.5% | 11.1hPa | 2.6V | 00:00:00 | 01:58:57 | 00:00:00 | |
| OE5DXL-15 | 2026-09-04 12:28:52 | 48.04232 | 12.41825 | 76° | 22km/h | 30616m | 5.5m/s | -43.1°C | 2.4% | 11.1hPa | 2.7V | 00:00:00 | 00:00:00 | 08:30:00 | |
| BAUMI2-15 | 2026-09-04 12:28:50 | 48.04230 | 12.41818 | 48° | 9km/h | 30606m | 4.6m/s | -43.2°C | 2.4% | 11.1hPa | 2.6V | 00:00:00 | 01:58:52 | 00:00:00 | |
| OE8JPQ-2 | 2026-09-04 12:28:49 | 48.04229 | 12.41816 | 54° | 22km/h | 30601m | 5.8m/s | -43.3°C | 2.4% | 11.1hPa | 2.6V | 00:00:00 | 00:00:00 | 00:00:00 | |
| OE5MMP-10 | 2026-09-04 12:28:48 | 48.04229 | 12.41814 | 75° | 22km/h | 30595m | 5.1m/s | -43.3°C | 2.5% | 11.2hPa | 2.7V | 00:00:00 | 01:58:50 | 00:00:00 | |
| BAUMI2-15 | 2026-09-04 12:28:45 | 48.04225 | 12.41798 | 68° | 31km/h | 30581m | 6.2m/s | -43.6°C | 2.5% | 11.2hPa | 2.7V | 00:00:00 | 01:58:47 | 00:00:00 | |
| DG1MFX-10 | 2026-09-04 12:28:43 | 48.04220 | 12.41778 | 72° | 35km/h | 30570m | 4.4m/s | -43.7°C | 0.7% | 11.2hPa | 2.7V | 00:00:00 | 00:00:00 | 00:00:00 | |
| OE5FHM-15 | 2026-09-04 12:28:40 | 48.04217 | 12.41740 | 101° | 22km/h | 30555m | 5.9m/s | -43.5°C | 2.6% | 11.2hPa | 2.7V | 00:00:00 | 01:58:42 | 08:30:00 | |
| OE5MMP-10 | 2026-09-04 12:28:38 | 48.04222 | 12.41718 | 115° | 20km/h | 30545m | 4.4m/s | -43.5°C | 2.6% | 11.2hPa | 2.6V | 00:00:00 | 01:58:40 | 00:00:00 | |
| BAUMI2-15 | 2026-09-04 12:28:35 | 48.04226 | 12.41694 | 79° | 16km/h | 30529m | 5.1m/s | -43.5°C | 2.6% | 11.3hPa | 2.7V | 00:00:00 | 01:58:37 | 00:00:00 | |
| OE5REO-15 | 2026-09-04 12:28:34 | 48.04226 | 12.41694 | 80° | 16km/h | 30529m | 5.2m/s | -43.6°C | 0.6% | 11.3hPa | 2.7V | 00:00:00 | 00:00:00 | 00:00:00 | |
| BAUMI2-15 | 2026-09-04 12:28:30 | 48.04217 | 12.41665 | 76° | 24km/h | 30503m | 4.4m/s | -43.6°C | 2.5% | 11.3hPa | 2.7V | 00:00:00 | 01:58:32 | 00:00:00 | |
| OE8JPQ-2 | 2026-09-04 12:28:29 | 48.04216 | 12.41658 | 79° | 24km/h | 30499m | 4.4m/s | -43.6°C | 2.6% | 11.3hPa | 2.7V | 00:00:00 | 00:00:00 | 00:00:00 | |
| OE5MMP-10 | 2026-09-04 12:28:28 | 48.04215 | 12.41649 | 78° | 24km/h | 30493m | 5.8m/s | -43.7°C | 2.5% | 11.3hPa | 2.7V | 00:00:00 | 01:58:30 | 00:00:00 | |
| BAUMI2-15 | 2026-09-04 12:28:25 | 48.04211 | 12.41620 | 86° | 20km/h | 30478m | 4.4m/s | -43.9°C | 2.6% | 11.4hPa | 2.7V | 00:00:00 | 01:58:27 | 00:00:00 | |
| OE5DXL-15 | 2026-09-04 12:28:22 | 48.04214 | 12.41597 | 118° | 26km/h | 30461m | 4.6m/s | -43.7°C | 2.5% | 11.4hPa | 2.7V | 00:00:00 | 00:00:00 | 00:00:00 | |
| BAUMI2-15 | 2026-09-04 12:28:20 | 48.04217 | 12.41584 | 104° | 24km/h | 30452m | 5.5m/s | -43.7°C | 2.5% | 11.4hPa | 2.7V | 00:00:00 | 01:58:22 | 00:00:00 | |
| OE5REO-15 | 2026-09-04 12:28:18 | 48.04218 | 12.41577 | 89° | 20km/h | 30446m | 5.9m/s | -43.8°C | 0.6% | 11.5hPa | 2.7V | 00:00:00 | 00:00:00 | 00:00:00 | |
| OE5WHR-10 | 2026-09-04 12:28:17 | 48.04216 | 12.41560 | 77° | 26km/h | 30436m | 4.4m/s | -43.8°C | 2.5% | 11.4hPa | 2.7V | 00:00:00 | 00:00:00 | 00:00:00 | |
| BAUMI2-15 | 2026-09-04 12:28:15 | 48.04214 | 12.41540 | 88° | 26km/h | 30426m | 5.8m/s | -43.8°C | 2.5% | 11.5hPa | 2.7V | 00:00:00 | 01:58:17 | 00:00:00 | |
| OE5HKT-10 | 2026-09-04 12:28:14 | 48.04214 | 12.41531 | 99° | 24km/h | 30420m | 5.7m/s | -43.8°C | 2.5% | 11.5hPa | 2.7V | 00:00:00 | 00:00:00 | 00:00:00 | |
| OE5FHM-15 | 2026-09-04 12:28:11 | 48.04221 | 12.41497 | 98° | 31km/h | 30400m | 6.4m/s | -43.8°C | 2.6% | 11.5hPa | 2.7V | 00:00:00 | 01:58:12 | 00:00:00 | |
| OE8JPQ-2 | 2026-09-04 12:28:09 | 48.04221 | 12.41487 | 89° | 29km/h | 30393m | 5.7m/s | -43.7°C | 2.6% | 11.5hPa | 2.7V | 00:00:00 | 01:58:11 | 00:00:00 | |
| DG1MFX-10 | 2026-09-04 12:28:02 | 48.04223 | 12.41419 | 99° | 29km/h | 30361m | 5.1m/s | -44.1°C | 0.6% | 11.6hPa | 2.7V | 00:00:00 | 00:00:00 | 00:00:00 | |
| DO3MHA-11 | 2026-09-04 12:28:00 | 48.04223 | 12.41389 | 88° | 24km/h | 30345m | 4.9m/s | -44.2°C | 2.6% | 11.6hPa | 2.7V | 00:00:00 | 01:58:02 | 00:00:00 | |
| OE5MMP-10 | 2026-09-04 12:27:59 | 48.04223 | 12.41380 | 93° | 33km/h | 30339m | 5.8m/s | -44.3°C | 2.6% | 11.6hPa | 2.7V | 00:00:00 | 01:58:01 | 00:00:00 | |
| OE5WHR-10 | 2026-09-04 12:27:56 | 48.04226 | 12.41351 | 99° | 31km/h | 30323m | 4.7m/s | -44.5°C | 2.6% | 11.6hPa | 2.7V | 00:00:00 | 01:57:58 | 00:00:00 | |
| OE5DXL-15 | 2026-09-04 12:27:52 | 48.04223 | 12.41305 | 78° | 29km/h | 30301m | 4.6m/s | -44.7°C | 2.7% | 11.7hPa | 2.7V | 00:00:00 | 00:00:00 | 00:00:00 | |
| OE8JPQ-2 | 2026-09-04 12:27:49 | 48.04221 | 12.41266 | 97° | 29km/h | 30284m | 5.3m/s | -44.5°C | 2.7% | 11.7hPa | 2.7V | 00:00:00 | 00:00:00 | 00:00:00 | |
| OE5MMP-10 | 2026-09-04 12:27:47 | 48.04224 | 12.41239 | 97° | 33km/h | 30275m | 4.0m/s | -44.5°C | 2.6% | 11.7hPa | 2.7V | 00:00:00 | 01:57:49 | 00:00:00 | |
| OE5REO-15 | 2026-09-04 12:27:46 | 48.04224 | 12.41239 | 97° | 35km/h | 30275m | 4.1m/s | -44.6°C | 0.6% | 11.8hPa | 2.7V | 00:00:00 | 00:00:00 | 00:00:00 | |
| DG1MFX-10 | 2026-09-04 12:27:41 | 48.04214 | 12.41178 | 65° | 33km/h | 30247m | 5.7m/s | -44.8°C | 0.7% | 11.8hPa | 2.7V | 00:00:00 | 00:00:00 | 00:00:00 | |
| OE5FHM-15 | 2026-09-04 12:27:40 | 48.04208 | 12.41156 | 74° | 26km/h | 30236m | 5.2m/s | -44.7°C | 2.7% | 11.8hPa | 2.7V | 00:00:00 | 01:57:42 | 00:00:00 | |
| OE5MMP-10 | 2026-09-04 12:27:37 | 48.04202 | 12.41124 | 70° | 26km/h | 30220m | 6.3m/s | -44.7°C | 2.7% | 11.8hPa | 2.7V | 00:00:00 | 01:57:39 | 00:00:00 | |
| OE5WHR-10 | 2026-09-04 12:27:33 | 48.04191 | 12.41089 | 72° | 24km/h | 30198m | 6.5m/s | -44.5°C | 2.7% | 11.9hPa | 2.7V | 00:00:00 | 00:00:00 | 00:00:00 | |
| OE5REO-15 | 2026-09-04 12:27:31 | 48.04190 | 12.41080 | 79° | 26km/h | 30192m | 5.8m/s | -44.5°C | 0% | 11.9hPa | 2.7V | 00:00:00 | 00:00:00 | 00:00:00 | |
| OE8JPQ-2 | 2026-09-04 12:27:29 | 48.04184 | 12.41052 | 62° | 26km/h | 30176m | 6.3m/s | -44.6°C | 2.7% | 11.9hPa | 2.7V | 00:00:00 | 00:00:00 | 00:00:00 | |
| OE5MMP-10 | 2026-09-04 12:27:27 | 48.04175 | 12.41036 | 45° | 22km/h | 30165m | 4.5m/s | -44.7°C | 2.7% | 11.9hPa | 2.7V | 00:00:00 | 01:57:29 | 08:30:00 | |
| OE5DXL-15 | 2026-09-04 12:27:22 | 48.04158 | 12.41002 | 72° | 24km/h | 30137m | 5.3m/s | -44.5°C | 2.7% | 12.0hPa | 2.7V | 00:00:00 | 00:00:00 | 00:00:00 | |
| DG1MFX-10 | 2026-09-04 12:27:20 | 48.04156 | 12.40995 | 67° | 18km/h | 30132m | 5.4m/s | -44.5°C | 0.7% | 12.0hPa | 2.7V | 00:00:00 | 00:00:00 | 00:00:00 | |
| OE5MMP-10 | 2026-09-04 12:27:17 | 48.04142 | 12.40969 | 49° | 26km/h | 30110m | 5.1m/s | -44.4°C | 2.7% | 12.0hPa | 2.7V | 00:00:00 | 01:57:19 | 00:00:00 | |
| OE5REO-15 | 2026-09-04 12:27:16 | 48.04143 | 12.40969 | 50° | 26km/h | 30110m | 5.2m/s | -44.5°C | 0% | 12.1hPa | 2.7V | 00:00:00 | 00:00:00 | 00:00:00 | |
| OE5WHR-10 | 2026-09-04 12:27:12 | 48.04125 | 12.40927 | 55° | 15km/h | 30080m | 6.4m/s | -44.2°C | 2.7% | 12.1hPa | 2.7V | 00:00:00 | 00:00:00 | 00:00:00 | |
| OE5FHM-15 | 2026-09-04 12:27:10 | 48.04117 | 12.40912 | 44° | 24km/h | 30069m | 4.7m/s | -44.2°C | 2.7% | 12.1hPa | 2.7V | 00:00:00 | 01:57:12 | 00:00:00 | |
| OE8JPQ-2 | 2026-09-04 12:27:09 | 48.04112 | 12.40905 | 48° | 24km/h | 30064m | 4.8m/s | -44.1°C | 2.6% | 12.1hPa | 2.7V | 00:00:00 | 01:57:11 | 00:00:00 | |
| OE5MMP-10 | 2026-09-04 12:27:07 | 48.04105 | 12.40890 | 63° | 22km/h | 30052m | 6.2m/s | -44.2°C | 2.6% | 12.1hPa | 2.7V | 00:00:00 | 01:57:09 | 00:00:00 | |
| DO3MHA-11 | 2026-09-04 12:27:05 | 48.04100 | 12.40875 | 62° | 26km/h | 30041m | 5.3m/s | -44.2°C | 2.6% | 12.2hPa | 2.7V | 00:00:00 | 01:57:07 | 00:00:00 | |
| OE5DRO-10 | 2026-09-04 12:27:01 | 48.04085 | 12.40854 | 38° | 13km/h | 30018m | 5.3m/s | -44.2°C | 2.6% | 12.2hPa | 2.7V | 00:00:00 | 00:00:00 | 00:00:00 | |
| OE5REO-15 | 2026-09-04 12:27:00 | 48.04085 | 12.40854 | 39° | 22km/h | 30018m | 5.4m/s | -44.3°C | 0% | 12.3hPa | 2.7V | 00:00:00 | 00:00:00 | 00:00:00 | |
| DG1MFX-10 | 2026-09-04 12:26:59 | 48.04081 | 12.40848 | 45° | 24km/h | 30012m | 6.8m/s | -44.2°C | 0.6% | 12.3hPa | 2.7V | 00:00:00 | 00:00:00 | 00:00:00 | |
| OE5MMP-10 | 2026-09-04 12:26:57 | 48.04068 | 12.40825 | 49° | 24km/h | 29995m | 5.6m/s | -44.2°C | 2.6% | 12.2hPa | 2.7V | 00:00:00 | 01:56:59 | 00:00:00 | |
| DO3MHA-11 | 2026-09-04 12:26:55 | 48.04058 | 12.40812 | 34° | 22km/h | 29983m | 5.3m/s | -44.1°C | 2.6% | 12.3hPa | 2.6V | 00:00:00 | 01:56:57 | 00:00:00 | |
| OE5DXL-15 | 2026-09-04 12:26:52 | 48.04043 | 12.40798 | 40° | 26km/h | 29967m | 6.2m/s | -44.4°C | 2.6% | 12.3hPa | 2.6V | 00:00:00 | 00:00:00 | 00:00:00 | |
| OE8JPQ-2 | 2026-09-04 12:26:49 | 48.04032 | 12.40780 | 46° | 24km/h | 29950m | 4.9m/s | -44.3°C | 2.7% | 12.3hPa | 2.6V | 00:00:00 | 00:00:00 | 08:30:00 | |
| OE5MMP-10 | 2026-09-04 12:26:47 | 48.04023 | 12.40771 | 24° | 20km/h | 29938m | 6.4m/s | -44.3°C | 2.7% | 12.3hPa | 2.6V | 00:00:00 | 01:56:49 | 00:00:00 | |
| DO3MHA-11 | 2026-09-04 12:26:45 | 48.04010 | 12.40765 | 16° | 20km/h | 29927m | 4.9m/s | -44.2°C | 2.7% | 12.4hPa | 2.6V | 00:00:00 | 01:56:47 | 00:00:00 | |
| OE5REO-15 | 2026-09-04 12:26:43 | 48.04004 | 12.40762 | 21° | 26km/h | 29922m | 6.3m/s | -44.3°C | 0% | 0hPa | 2.6V | 00:00:00 | 00:00:00 | 00:00:00 | |
| OE5FHM-15 | 2026-09-04 12:26:40 | 48.03986 | 12.40748 | 24° | 27km/h | 29899m | 6.6m/s | -44.3°C | 2.6% | 12.4hPa | 2.6V | 00:00:00 | 01:56:42 | 00:00:00 | |
| DG1MFX-10 | 2026-09-04 12:26:39 | 48.03986 | 12.40748 | 24° | 18km/h | 29899m | 6.6m/s | -44.3°C | 0.7% | 12.5hPa | 2.6V | 00:00:00 | 00:00:00 | 00:00:00 | |
| OE5MMP-10 | 2026-09-04 12:26:36 | 48.03969 | 12.40739 | 35° | 29km/h | 29876m | 6.8m/s | -44.3°C | 2.6% | 12.5hPa | 2.6V | 00:00:00 | 01:56:38 | 00:00:00 | |
| DO3MHA-11 | 2026-09-04 12:26:35 | 48.03966 | 12.40734 | 46° | 29km/h | 29870m | 6.2m/s | -44.3°C | 2.6% | 12.5hPa | 2.6V | 00:00:00 | 01:56:37 | 00:00:00 | |
| OE8JPQ-2 | 2026-09-04 12:26:29 | 48.03929 | 12.40698 | 24° | 33km/h | 29836m | 5.3m/s | -44.4°C | 2.6% | 12.6hPa | 2.7V | 00:00:00 | 00:00:00 | 00:00:00 | |
| OE5REO-15 | 2026-09-04 12:26:28 | 48.03929 | 12.40698 | 25° | 35km/h | 29836m | 5.4m/s | 0°C | 0% | 0hPa | 2.7V | 00:00:00 | 00:00:00 | 00:00:00 | |
| OE5MMP-10 | 2026-09-04 12:26:26 | 48.03907 | 12.40680 | 33° | 29km/h | 29818m | 5.8m/s | -44.5°C | 2.7% | 12.6hPa | 2.7V | 00:00:00 | 01:56:28 | 00:00:00 | |
| OE5DXL-15 | 2026-09-04 12:26:22 | 48.03882 | 12.40658 | 33° | 31km/h | 29795m | 4.8m/s | -44.5°C | 2.7% | 12.6hPa | 2.7V | 00:00:00 | 00:00:00 | 00:00:00 | |
| DO3MHA-11 | 2026-09-04 12:26:21 | 48.03876 | 12.40652 | 39° | 29km/h | 29790m | 6.2m/s | -44.6°C | 2.7% | 12.6hPa | 2.7V | 00:00:00 | 01:56:23 | 00:00:00 | |
| DG1MFX-10 | 2026-09-04 12:26:18 | 48.03866 | 12.40637 | 49° | 31km/h | 29777m | 5.2m/s | -44.8°C | 0.7% | 12.7hPa | 2.7V | 00:00:00 | 00:00:00 | 00:00:00 | |
| OE5MMP-10 | 2026-09-04 12:26:16 | 48.03847 | 12.40615 | 24° | 33km/h | 29761m | 6.4m/s | -44.7°C | 2.7% | 12.7hPa | 2.7V | 00:00:00 | 01:56:18 | 00:00:00 | |
| BAUMI2-15 | 2026-09-04 12:26:11 | 48.03805 | 12.40594 | 31° | 31km/h | 29733m | 6.0m/s | -44.3°C | 2.6% | 12.8hPa | 2.7V | 00:00:00 | 01:56:13 | 00:00:00 | |
| OE5FHM-15 | 2026-09-04 12:26:10 | 48.03798 | 12.40587 | 37° | 26km/h | 29727m | 5.5m/s | -44.3°C | 2.6% | 12.8hPa | 2.6V | 00:00:00 | 01:56:12 | 00:00:00 | |
| OE8JPQ-2 | 2026-09-04 12:26:09 | 48.03791 | 12.40580 | 38° | 29km/h | 29722m | 5.3m/s | -44.3°C | 2.7% | 12.8hPa | 2.6V | 00:00:00 | 01:56:11 | 00:00:00 | |
| OE5MMP-10 | 2026-09-04 12:26:06 | 48.03773 | 12.40565 | 18° | 33km/h | 29704m | 5.1m/s | -44.3°C | 2.7% | 12.8hPa | 2.6V | 00:00:00 | 01:56:08 | 00:00:00 | |
| DO3MHA-11 | 2026-09-04 12:26:02 | 48.03743 | 12.40549 | 28° | 31km/h | 29682m | 5.7m/s | -44.6°C | 2.7% | 12.9hPa | 2.6V | 00:00:00 | 01:56:04 | 00:00:00 | |
| BAUMI2-15 | 2026-09-04 12:26:01 | 48.03735 | 12.40543 | 27° | 35km/h | 29676m | 5.2m/s | -44.6°C | 2.6% | 12.9hPa | 2.6V | 00:00:00 | 01:56:03 | 00:00:00 | |
| DG1MFX-10 | 2026-09-04 12:25:57 | 48.03710 | 12.40529 | 11° | 33km/h | 29659m | 5.2m/s | -44.5°C | 0.7% | 13.0hPa | 2.6V | 00:00:00 | 00:00:00 | 00:00:00 | |
| BAUMI2-15 | 2026-09-04 12:25:56 | 48.03695 | 12.40526 | 11° | 24km/h | 29649m | 5.7m/s | -44.4°C | 2.6% | 13.0hPa | 2.6V | 00:00:00 | 01:55:58 | 08:30:00 | |
| OE5DXL-15 | 2026-09-04 12:25:52 | 48.03673 | 12.40516 | 13° | 26km/h | 29626m | 5.4m/s | -44.5°C | 2.6% | 13.0hPa | 2.6V | 00:00:00 | 00:00:00 | 00:00:00 | |
| BAUMI2-15 | 2026-09-04 12:25:51 | 48.03667 | 12.40514 | 3° | 29km/h | 29620m | 6.6m/s | -44.5°C | 2.6% | 13.0hPa | 2.7V | 00:00:00 | 01:55:53 | 00:00:00 | |
| OE8JPQ-2 | 2026-09-04 12:25:49 | 48.03653 | 12.40515 | 356° | 27km/h | 29609m | 4.3m/s | -44.6°C | 2.6% | 13.0hPa | 2.7V | 00:00:00 | 00:00:00 | 00:00:00 | |
| OE5MMP-10 | 2026-09-04 12:25:46 | 48.03630 | 12.40513 | 15° | 24km/h | 29592m | 6.3m/s | -44.6°C | 2.6% | 13.0hPa | 2.6V | 00:00:00 | 01:55:48 | 00:00:00 | |
| BAUMI2-15 | 2026-09-04 12:25:41 | 48.03599 | 12.40502 | 353° | 20km/h | 29563m | 5.5m/s | -44.6°C | 2.6% | 13.1hPa | 2.6V | 00:00:00 | 01:55:43 | 00:00:00 | |
| OE5MMP-10 | 2026-09-04 12:25:36 | 48.03574 | 12.40506 | 359° | 27km/h | 29535m | 5.4m/s | -44.8°C | 2.7% | 13.2hPa | 2.7V | 00:00:00 | 01:55:38 | 00:00:00 | |
| BAUMI2-15 | 2026-09-04 12:25:31 | 48.03534 | 12.40505 | 15° | 26km/h | 29506m | 6.5m/s | -45.0°C | 2.8% | 13.2hPa | 2.7V | 00:00:00 | 01:55:33 | 00:00:00 | |
| OE8JPQ-2 | 2026-09-04 12:25:29 | 48.03521 | 12.40497 | 29° | 16km/h | 29495m | 5.1m/s | -44.9°C | 2.7% | 13.3hPa | 2.7V | 00:00:00 | 00:00:00 | 00:00:00 | |
| OE5HKT-10 | 2026-09-04 12:25:28 | 48.03516 | 12.40493 | 27° | 16km/h | 29489m | 5.5m/s | -44.9°C | 2.7% | 13.3hPa | 2.7V | 00:00:00 | 00:00:00 | 08:30:00 | |
| OE5MMP-10 | 2026-09-04 12:25:26 | 48.03506 | 12.40489 | 1° | 20km/h | 29478m | 5.7m/s | -45.0°C | 2.7% | 13.3hPa | 2.7V | 00:00:00 | 01:55:28 | 00:00:00 | |
| OE5DXL-15 | 2026-09-04 12:25:22 | 48.03486 | 12.40492 | 5° | 15km/h | 29456m | 6.4m/s | -45.2°C | 2.7% | 13.3hPa | 2.6V | 00:00:00 | 00:00:00 | 00:00:00 | |
| BAUMI2-15 | 2026-09-04 12:25:21 | 48.03481 | 12.40491 | 15° | 20km/h | 29449m | 6.0m/s | -45.2°C | 2.7% | 13.3hPa | 2.6V | 00:00:00 | 01:55:23 | 00:00:00 | |
| OE5MMP-10 | 2026-09-04 12:25:16 | 48.03457 | 12.40484 | 7° | 13km/h | 29421m | 4.7m/s | -45.0°C | 2.7% | 13.4hPa | 2.6V | 00:00:00 | 01:55:18 | 00:00:00 | |
| DG1MFX-10 | 2026-09-04 12:25:15 | 48.03457 | 12.40484 | 7° | 16km/h | 29421m | 4.7m/s | -45.1°C | 0.7% | 13.4hPa | 2.6V | 00:00:00 | 00:00:00 | 00:00:00 | |
| BAUMI2-15 | 2026-09-04 12:25:11 | 48.03445 | 12.40481 | 336° | 16km/h | 29393m | 5.9m/s | -45.1°C | 2.7% | 13.4hPa | 2.6V | 00:00:00 | 01:55:13 | 08:30:00 | |
| OE8JPQ-2 | 2026-09-04 12:25:09 | 48.03440 | 12.40486 | 326° | 16km/h | 29380m | 5.5m/s | -45.2°C | 2.8% | 13.5hPa | 2.7V | 00:00:00 | 01:55:11 | 00:00:00 | |
| OE5MMP-10 | 2026-09-04 12:25:06 | 48.03427 | 12.40495 | 354° | 15km/h | 29365m | 6.7m/s | -45.3°C | 2.8% | 13.5hPa | 2.7V | 00:00:00 | 01:55:08 | 00:00:00 | |
| OE5FHM-15 | 2026-09-04 12:25:03 | 48.03418 | 12.40489 | 52° | 20km/h | 29347m | 5.2m/s | -45.2°C | 2.8% | 13.6hPa | 2.7V | 00:00:00 | 01:55:05 | 00:00:00 | |
| BAUMI2-15 | 2026-09-04 12:25:01 | 48.03413 | 12.40482 | 26° | 15km/h | 29335m | 6.2m/s | -45.3°C | 2.8% | 13.6hPa | 2.7V | 00:00:00 | 01:55:03 | 00:00:00 | |
| OE5MMP-10 | 2026-09-04 12:24:56 | 48.03395 | 12.40483 | 355° | 22km/h | 29306m | 5.2m/s | -45.2°C | 2.8% | 13.6hPa | 2.7V | 00:00:00 | 01:54:58 | 00:00:00 | |
| DG1MFX-10 | 2026-09-04 12:24:54 | 48.03392 | 12.40484 | 351° | 16km/h | 29301m | 5.2m/s | -45.2°C | 0.7% | 13.7hPa | 2.6V | 00:00:00 | 00:00:00 | 00:00:00 | |
| OE5DXL-15 | 2026-09-04 12:24:52 | 48.03377 | 12.40490 | 345° | 24km/h | 29282m | 5.1m/s | -45.0°C | 2.8% | 13.7hPa | 2.6V | 00:00:00 | 00:00:00 | 00:00:00 | |
| BAUMI2-15 | 2026-09-04 12:24:51 | 48.03372 | 12.40492 | 354° | 24km/h | 29278m | 4.4m/s | -45.0°C | 2.8% | 13.7hPa | 2.6V | 00:00:00 | 01:54:53 | 00:00:00 | |
| OE8JPQ-2 | 2026-09-04 12:24:49 | 48.03361 | 12.40489 | 27° | 24km/h | 29267m | 7.0m/s | -45.1°C | 2.8% | 13.7hPa | 2.6V | 00:00:00 | 00:00:00 | 00:00:00 | |
| OE5MMP-10 | 2026-09-04 12:24:46 | 48.03347 | 12.40469 | 47° | 24km/h | 29248m | 5.7m/s | -44.8°C | 2.8% | 13.8hPa | 2.6V | 00:00:00 | 01:54:48 | 00:00:00 | |
| DO3MHA-11 | 2026-09-04 12:24:45 | 48.03341 | 12.40462 | 38° | 20km/h | 29242m | 5.9m/s | -44.8°C | 2.7% | 13.8hPa | 2.6V | 00:00:00 | 01:54:47 | 00:00:00 | |
| BAUMI2-15 | 2026-09-04 12:24:41 | 48.03317 | 12.40450 | 7° | 22km/h | 29220m | 6.5m/s | -44.7°C | 2.7% | 13.8hPa | 2.6V | 00:00:00 | 01:54:43 | 00:00:00 | |
| HARRO8 | 2026-09-04 12:24:39 | 48.03301 | 12.40449 | 359° | 22km/h | 29201m | 6.3m/s | 0°C | -1.0% | -1.0hPa | 2.7V | 00:00:00 | 00:00:00 | 00:00:00 | |
| OE5MMP-10 | 2026-09-04 12:24:37 | 48.03289 | 12.40449 | 5° | 22km/h | 29190m | 4.9m/s | -44.6°C | 2.7% | 13.9hPa | 2.7V | 00:00:00 | 01:54:38 | 00:00:00 | |
| DG1MFX-10 | 2026-09-04 12:24:34 | 48.03283 | 12.40447 | 17° | 24km/h | 29185m | 5.1m/s | -44.7°C | 0.7% | 13.9hPa | 2.7V | 00:00:00 | 00:00:00 | 00:00:00 | |
| OE5FHM-15 | 2026-09-04 12:24:33 | 48.03273 | 12.40439 | 44° | 13km/h | 29172m | 6.6m/s | -44.7°C | 2.7% | 13.9hPa | 2.7V | 00:00:00 | 01:54:35 | 00:00:00 | |
| BAUMI2-15 | 2026-09-04 12:24:31 | 48.03266 | 12.40427 | 45° | 22km/h | 29161m | 5.1m/s | -44.6°C | 2.7% | 13.9hPa | 2.7V | 00:00:00 | 01:54:33 | 00:00:00 | |
| OE8JPQ-2 | 2026-09-04 12:24:29 | 48.03257 | 12.40419 | 13° | 24km/h | 29149m | 5.6m/s | -44.7°C | 2.7% | 14.0hPa | 2.7V | 00:00:00 | 00:00:00 | 00:00:00 | |
| OE5MMP-10 | 2026-09-04 12:24:26 | 48.03240 | 12.40421 | 348° | 22km/h | 29132m | 6.6m/s | -44.6°C | 2.7% | 14.0hPa | 2.7V | 00:00:00 | 01:54:28 | 08:30:00 | |
| OE5DXL-15 | 2026-09-04 12:24:22 | 48.03216 | 12.40430 | 345° | 20km/h | 29109m | 6.5m/s | -44.6°C | 2.7% | 14.0hPa | 2.6V | 00:00:00 | 00:00:00 | 08:30:00 | |
| BAUMI2-15 | 2026-09-04 12:24:21 | 48.03210 | 12.40433 | 347° | 22km/h | 29103m | 5.5m/s | -44.6°C | 2.7% | 14.1hPa | 2.6V | 00:00:00 | 01:54:23 | 00:00:00 | |
| OE5MMP-10 | 2026-09-04 12:24:16 | 48.03186 | 12.40430 | 33° | 22km/h | 29076m | 4.4m/s | -44.6°C | 2.7% | 14.1hPa | 2.6V | 00:00:00 | 01:54:18 | 00:00:00 | |
| DG1MFX-10 | 2026-09-04 12:24:13 | 48.03178 | 12.40426 | 8° | 18km/h | 29065m | 6.1m/s | -44.6°C | 0.7% | 14.2hPa | 2.6V | 00:00:00 | 00:00:00 | 00:00:00 | |
| OE8JPQ-2 | 2026-09-04 12:24:07 | 48.03137 | 12.40439 | 354° | 18km/h | 29024m | 5.8m/s | -44.6°C | 2.7% | 14.2hPa | 2.6V | 00:00:00 | 01:54:09 | 00:00:00 | |
| OE5MMP-10 | 2026-09-04 12:24:06 | 48.03133 | 12.40439 | 356° | 16km/h | 29018m | 6.4m/s | -44.6°C | 2.8% | 14.3hPa | 2.6V | 00:00:00 | 01:54:08 | 00:00:00 | |
| OE5HKT-10 | 2026-09-04 12:24:00 | 48.03113 | 12.40426 | 34° | 20km/h | 28984m | 4.3m/s | -44.6°C | 2.6% | 14.3hPa | 2.6V | 00:00:00 | 00:00:00 | 00:00:00 | |
| OE5MMP-10 | 2026-09-04 12:23:56 | 48.03093 | 12.40428 | 339° | 16km/h | 28961m | 5.0m/s | -44.5°C | 2.6% | 14.4hPa | 2.6V | 00:00:00 | 01:53:58 | 00:00:00 | |
| OE5DXL-15 | 2026-09-04 12:23:52 | 48.03075 | 12.40438 | 352° | 18km/h | 28938m | 5.2m/s | -44.5°C | 2.7% | 14.5hPa | 2.6V | 00:00:00 | 00:00:00 | 00:00:00 | |
| OE5MMP-10 | 2026-09-04 12:23:46 | 48.03056 | 12.40429 | 49° | 18km/h | 28904m | 6.0m/s | -44.6°C | 2.6% | 14.5hPa | 2.6V | 00:00:00 | 01:53:48 | 00:00:00 | |
| OE5HKT-10 | 2026-09-04 12:23:39 | 48.03022 | 12.40423 | 350° | 16km/h | 28865m | 5.9m/s | -44.6°C | 2.6% | 14.6hPa | 2.6V | 00:00:00 | 01:53:41 | 00:00:00 | |
| HARRO8 | 2026-09-04 12:23:37 | 48.03013 | 12.40421 | 50° | 11km/h | 28847m | 4.9m/s | 0°C | -1.0% | -1.0hPa | 2.6V | 00:00:00 | 00:00:00 | 00:00:00 | |
| OE5MMP-10 | 2026-09-04 12:23:36 | 48.03013 | 12.40421 | 51° | 22km/h | 28847m | 4.9m/s | -44.7°C | 2.7% | 14.7hPa | 2.6V | 00:00:00 | 01:53:38 | 00:00:00 | |
| DG1MFX-10 | 2026-09-04 12:23:31 | 48.02999 | 12.40403 | 34° | 26km/h | 28824m | 5.3m/s | -45.0°C | 0.7% | 14.7hPa | 2.6V | 00:00:00 | 00:00:00 | 00:00:00 | |
| OE5MMP-10 | 2026-09-04 12:23:26 | 48.02963 | 12.40381 | 360° | 15km/h | 28788m | 5.6m/s | -44.9°C | 2.7% | 14.8hPa | 2.6V | 00:00:00 | 01:53:28 | 00:00:00 | |
| OE5DXL-15 | 2026-09-04 12:23:22 | 48.02946 | 12.40381 | 32° | 20km/h | 28765m | 6.0m/s | -44.8°C | 2.7% | 14.8hPa | 2.6V | 00:00:00 | 00:00:00 | 00:00:00 | |
| DO3MHA-11 | 2026-09-04 12:23:21 | 48.02945 | 12.40380 | 47° | 16km/h | 28759m | 4.9m/s | -44.8°C | 2.8% | 14.9hPa | 2.6V | 00:00:00 | 01:53:23 | 00:00:00 | |
| OE5MMP-10 | 2026-09-04 12:23:16 | 48.02925 | 12.40375 | 7° | 27km/h | 28731m | 5.7m/s | -44.9°C | 2.8% | 14.9hPa | 2.6V | 00:00:00 | 01:53:18 | 00:00:00 | |
| DG1MFX-10 | 2026-09-04 12:23:11 | 48.02893 | 12.40364 | 12° | 33km/h | 28709m | 4.8m/s | -45.0°C | 0.7% | 15.0hPa | 2.6V | 00:00:00 | 00:00:00 | 00:00:00 | |
| OE5MMP-10 | 2026-09-04 12:23:06 | 48.02863 | 12.40373 | 305° | 18km/h | 28674m | 6.5m/s | -44.7°C | 2.7% | 15.0hPa | 2.6V | 00:00:00 | 01:53:08 | 00:00:00 | |
| DF7PN | 2026-09-04 12:22:48 | 48.02790 | 12.40420 | 337° | 22km/h | 28552m | 5.2m/s | -44.6°C | 0.7% | 15.4hPa | 2.6V | 00:00:00 | 00:00:00 | 00:00:00 | |
| OE8JPQ-2 | 2026-09-04 12:22:46 | 48.02794 | 12.40417 | 332° | 15km/h | 28558m | 5.6m/s | -44.5°C | 2.6% | 15.3hPa | 2.6V | 00:00:00 | 00:00:00 | 00:00:00 | |
| DL6DJ-15 | 2026-09-04 12:22:37 | 48.02772 | 12.40457 | 245° | 20km/h | 28506m | 4.9m/s | -44.6°C | 0.7% | 15.5hPa | 2.7V | 00:00:00 | 00:00:00 | 00:00:00 | |
| OE5MMP-10 | 2026-09-04 12:22:36 | 48.02774 | 12.40463 | 242° | 15km/h | 28501m | 6.4m/s | -44.6°C | 2.7% | 15.4hPa | 2.7V | 00:00:00 | 01:52:38 | 00:00:00 | |
| DG1MFX-10 | 2026-09-04 12:22:30 | 48.02772 | 12.40482 | 315° | 16km/h | 28471m | 5.6m/s | -44.8°C | 0.7% | 15.6hPa | 2.7V | 00:00:00 | 00:00:00 | 00:00:00 | |
| OE5DXL-15 | 2026-09-04 12:22:22 | 48.02763 | 12.40521 | 242° | 9km/h | 28420m | 4.6m/s | -44.8°C | 2.8% | 15.6hPa | 2.7V | 00:00:00 | 00:00:00 | 00:00:00 | |
| DF7PN | 2026-09-04 12:22:17 | 48.02761 | 12.40529 | 352° | 11km/h | 28390m | 6.6m/s | -45.0°C | 0.7% | 15.7hPa | 2.7V | 00:00:00 | 00:00:00 | 00:00:00 | |
| OE5MMP-10 | 2026-09-04 12:22:16 | 48.02757 | 12.40530 | 341° | 11km/h | 28384m | 5.9m/s | -44.8°C | 2.7% | 15.7hPa | 2.7V | 00:00:00 | 01:52:18 | 00:00:00 | |
| BAUMI2-15 | 2026-09-04 12:22:11 | 48.02742 | 12.40539 | 354° | 7km/h | 28356m | 5.1m/s | -44.9°C | 2.7% | 15.8hPa | 2.7V | 00:00:00 | 01:52:13 | 00:00:00 | |
| DG1MFX-10 | 2026-09-04 12:22:09 | 48.02741 | 12.40540 | 306° | 2km/h | 28350m | 5.6m/s | -45.0°C | 0.7% | 15.8hPa | 2.6V | 00:00:00 | 00:00:00 | 00:00:00 | |
| OE5DRO-10 | 2026-09-04 12:22:08 | 48.02742 | 12.40543 | 238° | 11km/h | 28337m | 5.9m/s | -44.9°C | 2.8% | 15.8hPa | 2.6V | 00:00:00 | 00:00:00 | 00:00:00 | |
| OE5MMP-10 | 2026-09-04 12:22:06 | 48.02745 | 12.40549 | 229° | 9km/h | 28327m | 5.0m/s | -44.7°C | 2.7% | 15.9hPa | 2.6V | 00:00:00 | 01:52:08 | 00:00:00 | |
| OE8JPQ-2 | 2026-09-04 12:22:02 | 48.02743 | 12.40551 | 347° | 7km/h | 28305m | 5.6m/s | -44.7°C | 2.7% | 15.9hPa | 2.6V | 00:00:00 | 01:52:04 | 00:00:00 | |
| BAUMI2-15 | 2026-09-04 12:22:01 | 48.02740 | 12.40553 | 327° | 11km/h | 28299m | 6.1m/s | -44.8°C | 2.7% | 15.9hPa | 2.6V | 00:00:00 | 01:52:03 | 00:00:00 | |
| OE5MMP-10 | 2026-09-04 12:21:56 | 48.02740 | 12.40570 | 191° | 9km/h | 28272m | 6.0m/s | -44.8°C | 2.7% | 16.0hPa | 2.6V | 00:00:00 | 01:51:58 | 00:00:00 | |
| OE5DXL-15 | 2026-09-04 12:21:52 | 48.02752 | 12.40572 | 224° | 7km/h | 28251m | 6.0m/s | -44.7°C | 2.7% | 16.0hPa | 2.6V | 00:00:00 | 00:00:00 | 00:00:00 | |
| BAUMI2-15 | 2026-09-04 12:21:51 | 48.02753 | 12.40575 | 260° | 7km/h | 28245m | 5.1m/s | -44.7°C | 2.7% | 16.1hPa | 2.6V | 00:00:00 | 01:51:53 | 00:00:00 | |
| OE5DRO-10 | 2026-09-04 12:21:49 | 48.02753 | 12.40582 | 299° | 5km/h | 28235m | 5.4m/s | -44.7°C | 2.6% | 16.1hPa | 2.6V | 00:00:00 | 00:00:00 | 08:30:00 | |
| OE5MMP-10 | 2026-09-04 12:21:46 | 48.02749 | 12.40583 | 55° | 5km/h | 28217m | 5.0m/s | -44.6°C | 2.6% | 16.1hPa | 2.6V | 00:00:00 | 01:51:48 | 00:00:00 | |
| OE8JPQ-2 | 2026-09-04 12:21:42 | 48.02748 | 12.40580 | 251° | 9km/h | 28195m | 5.2m/s | -44.6°C | 2.7% | 16.2hPa | 2.6V | 00:00:00 | 00:00:00 | 00:00:00 | |
| BAUMI2-15 | 2026-09-04 12:21:41 | 48.02749 | 12.40582 | 229° | 5km/h | 28189m | 5.6m/s | -44.7°C | 2.7% | 16.2hPa | 2.7V | 00:00:00 | 01:51:43 | 08:30:00 | |
| OE5MMP-10 | 2026-09-04 12:21:36 | 48.02752 | 12.40590 | 297° | 9km/h | 28161m | 6.4m/s | -44.8°C | 2.7% | 16.3hPa | 2.6V | 00:00:00 | 01:51:38 | 00:00:00 | |
| DL6DJ-15 | 2026-09-04 12:21:35 | 48.02751 | 12.40593 | 312° | 11km/h | 28155m | 5.2m/s | -44.9°C | 0.7% | -1.0hPa | 2.6V | 00:00:00 | 00:00:00 | 00:00:00 | |
| BAUMI2-15 | 2026-09-04 12:21:31 | 48.02741 | 12.40597 | 44° | 7km/h | 28133m | 5.5m/s | -44.9°C | 2.6% | 16.3hPa | 2.6V | 00:00:00 | 01:51:33 | 00:00:00 | |
| OE5DRO-10 | 2026-09-04 12:21:30 | 48.02740 | 12.40595 | 58° | 5km/h | 28128m | 4.5m/s | -45.0°C | 2.7% | 16.3hPa | 2.6V | 00:00:00 | 00:00:00 | 00:00:00 | |
| DG1MFX-10 | 2026-09-04 12:21:29 | 48.02740 | 12.40595 | 59° | 9km/h | 28128m | 4.5m/s | -45.0°C | 0.7% | 16.4hPa | 2.6V | 00:00:00 | 00:00:00 | 00:00:00 | |
| OE5WHR-10 | 2026-09-04 12:21:27 | 48.02737 | 12.40592 | 299° | 11km/h | 28112m | 6.2m/s | -45.1°C | 2.7% | 16.4hPa | 2.6V | 00:00:00 | 01:51:29 | 00:00:00 | |
| OE5MMP-10 | 2026-09-04 12:21:26 | 48.02736 | 12.40595 | 283° | 11km/h | 28106m | 5.9m/s | -45.1°C | 2.8% | 16.4hPa | 2.6V | 00:00:00 | 01:51:28 | 08:30:00 | |
| DO3MHA-11 | 2026-09-04 12:21:24 | 48.02736 | 12.40606 | 268° | 9km/h | 28095m | 5.9m/s | -45.2°C | 2.8% | 16.4hPa | 2.7V | 00:00:00 | 01:51:26 | 00:00:00 | |
| OE5DXL-15 | 2026-09-04 12:21:22 | 48.02736 | 12.40616 | 270° | 7km/h | 28083m | 5.1m/s | -45.3°C | 2.8% | 16.5hPa | 2.7V | 00:00:00 | 00:00:00 | 00:00:00 | |
| BAUMI2-15 | 2026-09-04 12:21:21 | 48.02736 | 12.40619 | 289° | 11km/h | 28078m | 5.0m/s | -45.4°C | 2.8% | 16.5hPa | 2.7V | 00:00:00 | 01:51:23 | 00:00:00 | |
| BAUMI2-15 | 2026-09-04 12:21:16 | 48.02727 | 12.40633 | 324° | 5km/h | 28051m | 6.6m/s | -45.2°C | 2.8% | 16.5hPa | 2.7V | 00:00:00 | 01:51:18 | 00:00:00 | |
| DO3MHA-11 | 2026-09-04 12:21:14 | 48.02728 | 12.40633 | 187° | 9km/h | 28039m | 4.9m/s | -45.1°C | 2.7% | 16.6hPa | 2.7V | 00:00:00 | 01:51:16 | 00:00:00 | |
| BAUMI2-15 | 2026-09-04 12:21:11 | 48.02732 | 12.40639 | 252° | 13km/h | 28022m | 5.4m/s | -45.1°C | 2.7% | 16.6hPa | 2.7V | 00:00:00 | 01:51:13 | 00:00:00 | |
| DG1MFX-10 | 2026-09-04 12:21:08 | 48.02733 | 12.40649 | 258° | 13km/h | 28012m | 5.3m/s | -45.1°C | 0.7% | 16.7hPa | 2.6V | 00:00:00 | 00:00:00 | 00:00:00 | |
| OE5MMP-10 | 2026-09-04 12:21:06 | 48.02736 | 12.40660 | 236° | 5km/h | 27995m | 4.9m/s | -45.0°C | 2.7% | 16.7hPa | 2.6V | 00:00:00 | 01:51:08 | 00:00:00 | |
| DL6DJ-15 | 2026-09-04 12:21:04 | 48.02739 | 12.40666 | 133° | 5km/h | 27962m | 6.2m/s | -45.1°C | 0.7% | -1.0hPa | 2.6V | 00:00:00 | 00:00:00 | 00:00:00 | |
| OE8JPQ-2 | 2026-09-04 12:21:02 | 48.02738 | 12.40667 | 241° | 7km/h | 27974m | 4.5m/s | -45.0°C | 2.8% | 16.8hPa | 2.6V | 00:00:00 | 01:51:04 | 00:00:00 | |
| BAUMI2-15 | 2026-09-04 12:21:01 | 48.02738 | 12.40667 | 154° | 5km/h | 27968m | 6.3m/s | -45.0°C | 2.7% | 16.7hPa | 2.6V | 00:00:00 | 01:51:03 | 00:00:00 | |
| OE5MMP-10 | 2026-09-04 12:20:56 | 48.02744 | 12.40660 | 232° | 5km/h | 27939m | 5.5m/s | -45.1°C | 2.7% | 16.9hPa | 2.6V | 00:00:00 | 01:50:58 | 00:00:00 | |
| OE5DXL-15 | 2026-09-04 12:20:52 | 48.02745 | 12.40665 | 172° | 9km/h | 27918m | 5.4m/s | -45.1°C | 2.7% | 16.9hPa | 2.7V | 00:00:00 | 00:00:00 | 00:00:00 | |
| BAUMI2-15 | 2026-09-04 12:20:51 | 48.02746 | 12.40665 | 118° | 5km/h | 27913m | 4.8m/s | -45.2°C | 2.7% | 16.9hPa | 2.7V | 00:00:00 | 01:50:53 | 00:00:00 | |
| DG1MFX-10 | 2026-09-04 12:20:48 | 48.02746 | 12.40662 | 55° | 5km/h | 27902m | 6.3m/s | -45.4°C | 0.7% | 17.0hPa | 2.7V | 00:00:00 | 00:00:00 | 00:00:00 | |
| OE5WHR-10 | 2026-09-04 12:20:45 | 48.02740 | 12.40651 | 71° | 7km/h | 27880m | 6.2m/s | -45.7°C | 2.8% | 17.0hPa | 2.7V | 00:00:00 | 00:00:00 | 00:00:00 | |
| OE8JPQ-2 | 2026-09-04 12:20:42 | 48.02737 | 12.40638 | 55° | 9km/h | 27864m | 6.3m/s | -45.7°C | 2.8% | 17.1hPa | 2.6V | 00:00:00 | 00:00:00 | 08:30:00 | |
| BAUMI2-15 | 2026-09-04 12:20:41 | 48.02735 | 12.40635 | 29° | 15km/h | 27858m | 5.7m/s | -45.7°C | 2.8% | 17.1hPa | 2.7V | 00:00:00 | 01:50:43 | 00:00:00 | |
| OE5MMP-10 | 2026-09-04 12:20:36 | 48.02718 | 12.40621 | 52° | 9km/h | 27832m | 5.2m/s | -45.7°C | 2.8% | 17.1hPa | 2.6V | 00:00:00 | 01:50:38 | 00:00:00 | |
| DL6DJ-15 | 2026-09-04 12:20:34 | 48.02706 | 12.40605 | 3° | 4km/h | 27804m | 5.1m/s | -45.9°C | 0.7% | -1.0hPa | 2.6V | 00:00:00 | 00:00:00 | 00:00:00 | |
| BAUMI2-15 | 2026-09-04 12:20:31 | 48.02706 | 12.40605 | 4° | 4km/h | 27805m | 5.1m/s | -45.9°C | 2.8% | 17.2hPa | 2.6V | 00:00:00 | 01:50:33 | 00:00:00 | |
| DG1MFX-10 | 2026-09-04 12:20:27 | 48.02706 | 12.40604 | 157° | 4km/h | 27787m | 4.9m/s | -45.8°C | 0.7% | 17.3hPa | 2.6V | 00:00:00 | 00:00:00 | 00:00:00 | |
| OE5MMP-10 | 2026-09-04 12:20:26 | 48.02707 | 12.40604 | 259° | 5km/h | 27777m | 6.5m/s | -45.8°C | 2.7% | 17.3hPa | 2.6V | 00:00:00 | 01:50:28 | 00:00:00 | |
| OE5WHR-10 | 2026-09-04 12:20:23 | 48.02705 | 12.40607 | 3° | 5km/h | 27760m | 5.9m/s | -46.0°C | 2.7% | 17.3hPa | 2.6V | 00:00:00 | 00:00:00 | 00:00:00 | |
| OE5DXL-15 | 2026-09-04 12:20:22 | 48.02704 | 12.40606 | 46° | 7km/h | 27754m | 6.0m/s | -46.0°C | 2.8% | 17.3hPa | 2.6V | 00:00:00 | 00:00:00 | 00:00:00 | |
| BAUMI2-15 | 2026-09-04 12:20:21 | 48.02703 | 12.40604 | 59° | 7km/h | 27748m | 4.7m/s | -46.0°C | 2.8% | 17.3hPa | 2.6V | 00:00:00 | 01:50:23 | 00:00:00 | |
| OE5MMP-10 | 2026-09-04 12:20:16 | 48.02696 | 12.40600 | 355° | 5km/h | 27722m | 5.1m/s | -46.4°C | 2.9% | 17.4hPa | 2.6V | 00:00:00 | 01:50:18 | 00:00:00 | |
| DF7PN | 2026-09-04 12:20:13 | 48.02694 | 12.40598 | 78° | 2km/h | 27705m | 5.2m/s | -46.6°C | 0.7% | 17.5hPa | 2.6V | 00:00:00 | 00:00:00 | 00:00:00 | |
| DG1MFX-10 | 2026-09-04 12:20:07 | 48.02696 | 12.40593 | 125° | 11km/h | 27677m | 6.1m/s | -46.8°C | 0.8% | 17.6hPa | 2.6V | 00:00:00 | 00:00:00 | 00:00:00 | |
| OE5MMP-10 | 2026-09-04 12:20:06 | 48.02699 | 12.40586 | 117° | 9km/h | 27667m | 4.7m/s | -46.7°C | 2.9% | 17.6hPa | 2.6V | 00:00:00 | 01:50:08 | 00:00:00 | |
| OE8JPQ-2 | 2026-09-04 12:20:02 | 48.02700 | 12.40578 | 63° | 13km/h | 27646m | 4.5m/s | -46.7°C | 2.9% | 17.6hPa | 2.6V | 00:00:00 | 01:50:04 | 00:00:00 | |
| OE5DRO-10 | 2026-09-04 12:20:01 | 48.02699 | 12.40576 | 85° | 13km/h | 27640m | 6.0m/s | -46.8°C | 2.9% | 17.6hPa | 2.6V | 00:00:00 | 00:00:00 | 00:00:00 | |
| OE5WHR-10 | 2026-09-04 12:19:59 | 48.02700 | 12.40569 | 96° | 16km/h | 27629m | 5.1m/s | -46.9°C | 2.9% | 17.7hPa | 2.7V | 00:00:00 | 01:50:01 | 00:00:00 | |
| OE5DXL-15 | 2026-09-04 12:19:52 | 48.02697 | 12.40534 | 86° | 16km/h | 27590m | 4.7m/s | -47.1°C | 3.0% | 17.8hPa | 2.7V | 00:00:00 | 00:00:00 | 08:30:00 | |
| OE5MMP-10 | 2026-09-04 12:19:46 | 48.02690 | 12.40510 | 71° | 16km/h | 27556m | 5.3m/s | -47.2°C | 3.0% | 17.9hPa | 2.6V | 00:00:00 | 01:49:48 | 00:00:00 | |
| OE8JPQ-2 | 2026-09-04 12:19:42 | 48.02682 | 12.40488 | 43° | 18km/h | 27533m | 5.9m/s | !°C | 3.0% | 17.9hPa | 2.6V | 00:00:00 | 00:00:00 | 00:00:00 | |
| OE5MMP-10 | 2026-09-04 12:19:36 | 48.02666 | 12.40458 | 52° | 15km/h | 27500m | 6.3m/s | -47.2°C | 3.0% | 18.0hPa | 2.5V | 00:00:00 | 01:49:38 | 00:00:00 | |
| DL6DJ-15 | 2026-09-04 12:19:31 | 48.02659 | 12.40437 | 71° | 13km/h | 27472m | 5.2m/s | -47.3°C | -1.0% | -1.0hPa | 2.5V | 00:00:00 | 00:00:00 | 00:00:00 | |
| HARRO8 | 2026-09-04 12:19:29 | 48.02645 | 12.40414 | 49° | 22km/h | 27444m | 6.4m/s | 0°C | -1.0% | -1.0hPa | 2.5V | 00:00:00 | 00:00:00 | 00:00:00 | |
| OE5MMP-10 | 2026-09-04 12:19:26 | 48.02645 | 12.40414 | 50° | 16km/h | 27444m | 6.3m/s | -47.4°C | 3.0% | 18.2hPa | 2.5V | 00:00:00 | 01:49:28 | 00:00:00 | |
| DG1MFX-10 | 2026-09-04 12:19:25 | 48.02645 | 12.40414 | 50° | 22km/h | 27444m | 6.4m/s | -47.4°C | 0.8% | 18.2hPa | 2.5V | 00:00:00 | 00:00:00 | 00:00:00 | |
| OE5DRO-10 | 2026-09-04 12:19:23 | 48.02634 | 12.40393 | 47° | 13km/h | 27428m | 5.8m/s | -47.5°C | 3.0% | 18.2hPa | 2.5V | 00:00:00 | 00:00:00 | 00:00:00 | |
| OE5MMP-10 | 2026-09-04 12:19:16 | 48.02618 | 12.40367 | 66° | 22km/h | 27390m | 5.0m/s | -47.6°C | 3.1% | 18.3hPa | 2.5V | 00:00:00 | 01:49:18 | 00:00:00 | |
| OE8JPQ-2 | 2026-09-04 12:19:12 | 48.02604 | 12.40351 | 32° | 24km/h | 27367m | 5.8m/s | -47.7°C | 3.0% | 18.4hPa | 2.5V | 00:00:00 | 00:00:00 | 00:00:00 | |
| DF7PN | 2026-09-04 12:19:11 | 48.02593 | 12.40339 | 35° | 29km/h | 27355m | 4.7m/s | -48.0°C | 0.8% | 18.5hPa | 2.5V | 00:00:00 | 00:00:00 | 00:00:00 | |
| OE5MMP-10 | 2026-09-04 12:19:06 | 48.02571 | 12.40323 | 7° | 15km/h | 27333m | 5.2m/s | -47.8°C | 3.0% | 18.5hPa | 2.5V | 00:00:00 | 01:49:08 | 00:00:00 | |
| DG1MFX-10 | 2026-09-04 12:19:05 | 48.02570 | 12.40323 | 8° | 16km/h | 27333m | 5.2m/s | -47.8°C | 0.8% | 18.5hPa | 2.5V | 00:00:00 | 00:00:00 | 00:00:00 | |
| DL6DJ-15 | 2026-09-04 12:19:00 | 48.02532 | 12.40303 | 24° | 33km/h | 27275m | 5.1m/s | -48.4°C | -1.0% | -1.0hPa | 2.5V | 00:00:00 | 00:00:00 | 00:00:00 | |
| OE5MMP-10 | 2026-09-04 12:18:56 | 48.02532 | 12.40303 | 25° | 22km/h | 27275m | 5.1m/s | -48.3°C | 3.1% | 18.7hPa | 2.5V | 00:00:00 | 01:48:58 | 00:00:00 | |
| OE8JPQ-2 | 2026-09-04 12:18:52 | 48.02501 | 12.40290 | 359° | 15km/h | 27254m | 4.7m/s | -48.4°C | 3.1% | 18.7hPa | 2.6V | 00:00:00 | 01:48:54 | 00:00:00 | |
| OE5MMP-10 | 2026-09-04 12:18:46 | 48.02482 | 12.40288 | 5° | 18km/h | 27222m | 5.5m/s | -48.4°C | 3.2% | 18.8hPa | 2.6V | 00:00:00 | 01:48:48 | 00:00:00 | |
| DG1MFX-10 | 2026-09-04 12:18:44 | 48.02478 | 12.40289 | 351° | 15km/h | 27216m | 6.4m/s | -48.6°C | 0.9% | 18.9hPa | 2.6V | 00:00:00 | 00:00:00 | 00:00:00 | |
| DF7PN | 2026-09-04 12:18:40 | 48.02447 | 12.40293 | 359° | 18km/h | 27183m | 5.6m/s | 0°C | -1.0% | 19.0hPa | 2.6V | 00:00:00 | 00:00:00 | 00:00:00 | |
| OE5MMP-10 | 2026-09-04 12:18:36 | 48.02437 | 12.40296 | 329° | 11km/h | 27166m | 4.9m/s | -48.6°C | 3.2% | 19.0hPa | 2.6V | 00:00:00 | 01:48:38 | 00:00:00 | |
| OE5WHR-10 | 2026-09-04 12:18:34 | 48.02435 | 12.40297 | 17° | 11km/h | 27155m | 5.8m/s | -48.7°C | 3.2% | 19.0hPa | 2.6V | 00:00:00 | 01:48:36 | 00:00:00 | |
| OE8JPQ-2 | 2026-09-04 12:18:32 | 48.02432 | 12.40296 | 11° | 13km/h | 27144m | 4.7m/s | -48.6°C | 3.2% | 19.0hPa | 2.6V | 00:00:00 | 00:00:00 | 00:00:00 | |
| DL6DJ-15 | 2026-09-04 12:18:29 | 48.02421 | 12.40307 | 323° | 20km/h | 27121m | 5.1m/s | 0°C | -1.0% | -1.0hPa | 2.6V | 00:00:00 | 00:00:00 | 00:00:00 | |
| OE5MMP-10 | 2026-09-04 12:18:26 | 48.02412 | 12.40314 | 343° | 9km/h | 27110m | 5.4m/s | -48.3°C | 3.1% | 19.1hPa | 2.6V | 00:00:00 | 01:48:28 | 08:30:00 | |
| DG1MFX-10 | 2026-09-04 12:18:24 | 48.02407 | 12.40316 | 354° | 18km/h | 27105m | 4.5m/s | -48.4°C | 0.8% | 19.2hPa | 2.7V | 00:00:00 | 00:00:00 | 00:00:00 | |
| OE5DXL-15 | 2026-09-04 12:18:22 | 48.02398 | 12.40318 | 319° | 9km/h | 27089m | 6.0m/s | -48.4°C | 3.2% | 19.2hPa | 2.7V | 00:00:00 | 00:00:00 | 00:00:00 | |
| OE5MMP-10 | 2026-09-04 12:18:16 | 48.02397 | 12.40326 | 313° | 9km/h | 27056m | 5.2m/s | -48.7°C | 3.2% | 19.3hPa | 2.6V | 00:00:00 | 01:48:18 | 00:00:00 | |
| OE5WHR-10 | 2026-09-04 12:18:13 | 48.02394 | 12.40336 | 299° | 9km/h | 27039m | 4.8m/s | -48.8°C | 3.3% | 19.4hPa | 2.6V | 00:00:00 | 00:00:00 | 00:00:00 | |
| OE8JPQ-2 | 2026-09-04 12:18:12 | 48.02392 | 12.40340 | 313° | 9km/h | 27034m | 5.3m/s | -48.8°C | 3.3% | 19.4hPa | 2.7V | 00:00:00 | 00:00:00 | 00:00:00 | |
| BAUMI2-15 | 2026-09-04 12:18:11 | 48.02389 | 12.40342 | 330° | 9km/h | 27028m | 6.4m/s | -48.7°C | 3.3% | 19.4hPa | 2.7V | 00:00:00 | 01:48:13 | 08:30:00 | |
| DF7PN | 2026-09-04 12:18:09 | 48.02382 | 12.40345 | 356° | 4km/h | 27012m | 6.0m/s | 0°C | -1.0% | -1.0hPa | 2.6V | 00:00:00 | 00:00:00 | 00:00:00 | |
| BAUMI2-15 | 2026-09-04 12:18:06 | 48.02383 | 12.40346 | 203° | 13km/h | 27000m | 5.5m/s | -48.5°C | 3.2% | 19.5hPa | 2.6V | 00:00:00 | 01:48:08 | 00:00:00 | |
| DG1MFX-10 | 2026-09-04 12:18:03 | 48.02388 | 12.40351 | 219° | 15km/h | 26990m | 5.2m/s | -48.6°C | 0.9% | 19.6hPa | 2.6V | 00:00:00 | 00:00:00 | 00:00:00 | |
| DL6DJ-15 | 2026-09-04 12:17:58 | 48.02398 | 12.40377 | 184° | 7km/h | 26953m | 5.1m/s | 0°C | -1.0% | -1.0hPa | 2.6V | 00:00:00 | 00:00:00 | 00:00:00 | |
| OE5MMP-10 | 2026-09-04 12:17:56 | 48.02400 | 12.40377 | 169° | 5km/h | 26948m | 4.7m/s | -48.4°C | 3.2% | 19.6hPa | 2.6V | 00:00:00 | 01:47:58 | 00:00:00 | |
| OE5WHR-10 | 2026-09-04 12:17:52 | 48.02403 | 12.40376 | 221° | 5km/h | 26926m | 4.5m/s | -48.4°C | 3.2% | 19.7hPa | 2.7V | 00:00:00 | 00:00:00 | 00:00:00 | |
| BAUMI2-15 | 2026-09-04 12:17:51 | 48.02404 | 12.40377 | 205° | 7km/h | 26920m | 6.4m/s | -48.4°C | 3.2% | 19.7hPa | 2.7V | 00:00:00 | 01:47:53 | 00:00:00 | |
| OE5MMP-10 | 2026-09-04 12:17:46 | 48.02412 | 12.40385 | 268° | 5km/h | 26893m | 5.9m/s | -48.2°C | 3.2% | 19.8hPa | 2.7V | 00:00:00 | 01:47:48 | 00:00:00 | |
| DG1MFX-10 | 2026-09-04 12:17:42 | 48.02411 | 12.40393 | 269° | 4km/h | 26876m | 6.5m/s | -48.3°C | 0.9% | 19.9hPa | 2.7V | 00:00:00 | 00:00:00 | 00:00:00 | |
| BAUMI2-15 | 2026-09-04 12:17:41 | 48.02412 | 12.40395 | 200° | 4km/h | 26865m | 4.9m/s | -48.1°C | 3.1% | 19.9hPa | 2.7V | 00:00:00 | 01:47:43 | 00:00:00 | |
| DF7PN | 2026-09-04 12:17:38 | 48.02409 | 12.40397 | 344° | 4km/h | 26841m | 5.7m/s | 0°C | -1.0% | -1.0hPa | 2.6V | 00:00:00 | 00:00:00 | 00:00:00 | |
| OE5MMP-10 | 2026-09-04 12:17:36 | 48.02408 | 12.40397 | 351° | 7km/h | 26836m | 6.4m/s | -48.2°C | 3.1% | 20.0hPa | 2.6V | 00:00:00 | 01:47:38 | 00:00:00 | |
| OE8JPQ-2 | 2026-09-04 12:17:32 | 48.02401 | 12.40402 | 327° | 11km/h | 26813m | 5.7m/s | -48.2°C | 3.1% | 20.1hPa | 2.6V | 00:00:00 | 00:00:00 | 08:30:00 | |
| OE5WHR-10 | 2026-09-04 12:17:31 | 48.02398 | 12.40405 | 325° | 11km/h | 26808m | 4.9m/s | -48.2°C | 3.1% | 20.1hPa | 2.6V | 00:00:00 | 01:47:33 | 00:00:00 | |
| DL6DJ-15 | 2026-09-04 12:17:27 | 48.02391 | 12.40414 | 334° | 5km/h | 26780m | 6.5m/s | 0°C | -1.0% | -1.0hPa | 2.6V | 00:00:00 | 00:00:00 | 00:00:00 | |
| OE5MMP-10 | 2026-09-04 12:17:26 | 48.02391 | 12.40414 | 335° | 13km/h | 26780m | 6.4m/s | -48.5°C | 3.2% | 20.2hPa | 2.6V | 00:00:00 | 01:47:28 | 00:00:00 | |
| OE5DXL-15 | 2026-09-04 12:17:22 | 48.02380 | 12.40417 | 359° | 11km/h | 26756m | 5.6m/s | -48.5°C | 3.1% | 20.2hPa | 2.7V | 00:00:00 | 00:00:00 | 00:00:00 | |
| BAUMI2-15 | 2026-09-04 12:17:21 | 48.02377 | 12.40418 | 354° | 16km/h | 26751m | 4.5m/s | -48.5°C | 3.2% | 20.2hPa | 2.7V | 00:00:00 | 01:47:23 | 00:00:00 | |
| BAUMI2-15 | 2026-09-04 12:17:16 | 48.02358 | 12.40430 | 331° | 9km/h | 26723m | 6.2m/s | -48.7°C | 3.2% | 20.3hPa | 2.7V | 00:00:00 | 01:47:18 | 00:00:00 | |
| OE8JPQ-2 | 2026-09-04 12:17:12 | 48.02350 | 12.40437 | 329° | 9km/h | 26700m | 6.1m/s | -48.7°C | 3.3% | 20.4hPa | 2.7V | 00:00:00 | 00:00:00 | 00:00:00 | |
| BAUMI2-15 | 2026-09-04 12:17:11 | 48.02348 | 12.40438 | 331° | 9km/h | 26694m | 5.3m/s | -48.7°C | 3.2% | 20.4hPa | 2.7V | 00:00:00 | 01:47:13 | 00:00:00 | |
| OE5WHR-10 | 2026-09-04 12:17:10 | 48.02346 | 12.40440 | 342° | 9km/h | 26689m | 5.2m/s | -48.7°C | 3.2% | 20.4hPa | 2.7V | 00:00:00 | 00:00:00 | 00:00:00 | |
| OE5MMP-10 | 2026-09-04 12:17:06 | 48.02337 | 12.40440 | 352° | 9km/h | 26666m | 5.9m/s | -48.6°C | 3.2% | 20.5hPa | 2.6V | 00:00:00 | 01:47:08 | 00:00:00 | |
| DG1MFX-10 | 2026-09-04 12:17:02 | 48.02328 | 12.40445 | 339° | 15km/h | 26649m | 5.0m/s | -48.6°C | 0.9% | 20.6hPa | 2.6V | 00:00:00 | 00:00:00 | 00:00:00 | |
| BAUMI2-15 | 2026-09-04 12:17:01 | 48.02322 | 12.40447 | 360° | 7km/h | 26637m | 5.9m/s | -48.5°C | 3.2% | 20.6hPa | 2.6V | 00:00:00 | 01:47:03 | 00:00:00 | |
| OE5MMP-10 | 2026-09-04 12:16:56 | 48.02314 | 12.40449 | 336° | 11km/h | 26609m | 4.8m/s | -48.4°C | 3.2% | 20.7hPa | 2.6V | 00:00:00 | 01:46:58 | 08:30:00 | |
| OE5DXL-15 | 2026-09-04 12:16:52 | 48.02308 | 12.40452 | 338° | 11km/h | 26587m | 6.4m/s | -48.4°C | 3.2% | 20.8hPa | 2.7V | 00:00:00 | 00:00:00 | 00:00:00 | |
| BAUMI2-15 | 2026-09-04 12:16:51 | 48.02305 | 12.40454 | 335° | 16km/h | 26580m | 5.9m/s | -48.3°C | 3.1% | 20.8hPa | 2.7V | 00:00:00 | 01:46:53 | 00:00:00 | |
| OE5WHR-10 | 2026-09-04 12:16:49 | 48.02297 | 12.40459 | 343° | 11km/h | 26570m | 5.1m/s | -48.4°C | 3.2% | 20.8hPa | 2.7V | 00:00:00 | 00:00:00 | 00:00:00 | |
| OE5MMP-10 | 2026-09-04 12:16:46 | 48.02286 | 12.40459 | 18° | 11km/h | 26552m | 5.2m/s | -48.5°C | 3.1% | 20.9hPa | 2.7V | 00:00:00 | 01:46:48 | 00:00:00 | |
| DG1MFX-10 | 2026-09-04 12:16:42 | 48.02276 | 12.40458 | 348° | 13km/h | 26535m | 5.0m/s | -48.6°C | 0.9% | 21.0hPa | 2.7V | 00:00:00 | 00:00:00 | 00:00:00 | |
| BAUMI2-15 | 2026-09-04 12:16:41 | 48.02271 | 12.40460 | 340° | 9km/h | 26525m | 6.0m/s | -48.5°C | 3.2% | 21.0hPa | 2.7V | 00:00:00 | 01:46:43 | 08:30:00 | |
| BAUMI2-15 | 2026-09-04 12:16:36 | 48.02260 | 12.40468 | 330° | 16km/h | 26498m | 5.5m/s | -48.6°C | 3.1% | 21.0hPa | 2.6V | 00:00:00 | 01:46:38 | 00:00:00 | |
| OE8JPQ-2 | 2026-09-04 12:16:32 | 48.02245 | 12.40472 | 25° | 7km/h | 26476m | 6.0m/s | -48.8°C | 3.2% | 21.1hPa | 2.6V | 00:00:00 | 00:00:00 | 00:00:00 | |
| BAUMI2-15 | 2026-09-04 12:16:31 | 48.02242 | 12.40470 | 42° | 5km/h | 26471m | 5.5m/s | -48.8°C | 3.2% | 21.2hPa | 2.5V | 00:00:00 | 01:46:33 | 00:00:00 | |
| OE5WHR-10 | 2026-09-04 12:16:27 | 48.02238 | 12.40464 | 115° | 7km/h | 26448m | 5.0m/s | -48.8°C | 3.2% | 21.2hPa | 2.5V | 00:00:00 | 01:46:29 | 00:00:00 | |
| BAUMI2-15 | 2026-09-04 12:16:26 | 48.02238 | 12.40464 | 161° | 5km/h | 26442m | 6.7m/s | -48.9°C | 3.3% | 21.3hPa | 2.5V | 00:00:00 | 01:46:28 | 00:00:00 | |
| OE5DXL-15 | 2026-09-04 12:16:22 | 48.02235 | 12.40466 | 335° | 7km/h | 26419m | 5.7m/s | -48.9°C | 3.2% | 21.3hPa | 2.6V | 00:00:00 | 00:00:00 | 00:00:00 | |
| BAUMI2-15 | 2026-09-04 12:16:21 | 48.02232 | 12.40467 | 340° | 13km/h | 26413m | 4.5m/s | -49.0°C | 3.2% | 21.4hPa | 2.6V | 00:00:00 | 01:46:23 | 00:00:00 | |
| OE5MMP-10 | 2026-09-04 12:16:16 | 48.02221 | 12.40462 | 109° | 7km/h | 26388m | 5.5m/s | -49.0°C | 3.2% | 21.4hPa | 2.6V | 00:00:00 | 01:46:18 | 00:00:00 | |
| OE8JPQ-2 | 2026-09-04 12:16:12 | 48.02225 | 12.40456 | 124° | 7km/h | 26366m | 5.0m/s | -49.0°C | 3.3% | 21.5hPa | 2.6V | 00:00:00 | 00:00:00 | 00:00:00 | |
| OE5MMP-10 | 2026-09-04 12:16:06 | 48.02221 | 12.40447 | 346° | 5km/h | 26332m | 4.6m/s | -49.0°C | 3.2% | 21.6hPa | 2.6V | 00:00:00 | 01:46:08 | 00:00:00 | |
| OE5WHR-10 | 2026-09-04 12:16:04 | 48.02219 | 12.40447 | 55° | 7km/h | 26322m | 6.4m/s | -49.1°C | 3.2% | 21.7hPa | 2.6V | 00:00:00 | 00:00:00 | 08:30:00 | |
| DL6DJ-15 | 2026-09-04 12:15:53 | 48.02222 | 12.40460 | 314° | 11km/h | 26252m | 3.7m/s | 0°C | -1.0% | -1.0hPa | 2.7V | 00:00:00 | 00:00:00 | 00:00:00 | |
| OE8JPQ-2 | 2026-09-04 12:15:52 | 48.02225 | 12.40456 | 314° | 7km/h | 26255m | 4.2m/s | -49.4°C | 3.4% | 21.9hPa | 2.7V | 00:00:00 | 01:45:54 | 00:00:00 | |
| HARRO8 | 2026-09-04 12:15:51 | 48.02222 | 12.40451 | 270° | 4km/h | 26209m | 4.9m/s | 0°C | -1.0% | -1.0hPa | 2.7V | 00:00:00 | 00:00:00 | 00:00:00 | |
| OE5WHR-10 | 2026-09-04 12:15:43 | 48.02221 | 12.40451 | 271° | 9km/h | 26210m | 4.8m/s | -49.4°C | 3.3% | 22.0hPa | 2.7V | 00:00:00 | 00:00:00 | 00:00:00 | |
| DG1MFX-10 | 2026-09-04 12:15:39 | 48.02221 | 12.40457 | 286° | 5km/h | 26193m | 5.0m/s | -49.4°C | 0.9% | 22.1hPa | 2.7V | 00:00:00 | 00:00:00 | 00:00:00 | |
| OE5MMP-10 | 2026-09-04 12:15:36 | 48.02218 | 12.40465 | 306° | 5km/h | 26173m | 5.8m/s | -49.3°C | 3.3% | 22.2hPa | 2.7V | 00:00:00 | 01:45:38 | 00:00:00 | |
| OE8JPQ-2 | 2026-09-04 12:15:32 | 48.02216 | 12.40466 | 96° | 7km/h | 26152m | 4.3m/s | -49.2°C | 3.3% | 22.2hPa | 2.7V | 00:00:00 | 00:00:00 | 00:00:00 | |
| OE5MMP-10 | 2026-09-04 12:15:26 | 48.02214 | 12.40463 | 274° | 9km/h | 26122m | 5.5m/s | -49.2°C | 3.3% | 22.3hPa | 2.7V | 00:00:00 | 01:45:28 | 08:30:00 | |
| OE5DXL-15 | 2026-09-04 12:15:22 | 48.02220 | 12.40471 | 228° | 9km/h | 26102m | 5.4m/s | -49.2°C | 3.3% | 22.4hPa | 2.6V | 00:00:00 | 00:00:00 | 08:30:00 | |
| DG1MFX-10 | 2026-09-04 12:15:19 | 48.02222 | 12.40478 | 270° | 9km/h | 26093m | 3.7m/s | -49.2°C | 0.9% | 22.5hPa | 2.7V | 00:00:00 | 00:00:00 | 00:00:00 | |
| OE5MMP-10 | 2026-09-04 12:15:16 | 48.02217 | 12.40474 | 72° | 9km/h | 26073m | 4.6m/s | -49.3°C | 3.3% | 22.5hPa | 2.7V | 00:00:00 | 01:45:18 | 00:00:00 | |
| DB0UT-7 | 2026-09-04 12:15:14 | 48.02217 | 12.40465 | 99° | 9km/h | 26063m | 5.3m/s | -49.2°C | 3.3% | 22.5hPa | 2.7V | 00:00:00 | 01:45:16 | 00:00:00 | |
| OE8JPQ-2 | 2026-09-04 12:15:12 | 48.02218 | 12.40462 | 187° | 7km/h | 26052m | 4.9m/s | -49.2°C | 3.3% | 22.6hPa | 2.6V | 00:00:00 | 00:00:00 | 00:00:00 | |
| OE5MMP-10 | 2026-09-04 12:15:06 | 48.02229 | 12.40469 | 257° | 7km/h | 26021m | 5.8m/s | -49.2°C | 3.2% | 22.7hPa | 2.6V | 00:00:00 | 01:45:08 | 00:00:00 | |
| HARRO8 | 2026-09-04 12:14:49 | 48.02242 | 12.40432 | 99° | 11km/h | 25921m | 4.9m/s | 0°C | -1.0% | -1.0hPa | 2.6V | 00:00:00 | 00:00:00 | 00:00:00 | |
| OE5MMP-10 | 2026-09-04 12:14:46 | 48.02242 | 12.40427 | 83° | 11km/h | 25916m | 6.0m/s | -49.3°C | 3.3% | 23.0hPa | 2.6V | 00:00:00 | 01:44:48 | 00:00:00 | |
| DB0UT-7 | 2026-09-04 12:14:43 | 48.02240 | 12.40419 | 75° | 7km/h | 25900m | 5.5m/s | -49.2°C | 3.3% | 23.1hPa | 2.6V | 00:00:00 | 00:00:00 | 00:00:00 | |
| OE5DRO-10 | 2026-09-04 12:14:41 | 48.02241 | 12.40417 | 181° | 9km/h | 25889m | 5.0m/s | -49.3°C | 3.3% | 23.2hPa | 2.6V | 00:00:00 | 00:00:00 | 00:00:00 | |
| DG1MFX-10 | 2026-09-04 12:14:38 | 48.02246 | 12.40420 | 218° | 13km/h | 25878m | 6.1m/s | -49.2°C | 0.9% | 23.3hPa | 2.6V | 00:00:00 | 00:00:00 | 00:00:00 | |
| OE5MMP-10 | 2026-09-04 12:14:36 | 48.02255 | 12.40430 | 199° | 9km/h | 25863m | 5.8m/s | -49.2°C | 3.4% | 23.2hPa | 2.6V | 00:00:00 | 01:44:38 | 00:00:00 | |
| DO3MHA-11 | 2026-09-04 12:14:35 | 48.02259 | 12.40430 | 176° | 9km/h | 25857m | 5.1m/s | -49.2°C | 3.3% | 23.3hPa | 2.6V | 00:00:00 | 01:44:37 | 00:00:00 | |
| OE8JPQ-2 | 2026-09-04 12:14:30 | 48.02262 | 12.40419 | 49° | 11km/h | 25831m | 3.9m/s | -49.1°C | 3.3% | 23.4hPa | 2.6V | 00:00:00 | 00:00:00 | 08:30:00 | |
| OE5MMP-10 | 2026-09-04 12:14:26 | 48.02259 | 12.40407 | 127° | 9km/h | 25812m | 4.5m/s | -49.2°C | 3.2% | 23.4hPa | 2.7V | 00:00:00 | 01:44:28 | 00:00:00 | |
| DO3MHA-11 | 2026-09-04 12:14:25 | 48.02260 | 12.40406 | 169° | 9km/h | 25806m | 6.0m/s | -49.2°C | 3.3% | 23.5hPa | 2.6V | 00:00:00 | 01:44:27 | 00:00:00 | |
| OE5DXL-15 | 2026-09-04 12:14:22 | 48.02266 | 12.40410 | 202° | 13km/h | 25791m | 4.7m/s | -49.2°C | 3.4% | 23.5hPa | 2.6V | 00:00:00 | 00:00:00 | 00:00:00 | |
| OE5DRO-10 | 2026-09-04 12:14:21 | 48.02268 | 12.40410 | 183° | 11km/h | 25785m | 6.3m/s | -49.2°C | 3.4% | 23.5hPa | 2.6V | 00:00:00 | 00:00:00 | 00:00:00 | |
| DG1MFX-10 | 2026-09-04 12:14:17 | 48.02277 | 12.40405 | 134° | 11km/h | 25768m | 6.2m/s | -49.2°C | 0.9% | 23.7hPa | 2.6V | 00:00:00 | 00:00:00 | 00:00:00 | |
| OE5MMP-10 | 2026-09-04 12:14:16 | 48.02279 | 12.40398 | 99° | 11km/h | 25757m | 4.5m/s | -49.1°C | 3.3% | 23.6hPa | 2.6V | 00:00:00 | 01:44:18 | 00:00:00 | |
| BAUMI2-15 | 2026-09-04 12:14:11 | 48.02283 | 12.40379 | 164° | 9km/h | 25730m | 6.0m/s | -49.0°C | 3.2% | 23.7hPa | 2.6V | 00:00:00 | 01:44:13 | 00:00:00 | |
| OE5MMP-10 | 2026-09-04 12:14:06 | 48.02296 | 12.40378 | 158° | 13km/h | 25704m | 4.6m/s | -48.9°C | 3.3% | 23.8hPa | 2.7V | 00:00:00 | 01:44:08 | 00:00:00 | |
| OE5DRO-10 | 2026-09-04 12:14:02 | 48.02299 | 12.40368 | 76° | 15km/h | 25683m | 4.9m/s | -48.9°C | 3.3% | 23.9hPa | 2.7V | 00:00:00 | 00:00:00 | 00:00:00 | |
| BAUMI2-15 | 2026-09-04 12:14:01 | 48.02298 | 12.40363 | 79° | 18km/h | 25678m | 6.5m/s | -48.9°C | 3.3% | 23.9hPa | 2.7V | 00:00:00 | 01:44:03 | 00:00:00 | |
| DG1MFX-10 | 2026-09-04 12:13:57 | 48.02295 | 12.40341 | 77° | 20km/h | 25661m | 6.0m/s | -48.9°C | 0.9% | 24.1hPa | 2.7V | 00:00:00 | 00:00:00 | 00:00:00 | |
| BAUMI2-15 | 2026-09-04 12:13:56 | 48.02293 | 12.40329 | 81° | 11km/h | 25650m | 4.5m/s | -49.0°C | 3.2% | 24.1hPa | 2.7V | 00:00:00 | 01:43:58 | 08:30:00 | |
| OE5DXL-15 | 2026-09-04 12:13:52 | 48.02299 | 12.40318 | 158° | 13km/h | 25628m | 4.7m/s | -48.9°C | 3.3% | 24.1hPa | 2.7V | 00:00:00 | 00:00:00 | 00:00:00 | |
| BAUMI2-15 | 2026-09-04 12:13:51 | 48.02301 | 12.40316 | 154° | 11km/h | 25623m | 5.9m/s | -48.9°C | 3.3% | 24.1hPa | 2.7V | 00:00:00 | 01:43:53 | 00:00:00 | |
| BAUMI2-15 | 2026-09-04 12:13:46 | 48.02301 | 12.40293 | 79° | 20km/h | 25597m | 4.8m/s | -48.8°C | 3.2% | 24.3hPa | 2.7V | 00:00:00 | 01:43:48 | 00:00:00 | |
| OE5DRO-10 | 2026-09-04 12:13:42 | 48.02292 | 12.40267 | 50° | 13km/h | 25576m | 4.7m/s | -48.9°C | 3.2% | 24.3hPa | 2.7V | 00:00:00 | 00:00:00 | 08:30:00 | |
| BAUMI2-15 | 2026-09-04 12:13:41 | 48.02289 | 12.40262 | 54° | 13km/h | 25570m | 6.2m/s | -48.8°C | 3.2% | 24.3hPa | 2.7V | 00:00:00 | 01:43:43 | 00:00:00 | |
| OE5MMP-10 | 2026-09-04 12:13:36 | 48.02282 | 12.40242 | 80° | 11km/h | 25542m | 5.2m/s | -48.8°C | 3.2% | 24.4hPa | 2.7V | 00:00:00 | 01:43:38 | 00:00:00 | |
| BAUMI2-15 | 2026-09-04 12:13:31 | 48.02285 | 12.40227 | 89° | 15km/h | 25514m | 6.0m/s | -48.9°C | 3.2% | 24.6hPa | 2.7V | 00:00:00 | 01:43:33 | 00:00:00 | |
| PG1ADW-2 | 2026-09-04 12:13:29 | 48.02284 | 12.40218 | 72° | 9km/h | 25503m | 4.9m/s | -49.0°C | 3.2% | 24.6hPa | 2.7V | 00:00:00 | 00:00:00 | 00:00:00 | |
| OE5MMP-10 | 2026-09-04 12:13:26 | 48.02280 | 12.40201 | 66° | 9km/h | 25487m | 4.8m/s | -49.0°C | 3.2% | 24.6hPa | 2.7V | 00:00:00 | 01:43:28 | 00:00:00 | |
| OE5DRO-10 | 2026-09-04 12:13:23 | 48.02274 | 12.40193 | 14° | 5km/h | 25470m | 4.9m/s | -49.2°C | 3.2% | 24.7hPa | 2.7V | 00:00:00 | 00:00:00 | 00:00:00 | |
| OE5DXL-15 | 2026-09-04 12:13:22 | 48.02273 | 12.40192 | 16° | 9km/h | 25465m | 5.6m/s | -49.3°C | 3.2% | 24.7hPa | 2.7V | 00:00:00 | 00:00:00 | 00:00:00 | |
| BAUMI2-15 | 2026-09-04 12:13:21 | 48.02271 | 12.40191 | 41° | 2km/h | 25459m | 6.0m/s | -49.3°C | 3.3% | 24.8hPa | 2.7V | 00:00:00 | 01:43:23 | 00:00:00 | |
| OE5MMP-10 | 2026-09-04 12:13:16 | 48.02271 | 12.40188 | 169° | 7km/h | 25432m | 4.6m/s | -49.4°C | 3.3% | 24.9hPa | 2.7V | 00:00:00 | 01:43:18 | 00:00:00 | |
| BAUMI2-15 | 2026-09-04 12:13:11 | 48.02271 | 12.40177 | 61° | 7km/h | 25405m | 6.3m/s | -49.6°C | 3.4% | 25.0hPa | 2.7V | 00:00:00 | 01:43:13 | 08:30:00 | |
| PG1ADW-2 | 2026-09-04 12:13:08 | 48.02266 | 12.40173 | 20° | 13km/h | 25388m | 5.8m/s | -49.5°C | 3.4% | 25.0hPa | 2.7V | 00:00:00 | 00:00:00 | 00:00:00 | |
| BAUMI2-15 | 2026-09-04 12:13:06 | 48.02263 | 12.40170 | 46° | 5km/h | 25376m | 4.9m/s | -49.5°C | 3.3% | 25.1hPa | 2.7V | 00:00:00 | 01:43:08 | 00:00:00 | |
| OE5DRO-10 | 2026-09-04 12:13:04 | 48.02260 | 12.40167 | 24° | 11km/h | 25366m | 6.3m/s | -49.5°C | 3.3% | 25.1hPa | 2.7V | 00:00:00 | 00:00:00 | 00:00:00 | |
| OE5MMP-10 | 2026-09-04 12:13:03 | 48.02259 | 12.40167 | 15° | 13km/h | 25360m | 5.2m/s | -49.4°C | 3.3% | 25.1hPa | 2.7V | 00:00:00 | 01:43:05 | 00:00:00 | |
| DF7PN | 2026-09-04 12:12:58 | 48.02253 | 12.40148 | 62° | 18km/h | 25334m | 5.3m/s | 0°C | -1.0% | -1.0hPa | 2.7V | 00:00:00 | 00:00:00 | 00:00:00 | |
| BAUMI2-15 | 2026-09-04 12:12:56 | 48.02247 | 12.40138 | 39° | 15km/h | 25322m | 5.0m/s | -49.6°C | 3.4% | 25.3hPa | 2.7V | 00:00:00 | 01:42:58 | 00:00:00 | |
| DG1MFX-10 | 2026-09-04 12:12:55 | 48.02247 | 12.40137 | 39° | 18km/h | 25322m | 5.1m/s | -49.6°C | 0.9% | 25.3hPa | 2.5V | 00:00:00 | 00:00:00 | 00:00:00 | |
| OE5MMP-10 | 2026-09-04 12:12:53 | 48.02236 | 12.40127 | 35° | 9km/h | 25306m | 5.8m/s | -49.6°C | 3.4% | 25.4hPa | 2.5V | 00:00:00 | 01:42:55 | 00:00:00 | |
| OE5DXL-15 | 2026-09-04 12:12:52 | 48.02232 | 12.40123 | 36° | 9km/h | 25301m | 4.6m/s | -49.6°C | 3.4% | 25.4hPa | 2.6V | 00:00:00 | 00:00:00 | 00:00:00 | |
| BAUMI2-15 | 2026-09-04 12:12:50 | 48.02228 | 12.40120 | 13° | 7km/h | 25291m | 6.2m/s | -49.6°C | 3.4% | 25.4hPa | 2.6V | 00:00:00 | 01:42:52 | 00:00:00 | |
| PG1ADW-2 | 2026-09-04 12:12:48 | 48.02224 | 12.40120 | 352° | 9km/h | 25280m | 4.5m/s | -49.6°C | 3.4% | 25.4hPa | 2.6V | 00:00:00 | 01:42:50 | 00:00:00 | |
| BAUMI2-15 | 2026-09-04 12:12:45 | 48.02220 | 12.40116 | 61° | 9km/h | 25263m | 5.3m/s | -49.6°C | 3.3% | 25.5hPa | 2.7V | 00:00:00 | 01:42:47 | 00:00:00 | |
| OE5MMP-10 | 2026-09-04 12:12:41 | 48.02213 | 12.40107 | 30° | 9km/h | 25242m | 4.3m/s | -49.5°C | 3.3% | 25.6hPa | 2.7V | 00:00:00 | 01:42:43 | 00:00:00 | |
| DG1MFX-10 | 2026-09-04 12:12:35 | 48.02200 | 12.40090 | 28° | 11km/h | 25209m | 4.6m/s | -49.7°C | 0.9% | 25.8hPa | 2.7V | 00:00:00 | 00:00:00 | 00:00:00 | |
| OE5MMP-10 | 2026-09-04 12:12:30 | 48.02192 | 12.40078 | 33° | 7km/h | 25182m | 6.3m/s | -49.9°C | 3.4% | 25.9hPa | 2.7V | 00:00:00 | 01:42:32 | 00:00:00 | |
| PG1ADW-2 | 2026-09-04 12:12:28 | 48.02188 | 12.40077 | 358° | 9km/h | 25171m | 4.4m/s | -49.8°C | 3.4% | 25.9hPa | 2.7V | 00:00:00 | 00:00:00 | 00:00:00 | |
| OE5DRO-10 | 2026-09-04 12:12:26 | 48.02184 | 12.40077 | 26° | 9km/h | 25161m | 6.1m/s | -49.9°C | 3.4% | 25.9hPa | 2.7V | 00:00:00 | 00:00:00 | 00:00:00 | |
| BAUMI2-15 | 2026-09-04 12:12:25 | 48.02183 | 12.40075 | 49° | 7km/h | 25155m | 5.1m/s | -49.9°C | 3.4% | 26.0hPa | 2.7V | 00:00:00 | 01:42:27 | 08:30:00 | |
| OE5DXL-15 | 2026-09-04 12:12:22 | 48.02179 | 12.40072 | 1° | 13km/h | 25138m | 5.5m/s | -49.8°C | 3.4% | 26.0hPa | 2.5V | 00:00:00 | 00:00:00 | 00:00:00 | |
| DO3MHA-11 | 2026-09-04 12:12:20 | 48.02175 | 12.40072 | 7° | 11km/h | 25128m | 5.6m/s | -49.8°C | 3.3% | 26.1hPa | 2.6V | 00:00:00 | 01:42:22 | 00:00:00 | |
| BAUMI2-15 | 2026-09-04 12:12:15 | 48.02164 | 12.40072 | 339° | 9km/h | 25101m | 4.5m/s | -49.7°C | 3.4% | 26.2hPa | 2.5V | 00:00:00 | 01:42:17 | 00:00:00 | |
| DG1MFX-10 | 2026-09-04 12:12:13 | 48.02160 | 12.40073 | 341° | 13km/h | 25098m | 3.6m/s | -49.8°C | 0.9% | 26.3hPa | 2.5V | 00:00:00 | 00:00:00 | 00:00:00 | |
| OE5MMP-10 | 2026-09-04 12:12:09 | 48.02147 | 12.40071 | 18° | 16km/h | 25072m | 5.5m/s | -49.8°C | 3.3% | 26.3hPa | 2.5V | 00:00:00 | 01:42:11 | 00:00:00 | |
| PG1ADW-2 | 2026-09-04 12:12:08 | 48.02145 | 12.40070 | 2° | 16km/h | 25066m | 5.9m/s | -49.8°C | 3.3% | 26.3hPa | 2.5V | 00:00:00 | 00:00:00 | 00:00:00 | |
| OE5DRO-10 | 2026-09-04 12:12:07 | 48.02141 | 12.40070 | 354° | 16km/h | 25061m | 5.1m/s | -49.9°C | 3.3% | 26.3hPa | 2.5V | 00:00:00 | 00:00:00 | 00:00:00 | |
| DO3MHA-11 | 2026-09-04 12:12:06 | 48.02137 | 12.40071 | 352° | 16km/h | 25055m | 5.5m/s | -49.8°C | 3.3% | 26.4hPa | 2.5V | 00:00:00 | 01:42:08 | 00:00:00 | |
| OE5MMP-10 | 2026-09-04 12:11:59 | 48.02106 | 12.40081 | 357° | 16km/h | 25018m | 6.2m/s | -50.1°C | 3.4% | 26.5hPa | 2.5V | 00:00:00 | 01:42:01 | 00:00:00 | |
| DO3MHA-11 | 2026-09-04 12:11:56 | 48.02095 | 12.40079 | 3° | 16km/h | 25003m | 5.8m/s | -50.4°C | 3.5% | 26.6hPa | 2.5V | 00:00:00 | 01:41:58 | 00:00:00 | |
| DG1MFX-10 | 2026-09-04 12:11:53 | 48.02088 | 12.40081 | 351° | 18km/h | 24993m | 4.4m/s | -50.4°C | 1.0% | 26.7hPa | 2.5V | 00:00:00 | 00:00:00 | 00:00:00 | |
| OE5DXL-15 | 2026-09-04 12:11:52 | 48.02078 | 12.40082 | 358° | 18km/h | 24983m | 6.2m/s | -50.3°C | 3.5% | 26.6hPa | 2.5V | 00:00:00 | 00:00:00 | 00:00:00 | |
| OE5MMP-10 | 2026-09-04 12:11:49 | 48.02066 | 12.40084 | 341° | 16km/h | 24966m | 5.8m/s | -50.3°C | 3.5% | 26.7hPa | 2.5V | 00:00:00 | 01:41:51 | 00:00:00 | |
| PG1ADW-2 | 2026-09-04 12:11:48 | 48.02062 | 12.40087 | 325° | 18km/h | 24961m | 4.9m/s | -50.3°C | 3.5% | 26.8hPa | 2.5V | 00:00:00 | 00:00:00 | 00:00:00 | |
| DO3MHA-11 | 2026-09-04 12:11:46 | 48.02056 | 12.40095 | 317° | 16km/h | 24952m | 5.4m/s | -50.3°C | 3.5% | 26.8hPa | 2.7V | 00:00:00 | 01:41:48 | 08:30:00 | |
| OE5MMP-10 | 2026-09-04 12:11:39 | 48.02033 | 12.40122 | 325° | 20km/h | 24916m | 5.4m/s | -50.2°C | 3.4% | 26.9hPa | 2.7V | 00:00:00 | 01:41:41 | 00:00:00 | |
| OM5KV | 2026-09-04 12:11:38 | 48.02033 | 12.40122 | 326° | 18km/h | 24916m | 5.5m/s | -50.3°C | 0.9% | 27.0hPa | 2.7V | 00:00:00 | 00:00:00 | 00:00:00 | |
| DO3MHA-11 | 2026-09-04 12:11:32 | 48.02007 | 12.40155 | 307° | 18km/h | 24879m | 5.5m/s | -50.1°C | 3.5% | 27.1hPa | 2.7V | 00:00:00 | 01:41:34 | 00:00:00 | |
| OM5KV | 2026-09-04 12:11:31 | 48.02007 | 12.40155 | 308° | 20km/h | 24879m | 5.6m/s | -50.1°C | 0.9% | 27.2hPa | 2.7V | 00:00:00 | 00:00:00 | 00:00:00 | |
| OE5MMP-10 | 2026-09-04 12:11:29 | 48.01998 | 12.40173 | 309° | 20km/h | 24865m | 5.6m/s | -50.2°C | 3.5% | 27.2hPa | 2.7V | 00:00:00 | 01:41:31 | 00:00:00 | |
| PG1ADW-2 | 2026-09-04 12:11:28 | 48.01995 | 12.40179 | 309° | 20km/h | 24859m | 5.6m/s | -50.2°C | 3.5% | 27.2hPa | 2.7V | 00:00:00 | 01:41:30 | 00:00:00 | |
| OM5KV | 2026-09-04 12:11:26 | 48.01991 | 12.40186 | 310° | 24km/h | 24854m | 4.3m/s | -50.2°C | 0.9% | 27.3hPa | 2.7V | 00:00:00 | 00:00:00 | 00:00:00 | |
| OE5DXL-15 | 2026-09-04 12:11:22 | 48.01975 | 12.40212 | 314° | 20km/h | 24830m | 5.2m/s | -50.2°C | 3.4% | 27.3hPa | 2.7V | 00:00:00 | 00:00:00 | 00:00:00 | |
| DO3MHA-11 | 2026-09-04 12:11:21 | 48.01972 | 12.40217 | 306° | 16km/h | 24824m | 5.6m/s | -50.2°C | 3.4% | 27.3hPa | 2.7V | 00:00:00 | 01:41:23 | 00:00:00 | |
| OE5MMP-10 | 2026-09-04 12:11:18 | 48.01965 | 12.40240 | 286° | 22km/h | 24810m | 5.4m/s | -50.1°C | 3.4% | 27.4hPa | 2.7V | 00:00:00 | 01:41:20 | 00:00:00 | |
| OM5KV | 2026-09-04 12:11:17 | 48.01965 | 12.40240 | 286° | 22km/h | 24810m | 5.5m/s | -50.2°C | 0.9% | 27.4hPa | 2.7V | 00:00:00 | 00:00:00 | 00:00:00 | |
| OM5KV | 2026-09-04 12:11:16 | 48.01964 | 12.40248 | 278° | 20km/h | 24805m | 5.9m/s | -50.3°C | 0.9% | 27.5hPa | 2.7V | 00:00:00 | 00:00:00 | 00:00:00 | |
| DG1MFX-10 | 2026-09-04 12:11:11 | 48.01962 | 12.40287 | 275° | 20km/h | 24778m | 4.4m/s | -50.3°C | 1.0% | 27.6hPa | 2.7V | 00:00:00 | 00:00:00 | 00:00:00 | |
| OE5DRO-10 | 2026-09-04 12:11:10 | 48.01963 | 12.40300 | 261° | 18km/h | 24767m | 5.5m/s | -50.3°C | 3.5% | 27.6hPa | 2.7V | 00:00:00 | 00:00:00 | 00:00:00 | |
| OE5MMP-10 | 2026-09-04 12:11:08 | 48.01964 | 12.40312 | 260° | 22km/h | 24756m | 6.1m/s | -50.2°C | 3.4% | 27.6hPa | 2.7V | 00:00:00 | 01:41:10 | 00:00:00 | |
| OM5KV | 2026-09-04 12:11:06 | 48.01965 | 12.40320 | 260° | 20km/h | 24751m | 4.8m/s | -50.2°C | 0.9% | 27.7hPa | 2.7V | 00:00:00 | 00:00:00 | 00:00:00 | |
| OM5KV | 2026-09-04 12:11:05 | 48.01966 | 12.40328 | 256° | 22km/h | 24746m | 4.4m/s | -50.3°C | 0.9% | 27.7hPa | 2.7V | 00:00:00 | 00:00:00 | 00:00:00 | |
| DG1MJG | 2026-09-04 12:11:03 | 48.01971 | 12.40344 | 243° | 24km/h | 24735m | 5.4m/s | -50.4°C | 0.9% | 27.7hPa | 2.7V | 00:00:00 | 00:00:00 | 00:00:00 | |
| OM5KV | 2026-09-04 12:11:01 | 48.01976 | 12.40360 | 246° | 26km/h | 24725m | 5.4m/s | -50.4°C | 0.9% | 27.8hPa | 2.7V | 00:00:00 | 00:00:00 | 00:00:00 | |
| OM5KV | 2026-09-04 12:10:59 | 48.01982 | 12.40387 | 257° | 24km/h | 24710m | 5.0m/s | -50.3°C | 0.9% | 27.9hPa | 2.7V | 00:00:00 | 00:00:00 | 00:00:00 | |
| OE5MMP-10 | 2026-09-04 12:10:58 | 48.01983 | 12.40395 | 253° | 15km/h | 24704m | 5.9m/s | -50.2°C | 3.5% | 27.8hPa | 2.7V | 00:00:00 | 01:41:00 | 00:00:00 | |
| OM5KV | 2026-09-04 12:10:55 | 48.01986 | 12.40406 | 260° | 13km/h | 24694m | 4.5m/s | -50.2°C | 1.0% | 27.9hPa | 2.7V | 00:00:00 | 00:00:00 | 00:00:00 | |
| OE5DXL-15 | 2026-09-04 12:10:52 | 48.01983 | 12.40421 | 301° | 9km/h | 24672m | 5.8m/s | -50.2°C | 3.5% | 28.0hPa | 2.7V | 00:00:00 | 00:00:00 | 08:30:00 | |
| OE5DRO-10 | 2026-09-04 12:10:51 | 48.01982 | 12.40423 | 276° | 9km/h | 24666m | 5.2m/s | -50.2°C | 3.4% | 28.0hPa | 2.7V | 00:00:00 | 00:00:00 | 08:30:00 | |
| DG1MFX-10 | 2026-09-04 12:10:50 | 48.01982 | 12.40423 | 277° | 5km/h | 24666m | 5.3m/s | -50.3°C | 1.0% | 28.0hPa | 2.7V | 00:00:00 | 00:00:00 | 00:00:00 | |
| OE5MMP-10 | 2026-09-04 12:10:48 | 48.01984 | 12.40433 | 260° | 7km/h | 24652m | 6.1m/s | -50.3°C | 3.4% | 28.0hPa | 2.7V | 00:00:00 | 01:40:50 | 08:30:00 | |
| OM5KV | 2026-09-04 12:10:41 | 48.01991 | 12.40468 | 246° | 13km/h | 24621m | 5.1m/s | -50.2°C | 0.9% | 28.3hPa | 2.7V | 00:00:00 | 00:00:00 | 00:00:00 | |
| OM5KV | 2026-09-04 12:10:36 | 48.01990 | 12.40484 | 311° | 4km/h | 24594m | 5.9m/s | -50.3°C | 0.9% | 28.4hPa | 2.7V | 00:00:00 | 00:00:00 | 00:00:00 | |
| OE5MMP-10 | 2026-09-04 12:10:34 | 48.01989 | 12.40485 | 321° | 4km/h | 24580m | 6.1m/s | -50.4°C | 3.5% | 28.4hPa | 2.7V | 00:00:00 | 01:40:36 | 00:00:00 | |
| DG1MJG | 2026-09-04 12:10:33 | 48.01989 | 12.40485 | 322° | 4km/h | 24580m | 6.1m/s | -50.4°C | 1.0% | 28.4hPa | 2.7V | 00:00:00 | 00:00:00 | 00:00:00 | |
| OE5DRO-10 | 2026-09-04 12:10:32 | 48.01986 | 12.40489 | 308° | 5km/h | 24569m | 4.5m/s | -50.3°C | 3.4% | 28.4hPa | 2.7V | 00:00:00 | 00:00:00 | 00:00:00 | |
| DG1MFX-10 | 2026-09-04 12:10:30 | 48.01985 | 12.40492 | 300° | 7km/h | 24564m | 4.3m/s | -50.4°C | 0.9% | 28.5hPa | 2.7V | 00:00:00 | 00:00:00 | 00:00:00 | |
| PG1ADW-2 | 2026-09-04 12:10:28 | 48.01986 | 12.40496 | 192° | 4km/h | 24548m | 5.0m/s | -50.4°C | 3.5% | 28.5hPa | 2.7V | 00:00:00 | 00:00:00 | 00:00:00 | |
| OM5KV | 2026-09-04 12:10:23 | 48.01990 | 12.40499 | 192° | 4km/h | 24528m | 4.7m/s | -50.6°C | 0.9% | 28.7hPa | 2.7V | 00:00:00 | 00:00:00 | 00:00:00 | |
| OE5DXL-15 | 2026-09-04 12:10:22 | 48.01993 | 12.40498 | 137° | 5km/h | 24516m | 5.1m/s | -50.5°C | 3.5% | 28.7hPa | 2.7V | 00:00:00 | 00:00:00 | 00:00:00 | |
| OM5KV | 2026-09-04 12:10:18 | 48.01995 | 12.40494 | 157° | 2km/h | 24501m | 5.1m/s | -50.6°C | 0.9% | 28.8hPa | 2.7V | 00:00:00 | 00:00:00 | 00:00:00 | |
| OE5MMP-10 | 2026-09-04 12:10:16 | 48.01998 | 12.40492 | 145° | 4km/h | 24485m | 5.7m/s | -50.5°C | 3.4% | 28.8hPa | 2.7V | 00:00:00 | 01:40:18 | 00:00:00 | |
| OE5DRO-10 | 2026-09-04 12:10:13 | 48.02001 | 12.40491 | 227° | 5km/h | 24468m | 5.8m/s | -50.5°C | 3.5% | 28.9hPa | 2.7V | 00:00:00 | 00:00:00 | 00:00:00 | |
| OM5KV | 2026-09-04 12:10:12 | 48.02001 | 12.40491 | 227° | 5km/h | 24468m | 5.8m/s | -50.6°C | 0.9% | 28.9hPa | 2.7V | 00:00:00 | 00:00:00 | 00:00:00 | |
| BAUMI2-15 | 2026-09-04 12:10:10 | 48.02002 | 12.40494 | 105° | 4km/h | 24452m | 6.1m/s | -50.6°C | 3.5% | 28.9hPa | 2.7V | 00:00:00 | 01:40:12 | 00:00:00 | |
| OM5KV | 2026-09-04 12:10:09 | 48.02002 | 12.40494 | 0° | 0km/h | 24452m | 6.1m/s | -50.7°C | 0.9% | 29.0hPa | 2.7V | 00:00:00 | 00:00:00 | 00:00:00 | |
| PG1ADW-2 | 2026-09-04 12:10:08 | 48.02002 | 12.40490 | 92° | 7km/h | 24442m | 4.5m/s | -50.7°C | 3.5% | 29.0hPa | 2.7V | 00:00:00 | 01:40:10 | 00:00:00 | |
| OE5MMP-10 | 2026-09-04 12:10:06 | 48.02003 | 12.40488 | 143° | 7km/h | 24431m | 4.9m/s | -50.7°C | 3.5% | 29.1hPa | 2.7V | 00:00:00 | 01:40:08 | 00:00:00 | |
| BAUMI2-15 | 2026-09-04 12:10:05 | 48.02003 | 12.40487 | 157° | 9km/h | 24426m | 4.3m/s | -50.8°C | 3.5% | 29.1hPa | 2.7V | 00:00:00 | 01:40:07 | 00:00:00 | |
| DG1MJG | 2026-09-04 12:10:03 | 48.02005 | 12.40486 | 151° | 7km/h | 24421m | 5.8m/s | -50.8°C | 0.9% | 29.1hPa | 2.7V | 00:00:00 | 00:00:00 | 00:00:00 | |
| OM5KV | 2026-09-04 12:10:02 | 48.02006 | 12.40484 | 148° | 9km/h | 24415m | 5.8m/s | -50.8°C | 1.0% | 29.2hPa | 2.7V | 00:00:00 | 00:00:00 | 00:00:00 | |
| OM5KV | 2026-09-04 12:10:01 | 48.02009 | 12.40482 | 150° | 13km/h | 24410m | 4.4m/s | -50.9°C | 0.9% | 29.2hPa | 2.7V | 00:00:00 | 00:00:00 | 00:00:00 | |
| BAUMI2-15 | 2026-09-04 12:10:00 | 48.02014 | 12.40479 | 171° | 7km/h | 24401m | 5.8m/s | -50.8°C | 3.5% | 29.2hPa | 2.7V | 00:00:00 | 01:40:02 | 00:00:00 | |
| OE5MMP-10 | 2026-09-04 12:09:56 | 48.02021 | 12.40480 | 120° | 9km/h | 24380m | 6.3m/s | -50.8°C | 3.5% | 29.3hPa | 2.7V | 00:00:00 | 01:39:58 | 00:00:00 | |
| BAUMI2-15 | 2026-09-04 12:09:55 | 48.02021 | 12.40478 | 93° | 9km/h | 24375m | 5.1m/s | -50.8°C | 3.5% | 29.3hPa | 2.7V | 00:00:00 | 01:39:57 | 00:00:00 | |
| OE5DRO-10 | 2026-09-04 12:09:54 | 48.02021 | 12.40474 | 88° | 7km/h | 24370m | 4.6m/s | -50.7°C | 3.5% | 29.3hPa | 2.7V | 00:00:00 | 00:00:00 | 00:00:00 | |
| BAUMI2-15 | 2026-09-04 12:09:50 | 48.02023 | 12.40462 | 133° | 9km/h | 24350m | 5.0m/s | -50.8°C | 3.5% | 29.4hPa | 2.7V | 00:00:00 | 01:39:52 | 00:00:00 | |
| DG1MFX-10 | 2026-09-04 12:09:49 | 48.02023 | 12.40462 | 133° | 9km/h | 24350m | 5.1m/s | -50.8°C | 1.0% | 29.5hPa | 2.7V | 00:00:00 | 00:00:00 | 00:00:00 | |
| PG1ADW-2 | 2026-09-04 12:09:48 | 48.02027 | 12.40456 | 142° | 7km/h | 24339m | 5.0m/s | -50.7°C | 3.5% | 29.5hPa | 2.7V | 00:00:00 | 00:00:00 | 00:00:00 | |
| OE5MMP-10 | 2026-09-04 12:09:46 | 48.02031 | 12.40454 | 189° | 7km/h | 24329m | 5.6m/s | -50.7°C | 3.5% | 29.5hPa | 2.7V | 00:00:00 | 01:39:48 | 00:00:00 | |
| BAUMI2-15 | 2026-09-04 12:09:45 | 48.02032 | 12.40455 | 227° | 5km/h | 24323m | 6.0m/s | -50.8°C | 3.5% | 29.5hPa | 2.7V | 00:00:00 | 01:39:47 | 00:00:00 | |
| OM5KV | 2026-09-04 12:09:43 | 48.02034 | 12.40458 | 248° | 9km/h | 24318m | 5.3m/s | -50.9°C | 0% | 0hPa | 2.7V | 00:00:00 | 00:00:00 | 00:00:00 | |
| OM5KV | 2026-09-04 12:09:42 | 48.02034 | 12.40460 | 252° | 7km/h | 24313m | 4.7m/s | -50.9°C | 0.9% | 29.6hPa | 2.7V | 00:00:00 | 00:00:00 | 00:00:00 | |
| BAUMI2-15 | 2026-09-04 12:09:40 | 48.02037 | 12.40463 | 159° | 7km/h | 24297m | 5.1m/s | -51.0°C | 3.5% | 29.7hPa | 2.7V | 00:00:00 | 01:39:42 | 08:30:00 | |
| OM5KV | 2026-09-04 12:09:37 | 48.02040 | 12.40462 | 184° | 5km/h | 24285m | 5.4m/s | -51.1°C | 0.9% | 29.8hPa | 2.7V | 00:00:00 | 00:00:00 | 00:00:00 | |
| DB0UT-7 | 2026-09-04 12:09:36 | 48.02043 | 12.40462 | 174° | 15km/h | 24275m | 5.5m/s | -51.1°C | 3.5% | 29.8hPa | 2.7V | 00:00:00 | 01:39:38 | 00:00:00 | |
| BAUMI2-15 | 2026-09-04 12:09:35 | 48.02046 | 12.40461 | 167° | 9km/h | 24269m | 5.7m/s | -51.0°C | 3.5% | 29.8hPa | 2.7V | 00:00:00 | 01:39:37 | 00:00:00 | |
| OE5MMP-10 | 2026-09-04 12:09:34 | 48.02049 | 12.40460 | 169° | 11km/h | 24264m | 4.7m/s | -51.1°C | 3.5% | 29.8hPa | 2.7V | 00:00:00 | 01:39:36 | 00:00:00 | |
| OM5KV | 2026-09-04 12:09:32 | 48.02051 | 12.40460 | 179° | 11km/h | 24259m | 6.0m/s | -51.1°C | 0% | 29.9hPa | 2.5V | 00:00:00 | 00:00:00 | 00:00:00 | |
| OM5KV | 2026-09-04 12:09:31 | 48.02054 | 12.40460 | 194° | 9km/h | 24253m | 5.6m/s | 0°C | 0% | 0hPa | 2.5V | 00:00:00 | 00:00:00 | 00:00:00 | |
| BAUMI2-15 | 2026-09-04 12:09:30 | 48.02057 | 12.40461 | 163° | 9km/h | 24243m | 5.0m/s | -51.2°C | 3.6% | 29.9hPa | 2.5V | 00:00:00 | 01:39:32 | 00:00:00 | |
| DG1MFX-10 | 2026-09-04 12:09:29 | 48.02057 | 12.40461 | 164° | 5km/h | 24243m | 5.1m/s | -51.2°C | 1.0% | 30.0hPa | 2.5V | 00:00:00 | 00:00:00 | 00:00:00 | |
| PG1ADW-2 | 2026-09-04 12:09:28 | 48.02059 | 12.40456 | 102° | 7km/h | 24232m | 4.9m/s | -51.3°C | 3.7% | 30.0hPa | 2.5V | 00:00:00 | 00:00:00 | 00:00:00 | |
| BAUMI2-15 | 2026-09-04 12:09:25 | 48.02060 | 12.40446 | 106° | 5km/h | 24217m | 5.3m/s | -51.4°C | 3.7% | 30.0hPa | 2.5V | 00:00:00 | 01:39:27 | 00:00:00 | |
| OM5KV | 2026-09-04 12:09:24 | 48.02060 | 12.40446 | 106° | 5km/h | 24217m | 5.4m/s | 0°C | 0% | 0hPa | 2.7V | 00:00:00 | 00:00:00 | 00:00:00 | |
| DO3MHA-11 | 2026-09-04 12:09:23 | 48.02061 | 12.40444 | 162° | 5km/h | 24205m | 6.3m/s | -51.4°C | 3.6% | 30.1hPa | 2.7V | 00:00:00 | 01:39:25 | 00:00:00 | |
| OE5DXL-15 | 2026-09-04 12:09:22 | 48.02063 | 12.40443 | 178° | 9km/h | 24199m | 5.5m/s | -51.4°C | 3.7% | 30.1hPa | 2.5V | 00:00:00 | 00:00:00 | 00:00:00 | |
| OM5KV | 2026-09-04 12:09:21 | 48.02062 | 12.40443 | 179° | 5km/h | 24199m | 5.5m/s | 0°C | 0% | 30.2hPa | 2.5V | 00:00:00 | 00:00:00 | 00:00:00 | |
| BAUMI2-15 | 2026-09-04 12:09:20 | 48.02066 | 12.40446 | 224° | 11km/h | 24189m | 5.6m/s | -51.3°C | 3.6% | 30.2hPa | 2.5V | 00:00:00 | 01:39:22 | 00:00:00 | |
| OM5KV | 2026-09-04 12:09:18 | 48.02068 | 12.40449 | 237° | 15km/h | 24183m | 6.1m/s | 0°C | 0% | 0hPa | 2.5V | 00:00:00 | 00:00:00 | 00:00:00 | |
| OE5MMP-10 | 2026-09-04 12:09:17 | 48.02072 | 12.40458 | 239° | 13km/h | 24173m | 5.2m/s | -51.3°C | 3.6% | 30.3hPa | 2.5V | 00:00:00 | 01:39:19 | 00:00:00 | |
| OE5DRO-10 | 2026-09-04 12:09:16 | 48.02073 | 12.40461 | 224° | 7km/h | 24167m | 6.3m/s | -51.2°C | 3.6% | 30.3hPa | 2.5V | 00:00:00 | 00:00:00 | 00:00:00 | |
| BAUMI2-15 | 2026-09-04 12:09:15 | 48.02075 | 12.40462 | 180° | 4km/h | 24161m | 5.2m/s | -51.1°C | 3.6% | 30.3hPa | 2.5V | 00:00:00 | 01:39:17 | 00:00:00 | |
| DO3MHA-11 | 2026-09-04 12:09:13 | 48.02077 | 12.40460 | 133° | 7km/h | 24151m | 6.0m/s | -51.2°C | 3.6% | 30.4hPa | 2.5V | 00:00:00 | 01:39:15 | 00:00:00 | |
| OM5KV | 2026-09-04 12:09:12 | 48.02077 | 12.40460 | 133° | 5km/h | 24151m | 6.0m/s | -51.2°C | 1.0% | 30.4hPa | 2.5V | 00:00:00 | 00:00:00 | 00:00:00 | |
| OM5KV | 2026-09-04 12:09:11 | 48.02078 | 12.40459 | 131° | 4km/h | 24145m | 5.5m/s | 0°C | 0% | 0hPa | 2.5V | 00:00:00 | 00:00:00 | 00:00:00 | |
| BAUMI2-15 | 2026-09-04 12:09:10 | 48.02078 | 12.40456 | 95° | 5km/h | 24135m | 5.7m/s | -51.2°C | 3.6% | 30.4hPa | 2.5V | 00:00:00 | 01:39:12 | 00:00:00 | |
| PG1ADW-2 | 2026-09-04 12:09:09 | 48.02079 | 12.40453 | 116° | 9km/h | 24123m | 4.5m/s | -51.2°C | 3.6% | 30.5hPa | 2.7V | 00:00:00 | 00:00:00 | 00:00:00 | |
| OM5KV | 2026-09-04 12:09:07 | 48.02079 | 12.40453 | 116° | 5km/h | 24123m | 4.6m/s | -51.3°C | 0% | 0hPa | 2.7V | 00:00:00 | 00:00:00 | 00:00:00 | |
| BAUMI2-15 | 2026-09-04 12:09:05 | 48.02083 | 12.40453 | 203° | 9km/h | 24107m | 5.2m/s | -51.3°C | 3.6% | 30.6hPa | 2.7V | 00:00:00 | 01:39:07 | 00:00:00 | |
| BAUMI2-15 | 2026-09-04 12:09:00 | 48.02094 | 12.40451 | 143° | 11km/h | 24080m | 5.9m/s | -51.3°C | 3.6% | 30.7hPa | 2.7V | 00:00:00 | 01:39:02 | 00:00:00 | |
| DO3MHA-11 | 2026-09-04 12:08:59 | 48.02095 | 12.40449 | 130° | 11km/h | 24074m | 5.2m/s | -51.3°C | 3.6% | 30.7hPa | 2.7V | 00:00:00 | 01:39:01 | 00:00:00 | |
| OE5DRO-10 | 2026-09-04 12:08:58 | 48.02097 | 12.40442 | 104° | 13km/h | 24064m | 6.3m/s | -51.3°C | 3.6% | 30.8hPa | 2.7V | 00:00:00 | 00:00:00 | 00:00:00 | |
| OM5KV | 2026-09-04 12:08:56 | 48.02097 | 12.40442 | 104° | 13km/h | 24064m | 6.3m/s | -51.4°C | 0% | 0hPa | 2.5V | 00:00:00 | 00:00:00 | 00:00:00 | |
| BAUMI2-15 | 2026-09-04 12:08:55 | 48.02098 | 12.40431 | 98° | 11km/h | 24053m | 4.3m/s | -51.2°C | 3.5% | 30.8hPa | 2.5V | 00:00:00 | 01:38:57 | 08:30:00 | |
| OE5DXL-15 | 2026-09-04 12:08:52 | 48.02101 | 12.40421 | 161° | 15km/h | 24037m | 4.8m/s | -51.4°C | 3.5% | 30.9hPa | 2.5V | 00:00:00 | 00:00:00 | 00:00:00 | |
| OM5KV | 2026-09-04 12:08:51 | 48.02101 | 12.40421 | 162° | 7km/h | 24037m | 4.9m/s | -51.4°C | 0% | 0hPa | 2.5V | 00:00:00 | 00:00:00 | 00:00:00 | |
| BAUMI2-15 | 2026-09-04 12:08:50 | 48.02105 | 12.40420 | 164° | 13km/h | 24027m | 5.5m/s | -51.5°C | 3.6% | 30.9hPa | 2.5V | 00:00:00 | 01:38:52 | 00:00:00 | |
| PG1ADW-2 | 2026-09-04 12:08:48 | 48.02110 | 12.40415 | 138° | 15km/h | 24016m | 5.1m/s | -51.3°C | 3.7% | 31.0hPa | 2.5V | 00:00:00 | 01:38:50 | 00:00:00 | |
| BAUMI2-15 | 2026-09-04 12:08:45 | 48.02117 | 12.40403 | 127° | 15km/h | 24000m | 5.6m/s | -51.5°C | 3.7% | 31.1hPa | 2.7V | 00:00:00 | 01:38:47 | 00:00:00 | |
| OM5KV | 2026-09-04 12:08:44 | 48.02118 | 12.40403 | 127° | 13km/h | 24000m | 5.6m/s | -51.5°C | 0% | 0hPa | 2.7V | 00:00:00 | 00:00:00 | 00:00:00 | |
| OM5KV | 2026-09-04 12:08:42 | 48.02121 | 12.40394 | 114° | 15km/h | 23989m | 5.6m/s | 0°C | 0% | 0hPa | 2.7V | 00:00:00 | 00:00:00 | 00:00:00 | |
| BAUMI2-15 | 2026-09-04 12:08:40 | 48.02126 | 12.40377 | 127° | 15km/h | 23974m | 5.2m/s | -51.5°C | 3.6% | 31.2hPa | 2.7V | 00:00:00 | 01:38:42 | 00:00:00 | |
| OE5DRO-10 | 2026-09-04 12:08:38 | 48.02132 | 12.40370 | 152° | 15km/h | 23963m | 5.1m/s | -51.4°C | 3.5% | 31.3hPa | 2.7V | 00:00:00 | 00:00:00 | 00:00:00 | |
| BAUMI2-15 | 2026-09-04 12:08:35 | 48.02140 | 12.40362 | 128° | 11km/h | 23946m | 4.6m/s | -51.3°C | 3.5% | 31.3hPa | 2.7V | 00:00:00 | 01:38:37 | 00:00:00 | |
| OM5KV | 2026-09-04 12:08:33 | 48.02142 | 12.40358 | 117° | 13km/h | 23942m | 4.2m/s | 0°C | 0% | 0hPa | 2.7V | 00:00:00 | 00:00:00 | 00:00:00 | |
| DG1MJG | 2026-09-04 12:08:32 | 48.02143 | 12.40353 | 109° | 11km/h | 23937m | 5.9m/s | -51.4°C | 1.0% | 31.4hPa | 2.7V | 00:00:00 | 00:00:00 | 00:00:00 | |
| BAUMI2-15 | 2026-09-04 12:08:30 | 48.02144 | 12.40341 | 91° | 18km/h | 23921m | 5.0m/s | -51.4°C | 3.6% | 31.5hPa | 2.7V | 00:00:00 | 01:38:32 | 00:00:00 | |
| PG1ADW-2 | 2026-09-04 12:08:28 | 48.02144 | 12.40327 | 92° | 16km/h | 23910m | 4.6m/s | -51.5°C | 3.5% | 31.5hPa | 2.7V | 00:00:00 | 00:00:00 | 00:00:00 | |
| DG1MFX-10 | 2026-09-04 12:08:27 | 48.02144 | 12.40327 | 93° | 22km/h | 23910m | 4.7m/s | -51.5°C | 1.0% | 31.6hPa | 2.7V | 00:00:00 | 00:00:00 | 00:00:00 | |
| BAUMI2-15 | 2026-09-04 12:08:25 | 48.02145 | 12.40306 | 101° | 15km/h | 23895m | 5.3m/s | -51.7°C | 3.6% | 31.6hPa | 2.7V | 00:00:00 | 01:38:27 | 00:00:00 | |
| OE5DXL-15 | 2026-09-04 12:08:22 | 48.02147 | 12.40291 | 103° | 15km/h | 23879m | 5.7m/s | -51.6°C | 3.6% | 31.7hPa | 2.5V | 00:00:00 | 00:00:00 | 00:00:00 | |
| BAUMI2-15 | 2026-09-04 12:08:20 | 48.02149 | 12.40279 | 108° | 13km/h | 23870m | 4.3m/s | -51.7°C | 3.5% | 31.7hPa | 2.5V | 00:00:00 | 01:38:22 | 00:00:00 | |
| OE5DRO-10 | 2026-09-04 12:08:19 | 48.02151 | 12.40274 | 112° | 16km/h | 23865m | 6.0m/s | -51.7°C | 3.5% | 31.7hPa | 2.5V | 00:00:00 | 00:00:00 | 00:00:00 | |
| BAUMI2-15 | 2026-09-04 12:08:15 | 48.02153 | 12.40255 | 87° | 20km/h | 23844m | 6.0m/s | -51.8°C | 3.7% | 31.8hPa | 2.5V | 00:00:00 | 01:38:17 | 00:00:00 | |
| DB0UT-7 | 2026-09-04 12:08:11 | 48.02151 | 12.40224 | 85° | 15km/h | 23823m | 5.3m/s | -51.9°C | 3.7% | 31.9hPa | 2.5V | 00:00:00 | 00:00:00 | 08:30:00 | |
| PG1ADW-2 | 2026-09-04 12:08:09 | 48.02150 | 12.40207 | 85° | 13km/h | 23808m | 5.9m/s | -52.1°C | 3.7% | 32.0hPa | 2.6V | 00:00:00 | 00:00:00 | 00:00:00 | |
| DG1MFX-10 | 2026-09-04 12:08:07 | 48.02150 | 12.40207 | 85° | 16km/h | 23808m | 6.0m/s | -52.2°C | 1.0% | 32.1hPa | 2.6V | 00:00:00 | 00:00:00 | 00:00:00 | |
| DG1MJG | 2026-09-04 12:08:01 | 48.02142 | 12.40179 | 56° | 13km/h | 23778m | 4.6m/s | -52.3°C | 1.0% | 32.2hPa | 2.6V | 00:00:00 | 00:00:00 | 00:00:00 | |
| OE5DRO-10 | 2026-09-04 12:08:00 | 48.02138 | 12.40168 | 70° | 13km/h | 23767m | 4.6m/s | -52.1°C | 3.7% | 32.2hPa | 2.6V | 00:00:00 | 00:00:00 | 08:30:00 | |
| OE5DXL-15 | 2026-09-04 12:07:52 | 48.02144 | 12.40129 | 115° | 9km/h | 23726m | 4.3m/s | -52.3°C | 3.7% | 32.4hPa | 2.7V | 00:00:00 | 00:00:00 | 00:00:00 | |
| PG1ADW-2 | 2026-09-04 12:07:48 | 48.02149 | 12.40116 | 118° | 9km/h | 23704m | 6.1m/s | -52.4°C | 3.7% | 32.5hPa | 2.6V | 00:00:00 | 00:00:00 | 08:30:00 | |
| OM5KV | 2026-09-04 12:07:47 | 48.02150 | 12.40112 | 109° | 15km/h | 23699m | 5.1m/s | 0°C | 0% | 0hPa | 2.5V | 00:00:00 | 00:00:00 | 00:00:00 | |
| OE5DRO-10 | 2026-09-04 12:07:41 | 48.02151 | 12.40085 | 67° | 7km/h | 23667m | 5.7m/s | -52.5°C | 3.8% | 32.7hPa | 2.5V | 00:00:00 | 00:00:00 | 00:00:00 | |
| DG1MJG | 2026-09-04 12:07:31 | 48.02144 | 12.40061 | 88° | 13km/h | 23623m | 5.0m/s | -52.7°C | 1.0% | 33.0hPa | 2.5V | 00:00:00 | 00:00:00 | 00:00:00 | |
| PG1ADW-2 | 2026-09-04 12:07:28 | 48.02145 | 12.40047 | 108° | 13km/h | 23602m | 5.2m/s | -52.7°C | 3.7% | 33.1hPa | 2.5V | 00:00:00 | 01:37:30 | 00:00:00 | |
| DG1MFX-10 | 2026-09-04 12:07:26 | 48.02145 | 12.40045 | 108° | 7km/h | 23597m | 5.6m/s | -52.8°C | 1.1% | 33.2hPa | 2.5V | 00:00:00 | 00:00:00 | 00:00:00 | |
| OE5DXL-15 | 2026-09-04 12:07:22 | 48.02150 | 12.40036 | 125° | 15km/h | 23571m | 5.1m/s | -52.8°C | 3.8% | 33.2hPa | 2.5V | 00:00:00 | 00:00:00 | 00:00:00 | |
| DO3MHA-11 | 2026-09-04 12:07:16 | 48.02158 | 12.40014 | 131° | 15km/h | 23539m | 6.1m/s | -53.2°C | 3.8% | 33.4hPa | 2.5V | 00:00:00 | 01:37:18 | 00:00:00 | |
| OM5KV | 2026-09-04 12:07:11 | 48.02172 | 12.39995 | 153° | 18km/h | 23518m | 5.4m/s | 0°C | 0% | 0hPa | 2.7V | 00:00:00 | 00:00:00 | 00:00:00 | |
| PG1ADW-2 | 2026-09-04 12:07:08 | 48.02184 | 12.39982 | 110° | 15km/h | 23498m | 4.0m/s | -53.4°C | 4.0% | 33.6hPa | 2.7V | 00:00:00 | 00:00:00 | 00:00:00 | |
| DG1MFX-10 | 2026-09-04 12:07:05 | 48.02185 | 12.39975 | 101° | 9km/h | 23488m | 5.5m/s | -53.4°C | 1.2% | 33.7hPa | 2.7V | 00:00:00 | 00:00:00 | 00:00:00 | |
| OE5DRO-10 | 2026-09-04 12:07:03 | 48.02190 | 12.39958 | 117° | 20km/h | 23469m | 5.2m/s | -53.5°C | 3.9% | 33.8hPa | 2.7V | 00:00:00 | 00:00:00 | 00:00:00 | |
| DG1MJG | 2026-09-04 12:07:00 | 48.02193 | 12.39951 | 112° | 22km/h | 23464m | 4.3m/s | -53.5°C | 1.1% | 33.9hPa | 2.7V | 00:00:00 | 00:00:00 | 00:00:00 | |
| DB0UT-7 | 2026-09-04 12:06:56 | 48.02198 | 12.39918 | 98° | 15km/h | 23439m | 5.3m/s | -53.4°C | 3.8% | 33.9hPa | 2.7V | 00:00:00 | 01:36:58 | 00:00:00 | |
| OE5HKT-10 | 2026-09-04 12:06:55 | 48.02199 | 12.39911 | 98° | 16km/h | 23433m | 5.3m/s | -53.4°C | 3.8% | 33.9hPa | 2.7V | 00:00:00 | 01:36:57 | 00:00:00 | |
| OE5DXL-15 | 2026-09-04 12:06:52 | 48.02199 | 12.39893 | 74° | 15km/h | 23418m | 5.5m/s | -53.6°C | 3.9% | 34.0hPa | 2.7V | 00:00:00 | 00:00:00 | 00:00:00 | |
| OE5DRO-10 | 2026-09-04 12:06:44 | 48.02181 | 12.39832 | 64° | 13km/h | 23362m | 4.5m/s | -54.0°C | 4.0% | 34.3hPa | 2.7V | 00:00:00 | 00:00:00 | 00:00:00 | |
| OE5HKT-10 | 2026-09-04 12:06:34 | 48.02165 | 12.39804 | 66° | 13km/h | 23328m | 4.1m/s | -53.9°C | 4.0% | 34.5hPa | 2.7V | 00:00:00 | 00:00:00 | 00:00:00 | |
| DG1MJG | 2026-09-04 12:06:30 | 48.02160 | 12.39794 | 23° | 7km/h | 23313m | 5.0m/s | -54.2°C | 1.1% | 34.7hPa | 2.6V | 00:00:00 | 00:00:00 | 00:00:00 | |
| DO3MHA-11 | 2026-09-04 12:06:28 | 48.02155 | 12.39791 | 40° | 11km/h | 23298m | 5.2m/s | -54.3°C | 4.2% | 34.7hPa | 2.6V | 00:00:00 | 01:36:30 | 00:00:00 | |
| DB0UT-7 | 2026-09-04 12:06:26 | 48.02149 | 12.39784 | 42° | 13km/h | 23289m | 4.3m/s | -54.5°C | 4.1% | 34.7hPa | 2.6V | 00:00:00 | 00:00:00 | 00:00:00 | |
| OE5DRO-10 | 2026-09-04 12:06:25 | 48.02146 | 12.39780 | 35° | 13km/h | 23284m | 5.3m/s | -54.4°C | 4.1% | 34.7hPa | 2.6V | 00:00:00 | 00:00:00 | 00:00:00 | |
| DG1MFX-10 | 2026-09-04 12:06:24 | 48.02146 | 12.39780 | 35° | 20km/h | 23284m | 5.4m/s | -54.5°C | 1.2% | 34.8hPa | 2.6V | 00:00:00 | 00:00:00 | 00:00:00 | |
| OE5DXL-15 | 2026-09-04 12:06:22 | 48.02133 | 12.39770 | 27° | 9km/h | 23269m | 4.7m/s | -54.4°C | 4.1% | 34.8hPa | 2.6V | 00:00:00 | 00:00:00 | 08:30:00 | |
| DO3MHA-11 | 2026-09-04 12:06:17 | 48.02122 | 12.39759 | 18° | 11km/h | 23244m | 4.8m/s | -54.3°C | 4.2% | 35.0hPa | 2.6V | 00:00:00 | 01:36:19 | 00:00:00 | |
| OE5HKT-10 | 2026-09-04 12:06:13 | 48.02112 | 12.39755 | 10° | 5km/h | 23225m | 4.6m/s | -54.2°C | 4.1% | 35.1hPa | 2.6V | 00:00:00 | 00:00:00 | 00:00:00 | |
| BAUMI2-15 | 2026-09-04 12:06:10 | 48.02104 | 12.39757 | 343° | 13km/h | 23210m | 5.4m/s | -54.2°C | 4.1% | 35.2hPa | 2.6V | 00:00:00 | 01:36:12 | 08:30:00 | |
| PG1ADW-2 | 2026-09-04 12:06:08 | 48.02097 | 12.39761 | 340° | 7km/h | 23199m | 5.8m/s | -54.4°C | 4.2% | 35.2hPa | 2.5V | 00:00:00 | 01:36:10 | 00:00:00 | |
| OE5DRO-10 | 2026-09-04 12:06:06 | 48.02091 | 12.39764 | 339° | 7km/h | 23189m | 4.6m/s | -54.2°C | 4.1% | 35.3hPa | 2.5V | 00:00:00 | 00:00:00 | 00:00:00 | |
| BAUMI2-15 | 2026-09-04 12:06:05 | 48.02089 | 12.39765 | 334° | 7km/h | 23184m | 5.4m/s | -54.2°C | 4.1% | 35.3hPa | 2.7V | 00:00:00 | 01:36:07 | 00:00:00 | |
| DG1MFX-10 | 2026-09-04 12:06:03 | 48.02087 | 12.39767 | 329° | 9km/h | 23178m | 5.8m/s | -54.2°C | 1.2% | 35.4hPa | 2.7V | 00:00:00 | 00:00:00 | 00:00:00 | |
| DO3MHA-11 | 2026-09-04 12:06:02 | 48.02085 | 12.39770 | 292° | 5km/h | 23168m | 4.5m/s | -54.2°C | 4.1% | 35.4hPa | 2.7V | 00:00:00 | 01:36:04 | 08:30:00 | |
| BAUMI2-15 | 2026-09-04 12:06:00 | 48.02086 | 12.39773 | 219° | 5km/h | 23157m | 4.8m/s | -54.1°C | 4.1% | 35.5hPa | 2.7V | 00:00:00 | 01:36:02 | 00:00:00 | |
| DG1MJG | 2026-09-04 12:05:59 | 48.02085 | 12.39773 | 220° | 5km/h | 23157m | 4.8m/s | -54.1°C | 1.1% | 35.5hPa | 2.7V | 00:00:00 | 00:00:00 | 00:00:00 | |
| BAUMI2-15 | 2026-09-04 12:05:55 | 48.02084 | 12.39782 | 330° | 5km/h | 23132m | 5.5m/s | -54.1°C | 4.1% | 35.6hPa | 2.7V | 00:00:00 | 01:35:57 | 00:00:00 | |
| OE5DXL-15 | 2026-09-04 12:05:52 | 48.02080 | 12.39785 | 326° | 4km/h | 23116m | 4.9m/s | -54.1°C | 4.1% | 35.7hPa | 2.6V | 00:00:00 | 00:00:00 | 00:00:00 | |
| BAUMI2-15 | 2026-09-04 12:05:50 | 48.02077 | 12.39789 | 305° | 7km/h | 23105m | 4.9m/s | -54.1°C | 4.1% | 35.8hPa | 2.6V | 00:00:00 | 01:35:52 | 00:00:00 | |
| PG1ADW-2 | 2026-09-04 12:05:48 | 48.02076 | 12.39794 | 273° | 5km/h | 23094m | 5.9m/s | -54.1°C | 4.2% | 35.8hPa | 2.6V | 00:00:00 | 00:00:00 | 00:00:00 | |
| OE5DRO-10 | 2026-09-04 12:05:47 | 48.02076 | 12.39796 | 247° | 4km/h | 23089m | 4.6m/s | -54.0°C | 4.2% | 35.9hPa | 2.7V | 00:00:00 | 00:00:00 | 00:00:00 | |
| BAUMI2-15 | 2026-09-04 12:05:45 | 48.02077 | 12.39801 | 258° | 5km/h | 23078m | 5.8m/s | -54.0°C | 4.1% | 35.9hPa | 2.7V | 00:00:00 | 01:35:47 | 00:00:00 | |
| DG1MFX-10 | 2026-09-04 12:05:42 | 48.02078 | 12.39806 | 265° | 5km/h | 23068m | 4.9m/s | -54.0°C | 1.2% | 36.0hPa | 2.7V | 00:00:00 | 00:00:00 | 00:00:00 | |
| BAUMI2-15 | 2026-09-04 12:05:40 | 48.02078 | 12.39810 | 293° | 4km/h | 23052m | 5.1m/s | -54.0°C | 4.2% | 36.1hPa | 2.7V | 00:00:00 | 01:35:42 | 00:00:00 | |
| BAUMI2-15 | 2026-09-04 12:05:35 | 48.02076 | 12.39815 | 249° | 4km/h | 23026m | 4.5m/s | -53.8°C | 4.2% | 36.2hPa | 2.7V | 00:00:00 | 01:35:37 | 00:00:00 | |
| BAUMI2-15 | 2026-09-04 12:05:30 | 48.02077 | 12.39822 | 199° | 4km/h | 22999m | 5.9m/s | -53.7°C | 4.0% | 36.3hPa | 2.7V | 00:00:00 | 01:35:32 | 00:00:00 | |
| DG1MJG | 2026-09-04 12:05:29 | 48.02077 | 12.39822 | 200° | 4km/h | 22999m | 6.0m/s | -53.7°C | 1.1% | 36.4hPa | 2.7V | 00:00:00 | 00:00:00 | 00:00:00 | |
| PG1ADW-2 | 2026-09-04 12:05:28 | 48.02079 | 12.39821 | 157° | 5km/h | 22989m | 4.8m/s | -53.7°C | 4.0% | 36.4hPa | 2.7V | 00:00:00 | 00:00:00 | 00:00:00 | |
| BAUMI2-15 | 2026-09-04 12:05:25 | 48.02079 | 12.39820 | 39° | 4km/h | 22973m | 4.1m/s | -53.7°C | 4.1% | 36.5hPa | 2.7V | 00:00:00 | 01:35:27 | 08:30:00 | |
| OE5DXL-15 | 2026-09-04 12:05:22 | 48.02080 | 12.39817 | 150° | 9km/h | 22958m | 4.5m/s | -53.4°C | 4.0% | 36.6hPa | 2.5V | 00:00:00 | 00:00:00 | 00:00:00 | |
| BAUMI2-15 | 2026-09-04 12:05:20 | 48.02082 | 12.39817 | 211° | 4km/h | 22947m | 5.3m/s | -53.5°C | 4.0% | 36.7hPa | 2.5V | 00:00:00 | 01:35:22 | 00:00:00 | |
| BAUMI2-15 | 2026-09-04 12:05:15 | 48.02086 | 12.39813 | 135° | 11km/h | 22922m | 4.6m/s | -53.3°C | 4.0% | 36.8hPa | 2.5V | 00:00:00 | 01:35:17 | 00:00:00 | |
| DF7PN | 2026-09-04 12:05:12 | 48.02092 | 12.39808 | 167° | 9km/h | 22906m | 4.9m/s | -53.4°C | -1.0% | 37.0hPa | 2.5V | 00:00:00 | 00:00:00 | 00:00:00 | |
| BAUMI2-15 | 2026-09-04 12:05:10 | 48.02097 | 12.39806 | 153° | 7km/h | 22895m | 5.7m/s | -53.3°C | 3.9% | 37.0hPa | 2.5V | 00:00:00 | 01:35:12 | 00:00:00 | |
| OE5DRO-10 | 2026-09-04 12:05:09 | 48.02099 | 12.39803 | 137° | 11km/h | 22890m | 4.4m/s | -53.3°C | 3.9% | 37.0hPa | 2.6V | 00:00:00 | 00:00:00 | 08:30:00 | |
| PG1ADW-2 | 2026-09-04 12:05:08 | 48.02101 | 12.39801 | 118° | 13km/h | 22886m | 5.2m/s | -53.4°C | 3.8% | 37.0hPa | 2.6V | 00:00:00 | 00:00:00 | 00:00:00 | |
| OE5HKT-10 | 2026-09-04 12:05:07 | 48.02101 | 12.39799 | 74° | 13km/h | 22880m | 5.8m/s | -53.4°C | 3.9% | 37.1hPa | 2.6V | 00:00:00 | 01:35:09 | 00:00:00 | |
| BAUMI2-15 | 2026-09-04 12:05:05 | 48.02098 | 12.39794 | 54° | 15km/h | 22870m | 5.2m/s | -53.4°C | 3.8% | 37.1hPa | 2.6V | 00:00:00 | 01:35:07 | 00:00:00 | |
| DG1MFX-10 | 2026-09-04 12:05:02 | 48.02096 | 12.39784 | 80° | 16km/h | 22859m | 4.7m/s | -53.6°C | 1.1% | 37.2hPa | 2.6V | 00:00:00 | 00:00:00 | 00:00:00 | |
| BAUMI2-15 | 2026-09-04 12:05:00 | 48.02097 | 12.39767 | 115° | 13km/h | 22844m | 5.5m/s | -53.8°C | 3.9% | 37.3hPa | 2.6V | 00:00:00 | 01:35:02 | 00:00:00 | |
| DG1MJG | 2026-09-04 12:04:58 | 48.02098 | 12.39764 | 130° | 11km/h | 22839m | 4.8m/s | -53.8°C | 1.1% | 37.3hPa | 2.6V | 00:00:00 | 00:00:00 | 00:00:00 | |
| BAUMI2-15 | 2026-09-04 12:04:55 | 48.02106 | 12.39748 | 120° | 16km/h | 22818m | 5.2m/s | -53.8°C | 4.1% | 37.4hPa | 2.6V | 00:00:00 | 01:34:57 | 00:00:00 | |
| OE5DXL-15 | 2026-09-04 12:04:52 | 48.02110 | 12.39734 | 102° | 18km/h | 22803m | 5.6m/s | -53.8°C | 4.1% | 37.5hPa | 2.7V | 00:00:00 | 00:00:00 | 00:00:00 | |
| BAUMI2-15 | 2026-09-04 12:04:50 | 48.02111 | 12.39718 | 95° | 22km/h | 22792m | 3.9m/s | -53.9°C | 4.0% | 37.6hPa | 2.6V | 00:00:00 | 01:34:52 | 00:00:00 | |
| PG1ADW-2 | 2026-09-04 12:04:49 | 48.02112 | 12.39701 | 103° | 18km/h | 22783m | 5.2m/s | -54.0°C | 4.0% | 37.6hPa | 2.6V | 00:00:00 | 01:34:50 | 08:30:00 | |
| BAUMI2-15 | 2026-09-04 12:04:45 | 48.02119 | 12.39681 | 126° | 18km/h | 22766m | 6.2m/s | -54.0°C | 4.0% | 37.7hPa | 2.6V | 00:00:00 | 01:34:47 | 00:00:00 | |
| OE5HKT-10 | 2026-09-04 12:04:44 | 48.02122 | 12.39675 | 127° | 16km/h | 22761m | 5.1m/s | -54.0°C | 4.0% | 37.8hPa | 2.6V | 00:00:00 | 00:00:00 | 08:30:00 | |
| DF7PN | 2026-09-04 12:04:41 | 48.02131 | 12.39659 | 124° | 11km/h | 22745m | 5.1m/s | -54.0°C | -1.0% | -1.0hPa | 2.6V | 00:00:00 | 00:00:00 | 00:00:00 | |
| BAUMI2-15 | 2026-09-04 12:04:40 | 48.02132 | 12.39655 | 103° | 16km/h | 22740m | 4.9m/s | -54.0°C | 4.1% | 37.9hPa | 2.6V | 00:00:00 | 01:34:42 | 08:30:00 | |
| BAUMI2-15 | 2026-09-04 12:04:35 | 48.02127 | 12.39625 | 65° | 16km/h | 22714m | 5.8m/s | -53.9°C | 4.1% | 38.0hPa | 2.6V | 00:00:00 | 01:34:37 | 00:00:00 | |
| BAUMI2-15 | 2026-09-04 12:04:30 | 48.02123 | 12.39595 | 101° | 15km/h | 22687m | 5.1m/s | -53.9°C | 4.1% | 38.2hPa | 2.6V | 00:00:00 | 01:34:32 | 00:00:00 | |
| PG1ADW-2 | 2026-09-04 12:04:28 | 48.02125 | 12.39582 | 106° | 11km/h | 22676m | 5.9m/s | -53.8°C | 4.2% | 38.3hPa | 2.6V | 00:00:00 | 00:00:00 | 00:00:00 | |
| DG1MJG | 2026-09-04 12:04:27 | 48.02124 | 12.39582 | 107° | 15km/h | 22676m | 6.0m/s | -53.8°C | 1.2% | 38.3hPa | 2.6V | 00:00:00 | 00:00:00 | 00:00:00 | |
| BAUMI2-15 | 2026-09-04 12:04:25 | 48.02123 | 12.39569 | 61° | 16km/h | 22661m | 5.8m/s | -53.8°C | 4.0% | 38.4hPa | 2.6V | 00:00:00 | 01:34:27 | 00:00:00 | |
| OE5HKT-10 | 2026-09-04 12:04:23 | 48.02118 | 12.39559 | 50° | 11km/h | 22650m | 4.7m/s | -53.8°C | 4.0% | 38.4hPa | 2.7V | 00:00:00 | 00:00:00 | 00:00:00 | |
| OE5DXL-15 | 2026-09-04 12:04:22 | 48.02115 | 12.39554 | 44° | 11km/h | 22645m | 6.1m/s | -53.9°C | 4.1% | 38.5hPa | 2.7V | 00:00:00 | 00:00:00 | 00:00:00 | |
| DG1MFX-10 | 2026-09-04 12:04:21 | 48.02115 | 12.39554 | 45° | 18km/h | 22645m | 6.1m/s | -53.9°C | 1.2% | 38.5hPa | 2.7V | 00:00:00 | 00:00:00 | 00:00:00 | |
| BAUMI2-15 | 2026-09-04 12:04:20 | 48.02109 | 12.39546 | 42° | 13km/h | 22634m | 4.6m/s | -53.8°C | 4.1% | 38.5hPa | 2.7V | 00:00:00 | 01:34:22 | 00:00:00 | |
| BAUMI2-15 | 2026-09-04 12:04:15 | 48.02101 | 12.39526 | 74° | 5km/h | 22606m | 5.7m/s | -53.6°C | 4.0% | 38.7hPa | 2.7V | 00:00:00 | 01:34:17 | 00:00:00 | |
| PG1ADW-2 | 2026-09-04 12:04:08 | 48.02096 | 12.39508 | 33° | 15km/h | 22570m | 5.1m/s | -53.5°C | 4.1% | 38.9hPa | 2.7V | 00:00:00 | 00:00:00 | 00:00:00 | |
| OE5HKT-10 | 2026-09-04 12:04:01 | 48.02075 | 12.39492 | 12° | 15km/h | 22533m | 5.0m/s | -53.4°C | 3.9% | 39.1hPa | 2.7V | 00:00:00 | 01:34:03 | 00:00:00 | |
| DO3MHA-11 | 2026-09-04 12:04:00 | 48.02073 | 12.39492 | 12° | 16km/h | 22528m | 4.4m/s | -53.4°C | 3.9% | 39.2hPa | 2.7V | 00:00:00 | 01:34:02 | 00:00:00 | |
| OE8JPQ-2 | 2026-09-04 12:03:58 | 48.02069 | 12.39489 | 36° | 16km/h | 22517m | 5.1m/s | -53.5°C | 4.0% | 39.2hPa | 2.7V | 00:00:00 | 00:00:00 | 00:00:00 | |
| DG1MJG | 2026-09-04 12:03:57 | 48.02069 | 12.39489 | 37° | 7km/h | 22517m | 5.1m/s | -53.5°C | 1.1% | 39.3hPa | 2.7V | 00:00:00 | 00:00:00 | 00:00:00 | |
| OE5DXL-15 | 2026-09-04 12:03:52 | 48.02054 | 12.39482 | 18° | 15km/h | 22484m | 5.0m/s | -53.3°C | 4.0% | 39.4hPa | 2.7V | 00:00:00 | 00:00:00 | 00:00:00 | |
| DO3MHA-11 | 2026-09-04 12:03:47 | 48.02029 | 12.39476 | 8° | 16km/h | 22458m | 4.9m/s | -53.4°C | 4.0% | 39.6hPa | 2.7V | 00:00:00 | 01:33:49 | 00:00:00 | |
| PG1ADW-2 | 2026-09-04 12:03:46 | 48.02025 | 12.39475 | 14° | 16km/h | 22453m | 5.4m/s | -53.4°C | 4.0% | 39.6hPa | 2.7V | 00:00:00 | 00:00:00 | 00:00:00 | |
| OE5HKT-10 | 2026-09-04 12:03:40 | 48.01997 | 12.39473 | 347° | 13km/h | 22424m | 4.5m/s | -53.0°C | 4.1% | 39.8hPa | 2.5V | 00:00:00 | 00:00:00 | 00:00:00 | |
| OE8JPQ-2 | 2026-09-04 12:03:38 | 48.01992 | 12.39473 | 19° | 13km/h | 22413m | 5.8m/s | -53.1°C | 4.0% | 39.9hPa | 2.7V | 00:00:00 | 01:33:40 | 00:00:00 | |
| DO3MHA-11 | 2026-09-04 12:03:37 | 48.01988 | 12.39471 | 26° | 16km/h | 22407m | 4.8m/s | -53.1°C | 4.0% | 39.9hPa | 2.7V | 00:00:00 | 01:33:39 | 00:00:00 | |
| DO3MHA-11 | 2026-09-04 12:03:27 | 48.01949 | 12.39472 | 343° | 9km/h | 22354m | 5.4m/s | -52.5°C | 4.0% | 40.3hPa | 2.7V | 00:00:00 | 01:33:29 | 00:00:00 | |
| PG1ADW-2 | 2026-09-04 12:03:26 | 48.01947 | 12.39473 | 338° | 7km/h | 22349m | 4.6m/s | -52.4°C | 3.9% | 40.3hPa | 2.7V | 00:00:00 | 01:33:28 | 00:00:00 | |
| OE5DXL-15 | 2026-09-04 12:03:22 | 48.01941 | 12.39474 | 353° | 9km/h | 22329m | 5.2m/s | -52.4°C | 3.8% | 40.4hPa | 2.7V | 00:00:00 | 00:00:00 | 00:00:00 | |
| OE5DRO-10 | 2026-09-04 12:03:20 | 48.01934 | 12.39479 | 335° | 7km/h | 22312m | 5.7m/s | -52.4°C | 3.7% | 40.5hPa | 2.6V | 00:00:00 | 00:00:00 | 00:00:00 | |
| OE5HKT-10 | 2026-09-04 12:03:19 | 48.01934 | 12.39479 | 335° | 7km/h | 22312m | 5.7m/s | -52.4°C | 3.7% | 40.5hPa | 2.6V | 00:00:00 | 00:00:00 | 00:00:00 | |
| OE8JPQ-2 | 2026-09-04 12:03:18 | 48.01931 | 12.39481 | 339° | 7km/h | 22306m | 5.9m/s | -52.4°C | 3.7% | 40.6hPa | 2.6V | 00:00:00 | 00:00:00 | 00:00:00 | |
| DO3MHA-11 | 2026-09-04 12:03:17 | 48.01928 | 12.39483 | 338° | 7km/h | 22301m | 4.6m/s | -52.4°C | 3.7% | 40.6hPa | 2.7V | 00:00:00 | 01:33:19 | 00:00:00 | |
| DF7PN | 2026-09-04 12:03:08 | 48.01916 | 12.39500 | 332° | 5km/h | 22249m | 4.4m/s | -52.3°C | -1.0% | -1.0hPa | 2.7V | 00:00:00 | 00:00:00 | 00:00:00 | |
| DO3MHA-11 | 2026-09-04 12:03:06 | 48.01914 | 12.39501 | 345° | 7km/h | 22244m | 5.0m/s | -52.3°C | 3.8% | 40.9hPa | 2.7V | 00:00:00 | 01:33:08 | 00:00:00 | |
| PG1ADW-2 | 2026-09-04 12:03:04 | 48.01913 | 12.39501 | 243° | 11km/h | 22234m | 4.7m/s | -52.3°C | 3.7% | 41.0hPa | 2.6V | 00:00:00 | 00:00:00 | 00:00:00 | |
| OE5DRO-10 | 2026-09-04 12:03:00 | 48.01917 | 12.39512 | 248° | 13km/h | 22214m | 4.1m/s | -52.2°C | 3.7% | 41.1hPa | 2.6V | 00:00:00 | 00:00:00 | 00:00:00 | |
| OE8JPQ-2 | 2026-09-04 12:02:58 | 48.01918 | 12.39516 | 165° | 13km/h | 22205m | 5.2m/s | -52.2°C | 3.7% | 41.2hPa | 2.6V | 00:00:00 | 00:00:00 | 00:00:00 | |
| DO3MHA-11 | 2026-09-04 12:02:56 | 48.01921 | 12.39512 | 135° | 11km/h | 22193m | 5.9m/s | -52.5°C | 3.7% | 41.3hPa | 2.6V | 00:00:00 | 01:32:58 | 00:00:00 | |
| DG1MJG | 2026-09-04 12:02:55 | 48.01921 | 12.39512 | 135° | 13km/h | 22193m | 5.9m/s | -52.5°C | 1.1% | 41.3hPa | 2.6V | 00:00:00 | 00:00:00 | 00:00:00 | |
| OE5DXL-15 | 2026-09-04 12:02:52 | 48.01932 | 12.39500 | 165° | 15km/h | 22172m | 5.7m/s | -52.5°C | 3.7% | 41.4hPa | 2.6V | 00:00:00 | 00:00:00 | 00:00:00 | |
| DO3MHA-11 | 2026-09-04 12:02:46 | 48.01946 | 12.39500 | 171° | 20km/h | 22140m | 5.3m/s | -52.7°C | 3.7% | 41.6hPa | 2.6V | 00:00:00 | 01:32:48 | 00:00:00 | |
| OE5FHM-15 | 2026-09-04 12:02:44 | 48.01957 | 12.39497 | 171° | 16km/h | 22130m | 5.7m/s | -53.0°C | 3.8% | 41.7hPa | 2.6V | 00:00:00 | 01:32:46 | 08:30:00 | |
| OE5DRO-10 | 2026-09-04 12:02:41 | 48.01971 | 12.39493 | 162° | 15km/h | 22114m | 6.3m/s | -53.0°C | 3.9% | 41.8hPa | 2.7V | 00:00:00 | 00:00:00 | 00:00:00 | |
| DG1MFX-10 | 2026-09-04 12:02:39 | 48.01976 | 12.39490 | 157° | 22km/h | 22107m | 5.5m/s | -53.0°C | 1.1% | 41.9hPa | 2.7V | 00:00:00 | 00:00:00 | 00:00:00 | |
| OE8JPQ-2 | 2026-09-04 12:02:38 | 48.01985 | 12.39483 | 150° | 13km/h | 22097m | 5.6m/s | -52.9°C | 3.9% | 41.9hPa | 2.7V | 00:00:00 | 01:32:40 | 00:00:00 | |
| DO3MHA-11 | 2026-09-04 12:02:36 | 48.01991 | 12.39477 | 150° | 16km/h | 22086m | 4.7m/s | -52.9°C | 3.8% | 42.0hPa | 2.7V | 00:00:00 | 01:32:38 | 08:30:00 | |
| OE5HKT-10 | 2026-09-04 12:02:28 | 48.02019 | 12.39450 | 145° | 13km/h | 22043m | 5.7m/s | -53.3°C | 3.9% | 42.2hPa | 2.6V | 00:00:00 | 00:00:00 | 00:00:00 | |
| DO3MHA-11 | 2026-09-04 12:02:26 | 48.02025 | 12.39444 | 144° | 11km/h | 22033m | 5.2m/s | -53.3°C | 4.0% | 42.3hPa | 2.6V | 00:00:00 | 01:32:28 | 00:00:00 | |
| PG1ADW-2 | 2026-09-04 12:02:24 | 48.02028 | 12.39440 | 132° | 13km/h | 22023m | 4.6m/s | -53.5°C | 4.0% | 42.4hPa | 2.6V | 00:00:00 | 00:00:00 | 00:00:00 | |
| OE5DXL-15 | 2026-09-04 12:02:22 | 48.02031 | 12.39435 | 136° | 13km/h | 22012m | 5.6m/s | -53.7°C | 4.1% | 42.4hPa | 2.6V | 00:00:00 | 00:00:00 | 00:00:00 | |
| DG1MFX-10 | 2026-09-04 12:02:19 | 48.02035 | 12.39429 | 136° | 13km/h | 22002m | 4.7m/s | -53.7°C | 1.2% | 42.6hPa | 2.6V | 00:00:00 | 00:00:00 | 00:00:00 | |
| OE8JPQ-2 | 2026-09-04 12:02:18 | 48.02039 | 12.39422 | 115° | 15km/h | 21991m | 4.5m/s | -53.7°C | 4.1% | 42.6hPa | 2.6V | 00:00:00 | 00:00:00 | 00:00:00 | |
| DO3MHA-11 | 2026-09-04 12:02:16 | 48.02041 | 12.39412 | 106° | 15km/h | 21982m | 6.3m/s | -53.6°C | 4.0% | 42.7hPa | 2.7V | 00:00:00 | 01:32:18 | 00:00:00 | |
| OE5FHM-15 | 2026-09-04 12:02:13 | 48.02043 | 12.39390 | 89° | 13km/h | 21967m | 5.2m/s | -53.6°C | 4.0% | 42.8hPa | 2.7V | 00:00:00 | 01:32:15 | 00:00:00 | |
| BAUMI2-15 | 2026-09-04 12:02:10 | 48.02041 | 12.39375 | 84° | 9km/h | 21951m | 5.2m/s | -53.4°C | 4.0% | 42.9hPa | 2.7V | 00:00:00 | 01:32:12 | 00:00:00 | |
| OE5HKT-10 | 2026-09-04 12:02:07 | 48.02043 | 12.39364 | 108° | 11km/h | 21936m | 4.2m/s | -53.3°C | 4.0% | 43.0hPa | 2.7V | 00:00:00 | 00:00:00 | 00:00:00 | |
| OE5MMP-10 | 2026-09-04 12:02:06 | 48.02043 | 12.39360 | 94° | 15km/h | 21931m | 5.7m/s | -53.3°C | 4.0% | 43.0hPa | 2.7V | 00:00:00 | 01:32:08 | 00:00:00 | |
| BAUMI2-15 | 2026-09-04 12:02:05 | 48.02043 | 12.39357 | 71° | 13km/h | 21926m | 5.0m/s | -53.3°C | 4.0% | 43.0hPa | 2.7V | 00:00:00 | 01:32:07 | 00:00:00 | |
| PG1ADW-2 | 2026-09-04 12:02:04 | 48.02042 | 12.39354 | 63° | 9km/h | 21921m | 4.1m/s | -53.3°C | 4.0% | 43.1hPa | 2.7V | 00:00:00 | 01:32:06 | 00:00:00 | |
| OE5DRO-10 | 2026-09-04 12:02:03 | 48.02041 | 12.39350 | 69° | 13km/h | 21917m | 4.1m/s | -53.2°C | 4.0% | 43.1hPa | 2.7V | 00:00:00 | 00:00:00 | 00:00:00 | |
| BAUMI2-15 | 2026-09-04 12:02:00 | 48.02039 | 12.39332 | 92° | 16km/h | 21901m | 5.0m/s | -53.3°C | 3.9% | 43.2hPa | 2.7V | 00:00:00 | 01:32:02 | 00:00:00 | |
| OE8JPQ-2 | 2026-09-04 12:01:58 | 48.02039 | 12.39318 | 86° | 11km/h | 21890m | 4.8m/s | -53.4°C | 3.9% | 43.3hPa | 2.7V | 00:00:00 | 00:00:00 | 00:00:00 | |
| DO3MHA-11 | 2026-09-04 12:01:56 | 48.02039 | 12.39306 | 97° | 9km/h | 21881m | 5.8m/s | -53.4°C | 3.8% | 43.4hPa | 2.7V | 00:00:00 | 01:31:58 | 00:00:00 | |
| BAUMI2-15 | 2026-09-04 12:01:55 | 48.02040 | 12.39301 | 104° | 9km/h | 21875m | 5.1m/s | -53.4°C | 3.9% | 43.4hPa | 2.7V | 00:00:00 | 01:31:57 | 08:30:00 | |
| DG1MJG | 2026-09-04 12:01:53 | 48.02040 | 12.39296 | 104° | 11km/h | 21871m | 4.2m/s | -53.5°C | 1.1% | 43.5hPa | 2.6V | 00:00:00 | 00:00:00 | 00:00:00 | |
| OE5DXL-15 | 2026-09-04 12:01:52 | 48.02041 | 12.39290 | 82° | 7km/h | 21860m | 4.7m/s | -53.5°C | 3.9% | 43.5hPa | 2.6V | 00:00:00 | 00:00:00 | 08:30:00 | |
| BAUMI2-15 | 2026-09-04 12:01:50 | 48.02041 | 12.39287 | 109° | 9km/h | 21850m | 5.8m/s | -53.5°C | 3.9% | 43.6hPa | 2.7V | 00:00:00 | 01:31:52 | 00:00:00 | |
| DO3MHA-11 | 2026-09-04 12:01:46 | 48.02045 | 12.39275 | 101° | 9km/h | 21829m | 6.0m/s | -53.7°C | 4.0% | 43.7hPa | 2.7V | 00:00:00 | 01:31:48 | 00:00:00 | |
| BAUMI2-15 | 2026-09-04 12:01:45 | 48.02045 | 12.39270 | 94° | 11km/h | 21824m | 5.0m/s | -53.7°C | 4.0% | 43.7hPa | 2.7V | 00:00:00 | 01:31:47 | 00:00:00 | |
| PG1ADW-2 | 2026-09-04 12:01:44 | 48.02045 | 12.39265 | 97° | 7km/h | 21818m | 5.9m/s | -53.7°C | 4.1% | 43.8hPa | 2.7V | 00:00:00 | 00:00:00 | 08:30:00 | |
| OE5FHM-15 | 2026-09-04 12:01:43 | 48.02046 | 12.39260 | 103° | 11km/h | 21812m | 5.3m/s | -53.7°C | 4.1% | 43.9hPa | 2.6V | 00:00:00 | 01:31:45 | 00:00:00 | |
| BAUMI2-15 | 2026-09-04 12:01:40 | 48.02046 | 12.39249 | 65° | 5km/h | 21797m | 5.1m/s | -53.8°C | 4.1% | 43.9hPa | 2.6V | 00:00:00 | 01:31:42 | 00:00:00 | |
| DB0UT-7 | 2026-09-04 12:01:39 | 48.02045 | 12.39247 | 63° | 5km/h | 21792m | 4.7m/s | -53.8°C | 4.1% | 44.0hPa | 2.6V | 00:00:00 | 00:00:00 | 00:00:00 | |
| OE8JPQ-2 | 2026-09-04 12:01:38 | 48.02045 | 12.39244 | 84° | 5km/h | 21786m | 6.2m/s | -53.8°C | 4.0% | 44.0hPa | 2.6V | 00:00:00 | 01:31:40 | 00:00:00 | |
| OE5MMP-10 | 2026-09-04 12:01:36 | 48.02046 | 12.39241 | 134° | 7km/h | 21776m | 4.7m/s | -53.8°C | 4.1% | 44.1hPa | 2.6V | 00:00:00 | 01:31:38 | 00:00:00 | |
| BAUMI2-15 | 2026-09-04 12:01:35 | 48.02047 | 12.39239 | 129° | 7km/h | 21770m | 6.0m/s | -53.7°C | 4.0% | 44.1hPa | 2.6V | 00:00:00 | 01:31:37 | 00:00:00 | |
| BAUMI2-15 | 2026-09-04 12:01:30 | 48.02053 | 12.39232 | 161° | 5km/h | 21744m | 4.0m/s | -53.7°C | 4.0% | 44.3hPa | 2.6V | 00:00:00 | 01:31:32 | 00:00:00 | |
| OE5MMP-10 | 2026-09-04 12:01:26 | 48.02057 | 12.39229 | 171° | 4km/h | 21724m | 5.4m/s | -53.7°C | 4.1% | 44.4hPa | 2.6V | 00:00:00 | 01:31:28 | 00:00:00 | |
| OE5HKT-10 | 2026-09-04 12:01:25 | 48.02058 | 12.39229 | 199° | 7km/h | 21719m | 5.3m/s | -53.7°C | 4.1% | 44.5hPa | 2.6V | 00:00:00 | 00:00:00 | 08:30:00 | |
| PG1ADW-2 | 2026-09-04 12:01:24 | 48.02059 | 12.39230 | 198° | 7km/h | 21714m | 4.5m/s | -53.7°C | 4.1% | 44.5hPa | 2.7V | 00:00:00 | 00:00:00 | 00:00:00 | |
| DG1MJG | 2026-09-04 12:01:23 | 48.02059 | 12.39229 | 199° | 5km/h | 21714m | 4.5m/s | -53.7°C | 1.2% | 44.6hPa | 2.7V | 00:00:00 | 00:00:00 | 00:00:00 | |
| OE5DXL-15 | 2026-09-04 12:01:22 | 48.02061 | 12.39229 | 142° | 9km/h | 21703m | 5.8m/s | -53.7°C | 4.1% | 44.6hPa | 2.7V | 00:00:00 | 00:00:00 | 00:00:00 | |
| BAUMI2-15 | 2026-09-04 12:01:20 | 48.02063 | 12.39227 | 136° | 5km/h | 21693m | 5.3m/s | -53.6°C | 3.9% | 44.6hPa | 2.7V | 00:00:00 | 01:31:22 | 00:00:00 | |
| OE8JPQ-2 | 2026-09-04 12:01:18 | 48.02066 | 12.39224 | 164° | 7km/h | 21682m | 4.1m/s | -53.6°C | 3.9% | 44.7hPa | 2.7V | 00:00:00 | 00:00:00 | 08:30:00 | |
| DO3MHA-11 | 2026-09-04 12:01:16 | 48.02068 | 12.39223 | 153° | 7km/h | 21673m | 5.8m/s | -53.7°C | 3.9% | 44.8hPa | 2.6V | 00:00:00 | 01:31:18 | 00:00:00 | |
| BAUMI2-15 | 2026-09-04 12:01:15 | 48.02069 | 12.39223 | 74° | 4km/h | 21668m | 4.9m/s | -53.7°C | 3.9% | 44.9hPa | 2.6V | 00:00:00 | 01:31:17 | 00:00:00 | |
| BAUMI2-15 | 2026-09-04 12:01:10 | 48.02074 | 12.39225 | 177° | 13km/h | 21644m | 4.7m/s | -53.7°C | 4.0% | 45.0hPa | 2.6V | 00:00:00 | 01:31:12 | 08:30:00 | |
| DB0UT-7 | 2026-09-04 12:01:09 | 48.02077 | 12.39224 | 162° | 11km/h | 21639m | 5.1m/s | -53.7°C | 4.0% | 45.0hPa | 2.6V | 00:00:00 | 01:31:11 | 00:00:00 | |
| DO3MHA-11 | 2026-09-04 12:01:06 | 48.02086 | 12.39216 | 144° | 7km/h | 21625m | 5.8m/s | -53.9°C | 4.1% | 45.1hPa | 2.6V | 00:00:00 | 01:31:08 | 08:30:00 | |
| BAUMI2-15 | 2026-09-04 12:01:05 | 48.02088 | 12.39214 | 139° | 5km/h | 21619m | 4.9m/s | -54.0°C | 4.1% | 45.2hPa | 2.6V | 00:00:00 | 01:31:07 | 00:00:00 | |
| OE5HKT-10 | 2026-09-04 12:01:04 | 48.02089 | 12.39212 | 122° | 9km/h | 21615m | 4.3m/s | -54.1°C | 4.1% | 45.2hPa | 2.6V | 00:00:00 | 00:00:00 | 00:00:00 | |
| BAUMI2-15 | 2026-09-04 12:01:00 | 48.02090 | 12.39203 | 126° | 9km/h | 21594m | 4.4m/s | -54.1°C | 4.0% | 45.3hPa | 2.6V | 00:00:00 | 01:31:02 | 00:00:00 | |
| OE8JPQ-2 | 2026-09-04 12:00:58 | 48.02093 | 12.39201 | 169° | 11km/h | 21584m | 4.2m/s | -53.9°C | 4.0% | 45.4hPa | 2.6V | 00:00:00 | 00:00:00 | 00:00:00 | |
| DG1MFX-10 | 2026-09-04 12:00:57 | 48.02093 | 12.39201 | 170° | 9km/h | 21584m | 4.3m/s | -54.0°C | 1.2% | 45.4hPa | 2.6V | 00:00:00 | 00:00:00 | 00:00:00 | |
| DO3MHA-11 | 2026-09-04 12:00:56 | 48.02099 | 12.39198 | 154° | 13km/h | 21575m | 5.8m/s | -53.9°C | 4.0% | 45.5hPa | 2.6V | 00:00:00 | 01:30:58 | 00:00:00 | |
| OE5MMP-10 | 2026-09-04 12:00:55 | 48.02103 | 12.39195 | 145° | 13km/h | 21569m | 4.6m/s | -53.9°C | 4.0% | 45.5hPa | 2.6V | 00:00:00 | 01:30:57 | 00:00:00 | |
| OE5DXL-15 | 2026-09-04 12:00:52 | 48.02112 | 12.39184 | 144° | 15km/h | 21554m | 4.9m/s | -53.8°C | 4.0% | 45.7hPa | 2.7V | 00:00:00 | 01:30:54 | 00:00:00 | |
| BAUMI2-15 | 2026-09-04 12:00:50 | 48.02116 | 12.39179 | 130° | 9km/h | 21544m | 5.3m/s | -53.8°C | 4.0% | 45.7hPa | 2.7V | 00:00:00 | 01:30:52 | 00:00:00 | |
| OE5DRO-10 | 2026-09-04 12:00:47 | 48.02121 | 12.39169 | 119° | 13km/h | 21529m | 6.0m/s | -54.0°C | 4.0% | 45.8hPa | 2.7V | 00:00:00 | 00:00:00 | 08:30:00 | |
| DO3MHA-11 | 2026-09-04 12:00:46 | 48.02121 | 12.39166 | 113° | 11km/h | 21523m | 4.8m/s | -54.1°C | 4.1% | 45.8hPa | 2.6V | 00:00:00 | 01:30:48 | 00:00:00 | |
| OE5MMP-10 | 2026-09-04 12:00:45 | 48.02122 | 12.39164 | 100° | 11km/h | 21519m | 4.3m/s | -54.1°C | 4.1% | 45.9hPa | 2.6V | 00:00:00 | 01:30:47 | 00:00:00 | |
| OE5HKT-10 | 2026-09-04 12:00:43 | 48.02123 | 12.39158 | 104° | 16km/h | 21508m | 5.5m/s | -54.2°C | 4.1% | 46.0hPa | 2.6V | 00:00:00 | 01:30:45 | 00:00:00 | |
| BAUMI2-15 | 2026-09-04 12:00:40 | 48.02127 | 12.39143 | 119° | 13km/h | 21494m | 5.5m/s | -54.2°C | 4.1% | 46.0hPa | 2.6V | 00:00:00 | 01:30:42 | 00:00:00 | |
| OE8JPQ-2 | 2026-09-04 12:00:38 | 48.02130 | 12.39136 | 120° | 16km/h | 21484m | 4.4m/s | -54.3°C | 4.1% | 46.1hPa | 2.7V | 00:00:00 | 01:30:40 | 00:00:00 | |
| DG1MFX-10 | 2026-09-04 12:00:37 | 48.02130 | 12.39136 | 121° | 13km/h | 21484m | 4.5m/s | -54.3°C | 1.2% | 46.2hPa | 2.7V | 00:00:00 | 00:00:00 | 00:00:00 | |
| DO3MHA-11 | 2026-09-04 12:00:36 | 48.02132 | 12.39126 | 108° | 18km/h | 21473m | 5.5m/s | -54.2°C | 4.1% | 46.2hPa | 2.7V | 00:00:00 | 01:30:38 | 00:00:00 | |
| BAUMI2-15 | 2026-09-04 12:00:35 | 48.02134 | 12.39120 | 104° | 16km/h | 21468m | 4.7m/s | -54.2°C | 4.1% | 46.2hPa | 2.7V | 00:00:00 | 01:30:37 | 00:00:00 | |
| OE5MMP-10 | 2026-09-04 12:00:34 | 48.02134 | 12.39114 | 103° | 18km/h | 21463m | 5.6m/s | -54.3°C | 4.1% | 46.3hPa | 2.7V | 00:00:00 | 01:30:36 | 00:00:00 | |
| OE5DRO-10 | 2026-09-04 12:00:28 | 48.02132 | 12.39073 | 69° | 16km/h | 21432m | 5.7m/s | -54.4°C | 4.1% | 46.5hPa | 2.7V | 00:00:00 | 00:00:00 | 00:00:00 | |
| DO3MHA-11 | 2026-09-04 12:00:26 | 48.02128 | 12.39062 | 61° | 16km/h | 21422m | 4.6m/s | -54.3°C | 4.1% | 46.6hPa | 2.7V | 00:00:00 | 01:30:28 | 00:00:00 | |
| BAUMI2-15 | 2026-09-04 12:00:25 | 48.02126 | 12.39057 | 64° | 16km/h | 21417m | 5.7m/s | -54.3°C | 4.1% | 46.6hPa | 2.7V | 00:00:00 | 01:30:27 | 08:30:00 | |
| OE5MMP-10 | 2026-09-04 12:00:24 | 48.02125 | 12.39052 | 67° | 18km/h | 21411m | 5.0m/s | -54.3°C | 4.2% | 46.6hPa | 2.6V | 00:00:00 | 01:30:26 | 08:30:00 | |
| OE5DXL-15 | 2026-09-04 12:00:22 | 48.02122 | 12.39040 | 75° | 15km/h | 21402m | 5.6m/s | -54.4°C | 4.3% | 46.7hPa | 2.6V | 00:00:00 | 00:00:00 | 00:00:00 | |
| DG1MJG | 2026-09-04 12:00:21 | 48.02122 | 12.39040 | 76° | 15km/h | 21402m | 5.7m/s | -54.4°C | 1.3% | 46.8hPa | 2.7V | 00:00:00 | 00:00:00 | 00:00:00 | |
| BAUMI2-15 | 2026-09-04 12:00:20 | 48.02120 | 12.39030 | 78° | 18km/h | 21392m | 4.1m/s | -54.4°C | 4.3% | 46.8hPa | 2.7V | 00:00:00 | 01:30:22 | 00:00:00 | |
| DO3MHA-11 | 2026-09-04 12:00:17 | 48.02114 | 12.39003 | 63° | 16km/h | 21373m | 5.2m/s | -54.4°C | 4.1% | 46.9hPa | 2.7V | 00:00:00 | 01:30:18 | 00:00:00 | |
| BAUMI2-15 | 2026-09-04 12:00:15 | 48.02111 | 12.38996 | 58° | 18km/h | 21368m | 5.1m/s | -54.2°C | 4.1% | 47.0hPa | 2.7V | 00:00:00 | 01:30:17 | 00:00:00 | |
| OE5MMP-10 | 2026-09-04 12:00:14 | 48.02109 | 12.38991 | 56° | 15km/h | 21363m | 4.1m/s | -54.2°C | 4.0% | 47.0hPa | 2.7V | 00:00:00 | 01:30:16 | 00:00:00 | |
| HARRO8 | 2026-09-04 12:00:10 | 48.02102 | 12.38969 | 86° | 13km/h | 21342m | 5.9m/s | 0°C | -1.0% | -1.0hPa | 2.7V | 00:00:00 | 00:00:00 | 00:00:00 | |
| OE5DRO-10 | 2026-09-04 12:00:09 | 48.02102 | 12.38964 | 112° | 11km/h | 21338m | 4.0m/s | -54.2°C | 4.0% | 47.2hPa | 2.7V | 00:00:00 | 00:00:00 | 00:00:00 | |
| DO3MHA-11 | 2026-09-04 12:00:06 | 48.02107 | 12.38949 | 108° | 11km/h | 21324m | 5.1m/s | -54.2°C | 4.0% | 47.3hPa | 2.7V | 00:00:00 | 01:30:08 | 00:00:00 | |
| OE5MMP-10 | 2026-09-04 12:00:04 | 48.02108 | 12.38939 | 90° | 11km/h | 21314m | 4.8m/s | -54.2°C | 4.1% | 47.4hPa | 2.7V | 00:00:00 | 01:30:06 | 00:00:00 | |
| OE5HKT-10 | 2026-09-04 12:00:01 | 48.02107 | 12.38929 | 80° | 9km/h | 21300m | 3.8m/s | -54.5°C | 4.1% | 47.5hPa | 2.7V | 00:00:00 | 00:00:00 | 00:00:00 | |
| DO3MHA-11 | 2026-09-04 11:59:56 | 48.02105 | 12.38908 | 90° | 9km/h | 21274m | 4.8m/s | -54.8°C | 4.2% | 47.7hPa | 2.7V | 00:00:00 | 01:29:58 | 00:00:00 | |
| DG1MFX-10 | 2026-09-04 11:59:55 | 48.02105 | 12.38908 | 90° | 11km/h | 21274m | 4.8m/s | -54.8°C | 1.3% | 47.7hPa | 2.7V | 00:00:00 | 00:00:00 | 00:00:00 | |
| OE5MMP-10 | 2026-09-04 11:59:54 | 48.02106 | 12.38899 | 103° | 7km/h | 21263m | 4.5m/s | -54.7°C | 4.2% | 47.8hPa | 2.7V | 00:00:00 | 01:29:56 | 00:00:00 | |
| OE5DXL-15 | 2026-09-04 11:59:52 | 48.02108 | 12.38890 | 116° | 7km/h | 21253m | 5.6m/s | -54.7°C | 4.1% | 47.8hPa | 2.7V | 00:00:00 | 00:00:00 | 00:00:00 | |
| OE5DRO-10 | 2026-09-04 11:59:50 | 48.02109 | 12.38885 | 108° | 9km/h | 21243m | 4.4m/s | -54.7°C | 4.2% | 47.9hPa | 2.7V | 00:00:00 | 00:00:00 | 00:00:00 | |
| DO3MHA-11 | 2026-09-04 11:59:46 | 48.02108 | 12.38878 | 62° | 11km/h | 21224m | 3.9m/s | -54.7°C | 4.2% | 48.0hPa | 2.7V | 00:00:00 | 01:29:48 | 00:00:00 | |
| OE5MMP-10 | 2026-09-04 11:59:44 | 48.02104 | 12.38873 | 31° | 9km/h | 21214m | 5.9m/s | -54.7°C | 4.1% | 48.1hPa | 2.7V | 00:00:00 | 01:29:46 | 00:00:00 | |
| OE5HKT-10 | 2026-09-04 11:59:40 | 48.02093 | 12.38865 | 38° | 7km/h | 21194m | 4.9m/s | -54.7°C | 4.2% | 48.3hPa | 2.7V | 00:00:00 | 01:29:42 | 00:00:00 | |
| OE8JPQ-2 | 2026-09-04 11:59:36 | 48.02084 | 12.38858 | 4° | 5km/h | 21174m | 4.2m/s | -54.8°C | 4.3% | 48.4hPa | 2.7V | 00:00:00 | 01:29:38 | 00:00:00 | |
| DG1MFX-10 | 2026-09-04 11:59:35 | 48.02084 | 12.38858 | 4° | 7km/h | 21174m | 4.3m/s | -54.9°C | 1.3% | 48.5hPa | 2.7V | 00:00:00 | 00:00:00 | 00:00:00 | |
| OE5MMP-10 | 2026-09-04 11:59:34 | 48.02080 | 12.38858 | 33° | 5km/h | 21164m | 5.4m/s | -54.8°C | 4.3% | 48.5hPa | 2.7V | 00:00:00 | 01:29:36 | 00:00:00 | |
| DO3MHA-11 | 2026-09-04 11:59:26 | 48.02071 | 12.38849 | 52° | 5km/h | 21124m | 4.4m/s | -54.7°C | 4.1% | 48.8hPa | 2.7V | 00:00:00 | 01:29:28 | 00:00:00 | |
| OE5MMP-10 | 2026-09-04 11:59:24 | 48.02069 | 12.38845 | 40° | 5km/h | 21113m | 4.7m/s | -54.5°C | 4.1% | 48.9hPa | 2.7V | 00:00:00 | 01:29:26 | 00:00:00 | |
| OE5DXL-15 | 2026-09-04 11:59:22 | 48.02068 | 12.38843 | 137° | 9km/h | 21104m | 5.2m/s | -54.5°C | 4.1% | 49.0hPa | 2.7V | 00:00:00 | 00:00:00 | 00:00:00 | |
| DG1MJG | 2026-09-04 11:59:19 | 48.02069 | 12.38840 | 103° | 7km/h | 21094m | 4.1m/s | -54.5°C | 1.2% | 49.1hPa | 2.7V | 00:00:00 | 00:00:00 | 00:00:00 | |
| OE5HKT-10 | 2026-09-04 11:59:18 | 48.02069 | 12.38836 | 55° | 9km/h | 21084m | 5.1m/s | -54.5°C | 4.3% | 49.1hPa | 2.7V | 00:00:00 | 00:00:00 | 00:00:00 | |
| OE8JPQ-2 | 2026-09-04 11:59:16 | 48.02066 | 12.38831 | 55° | 9km/h | 21073m | 6.0m/s | -54.6°C | 4.2% | 49.2hPa | 2.6V | 00:00:00 | 00:00:00 | 00:00:00 | |
| OE5MMP-10 | 2026-09-04 11:59:14 | 48.02064 | 12.38823 | 77° | 9km/h | 21063m | 4.0m/s | -54.6°C | 4.2% | 49.3hPa | 2.6V | 00:00:00 | 01:29:16 | 00:00:00 | |
| OE5DRO-10 | 2026-09-04 11:59:12 | 48.02062 | 12.38817 | 60° | 9km/h | 21053m | 5.6m/s | -54.8°C | 4.2% | 49.4hPa | 2.6V | 00:00:00 | 00:00:00 | 00:00:00 | |
| DO3MHA-11 | 2026-09-04 11:59:06 | 48.02058 | 12.38802 | 110° | 9km/h | 21023m | 4.7m/s | -54.7°C | 4.1% | 49.6hPa | 2.6V | 00:00:00 | 01:29:08 | 00:00:00 | |
| OE5MMP-10 | 2026-09-04 11:59:04 | 48.02060 | 12.38795 | 96° | 9km/h | 21012m | 5.0m/s | -54.7°C | 4.1% | 49.7hPa | 2.6V | 00:00:00 | 01:29:06 | 00:00:00 | |
| OE5HKT-10 | 2026-09-04 11:58:57 | 48.02056 | 12.38773 | 37° | 13km/h | 20975m | 6.0m/s | -54.8°C | 4.3% | 50.0hPa | 2.6V | 00:00:00 | 00:00:00 | 00:00:00 | |
| OE8JPQ-2 | 2026-09-04 11:58:56 | 48.02054 | 12.38771 | 40° | 11km/h | 20969m | 4.8m/s | -54.8°C | 4.3% | 50.0hPa | 2.6V | 00:00:00 | 00:00:00 | 00:00:00 | |
| OE5MMP-10 | 2026-09-04 11:58:54 | 48.02051 | 12.38768 | 30° | 9km/h | 20960m | 5.7m/s | -54.8°C | 4.3% | 50.1hPa | 2.6V | 00:00:00 | 01:28:56 | 08:30:00 | |
| OE5DRO-10 | 2026-09-04 11:58:53 | 48.02049 | 12.38766 | 26° | 15km/h | 20954m | 5.6m/s | -54.8°C | 4.3% | 50.1hPa | 2.6V | 00:00:00 | 00:00:00 | 00:00:00 | |
| OE5DXL-15 | 2026-09-04 11:58:52 | 48.02047 | 12.38764 | 34° | 16km/h | 20949m | 4.9m/s | -54.9°C | 4.3% | 50.2hPa | 2.7V | 00:00:00 | 00:00:00 | 00:00:00 | |
| DG1MJG | 2026-09-04 11:58:49 | 48.02043 | 12.38758 | 67° | 11km/h | 20937m | 5.1m/s | -55.0°C | 1.3% | 50.3hPa | 2.6V | 00:00:00 | 00:00:00 | 00:00:00 | |
| DO3MHA-11 | 2026-09-04 11:58:46 | 48.02037 | 12.38745 | 36° | 16km/h | 20917m | 5.2m/s | -55.0°C | 4.3% | 50.5hPa | 2.6V | 00:00:00 | 01:28:48 | 00:00:00 | |
| OE5MMP-10 | 2026-09-04 11:58:44 | 48.02035 | 12.38743 | 359° | 18km/h | 20906m | 4.4m/s | -54.9°C | 4.3% | 50.5hPa | 2.6V | 00:00:00 | 01:28:46 | 00:00:00 | |
| OE8JPQ-2 | 2026-09-04 11:58:36 | 48.01997 | 12.38736 | 26° | 16km/h | 20867m | 4.1m/s | -54.7°C | 4.3% | 50.8hPa | 2.6V | 00:00:00 | 01:28:38 | 00:00:00 | |
| DO3MHA-11 | 2026-09-04 11:58:35 | 48.01993 | 12.38733 | 21° | 15km/h | 20863m | 5.1m/s | -54.7°C | 4.4% | 50.9hPa | 2.6V | 00:00:00 | 01:28:37 | 00:00:00 | |
| OE5MMP-10 | 2026-09-04 11:58:34 | 48.01988 | 12.38731 | 11° | 18km/h | 20857m | 5.1m/s | -54.6°C | 4.4% | 50.9hPa | 2.6V | 00:00:00 | 01:28:36 | 00:00:00 | |
| DG1MFX-10 | 2026-09-04 11:58:33 | 48.01988 | 12.38731 | 11° | 18km/h | 20857m | 5.1m/s | -54.7°C | 1.3% | 51.0hPa | 2.6V | 00:00:00 | 00:00:00 | 00:00:00 | |
| OE5FHM-15 | 2026-09-04 11:58:28 | 48.01966 | 12.38734 | 355° | 18km/h | 20828m | 4.2m/s | -54.5°C | 4.1% | 51.2hPa | 2.6V | 00:00:00 | 01:28:30 | 00:00:00 | |
| DO3MHA-11 | 2026-09-04 11:58:25 | 48.01949 | 12.38730 | 19° | 18km/h | 20813m | 5.0m/s | -54.4°C | 4.1% | 51.3hPa | 2.7V | 00:00:00 | 01:28:27 | 00:00:00 | |
| OE5MMP-10 | 2026-09-04 11:58:24 | 48.01944 | 12.38727 | 19° | 13km/h | 20808m | 4.5m/s | -54.3°C | 4.1% | 51.3hPa | 2.7V | 00:00:00 | 01:28:26 | 00:00:00 | |
| OE5DXL-15 | 2026-09-04 11:58:22 | 48.01934 | 12.38725 | 359° | 13km/h | 20798m | 4.1m/s | -54.3°C | 4.2% | 51.4hPa | 2.6V | 00:00:00 | 00:00:00 | 00:00:00 | |
| DG1MJG | 2026-09-04 11:58:18 | 48.01926 | 12.38729 | 307° | 7km/h | 20784m | 5.8m/s | -54.3°C | 1.3% | 51.6hPa | 2.6V | 00:00:00 | 00:00:00 | 00:00:00 | |
| OE8JPQ-2 | 2026-09-04 11:58:16 | 48.01922 | 12.38737 | 319° | 13km/h | 20769m | 4.9m/s | -54.5°C | 4.3% | 51.6hPa | 2.6V | 00:00:00 | 00:00:00 | 08:30:00 | |
| OE5DRO-10 | 2026-09-04 11:58:15 | 48.01919 | 12.38740 | 330° | 13km/h | 20765m | 4.4m/s | -54.6°C | 4.3% | 51.7hPa | 2.6V | 00:00:00 | 00:00:00 | 00:00:00 | |
| OE5MMP-10 | 2026-09-04 11:58:14 | 48.01916 | 12.38742 | 340° | 15km/h | 20760m | 5.3m/s | -54.7°C | 4.3% | 51.7hPa | 2.6V | 00:00:00 | 01:28:16 | 00:00:00 | |
| OE5HKT-10 | 2026-09-04 11:58:13 | 48.01912 | 12.38744 | 352° | 13km/h | 20754m | 5.5m/s | -54.6°C | 4.3% | 51.8hPa | 2.6V | 00:00:00 | 00:00:00 | 08:30:00 | |
| BAUMI2-15 | 2026-09-04 11:58:09 | 48.01895 | 12.38745 | 355° | 13km/h | 20736m | 5.1m/s | -54.5°C | 4.2% | 51.9hPa | 2.6V | 00:00:00 | 01:28:11 | 00:00:00 | |
| BAUMI2-15 | 2026-09-04 11:58:04 | 48.01882 | 12.38749 | 286° | 13km/h | 20710m | 5.7m/s | -54.1°C | 4.1% | 52.1hPa | 2.6V | 00:00:00 | 01:28:06 | 00:00:00 | |
| BAUMI2-15 | 2026-09-04 11:57:59 | 48.01885 | 12.38774 | 246° | 9km/h | 20685m | 4.6m/s | -54.0°C | 4.2% | 52.3hPa | 2.6V | 00:00:00 | 01:28:01 | 00:00:00 | |
| OE8JPQ-2 | 2026-09-04 11:57:56 | 48.01886 | 12.38784 | 298° | 13km/h | 20671m | 4.2m/s | -53.9°C | 4.1% | 52.4hPa | 2.6V | 00:00:00 | 00:00:00 | 00:00:00 | |
| BAUMI2-15 | 2026-09-04 11:57:54 | 48.01884 | 12.38790 | 300° | 9km/h | 20662m | 4.7m/s | -54.0°C | 4.1% | 52.5hPa | 2.6V | 00:00:00 | 01:27:56 | 00:00:00 | |
| OE5HKT-10 | 2026-09-04 11:57:52 | 48.01883 | 12.38795 | 237° | 13km/h | 20652m | 4.8m/s | -53.7°C | 4.0% | 52.6hPa | 2.7V | 00:00:00 | 00:00:00 | 00:00:00 | |
| BAUMI2-15 | 2026-09-04 11:57:49 | 48.01888 | 12.38806 | 247° | 18km/h | 20637m | 6.3m/s | -53.7°C | 3.9% | 52.7hPa | 2.7V | 00:00:00 | 01:27:51 | 00:00:00 | |
| DG1MJG | 2026-09-04 11:57:48 | 48.01888 | 12.38806 | 248° | 16km/h | 20637m | 6.3m/s | -53.7°C | 1.2% | 52.8hPa | 2.7V | 00:00:00 | 00:00:00 | 00:00:00 | |
| OE5MMP-10 | 2026-09-04 11:57:44 | 48.01897 | 12.38836 | 210° | 11km/h | 20612m | 5.4m/s | -53.6°C | 4.0% | 53.0hPa | 2.7V | 00:00:00 | 01:27:46 | 00:00:00 | |
| DO3MHA-11 | 2026-09-04 11:57:41 | 48.01906 | 12.38839 | 186° | 13km/h | 20596m | 5.3m/s | -53.5°C | 3.9% | 53.1hPa | 2.7V | 00:00:00 | 01:27:43 | 00:00:00 | |
| BAUMI2-15 | 2026-09-04 11:57:39 | 48.01911 | 12.38840 | 190° | 11km/h | 20586m | 4.2m/s | -53.6°C | 4.0% | 53.1hPa | 2.7V | 00:00:00 | 01:27:41 | 08:30:00 | |
| DB0UT-7 | 2026-09-04 11:57:38 | 48.01913 | 12.38840 | 190° | 9km/h | 20582m | 5.6m/s | -53.6°C | 3.9% | 53.2hPa | 2.6V | 00:00:00 | 00:00:00 | 00:00:00 | |
| OE5DRO-10 | 2026-09-04 11:57:37 | 48.01916 | 12.38841 | 197° | 15km/h | 20576m | 4.5m/s | -53.7°C | 3.9% | 53.2hPa | 2.6V | 00:00:00 | 00:00:00 | 00:00:00 | |
| OE8JPQ-2 | 2026-09-04 11:57:36 | 48.01919 | 12.38843 | 211° | 16km/h | 20572m | 4.9m/s | -53.9°C | 3.9% | 53.2hPa | 2.6V | 00:00:00 | 01:27:38 | 00:00:00 | |
| OE5MMP-10 | 2026-09-04 11:57:34 | 48.01922 | 12.38849 | 251° | 16km/h | 20561m | 4.3m/s | -54.0°C | 3.9% | 53.3hPa | 2.6V | 00:00:00 | 01:27:36 | 00:00:00 | |
| OE5HKT-10 | 2026-09-04 11:57:31 | 48.01926 | 12.38859 | 206° | 18km/h | 20547m | 4.5m/s | -54.2°C | 3.9% | 53.5hPa | 2.6V | 00:00:00 | 01:27:33 | 00:00:00 | |
| BAUMI2-15 | 2026-09-04 11:57:29 | 48.01932 | 12.38861 | 189° | 20km/h | 20538m | 5.0m/s | -54.3°C | 3.9% | 53.5hPa | 2.6V | 00:00:00 | 01:27:31 | 00:00:00 | |
| DO3MHA-11 | 2026-09-04 11:57:25 | 48.01953 | 12.38866 | 182° | 18km/h | 20519m | 5.7m/s | -54.2°C | 4.0% | 53.7hPa | 2.6V | 00:00:00 | 01:27:27 | 08:30:00 | |
| OE5MMP-10 | 2026-09-04 11:57:24 | 48.01958 | 12.38865 | 174° | 18km/h | 20513m | 4.9m/s | -54.2°C | 4.0% | 53.8hPa | 2.7V | 00:00:00 | 01:27:26 | 08:30:00 | |
| OE5DXL-15 | 2026-09-04 11:57:22 | 48.01968 | 12.38864 | 178° | 18km/h | 20504m | 5.5m/s | -54.2°C | 3.9% | 53.8hPa | 2.7V | 00:00:00 | 00:00:00 | 08:30:00 | |
| BAUMI2-15 | 2026-09-04 11:57:19 | 48.01981 | 12.38865 | 179° | 18km/h | 20490m | 5.1m/s | -54.6°C | 4.0% | 53.9hPa | 2.6V | 00:00:00 | 01:27:21 | 00:00:00 | |
| OE5DRO-10 | 2026-09-04 11:57:18 | 48.01985 | 12.38864 | 170° | 20km/h | 20485m | 4.9m/s | -54.9°C | 4.1% | 54.0hPa | 2.6V | 00:00:00 | 00:00:00 | 00:00:00 | |
| OE8JPQ-2 | 2026-09-04 11:57:16 | 48.01993 | 12.38862 | 175° | 18km/h | 20476m | 4.9m/s | -55.2°C | 4.2% | 54.1hPa | 2.6V | 00:00:00 | 00:00:00 | 00:00:00 | |
| DO3MHA-11 | 2026-09-04 11:57:15 | 48.01998 | 12.38862 | 183° | 22km/h | 20471m | 4.9m/s | -55.2°C | 4.2% | 54.1hPa | 2.6V | 00:00:00 | 01:27:17 | 00:00:00 | |
| OE5MMP-10 | 2026-09-04 11:57:14 | 48.02003 | 12.38862 | 185° | 22km/h | 20466m | 3.9m/s | -55.2°C | 4.2% | 54.1hPa | 2.6V | 00:00:00 | 01:27:16 | 00:00:00 | |
| DG1MFX-10 | 2026-09-04 11:57:11 | 48.02014 | 12.38863 | 179° | 22km/h | 20456m | 4.8m/s | -55.3°C | 1.3% | 54.3hPa | 2.6V | 00:00:00 | 00:00:00 | 00:00:00 | |
| OE5HKT-10 | 2026-09-04 11:57:10 | 48.02025 | 12.38862 | 181° | 16km/h | 20447m | 5.5m/s | -55.6°C | 4.4% | 54.3hPa | 2.6V | 00:00:00 | 00:00:00 | 00:00:00 | |
| BAUMI2-15 | 2026-09-04 11:57:09 | 48.02031 | 12.38862 | 180° | 22km/h | 20442m | 4.4m/s | -55.7°C | 4.4% | 54.3hPa | 2.6V | 00:00:00 | 01:27:11 | 00:00:00 | |
| DO3MHA-11 | 2026-09-04 11:57:05 | 48.02053 | 12.38854 | 154° | 16km/h | 20424m | 4.9m/s | -55.6°C | 4.5% | 54.5hPa | 2.7V | 00:00:00 | 01:27:07 | 00:00:00 | |
| OE5MMP-10 | 2026-09-04 11:57:04 | 48.02057 | 12.38851 | 152° | 15km/h | 20419m | 4.8m/s | -55.5°C | 4.5% | 54.6hPa | 2.7V | 00:00:00 | 01:27:06 | 00:00:00 | |
| HARRO8 | 2026-09-04 11:57:03 | 48.02084 | 12.38823 | 174° | 15km/h | 20376m | 5.7m/s | 0°C | -1.0% | -1.0hPa | 2.7V | 00:00:00 | 00:00:00 | 00:00:00 | |
| OE5FHM-15 | 2026-09-04 11:57:02 | 48.02063 | 12.38844 | 135° | 11km/h | 20409m | 5.2m/s | -55.6°C | 4.5% | 54.6hPa | 2.7V | 00:00:00 | 01:27:04 | 00:00:00 | |
| BAUMI2-15 | 2026-09-04 11:56:59 | 48.02071 | 12.38830 | 135° | 15km/h | 20396m | 3.9m/s | -55.5°C | 4.4% | 54.7hPa | 2.7V | 00:00:00 | 01:27:01 | 00:00:00 | |
| OE8JPQ-2 | 2026-09-04 11:56:56 | 48.02080 | 12.38823 | 176° | 11km/h | 20382m | 4.4m/s | -55.4°C | 4.4% | 54.9hPa | 2.7V | 00:00:00 | 00:00:00 | 00:00:00 | |
| DO3MHA-11 | 2026-09-04 11:56:55 | 48.02084 | 12.38823 | 175° | 13km/h | 20376m | 5.7m/s | -55.4°C | 4.4% | 55.0hPa | 2.7V | 00:00:00 | 01:26:57 | 00:00:00 | |
| OE5MMP-10 | 2026-09-04 11:56:54 | 48.02088 | 12.38822 | 172° | 13km/h | 20372m | 4.3m/s | -55.4°C | 4.4% | 55.0hPa | 2.6V | 00:00:00 | 01:26:56 | 00:00:00 | |
| OE5DXL-15 | 2026-09-04 11:56:52 | 48.02097 | 12.38820 | 172° | 9km/h | 20362m | 5.5m/s | -55.4°C | 4.4% | 55.0hPa | 2.7V | 00:00:00 | 00:00:00 | 00:00:00 | |
| DG1MFX-10 | 2026-09-04 11:56:51 | 48.02097 | 12.38820 | 172° | 15km/h | 20362m | 5.5m/s | -55.4°C | 1.4% | 55.1hPa | 2.7V | 00:00:00 | 00:00:00 | 00:00:00 | |
| OE5HKT-10 | 2026-09-04 11:56:49 | 48.02105 | 12.38816 | 145° | 7km/h | 20347m | 5.8m/s | -55.3°C | 4.4% | 55.2hPa | 2.7V | 00:00:00 | 00:00:00 | 00:00:00 | |
| DG1MJG | 2026-09-04 11:56:47 | 48.02107 | 12.38813 | 135° | 15km/h | 20342m | 4.6m/s | -55.3°C | 1.3% | 55.3hPa | 2.7V | 00:00:00 | 00:00:00 | 00:00:00 | |
| DO3MHA-11 | 2026-09-04 11:56:45 | 48.02113 | 12.38802 | 138° | 7km/h | 20328m | 5.1m/s | -55.2°C | 4.3% | 55.4hPa | 2.7V | 00:00:00 | 01:26:47 | 00:00:00 | |
| OE5MMP-10 | 2026-09-04 11:56:44 | 48.02115 | 12.38801 | 153° | 7km/h | 20323m | 4.6m/s | -55.2°C | 4.3% | 55.4hPa | 2.7V | 00:00:00 | 01:26:46 | 00:00:00 | |
| OE5DRO-10 | 2026-09-04 11:56:40 | 48.02124 | 12.38799 | 203° | 5km/h | 20304m | 5.3m/s | -55.1°C | 4.3% | 55.6hPa | 2.7V | 00:00:00 | 00:00:00 | 00:00:00 | |
| BAUMI2-15 | 2026-09-04 11:56:39 | 48.02126 | 12.38800 | 208° | 5km/h | 20298m | 4.5m/s | -55.1°C | 4.3% | 55.6hPa | 2.7V | 00:00:00 | 01:26:41 | 00:00:00 | |
| OE8JPQ-2 | 2026-09-04 11:56:36 | 48.02130 | 12.38800 | 145° | 5km/h | 20284m | 3.8m/s | -55.2°C | 4.4% | 55.8hPa | 2.7V | 00:00:00 | 01:26:38 | 00:00:00 | |
| DO3MHA-11 | 2026-09-04 11:56:35 | 48.02131 | 12.38799 | 124° | 5km/h | 20280m | 5.4m/s | -55.2°C | 4.4% | 55.8hPa | 2.7V | 00:00:00 | 01:26:37 | 00:00:00 | |
| OE5MMP-10 | 2026-09-04 11:56:34 | 48.02132 | 12.38797 | 102° | 5km/h | 20274m | 4.7m/s | -55.1°C | 4.4% | 55.8hPa | 2.7V | 00:00:00 | 01:26:36 | 00:00:00 | |
| OE5FHM-15 | 2026-09-04 11:56:32 | 48.02132 | 12.38793 | 105° | 7km/h | 20265m | 5.7m/s | -55.1°C | 4.4% | 55.9hPa | 2.7V | 00:00:00 | 01:26:34 | 00:00:00 | |
| DG1MFX-10 | 2026-09-04 11:56:30 | 48.02133 | 12.38790 | 114° | 9km/h | 20260m | 4.3m/s | -55.1°C | 1.3% | 56.0hPa | 2.7V | 00:00:00 | 00:00:00 | 00:00:00 | |
| DB0UT-7 | 2026-09-04 11:56:29 | 48.02135 | 12.38784 | 125° | 7km/h | 20251m | 5.5m/s | -55.0°C | 4.3% | 56.0hPa | 2.7V | 00:00:00 | 01:26:31 | 08:30:00 | |
| OE5HKT-10 | 2026-09-04 11:56:27 | 48.02136 | 12.38783 | 213° | 7km/h | 20241m | 3.8m/s | 0°C | 0% | 0hPa | 2.6V | 00:00:00 | 01:26:29 | 00:00:00 | |
| DO3MHA-11 | 2026-09-04 11:56:25 | 48.02139 | 12.38784 | 203° | 7km/h | 20231m | 4.9m/s | -54.8°C | 4.2% | 56.2hPa | 2.6V | 00:00:00 | 01:26:27 | 00:00:00 | |
| OE5MMP-10 | 2026-09-04 11:56:24 | 48.02141 | 12.38786 | 205° | 7km/h | 20227m | 4.1m/s | -54.8°C | 4.2% | 56.2hPa | 2.6V | 00:00:00 | 01:26:26 | 00:00:00 | |
| OE5DXL-15 | 2026-09-04 11:56:22 | 48.02143 | 12.38789 | 227° | 11km/h | 20217m | 4.2m/s | -54.7°C | 4.2% | 56.3hPa | 2.7V | 00:00:00 | 00:00:00 | 00:00:00 | |
| OE5DRO-10 | 2026-09-04 11:56:21 | 48.02145 | 12.38790 | 209° | 9km/h | 20213m | 3.8m/s | -54.6°C | 4.2% | 56.4hPa | 2.7V | 00:00:00 | 00:00:00 | 00:00:00 | |
| BAUMI2-15 | 2026-09-04 11:56:19 | 48.02146 | 12.38788 | 118° | 7km/h | 20203m | 4.7m/s | -54.6°C | 4.2% | 56.5hPa | 2.7V | 00:00:00 | 01:26:21 | 00:00:00 | |
| OE8JPQ-2 | 2026-09-04 11:56:16 | 48.02147 | 12.38779 | 91° | 11km/h | 20189m | 3.6m/s | -54.6°C | 4.2% | 56.6hPa | 2.7V | 00:00:00 | 00:00:00 | 00:00:00 | |
| DO3MHA-11 | 2026-09-04 11:56:15 | 48.02147 | 12.38777 | 113° | 7km/h | 20186m | 3.9m/s | -54.7°C | 4.2% | 56.6hPa | 2.6V | 00:00:00 | 01:26:17 | 00:00:00 | |
| OE5MMP-10 | 2026-09-04 11:56:14 | 48.02148 | 12.38775 | 142° | 9km/h | 20181m | 5.0m/s | -54.8°C | 4.2% | 56.6hPa | 2.6V | 00:00:00 | 01:26:16 | 00:00:00 | |
| DL6DJ-15 | 2026-09-04 11:56:13 | 48.02150 | 12.38774 | 164° | 9km/h | 20176m | 4.4m/s | -54.9°C | 1.3% | 56.7hPa | 2.6V | 00:00:00 | 00:00:00 | 00:00:00 | |
| DG1MFX-10 | 2026-09-04 11:56:09 | 48.02157 | 12.38775 | 206° | 9km/h | 20163m | 3.6m/s | -55.0°C | 1.3% | 56.8hPa | 2.6V | 00:00:00 | 00:00:00 | 00:00:00 | |
| OE5HKT-10 | 2026-09-04 11:56:06 | 48.02165 | 12.38779 | 171° | 15km/h | 20144m | 5.2m/s | 0°C | 0% | 0hPa | 2.6V | 00:00:00 | 00:00:00 | 00:00:00 | |
| OE5MMP-10 | 2026-09-04 11:56:04 | 48.02167 | 12.38775 | 112° | 15km/h | 20135m | 4.3m/s | -55.0°C | 4.3% | 57.1hPa | 2.6V | 00:00:00 | 01:26:06 | 00:00:00 | |
| OE5FHM-15 | 2026-09-04 11:56:02 | 48.02170 | 12.38767 | 121° | 20km/h | 20126m | 3.9m/s | -55.1°C | 4.3% | 57.1hPa | 2.6V | 00:00:00 | 01:26:04 | 00:00:00 | |
| OE5DRO-10 | 2026-09-04 11:56:01 | 48.02172 | 12.38762 | 123° | 16km/h | 20121m | 4.8m/s | -55.1°C | 4.3% | 57.2hPa | 2.7V | 00:00:00 | 00:00:00 | 00:00:00 | |
| DB0UT-7 | 2026-09-04 11:55:59 | 48.02176 | 12.38753 | 135° | 24km/h | 20112m | 3.9m/s | -55.0°C | 4.2% | 57.3hPa | 2.7V | 00:00:00 | 00:00:00 | 00:00:00 | |
| OE8JPQ-2 | 2026-09-04 11:55:56 | 48.02186 | 12.38743 | 150° | 18km/h | 20097m | 4.2m/s | -55.0°C | 4.2% | 57.4hPa | 2.7V | 00:00:00 | 00:00:00 | 00:00:00 | |
| OE5MMP-10 | 2026-09-04 11:55:54 | 48.02192 | 12.38736 | 135° | 16km/h | 20088m | 3.8m/s | -55.1°C | 4.2% | 57.5hPa | 2.7V | 00:00:00 | 01:25:56 | 08:30:00 | |
| OE5DXL-15 | 2026-09-04 11:55:52 | 48.02197 | 12.38728 | 125° | 22km/h | 20079m | 5.4m/s | -55.0°C | 4.1% | 57.6hPa | 2.6V | 00:00:00 | 00:00:00 | 00:00:00 | |
| DG1MFX-10 | 2026-09-04 11:55:48 | 48.02202 | 12.38712 | 105° | 16km/h | 20064m | 4.8m/s | -55.4°C | 1.3% | 57.8hPa | 2.6V | 00:00:00 | 00:00:00 | 00:00:00 | |
| DG1MJG | 2026-09-04 11:55:45 | 48.02206 | 12.38693 | 118° | 18km/h | 20052m | 4.5m/s | -55.7°C | 1.3% | 57.9hPa | 2.6V | 00:00:00 | 00:00:00 | 00:00:00 | |
| OE5MMP-10 | 2026-09-04 11:55:44 | 48.02210 | 12.38682 | 118° | 20km/h | 20042m | 4.8m/s | -55.6°C | 4.3% | 57.9hPa | 2.6V | 00:00:00 | 01:25:46 | 00:00:00 | |
| DL6DJ-15 | 2026-09-04 11:55:42 | 48.02218 | 12.38666 | 131° | 20km/h | 20029m | 4.6m/s | -55.9°C | 1.3% | 58.0hPa | 2.6V | 00:00:00 | 00:00:00 | 00:00:00 | |
| OE8JPQ-2 | 2026-09-04 11:55:36 | 48.02232 | 12.38630 | 110° | 27km/h | 20008m | 4.2m/s | -55.9°C | 4.5% | 58.2hPa | 2.6V | 00:00:00 | 01:25:38 | 00:00:00 | |
| OE5MMP-10 | 2026-09-04 11:55:34 | 48.02236 | 12.38613 | 110° | 27km/h | 19999m | 3.1m/s | -55.9°C | 4.4% | 58.3hPa | 2.6V | 00:00:00 | 01:25:36 | 00:00:00 | |
| DG1MFX-10 | 2026-09-04 11:55:28 | 48.02246 | 12.38564 | 114° | 27km/h | 19978m | 3.5m/s | -56.0°C | 1.4% | 58.5hPa | 2.6V | 00:00:00 | 00:00:00 | 00:00:00 | |
| OE5MMP-10 | 2026-09-04 11:55:24 | 48.02254 | 12.38517 | 100° | 27km/h | 19958m | 4.4m/s | -56.1°C | 4.4% | 58.7hPa | 2.6V | 00:00:00 | 01:25:26 | 00:00:00 | |
| OE5DRO-10 | 2026-09-04 11:55:23 | 48.02255 | 12.38506 | 105° | 22km/h | 19954m | 4.4m/s | -56.0°C | 4.3% | 58.7hPa | 2.7V | 00:00:00 | 00:00:00 | 00:00:00 | |
| OE5DXL-15 | 2026-09-04 11:55:22 | 48.02258 | 12.38495 | 109° | 20km/h | 19949m | 4.0m/s | -55.9°C | 4.4% | 58.8hPa | 2.7V | 00:00:00 | 00:00:00 | 00:00:00 | |
| OE8JPQ-2 | 2026-09-04 11:55:16 | 48.02268 | 12.38432 | 104° | 18km/h | 19924m | 3.9m/s | -55.9°C | 4.4% | 59.0hPa | 2.7V | 00:00:00 | 00:00:00 | 08:30:00 | |
| DG1MJG | 2026-09-04 11:55:15 | 48.02268 | 12.38432 | 104° | 18km/h | 19924m | 3.9m/s | -55.9°C | 1.3% | 59.1hPa | 2.7V | 00:00:00 | 00:00:00 | 00:00:00 | |
| OE5MMP-10 | 2026-09-04 11:55:14 | 48.02269 | 12.38421 | 79° | 18km/h | 19914m | 4.5m/s | -55.9°C | 4.5% | 59.1hPa | 2.7V | 00:00:00 | 01:25:16 | 00:00:00 | |
| DL6DJ-15 | 2026-09-04 11:55:11 | 48.02267 | 12.38404 | 91° | 13km/h | 19897m | 3.7m/s | -55.9°C | 1.3% | 59.3hPa | 2.7V | 00:00:00 | 00:00:00 | 00:00:00 | |
| OE5HKT-10 | 2026-09-04 11:55:07 | 48.02267 | 12.38382 | 92° | 20km/h | 19884m | 4.1m/s | 0°C | 0% | 0hPa | 2.7V | 00:00:00 | 00:00:00 | 00:00:00 | |
| OE5MMP-10 | 2026-09-04 11:55:04 | 48.02269 | 12.38350 | 95° | 18km/h | 19871m | 3.5m/s | -56.1°C | 4.5% | 59.5hPa | 2.7V | 00:00:00 | 01:25:06 | 00:00:00 | |
| HARRO8 | 2026-09-04 11:54:59 | 48.02264 | 12.38311 | 64° | 11km/h | 19848m | 4.5m/s | 0°C | -1.0% | -1.0hPa | 2.7V | 00:00:00 | 00:00:00 | 00:00:00 | |
| OE8JPQ-2 | 2026-09-04 11:54:56 | 48.02259 | 12.38299 | 57° | 13km/h | 19835m | 4.8m/s | -56.1°C | 4.7% | 59.8hPa | 2.7V | 00:00:00 | 00:00:00 | 00:00:00 | |
| OE5MMP-10 | 2026-09-04 11:54:54 | 48.02256 | 12.38288 | 74° | 16km/h | 19825m | 5.9m/s | -56.1°C | 4.6% | 59.9hPa | 2.7V | 00:00:00 | 01:24:56 | 00:00:00 | |
| OE5DXL-15 | 2026-09-04 11:54:52 | 48.02254 | 12.38273 | 85° | 7km/h | 19815m | 3.6m/s | -56.0°C | 4.5% | 60.0hPa | 2.7V | 00:00:00 | 00:00:00 | 00:00:00 | |
| DG1MFX-10 | 2026-09-04 11:54:46 | 48.02246 | 12.38240 | 65° | 15km/h | 19793m | 5.2m/s | -55.9°C | 1.4% | 60.3hPa | 2.7V | 00:00:00 | 00:00:00 | 00:00:00 | |
| OE5DRO-10 | 2026-09-04 11:54:45 | 48.02245 | 12.38232 | 84° | 5km/h | 19783m | 4.7m/s | -55.9°C | 4.4% | 60.3hPa | 2.7V | 00:00:00 | 00:00:00 | 00:00:00 | |
| OE5MMP-10 | 2026-09-04 11:54:44 | 48.02245 | 12.38230 | 78° | 5km/h | 19778m | 4.6m/s | -55.9°C | 4.4% | 60.4hPa | 2.7V | 00:00:00 | 01:24:46 | 00:00:00 | |
| DL6DJ-15 | 2026-09-04 11:54:40 | 48.02241 | 12.38226 | 84° | 4km/h | 19755m | 4.5m/s | -55.7°C | 1.4% | 60.6hPa | 2.7V | 00:00:00 | 00:00:00 | 00:00:00 | |
| OE8JPQ-2 | 2026-09-04 11:54:36 | 48.02239 | 12.38218 | 64° | 4km/h | 19742m | 4.4m/s | -55.6°C | 4.6% | 60.7hPa | 2.7V | 00:00:00 | 01:24:38 | 00:00:00 | |
| OE5MMP-10 | 2026-09-04 11:54:34 | 48.02238 | 12.38214 | 75° | 4km/h | 19734m | 5.0m/s | -55.5°C | 4.5% | 60.8hPa | 2.7V | 00:00:00 | 01:24:36 | 00:00:00 | |
| OE5DRO-10 | 2026-09-04 11:54:26 | 48.02237 | 12.38206 | 188° | 5km/h | 19697m | 4.8m/s | -55.3°C | 4.3% | 61.2hPa | 2.7V | 00:00:00 | 00:00:00 | 00:00:00 | |
| DG1MFX-10 | 2026-09-04 11:54:25 | 48.02237 | 12.38206 | 188° | 5km/h | 19697m | 4.8m/s | -55.4°C | 1.3% | 61.2hPa | 2.7V | 00:00:00 | 00:00:00 | 00:00:00 | |
| OE5HKT-10 | 2026-09-04 11:54:24 | 48.02240 | 12.38207 | 198° | 5km/h | 19688m | 4.9m/s | 0°C | 0% | 0hPa | 2.7V | 00:00:00 | 00:00:00 | 00:00:00 | |
| Es werden nur die letzten 3500 von 4885 Frames angezeigt. GPX/KML und Diagramme bleiben verfügbar. | |||||||||||||||